<?xml version="1.0" encoding="UTF-8" standalone="no" ?>
<gpx xmlns="http://www.topografix.com/GPX/1/1" creator="Cyclopedia.no" version="1.1" xmlns:xsi="http://www.w3.org/2001/XMLSchema-instance" xsi:schemaLocation="http://www.topografix.com/GPX/1/1 http://www.topografix.com/GPX/1/1/gpx.xsd">
	<metadata>
		<link href="http://www.cyclopedia.no"><text>Cyclopedia.no</text></link>
		<time>2026-05-06T15:24:32Z</time>	</metadata>
	<wpt lat="51.7039444" lon="-0.0224335999999994"><ele>31</ele><time>0001-01-01T00:00:00Z</time><name>Start</name></wpt>
	<wpt lat="51.7039444" lon="-0.0224335999999994"><ele>31</ele><time>0001-01-01T00:00:00Z</time><name>Slutt</name></wpt>
	<trk>
		<name>London - Edinburgh - London</name>
		<trkseg>
				<trkpt lat="51.70394" lon="-0.02243">
					<ele>31</ele>
					<time>0001-01-01T00:00:00Z</time>
				</trkpt>
				<trkpt lat="51.70392" lon="-0.02250">
					<ele>29</ele>
					<time>0001-01-01T00:00:00Z</time>
				</trkpt>
				<trkpt lat="51.70395" lon="-0.02253">
					<ele>28</ele>
					<time>0001-01-01T00:00:00Z</time>
				</trkpt>
				<trkpt lat="51.70375" lon="-0.02234">
					<ele>26</ele>
					<time>0001-01-01T00:00:00Z</time>
				</trkpt>
				<trkpt lat="51.70363" lon="-0.02213">
					<ele>28</ele>
					<time>0001-01-01T00:00:00Z</time>
				</trkpt>
				<trkpt lat="51.70312" lon="-0.02228">
					<ele>28</ele>
					<time>0001-01-01T00:00:00Z</time>
				</trkpt>
				<trkpt lat="51.70312" lon="-0.02227">
					<ele>28</ele>
					<time>0001-01-01T00:00:00Z</time>
				</trkpt>
				<trkpt lat="51.70316" lon="-0.02261">
					<ele>28</ele>
					<time>0001-01-01T00:00:00Z</time>
				</trkpt>
				<trkpt lat="51.70321" lon="-0.02364">
					<ele>30</ele>
					<time>0001-01-01T00:00:00Z</time>
				</trkpt>
				<trkpt lat="51.70326" lon="-0.02368">
					<ele>31</ele>
					<time>0001-01-01T00:00:00Z</time>
				</trkpt>
				<trkpt lat="51.70334" lon="-0.02365">
					<ele>32</ele>
					<time>0001-01-01T00:00:00Z</time>
				</trkpt>
				<trkpt lat="51.70329" lon="-0.02375">
					<ele>39</ele>
					<time>0001-01-01T00:00:00Z</time>
				</trkpt>
				<trkpt lat="51.70330" lon="-0.02386">
					<ele>39</ele>
					<time>0001-01-01T00:00:00Z</time>
				</trkpt>
				<trkpt lat="51.70326" lon="-0.02389">
					<ele>38</ele>
					<time>0001-01-01T00:00:00Z</time>
				</trkpt>
				<trkpt lat="51.70319" lon="-0.02394">
					<ele>32</ele>
					<time>0001-01-01T00:00:00Z</time>
				</trkpt>
				<trkpt lat="51.70316" lon="-0.02394">
					<ele>40</ele>
					<time>0001-01-01T00:00:00Z</time>
				</trkpt>
				<trkpt lat="51.70316" lon="-0.02403">
					<ele>32</ele>
					<time>0001-01-01T00:00:00Z</time>
				</trkpt>
				<trkpt lat="51.70317" lon="-0.02405">
					<ele>29</ele>
					<time>0001-01-01T00:00:00Z</time>
				</trkpt>
				<trkpt lat="51.70317" lon="-0.02411">
					<ele>22</ele>
					<time>0001-01-01T00:00:00Z</time>
				</trkpt>
				<trkpt lat="51.70310" lon="-0.02491">
					<ele>23</ele>
					<time>0001-01-01T00:00:00Z</time>
				</trkpt>
				<trkpt lat="51.70281" lon="-0.02707">
					<ele>25</ele>
					<time>0001-01-01T00:00:00Z</time>
				</trkpt>
				<trkpt lat="51.70277" lon="-0.02752">
					<ele>25</ele>
					<time>0001-01-01T00:00:00Z</time>
				</trkpt>
				<trkpt lat="51.70280" lon="-0.02922">
					<ele>25</ele>
					<time>0001-01-01T00:00:00Z</time>
				</trkpt>
				<trkpt lat="51.70286" lon="-0.02948">
					<ele>23</ele>
					<time>0001-01-01T00:00:00Z</time>
				</trkpt>
				<trkpt lat="51.70327" lon="-0.02938">
					<ele>24</ele>
					<time>0001-01-01T00:00:00Z</time>
				</trkpt>
				<trkpt lat="51.70408" lon="-0.02912">
					<ele>25</ele>
					<time>0001-01-01T00:00:00Z</time>
				</trkpt>
				<trkpt lat="51.70430" lon="-0.02883">
					<ele>25</ele>
					<time>0001-01-01T00:00:00Z</time>
				</trkpt>
				<trkpt lat="51.70452" lon="-0.02867">
					<ele>26</ele>
					<time>0001-01-01T00:00:00Z</time>
				</trkpt>
				<trkpt lat="51.70504" lon="-0.02864">
					<ele>26</ele>
					<time>0001-01-01T00:00:00Z</time>
				</trkpt>
				<trkpt lat="51.70595" lon="-0.02872">
					<ele>27</ele>
					<time>0001-01-01T00:00:00Z</time>
				</trkpt>
				<trkpt lat="51.70606" lon="-0.02882">
					<ele>27</ele>
					<time>0001-01-01T00:00:00Z</time>
				</trkpt>
				<trkpt lat="51.70624" lon="-0.02907">
					<ele>26</ele>
					<time>0001-01-01T00:00:00Z</time>
				</trkpt>
				<trkpt lat="51.70633" lon="-0.02941">
					<ele>26</ele>
					<time>0001-01-01T00:00:00Z</time>
				</trkpt>
				<trkpt lat="51.70636" lon="-0.02993">
					<ele>26</ele>
					<time>0001-01-01T00:00:00Z</time>
				</trkpt>
				<trkpt lat="51.70645" lon="-0.03206">
					<ele>28</ele>
					<time>0001-01-01T00:00:00Z</time>
				</trkpt>
				<trkpt lat="51.70670" lon="-0.03333">
					<ele>29</ele>
					<time>0001-01-01T00:00:00Z</time>
				</trkpt>
				<trkpt lat="51.70674" lon="-0.03574">
					<ele>34</ele>
					<time>0001-01-01T00:00:00Z</time>
				</trkpt>
				<trkpt lat="51.70670" lon="-0.03593">
					<ele>34</ele>
					<time>0001-01-01T00:00:00Z</time>
				</trkpt>
				<trkpt lat="51.70660" lon="-0.03641">
					<ele>36</ele>
					<time>0001-01-01T00:00:00Z</time>
				</trkpt>
				<trkpt lat="51.70673" lon="-0.03657">
					<ele>36</ele>
					<time>0001-01-01T00:00:00Z</time>
				</trkpt>
				<trkpt lat="51.70765" lon="-0.03739">
					<ele>34</ele>
					<time>0001-01-01T00:00:00Z</time>
				</trkpt>
				<trkpt lat="51.70790" lon="-0.03766">
					<ele>35</ele>
					<time>0001-01-01T00:00:00Z</time>
				</trkpt>
				<trkpt lat="51.70800" lon="-0.03834">
					<ele>37</ele>
					<time>0001-01-01T00:00:00Z</time>
				</trkpt>
				<trkpt lat="51.70834" lon="-0.04120">
					<ele>38</ele>
					<time>0001-01-01T00:00:00Z</time>
				</trkpt>
				<trkpt lat="51.70839" lon="-0.04185">
					<ele>38</ele>
					<time>0001-01-01T00:00:00Z</time>
				</trkpt>
				<trkpt lat="51.70845" lon="-0.04225">
					<ele>38</ele>
					<time>0001-01-01T00:00:00Z</time>
				</trkpt>
				<trkpt lat="51.70852" lon="-0.04236">
					<ele>39</ele>
					<time>0001-01-01T00:00:00Z</time>
				</trkpt>
				<trkpt lat="51.70857" lon="-0.04306">
					<ele>40</ele>
					<time>0001-01-01T00:00:00Z</time>
				</trkpt>
				<trkpt lat="51.70890" lon="-0.04530">
					<ele>41</ele>
					<time>0001-01-01T00:00:00Z</time>
				</trkpt>
				<trkpt lat="51.70924" lon="-0.04714">
					<ele>41</ele>
					<time>0001-01-01T00:00:00Z</time>
				</trkpt>
				<trkpt lat="51.70946" lon="-0.04920">
					<ele>42</ele>
					<time>0001-01-01T00:00:00Z</time>
				</trkpt>
				<trkpt lat="51.70939" lon="-0.04953">
					<ele>42</ele>
					<time>0001-01-01T00:00:00Z</time>
				</trkpt>
				<trkpt lat="51.70842" lon="-0.04987">
					<ele>42</ele>
					<time>0001-01-01T00:00:00Z</time>
				</trkpt>
				<trkpt lat="51.70815" lon="-0.04979">
					<ele>43</ele>
					<time>0001-01-01T00:00:00Z</time>
				</trkpt>
				<trkpt lat="51.70813" lon="-0.04961">
					<ele>43</ele>
					<time>0001-01-01T00:00:00Z</time>
				</trkpt>
				<trkpt lat="51.70814" lon="-0.04951">
					<ele>43</ele>
					<time>0001-01-01T00:00:00Z</time>
				</trkpt>
				<trkpt lat="51.70818" lon="-0.04975">
					<ele>44</ele>
					<time>0001-01-01T00:00:00Z</time>
				</trkpt>
				<trkpt lat="51.70838" lon="-0.04976">
					<ele>44</ele>
					<time>0001-01-01T00:00:00Z</time>
				</trkpt>
				<trkpt lat="51.70846" lon="-0.04976">
					<ele>44</ele>
					<time>0001-01-01T00:00:00Z</time>
				</trkpt>
				<trkpt lat="51.70847" lon="-0.04974">
					<ele>43</ele>
					<time>0001-01-01T00:00:00Z</time>
				</trkpt>
				<trkpt lat="51.70860" lon="-0.04974">
					<ele>43</ele>
					<time>0001-01-01T00:00:00Z</time>
				</trkpt>
				<trkpt lat="51.70923" lon="-0.04953">
					<ele>44</ele>
					<time>0001-01-01T00:00:00Z</time>
				</trkpt>
				<trkpt lat="51.70950" lon="-0.04936">
					<ele>44</ele>
					<time>0001-01-01T00:00:00Z</time>
				</trkpt>
				<trkpt lat="51.71012" lon="-0.04931">
					<ele>45</ele>
					<time>0001-01-01T00:00:00Z</time>
				</trkpt>
				<trkpt lat="51.71070" lon="-0.04961">
					<ele>45</ele>
					<time>0001-01-01T00:00:00Z</time>
				</trkpt>
				<trkpt lat="51.71170" lon="-0.05017">
					<ele>50</ele>
					<time>0001-01-01T00:00:00Z</time>
				</trkpt>
				<trkpt lat="51.71270" lon="-0.05039">
					<ele>51</ele>
					<time>0001-01-01T00:00:00Z</time>
				</trkpt>
				<trkpt lat="51.71298" lon="-0.05066">
					<ele>53</ele>
					<time>0001-01-01T00:00:00Z</time>
				</trkpt>
				<trkpt lat="51.71329" lon="-0.05096">
					<ele>53</ele>
					<time>0001-01-01T00:00:00Z</time>
				</trkpt>
				<trkpt lat="51.71343" lon="-0.05101">
					<ele>53</ele>
					<time>0001-01-01T00:00:00Z</time>
				</trkpt>
				<trkpt lat="51.71452" lon="-0.05074">
					<ele>62</ele>
					<time>0001-01-01T00:00:00Z</time>
				</trkpt>
				<trkpt lat="51.71487" lon="-0.05097">
					<ele>65</ele>
					<time>0001-01-01T00:00:00Z</time>
				</trkpt>
				<trkpt lat="51.71510" lon="-0.05128">
					<ele>68</ele>
					<time>0001-01-01T00:00:00Z</time>
				</trkpt>
				<trkpt lat="51.71519" lon="-0.05155">
					<ele>69</ele>
					<time>0001-01-01T00:00:00Z</time>
				</trkpt>
				<trkpt lat="51.71643" lon="-0.05374">
					<ele>75</ele>
					<time>0001-01-01T00:00:00Z</time>
				</trkpt>
				<trkpt lat="51.71928" lon="-0.05712">
					<ele>82</ele>
					<time>0001-01-01T00:00:00Z</time>
				</trkpt>
				<trkpt lat="51.72086" lon="-0.05929">
					<ele>82</ele>
					<time>0001-01-01T00:00:00Z</time>
				</trkpt>
				<trkpt lat="51.72097" lon="-0.05938">
					<ele>82</ele>
					<time>0001-01-01T00:00:00Z</time>
				</trkpt>
				<trkpt lat="51.72109" lon="-0.05952">
					<ele>82</ele>
					<time>0001-01-01T00:00:00Z</time>
				</trkpt>
				<trkpt lat="51.72121" lon="-0.05948">
					<ele>83</ele>
					<time>0001-01-01T00:00:00Z</time>
				</trkpt>
				<trkpt lat="51.72229" lon="-0.05899">
					<ele>88</ele>
					<time>0001-01-01T00:00:00Z</time>
				</trkpt>
				<trkpt lat="51.72312" lon="-0.05873">
					<ele>88</ele>
					<time>0001-01-01T00:00:00Z</time>
				</trkpt>
				<trkpt lat="51.72388" lon="-0.05856">
					<ele>84</ele>
					<time>0001-01-01T00:00:00Z</time>
				</trkpt>
				<trkpt lat="51.72443" lon="-0.05854">
					<ele>78</ele>
					<time>0001-01-01T00:00:00Z</time>
				</trkpt>
				<trkpt lat="51.72495" lon="-0.05861">
					<ele>74</ele>
					<time>0001-01-01T00:00:00Z</time>
				</trkpt>
				<trkpt lat="51.72604" lon="-0.05862">
					<ele>76</ele>
					<time>0001-01-01T00:00:00Z</time>
				</trkpt>
				<trkpt lat="51.72750" lon="-0.05862">
					<ele>81</ele>
					<time>0001-01-01T00:00:00Z</time>
				</trkpt>
				<trkpt lat="51.73048" lon="-0.05897">
					<ele>83</ele>
					<time>0001-01-01T00:00:00Z</time>
				</trkpt>
				<trkpt lat="51.73151" lon="-0.05906">
					<ele>82</ele>
					<time>0001-01-01T00:00:00Z</time>
				</trkpt>
				<trkpt lat="51.73214" lon="-0.05874">
					<ele>70</ele>
					<time>0001-01-01T00:00:00Z</time>
				</trkpt>
				<trkpt lat="51.73246" lon="-0.05831">
					<ele>68</ele>
					<time>0001-01-01T00:00:00Z</time>
				</trkpt>
				<trkpt lat="51.73297" lon="-0.05782">
					<ele>66</ele>
					<time>0001-01-01T00:00:00Z</time>
				</trkpt>
				<trkpt lat="51.73355" lon="-0.05742">
					<ele>60</ele>
					<time>0001-01-01T00:00:00Z</time>
				</trkpt>
				<trkpt lat="51.73415" lon="-0.05706">
					<ele>56</ele>
					<time>0001-01-01T00:00:00Z</time>
				</trkpt>
				<trkpt lat="51.73530" lon="-0.05586">
					<ele>50</ele>
					<time>0001-01-01T00:00:00Z</time>
				</trkpt>
				<trkpt lat="51.73644" lon="-0.05458">
					<ele>52</ele>
					<time>0001-01-01T00:00:00Z</time>
				</trkpt>
				<trkpt lat="51.73662" lon="-0.05466">
					<ele>53</ele>
					<time>0001-01-01T00:00:00Z</time>
				</trkpt>
				<trkpt lat="51.73658" lon="-0.05634">
					<ele>54</ele>
					<time>0001-01-01T00:00:00Z</time>
				</trkpt>
				<trkpt lat="51.73652" lon="-0.05893">
					<ele>60</ele>
					<time>0001-01-01T00:00:00Z</time>
				</trkpt>
				<trkpt lat="51.73646" lon="-0.06143">
					<ele>65</ele>
					<time>0001-01-01T00:00:00Z</time>
				</trkpt>
				<trkpt lat="51.73663" lon="-0.06227">
					<ele>67</ele>
					<time>0001-01-01T00:00:00Z</time>
				</trkpt>
				<trkpt lat="51.73689" lon="-0.06518">
					<ele>74</ele>
					<time>0001-01-01T00:00:00Z</time>
				</trkpt>
				<trkpt lat="51.73688" lon="-0.06530">
					<ele>74</ele>
					<time>0001-01-01T00:00:00Z</time>
				</trkpt>
				<trkpt lat="51.73691" lon="-0.06701">
					<ele>80</ele>
					<time>0001-01-01T00:00:00Z</time>
				</trkpt>
				<trkpt lat="51.73709" lon="-0.06725">
					<ele>82</ele>
					<time>0001-01-01T00:00:00Z</time>
				</trkpt>
				<trkpt lat="51.73742" lon="-0.06726">
					<ele>87</ele>
					<time>0001-01-01T00:00:00Z</time>
				</trkpt>
				<trkpt lat="51.73846" lon="-0.06765">
					<ele>96</ele>
					<time>0001-01-01T00:00:00Z</time>
				</trkpt>
				<trkpt lat="51.74175" lon="-0.06839">
					<ele>108</ele>
					<time>0001-01-01T00:00:00Z</time>
				</trkpt>
				<trkpt lat="51.74141" lon="-0.07151">
					<ele>106</ele>
					<time>0001-01-01T00:00:00Z</time>
				</trkpt>
				<trkpt lat="51.74128" lon="-0.07596">
					<ele>104</ele>
					<time>0001-01-01T00:00:00Z</time>
				</trkpt>
				<trkpt lat="51.74126" lon="-0.07633">
					<ele>104</ele>
					<time>0001-01-01T00:00:00Z</time>
				</trkpt>
				<trkpt lat="51.74132" lon="-0.07712">
					<ele>106</ele>
					<time>0001-01-01T00:00:00Z</time>
				</trkpt>
				<trkpt lat="51.74137" lon="-0.07713">
					<ele>106</ele>
					<time>0001-01-01T00:00:00Z</time>
				</trkpt>
				<trkpt lat="51.74290" lon="-0.07744">
					<ele>108</ele>
					<time>0001-01-01T00:00:00Z</time>
				</trkpt>
				<trkpt lat="51.74314" lon="-0.07762">
					<ele>109</ele>
					<time>0001-01-01T00:00:00Z</time>
				</trkpt>
				<trkpt lat="51.74324" lon="-0.07777">
					<ele>109</ele>
					<time>0001-01-01T00:00:00Z</time>
				</trkpt>
				<trkpt lat="51.74345" lon="-0.07796">
					<ele>110</ele>
					<time>0001-01-01T00:00:00Z</time>
				</trkpt>
				<trkpt lat="51.74408" lon="-0.07806">
					<ele>110</ele>
					<time>0001-01-01T00:00:00Z</time>
				</trkpt>
				<trkpt lat="51.74477" lon="-0.07784">
					<ele>108</ele>
					<time>0001-01-01T00:00:00Z</time>
				</trkpt>
				<trkpt lat="51.74499" lon="-0.07808">
					<ele>108</ele>
					<time>0001-01-01T00:00:00Z</time>
				</trkpt>
				<trkpt lat="51.74490" lon="-0.07913">
					<ele>110</ele>
					<time>0001-01-01T00:00:00Z</time>
				</trkpt>
				<trkpt lat="51.74497" lon="-0.07954">
					<ele>110</ele>
					<time>0001-01-01T00:00:00Z</time>
				</trkpt>
				<trkpt lat="51.74538" lon="-0.08028">
					<ele>109</ele>
					<time>0001-01-01T00:00:00Z</time>
				</trkpt>
				<trkpt lat="51.74551" lon="-0.08074">
					<ele>107</ele>
					<time>0001-01-01T00:00:00Z</time>
				</trkpt>
				<trkpt lat="51.74545" lon="-0.08156">
					<ele>108</ele>
					<time>0001-01-01T00:00:00Z</time>
				</trkpt>
				<trkpt lat="51.74545" lon="-0.08209">
					<ele>108</ele>
					<time>0001-01-01T00:00:00Z</time>
				</trkpt>
				<trkpt lat="51.74773" lon="-0.08465">
					<ele>107</ele>
					<time>0001-01-01T00:00:00Z</time>
				</trkpt>
				<trkpt lat="51.74814" lon="-0.08551">
					<ele>107</ele>
					<time>0001-01-01T00:00:00Z</time>
				</trkpt>
				<trkpt lat="51.74843" lon="-0.08577">
					<ele>106</ele>
					<time>0001-01-01T00:00:00Z</time>
				</trkpt>
				<trkpt lat="51.74902" lon="-0.08582">
					<ele>107</ele>
					<time>0001-01-01T00:00:00Z</time>
				</trkpt>
				<trkpt lat="51.74934" lon="-0.08588">
					<ele>109</ele>
					<time>0001-01-01T00:00:00Z</time>
				</trkpt>
				<trkpt lat="51.74974" lon="-0.08616">
					<ele>110</ele>
					<time>0001-01-01T00:00:00Z</time>
				</trkpt>
				<trkpt lat="51.75053" lon="-0.08633">
					<ele>112</ele>
					<time>0001-01-01T00:00:00Z</time>
				</trkpt>
				<trkpt lat="51.75196" lon="-0.08643">
					<ele>113</ele>
					<time>0001-01-01T00:00:00Z</time>
				</trkpt>
				<trkpt lat="51.75323" lon="-0.08620">
					<ele>114</ele>
					<time>0001-01-01T00:00:00Z</time>
				</trkpt>
				<trkpt lat="51.75469" lon="-0.08551">
					<ele>109</ele>
					<time>0001-01-01T00:00:00Z</time>
				</trkpt>
				<trkpt lat="51.75492" lon="-0.08572">
					<ele>109</ele>
					<time>0001-01-01T00:00:00Z</time>
				</trkpt>
				<trkpt lat="51.75480" lon="-0.08619">
					<ele>110</ele>
					<time>0001-01-01T00:00:00Z</time>
				</trkpt>
				<trkpt lat="51.75475" lon="-0.08633">
					<ele>110</ele>
					<time>0001-01-01T00:00:00Z</time>
				</trkpt>
				<trkpt lat="51.75465" lon="-0.08655">
					<ele>111</ele>
					<time>0001-01-01T00:00:00Z</time>
				</trkpt>
				<trkpt lat="51.75454" lon="-0.08670">
					<ele>109</ele>
					<time>0001-01-01T00:00:00Z</time>
				</trkpt>
				<trkpt lat="51.75451" lon="-0.08670">
					<ele>109</ele>
					<time>0001-01-01T00:00:00Z</time>
				</trkpt>
				<trkpt lat="51.75472" lon="-0.08633">
					<ele>109</ele>
					<time>0001-01-01T00:00:00Z</time>
				</trkpt>
				<trkpt lat="51.75494" lon="-0.08553">
					<ele>110</ele>
					<time>0001-01-01T00:00:00Z</time>
				</trkpt>
				<trkpt lat="51.75539" lon="-0.08349">
					<ele>111</ele>
					<time>0001-01-01T00:00:00Z</time>
				</trkpt>
				<trkpt lat="51.75592" lon="-0.08168">
					<ele>110</ele>
					<time>0001-01-01T00:00:00Z</time>
				</trkpt>
				<trkpt lat="51.75602" lon="-0.08134">
					<ele>110</ele>
					<time>0001-01-01T00:00:00Z</time>
				</trkpt>
				<trkpt lat="51.75666" lon="-0.08055">
					<ele>108</ele>
					<time>0001-01-01T00:00:00Z</time>
				</trkpt>
				<trkpt lat="51.75685" lon="-0.08039">
					<ele>108</ele>
					<time>0001-01-01T00:00:00Z</time>
				</trkpt>
				<trkpt lat="51.75804" lon="-0.07982">
					<ele>102</ele>
					<time>0001-01-01T00:00:00Z</time>
				</trkpt>
				<trkpt lat="51.75904" lon="-0.07935">
					<ele>102</ele>
					<time>0001-01-01T00:00:00Z</time>
				</trkpt>
				<trkpt lat="51.76029" lon="-0.07903">
					<ele>101</ele>
					<time>0001-01-01T00:00:00Z</time>
				</trkpt>
				<trkpt lat="51.76126" lon="-0.07885">
					<ele>97</ele>
					<time>0001-01-01T00:00:00Z</time>
				</trkpt>
				<trkpt lat="51.76181" lon="-0.07829">
					<ele>95</ele>
					<time>0001-01-01T00:00:00Z</time>
				</trkpt>
				<trkpt lat="51.76301" lon="-0.07776">
					<ele>93</ele>
					<time>0001-01-01T00:00:00Z</time>
				</trkpt>
				<trkpt lat="51.76472" lon="-0.07818">
					<ele>86</ele>
					<time>0001-01-01T00:00:00Z</time>
				</trkpt>
				<trkpt lat="51.76555" lon="-0.07981">
					<ele>83</ele>
					<time>0001-01-01T00:00:00Z</time>
				</trkpt>
				<trkpt lat="51.76957" lon="-0.07998">
					<ele>84</ele>
					<time>0001-01-01T00:00:00Z</time>
				</trkpt>
				<trkpt lat="51.77092" lon="-0.07928">
					<ele>85</ele>
					<time>0001-01-01T00:00:00Z</time>
				</trkpt>
				<trkpt lat="51.77297" lon="-0.07846">
					<ele>78</ele>
					<time>0001-01-01T00:00:00Z</time>
				</trkpt>
				<trkpt lat="51.77393" lon="-0.07801">
					<ele>71</ele>
					<time>0001-01-01T00:00:00Z</time>
				</trkpt>
				<trkpt lat="51.77509" lon="-0.07774">
					<ele>67</ele>
					<time>0001-01-01T00:00:00Z</time>
				</trkpt>
				<trkpt lat="51.77576" lon="-0.07800">
					<ele>65</ele>
					<time>0001-01-01T00:00:00Z</time>
				</trkpt>
				<trkpt lat="51.77734" lon="-0.07889">
					<ele>60</ele>
					<time>0001-01-01T00:00:00Z</time>
				</trkpt>
				<trkpt lat="51.77864" lon="-0.07939">
					<ele>59</ele>
					<time>0001-01-01T00:00:00Z</time>
				</trkpt>
				<trkpt lat="51.78010" lon="-0.08003">
					<ele>52</ele>
					<time>0001-01-01T00:00:00Z</time>
				</trkpt>
				<trkpt lat="51.78296" lon="-0.08206">
					<ele>48</ele>
					<time>0001-01-01T00:00:00Z</time>
				</trkpt>
				<trkpt lat="51.78381" lon="-0.08320">
					<ele>53</ele>
					<time>0001-01-01T00:00:00Z</time>
				</trkpt>
				<trkpt lat="51.78492" lon="-0.08447">
					<ele>50</ele>
					<time>0001-01-01T00:00:00Z</time>
				</trkpt>
				<trkpt lat="51.78554" lon="-0.08525">
					<ele>48</ele>
					<time>0001-01-01T00:00:00Z</time>
				</trkpt>
				<trkpt lat="51.78629" lon="-0.08620">
					<ele>47</ele>
					<time>0001-01-01T00:00:00Z</time>
				</trkpt>
				<trkpt lat="51.78637" lon="-0.08629">
					<ele>47</ele>
					<time>0001-01-01T00:00:00Z</time>
				</trkpt>
				<trkpt lat="51.78657" lon="-0.08648">
					<ele>47</ele>
					<time>0001-01-01T00:00:00Z</time>
				</trkpt>
				<trkpt lat="51.78724" lon="-0.08616">
					<ele>48</ele>
					<time>0001-01-01T00:00:00Z</time>
				</trkpt>
				<trkpt lat="51.78816" lon="-0.08562">
					<ele>48</ele>
					<time>0001-01-01T00:00:00Z</time>
				</trkpt>
				<trkpt lat="51.78860" lon="-0.08537">
					<ele>49</ele>
					<time>0001-01-01T00:00:00Z</time>
				</trkpt>
				<trkpt lat="51.78864" lon="-0.08531">
					<ele>50</ele>
					<time>0001-01-01T00:00:00Z</time>
				</trkpt>
				<trkpt lat="51.78940" lon="-0.08349">
					<ele>61</ele>
					<time>0001-01-01T00:00:00Z</time>
				</trkpt>
				<trkpt lat="51.78996" lon="-0.08176">
					<ele>67</ele>
					<time>0001-01-01T00:00:00Z</time>
				</trkpt>
				<trkpt lat="51.79033" lon="-0.08020">
					<ele>71</ele>
					<time>0001-01-01T00:00:00Z</time>
				</trkpt>
				<trkpt lat="51.79043" lon="-0.08003">
					<ele>70</ele>
					<time>0001-01-01T00:00:00Z</time>
				</trkpt>
				<trkpt lat="51.79054" lon="-0.07990">
					<ele>70</ele>
					<time>0001-01-01T00:00:00Z</time>
				</trkpt>
				<trkpt lat="51.79078" lon="-0.07979">
					<ele>68</ele>
					<time>0001-01-01T00:00:00Z</time>
				</trkpt>
				<trkpt lat="51.79156" lon="-0.07971">
					<ele>68</ele>
					<time>0001-01-01T00:00:00Z</time>
				</trkpt>
				<trkpt lat="51.79225" lon="-0.07965">
					<ele>61</ele>
					<time>0001-01-01T00:00:00Z</time>
				</trkpt>
				<trkpt lat="51.79290" lon="-0.07967">
					<ele>54</ele>
					<time>0001-01-01T00:00:00Z</time>
				</trkpt>
				<trkpt lat="51.79332" lon="-0.07935">
					<ele>52</ele>
					<time>0001-01-01T00:00:00Z</time>
				</trkpt>
				<trkpt lat="51.79347" lon="-0.07852">
					<ele>52</ele>
					<time>0001-01-01T00:00:00Z</time>
				</trkpt>
				<trkpt lat="51.79367" lon="-0.07805">
					<ele>51</ele>
					<time>0001-01-01T00:00:00Z</time>
				</trkpt>
				<trkpt lat="51.79383" lon="-0.07793">
					<ele>51</ele>
					<time>0001-01-01T00:00:00Z</time>
				</trkpt>
				<trkpt lat="51.79445" lon="-0.07796">
					<ele>48</ele>
					<time>0001-01-01T00:00:00Z</time>
				</trkpt>
				<trkpt lat="51.79471" lon="-0.07815">
					<ele>48</ele>
					<time>0001-01-01T00:00:00Z</time>
				</trkpt>
				<trkpt lat="51.79478" lon="-0.07833">
					<ele>48</ele>
					<time>0001-01-01T00:00:00Z</time>
				</trkpt>
				<trkpt lat="51.79506" lon="-0.07849">
					<ele>49</ele>
					<time>0001-01-01T00:00:00Z</time>
				</trkpt>
				<trkpt lat="51.79520" lon="-0.07843">
					<ele>48</ele>
					<time>0001-01-01T00:00:00Z</time>
				</trkpt>
				<trkpt lat="51.79594" lon="-0.07893">
					<ele>46</ele>
					<time>0001-01-01T00:00:00Z</time>
				</trkpt>
				<trkpt lat="51.79645" lon="-0.07941">
					<ele>46</ele>
					<time>0001-01-01T00:00:00Z</time>
				</trkpt>
				<trkpt lat="51.79660" lon="-0.07960">
					<ele>46</ele>
					<time>0001-01-01T00:00:00Z</time>
				</trkpt>
				<trkpt lat="51.79697" lon="-0.08047">
					<ele>50</ele>
					<time>0001-01-01T00:00:00Z</time>
				</trkpt>
				<trkpt lat="51.79711" lon="-0.08064">
					<ele>51</ele>
					<time>0001-01-01T00:00:00Z</time>
				</trkpt>
				<trkpt lat="51.79746" lon="-0.08071">
					<ele>52</ele>
					<time>0001-01-01T00:00:00Z</time>
				</trkpt>
				<trkpt lat="51.79766" lon="-0.08086">
					<ele>52</ele>
					<time>0001-01-01T00:00:00Z</time>
				</trkpt>
				<trkpt lat="51.79793" lon="-0.08156">
					<ele>50</ele>
					<time>0001-01-01T00:00:00Z</time>
				</trkpt>
				<trkpt lat="51.79840" lon="-0.08279">
					<ele>51</ele>
					<time>0001-01-01T00:00:00Z</time>
				</trkpt>
				<trkpt lat="51.79877" lon="-0.08299">
					<ele>53</ele>
					<time>0001-01-01T00:00:00Z</time>
				</trkpt>
				<trkpt lat="51.79917" lon="-0.08275">
					<ele>56</ele>
					<time>0001-01-01T00:00:00Z</time>
				</trkpt>
				<trkpt lat="51.80034" lon="-0.08208">
					<ele>65</ele>
					<time>0001-01-01T00:00:00Z</time>
				</trkpt>
				<trkpt lat="51.80101" lon="-0.08201">
					<ele>69</ele>
					<time>0001-01-01T00:00:00Z</time>
				</trkpt>
				<trkpt lat="51.80125" lon="-0.08215">
					<ele>70</ele>
					<time>0001-01-01T00:00:00Z</time>
				</trkpt>
				<trkpt lat="51.80171" lon="-0.08242">
					<ele>71</ele>
					<time>0001-01-01T00:00:00Z</time>
				</trkpt>
				<trkpt lat="51.80338" lon="-0.08195">
					<ele>70</ele>
					<time>0001-01-01T00:00:00Z</time>
				</trkpt>
				<trkpt lat="51.80476" lon="-0.08144">
					<ele>69</ele>
					<time>0001-01-01T00:00:00Z</time>
				</trkpt>
				<trkpt lat="51.80597" lon="-0.08110">
					<ele>68</ele>
					<time>0001-01-01T00:00:00Z</time>
				</trkpt>
				<trkpt lat="51.80702" lon="-0.08068">
					<ele>66</ele>
					<time>0001-01-01T00:00:00Z</time>
				</trkpt>
				<trkpt lat="51.80792" lon="-0.08101">
					<ele>65</ele>
					<time>0001-01-01T00:00:00Z</time>
				</trkpt>
				<trkpt lat="51.80928" lon="-0.08154">
					<ele>68</ele>
					<time>0001-01-01T00:00:00Z</time>
				</trkpt>
				<trkpt lat="51.80940" lon="-0.08153">
					<ele>69</ele>
					<time>0001-01-01T00:00:00Z</time>
				</trkpt>
				<trkpt lat="51.80980" lon="-0.08178">
					<ele>69</ele>
					<time>0001-01-01T00:00:00Z</time>
				</trkpt>
				<trkpt lat="51.81022" lon="-0.08217">
					<ele>69</ele>
					<time>0001-01-01T00:00:00Z</time>
				</trkpt>
				<trkpt lat="51.81144" lon="-0.08326">
					<ele>71</ele>
					<time>0001-01-01T00:00:00Z</time>
				</trkpt>
				<trkpt lat="51.81283" lon="-0.08482">
					<ele>72</ele>
					<time>0001-01-01T00:00:00Z</time>
				</trkpt>
				<trkpt lat="51.81390" lon="-0.08567">
					<ele>75</ele>
					<time>0001-01-01T00:00:00Z</time>
				</trkpt>
				<trkpt lat="51.81396" lon="-0.08565">
					<ele>75</ele>
					<time>0001-01-01T00:00:00Z</time>
				</trkpt>
				<trkpt lat="51.81517" lon="-0.08516">
					<ele>73</ele>
					<time>0001-01-01T00:00:00Z</time>
				</trkpt>
				<trkpt lat="51.81552" lon="-0.08522">
					<ele>73</ele>
					<time>0001-01-01T00:00:00Z</time>
				</trkpt>
				<trkpt lat="51.81560" lon="-0.08526">
					<ele>73</ele>
					<time>0001-01-01T00:00:00Z</time>
				</trkpt>
				<trkpt lat="51.81670" lon="-0.08613">
					<ele>73</ele>
					<time>0001-01-01T00:00:00Z</time>
				</trkpt>
				<trkpt lat="51.81799" lon="-0.08771">
					<ele>73</ele>
					<time>0001-01-01T00:00:00Z</time>
				</trkpt>
				<trkpt lat="51.81938" lon="-0.08913">
					<ele>74</ele>
					<time>0001-01-01T00:00:00Z</time>
				</trkpt>
				<trkpt lat="51.82203" lon="-0.08976">
					<ele>76</ele>
					<time>0001-01-01T00:00:00Z</time>
				</trkpt>
				<trkpt lat="51.82440" lon="-0.08860">
					<ele>72</ele>
					<time>0001-01-01T00:00:00Z</time>
				</trkpt>
				<trkpt lat="51.82477" lon="-0.08855">
					<ele>71</ele>
					<time>0001-01-01T00:00:00Z</time>
				</trkpt>
				<trkpt lat="51.82510" lon="-0.08869">
					<ele>69</ele>
					<time>0001-01-01T00:00:00Z</time>
				</trkpt>
				<trkpt lat="51.82584" lon="-0.08868">
					<ele>71</ele>
					<time>0001-01-01T00:00:00Z</time>
				</trkpt>
				<trkpt lat="51.82717" lon="-0.08840">
					<ele>73</ele>
					<time>0001-01-01T00:00:00Z</time>
				</trkpt>
				<trkpt lat="51.82831" lon="-0.08802">
					<ele>69</ele>
					<time>0001-01-01T00:00:00Z</time>
				</trkpt>
				<trkpt lat="51.82938" lon="-0.08759">
					<ele>68</ele>
					<time>0001-01-01T00:00:00Z</time>
				</trkpt>
				<trkpt lat="51.83030" lon="-0.08670">
					<ele>73</ele>
					<time>0001-01-01T00:00:00Z</time>
				</trkpt>
				<trkpt lat="51.83164" lon="-0.08627">
					<ele>76</ele>
					<time>0001-01-01T00:00:00Z</time>
				</trkpt>
				<trkpt lat="51.83256" lon="-0.08587">
					<ele>74</ele>
					<time>0001-01-01T00:00:00Z</time>
				</trkpt>
				<trkpt lat="51.83361" lon="-0.08468">
					<ele>70</ele>
					<time>0001-01-01T00:00:00Z</time>
				</trkpt>
				<trkpt lat="51.83425" lon="-0.08400">
					<ele>72</ele>
					<time>0001-01-01T00:00:00Z</time>
				</trkpt>
				<trkpt lat="51.83510" lon="-0.08380">
					<ele>67</ele>
					<time>0001-01-01T00:00:00Z</time>
				</trkpt>
				<trkpt lat="51.83606" lon="-0.08323">
					<ele>66</ele>
					<time>0001-01-01T00:00:00Z</time>
				</trkpt>
				<trkpt lat="51.83641" lon="-0.08301">
					<ele>66</ele>
					<time>0001-01-01T00:00:00Z</time>
				</trkpt>
				<trkpt lat="51.83720" lon="-0.08294">
					<ele>67</ele>
					<time>0001-01-01T00:00:00Z</time>
				</trkpt>
				<trkpt lat="51.83833" lon="-0.08252">
					<ele>69</ele>
					<time>0001-01-01T00:00:00Z</time>
				</trkpt>
				<trkpt lat="51.83993" lon="-0.08237">
					<ele>73</ele>
					<time>0001-01-01T00:00:00Z</time>
				</trkpt>
				<trkpt lat="51.84037" lon="-0.08210">
					<ele>74</ele>
					<time>0001-01-01T00:00:00Z</time>
				</trkpt>
				<trkpt lat="51.84097" lon="-0.08059">
					<ele>78</ele>
					<time>0001-01-01T00:00:00Z</time>
				</trkpt>
				<trkpt lat="51.84197" lon="-0.07798">
					<ele>84</ele>
					<time>0001-01-01T00:00:00Z</time>
				</trkpt>
				<trkpt lat="51.84285" lon="-0.07616">
					<ele>87</ele>
					<time>0001-01-01T00:00:00Z</time>
				</trkpt>
				<trkpt lat="51.84361" lon="-0.07466">
					<ele>90</ele>
					<time>0001-01-01T00:00:00Z</time>
				</trkpt>
				<trkpt lat="51.84414" lon="-0.07286">
					<ele>88</ele>
					<time>0001-01-01T00:00:00Z</time>
				</trkpt>
				<trkpt lat="51.84447" lon="-0.07242">
					<ele>87</ele>
					<time>0001-01-01T00:00:00Z</time>
				</trkpt>
				<trkpt lat="51.84518" lon="-0.07157">
					<ele>84</ele>
					<time>0001-01-01T00:00:00Z</time>
				</trkpt>
				<trkpt lat="51.84574" lon="-0.07132">
					<ele>81</ele>
					<time>0001-01-01T00:00:00Z</time>
				</trkpt>
				<trkpt lat="51.84634" lon="-0.07149">
					<ele>77</ele>
					<time>0001-01-01T00:00:00Z</time>
				</trkpt>
				<trkpt lat="51.84685" lon="-0.07183">
					<ele>74</ele>
					<time>0001-01-01T00:00:00Z</time>
				</trkpt>
				<trkpt lat="51.84779" lon="-0.07249">
					<ele>73</ele>
					<time>0001-01-01T00:00:00Z</time>
				</trkpt>
				<trkpt lat="51.84888" lon="-0.07337">
					<ele>77</ele>
					<time>0001-01-01T00:00:00Z</time>
				</trkpt>
				<trkpt lat="51.85063" lon="-0.07542">
					<ele>79</ele>
					<time>0001-01-01T00:00:00Z</time>
				</trkpt>
				<trkpt lat="51.85293" lon="-0.07844">
					<ele>87</ele>
					<time>0001-01-01T00:00:00Z</time>
				</trkpt>
				<trkpt lat="51.85462" lon="-0.08063">
					<ele>91</ele>
					<time>0001-01-01T00:00:00Z</time>
				</trkpt>
				<trkpt lat="51.85482" lon="-0.08097">
					<ele>91</ele>
					<time>0001-01-01T00:00:00Z</time>
				</trkpt>
				<trkpt lat="51.85512" lon="-0.08183">
					<ele>95</ele>
					<time>0001-01-01T00:00:00Z</time>
				</trkpt>
				<trkpt lat="51.85571" lon="-0.08405">
					<ele>99</ele>
					<time>0001-01-01T00:00:00Z</time>
				</trkpt>
				<trkpt lat="51.85611" lon="-0.08568">
					<ele>99</ele>
					<time>0001-01-01T00:00:00Z</time>
				</trkpt>
				<trkpt lat="51.85707" lon="-0.08603">
					<ele>99</ele>
					<time>0001-01-01T00:00:00Z</time>
				</trkpt>
				<trkpt lat="51.85867" lon="-0.08652">
					<ele>100</ele>
					<time>0001-01-01T00:00:00Z</time>
				</trkpt>
				<trkpt lat="51.85992" lon="-0.08637">
					<ele>102</ele>
					<time>0001-01-01T00:00:00Z</time>
				</trkpt>
				<trkpt lat="51.86118" lon="-0.08607">
					<ele>107</ele>
					<time>0001-01-01T00:00:00Z</time>
				</trkpt>
				<trkpt lat="51.86222" lon="-0.08582">
					<ele>103</ele>
					<time>0001-01-01T00:00:00Z</time>
				</trkpt>
				<trkpt lat="51.86364" lon="-0.08561">
					<ele>102</ele>
					<time>0001-01-01T00:00:00Z</time>
				</trkpt>
				<trkpt lat="51.86498" lon="-0.08517">
					<ele>93</ele>
					<time>0001-01-01T00:00:00Z</time>
				</trkpt>
				<trkpt lat="51.86579" lon="-0.08510">
					<ele>89</ele>
					<time>0001-01-01T00:00:00Z</time>
				</trkpt>
				<trkpt lat="51.86743" lon="-0.08479">
					<ele>92</ele>
					<time>0001-01-01T00:00:00Z</time>
				</trkpt>
				<trkpt lat="51.86886" lon="-0.08468">
					<ele>93</ele>
					<time>0001-01-01T00:00:00Z</time>
				</trkpt>
				<trkpt lat="51.87054" lon="-0.08460">
					<ele>100</ele>
					<time>0001-01-01T00:00:00Z</time>
				</trkpt>
				<trkpt lat="51.87166" lon="-0.08533">
					<ele>103</ele>
					<time>0001-01-01T00:00:00Z</time>
				</trkpt>
				<trkpt lat="51.87261" lon="-0.08644">
					<ele>105</ele>
					<time>0001-01-01T00:00:00Z</time>
				</trkpt>
				<trkpt lat="51.87402" lon="-0.08757">
					<ele>107</ele>
					<time>0001-01-01T00:00:00Z</time>
				</trkpt>
				<trkpt lat="51.87543" lon="-0.08783">
					<ele>108</ele>
					<time>0001-01-01T00:00:00Z</time>
				</trkpt>
				<trkpt lat="51.87660" lon="-0.08888">
					<ele>111</ele>
					<time>0001-01-01T00:00:00Z</time>
				</trkpt>
				<trkpt lat="51.87757" lon="-0.08950">
					<ele>112</ele>
					<time>0001-01-01T00:00:00Z</time>
				</trkpt>
				<trkpt lat="51.87814" lon="-0.09021">
					<ele>114</ele>
					<time>0001-01-01T00:00:00Z</time>
				</trkpt>
				<trkpt lat="51.87834" lon="-0.09046">
					<ele>114</ele>
					<time>0001-01-01T00:00:00Z</time>
				</trkpt>
				<trkpt lat="51.87912" lon="-0.09104">
					<ele>115</ele>
					<time>0001-01-01T00:00:00Z</time>
				</trkpt>
				<trkpt lat="51.87998" lon="-0.09143">
					<ele>115</ele>
					<time>0001-01-01T00:00:00Z</time>
				</trkpt>
				<trkpt lat="51.88020" lon="-0.09165">
					<ele>115</ele>
					<time>0001-01-01T00:00:00Z</time>
				</trkpt>
				<trkpt lat="51.88050" lon="-0.09204">
					<ele>116</ele>
					<time>0001-01-01T00:00:00Z</time>
				</trkpt>
				<trkpt lat="51.88185" lon="-0.09429">
					<ele>118</ele>
					<time>0001-01-01T00:00:00Z</time>
				</trkpt>
				<trkpt lat="51.88224" lon="-0.09537">
					<ele>118</ele>
					<time>0001-01-01T00:00:00Z</time>
				</trkpt>
				<trkpt lat="51.88224" lon="-0.09599">
					<ele>117</ele>
					<time>0001-01-01T00:00:00Z</time>
				</trkpt>
				<trkpt lat="51.88212" lon="-0.09644">
					<ele>118</ele>
					<time>0001-01-01T00:00:00Z</time>
				</trkpt>
				<trkpt lat="51.88159" lon="-0.09771">
					<ele>123</ele>
					<time>0001-01-01T00:00:00Z</time>
				</trkpt>
				<trkpt lat="51.88160" lon="-0.09821">
					<ele>122</ele>
					<time>0001-01-01T00:00:00Z</time>
				</trkpt>
				<trkpt lat="51.88253" lon="-0.09910">
					<ele>124</ele>
					<time>0001-01-01T00:00:00Z</time>
				</trkpt>
				<trkpt lat="51.88390" lon="-0.10012">
					<ele>125</ele>
					<time>0001-01-01T00:00:00Z</time>
				</trkpt>
				<trkpt lat="51.88417" lon="-0.10023">
					<ele>126</ele>
					<time>0001-01-01T00:00:00Z</time>
				</trkpt>
				<trkpt lat="51.88455" lon="-0.10023">
					<ele>127</ele>
					<time>0001-01-01T00:00:00Z</time>
				</trkpt>
				<trkpt lat="51.88553" lon="-0.10008">
					<ele>125</ele>
					<time>0001-01-01T00:00:00Z</time>
				</trkpt>
				<trkpt lat="51.88741" lon="-0.10007">
					<ele>116</ele>
					<time>0001-01-01T00:00:00Z</time>
				</trkpt>
				<trkpt lat="51.88766" lon="-0.10018">
					<ele>116</ele>
					<time>0001-01-01T00:00:00Z</time>
				</trkpt>
				<trkpt lat="51.88785" lon="-0.10024">
					<ele>115</ele>
					<time>0001-01-01T00:00:00Z</time>
				</trkpt>
				<trkpt lat="51.88880" lon="-0.10050">
					<ele>111</ele>
					<time>0001-01-01T00:00:00Z</time>
				</trkpt>
				<trkpt lat="51.88999" lon="-0.10082">
					<ele>111</ele>
					<time>0001-01-01T00:00:00Z</time>
				</trkpt>
				<trkpt lat="51.89114" lon="-0.10196">
					<ele>114</ele>
					<time>0001-01-01T00:00:00Z</time>
				</trkpt>
				<trkpt lat="51.89225" lon="-0.10318">
					<ele>112</ele>
					<time>0001-01-01T00:00:00Z</time>
				</trkpt>
				<trkpt lat="51.89367" lon="-0.10402">
					<ele>113</ele>
					<time>0001-01-01T00:00:00Z</time>
				</trkpt>
				<trkpt lat="51.89451" lon="-0.10486">
					<ele>107</ele>
					<time>0001-01-01T00:00:00Z</time>
				</trkpt>
				<trkpt lat="51.89491" lon="-0.10591">
					<ele>107</ele>
					<time>0001-01-01T00:00:00Z</time>
				</trkpt>
				<trkpt lat="51.89496" lon="-0.10622">
					<ele>105</ele>
					<time>0001-01-01T00:00:00Z</time>
				</trkpt>
				<trkpt lat="51.89500" lon="-0.10749">
					<ele>101</ele>
					<time>0001-01-01T00:00:00Z</time>
				</trkpt>
				<trkpt lat="51.89497" lon="-0.10816">
					<ele>101</ele>
					<time>0001-01-01T00:00:00Z</time>
				</trkpt>
				<trkpt lat="51.89501" lon="-0.11079">
					<ele>107</ele>
					<time>0001-01-01T00:00:00Z</time>
				</trkpt>
				<trkpt lat="51.89515" lon="-0.11222">
					<ele>110</ele>
					<time>0001-01-01T00:00:00Z</time>
				</trkpt>
				<trkpt lat="51.89601" lon="-0.11383">
					<ele>111</ele>
					<time>0001-01-01T00:00:00Z</time>
				</trkpt>
				<trkpt lat="51.89663" lon="-0.11412">
					<ele>112</ele>
					<time>0001-01-01T00:00:00Z</time>
				</trkpt>
				<trkpt lat="51.89698" lon="-0.11386">
					<ele>113</ele>
					<time>0001-01-01T00:00:00Z</time>
				</trkpt>
				<trkpt lat="51.89788" lon="-0.11372">
					<ele>114</ele>
					<time>0001-01-01T00:00:00Z</time>
				</trkpt>
				<trkpt lat="51.89910" lon="-0.11323">
					<ele>118</ele>
					<time>0001-01-01T00:00:00Z</time>
				</trkpt>
				<trkpt lat="51.89936" lon="-0.11318">
					<ele>117</ele>
					<time>0001-01-01T00:00:00Z</time>
				</trkpt>
				<trkpt lat="51.90042" lon="-0.11378">
					<ele>116</ele>
					<time>0001-01-01T00:00:00Z</time>
				</trkpt>
				<trkpt lat="51.90149" lon="-0.11452">
					<ele>117</ele>
					<time>0001-01-01T00:00:00Z</time>
				</trkpt>
				<trkpt lat="51.90168" lon="-0.11483">
					<ele>116</ele>
					<time>0001-01-01T00:00:00Z</time>
				</trkpt>
				<trkpt lat="51.90173" lon="-0.11503">
					<ele>116</ele>
					<time>0001-01-01T00:00:00Z</time>
				</trkpt>
				<trkpt lat="51.90178" lon="-0.11563">
					<ele>116</ele>
					<time>0001-01-01T00:00:00Z</time>
				</trkpt>
				<trkpt lat="51.90152" lon="-0.11725">
					<ele>114</ele>
					<time>0001-01-01T00:00:00Z</time>
				</trkpt>
				<trkpt lat="51.90124" lon="-0.11787">
					<ele>113</ele>
					<time>0001-01-01T00:00:00Z</time>
				</trkpt>
				<trkpt lat="51.90112" lon="-0.11829">
					<ele>113</ele>
					<time>0001-01-01T00:00:00Z</time>
				</trkpt>
				<trkpt lat="51.90104" lon="-0.11967">
					<ele>113</ele>
					<time>0001-01-01T00:00:00Z</time>
				</trkpt>
				<trkpt lat="51.90094" lon="-0.11998">
					<ele>113</ele>
					<time>0001-01-01T00:00:00Z</time>
				</trkpt>
				<trkpt lat="51.90073" lon="-0.12044">
					<ele>112</ele>
					<time>0001-01-01T00:00:00Z</time>
				</trkpt>
				<trkpt lat="51.90062" lon="-0.12088">
					<ele>111</ele>
					<time>0001-01-01T00:00:00Z</time>
				</trkpt>
				<trkpt lat="51.90044" lon="-0.12140">
					<ele>111</ele>
					<time>0001-01-01T00:00:00Z</time>
				</trkpt>
				<trkpt lat="51.90016" lon="-0.12272">
					<ele>111</ele>
					<time>0001-01-01T00:00:00Z</time>
				</trkpt>
				<trkpt lat="51.90022" lon="-0.12318">
					<ele>111</ele>
					<time>0001-01-01T00:00:00Z</time>
				</trkpt>
				<trkpt lat="51.90034" lon="-0.12462">
					<ele>109</ele>
					<time>0001-01-01T00:00:00Z</time>
				</trkpt>
				<trkpt lat="51.90053" lon="-0.12529">
					<ele>108</ele>
					<time>0001-01-01T00:00:00Z</time>
				</trkpt>
				<trkpt lat="51.90097" lon="-0.12697">
					<ele>105</ele>
					<time>0001-01-01T00:00:00Z</time>
				</trkpt>
				<trkpt lat="51.90127" lon="-0.12765">
					<ele>103</ele>
					<time>0001-01-01T00:00:00Z</time>
				</trkpt>
				<trkpt lat="51.90167" lon="-0.12837">
					<ele>102</ele>
					<time>0001-01-01T00:00:00Z</time>
				</trkpt>
				<trkpt lat="51.90245" lon="-0.13048">
					<ele>90</ele>
					<time>0001-01-01T00:00:00Z</time>
				</trkpt>
				<trkpt lat="51.90304" lon="-0.13161">
					<ele>84</ele>
					<time>0001-01-01T00:00:00Z</time>
				</trkpt>
				<trkpt lat="51.90370" lon="-0.13249">
					<ele>79</ele>
					<time>0001-01-01T00:00:00Z</time>
				</trkpt>
				<trkpt lat="51.90396" lon="-0.13293">
					<ele>79</ele>
					<time>0001-01-01T00:00:00Z</time>
				</trkpt>
				<trkpt lat="51.90400" lon="-0.13297">
					<ele>79</ele>
					<time>0001-01-01T00:00:00Z</time>
				</trkpt>
				<trkpt lat="51.90482" lon="-0.13352">
					<ele>78</ele>
					<time>0001-01-01T00:00:00Z</time>
				</trkpt>
				<trkpt lat="51.90489" lon="-0.13352">
					<ele>78</ele>
					<time>0001-01-01T00:00:00Z</time>
				</trkpt>
				<trkpt lat="51.90593" lon="-0.13364">
					<ele>78</ele>
					<time>0001-01-01T00:00:00Z</time>
				</trkpt>
				<trkpt lat="51.90687" lon="-0.13379">
					<ele>81</ele>
					<time>0001-01-01T00:00:00Z</time>
				</trkpt>
				<trkpt lat="51.90745" lon="-0.13399">
					<ele>79</ele>
					<time>0001-01-01T00:00:00Z</time>
				</trkpt>
				<trkpt lat="51.90846" lon="-0.13471">
					<ele>81</ele>
					<time>0001-01-01T00:00:00Z</time>
				</trkpt>
				<trkpt lat="51.90852" lon="-0.13471">
					<ele>81</ele>
					<time>0001-01-01T00:00:00Z</time>
				</trkpt>
				<trkpt lat="51.90989" lon="-0.13450">
					<ele>78</ele>
					<time>0001-01-01T00:00:00Z</time>
				</trkpt>
				<trkpt lat="51.91092" lon="-0.13373">
					<ele>78</ele>
					<time>0001-01-01T00:00:00Z</time>
				</trkpt>
				<trkpt lat="51.91185" lon="-0.13237">
					<ele>74</ele>
					<time>0001-01-01T00:00:00Z</time>
				</trkpt>
				<trkpt lat="51.91236" lon="-0.13216">
					<ele>73</ele>
					<time>0001-01-01T00:00:00Z</time>
				</trkpt>
				<trkpt lat="51.91290" lon="-0.13191">
					<ele>72</ele>
					<time>0001-01-01T00:00:00Z</time>
				</trkpt>
				<trkpt lat="51.91374" lon="-0.13039">
					<ele>71</ele>
					<time>0001-01-01T00:00:00Z</time>
				</trkpt>
				<trkpt lat="51.91497" lon="-0.12957">
					<ele>74</ele>
					<time>0001-01-01T00:00:00Z</time>
				</trkpt>
				<trkpt lat="51.91609" lon="-0.12884">
					<ele>76</ele>
					<time>0001-01-01T00:00:00Z</time>
				</trkpt>
				<trkpt lat="51.91698" lon="-0.12854">
					<ele>74</ele>
					<time>0001-01-01T00:00:00Z</time>
				</trkpt>
				<trkpt lat="51.91767" lon="-0.12812">
					<ele>76</ele>
					<time>0001-01-01T00:00:00Z</time>
				</trkpt>
				<trkpt lat="51.91898" lon="-0.12754">
					<ele>79</ele>
					<time>0001-01-01T00:00:00Z</time>
				</trkpt>
				<trkpt lat="51.92056" lon="-0.12697">
					<ele>83</ele>
					<time>0001-01-01T00:00:00Z</time>
				</trkpt>
				<trkpt lat="51.92162" lon="-0.12628">
					<ele>82</ele>
					<time>0001-01-01T00:00:00Z</time>
				</trkpt>
				<trkpt lat="51.92249" lon="-0.12572">
					<ele>81</ele>
					<time>0001-01-01T00:00:00Z</time>
				</trkpt>
				<trkpt lat="51.92285" lon="-0.12539">
					<ele>83</ele>
					<time>0001-01-01T00:00:00Z</time>
				</trkpt>
				<trkpt lat="51.92299" lon="-0.12509">
					<ele>83</ele>
					<time>0001-01-01T00:00:00Z</time>
				</trkpt>
				<trkpt lat="51.92324" lon="-0.12472">
					<ele>82</ele>
					<time>0001-01-01T00:00:00Z</time>
				</trkpt>
				<trkpt lat="51.92363" lon="-0.12451">
					<ele>83</ele>
					<time>0001-01-01T00:00:00Z</time>
				</trkpt>
				<trkpt lat="51.92464" lon="-0.12414">
					<ele>83</ele>
					<time>0001-01-01T00:00:00Z</time>
				</trkpt>
				<trkpt lat="51.92495" lon="-0.12418">
					<ele>83</ele>
					<time>0001-01-01T00:00:00Z</time>
				</trkpt>
				<trkpt lat="51.92639" lon="-0.12464">
					<ele>84</ele>
					<time>0001-01-01T00:00:00Z</time>
				</trkpt>
				<trkpt lat="51.92722" lon="-0.12437">
					<ele>91</ele>
					<time>0001-01-01T00:00:00Z</time>
				</trkpt>
				<trkpt lat="51.92826" lon="-0.12365">
					<ele>91</ele>
					<time>0001-01-01T00:00:00Z</time>
				</trkpt>
				<trkpt lat="51.92907" lon="-0.12321">
					<ele>89</ele>
					<time>0001-01-01T00:00:00Z</time>
				</trkpt>
				<trkpt lat="51.92920" lon="-0.12302">
					<ele>90</ele>
					<time>0001-01-01T00:00:00Z</time>
				</trkpt>
				<trkpt lat="51.92933" lon="-0.12294">
					<ele>90</ele>
					<time>0001-01-01T00:00:00Z</time>
				</trkpt>
				<trkpt lat="51.92943" lon="-0.12282">
					<ele>90</ele>
					<time>0001-01-01T00:00:00Z</time>
				</trkpt>
				<trkpt lat="51.93032" lon="-0.12161">
					<ele>86</ele>
					<time>0001-01-01T00:00:00Z</time>
				</trkpt>
				<trkpt lat="51.93117" lon="-0.12039">
					<ele>82</ele>
					<time>0001-01-01T00:00:00Z</time>
				</trkpt>
				<trkpt lat="51.93258" lon="-0.11927">
					<ele>81</ele>
					<time>0001-01-01T00:00:00Z</time>
				</trkpt>
				<trkpt lat="51.93374" lon="-0.11806">
					<ele>82</ele>
					<time>0001-01-01T00:00:00Z</time>
				</trkpt>
				<trkpt lat="51.93494" lon="-0.11739">
					<ele>84</ele>
					<time>0001-01-01T00:00:00Z</time>
				</trkpt>
				<trkpt lat="51.93603" lon="-0.11684">
					<ele>81</ele>
					<time>0001-01-01T00:00:00Z</time>
				</trkpt>
				<trkpt lat="51.93627" lon="-0.11657">
					<ele>81</ele>
					<time>0001-01-01T00:00:00Z</time>
				</trkpt>
				<trkpt lat="51.93752" lon="-0.11523">
					<ele>84</ele>
					<time>0001-01-01T00:00:00Z</time>
				</trkpt>
				<trkpt lat="51.93907" lon="-0.11362">
					<ele>90</ele>
					<time>0001-01-01T00:00:00Z</time>
				</trkpt>
				<trkpt lat="51.94036" lon="-0.11256">
					<ele>92</ele>
					<time>0001-01-01T00:00:00Z</time>
				</trkpt>
				<trkpt lat="51.94088" lon="-0.11173">
					<ele>95</ele>
					<time>0001-01-01T00:00:00Z</time>
				</trkpt>
				<trkpt lat="51.94191" lon="-0.11025">
					<ele>97</ele>
					<time>0001-01-01T00:00:00Z</time>
				</trkpt>
				<trkpt lat="51.94267" lon="-0.10947">
					<ele>95</ele>
					<time>0001-01-01T00:00:00Z</time>
				</trkpt>
				<trkpt lat="51.94339" lon="-0.10833">
					<ele>90</ele>
					<time>0001-01-01T00:00:00Z</time>
				</trkpt>
				<trkpt lat="51.94427" lon="-0.10744">
					<ele>87</ele>
					<time>0001-01-01T00:00:00Z</time>
				</trkpt>
				<trkpt lat="51.94528" lon="-0.10744">
					<ele>89</ele>
					<time>0001-01-01T00:00:00Z</time>
				</trkpt>
				<trkpt lat="51.94615" lon="-0.10739">
					<ele>96</ele>
					<time>0001-01-01T00:00:00Z</time>
				</trkpt>
				<trkpt lat="51.94699" lon="-0.10725">
					<ele>90</ele>
					<time>0001-01-01T00:00:00Z</time>
				</trkpt>
				<trkpt lat="51.94782" lon="-0.10682">
					<ele>89</ele>
					<time>0001-01-01T00:00:00Z</time>
				</trkpt>
				<trkpt lat="51.94908" lon="-0.10633">
					<ele>88</ele>
					<time>0001-01-01T00:00:00Z</time>
				</trkpt>
				<trkpt lat="51.95043" lon="-0.10663">
					<ele>89</ele>
					<time>0001-01-01T00:00:00Z</time>
				</trkpt>
				<trkpt lat="51.95241" lon="-0.10706">
					<ele>96</ele>
					<time>0001-01-01T00:00:00Z</time>
				</trkpt>
				<trkpt lat="51.95371" lon="-0.10708">
					<ele>103</ele>
					<time>0001-01-01T00:00:00Z</time>
				</trkpt>
				<trkpt lat="51.95506" lon="-0.10729">
					<ele>112</ele>
					<time>0001-01-01T00:00:00Z</time>
				</trkpt>
				<trkpt lat="51.95595" lon="-0.10711">
					<ele>117</ele>
					<time>0001-01-01T00:00:00Z</time>
				</trkpt>
				<trkpt lat="51.95607" lon="-0.10715">
					<ele>117</ele>
					<time>0001-01-01T00:00:00Z</time>
				</trkpt>
				<trkpt lat="51.95707" lon="-0.10738">
					<ele>117</ele>
					<time>0001-01-01T00:00:00Z</time>
				</trkpt>
				<trkpt lat="51.95877" lon="-0.10809">
					<ele>121</ele>
					<time>0001-01-01T00:00:00Z</time>
				</trkpt>
				<trkpt lat="51.95907" lon="-0.10803">
					<ele>121</ele>
					<time>0001-01-01T00:00:00Z</time>
				</trkpt>
				<trkpt lat="51.95928" lon="-0.10785">
					<ele>121</ele>
					<time>0001-01-01T00:00:00Z</time>
				</trkpt>
				<trkpt lat="51.95963" lon="-0.10770">
					<ele>121</ele>
					<time>0001-01-01T00:00:00Z</time>
				</trkpt>
				<trkpt lat="51.96056" lon="-0.10740">
					<ele>119</ele>
					<time>0001-01-01T00:00:00Z</time>
				</trkpt>
				<trkpt lat="51.96125" lon="-0.10708">
					<ele>116</ele>
					<time>0001-01-01T00:00:00Z</time>
				</trkpt>
				<trkpt lat="51.96189" lon="-0.10656">
					<ele>113</ele>
					<time>0001-01-01T00:00:00Z</time>
				</trkpt>
				<trkpt lat="51.96242" lon="-0.10612">
					<ele>109</ele>
					<time>0001-01-01T00:00:00Z</time>
				</trkpt>
				<trkpt lat="51.96321" lon="-0.10542">
					<ele>103</ele>
					<time>0001-01-01T00:00:00Z</time>
				</trkpt>
				<trkpt lat="51.96407" lon="-0.10511">
					<ele>100</ele>
					<time>0001-01-01T00:00:00Z</time>
				</trkpt>
				<trkpt lat="51.96466" lon="-0.10535">
					<ele>100</ele>
					<time>0001-01-01T00:00:00Z</time>
				</trkpt>
				<trkpt lat="51.96613" lon="-0.10539">
					<ele>102</ele>
					<time>0001-01-01T00:00:00Z</time>
				</trkpt>
				<trkpt lat="51.96765" lon="-0.10494">
					<ele>104</ele>
					<time>0001-01-01T00:00:00Z</time>
				</trkpt>
				<trkpt lat="51.96888" lon="-0.10497">
					<ele>107</ele>
					<time>0001-01-01T00:00:00Z</time>
				</trkpt>
				<trkpt lat="51.97056" lon="-0.10506">
					<ele>113</ele>
					<time>0001-01-01T00:00:00Z</time>
				</trkpt>
				<trkpt lat="51.97290" lon="-0.10494">
					<ele>111</ele>
					<time>0001-01-01T00:00:00Z</time>
				</trkpt>
				<trkpt lat="51.97441" lon="-0.10563">
					<ele>111</ele>
					<time>0001-01-01T00:00:00Z</time>
				</trkpt>
				<trkpt lat="51.97561" lon="-0.10604">
					<ele>111</ele>
					<time>0001-01-01T00:00:00Z</time>
				</trkpt>
				<trkpt lat="51.97587" lon="-0.10629">
					<ele>112</ele>
					<time>0001-01-01T00:00:00Z</time>
				</trkpt>
				<trkpt lat="51.97800" lon="-0.10857">
					<ele>119</ele>
					<time>0001-01-01T00:00:00Z</time>
				</trkpt>
				<trkpt lat="51.97892" lon="-0.10939">
					<ele>122</ele>
					<time>0001-01-01T00:00:00Z</time>
				</trkpt>
				<trkpt lat="51.97911" lon="-0.10937">
					<ele>122</ele>
					<time>0001-01-01T00:00:00Z</time>
				</trkpt>
				<trkpt lat="51.97982" lon="-0.10902">
					<ele>122</ele>
					<time>0001-01-01T00:00:00Z</time>
				</trkpt>
				<trkpt lat="51.97997" lon="-0.10900">
					<ele>121</ele>
					<time>0001-01-01T00:00:00Z</time>
				</trkpt>
				<trkpt lat="51.98076" lon="-0.10903">
					<ele>119</ele>
					<time>0001-01-01T00:00:00Z</time>
				</trkpt>
				<trkpt lat="51.98143" lon="-0.10848">
					<ele>117</ele>
					<time>0001-01-01T00:00:00Z</time>
				</trkpt>
				<trkpt lat="51.98224" lon="-0.10786">
					<ele>112</ele>
					<time>0001-01-01T00:00:00Z</time>
				</trkpt>
				<trkpt lat="51.98282" lon="-0.10760">
					<ele>109</ele>
					<time>0001-01-01T00:00:00Z</time>
				</trkpt>
				<trkpt lat="51.98376" lon="-0.10743">
					<ele>107</ele>
					<time>0001-01-01T00:00:00Z</time>
				</trkpt>
				<trkpt lat="51.98407" lon="-0.10738">
					<ele>104</ele>
					<time>0001-01-01T00:00:00Z</time>
				</trkpt>
				<trkpt lat="51.98503" lon="-0.10724">
					<ele>102</ele>
					<time>0001-01-01T00:00:00Z</time>
				</trkpt>
				<trkpt lat="51.98621" lon="-0.10680">
					<ele>100</ele>
					<time>0001-01-01T00:00:00Z</time>
				</trkpt>
				<trkpt lat="51.98677" lon="-0.10678">
					<ele>99</ele>
					<time>0001-01-01T00:00:00Z</time>
				</trkpt>
				<trkpt lat="51.98801" lon="-0.10734">
					<ele>97</ele>
					<time>0001-01-01T00:00:00Z</time>
				</trkpt>
				<trkpt lat="51.98923" lon="-0.10828">
					<ele>98</ele>
					<time>0001-01-01T00:00:00Z</time>
				</trkpt>
				<trkpt lat="51.99039" lon="-0.10862">
					<ele>96</ele>
					<time>0001-01-01T00:00:00Z</time>
				</trkpt>
				<trkpt lat="51.99093" lon="-0.10913">
					<ele>94</ele>
					<time>0001-01-01T00:00:00Z</time>
				</trkpt>
				<trkpt lat="51.99207" lon="-0.11063">
					<ele>92</ele>
					<time>0001-01-01T00:00:00Z</time>
				</trkpt>
				<trkpt lat="51.99319" lon="-0.11177">
					<ele>93</ele>
					<time>0001-01-01T00:00:00Z</time>
				</trkpt>
				<trkpt lat="51.99431" lon="-0.11258">
					<ele>90</ele>
					<time>0001-01-01T00:00:00Z</time>
				</trkpt>
				<trkpt lat="51.99565" lon="-0.11330">
					<ele>86</ele>
					<time>0001-01-01T00:00:00Z</time>
				</trkpt>
				<trkpt lat="51.99712" lon="-0.11395">
					<ele>86</ele>
					<time>0001-01-01T00:00:00Z</time>
				</trkpt>
				<trkpt lat="51.99833" lon="-0.11459">
					<ele>85</ele>
					<time>0001-01-01T00:00:00Z</time>
				</trkpt>
				<trkpt lat="51.99969" lon="-0.11563">
					<ele>80</ele>
					<time>0001-01-01T00:00:00Z</time>
				</trkpt>
				<trkpt lat="52.00102" lon="-0.11650">
					<ele>78</ele>
					<time>0001-01-01T00:00:00Z</time>
				</trkpt>
				<trkpt lat="52.00228" lon="-0.11704">
					<ele>80</ele>
					<time>0001-01-01T00:00:00Z</time>
				</trkpt>
				<trkpt lat="52.00360" lon="-0.11732">
					<ele>79</ele>
					<time>0001-01-01T00:00:00Z</time>
				</trkpt>
				<trkpt lat="52.00476" lon="-0.11762">
					<ele>78</ele>
					<time>0001-01-01T00:00:00Z</time>
				</trkpt>
				<trkpt lat="52.00599" lon="-0.11751">
					<ele>78</ele>
					<time>0001-01-01T00:00:00Z</time>
				</trkpt>
				<trkpt lat="52.00743" lon="-0.11778">
					<ele>80</ele>
					<time>0001-01-01T00:00:00Z</time>
				</trkpt>
				<trkpt lat="52.00859" lon="-0.11809">
					<ele>78</ele>
					<time>0001-01-01T00:00:00Z</time>
				</trkpt>
				<trkpt lat="52.01004" lon="-0.11889">
					<ele>76</ele>
					<time>0001-01-01T00:00:00Z</time>
				</trkpt>
				<trkpt lat="52.01141" lon="-0.12001">
					<ele>74</ele>
					<time>0001-01-01T00:00:00Z</time>
				</trkpt>
				<trkpt lat="52.01251" lon="-0.12147">
					<ele>73</ele>
					<time>0001-01-01T00:00:00Z</time>
				</trkpt>
				<trkpt lat="52.01356" lon="-0.12276">
					<ele>73</ele>
					<time>0001-01-01T00:00:00Z</time>
				</trkpt>
				<trkpt lat="52.01459" lon="-0.12400">
					<ele>71</ele>
					<time>0001-01-01T00:00:00Z</time>
				</trkpt>
				<trkpt lat="52.01532" lon="-0.12519">
					<ele>67</ele>
					<time>0001-01-01T00:00:00Z</time>
				</trkpt>
				<trkpt lat="52.01575" lon="-0.12674">
					<ele>66</ele>
					<time>0001-01-01T00:00:00Z</time>
				</trkpt>
				<trkpt lat="52.01591" lon="-0.12722">
					<ele>65</ele>
					<time>0001-01-01T00:00:00Z</time>
				</trkpt>
				<trkpt lat="52.01625" lon="-0.12744">
					<ele>65</ele>
					<time>0001-01-01T00:00:00Z</time>
				</trkpt>
				<trkpt lat="52.01635" lon="-0.12742">
					<ele>64</ele>
					<time>0001-01-01T00:00:00Z</time>
				</trkpt>
				<trkpt lat="52.01657" lon="-0.12772">
					<ele>65</ele>
					<time>0001-01-01T00:00:00Z</time>
				</trkpt>
				<trkpt lat="52.01662" lon="-0.12871">
					<ele>65</ele>
					<time>0001-01-01T00:00:00Z</time>
				</trkpt>
				<trkpt lat="52.01687" lon="-0.12971">
					<ele>64</ele>
					<time>0001-01-01T00:00:00Z</time>
				</trkpt>
				<trkpt lat="52.01743" lon="-0.13229">
					<ele>62</ele>
					<time>0001-01-01T00:00:00Z</time>
				</trkpt>
				<trkpt lat="52.01801" lon="-0.13436">
					<ele>61</ele>
					<time>0001-01-01T00:00:00Z</time>
				</trkpt>
				<trkpt lat="52.01864" lon="-0.13603">
					<ele>61</ele>
					<time>0001-01-01T00:00:00Z</time>
				</trkpt>
				<trkpt lat="52.01995" lon="-0.13745">
					<ele>65</ele>
					<time>0001-01-01T00:00:00Z</time>
				</trkpt>
				<trkpt lat="52.02128" lon="-0.13882">
					<ele>69</ele>
					<time>0001-01-01T00:00:00Z</time>
				</trkpt>
				<trkpt lat="52.02239" lon="-0.14039">
					<ele>74</ele>
					<time>0001-01-01T00:00:00Z</time>
				</trkpt>
				<trkpt lat="52.02258" lon="-0.14073">
					<ele>75</ele>
					<time>0001-01-01T00:00:00Z</time>
				</trkpt>
				<trkpt lat="52.02321" lon="-0.14204">
					<ele>82</ele>
					<time>0001-01-01T00:00:00Z</time>
				</trkpt>
				<trkpt lat="52.02351" lon="-0.14239">
					<ele>82</ele>
					<time>0001-01-01T00:00:00Z</time>
				</trkpt>
				<trkpt lat="52.02432" lon="-0.14333">
					<ele>80</ele>
					<time>0001-01-01T00:00:00Z</time>
				</trkpt>
				<trkpt lat="52.02525" lon="-0.14384">
					<ele>78</ele>
					<time>0001-01-01T00:00:00Z</time>
				</trkpt>
				<trkpt lat="52.02647" lon="-0.14414">
					<ele>77</ele>
					<time>0001-01-01T00:00:00Z</time>
				</trkpt>
				<trkpt lat="52.02781" lon="-0.14461">
					<ele>82</ele>
					<time>0001-01-01T00:00:00Z</time>
				</trkpt>
				<trkpt lat="52.02919" lon="-0.14496">
					<ele>83</ele>
					<time>0001-01-01T00:00:00Z</time>
				</trkpt>
				<trkpt lat="52.03050" lon="-0.14528">
					<ele>84</ele>
					<time>0001-01-01T00:00:00Z</time>
				</trkpt>
				<trkpt lat="52.03141" lon="-0.14569">
					<ele>81</ele>
					<time>0001-01-01T00:00:00Z</time>
				</trkpt>
				<trkpt lat="52.03247" lon="-0.14608">
					<ele>78</ele>
					<time>0001-01-01T00:00:00Z</time>
				</trkpt>
				<trkpt lat="52.03386" lon="-0.14623">
					<ele>76</ele>
					<time>0001-01-01T00:00:00Z</time>
				</trkpt>
				<trkpt lat="52.03507" lon="-0.14643">
					<ele>73</ele>
					<time>0001-01-01T00:00:00Z</time>
				</trkpt>
				<trkpt lat="52.03629" lon="-0.14712">
					<ele>71</ele>
					<time>0001-01-01T00:00:00Z</time>
				</trkpt>
				<trkpt lat="52.03703" lon="-0.14749">
					<ele>69</ele>
					<time>0001-01-01T00:00:00Z</time>
				</trkpt>
				<trkpt lat="52.03781" lon="-0.14798">
					<ele>66</ele>
					<time>0001-01-01T00:00:00Z</time>
				</trkpt>
				<trkpt lat="52.03850" lon="-0.14865">
					<ele>61</ele>
					<time>0001-01-01T00:00:00Z</time>
				</trkpt>
				<trkpt lat="52.03907" lon="-0.14913">
					<ele>60</ele>
					<time>0001-01-01T00:00:00Z</time>
				</trkpt>
				<trkpt lat="52.03951" lon="-0.14954">
					<ele>57</ele>
					<time>0001-01-01T00:00:00Z</time>
				</trkpt>
				<trkpt lat="52.04019" lon="-0.15010">
					<ele>51</ele>
					<time>0001-01-01T00:00:00Z</time>
				</trkpt>
				<trkpt lat="52.04113" lon="-0.15081">
					<ele>46</ele>
					<time>0001-01-01T00:00:00Z</time>
				</trkpt>
				<trkpt lat="52.04133" lon="-0.15069">
					<ele>46</ele>
					<time>0001-01-01T00:00:00Z</time>
				</trkpt>
				<trkpt lat="52.04184" lon="-0.14908">
					<ele>43</ele>
					<time>0001-01-01T00:00:00Z</time>
				</trkpt>
				<trkpt lat="52.04223" lon="-0.14767">
					<ele>45</ele>
					<time>0001-01-01T00:00:00Z</time>
				</trkpt>
				<trkpt lat="52.04306" lon="-0.14586">
					<ele>40</ele>
					<time>0001-01-01T00:00:00Z</time>
				</trkpt>
				<trkpt lat="52.04320" lon="-0.14571">
					<ele>40</ele>
					<time>0001-01-01T00:00:00Z</time>
				</trkpt>
				<trkpt lat="52.04342" lon="-0.14588">
					<ele>39</ele>
					<time>0001-01-01T00:00:00Z</time>
				</trkpt>
				<trkpt lat="52.04406" lon="-0.14732">
					<ele>37</ele>
					<time>0001-01-01T00:00:00Z</time>
				</trkpt>
				<trkpt lat="52.04487" lon="-0.14878">
					<ele>34</ele>
					<time>0001-01-01T00:00:00Z</time>
				</trkpt>
				<trkpt lat="52.04530" lon="-0.14890">
					<ele>33</ele>
					<time>0001-01-01T00:00:00Z</time>
				</trkpt>
				<trkpt lat="52.04586" lon="-0.14834">
					<ele>36</ele>
					<time>0001-01-01T00:00:00Z</time>
				</trkpt>
				<trkpt lat="52.04698" lon="-0.14734">
					<ele>31</ele>
					<time>0001-01-01T00:00:00Z</time>
				</trkpt>
				<trkpt lat="52.04872" lon="-0.14571">
					<ele>33</ele>
					<time>0001-01-01T00:00:00Z</time>
				</trkpt>
				<trkpt lat="52.05008" lon="-0.14397">
					<ele>41</ele>
					<time>0001-01-01T00:00:00Z</time>
				</trkpt>
				<trkpt lat="52.05087" lon="-0.14287">
					<ele>48</ele>
					<time>0001-01-01T00:00:00Z</time>
				</trkpt>
				<trkpt lat="52.05255" lon="-0.14167">
					<ele>48</ele>
					<time>0001-01-01T00:00:00Z</time>
				</trkpt>
				<trkpt lat="52.05381" lon="-0.14070">
					<ele>47</ele>
					<time>0001-01-01T00:00:00Z</time>
				</trkpt>
				<trkpt lat="52.05507" lon="-0.14055">
					<ele>47</ele>
					<time>0001-01-01T00:00:00Z</time>
				</trkpt>
				<trkpt lat="52.05653" lon="-0.14041">
					<ele>44</ele>
					<time>0001-01-01T00:00:00Z</time>
				</trkpt>
				<trkpt lat="52.05817" lon="-0.14027">
					<ele>43</ele>
					<time>0001-01-01T00:00:00Z</time>
				</trkpt>
				<trkpt lat="52.06010" lon="-0.14008">
					<ele>45</ele>
					<time>0001-01-01T00:00:00Z</time>
				</trkpt>
				<trkpt lat="52.06191" lon="-0.13991">
					<ele>45</ele>
					<time>0001-01-01T00:00:00Z</time>
				</trkpt>
				<trkpt lat="52.06354" lon="-0.13983">
					<ele>45</ele>
					<time>0001-01-01T00:00:00Z</time>
				</trkpt>
				<trkpt lat="52.06473" lon="-0.13997">
					<ele>44</ele>
					<time>0001-01-01T00:00:00Z</time>
				</trkpt>
				<trkpt lat="52.06629" lon="-0.13986">
					<ele>42</ele>
					<time>0001-01-01T00:00:00Z</time>
				</trkpt>
				<trkpt lat="52.06764" lon="-0.13958">
					<ele>41</ele>
					<time>0001-01-01T00:00:00Z</time>
				</trkpt>
				<trkpt lat="52.06913" lon="-0.13875">
					<ele>41</ele>
					<time>0001-01-01T00:00:00Z</time>
				</trkpt>
				<trkpt lat="52.07062" lon="-0.13848">
					<ele>40</ele>
					<time>0001-01-01T00:00:00Z</time>
				</trkpt>
				<trkpt lat="52.07146" lon="-0.13811">
					<ele>39</ele>
					<time>0001-01-01T00:00:00Z</time>
				</trkpt>
				<trkpt lat="52.07171" lon="-0.13790">
					<ele>39</ele>
					<time>0001-01-01T00:00:00Z</time>
				</trkpt>
				<trkpt lat="52.07214" lon="-0.13778">
					<ele>40</ele>
					<time>0001-01-01T00:00:00Z</time>
				</trkpt>
				<trkpt lat="52.07319" lon="-0.13718">
					<ele>39</ele>
					<time>0001-01-01T00:00:00Z</time>
				</trkpt>
				<trkpt lat="52.07452" lon="-0.13654">
					<ele>35</ele>
					<time>0001-01-01T00:00:00Z</time>
				</trkpt>
				<trkpt lat="52.07583" lon="-0.13609">
					<ele>32</ele>
					<time>0001-01-01T00:00:00Z</time>
				</trkpt>
				<trkpt lat="52.07698" lon="-0.13616">
					<ele>30</ele>
					<time>0001-01-01T00:00:00Z</time>
				</trkpt>
				<trkpt lat="52.07806" lon="-0.13711">
					<ele>26</ele>
					<time>0001-01-01T00:00:00Z</time>
				</trkpt>
				<trkpt lat="52.07816" lon="-0.13724">
					<ele>26</ele>
					<time>0001-01-01T00:00:00Z</time>
				</trkpt>
				<trkpt lat="52.07890" lon="-0.13782">
					<ele>28</ele>
					<time>0001-01-01T00:00:00Z</time>
				</trkpt>
				<trkpt lat="52.08018" lon="-0.13777">
					<ele>28</ele>
					<time>0001-01-01T00:00:00Z</time>
				</trkpt>
				<trkpt lat="52.08153" lon="-0.13748">
					<ele>27</ele>
					<time>0001-01-01T00:00:00Z</time>
				</trkpt>
				<trkpt lat="52.08159" lon="-0.13743">
					<ele>27</ele>
					<time>0001-01-01T00:00:00Z</time>
				</trkpt>
				<trkpt lat="52.08265" lon="-0.13640">
					<ele>27</ele>
					<time>0001-01-01T00:00:00Z</time>
				</trkpt>
				<trkpt lat="52.08387" lon="-0.13546">
					<ele>24</ele>
					<time>0001-01-01T00:00:00Z</time>
				</trkpt>
				<trkpt lat="52.08502" lon="-0.13493">
					<ele>22</ele>
					<time>0001-01-01T00:00:00Z</time>
				</trkpt>
				<trkpt lat="52.08620" lon="-0.13483">
					<ele>23</ele>
					<time>0001-01-01T00:00:00Z</time>
				</trkpt>
				<trkpt lat="52.08643" lon="-0.13468">
					<ele>24</ele>
					<time>0001-01-01T00:00:00Z</time>
				</trkpt>
				<trkpt lat="52.08692" lon="-0.13511">
					<ele>24</ele>
					<time>0001-01-01T00:00:00Z</time>
				</trkpt>
				<trkpt lat="52.08699" lon="-0.13540">
					<ele>25</ele>
					<time>0001-01-01T00:00:00Z</time>
				</trkpt>
				<trkpt lat="52.08757" lon="-0.13878">
					<ele>30</ele>
					<time>0001-01-01T00:00:00Z</time>
				</trkpt>
				<trkpt lat="52.08807" lon="-0.14183">
					<ele>33</ele>
					<time>0001-01-01T00:00:00Z</time>
				</trkpt>
				<trkpt lat="52.08831" lon="-0.14238">
					<ele>33</ele>
					<time>0001-01-01T00:00:00Z</time>
				</trkpt>
				<trkpt lat="52.08874" lon="-0.14270">
					<ele>33</ele>
					<time>0001-01-01T00:00:00Z</time>
				</trkpt>
				<trkpt lat="52.08959" lon="-0.14334">
					<ele>29</ele>
					<time>0001-01-01T00:00:00Z</time>
				</trkpt>
				<trkpt lat="52.09034" lon="-0.14386">
					<ele>24</ele>
					<time>0001-01-01T00:00:00Z</time>
				</trkpt>
				<trkpt lat="52.09120" lon="-0.14442">
					<ele>19</ele>
					<time>0001-01-01T00:00:00Z</time>
				</trkpt>
				<trkpt lat="52.09277" lon="-0.14519">
					<ele>16</ele>
					<time>0001-01-01T00:00:00Z</time>
				</trkpt>
				<trkpt lat="52.09366" lon="-0.14624">
					<ele>18</ele>
					<time>0001-01-01T00:00:00Z</time>
				</trkpt>
				<trkpt lat="52.09383" lon="-0.14665">
					<ele>18</ele>
					<time>0001-01-01T00:00:00Z</time>
				</trkpt>
				<trkpt lat="52.09387" lon="-0.14767">
					<ele>17</ele>
					<time>0001-01-01T00:00:00Z</time>
				</trkpt>
				<trkpt lat="52.09350" lon="-0.14922">
					<ele>17</ele>
					<time>0001-01-01T00:00:00Z</time>
				</trkpt>
				<trkpt lat="52.09357" lon="-0.15004">
					<ele>18</ele>
					<time>0001-01-01T00:00:00Z</time>
				</trkpt>
				<trkpt lat="52.09418" lon="-0.15075">
					<ele>19</ele>
					<time>0001-01-01T00:00:00Z</time>
				</trkpt>
				<trkpt lat="52.09594" lon="-0.15258">
					<ele>23</ele>
					<time>0001-01-01T00:00:00Z</time>
				</trkpt>
				<trkpt lat="52.09756" lon="-0.15390">
					<ele>22</ele>
					<time>0001-01-01T00:00:00Z</time>
				</trkpt>
				<trkpt lat="52.09929" lon="-0.15498">
					<ele>27</ele>
					<time>0001-01-01T00:00:00Z</time>
				</trkpt>
				<trkpt lat="52.10121" lon="-0.15607">
					<ele>37</ele>
					<time>0001-01-01T00:00:00Z</time>
				</trkpt>
				<trkpt lat="52.10236" lon="-0.15694">
					<ele>40</ele>
					<time>0001-01-01T00:00:00Z</time>
				</trkpt>
				<trkpt lat="52.10354" lon="-0.15845">
					<ele>37</ele>
					<time>0001-01-01T00:00:00Z</time>
				</trkpt>
				<trkpt lat="52.10475" lon="-0.16006">
					<ele>33</ele>
					<time>0001-01-01T00:00:00Z</time>
				</trkpt>
				<trkpt lat="52.10562" lon="-0.16123">
					<ele>30</ele>
					<time>0001-01-01T00:00:00Z</time>
				</trkpt>
				<trkpt lat="52.10564" lon="-0.16126">
					<ele>30</ele>
					<time>0001-01-01T00:00:00Z</time>
				</trkpt>
				<trkpt lat="52.10631" lon="-0.16230">
					<ele>28</ele>
					<time>0001-01-01T00:00:00Z</time>
				</trkpt>
				<trkpt lat="52.10738" lon="-0.16386">
					<ele>29</ele>
					<time>0001-01-01T00:00:00Z</time>
				</trkpt>
				<trkpt lat="52.10803" lon="-0.16428">
					<ele>29</ele>
					<time>0001-01-01T00:00:00Z</time>
				</trkpt>
				<trkpt lat="52.10966" lon="-0.16497">
					<ele>34</ele>
					<time>0001-01-01T00:00:00Z</time>
				</trkpt>
				<trkpt lat="52.11020" lon="-0.16505">
					<ele>34</ele>
					<time>0001-01-01T00:00:00Z</time>
				</trkpt>
				<trkpt lat="52.11094" lon="-0.16467">
					<ele>31</ele>
					<time>0001-01-01T00:00:00Z</time>
				</trkpt>
				<trkpt lat="52.11150" lon="-0.16462">
					<ele>32</ele>
					<time>0001-01-01T00:00:00Z</time>
				</trkpt>
				<trkpt lat="52.11195" lon="-0.16643">
					<ele>33</ele>
					<time>0001-01-01T00:00:00Z</time>
				</trkpt>
				<trkpt lat="52.11214" lon="-0.16911">
					<ele>36</ele>
					<time>0001-01-01T00:00:00Z</time>
				</trkpt>
				<trkpt lat="52.11230" lon="-0.16982">
					<ele>37</ele>
					<time>0001-01-01T00:00:00Z</time>
				</trkpt>
				<trkpt lat="52.11418" lon="-0.17198">
					<ele>42</ele>
					<time>0001-01-01T00:00:00Z</time>
				</trkpt>
				<trkpt lat="52.11619" lon="-0.17394">
					<ele>49</ele>
					<time>0001-01-01T00:00:00Z</time>
				</trkpt>
				<trkpt lat="52.11857" lon="-0.17618">
					<ele>57</ele>
					<time>0001-01-01T00:00:00Z</time>
				</trkpt>
				<trkpt lat="52.11976" lon="-0.17747">
					<ele>63</ele>
					<time>0001-01-01T00:00:00Z</time>
				</trkpt>
				<trkpt lat="52.12034" lon="-0.17943">
					<ele>61</ele>
					<time>0001-01-01T00:00:00Z</time>
				</trkpt>
				<trkpt lat="52.12060" lon="-0.18215">
					<ele>65</ele>
					<time>0001-01-01T00:00:00Z</time>
				</trkpt>
				<trkpt lat="52.12073" lon="-0.18427">
					<ele>65</ele>
					<time>0001-01-01T00:00:00Z</time>
				</trkpt>
				<trkpt lat="52.12069" lon="-0.18578">
					<ele>63</ele>
					<time>0001-01-01T00:00:00Z</time>
				</trkpt>
				<trkpt lat="52.12066" lon="-0.18715">
					<ele>58</ele>
					<time>0001-01-01T00:00:00Z</time>
				</trkpt>
				<trkpt lat="52.12067" lon="-0.18822">
					<ele>52</ele>
					<time>0001-01-01T00:00:00Z</time>
				</trkpt>
				<trkpt lat="52.12073" lon="-0.18937">
					<ele>48</ele>
					<time>0001-01-01T00:00:00Z</time>
				</trkpt>
				<trkpt lat="52.12092" lon="-0.19156">
					<ele>40</ele>
					<time>0001-01-01T00:00:00Z</time>
				</trkpt>
				<trkpt lat="52.12117" lon="-0.19458">
					<ele>39</ele>
					<time>0001-01-01T00:00:00Z</time>
				</trkpt>
				<trkpt lat="52.12126" lon="-0.19679">
					<ele>40</ele>
					<time>0001-01-01T00:00:00Z</time>
				</trkpt>
				<trkpt lat="52.12199" lon="-0.19828">
					<ele>38</ele>
					<time>0001-01-01T00:00:00Z</time>
				</trkpt>
				<trkpt lat="52.12393" lon="-0.20146">
					<ele>39</ele>
					<time>0001-01-01T00:00:00Z</time>
				</trkpt>
				<trkpt lat="52.12526" lon="-0.20301">
					<ele>41</ele>
					<time>0001-01-01T00:00:00Z</time>
				</trkpt>
				<trkpt lat="52.12572" lon="-0.20421">
					<ele>42</ele>
					<time>0001-01-01T00:00:00Z</time>
				</trkpt>
				<trkpt lat="52.12574" lon="-0.20426">
					<ele>42</ele>
					<time>0001-01-01T00:00:00Z</time>
				</trkpt>
				<trkpt lat="52.12639" lon="-0.20431">
					<ele>42</ele>
					<time>0001-01-01T00:00:00Z</time>
				</trkpt>
				<trkpt lat="52.12790" lon="-0.20435">
					<ele>39</ele>
					<time>0001-01-01T00:00:00Z</time>
				</trkpt>
				<trkpt lat="52.12921" lon="-0.20443">
					<ele>36</ele>
					<time>0001-01-01T00:00:00Z</time>
				</trkpt>
				<trkpt lat="52.12943" lon="-0.20464">
					<ele>35</ele>
					<time>0001-01-01T00:00:00Z</time>
				</trkpt>
				<trkpt lat="52.12941" lon="-0.20480">
					<ele>35</ele>
					<time>0001-01-01T00:00:00Z</time>
				</trkpt>
				<trkpt lat="52.12933" lon="-0.20655">
					<ele>32</ele>
					<time>0001-01-01T00:00:00Z</time>
				</trkpt>
				<trkpt lat="52.12937" lon="-0.20671">
					<ele>32</ele>
					<time>0001-01-01T00:00:00Z</time>
				</trkpt>
				<trkpt lat="52.12954" lon="-0.20700">
					<ele>31</ele>
					<time>0001-01-01T00:00:00Z</time>
				</trkpt>
				<trkpt lat="52.12995" lon="-0.20739">
					<ele>34</ele>
					<time>0001-01-01T00:00:00Z</time>
				</trkpt>
				<trkpt lat="52.13015" lon="-0.20762">
					<ele>34</ele>
					<time>0001-01-01T00:00:00Z</time>
				</trkpt>
				<trkpt lat="52.13029" lon="-0.20818">
					<ele>33</ele>
					<time>0001-01-01T00:00:00Z</time>
				</trkpt>
				<trkpt lat="52.13058" lon="-0.20903">
					<ele>32</ele>
					<time>0001-01-01T00:00:00Z</time>
				</trkpt>
				<trkpt lat="52.13059" lon="-0.20914">
					<ele>31</ele>
					<time>0001-01-01T00:00:00Z</time>
				</trkpt>
				<trkpt lat="52.13044" lon="-0.20891">
					<ele>32</ele>
					<time>0001-01-01T00:00:00Z</time>
				</trkpt>
				<trkpt lat="52.13039" lon="-0.20883">
					<ele>32</ele>
					<time>0001-01-01T00:00:00Z</time>
				</trkpt>
				<trkpt lat="52.13033" lon="-0.20789">
					<ele>33</ele>
					<time>0001-01-01T00:00:00Z</time>
				</trkpt>
				<trkpt lat="52.13037" lon="-0.20749">
					<ele>34</ele>
					<time>0001-01-01T00:00:00Z</time>
				</trkpt>
				<trkpt lat="52.13086" lon="-0.20695">
					<ele>33</ele>
					<time>0001-01-01T00:00:00Z</time>
				</trkpt>
				<trkpt lat="52.13394" lon="-0.20491">
					<ele>41</ele>
					<time>0001-01-01T00:00:00Z</time>
				</trkpt>
				<trkpt lat="52.13512" lon="-0.20345">
					<ele>46</ele>
					<time>0001-01-01T00:00:00Z</time>
				</trkpt>
				<trkpt lat="52.13625" lon="-0.20249">
					<ele>45</ele>
					<time>0001-01-01T00:00:00Z</time>
				</trkpt>
				<trkpt lat="52.13748" lon="-0.20160">
					<ele>41</ele>
					<time>0001-01-01T00:00:00Z</time>
				</trkpt>
				<trkpt lat="52.13885" lon="-0.20060">
					<ele>39</ele>
					<time>0001-01-01T00:00:00Z</time>
				</trkpt>
				<trkpt lat="52.14054" lon="-0.19925">
					<ele>43</ele>
					<time>0001-01-01T00:00:00Z</time>
				</trkpt>
				<trkpt lat="52.14223" lon="-0.19776">
					<ele>41</ele>
					<time>0001-01-01T00:00:00Z</time>
				</trkpt>
				<trkpt lat="52.14326" lon="-0.19685">
					<ele>45</ele>
					<time>0001-01-01T00:00:00Z</time>
				</trkpt>
				<trkpt lat="52.14450" lon="-0.19562">
					<ele>46</ele>
					<time>0001-01-01T00:00:00Z</time>
				</trkpt>
				<trkpt lat="52.14549" lon="-0.19446">
					<ele>45</ele>
					<time>0001-01-01T00:00:00Z</time>
				</trkpt>
				<trkpt lat="52.14637" lon="-0.19349">
					<ele>42</ele>
					<time>0001-01-01T00:00:00Z</time>
				</trkpt>
				<trkpt lat="52.14672" lon="-0.19325">
					<ele>41</ele>
					<time>0001-01-01T00:00:00Z</time>
				</trkpt>
				<trkpt lat="52.14705" lon="-0.19310">
					<ele>40</ele>
					<time>0001-01-01T00:00:00Z</time>
				</trkpt>
				<trkpt lat="52.14824" lon="-0.19295">
					<ele>36</ele>
					<time>0001-01-01T00:00:00Z</time>
				</trkpt>
				<trkpt lat="52.14969" lon="-0.19290">
					<ele>41</ele>
					<time>0001-01-01T00:00:00Z</time>
				</trkpt>
				<trkpt lat="52.15067" lon="-0.19256">
					<ele>43</ele>
					<time>0001-01-01T00:00:00Z</time>
				</trkpt>
				<trkpt lat="52.15076" lon="-0.19245">
					<ele>44</ele>
					<time>0001-01-01T00:00:00Z</time>
				</trkpt>
				<trkpt lat="52.15083" lon="-0.19232">
					<ele>44</ele>
					<time>0001-01-01T00:00:00Z</time>
				</trkpt>
				<trkpt lat="52.15167" lon="-0.19115">
					<ele>45</ele>
					<time>0001-01-01T00:00:00Z</time>
				</trkpt>
				<trkpt lat="52.15209" lon="-0.19065">
					<ele>46</ele>
					<time>0001-01-01T00:00:00Z</time>
				</trkpt>
				<trkpt lat="52.15190" lon="-0.19007">
					<ele>46</ele>
					<time>0001-01-01T00:00:00Z</time>
				</trkpt>
				<trkpt lat="52.15187" lon="-0.18997">
					<ele>46</ele>
					<time>0001-01-01T00:00:00Z</time>
				</trkpt>
				<trkpt lat="52.15185" lon="-0.18997">
					<ele>43</ele>
					<time>0001-01-01T00:00:00Z</time>
				</trkpt>
				<trkpt lat="52.15198" lon="-0.18997">
					<ele>47</ele>
					<time>0001-01-01T00:00:00Z</time>
				</trkpt>
				<trkpt lat="52.15209" lon="-0.18999">
					<ele>47</ele>
					<time>0001-01-01T00:00:00Z</time>
				</trkpt>
				<trkpt lat="52.15221" lon="-0.19059">
					<ele>48</ele>
					<time>0001-01-01T00:00:00Z</time>
				</trkpt>
				<trkpt lat="52.15289" lon="-0.19010">
					<ele>49</ele>
					<time>0001-01-01T00:00:00Z</time>
				</trkpt>
				<trkpt lat="52.15408" lon="-0.18957">
					<ele>51</ele>
					<time>0001-01-01T00:00:00Z</time>
				</trkpt>
				<trkpt lat="52.15517" lon="-0.18962">
					<ele>52</ele>
					<time>0001-01-01T00:00:00Z</time>
				</trkpt>
				<trkpt lat="52.15534" lon="-0.18985">
					<ele>53</ele>
					<time>0001-01-01T00:00:00Z</time>
				</trkpt>
				<trkpt lat="52.15541" lon="-0.19024">
					<ele>53</ele>
					<time>0001-01-01T00:00:00Z</time>
				</trkpt>
				<trkpt lat="52.15542" lon="-0.19044">
					<ele>53</ele>
					<time>0001-01-01T00:00:00Z</time>
				</trkpt>
				<trkpt lat="52.15544" lon="-0.19054">
					<ele>54</ele>
					<time>0001-01-01T00:00:00Z</time>
				</trkpt>
				<trkpt lat="52.15556" lon="-0.19263">
					<ele>53</ele>
					<time>0001-01-01T00:00:00Z</time>
				</trkpt>
				<trkpt lat="52.15576" lon="-0.19296">
					<ele>52</ele>
					<time>0001-01-01T00:00:00Z</time>
				</trkpt>
				<trkpt lat="52.15594" lon="-0.19298">
					<ele>52</ele>
					<time>0001-01-01T00:00:00Z</time>
				</trkpt>
				<trkpt lat="52.15657" lon="-0.19314">
					<ele>52</ele>
					<time>0001-01-01T00:00:00Z</time>
				</trkpt>
				<trkpt lat="52.15701" lon="-0.19425">
					<ele>52</ele>
					<time>0001-01-01T00:00:00Z</time>
				</trkpt>
				<trkpt lat="52.15762" lon="-0.19572">
					<ele>52</ele>
					<time>0001-01-01T00:00:00Z</time>
				</trkpt>
				<trkpt lat="52.15820" lon="-0.19778">
					<ele>53</ele>
					<time>0001-01-01T00:00:00Z</time>
				</trkpt>
				<trkpt lat="52.15895" lon="-0.19931">
					<ele>52</ele>
					<time>0001-01-01T00:00:00Z</time>
				</trkpt>
				<trkpt lat="52.15898" lon="-0.19942">
					<ele>52</ele>
					<time>0001-01-01T00:00:00Z</time>
				</trkpt>
				<trkpt lat="52.15955" lon="-0.20116">
					<ele>53</ele>
					<time>0001-01-01T00:00:00Z</time>
				</trkpt>
				<trkpt lat="52.16050" lon="-0.20296">
					<ele>54</ele>
					<time>0001-01-01T00:00:00Z</time>
				</trkpt>
				<trkpt lat="52.16058" lon="-0.20344">
					<ele>54</ele>
					<time>0001-01-01T00:00:00Z</time>
				</trkpt>
				<trkpt lat="52.16057" lon="-0.20473">
					<ele>54</ele>
					<time>0001-01-01T00:00:00Z</time>
				</trkpt>
				<trkpt lat="52.16068" lon="-0.20664">
					<ele>54</ele>
					<time>0001-01-01T00:00:00Z</time>
				</trkpt>
				<trkpt lat="52.16075" lon="-0.20711">
					<ele>54</ele>
					<time>0001-01-01T00:00:00Z</time>
				</trkpt>
				<trkpt lat="52.16140" lon="-0.20786">
					<ele>55</ele>
					<time>0001-01-01T00:00:00Z</time>
				</trkpt>
				<trkpt lat="52.16154" lon="-0.20802">
					<ele>54</ele>
					<time>0001-01-01T00:00:00Z</time>
				</trkpt>
				<trkpt lat="52.16163" lon="-0.20806">
					<ele>54</ele>
					<time>0001-01-01T00:00:00Z</time>
				</trkpt>
				<trkpt lat="52.16191" lon="-0.20818">
					<ele>54</ele>
					<time>0001-01-01T00:00:00Z</time>
				</trkpt>
				<trkpt lat="52.16324" lon="-0.20906">
					<ele>57</ele>
					<time>0001-01-01T00:00:00Z</time>
				</trkpt>
				<trkpt lat="52.16349" lon="-0.20908">
					<ele>57</ele>
					<time>0001-01-01T00:00:00Z</time>
				</trkpt>
				<trkpt lat="52.16354" lon="-0.20907">
					<ele>57</ele>
					<time>0001-01-01T00:00:00Z</time>
				</trkpt>
				<trkpt lat="52.16424" lon="-0.20901">
					<ele>56</ele>
					<time>0001-01-01T00:00:00Z</time>
				</trkpt>
				<trkpt lat="52.16511" lon="-0.20992">
					<ele>48</ele>
					<time>0001-01-01T00:00:00Z</time>
				</trkpt>
				<trkpt lat="52.16564" lon="-0.21063">
					<ele>41</ele>
					<time>0001-01-01T00:00:00Z</time>
				</trkpt>
				<trkpt lat="52.16711" lon="-0.21241">
					<ele>43</ele>
					<time>0001-01-01T00:00:00Z</time>
				</trkpt>
				<trkpt lat="52.16825" lon="-0.21371">
					<ele>53</ele>
					<time>0001-01-01T00:00:00Z</time>
				</trkpt>
				<trkpt lat="52.16917" lon="-0.21503">
					<ele>53</ele>
					<time>0001-01-01T00:00:00Z</time>
				</trkpt>
				<trkpt lat="52.16982" lon="-0.21606">
					<ele>52</ele>
					<time>0001-01-01T00:00:00Z</time>
				</trkpt>
				<trkpt lat="52.17076" lon="-0.21718">
					<ele>50</ele>
					<time>0001-01-01T00:00:00Z</time>
				</trkpt>
				<trkpt lat="52.17178" lon="-0.21750">
					<ele>50</ele>
					<time>0001-01-01T00:00:00Z</time>
				</trkpt>
				<trkpt lat="52.17326" lon="-0.21686">
					<ele>51</ele>
					<time>0001-01-01T00:00:00Z</time>
				</trkpt>
				<trkpt lat="52.17488" lon="-0.21611">
					<ele>52</ele>
					<time>0001-01-01T00:00:00Z</time>
				</trkpt>
				<trkpt lat="52.17623" lon="-0.21549">
					<ele>52</ele>
					<time>0001-01-01T00:00:00Z</time>
				</trkpt>
				<trkpt lat="52.17729" lon="-0.21504">
					<ele>53</ele>
					<time>0001-01-01T00:00:00Z</time>
				</trkpt>
				<trkpt lat="52.17828" lon="-0.21550">
					<ele>53</ele>
					<time>0001-01-01T00:00:00Z</time>
				</trkpt>
				<trkpt lat="52.17960" lon="-0.21619">
					<ele>53</ele>
					<time>0001-01-01T00:00:00Z</time>
				</trkpt>
				<trkpt lat="52.18088" lon="-0.21684">
					<ele>52</ele>
					<time>0001-01-01T00:00:00Z</time>
				</trkpt>
				<trkpt lat="52.18329" lon="-0.21810">
					<ele>55</ele>
					<time>0001-01-01T00:00:00Z</time>
				</trkpt>
				<trkpt lat="52.18390" lon="-0.21849">
					<ele>55</ele>
					<time>0001-01-01T00:00:00Z</time>
				</trkpt>
				<trkpt lat="52.18392" lon="-0.21871">
					<ele>54</ele>
					<time>0001-01-01T00:00:00Z</time>
				</trkpt>
				<trkpt lat="52.18388" lon="-0.22012">
					<ele>55</ele>
					<time>0001-01-01T00:00:00Z</time>
				</trkpt>
				<trkpt lat="52.18390" lon="-0.22297">
					<ele>57</ele>
					<time>0001-01-01T00:00:00Z</time>
				</trkpt>
				<trkpt lat="52.18401" lon="-0.22551">
					<ele>57</ele>
					<time>0001-01-01T00:00:00Z</time>
				</trkpt>
				<trkpt lat="52.18447" lon="-0.22867">
					<ele>56</ele>
					<time>0001-01-01T00:00:00Z</time>
				</trkpt>
				<trkpt lat="52.18481" lon="-0.23086">
					<ele>57</ele>
					<time>0001-01-01T00:00:00Z</time>
				</trkpt>
				<trkpt lat="52.18502" lon="-0.23327">
					<ele>54</ele>
					<time>0001-01-01T00:00:00Z</time>
				</trkpt>
				<trkpt lat="52.18536" lon="-0.23601">
					<ele>54</ele>
					<time>0001-01-01T00:00:00Z</time>
				</trkpt>
				<trkpt lat="52.18584" lon="-0.23765">
					<ele>55</ele>
					<time>0001-01-01T00:00:00Z</time>
				</trkpt>
				<trkpt lat="52.18664" lon="-0.23962">
					<ele>54</ele>
					<time>0001-01-01T00:00:00Z</time>
				</trkpt>
				<trkpt lat="52.18697" lon="-0.24164">
					<ele>53</ele>
					<time>0001-01-01T00:00:00Z</time>
				</trkpt>
				<trkpt lat="52.18730" lon="-0.24217">
					<ele>53</ele>
					<time>0001-01-01T00:00:00Z</time>
				</trkpt>
				<trkpt lat="52.18801" lon="-0.24184">
					<ele>53</ele>
					<time>0001-01-01T00:00:00Z</time>
				</trkpt>
				<trkpt lat="52.18960" lon="-0.24113">
					<ele>52</ele>
					<time>0001-01-01T00:00:00Z</time>
				</trkpt>
				<trkpt lat="52.18989" lon="-0.24125">
					<ele>50</ele>
					<time>0001-01-01T00:00:00Z</time>
				</trkpt>
				<trkpt lat="52.19097" lon="-0.24288">
					<ele>47</ele>
					<time>0001-01-01T00:00:00Z</time>
				</trkpt>
				<trkpt lat="52.19106" lon="-0.24306">
					<ele>47</ele>
					<time>0001-01-01T00:00:00Z</time>
				</trkpt>
				<trkpt lat="52.19156" lon="-0.24442">
					<ele>46</ele>
					<time>0001-01-01T00:00:00Z</time>
				</trkpt>
				<trkpt lat="52.19169" lon="-0.24503">
					<ele>46</ele>
					<time>0001-01-01T00:00:00Z</time>
				</trkpt>
				<trkpt lat="52.19201" lon="-0.24546">
					<ele>46</ele>
					<time>0001-01-01T00:00:00Z</time>
				</trkpt>
				<trkpt lat="52.19331" lon="-0.24570">
					<ele>46</ele>
					<time>0001-01-01T00:00:00Z</time>
				</trkpt>
				<trkpt lat="52.19456" lon="-0.24588">
					<ele>45</ele>
					<time>0001-01-01T00:00:00Z</time>
				</trkpt>
				<trkpt lat="52.19560" lon="-0.24620">
					<ele>46</ele>
					<time>0001-01-01T00:00:00Z</time>
				</trkpt>
				<trkpt lat="52.19676" lon="-0.24714">
					<ele>44</ele>
					<time>0001-01-01T00:00:00Z</time>
				</trkpt>
				<trkpt lat="52.19794" lon="-0.24802">
					<ele>44</ele>
					<time>0001-01-01T00:00:00Z</time>
				</trkpt>
				<trkpt lat="52.19888" lon="-0.24921">
					<ele>40</ele>
					<time>0001-01-01T00:00:00Z</time>
				</trkpt>
				<trkpt lat="52.19992" lon="-0.24949">
					<ele>39</ele>
					<time>0001-01-01T00:00:00Z</time>
				</trkpt>
				<trkpt lat="52.20088" lon="-0.24915">
					<ele>37</ele>
					<time>0001-01-01T00:00:00Z</time>
				</trkpt>
				<trkpt lat="52.20157" lon="-0.24876">
					<ele>37</ele>
					<time>0001-01-01T00:00:00Z</time>
				</trkpt>
				<trkpt lat="52.20263" lon="-0.24822">
					<ele>37</ele>
					<time>0001-01-01T00:00:00Z</time>
				</trkpt>
				<trkpt lat="52.20306" lon="-0.24833">
					<ele>37</ele>
					<time>0001-01-01T00:00:00Z</time>
				</trkpt>
				<trkpt lat="52.20378" lon="-0.24935">
					<ele>35</ele>
					<time>0001-01-01T00:00:00Z</time>
				</trkpt>
				<trkpt lat="52.20478" lon="-0.25086">
					<ele>34</ele>
					<time>0001-01-01T00:00:00Z</time>
				</trkpt>
				<trkpt lat="52.20600" lon="-0.25248">
					<ele>33</ele>
					<time>0001-01-01T00:00:00Z</time>
				</trkpt>
				<trkpt lat="52.20674" lon="-0.25331">
					<ele>32</ele>
					<time>0001-01-01T00:00:00Z</time>
				</trkpt>
				<trkpt lat="52.20791" lon="-0.25445">
					<ele>31</ele>
					<time>0001-01-01T00:00:00Z</time>
				</trkpt>
				<trkpt lat="52.20937" lon="-0.25594">
					<ele>29</ele>
					<time>0001-01-01T00:00:00Z</time>
				</trkpt>
				<trkpt lat="52.21054" lon="-0.25722">
					<ele>28</ele>
					<time>0001-01-01T00:00:00Z</time>
				</trkpt>
				<trkpt lat="52.21144" lon="-0.25828">
					<ele>27</ele>
					<time>0001-01-01T00:00:00Z</time>
				</trkpt>
				<trkpt lat="52.21249" lon="-0.25951">
					<ele>26</ele>
					<time>0001-01-01T00:00:00Z</time>
				</trkpt>
				<trkpt lat="52.21356" lon="-0.26048">
					<ele>24</ele>
					<time>0001-01-01T00:00:00Z</time>
				</trkpt>
				<trkpt lat="52.21450" lon="-0.26129">
					<ele>22</ele>
					<time>0001-01-01T00:00:00Z</time>
				</trkpt>
				<trkpt lat="52.21530" lon="-0.26197">
					<ele>20</ele>
					<time>0001-01-01T00:00:00Z</time>
				</trkpt>
				<trkpt lat="52.21622" lon="-0.26276">
					<ele>17</ele>
					<time>0001-01-01T00:00:00Z</time>
				</trkpt>
				<trkpt lat="52.21724" lon="-0.26363">
					<ele>15</ele>
					<time>0001-01-01T00:00:00Z</time>
				</trkpt>
				<trkpt lat="52.21734" lon="-0.26380">
					<ele>15</ele>
					<time>0001-01-01T00:00:00Z</time>
				</trkpt>
				<trkpt lat="52.21731" lon="-0.26400">
					<ele>14</ele>
					<time>0001-01-01T00:00:00Z</time>
				</trkpt>
				<trkpt lat="52.21723" lon="-0.26438">
					<ele>14</ele>
					<time>0001-01-01T00:00:00Z</time>
				</trkpt>
				<trkpt lat="52.21688" lon="-0.26652">
					<ele>14</ele>
					<time>0001-01-01T00:00:00Z</time>
				</trkpt>
				<trkpt lat="52.21687" lon="-0.26670">
					<ele>14</ele>
					<time>0001-01-01T00:00:00Z</time>
				</trkpt>
				<trkpt lat="52.21724" lon="-0.26672">
					<ele>13</ele>
					<time>0001-01-01T00:00:00Z</time>
				</trkpt>
				<trkpt lat="52.21751" lon="-0.26618">
					<ele>12</ele>
					<time>0001-01-01T00:00:00Z</time>
				</trkpt>
				<trkpt lat="52.21865" lon="-0.26513">
					<ele>13</ele>
					<time>0001-01-01T00:00:00Z</time>
				</trkpt>
				<trkpt lat="52.21930" lon="-0.26502">
					<ele>13</ele>
					<time>0001-01-01T00:00:00Z</time>
				</trkpt>
				<trkpt lat="52.22040" lon="-0.26490">
					<ele>18</ele>
					<time>0001-01-01T00:00:00Z</time>
				</trkpt>
				<trkpt lat="52.22201" lon="-0.26551">
					<ele>17</ele>
					<time>0001-01-01T00:00:00Z</time>
				</trkpt>
				<trkpt lat="52.22241" lon="-0.26580">
					<ele>17</ele>
					<time>0001-01-01T00:00:00Z</time>
				</trkpt>
				<trkpt lat="52.22355" lon="-0.26706">
					<ele>17</ele>
					<time>0001-01-01T00:00:00Z</time>
				</trkpt>
				<trkpt lat="52.22420" lon="-0.26805">
					<ele>15</ele>
					<time>0001-01-01T00:00:00Z</time>
				</trkpt>
				<trkpt lat="52.22448" lon="-0.26824">
					<ele>17</ele>
					<time>0001-01-01T00:00:00Z</time>
				</trkpt>
				<trkpt lat="52.22492" lon="-0.26814">
					<ele>17</ele>
					<time>0001-01-01T00:00:00Z</time>
				</trkpt>
				<trkpt lat="52.22522" lon="-0.26802">
					<ele>17</ele>
					<time>0001-01-01T00:00:00Z</time>
				</trkpt>
				<trkpt lat="52.22530" lon="-0.26802">
					<ele>17</ele>
					<time>0001-01-01T00:00:00Z</time>
				</trkpt>
				<trkpt lat="52.22549" lon="-0.26792">
					<ele>15</ele>
					<time>0001-01-01T00:00:00Z</time>
				</trkpt>
				<trkpt lat="52.22562" lon="-0.26785">
					<ele>15</ele>
					<time>0001-01-01T00:00:00Z</time>
				</trkpt>
				<trkpt lat="52.22598" lon="-0.26725">
					<ele>15</ele>
					<time>0001-01-01T00:00:00Z</time>
				</trkpt>
				<trkpt lat="52.22651" lon="-0.26683">
					<ele>15</ele>
					<time>0001-01-01T00:00:00Z</time>
				</trkpt>
				<trkpt lat="52.22672" lon="-0.26643">
					<ele>16</ele>
					<time>0001-01-01T00:00:00Z</time>
				</trkpt>
				<trkpt lat="52.22723" lon="-0.26641">
					<ele>17</ele>
					<time>0001-01-01T00:00:00Z</time>
				</trkpt>
				<trkpt lat="52.22759" lon="-0.26627">
					<ele>15</ele>
					<time>0001-01-01T00:00:00Z</time>
				</trkpt>
				<trkpt lat="52.22839" lon="-0.26607">
					<ele>14</ele>
					<time>0001-01-01T00:00:00Z</time>
				</trkpt>
				<trkpt lat="52.22848" lon="-0.26609">
					<ele>14</ele>
					<time>0001-01-01T00:00:00Z</time>
				</trkpt>
				<trkpt lat="52.22849" lon="-0.26619">
					<ele>13</ele>
					<time>0001-01-01T00:00:00Z</time>
				</trkpt>
				<trkpt lat="52.22851" lon="-0.26649">
					<ele>14</ele>
					<time>0001-01-01T00:00:00Z</time>
				</trkpt>
				<trkpt lat="52.22831" lon="-0.26758">
					<ele>13</ele>
					<time>0001-01-01T00:00:00Z</time>
				</trkpt>
				<trkpt lat="52.22818" lon="-0.26821">
					<ele>13</ele>
					<time>0001-01-01T00:00:00Z</time>
				</trkpt>
				<trkpt lat="52.22789" lon="-0.26985">
					<ele>14</ele>
					<time>0001-01-01T00:00:00Z</time>
				</trkpt>
				<trkpt lat="52.22780" lon="-0.27084">
					<ele>14</ele>
					<time>0001-01-01T00:00:00Z</time>
				</trkpt>
				<trkpt lat="52.22760" lon="-0.27202">
					<ele>15</ele>
					<time>0001-01-01T00:00:00Z</time>
				</trkpt>
				<trkpt lat="52.22698" lon="-0.27483">
					<ele>15</ele>
					<time>0001-01-01T00:00:00Z</time>
				</trkpt>
				<trkpt lat="52.22694" lon="-0.27524">
					<ele>15</ele>
					<time>0001-01-01T00:00:00Z</time>
				</trkpt>
				<trkpt lat="52.22703" lon="-0.27584">
					<ele>16</ele>
					<time>0001-01-01T00:00:00Z</time>
				</trkpt>
				<trkpt lat="52.22712" lon="-0.27620">
					<ele>16</ele>
					<time>0001-01-01T00:00:00Z</time>
				</trkpt>
				<trkpt lat="52.22728" lon="-0.27645">
					<ele>16</ele>
					<time>0001-01-01T00:00:00Z</time>
				</trkpt>
				<trkpt lat="52.22751" lon="-0.27667">
					<ele>17</ele>
					<time>0001-01-01T00:00:00Z</time>
				</trkpt>
				<trkpt lat="52.22846" lon="-0.27661">
					<ele>14</ele>
					<time>0001-01-01T00:00:00Z</time>
				</trkpt>
				<trkpt lat="52.22998" lon="-0.27631">
					<ele>15</ele>
					<time>0001-01-01T00:00:00Z</time>
				</trkpt>
				<trkpt lat="52.23130" lon="-0.27612">
					<ele>18</ele>
					<time>0001-01-01T00:00:00Z</time>
				</trkpt>
				<trkpt lat="52.23295" lon="-0.27628">
					<ele>23</ele>
					<time>0001-01-01T00:00:00Z</time>
				</trkpt>
				<trkpt lat="52.23435" lon="-0.27745">
					<ele>23</ele>
					<time>0001-01-01T00:00:00Z</time>
				</trkpt>
				<trkpt lat="52.23480" lon="-0.27875">
					<ele>24</ele>
					<time>0001-01-01T00:00:00Z</time>
				</trkpt>
				<trkpt lat="52.23563" lon="-0.28119">
					<ele>27</ele>
					<time>0001-01-01T00:00:00Z</time>
				</trkpt>
				<trkpt lat="52.23628" lon="-0.28262">
					<ele>28</ele>
					<time>0001-01-01T00:00:00Z</time>
				</trkpt>
				<trkpt lat="52.23700" lon="-0.28402">
					<ele>29</ele>
					<time>0001-01-01T00:00:00Z</time>
				</trkpt>
				<trkpt lat="52.23808" lon="-0.28705">
					<ele>27</ele>
					<time>0001-01-01T00:00:00Z</time>
				</trkpt>
				<trkpt lat="52.23896" lon="-0.29028">
					<ele>30</ele>
					<time>0001-01-01T00:00:00Z</time>
				</trkpt>
				<trkpt lat="52.23953" lon="-0.29201">
					<ele>31</ele>
					<time>0001-01-01T00:00:00Z</time>
				</trkpt>
				<trkpt lat="52.24050" lon="-0.29310">
					<ele>30</ele>
					<time>0001-01-01T00:00:00Z</time>
				</trkpt>
				<trkpt lat="52.24121" lon="-0.29320">
					<ele>28</ele>
					<time>0001-01-01T00:00:00Z</time>
				</trkpt>
				<trkpt lat="52.24217" lon="-0.29371">
					<ele>28</ele>
					<time>0001-01-01T00:00:00Z</time>
				</trkpt>
				<trkpt lat="52.24252" lon="-0.29473">
					<ele>28</ele>
					<time>0001-01-01T00:00:00Z</time>
				</trkpt>
				<trkpt lat="52.24332" lon="-0.29704">
					<ele>27</ele>
					<time>0001-01-01T00:00:00Z</time>
				</trkpt>
				<trkpt lat="52.24421" lon="-0.29871">
					<ele>28</ele>
					<time>0001-01-01T00:00:00Z</time>
				</trkpt>
				<trkpt lat="52.24512" lon="-0.29984">
					<ele>29</ele>
					<time>0001-01-01T00:00:00Z</time>
				</trkpt>
				<trkpt lat="52.24574" lon="-0.30071">
					<ele>30</ele>
					<time>0001-01-01T00:00:00Z</time>
				</trkpt>
				<trkpt lat="52.24658" lon="-0.30176">
					<ele>31</ele>
					<time>0001-01-01T00:00:00Z</time>
				</trkpt>
				<trkpt lat="52.24743" lon="-0.30336">
					<ele>31</ele>
					<time>0001-01-01T00:00:00Z</time>
				</trkpt>
				<trkpt lat="52.24813" lon="-0.30548">
					<ele>32</ele>
					<time>0001-01-01T00:00:00Z</time>
				</trkpt>
				<trkpt lat="52.24883" lon="-0.30648">
					<ele>31</ele>
					<time>0001-01-01T00:00:00Z</time>
				</trkpt>
				<trkpt lat="52.25017" lon="-0.30679">
					<ele>31</ele>
					<time>0001-01-01T00:00:00Z</time>
				</trkpt>
				<trkpt lat="52.25131" lon="-0.30715">
					<ele>31</ele>
					<time>0001-01-01T00:00:00Z</time>
				</trkpt>
				<trkpt lat="52.25222" lon="-0.30703">
					<ele>28</ele>
					<time>0001-01-01T00:00:00Z</time>
				</trkpt>
				<trkpt lat="52.25296" lon="-0.30688">
					<ele>22</ele>
					<time>0001-01-01T00:00:00Z</time>
				</trkpt>
				<trkpt lat="52.25332" lon="-0.30715">
					<ele>20</ele>
					<time>0001-01-01T00:00:00Z</time>
				</trkpt>
				<trkpt lat="52.25439" lon="-0.30932">
					<ele>18</ele>
					<time>0001-01-01T00:00:00Z</time>
				</trkpt>
				<trkpt lat="52.25535" lon="-0.31085">
					<ele>17</ele>
					<time>0001-01-01T00:00:00Z</time>
				</trkpt>
				<trkpt lat="52.25632" lon="-0.31112">
					<ele>15</ele>
					<time>0001-01-01T00:00:00Z</time>
				</trkpt>
				<trkpt lat="52.25669" lon="-0.31131">
					<ele>15</ele>
					<time>0001-01-01T00:00:00Z</time>
				</trkpt>
				<trkpt lat="52.25776" lon="-0.31360">
					<ele>17</ele>
					<time>0001-01-01T00:00:00Z</time>
				</trkpt>
				<trkpt lat="52.25874" lon="-0.31602">
					<ele>18</ele>
					<time>0001-01-01T00:00:00Z</time>
				</trkpt>
				<trkpt lat="52.25991" lon="-0.31875">
					<ele>19</ele>
					<time>0001-01-01T00:00:00Z</time>
				</trkpt>
				<trkpt lat="52.26070" lon="-0.32056">
					<ele>18</ele>
					<time>0001-01-01T00:00:00Z</time>
				</trkpt>
				<trkpt lat="52.26165" lon="-0.32329">
					<ele>23</ele>
					<time>0001-01-01T00:00:00Z</time>
				</trkpt>
				<trkpt lat="52.26259" lon="-0.32614">
					<ele>25</ele>
					<time>0001-01-01T00:00:00Z</time>
				</trkpt>
				<trkpt lat="52.26326" lon="-0.32830">
					<ele>25</ele>
					<time>0001-01-01T00:00:00Z</time>
				</trkpt>
				<trkpt lat="52.26375" lon="-0.32984">
					<ele>24</ele>
					<time>0001-01-01T00:00:00Z</time>
				</trkpt>
				<trkpt lat="52.26439" lon="-0.33122">
					<ele>22</ele>
					<time>0001-01-01T00:00:00Z</time>
				</trkpt>
				<trkpt lat="52.26564" lon="-0.33265">
					<ele>20</ele>
					<time>0001-01-01T00:00:00Z</time>
				</trkpt>
				<trkpt lat="52.26631" lon="-0.33397">
					<ele>19</ele>
					<time>0001-01-01T00:00:00Z</time>
				</trkpt>
				<trkpt lat="52.26665" lon="-0.33561">
					<ele>19</ele>
					<time>0001-01-01T00:00:00Z</time>
				</trkpt>
				<trkpt lat="52.26713" lon="-0.33802">
					<ele>19</ele>
					<time>0001-01-01T00:00:00Z</time>
				</trkpt>
				<trkpt lat="52.26758" lon="-0.34037">
					<ele>21</ele>
					<time>0001-01-01T00:00:00Z</time>
				</trkpt>
				<trkpt lat="52.26801" lon="-0.34301">
					<ele>24</ele>
					<time>0001-01-01T00:00:00Z</time>
				</trkpt>
				<trkpt lat="52.26827" lon="-0.34509">
					<ele>25</ele>
					<time>0001-01-01T00:00:00Z</time>
				</trkpt>
				<trkpt lat="52.26844" lon="-0.34542">
					<ele>25</ele>
					<time>0001-01-01T00:00:00Z</time>
				</trkpt>
				<trkpt lat="52.26929" lon="-0.34576">
					<ele>26</ele>
					<time>0001-01-01T00:00:00Z</time>
				</trkpt>
				<trkpt lat="52.27039" lon="-0.34625">
					<ele>25</ele>
					<time>0001-01-01T00:00:00Z</time>
				</trkpt>
				<trkpt lat="52.27149" lon="-0.34658">
					<ele>26</ele>
					<time>0001-01-01T00:00:00Z</time>
				</trkpt>
				<trkpt lat="52.27181" lon="-0.34689">
					<ele>24</ele>
					<time>0001-01-01T00:00:00Z</time>
				</trkpt>
				<trkpt lat="52.27194" lon="-0.34713">
					<ele>23</ele>
					<time>0001-01-01T00:00:00Z</time>
				</trkpt>
				<trkpt lat="52.27219" lon="-0.34767">
					<ele>24</ele>
					<time>0001-01-01T00:00:00Z</time>
				</trkpt>
				<trkpt lat="52.27300" lon="-0.34982">
					<ele>25</ele>
					<time>0001-01-01T00:00:00Z</time>
				</trkpt>
				<trkpt lat="52.27386" lon="-0.35213">
					<ele>26</ele>
					<time>0001-01-01T00:00:00Z</time>
				</trkpt>
				<trkpt lat="52.27460" lon="-0.35407">
					<ele>28</ele>
					<time>0001-01-01T00:00:00Z</time>
				</trkpt>
				<trkpt lat="52.27522" lon="-0.35586">
					<ele>30</ele>
					<time>0001-01-01T00:00:00Z</time>
				</trkpt>
				<trkpt lat="52.27563" lon="-0.35794">
					<ele>28</ele>
					<time>0001-01-01T00:00:00Z</time>
				</trkpt>
				<trkpt lat="52.27624" lon="-0.35922">
					<ele>28</ele>
					<time>0001-01-01T00:00:00Z</time>
				</trkpt>
				<trkpt lat="52.27749" lon="-0.36009">
					<ele>28</ele>
					<time>0001-01-01T00:00:00Z</time>
				</trkpt>
				<trkpt lat="52.27889" lon="-0.36094">
					<ele>30</ele>
					<time>0001-01-01T00:00:00Z</time>
				</trkpt>
				<trkpt lat="52.28013" lon="-0.36172">
					<ele>31</ele>
					<time>0001-01-01T00:00:00Z</time>
				</trkpt>
				<trkpt lat="52.28139" lon="-0.36249">
					<ele>36</ele>
					<time>0001-01-01T00:00:00Z</time>
				</trkpt>
				<trkpt lat="52.28251" lon="-0.36322">
					<ele>34</ele>
					<time>0001-01-01T00:00:00Z</time>
				</trkpt>
				<trkpt lat="52.28352" lon="-0.36392">
					<ele>34</ele>
					<time>0001-01-01T00:00:00Z</time>
				</trkpt>
				<trkpt lat="52.28482" lon="-0.36490">
					<ele>36</ele>
					<time>0001-01-01T00:00:00Z</time>
				</trkpt>
				<trkpt lat="52.28587" lon="-0.36642">
					<ele>36</ele>
					<time>0001-01-01T00:00:00Z</time>
				</trkpt>
				<trkpt lat="52.28684" lon="-0.36816">
					<ele>37</ele>
					<time>0001-01-01T00:00:00Z</time>
				</trkpt>
				<trkpt lat="52.28785" lon="-0.37000">
					<ele>40</ele>
					<time>0001-01-01T00:00:00Z</time>
				</trkpt>
				<trkpt lat="52.28866" lon="-0.37146">
					<ele>40</ele>
					<time>0001-01-01T00:00:00Z</time>
				</trkpt>
				<trkpt lat="52.28910" lon="-0.37245">
					<ele>35</ele>
					<time>0001-01-01T00:00:00Z</time>
				</trkpt>
				<trkpt lat="52.28964" lon="-0.37418">
					<ele>33</ele>
					<time>0001-01-01T00:00:00Z</time>
				</trkpt>
				<trkpt lat="52.29050" lon="-0.37568">
					<ele>34</ele>
					<time>0001-01-01T00:00:00Z</time>
				</trkpt>
				<trkpt lat="52.29141" lon="-0.37683">
					<ele>33</ele>
					<time>0001-01-01T00:00:00Z</time>
				</trkpt>
				<trkpt lat="52.29162" lon="-0.37714">
					<ele>33</ele>
					<time>0001-01-01T00:00:00Z</time>
				</trkpt>
				<trkpt lat="52.29168" lon="-0.37727">
					<ele>33</ele>
					<time>0001-01-01T00:00:00Z</time>
				</trkpt>
				<trkpt lat="52.29229" lon="-0.37904">
					<ele>32</ele>
					<time>0001-01-01T00:00:00Z</time>
				</trkpt>
				<trkpt lat="52.29240" lon="-0.37931">
					<ele>32</ele>
					<time>0001-01-01T00:00:00Z</time>
				</trkpt>
				<trkpt lat="52.29253" lon="-0.37953">
					<ele>32</ele>
					<time>0001-01-01T00:00:00Z</time>
				</trkpt>
				<trkpt lat="52.29268" lon="-0.37971">
					<ele>32</ele>
					<time>0001-01-01T00:00:00Z</time>
				</trkpt>
				<trkpt lat="52.29280" lon="-0.37980">
					<ele>32</ele>
					<time>0001-01-01T00:00:00Z</time>
				</trkpt>
				<trkpt lat="52.29336" lon="-0.37990">
					<ele>33</ele>
					<time>0001-01-01T00:00:00Z</time>
				</trkpt>
				<trkpt lat="52.29370" lon="-0.38002">
					<ele>33</ele>
					<time>0001-01-01T00:00:00Z</time>
				</trkpt>
				<trkpt lat="52.29379" lon="-0.38014">
					<ele>33</ele>
					<time>0001-01-01T00:00:00Z</time>
				</trkpt>
				<trkpt lat="52.29409" lon="-0.38069">
					<ele>31</ele>
					<time>0001-01-01T00:00:00Z</time>
				</trkpt>
				<trkpt lat="52.29535" lon="-0.38298">
					<ele>33</ele>
					<time>0001-01-01T00:00:00Z</time>
				</trkpt>
				<trkpt lat="52.29643" lon="-0.38469">
					<ele>32</ele>
					<time>0001-01-01T00:00:00Z</time>
				</trkpt>
				<trkpt lat="52.29713" lon="-0.38652">
					<ele>35</ele>
					<time>0001-01-01T00:00:00Z</time>
				</trkpt>
				<trkpt lat="52.29708" lon="-0.38704">
					<ele>34</ele>
					<time>0001-01-01T00:00:00Z</time>
				</trkpt>
				<trkpt lat="52.29669" lon="-0.38752">
					<ele>34</ele>
					<time>0001-01-01T00:00:00Z</time>
				</trkpt>
				<trkpt lat="52.29638" lon="-0.38804">
					<ele>34</ele>
					<time>0001-01-01T00:00:00Z</time>
				</trkpt>
				<trkpt lat="52.29664" lon="-0.38849">
					<ele>34</ele>
					<time>0001-01-01T00:00:00Z</time>
				</trkpt>
				<trkpt lat="52.29753" lon="-0.38984">
					<ele>35</ele>
					<time>0001-01-01T00:00:00Z</time>
				</trkpt>
				<trkpt lat="52.29783" lon="-0.39003">
					<ele>34</ele>
					<time>0001-01-01T00:00:00Z</time>
				</trkpt>
				<trkpt lat="52.29813" lon="-0.38983">
					<ele>36</ele>
					<time>0001-01-01T00:00:00Z</time>
				</trkpt>
				<trkpt lat="52.29826" lon="-0.38984">
					<ele>36</ele>
					<time>0001-01-01T00:00:00Z</time>
				</trkpt>
				<trkpt lat="52.29876" lon="-0.39039">
					<ele>37</ele>
					<time>0001-01-01T00:00:00Z</time>
				</trkpt>
				<trkpt lat="52.29886" lon="-0.39051">
					<ele>35</ele>
					<time>0001-01-01T00:00:00Z</time>
				</trkpt>
				<trkpt lat="52.29896" lon="-0.39054">
					<ele>34</ele>
					<time>0001-01-01T00:00:00Z</time>
				</trkpt>
				<trkpt lat="52.29890" lon="-0.39054">
					<ele>35</ele>
					<time>0001-01-01T00:00:00Z</time>
				</trkpt>
				<trkpt lat="52.29897" lon="-0.39050">
					<ele>36</ele>
					<time>0001-01-01T00:00:00Z</time>
				</trkpt>
				<trkpt lat="52.29894" lon="-0.39045">
					<ele>28</ele>
					<time>0001-01-01T00:00:00Z</time>
				</trkpt>
				<trkpt lat="52.29891" lon="-0.39052">
					<ele>33</ele>
					<time>0001-01-01T00:00:00Z</time>
				</trkpt>
				<trkpt lat="52.29901" lon="-0.39089">
					<ele>32</ele>
					<time>0001-01-01T00:00:00Z</time>
				</trkpt>
				<trkpt lat="52.29951" lon="-0.39223">
					<ele>33</ele>
					<time>0001-01-01T00:00:00Z</time>
				</trkpt>
				<trkpt lat="52.29991" lon="-0.39394">
					<ele>30</ele>
					<time>0001-01-01T00:00:00Z</time>
				</trkpt>
				<trkpt lat="52.30018" lon="-0.39416">
					<ele>29</ele>
					<time>0001-01-01T00:00:00Z</time>
				</trkpt>
				<trkpt lat="52.30079" lon="-0.39382">
					<ele>30</ele>
					<time>0001-01-01T00:00:00Z</time>
				</trkpt>
				<trkpt lat="52.30200" lon="-0.39402">
					<ele>32</ele>
					<time>0001-01-01T00:00:00Z</time>
				</trkpt>
				<trkpt lat="52.30337" lon="-0.39422">
					<ele>36</ele>
					<time>0001-01-01T00:00:00Z</time>
				</trkpt>
				<trkpt lat="52.30423" lon="-0.39519">
					<ele>38</ele>
					<time>0001-01-01T00:00:00Z</time>
				</trkpt>
				<trkpt lat="52.30563" lon="-0.39657">
					<ele>41</ele>
					<time>0001-01-01T00:00:00Z</time>
				</trkpt>
				<trkpt lat="52.30657" lon="-0.39698">
					<ele>40</ele>
					<time>0001-01-01T00:00:00Z</time>
				</trkpt>
				<trkpt lat="52.30743" lon="-0.39720">
					<ele>43</ele>
					<time>0001-01-01T00:00:00Z</time>
				</trkpt>
				<trkpt lat="52.30860" lon="-0.39873">
					<ele>40</ele>
					<time>0001-01-01T00:00:00Z</time>
				</trkpt>
				<trkpt lat="52.30991" lon="-0.40046">
					<ele>40</ele>
					<time>0001-01-01T00:00:00Z</time>
				</trkpt>
				<trkpt lat="52.31102" lon="-0.40183">
					<ele>42</ele>
					<time>0001-01-01T00:00:00Z</time>
				</trkpt>
				<trkpt lat="52.31171" lon="-0.40303">
					<ele>41</ele>
					<time>0001-01-01T00:00:00Z</time>
				</trkpt>
				<trkpt lat="52.31217" lon="-0.40395">
					<ele>41</ele>
					<time>0001-01-01T00:00:00Z</time>
				</trkpt>
				<trkpt lat="52.31234" lon="-0.40427">
					<ele>41</ele>
					<time>0001-01-01T00:00:00Z</time>
				</trkpt>
				<trkpt lat="52.31235" lon="-0.40431">
					<ele>41</ele>
					<time>0001-01-01T00:00:00Z</time>
				</trkpt>
				<trkpt lat="52.31251" lon="-0.40465">
					<ele>43</ele>
					<time>0001-01-01T00:00:00Z</time>
				</trkpt>
				<trkpt lat="52.31317" lon="-0.40597">
					<ele>43</ele>
					<time>0001-01-01T00:00:00Z</time>
				</trkpt>
				<trkpt lat="52.31446" lon="-0.40696">
					<ele>46</ele>
					<time>0001-01-01T00:00:00Z</time>
				</trkpt>
				<trkpt lat="52.31615" lon="-0.40771">
					<ele>54</ele>
					<time>0001-01-01T00:00:00Z</time>
				</trkpt>
				<trkpt lat="52.31726" lon="-0.40810">
					<ele>64</ele>
					<time>0001-01-01T00:00:00Z</time>
				</trkpt>
				<trkpt lat="52.31734" lon="-0.40808">
					<ele>64</ele>
					<time>0001-01-01T00:00:00Z</time>
				</trkpt>
				<trkpt lat="52.31889" lon="-0.40759">
					<ele>69</ele>
					<time>0001-01-01T00:00:00Z</time>
				</trkpt>
				<trkpt lat="52.32045" lon="-0.40638">
					<ele>73</ele>
					<time>0001-01-01T00:00:00Z</time>
				</trkpt>
				<trkpt lat="52.32158" lon="-0.40584">
					<ele>75</ele>
					<time>0001-01-01T00:00:00Z</time>
				</trkpt>
				<trkpt lat="52.32302" lon="-0.40586">
					<ele>76</ele>
					<time>0001-01-01T00:00:00Z</time>
				</trkpt>
				<trkpt lat="52.32440" lon="-0.40540">
					<ele>75</ele>
					<time>0001-01-01T00:00:00Z</time>
				</trkpt>
				<trkpt lat="52.32594" lon="-0.40479">
					<ele>75</ele>
					<time>0001-01-01T00:00:00Z</time>
				</trkpt>
				<trkpt lat="52.32720" lon="-0.40448">
					<ele>76</ele>
					<time>0001-01-01T00:00:00Z</time>
				</trkpt>
				<trkpt lat="52.32850" lon="-0.40418">
					<ele>75</ele>
					<time>0001-01-01T00:00:00Z</time>
				</trkpt>
				<trkpt lat="52.33030" lon="-0.40387">
					<ele>75</ele>
					<time>0001-01-01T00:00:00Z</time>
				</trkpt>
				<trkpt lat="52.33155" lon="-0.40364">
					<ele>74</ele>
					<time>0001-01-01T00:00:00Z</time>
				</trkpt>
				<trkpt lat="52.33285" lon="-0.40448">
					<ele>72</ele>
					<time>0001-01-01T00:00:00Z</time>
				</trkpt>
				<trkpt lat="52.33449" lon="-0.40561">
					<ele>71</ele>
					<time>0001-01-01T00:00:00Z</time>
				</trkpt>
				<trkpt lat="52.33562" lon="-0.40616">
					<ele>71</ele>
					<time>0001-01-01T00:00:00Z</time>
				</trkpt>
				<trkpt lat="52.33708" lon="-0.40599">
					<ele>73</ele>
					<time>0001-01-01T00:00:00Z</time>
				</trkpt>
				<trkpt lat="52.33883" lon="-0.40573">
					<ele>73</ele>
					<time>0001-01-01T00:00:00Z</time>
				</trkpt>
				<trkpt lat="52.34012" lon="-0.40553">
					<ele>71</ele>
					<time>0001-01-01T00:00:00Z</time>
				</trkpt>
				<trkpt lat="52.34128" lon="-0.40502">
					<ele>70</ele>
					<time>0001-01-01T00:00:00Z</time>
				</trkpt>
				<trkpt lat="52.34229" lon="-0.40454">
					<ele>71</ele>
					<time>0001-01-01T00:00:00Z</time>
				</trkpt>
				<trkpt lat="52.34310" lon="-0.40472">
					<ele>67</ele>
					<time>0001-01-01T00:00:00Z</time>
				</trkpt>
				<trkpt lat="52.34433" lon="-0.40505">
					<ele>67</ele>
					<time>0001-01-01T00:00:00Z</time>
				</trkpt>
				<trkpt lat="52.34573" lon="-0.40506">
					<ele>65</ele>
					<time>0001-01-01T00:00:00Z</time>
				</trkpt>
				<trkpt lat="52.34589" lon="-0.40515">
					<ele>63</ele>
					<time>0001-01-01T00:00:00Z</time>
				</trkpt>
				<trkpt lat="52.34593" lon="-0.40526">
					<ele>63</ele>
					<time>0001-01-01T00:00:00Z</time>
				</trkpt>
				<trkpt lat="52.34602" lon="-0.40554">
					<ele>63</ele>
					<time>0001-01-01T00:00:00Z</time>
				</trkpt>
				<trkpt lat="52.34649" lon="-0.40731">
					<ele>61</ele>
					<time>0001-01-01T00:00:00Z</time>
				</trkpt>
				<trkpt lat="52.34671" lon="-0.40761">
					<ele>60</ele>
					<time>0001-01-01T00:00:00Z</time>
				</trkpt>
				<trkpt lat="52.34773" lon="-0.40775">
					<ele>59</ele>
					<time>0001-01-01T00:00:00Z</time>
				</trkpt>
				<trkpt lat="52.34870" lon="-0.40759">
					<ele>55</ele>
					<time>0001-01-01T00:00:00Z</time>
				</trkpt>
				<trkpt lat="52.34947" lon="-0.40767">
					<ele>55</ele>
					<time>0001-01-01T00:00:00Z</time>
				</trkpt>
				<trkpt lat="52.35017" lon="-0.40764">
					<ele>52</ele>
					<time>0001-01-01T00:00:00Z</time>
				</trkpt>
				<trkpt lat="52.35094" lon="-0.40787">
					<ele>46</ele>
					<time>0001-01-01T00:00:00Z</time>
				</trkpt>
				<trkpt lat="52.35190" lon="-0.40798">
					<ele>40</ele>
					<time>0001-01-01T00:00:00Z</time>
				</trkpt>
				<trkpt lat="52.35321" lon="-0.40783">
					<ele>36</ele>
					<time>0001-01-01T00:00:00Z</time>
				</trkpt>
				<trkpt lat="52.35441" lon="-0.40770">
					<ele>34</ele>
					<time>0001-01-01T00:00:00Z</time>
				</trkpt>
				<trkpt lat="52.35585" lon="-0.40758">
					<ele>32</ele>
					<time>0001-01-01T00:00:00Z</time>
				</trkpt>
				<trkpt lat="52.35754" lon="-0.40749">
					<ele>31</ele>
					<time>0001-01-01T00:00:00Z</time>
				</trkpt>
				<trkpt lat="52.35883" lon="-0.40696">
					<ele>38</ele>
					<time>0001-01-01T00:00:00Z</time>
				</trkpt>
				<trkpt lat="52.35983" lon="-0.40605">
					<ele>40</ele>
					<time>0001-01-01T00:00:00Z</time>
				</trkpt>
				<trkpt lat="52.36066" lon="-0.40526">
					<ele>39</ele>
					<time>0001-01-01T00:00:00Z</time>
				</trkpt>
				<trkpt lat="52.36127" lon="-0.40464">
					<ele>34</ele>
					<time>0001-01-01T00:00:00Z</time>
				</trkpt>
				<trkpt lat="52.36185" lon="-0.40399">
					<ele>31</ele>
					<time>0001-01-01T00:00:00Z</time>
				</trkpt>
				<trkpt lat="52.36290" lon="-0.40243">
					<ele>27</ele>
					<time>0001-01-01T00:00:00Z</time>
				</trkpt>
				<trkpt lat="52.36430" lon="-0.40040">
					<ele>31</ele>
					<time>0001-01-01T00:00:00Z</time>
				</trkpt>
				<trkpt lat="52.36563" lon="-0.39878">
					<ele>34</ele>
					<time>0001-01-01T00:00:00Z</time>
				</trkpt>
				<trkpt lat="52.36726" lon="-0.39718">
					<ele>37</ele>
					<time>0001-01-01T00:00:00Z</time>
				</trkpt>
				<trkpt lat="52.36907" lon="-0.39633">
					<ele>41</ele>
					<time>0001-01-01T00:00:00Z</time>
				</trkpt>
				<trkpt lat="52.37130" lon="-0.39587">
					<ele>54</ele>
					<time>0001-01-01T00:00:00Z</time>
				</trkpt>
				<trkpt lat="52.37308" lon="-0.39550">
					<ele>65</ele>
					<time>0001-01-01T00:00:00Z</time>
				</trkpt>
				<trkpt lat="52.37460" lon="-0.39528">
					<ele>69</ele>
					<time>0001-01-01T00:00:00Z</time>
				</trkpt>
				<trkpt lat="52.37602" lon="-0.39575">
					<ele>70</ele>
					<time>0001-01-01T00:00:00Z</time>
				</trkpt>
				<trkpt lat="52.37722" lon="-0.39697">
					<ele>68</ele>
					<time>0001-01-01T00:00:00Z</time>
				</trkpt>
				<trkpt lat="52.37838" lon="-0.39900">
					<ele>66</ele>
					<time>0001-01-01T00:00:00Z</time>
				</trkpt>
				<trkpt lat="52.37951" lon="-0.40070">
					<ele>66</ele>
					<time>0001-01-01T00:00:00Z</time>
				</trkpt>
				<trkpt lat="52.37982" lon="-0.40074">
					<ele>67</ele>
					<time>0001-01-01T00:00:00Z</time>
				</trkpt>
				<trkpt lat="52.38024" lon="-0.39990">
					<ele>65</ele>
					<time>0001-01-01T00:00:00Z</time>
				</trkpt>
				<trkpt lat="52.38038" lon="-0.39949">
					<ele>65</ele>
					<time>0001-01-01T00:00:00Z</time>
				</trkpt>
				<trkpt lat="52.38059" lon="-0.39812">
					<ele>65</ele>
					<time>0001-01-01T00:00:00Z</time>
				</trkpt>
				<trkpt lat="52.38068" lon="-0.39632">
					<ele>60</ele>
					<time>0001-01-01T00:00:00Z</time>
				</trkpt>
				<trkpt lat="52.38081" lon="-0.39480">
					<ele>59</ele>
					<time>0001-01-01T00:00:00Z</time>
				</trkpt>
				<trkpt lat="52.38099" lon="-0.39294">
					<ele>58</ele>
					<time>0001-01-01T00:00:00Z</time>
				</trkpt>
				<trkpt lat="52.38122" lon="-0.39075">
					<ele>54</ele>
					<time>0001-01-01T00:00:00Z</time>
				</trkpt>
				<trkpt lat="52.38143" lon="-0.38927">
					<ele>51</ele>
					<time>0001-01-01T00:00:00Z</time>
				</trkpt>
				<trkpt lat="52.38198" lon="-0.38801">
					<ele>48</ele>
					<time>0001-01-01T00:00:00Z</time>
				</trkpt>
				<trkpt lat="52.38214" lon="-0.38779">
					<ele>47</ele>
					<time>0001-01-01T00:00:00Z</time>
				</trkpt>
				<trkpt lat="52.38331" lon="-0.38669">
					<ele>51</ele>
					<time>0001-01-01T00:00:00Z</time>
				</trkpt>
				<trkpt lat="52.38448" lon="-0.38527">
					<ele>55</ele>
					<time>0001-01-01T00:00:00Z</time>
				</trkpt>
				<trkpt lat="52.38547" lon="-0.38381">
					<ele>61</ele>
					<time>0001-01-01T00:00:00Z</time>
				</trkpt>
				<trkpt lat="52.38560" lon="-0.38373">
					<ele>61</ele>
					<time>0001-01-01T00:00:00Z</time>
				</trkpt>
				<trkpt lat="52.38724" lon="-0.38283">
					<ele>63</ele>
					<time>0001-01-01T00:00:00Z</time>
				</trkpt>
				<trkpt lat="52.38872" lon="-0.38216">
					<ele>65</ele>
					<time>0001-01-01T00:00:00Z</time>
				</trkpt>
				<trkpt lat="52.39003" lon="-0.38159">
					<ele>68</ele>
					<time>0001-01-01T00:00:00Z</time>
				</trkpt>
				<trkpt lat="52.39091" lon="-0.38177">
					<ele>69</ele>
					<time>0001-01-01T00:00:00Z</time>
				</trkpt>
				<trkpt lat="52.39111" lon="-0.38206">
					<ele>69</ele>
					<time>0001-01-01T00:00:00Z</time>
				</trkpt>
				<trkpt lat="52.39144" lon="-0.38295">
					<ele>68</ele>
					<time>0001-01-01T00:00:00Z</time>
				</trkpt>
				<trkpt lat="52.39209" lon="-0.38477">
					<ele>68</ele>
					<time>0001-01-01T00:00:00Z</time>
				</trkpt>
				<trkpt lat="52.39231" lon="-0.38487">
					<ele>68</ele>
					<time>0001-01-01T00:00:00Z</time>
				</trkpt>
				<trkpt lat="52.39363" lon="-0.38394">
					<ele>69</ele>
					<time>0001-01-01T00:00:00Z</time>
				</trkpt>
				<trkpt lat="52.39528" lon="-0.38281">
					<ele>68</ele>
					<time>0001-01-01T00:00:00Z</time>
				</trkpt>
				<trkpt lat="52.39646" lon="-0.38201">
					<ele>66</ele>
					<time>0001-01-01T00:00:00Z</time>
				</trkpt>
				<trkpt lat="52.39768" lon="-0.38117">
					<ele>63</ele>
					<time>0001-01-01T00:00:00Z</time>
				</trkpt>
				<trkpt lat="52.39871" lon="-0.38046">
					<ele>59</ele>
					<time>0001-01-01T00:00:00Z</time>
				</trkpt>
				<trkpt lat="52.39947" lon="-0.37929">
					<ele>56</ele>
					<time>0001-01-01T00:00:00Z</time>
				</trkpt>
				<trkpt lat="52.40022" lon="-0.37766">
					<ele>60</ele>
					<time>0001-01-01T00:00:00Z</time>
				</trkpt>
				<trkpt lat="52.40074" lon="-0.37547">
					<ele>61</ele>
					<time>0001-01-01T00:00:00Z</time>
				</trkpt>
				<trkpt lat="52.40140" lon="-0.37363">
					<ele>60</ele>
					<time>0001-01-01T00:00:00Z</time>
				</trkpt>
				<trkpt lat="52.40177" lon="-0.37283">
					<ele>61</ele>
					<time>0001-01-01T00:00:00Z</time>
				</trkpt>
				<trkpt lat="52.40239" lon="-0.37337">
					<ele>59</ele>
					<time>0001-01-01T00:00:00Z</time>
				</trkpt>
				<trkpt lat="52.40308" lon="-0.37432">
					<ele>55</ele>
					<time>0001-01-01T00:00:00Z</time>
				</trkpt>
				<trkpt lat="52.40376" lon="-0.37525">
					<ele>51</ele>
					<time>0001-01-01T00:00:00Z</time>
				</trkpt>
				<trkpt lat="52.40443" lon="-0.37611">
					<ele>47</ele>
					<time>0001-01-01T00:00:00Z</time>
				</trkpt>
				<trkpt lat="52.40513" lon="-0.37670">
					<ele>46</ele>
					<time>0001-01-01T00:00:00Z</time>
				</trkpt>
				<trkpt lat="52.40538" lon="-0.37687">
					<ele>46</ele>
					<time>0001-01-01T00:00:00Z</time>
				</trkpt>
				<trkpt lat="52.40583" lon="-0.37719">
					<ele>45</ele>
					<time>0001-01-01T00:00:00Z</time>
				</trkpt>
				<trkpt lat="52.40669" lon="-0.37770">
					<ele>42</ele>
					<time>0001-01-01T00:00:00Z</time>
				</trkpt>
				<trkpt lat="52.40834" lon="-0.37785">
					<ele>42</ele>
					<time>0001-01-01T00:00:00Z</time>
				</trkpt>
				<trkpt lat="52.41052" lon="-0.37791">
					<ele>54</ele>
					<time>0001-01-01T00:00:00Z</time>
				</trkpt>
				<trkpt lat="52.41157" lon="-0.37808">
					<ele>58</ele>
					<time>0001-01-01T00:00:00Z</time>
				</trkpt>
				<trkpt lat="52.41280" lon="-0.37809">
					<ele>59</ele>
					<time>0001-01-01T00:00:00Z</time>
				</trkpt>
				<trkpt lat="52.41337" lon="-0.37780">
					<ele>59</ele>
					<time>0001-01-01T00:00:00Z</time>
				</trkpt>
				<trkpt lat="52.41433" lon="-0.37669">
					<ele>59</ele>
					<time>0001-01-01T00:00:00Z</time>
				</trkpt>
				<trkpt lat="52.41499" lon="-0.37582">
					<ele>58</ele>
					<time>0001-01-01T00:00:00Z</time>
				</trkpt>
				<trkpt lat="52.41575" lon="-0.37440">
					<ele>55</ele>
					<time>0001-01-01T00:00:00Z</time>
				</trkpt>
				<trkpt lat="52.41631" lon="-0.37344">
					<ele>52</ele>
					<time>0001-01-01T00:00:00Z</time>
				</trkpt>
				<trkpt lat="52.41699" lon="-0.37292">
					<ele>48</ele>
					<time>0001-01-01T00:00:00Z</time>
				</trkpt>
				<trkpt lat="52.41791" lon="-0.37249">
					<ele>46</ele>
					<time>0001-01-01T00:00:00Z</time>
				</trkpt>
				<trkpt lat="52.41903" lon="-0.37180">
					<ele>42</ele>
					<time>0001-01-01T00:00:00Z</time>
				</trkpt>
				<trkpt lat="52.42053" lon="-0.37135">
					<ele>47</ele>
					<time>0001-01-01T00:00:00Z</time>
				</trkpt>
				<trkpt lat="52.42163" lon="-0.37118">
					<ele>51</ele>
					<time>0001-01-01T00:00:00Z</time>
				</trkpt>
				<trkpt lat="52.42218" lon="-0.37052">
					<ele>51</ele>
					<time>0001-01-01T00:00:00Z</time>
				</trkpt>
				<trkpt lat="52.42259" lon="-0.36984">
					<ele>48</ele>
					<time>0001-01-01T00:00:00Z</time>
				</trkpt>
				<trkpt lat="52.42326" lon="-0.36866">
					<ele>43</ele>
					<time>0001-01-01T00:00:00Z</time>
				</trkpt>
				<trkpt lat="52.42403" lon="-0.36699">
					<ele>38</ele>
					<time>0001-01-01T00:00:00Z</time>
				</trkpt>
				<trkpt lat="52.42468" lon="-0.36567">
					<ele>35</ele>
					<time>0001-01-01T00:00:00Z</time>
				</trkpt>
				<trkpt lat="52.42527" lon="-0.36424">
					<ele>34</ele>
					<time>0001-01-01T00:00:00Z</time>
				</trkpt>
				<trkpt lat="52.42541" lon="-0.36400">
					<ele>34</ele>
					<time>0001-01-01T00:00:00Z</time>
				</trkpt>
				<trkpt lat="52.42551" lon="-0.36393">
					<ele>33</ele>
					<time>0001-01-01T00:00:00Z</time>
				</trkpt>
				<trkpt lat="52.42588" lon="-0.36353">
					<ele>34</ele>
					<time>0001-01-01T00:00:00Z</time>
				</trkpt>
				<trkpt lat="52.42629" lon="-0.36229">
					<ele>33</ele>
					<time>0001-01-01T00:00:00Z</time>
				</trkpt>
				<trkpt lat="52.42718" lon="-0.36073">
					<ele>32</ele>
					<time>0001-01-01T00:00:00Z</time>
				</trkpt>
				<trkpt lat="52.42807" lon="-0.35912">
					<ele>33</ele>
					<time>0001-01-01T00:00:00Z</time>
				</trkpt>
				<trkpt lat="52.42899" lon="-0.35733">
					<ele>37</ele>
					<time>0001-01-01T00:00:00Z</time>
				</trkpt>
				<trkpt lat="52.42938" lon="-0.35726">
					<ele>38</ele>
					<time>0001-01-01T00:00:00Z</time>
				</trkpt>
				<trkpt lat="52.42964" lon="-0.35764">
					<ele>40</ele>
					<time>0001-01-01T00:00:00Z</time>
				</trkpt>
				<trkpt lat="52.42978" lon="-0.35782">
					<ele>41</ele>
					<time>0001-01-01T00:00:00Z</time>
				</trkpt>
				<trkpt lat="52.42978" lon="-0.35782">
					<ele>43</ele>
					<time>0001-01-01T00:00:00Z</time>
				</trkpt>
				<trkpt lat="52.43003" lon="-0.35821">
					<ele>44</ele>
					<time>0001-01-01T00:00:00Z</time>
				</trkpt>
				<trkpt lat="52.43070" lon="-0.35927">
					<ele>42</ele>
					<time>0001-01-01T00:00:00Z</time>
				</trkpt>
				<trkpt lat="52.43142" lon="-0.36008">
					<ele>43</ele>
					<time>0001-01-01T00:00:00Z</time>
				</trkpt>
				<trkpt lat="52.43190" lon="-0.36007">
					<ele>45</ele>
					<time>0001-01-01T00:00:00Z</time>
				</trkpt>
				<trkpt lat="52.43209" lon="-0.35981">
					<ele>45</ele>
					<time>0001-01-01T00:00:00Z</time>
				</trkpt>
				<trkpt lat="52.43310" lon="-0.35872">
					<ele>48</ele>
					<time>0001-01-01T00:00:00Z</time>
				</trkpt>
				<trkpt lat="52.43526" lon="-0.35753">
					<ele>54</ele>
					<time>0001-01-01T00:00:00Z</time>
				</trkpt>
				<trkpt lat="52.43709" lon="-0.35608">
					<ele>60</ele>
					<time>0001-01-01T00:00:00Z</time>
				</trkpt>
				<trkpt lat="52.43833" lon="-0.35430">
					<ele>60</ele>
					<time>0001-01-01T00:00:00Z</time>
				</trkpt>
				<trkpt lat="52.43917" lon="-0.35296">
					<ele>60</ele>
					<time>0001-01-01T00:00:00Z</time>
				</trkpt>
				<trkpt lat="52.44066" lon="-0.35074">
					<ele>59</ele>
					<time>0001-01-01T00:00:00Z</time>
				</trkpt>
				<trkpt lat="52.44193" lon="-0.34966">
					<ele>57</ele>
					<time>0001-01-01T00:00:00Z</time>
				</trkpt>
				<trkpt lat="52.44351" lon="-0.34849">
					<ele>60</ele>
					<time>0001-01-01T00:00:00Z</time>
				</trkpt>
				<trkpt lat="52.44479" lon="-0.34699">
					<ele>61</ele>
					<time>0001-01-01T00:00:00Z</time>
				</trkpt>
				<trkpt lat="52.44572" lon="-0.34567">
					<ele>59</ele>
					<time>0001-01-01T00:00:00Z</time>
				</trkpt>
				<trkpt lat="52.44639" lon="-0.34452">
					<ele>55</ele>
					<time>0001-01-01T00:00:00Z</time>
				</trkpt>
				<trkpt lat="52.44721" lon="-0.34285">
					<ele>51</ele>
					<time>0001-01-01T00:00:00Z</time>
				</trkpt>
				<trkpt lat="52.44771" lon="-0.34112">
					<ele>48</ele>
					<time>0001-01-01T00:00:00Z</time>
				</trkpt>
				<trkpt lat="52.44808" lon="-0.33957">
					<ele>46</ele>
					<time>0001-01-01T00:00:00Z</time>
				</trkpt>
				<trkpt lat="52.44947" lon="-0.33677">
					<ele>48</ele>
					<time>0001-01-01T00:00:00Z</time>
				</trkpt>
				<trkpt lat="52.45069" lon="-0.33470">
					<ele>55</ele>
					<time>0001-01-01T00:00:00Z</time>
				</trkpt>
				<trkpt lat="52.45180" lon="-0.33334">
					<ele>61</ele>
					<time>0001-01-01T00:00:00Z</time>
				</trkpt>
				<trkpt lat="52.45219" lon="-0.33288">
					<ele>61</ele>
					<time>0001-01-01T00:00:00Z</time>
				</trkpt>
				<trkpt lat="52.45222" lon="-0.33290">
					<ele>61</ele>
					<time>0001-01-01T00:00:00Z</time>
				</trkpt>
				<trkpt lat="52.45235" lon="-0.33305">
					<ele>61</ele>
					<time>0001-01-01T00:00:00Z</time>
				</trkpt>
				<trkpt lat="52.45271" lon="-0.33337">
					<ele>61</ele>
					<time>0001-01-01T00:00:00Z</time>
				</trkpt>
				<trkpt lat="52.45298" lon="-0.33367">
					<ele>61</ele>
					<time>0001-01-01T00:00:00Z</time>
				</trkpt>
				<trkpt lat="52.45307" lon="-0.33383">
					<ele>61</ele>
					<time>0001-01-01T00:00:00Z</time>
				</trkpt>
				<trkpt lat="52.45408" lon="-0.33524">
					<ele>61</ele>
					<time>0001-01-01T00:00:00Z</time>
				</trkpt>
				<trkpt lat="52.45500" lon="-0.33669">
					<ele>61</ele>
					<time>0001-01-01T00:00:00Z</time>
				</trkpt>
				<trkpt lat="52.45568" lon="-0.33827">
					<ele>62</ele>
					<time>0001-01-01T00:00:00Z</time>
				</trkpt>
				<trkpt lat="52.45611" lon="-0.33972">
					<ele>61</ele>
					<time>0001-01-01T00:00:00Z</time>
				</trkpt>
				<trkpt lat="52.45701" lon="-0.34074">
					<ele>62</ele>
					<time>0001-01-01T00:00:00Z</time>
				</trkpt>
				<trkpt lat="52.45721" lon="-0.34083">
					<ele>62</ele>
					<time>0001-01-01T00:00:00Z</time>
				</trkpt>
				<trkpt lat="52.45805" lon="-0.34044">
					<ele>63</ele>
					<time>0001-01-01T00:00:00Z</time>
				</trkpt>
				<trkpt lat="52.45942" lon="-0.33988">
					<ele>64</ele>
					<time>0001-01-01T00:00:00Z</time>
				</trkpt>
				<trkpt lat="52.46070" lon="-0.33901">
					<ele>63</ele>
					<time>0001-01-01T00:00:00Z</time>
				</trkpt>
				<trkpt lat="52.46155" lon="-0.33838">
					<ele>63</ele>
					<time>0001-01-01T00:00:00Z</time>
				</trkpt>
				<trkpt lat="52.46181" lon="-0.33840">
					<ele>63</ele>
					<time>0001-01-01T00:00:00Z</time>
				</trkpt>
				<trkpt lat="52.46293" lon="-0.33854">
					<ele>62</ele>
					<time>0001-01-01T00:00:00Z</time>
				</trkpt>
				<trkpt lat="52.46391" lon="-0.33868">
					<ele>62</ele>
					<time>0001-01-01T00:00:00Z</time>
				</trkpt>
				<trkpt lat="52.46474" lon="-0.33878">
					<ele>63</ele>
					<time>0001-01-01T00:00:00Z</time>
				</trkpt>
				<trkpt lat="52.46576" lon="-0.33897">
					<ele>63</ele>
					<time>0001-01-01T00:00:00Z</time>
				</trkpt>
				<trkpt lat="52.46671" lon="-0.34003">
					<ele>63</ele>
					<time>0001-01-01T00:00:00Z</time>
				</trkpt>
				<trkpt lat="52.46688" lon="-0.34062">
					<ele>63</ele>
					<time>0001-01-01T00:00:00Z</time>
				</trkpt>
				<trkpt lat="52.46687" lon="-0.34084">
					<ele>63</ele>
					<time>0001-01-01T00:00:00Z</time>
				</trkpt>
				<trkpt lat="52.46705" lon="-0.34162">
					<ele>63</ele>
					<time>0001-01-01T00:00:00Z</time>
				</trkpt>
				<trkpt lat="52.46716" lon="-0.34175">
					<ele>63</ele>
					<time>0001-01-01T00:00:00Z</time>
				</trkpt>
				<trkpt lat="52.46835" lon="-0.34292">
					<ele>62</ele>
					<time>0001-01-01T00:00:00Z</time>
				</trkpt>
				<trkpt lat="52.46876" lon="-0.34283">
					<ele>62</ele>
					<time>0001-01-01T00:00:00Z</time>
				</trkpt>
				<trkpt lat="52.46924" lon="-0.34206">
					<ele>62</ele>
					<time>0001-01-01T00:00:00Z</time>
				</trkpt>
				<trkpt lat="52.46982" lon="-0.34136">
					<ele>62</ele>
					<time>0001-01-01T00:00:00Z</time>
				</trkpt>
				<trkpt lat="52.47100" lon="-0.34142">
					<ele>62</ele>
					<time>0001-01-01T00:00:00Z</time>
				</trkpt>
				<trkpt lat="52.47209" lon="-0.34170">
					<ele>62</ele>
					<time>0001-01-01T00:00:00Z</time>
				</trkpt>
				<trkpt lat="52.47316" lon="-0.34197">
					<ele>61</ele>
					<time>0001-01-01T00:00:00Z</time>
				</trkpt>
				<trkpt lat="52.47422" lon="-0.34216">
					<ele>60</ele>
					<time>0001-01-01T00:00:00Z</time>
				</trkpt>
				<trkpt lat="52.47512" lon="-0.34242">
					<ele>61</ele>
					<time>0001-01-01T00:00:00Z</time>
				</trkpt>
				<trkpt lat="52.47628" lon="-0.34281">
					<ele>60</ele>
					<time>0001-01-01T00:00:00Z</time>
				</trkpt>
				<trkpt lat="52.47686" lon="-0.34277">
					<ele>59</ele>
					<time>0001-01-01T00:00:00Z</time>
				</trkpt>
				<trkpt lat="52.47784" lon="-0.34307">
					<ele>58</ele>
					<time>0001-01-01T00:00:00Z</time>
				</trkpt>
				<trkpt lat="52.47868" lon="-0.34346">
					<ele>57</ele>
					<time>0001-01-01T00:00:00Z</time>
				</trkpt>
				<trkpt lat="52.47980" lon="-0.34414">
					<ele>57</ele>
					<time>0001-01-01T00:00:00Z</time>
				</trkpt>
				<trkpt lat="52.48085" lon="-0.34479">
					<ele>57</ele>
					<time>0001-01-01T00:00:00Z</time>
				</trkpt>
				<trkpt lat="52.48183" lon="-0.34536">
					<ele>55</ele>
					<time>0001-01-01T00:00:00Z</time>
				</trkpt>
				<trkpt lat="52.48238" lon="-0.34567">
					<ele>55</ele>
					<time>0001-01-01T00:00:00Z</time>
				</trkpt>
				<trkpt lat="52.48340" lon="-0.34608">
					<ele>56</ele>
					<time>0001-01-01T00:00:00Z</time>
				</trkpt>
				<trkpt lat="52.48460" lon="-0.34671">
					<ele>56</ele>
					<time>0001-01-01T00:00:00Z</time>
				</trkpt>
				<trkpt lat="52.48572" lon="-0.34741">
					<ele>54</ele>
					<time>0001-01-01T00:00:00Z</time>
				</trkpt>
				<trkpt lat="52.48677" lon="-0.34801">
					<ele>54</ele>
					<time>0001-01-01T00:00:00Z</time>
				</trkpt>
				<trkpt lat="52.48760" lon="-0.34813">
					<ele>54</ele>
					<time>0001-01-01T00:00:00Z</time>
				</trkpt>
				<trkpt lat="52.48860" lon="-0.34795">
					<ele>56</ele>
					<time>0001-01-01T00:00:00Z</time>
				</trkpt>
				<trkpt lat="52.48936" lon="-0.34713">
					<ele>57</ele>
					<time>0001-01-01T00:00:00Z</time>
				</trkpt>
				<trkpt lat="52.48941" lon="-0.34707">
					<ele>57</ele>
					<time>0001-01-01T00:00:00Z</time>
				</trkpt>
				<trkpt lat="52.49050" lon="-0.34663">
					<ele>58</ele>
					<time>0001-01-01T00:00:00Z</time>
				</trkpt>
				<trkpt lat="52.49171" lon="-0.34668">
					<ele>58</ele>
					<time>0001-01-01T00:00:00Z</time>
				</trkpt>
				<trkpt lat="52.49285" lon="-0.34667">
					<ele>58</ele>
					<time>0001-01-01T00:00:00Z</time>
				</trkpt>
				<trkpt lat="52.49343" lon="-0.34663">
					<ele>57</ele>
					<time>0001-01-01T00:00:00Z</time>
				</trkpt>
				<trkpt lat="52.49439" lon="-0.34659">
					<ele>57</ele>
					<time>0001-01-01T00:00:00Z</time>
				</trkpt>
				<trkpt lat="52.49513" lon="-0.34657">
					<ele>57</ele>
					<time>0001-01-01T00:00:00Z</time>
				</trkpt>
				<trkpt lat="52.49617" lon="-0.34658">
					<ele>56</ele>
					<time>0001-01-01T00:00:00Z</time>
				</trkpt>
				<trkpt lat="52.49719" lon="-0.34666">
					<ele>51</ele>
					<time>0001-01-01T00:00:00Z</time>
				</trkpt>
				<trkpt lat="52.49791" lon="-0.34697">
					<ele>45</ele>
					<time>0001-01-01T00:00:00Z</time>
				</trkpt>
				<trkpt lat="52.49858" lon="-0.34733">
					<ele>41</ele>
					<time>0001-01-01T00:00:00Z</time>
				</trkpt>
				<trkpt lat="52.49919" lon="-0.34781">
					<ele>39</ele>
					<time>0001-01-01T00:00:00Z</time>
				</trkpt>
				<trkpt lat="52.49978" lon="-0.34838">
					<ele>38</ele>
					<time>0001-01-01T00:00:00Z</time>
				</trkpt>
				<trkpt lat="52.50054" lon="-0.34916">
					<ele>34</ele>
					<time>0001-01-01T00:00:00Z</time>
				</trkpt>
				<trkpt lat="52.50156" lon="-0.35018">
					<ele>30</ele>
					<time>0001-01-01T00:00:00Z</time>
				</trkpt>
				<trkpt lat="52.50251" lon="-0.35118">
					<ele>27</ele>
					<time>0001-01-01T00:00:00Z</time>
				</trkpt>
				<trkpt lat="52.50370" lon="-0.35254">
					<ele>25</ele>
					<time>0001-01-01T00:00:00Z</time>
				</trkpt>
				<trkpt lat="52.50457" lon="-0.35376">
					<ele>27</ele>
					<time>0001-01-01T00:00:00Z</time>
				</trkpt>
				<trkpt lat="52.50585" lon="-0.35421">
					<ele>27</ele>
					<time>0001-01-01T00:00:00Z</time>
				</trkpt>
				<trkpt lat="52.50723" lon="-0.35449">
					<ele>24</ele>
					<time>0001-01-01T00:00:00Z</time>
				</trkpt>
				<trkpt lat="52.50900" lon="-0.35484">
					<ele>30</ele>
					<time>0001-01-01T00:00:00Z</time>
				</trkpt>
				<trkpt lat="52.51035" lon="-0.35512">
					<ele>30</ele>
					<time>0001-01-01T00:00:00Z</time>
				</trkpt>
				<trkpt lat="52.51182" lon="-0.35547">
					<ele>28</ele>
					<time>0001-01-01T00:00:00Z</time>
				</trkpt>
				<trkpt lat="52.51319" lon="-0.35579">
					<ele>26</ele>
					<time>0001-01-01T00:00:00Z</time>
				</trkpt>
				<trkpt lat="52.51480" lon="-0.35612">
					<ele>25</ele>
					<time>0001-01-01T00:00:00Z</time>
				</trkpt>
				<trkpt lat="52.51630" lon="-0.35640">
					<ele>23</ele>
					<time>0001-01-01T00:00:00Z</time>
				</trkpt>
				<trkpt lat="52.51779" lon="-0.35671">
					<ele>25</ele>
					<time>0001-01-01T00:00:00Z</time>
				</trkpt>
				<trkpt lat="52.51951" lon="-0.35709">
					<ele>22</ele>
					<time>0001-01-01T00:00:00Z</time>
				</trkpt>
				<trkpt lat="52.52101" lon="-0.35740">
					<ele>22</ele>
					<time>0001-01-01T00:00:00Z</time>
				</trkpt>
				<trkpt lat="52.52256" lon="-0.35774">
					<ele>24</ele>
					<time>0001-01-01T00:00:00Z</time>
				</trkpt>
				<trkpt lat="52.52397" lon="-0.35825">
					<ele>25</ele>
					<time>0001-01-01T00:00:00Z</time>
				</trkpt>
				<trkpt lat="52.52492" lon="-0.35895">
					<ele>28</ele>
					<time>0001-01-01T00:00:00Z</time>
				</trkpt>
				<trkpt lat="52.52606" lon="-0.35990">
					<ele>24</ele>
					<time>0001-01-01T00:00:00Z</time>
				</trkpt>
				<trkpt lat="52.52785" lon="-0.36139">
					<ele>25</ele>
					<time>0001-01-01T00:00:00Z</time>
				</trkpt>
				<trkpt lat="52.52899" lon="-0.36239">
					<ele>25</ele>
					<time>0001-01-01T00:00:00Z</time>
				</trkpt>
				<trkpt lat="52.53029" lon="-0.36347">
					<ele>25</ele>
					<time>0001-01-01T00:00:00Z</time>
				</trkpt>
				<trkpt lat="52.53185" lon="-0.36473">
					<ele>29</ele>
					<time>0001-01-01T00:00:00Z</time>
				</trkpt>
				<trkpt lat="52.53332" lon="-0.36599">
					<ele>26</ele>
					<time>0001-01-01T00:00:00Z</time>
				</trkpt>
				<trkpt lat="52.53445" lon="-0.36704">
					<ele>28</ele>
					<time>0001-01-01T00:00:00Z</time>
				</trkpt>
				<trkpt lat="52.53460" lon="-0.36736">
					<ele>28</ele>
					<time>0001-01-01T00:00:00Z</time>
				</trkpt>
				<trkpt lat="52.53448" lon="-0.36821">
					<ele>29</ele>
					<time>0001-01-01T00:00:00Z</time>
				</trkpt>
				<trkpt lat="52.53435" lon="-0.37119">
					<ele>32</ele>
					<time>0001-01-01T00:00:00Z</time>
				</trkpt>
				<trkpt lat="52.53431" lon="-0.37409">
					<ele>37</ele>
					<time>0001-01-01T00:00:00Z</time>
				</trkpt>
				<trkpt lat="52.53362" lon="-0.37785">
					<ele>43</ele>
					<time>0001-01-01T00:00:00Z</time>
				</trkpt>
				<trkpt lat="52.53314" lon="-0.38030">
					<ele>50</ele>
					<time>0001-01-01T00:00:00Z</time>
				</trkpt>
				<trkpt lat="52.53314" lon="-0.38213">
					<ele>53</ele>
					<time>0001-01-01T00:00:00Z</time>
				</trkpt>
				<trkpt lat="52.53317" lon="-0.38380">
					<ele>48</ele>
					<time>0001-01-01T00:00:00Z</time>
				</trkpt>
				<trkpt lat="52.53305" lon="-0.38496">
					<ele>44</ele>
					<time>0001-01-01T00:00:00Z</time>
				</trkpt>
				<trkpt lat="52.53287" lon="-0.38613">
					<ele>39</ele>
					<time>0001-01-01T00:00:00Z</time>
				</trkpt>
				<trkpt lat="52.53284" lon="-0.38731">
					<ele>34</ele>
					<time>0001-01-01T00:00:00Z</time>
				</trkpt>
				<trkpt lat="52.53292" lon="-0.38961">
					<ele>30</ele>
					<time>0001-01-01T00:00:00Z</time>
				</trkpt>
				<trkpt lat="52.53263" lon="-0.39104">
					<ele>29</ele>
					<time>0001-01-01T00:00:00Z</time>
				</trkpt>
				<trkpt lat="52.53201" lon="-0.39296">
					<ele>29</ele>
					<time>0001-01-01T00:00:00Z</time>
				</trkpt>
				<trkpt lat="52.53144" lon="-0.39461">
					<ele>29</ele>
					<time>0001-01-01T00:00:00Z</time>
				</trkpt>
				<trkpt lat="52.53145" lon="-0.39489">
					<ele>29</ele>
					<time>0001-01-01T00:00:00Z</time>
				</trkpt>
				<trkpt lat="52.53181" lon="-0.39513">
					<ele>29</ele>
					<time>0001-01-01T00:00:00Z</time>
				</trkpt>
				<trkpt lat="52.53234" lon="-0.39511">
					<ele>28</ele>
					<time>0001-01-01T00:00:00Z</time>
				</trkpt>
				<trkpt lat="52.53318" lon="-0.39508">
					<ele>26</ele>
					<time>0001-01-01T00:00:00Z</time>
				</trkpt>
				<trkpt lat="52.53396" lon="-0.39495">
					<ele>22</ele>
					<time>0001-01-01T00:00:00Z</time>
				</trkpt>
				<trkpt lat="52.53555" lon="-0.39438">
					<ele>26</ele>
					<time>0001-01-01T00:00:00Z</time>
				</trkpt>
				<trkpt lat="52.53679" lon="-0.39388">
					<ele>33</ele>
					<time>0001-01-01T00:00:00Z</time>
				</trkpt>
				<trkpt lat="52.53857" lon="-0.39410">
					<ele>36</ele>
					<time>0001-01-01T00:00:00Z</time>
				</trkpt>
				<trkpt lat="52.54087" lon="-0.39384">
					<ele>33</ele>
					<time>0001-01-01T00:00:00Z</time>
				</trkpt>
				<trkpt lat="52.54164" lon="-0.39376">
					<ele>28</ele>
					<time>0001-01-01T00:00:00Z</time>
				</trkpt>
				<trkpt lat="52.54280" lon="-0.39315">
					<ele>25</ele>
					<time>0001-01-01T00:00:00Z</time>
				</trkpt>
				<trkpt lat="52.54391" lon="-0.39275">
					<ele>28</ele>
					<time>0001-01-01T00:00:00Z</time>
				</trkpt>
				<trkpt lat="52.54542" lon="-0.39347">
					<ele>35</ele>
					<time>0001-01-01T00:00:00Z</time>
				</trkpt>
				<trkpt lat="52.54689" lon="-0.39427">
					<ele>37</ele>
					<time>0001-01-01T00:00:00Z</time>
				</trkpt>
				<trkpt lat="52.54704" lon="-0.39434">
					<ele>37</ele>
					<time>0001-01-01T00:00:00Z</time>
				</trkpt>
				<trkpt lat="52.54757" lon="-0.39385">
					<ele>39</ele>
					<time>0001-01-01T00:00:00Z</time>
				</trkpt>
				<trkpt lat="52.54785" lon="-0.39295">
					<ele>41</ele>
					<time>0001-01-01T00:00:00Z</time>
				</trkpt>
				<trkpt lat="52.54795" lon="-0.39284">
					<ele>42</ele>
					<time>0001-01-01T00:00:00Z</time>
				</trkpt>
				<trkpt lat="52.54810" lon="-0.39271">
					<ele>42</ele>
					<time>0001-01-01T00:00:00Z</time>
				</trkpt>
				<trkpt lat="52.54933" lon="-0.39203">
					<ele>40</ele>
					<time>0001-01-01T00:00:00Z</time>
				</trkpt>
				<trkpt lat="52.54970" lon="-0.39200">
					<ele>39</ele>
					<time>0001-01-01T00:00:00Z</time>
				</trkpt>
				<trkpt lat="52.55021" lon="-0.39252">
					<ele>39</ele>
					<time>0001-01-01T00:00:00Z</time>
				</trkpt>
				<trkpt lat="52.55135" lon="-0.39364">
					<ele>42</ele>
					<time>0001-01-01T00:00:00Z</time>
				</trkpt>
				<trkpt lat="52.55248" lon="-0.39462">
					<ele>43</ele>
					<time>0001-01-01T00:00:00Z</time>
				</trkpt>
				<trkpt lat="52.55369" lon="-0.39575">
					<ele>45</ele>
					<time>0001-01-01T00:00:00Z</time>
				</trkpt>
				<trkpt lat="52.55539" lon="-0.39672">
					<ele>42</ele>
					<time>0001-01-01T00:00:00Z</time>
				</trkpt>
				<trkpt lat="52.55680" lon="-0.39730">
					<ele>40</ele>
					<time>0001-01-01T00:00:00Z</time>
				</trkpt>
				<trkpt lat="52.55793" lon="-0.39782">
					<ele>38</ele>
					<time>0001-01-01T00:00:00Z</time>
				</trkpt>
				<trkpt lat="52.55894" lon="-0.39858">
					<ele>34</ele>
					<time>0001-01-01T00:00:00Z</time>
				</trkpt>
				<trkpt lat="52.56025" lon="-0.39955">
					<ele>35</ele>
					<time>0001-01-01T00:00:00Z</time>
				</trkpt>
				<trkpt lat="52.56153" lon="-0.40019">
					<ele>37</ele>
					<time>0001-01-01T00:00:00Z</time>
				</trkpt>
				<trkpt lat="52.56271" lon="-0.40082">
					<ele>38</ele>
					<time>0001-01-01T00:00:00Z</time>
				</trkpt>
				<trkpt lat="52.56399" lon="-0.40154">
					<ele>37</ele>
					<time>0001-01-01T00:00:00Z</time>
				</trkpt>
				<trkpt lat="52.56524" lon="-0.40245">
					<ele>37</ele>
					<time>0001-01-01T00:00:00Z</time>
				</trkpt>
				<trkpt lat="52.56626" lon="-0.40323">
					<ele>38</ele>
					<time>0001-01-01T00:00:00Z</time>
				</trkpt>
				<trkpt lat="52.56745" lon="-0.40443">
					<ele>38</ele>
					<time>0001-01-01T00:00:00Z</time>
				</trkpt>
				<trkpt lat="52.56841" lon="-0.40543">
					<ele>37</ele>
					<time>0001-01-01T00:00:00Z</time>
				</trkpt>
				<trkpt lat="52.56934" lon="-0.40660">
					<ele>34</ele>
					<time>0001-01-01T00:00:00Z</time>
				</trkpt>
				<trkpt lat="52.56980" lon="-0.40720">
					<ele>30</ele>
					<time>0001-01-01T00:00:00Z</time>
				</trkpt>
				<trkpt lat="52.57055" lon="-0.40801">
					<ele>25</ele>
					<time>0001-01-01T00:00:00Z</time>
				</trkpt>
				<trkpt lat="52.57150" lon="-0.40907">
					<ele>25</ele>
					<time>0001-01-01T00:00:00Z</time>
				</trkpt>
				<trkpt lat="52.57255" lon="-0.40971">
					<ele>27</ele>
					<time>0001-01-01T00:00:00Z</time>
				</trkpt>
				<trkpt lat="52.57357" lon="-0.41025">
					<ele>28</ele>
					<time>0001-01-01T00:00:00Z</time>
				</trkpt>
				<trkpt lat="52.57447" lon="-0.41077">
					<ele>24</ele>
					<time>0001-01-01T00:00:00Z</time>
				</trkpt>
				<trkpt lat="52.57518" lon="-0.41140">
					<ele>18</ele>
					<time>0001-01-01T00:00:00Z</time>
				</trkpt>
				<trkpt lat="52.57722" lon="-0.41309">
					<ele>12</ele>
					<time>0001-01-01T00:00:00Z</time>
				</trkpt>
				<trkpt lat="52.57843" lon="-0.41412">
					<ele>12</ele>
					<time>0001-01-01T00:00:00Z</time>
				</trkpt>
				<trkpt lat="52.57928" lon="-0.41501">
					<ele>15</ele>
					<time>0001-01-01T00:00:00Z</time>
				</trkpt>
				<trkpt lat="52.57936" lon="-0.41516">
					<ele>16</ele>
					<time>0001-01-01T00:00:00Z</time>
				</trkpt>
				<trkpt lat="52.57979" lon="-0.41588">
					<ele>16</ele>
					<time>0001-01-01T00:00:00Z</time>
				</trkpt>
				<trkpt lat="52.58034" lon="-0.41667">
					<ele>16</ele>
					<time>0001-01-01T00:00:00Z</time>
				</trkpt>
				<trkpt lat="52.58072" lon="-0.41685">
					<ele>21</ele>
					<time>0001-01-01T00:00:00Z</time>
				</trkpt>
				<trkpt lat="52.58092" lon="-0.41676">
					<ele>24</ele>
					<time>0001-01-01T00:00:00Z</time>
				</trkpt>
				<trkpt lat="52.58101" lon="-0.41683">
					<ele>26</ele>
					<time>0001-01-01T00:00:00Z</time>
				</trkpt>
				<trkpt lat="52.58305" lon="-0.41715">
					<ele>31</ele>
					<time>0001-01-01T00:00:00Z</time>
				</trkpt>
				<trkpt lat="52.58460" lon="-0.41682">
					<ele>36</ele>
					<time>0001-01-01T00:00:00Z</time>
				</trkpt>
				<trkpt lat="52.58479" lon="-0.41681">
					<ele>36</ele>
					<time>0001-01-01T00:00:00Z</time>
				</trkpt>
				<trkpt lat="52.58500" lon="-0.41616">
					<ele>36</ele>
					<time>0001-01-01T00:00:00Z</time>
				</trkpt>
				<trkpt lat="52.58493" lon="-0.41555">
					<ele>36</ele>
					<time>0001-01-01T00:00:00Z</time>
				</trkpt>
				<trkpt lat="52.58481" lon="-0.41341">
					<ele>36</ele>
					<time>0001-01-01T00:00:00Z</time>
				</trkpt>
				<trkpt lat="52.58477" lon="-0.41236">
					<ele>34</ele>
					<time>0001-01-01T00:00:00Z</time>
				</trkpt>
				<trkpt lat="52.58485" lon="-0.41207">
					<ele>34</ele>
					<time>0001-01-01T00:00:00Z</time>
				</trkpt>
				<trkpt lat="52.58479" lon="-0.41144">
					<ele>33</ele>
					<time>0001-01-01T00:00:00Z</time>
				</trkpt>
				<trkpt lat="52.58457" lon="-0.40936">
					<ele>28</ele>
					<time>0001-01-01T00:00:00Z</time>
				</trkpt>
				<trkpt lat="52.58429" lon="-0.40670">
					<ele>23</ele>
					<time>0001-01-01T00:00:00Z</time>
				</trkpt>
				<trkpt lat="52.58422" lon="-0.40448">
					<ele>19</ele>
					<time>0001-01-01T00:00:00Z</time>
				</trkpt>
				<trkpt lat="52.58420" lon="-0.40309">
					<ele>18</ele>
					<time>0001-01-01T00:00:00Z</time>
				</trkpt>
				<trkpt lat="52.58418" lon="-0.40096">
					<ele>19</ele>
					<time>0001-01-01T00:00:00Z</time>
				</trkpt>
				<trkpt lat="52.58395" lon="-0.39858">
					<ele>17</ele>
					<time>0001-01-01T00:00:00Z</time>
				</trkpt>
				<trkpt lat="52.58368" lon="-0.39658">
					<ele>16</ele>
					<time>0001-01-01T00:00:00Z</time>
				</trkpt>
				<trkpt lat="52.58322" lon="-0.39416">
					<ele>19</ele>
					<time>0001-01-01T00:00:00Z</time>
				</trkpt>
				<trkpt lat="52.58302" lon="-0.39271">
					<ele>21</ele>
					<time>0001-01-01T00:00:00Z</time>
				</trkpt>
				<trkpt lat="52.58309" lon="-0.39258">
					<ele>22</ele>
					<time>0001-01-01T00:00:00Z</time>
				</trkpt>
				<trkpt lat="52.58313" lon="-0.39258">
					<ele>23</ele>
					<time>0001-01-01T00:00:00Z</time>
				</trkpt>
				<trkpt lat="52.58314" lon="-0.39259">
					<ele>23</ele>
					<time>0001-01-01T00:00:00Z</time>
				</trkpt>
				<trkpt lat="52.58394" lon="-0.39311">
					<ele>20</ele>
					<time>0001-01-01T00:00:00Z</time>
				</trkpt>
				<trkpt lat="52.58437" lon="-0.39298">
					<ele>20</ele>
					<time>0001-01-01T00:00:00Z</time>
				</trkpt>
				<trkpt lat="52.58482" lon="-0.39244">
					<ele>22</ele>
					<time>0001-01-01T00:00:00Z</time>
				</trkpt>
				<trkpt lat="52.58630" lon="-0.39073">
					<ele>25</ele>
					<time>0001-01-01T00:00:00Z</time>
				</trkpt>
				<trkpt lat="52.58671" lon="-0.39024">
					<ele>26</ele>
					<time>0001-01-01T00:00:00Z</time>
				</trkpt>
				<trkpt lat="52.58700" lon="-0.39001">
					<ele>27</ele>
					<time>0001-01-01T00:00:00Z</time>
				</trkpt>
				<trkpt lat="52.58752" lon="-0.38997">
					<ele>28</ele>
					<time>0001-01-01T00:00:00Z</time>
				</trkpt>
				<trkpt lat="52.58791" lon="-0.38848">
					<ele>34</ele>
					<time>0001-01-01T00:00:00Z</time>
				</trkpt>
				<trkpt lat="52.58805" lon="-0.38806">
					<ele>36</ele>
					<time>0001-01-01T00:00:00Z</time>
				</trkpt>
				<trkpt lat="52.58815" lon="-0.38791">
					<ele>37</ele>
					<time>0001-01-01T00:00:00Z</time>
				</trkpt>
				<trkpt lat="52.58928" lon="-0.38601">
					<ele>39</ele>
					<time>0001-01-01T00:00:00Z</time>
				</trkpt>
				<trkpt lat="52.59048" lon="-0.38409">
					<ele>43</ele>
					<time>0001-01-01T00:00:00Z</time>
				</trkpt>
				<trkpt lat="52.59111" lon="-0.38201">
					<ele>46</ele>
					<time>0001-01-01T00:00:00Z</time>
				</trkpt>
				<trkpt lat="52.59224" lon="-0.37833">
					<ele>47</ele>
					<time>0001-01-01T00:00:00Z</time>
				</trkpt>
				<trkpt lat="52.59343" lon="-0.37661">
					<ele>47</ele>
					<time>0001-01-01T00:00:00Z</time>
				</trkpt>
				<trkpt lat="52.59439" lon="-0.37482">
					<ele>46</ele>
					<time>0001-01-01T00:00:00Z</time>
				</trkpt>
				<trkpt lat="52.59575" lon="-0.37344">
					<ele>46</ele>
					<time>0001-01-01T00:00:00Z</time>
				</trkpt>
				<trkpt lat="52.59648" lon="-0.37274">
					<ele>46</ele>
					<time>0001-01-01T00:00:00Z</time>
				</trkpt>
				<trkpt lat="52.59662" lon="-0.37269">
					<ele>46</ele>
					<time>0001-01-01T00:00:00Z</time>
				</trkpt>
				<trkpt lat="52.59701" lon="-0.37221">
					<ele>45</ele>
					<time>0001-01-01T00:00:00Z</time>
				</trkpt>
				<trkpt lat="52.59707" lon="-0.37198">
					<ele>44</ele>
					<time>0001-01-01T00:00:00Z</time>
				</trkpt>
				<trkpt lat="52.59735" lon="-0.37139">
					<ele>45</ele>
					<time>0001-01-01T00:00:00Z</time>
				</trkpt>
				<trkpt lat="52.59778" lon="-0.37115">
					<ele>46</ele>
					<time>0001-01-01T00:00:00Z</time>
				</trkpt>
				<trkpt lat="52.59967" lon="-0.37023">
					<ele>49</ele>
					<time>0001-01-01T00:00:00Z</time>
				</trkpt>
				<trkpt lat="52.60103" lon="-0.36960">
					<ele>51</ele>
					<time>0001-01-01T00:00:00Z</time>
				</trkpt>
				<trkpt lat="52.60135" lon="-0.36962">
					<ele>51</ele>
					<time>0001-01-01T00:00:00Z</time>
				</trkpt>
				<trkpt lat="52.60250" lon="-0.36943">
					<ele>51</ele>
					<time>0001-01-01T00:00:00Z</time>
				</trkpt>
				<trkpt lat="52.60362" lon="-0.36916">
					<ele>53</ele>
					<time>0001-01-01T00:00:00Z</time>
				</trkpt>
				<trkpt lat="52.60523" lon="-0.36904">
					<ele>52</ele>
					<time>0001-01-01T00:00:00Z</time>
				</trkpt>
				<trkpt lat="52.60688" lon="-0.36854">
					<ele>53</ele>
					<time>0001-01-01T00:00:00Z</time>
				</trkpt>
				<trkpt lat="52.60695" lon="-0.36850">
					<ele>53</ele>
					<time>0001-01-01T00:00:00Z</time>
				</trkpt>
				<trkpt lat="52.60721" lon="-0.36771">
					<ele>53</ele>
					<time>0001-01-01T00:00:00Z</time>
				</trkpt>
				<trkpt lat="52.60692" lon="-0.36580">
					<ele>51</ele>
					<time>0001-01-01T00:00:00Z</time>
				</trkpt>
				<trkpt lat="52.60693" lon="-0.36538">
					<ele>50</ele>
					<time>0001-01-01T00:00:00Z</time>
				</trkpt>
				<trkpt lat="52.60727" lon="-0.36282">
					<ele>48</ele>
					<time>0001-01-01T00:00:00Z</time>
				</trkpt>
				<trkpt lat="52.60794" lon="-0.36102">
					<ele>47</ele>
					<time>0001-01-01T00:00:00Z</time>
				</trkpt>
				<trkpt lat="52.60918" lon="-0.35871">
					<ele>46</ele>
					<time>0001-01-01T00:00:00Z</time>
				</trkpt>
				<trkpt lat="52.61006" lon="-0.35690">
					<ele>46</ele>
					<time>0001-01-01T00:00:00Z</time>
				</trkpt>
				<trkpt lat="52.61017" lon="-0.35678">
					<ele>46</ele>
					<time>0001-01-01T00:00:00Z</time>
				</trkpt>
				<trkpt lat="52.61036" lon="-0.35674">
					<ele>45</ele>
					<time>0001-01-01T00:00:00Z</time>
				</trkpt>
				<trkpt lat="52.61172" lon="-0.35683">
					<ele>41</ele>
					<time>0001-01-01T00:00:00Z</time>
				</trkpt>
				<trkpt lat="52.61311" lon="-0.35691">
					<ele>41</ele>
					<time>0001-01-01T00:00:00Z</time>
				</trkpt>
				<trkpt lat="52.61420" lon="-0.35697">
					<ele>38</ele>
					<time>0001-01-01T00:00:00Z</time>
				</trkpt>
				<trkpt lat="52.61521" lon="-0.35705">
					<ele>35</ele>
					<time>0001-01-01T00:00:00Z</time>
				</trkpt>
				<trkpt lat="52.61605" lon="-0.35706">
					<ele>34</ele>
					<time>0001-01-01T00:00:00Z</time>
				</trkpt>
				<trkpt lat="52.61623" lon="-0.35709">
					<ele>34</ele>
					<time>0001-01-01T00:00:00Z</time>
				</trkpt>
				<trkpt lat="52.61719" lon="-0.35716">
					<ele>34</ele>
					<time>0001-01-01T00:00:00Z</time>
				</trkpt>
				<trkpt lat="52.61843" lon="-0.35724">
					<ele>29</ele>
					<time>0001-01-01T00:00:00Z</time>
				</trkpt>
				<trkpt lat="52.62007" lon="-0.35730">
					<ele>32</ele>
					<time>0001-01-01T00:00:00Z</time>
				</trkpt>
				<trkpt lat="52.62192" lon="-0.35733">
					<ele>32</ele>
					<time>0001-01-01T00:00:00Z</time>
				</trkpt>
				<trkpt lat="52.62320" lon="-0.35734">
					<ele>30</ele>
					<time>0001-01-01T00:00:00Z</time>
				</trkpt>
				<trkpt lat="52.62427" lon="-0.35736">
					<ele>23</ele>
					<time>0001-01-01T00:00:00Z</time>
				</trkpt>
				<trkpt lat="52.62495" lon="-0.35736">
					<ele>19</ele>
					<time>0001-01-01T00:00:00Z</time>
				</trkpt>
				<trkpt lat="52.62609" lon="-0.35733">
					<ele>16</ele>
					<time>0001-01-01T00:00:00Z</time>
				</trkpt>
				<trkpt lat="52.62791" lon="-0.35754">
					<ele>16</ele>
					<time>0001-01-01T00:00:00Z</time>
				</trkpt>
				<trkpt lat="52.62990" lon="-0.35762">
					<ele>18</ele>
					<time>0001-01-01T00:00:00Z</time>
				</trkpt>
				<trkpt lat="52.63146" lon="-0.35771">
					<ele>19</ele>
					<time>0001-01-01T00:00:00Z</time>
				</trkpt>
				<trkpt lat="52.63291" lon="-0.35790">
					<ele>19</ele>
					<time>0001-01-01T00:00:00Z</time>
				</trkpt>
				<trkpt lat="52.63451" lon="-0.35778">
					<ele>18</ele>
					<time>0001-01-01T00:00:00Z</time>
				</trkpt>
				<trkpt lat="52.63510" lon="-0.35762">
					<ele>18</ele>
					<time>0001-01-01T00:00:00Z</time>
				</trkpt>
				<trkpt lat="52.63616" lon="-0.35815">
					<ele>16</ele>
					<time>0001-01-01T00:00:00Z</time>
				</trkpt>
				<trkpt lat="52.63743" lon="-0.35831">
					<ele>14</ele>
					<time>0001-01-01T00:00:00Z</time>
				</trkpt>
				<trkpt lat="52.63912" lon="-0.35826">
					<ele>11</ele>
					<time>0001-01-01T00:00:00Z</time>
				</trkpt>
				<trkpt lat="52.64058" lon="-0.35855">
					<ele>11</ele>
					<time>0001-01-01T00:00:00Z</time>
				</trkpt>
				<trkpt lat="52.64247" lon="-0.35874">
					<ele>12</ele>
					<time>0001-01-01T00:00:00Z</time>
				</trkpt>
				<trkpt lat="52.64344" lon="-0.35884">
					<ele>12</ele>
					<time>0001-01-01T00:00:00Z</time>
				</trkpt>
				<trkpt lat="52.64492" lon="-0.35889">
					<ele>11</ele>
					<time>0001-01-01T00:00:00Z</time>
				</trkpt>
				<trkpt lat="52.64689" lon="-0.35900">
					<ele>11</ele>
					<time>0001-01-01T00:00:00Z</time>
				</trkpt>
				<trkpt lat="52.64816" lon="-0.35901">
					<ele>12</ele>
					<time>0001-01-01T00:00:00Z</time>
				</trkpt>
				<trkpt lat="52.64928" lon="-0.35883">
					<ele>12</ele>
					<time>0001-01-01T00:00:00Z</time>
				</trkpt>
				<trkpt lat="52.65034" lon="-0.35899">
					<ele>12</ele>
					<time>0001-01-01T00:00:00Z</time>
				</trkpt>
				<trkpt lat="52.65287" lon="-0.35937">
					<ele>15</ele>
					<time>0001-01-01T00:00:00Z</time>
				</trkpt>
				<trkpt lat="52.65400" lon="-0.35939">
					<ele>12</ele>
					<time>0001-01-01T00:00:00Z</time>
				</trkpt>
				<trkpt lat="52.65604" lon="-0.35934">
					<ele>9</ele>
					<time>0001-01-01T00:00:00Z</time>
				</trkpt>
				<trkpt lat="52.65780" lon="-0.35929">
					<ele>11</ele>
					<time>0001-01-01T00:00:00Z</time>
				</trkpt>
				<trkpt lat="52.65954" lon="-0.35929">
					<ele>8</ele>
					<time>0001-01-01T00:00:00Z</time>
				</trkpt>
				<trkpt lat="52.66107" lon="-0.35929">
					<ele>9</ele>
					<time>0001-01-01T00:00:00Z</time>
				</trkpt>
				<trkpt lat="52.66248" lon="-0.35933">
					<ele>9</ele>
					<time>0001-01-01T00:00:00Z</time>
				</trkpt>
				<trkpt lat="52.66325" lon="-0.35928">
					<ele>9</ele>
					<time>0001-01-01T00:00:00Z</time>
				</trkpt>
				<trkpt lat="52.66585" lon="-0.35981">
					<ele>9</ele>
					<time>0001-01-01T00:00:00Z</time>
				</trkpt>
				<trkpt lat="52.66759" lon="-0.36021">
					<ele>8</ele>
					<time>0001-01-01T00:00:00Z</time>
				</trkpt>
				<trkpt lat="52.66888" lon="-0.36032">
					<ele>7</ele>
					<time>0001-01-01T00:00:00Z</time>
				</trkpt>
				<trkpt lat="52.66960" lon="-0.36035">
					<ele>7</ele>
					<time>0001-01-01T00:00:00Z</time>
				</trkpt>
				<trkpt lat="52.67021" lon="-0.36038">
					<ele>6</ele>
					<time>0001-01-01T00:00:00Z</time>
				</trkpt>
				<trkpt lat="52.67033" lon="-0.36032">
					<ele>6</ele>
					<time>0001-01-01T00:00:00Z</time>
				</trkpt>
				<trkpt lat="52.67041" lon="-0.36032">
					<ele>6</ele>
					<time>0001-01-01T00:00:00Z</time>
				</trkpt>
				<trkpt lat="52.67055" lon="-0.36040">
					<ele>6</ele>
					<time>0001-01-01T00:00:00Z</time>
				</trkpt>
				<trkpt lat="52.67183" lon="-0.36052">
					<ele>7</ele>
					<time>0001-01-01T00:00:00Z</time>
				</trkpt>
				<trkpt lat="52.67362" lon="-0.36073">
					<ele>8</ele>
					<time>0001-01-01T00:00:00Z</time>
				</trkpt>
				<trkpt lat="52.67563" lon="-0.36073">
					<ele>11</ele>
					<time>0001-01-01T00:00:00Z</time>
				</trkpt>
				<trkpt lat="52.67735" lon="-0.36077">
					<ele>10</ele>
					<time>0001-01-01T00:00:00Z</time>
				</trkpt>
				<trkpt lat="52.67898" lon="-0.36094">
					<ele>8</ele>
					<time>0001-01-01T00:00:00Z</time>
				</trkpt>
				<trkpt lat="52.68048" lon="-0.36102">
					<ele>8</ele>
					<time>0001-01-01T00:00:00Z</time>
				</trkpt>
				<trkpt lat="52.68193" lon="-0.36109">
					<ele>8</ele>
					<time>0001-01-01T00:00:00Z</time>
				</trkpt>
				<trkpt lat="52.68394" lon="-0.36125">
					<ele>8</ele>
					<time>0001-01-01T00:00:00Z</time>
				</trkpt>
				<trkpt lat="52.68543" lon="-0.36135">
					<ele>7</ele>
					<time>0001-01-01T00:00:00Z</time>
				</trkpt>
				<trkpt lat="52.68677" lon="-0.36138">
					<ele>6</ele>
					<time>0001-01-01T00:00:00Z</time>
				</trkpt>
				<trkpt lat="52.68826" lon="-0.36147">
					<ele>7</ele>
					<time>0001-01-01T00:00:00Z</time>
				</trkpt>
				<trkpt lat="52.68968" lon="-0.36163">
					<ele>9</ele>
					<time>0001-01-01T00:00:00Z</time>
				</trkpt>
				<trkpt lat="52.69087" lon="-0.36173">
					<ele>11</ele>
					<time>0001-01-01T00:00:00Z</time>
				</trkpt>
				<trkpt lat="52.69230" lon="-0.36185">
					<ele>11</ele>
					<time>0001-01-01T00:00:00Z</time>
				</trkpt>
				<trkpt lat="52.69407" lon="-0.36200">
					<ele>9</ele>
					<time>0001-01-01T00:00:00Z</time>
				</trkpt>
				<trkpt lat="52.69574" lon="-0.36209">
					<ele>10</ele>
					<time>0001-01-01T00:00:00Z</time>
				</trkpt>
				<trkpt lat="52.69747" lon="-0.36221">
					<ele>11</ele>
					<time>0001-01-01T00:00:00Z</time>
				</trkpt>
				<trkpt lat="52.69899" lon="-0.36231">
					<ele>9</ele>
					<time>0001-01-01T00:00:00Z</time>
				</trkpt>
				<trkpt lat="52.70086" lon="-0.36244">
					<ele>8</ele>
					<time>0001-01-01T00:00:00Z</time>
				</trkpt>
				<trkpt lat="52.70270" lon="-0.36258">
					<ele>8</ele>
					<time>0001-01-01T00:00:00Z</time>
				</trkpt>
				<trkpt lat="52.70431" lon="-0.36269">
					<ele>8</ele>
					<time>0001-01-01T00:00:00Z</time>
				</trkpt>
				<trkpt lat="52.70578" lon="-0.36280">
					<ele>8</ele>
					<time>0001-01-01T00:00:00Z</time>
				</trkpt>
				<trkpt lat="52.70746" lon="-0.36292">
					<ele>8</ele>
					<time>0001-01-01T00:00:00Z</time>
				</trkpt>
				<trkpt lat="52.70942" lon="-0.36303">
					<ele>7</ele>
					<time>0001-01-01T00:00:00Z</time>
				</trkpt>
				<trkpt lat="52.71136" lon="-0.36318">
					<ele>8</ele>
					<time>0001-01-01T00:00:00Z</time>
				</trkpt>
				<trkpt lat="52.71275" lon="-0.36329">
					<ele>8</ele>
					<time>0001-01-01T00:00:00Z</time>
				</trkpt>
				<trkpt lat="52.71428" lon="-0.36340">
					<ele>7</ele>
					<time>0001-01-01T00:00:00Z</time>
				</trkpt>
				<trkpt lat="52.71582" lon="-0.36348">
					<ele>7</ele>
					<time>0001-01-01T00:00:00Z</time>
				</trkpt>
				<trkpt lat="52.71740" lon="-0.36314">
					<ele>7</ele>
					<time>0001-01-01T00:00:00Z</time>
				</trkpt>
				<trkpt lat="52.71857" lon="-0.36277">
					<ele>6</ele>
					<time>0001-01-01T00:00:00Z</time>
				</trkpt>
				<trkpt lat="52.71882" lon="-0.36272">
					<ele>6</ele>
					<time>0001-01-01T00:00:00Z</time>
				</trkpt>
				<trkpt lat="52.71979" lon="-0.36316">
					<ele>7</ele>
					<time>0001-01-01T00:00:00Z</time>
				</trkpt>
				<trkpt lat="52.72174" lon="-0.36358">
					<ele>6</ele>
					<time>0001-01-01T00:00:00Z</time>
				</trkpt>
				<trkpt lat="52.72338" lon="-0.36359">
					<ele>7</ele>
					<time>0001-01-01T00:00:00Z</time>
				</trkpt>
				<trkpt lat="52.72483" lon="-0.36357">
					<ele>9</ele>
					<time>0001-01-01T00:00:00Z</time>
				</trkpt>
				<trkpt lat="52.72635" lon="-0.36406">
					<ele>9</ele>
					<time>0001-01-01T00:00:00Z</time>
				</trkpt>
				<trkpt lat="52.72805" lon="-0.36552">
					<ele>8</ele>
					<time>0001-01-01T00:00:00Z</time>
				</trkpt>
				<trkpt lat="52.72941" lon="-0.36660">
					<ele>7</ele>
					<time>0001-01-01T00:00:00Z</time>
				</trkpt>
				<trkpt lat="52.73102" lon="-0.36742">
					<ele>6</ele>
					<time>0001-01-01T00:00:00Z</time>
				</trkpt>
				<trkpt lat="52.73277" lon="-0.36750">
					<ele>7</ele>
					<time>0001-01-01T00:00:00Z</time>
				</trkpt>
				<trkpt lat="52.73437" lon="-0.36733">
					<ele>7</ele>
					<time>0001-01-01T00:00:00Z</time>
				</trkpt>
				<trkpt lat="52.73576" lon="-0.36720">
					<ele>8</ele>
					<time>0001-01-01T00:00:00Z</time>
				</trkpt>
				<trkpt lat="52.73707" lon="-0.36714">
					<ele>10</ele>
					<time>0001-01-01T00:00:00Z</time>
				</trkpt>
				<trkpt lat="52.73777" lon="-0.36725">
					<ele>13</ele>
					<time>0001-01-01T00:00:00Z</time>
				</trkpt>
				<trkpt lat="52.73782" lon="-0.36738">
					<ele>13</ele>
					<time>0001-01-01T00:00:00Z</time>
				</trkpt>
				<trkpt lat="52.73782" lon="-0.36744">
					<ele>14</ele>
					<time>0001-01-01T00:00:00Z</time>
				</trkpt>
				<trkpt lat="52.73780" lon="-0.36887">
					<ele>14</ele>
					<time>0001-01-01T00:00:00Z</time>
				</trkpt>
				<trkpt lat="52.73814" lon="-0.37072">
					<ele>13</ele>
					<time>0001-01-01T00:00:00Z</time>
				</trkpt>
				<trkpt lat="52.73863" lon="-0.37241">
					<ele>14</ele>
					<time>0001-01-01T00:00:00Z</time>
				</trkpt>
				<trkpt lat="52.73842" lon="-0.37419">
					<ele>15</ele>
					<time>0001-01-01T00:00:00Z</time>
				</trkpt>
				<trkpt lat="52.73819" lon="-0.37615">
					<ele>17</ele>
					<time>0001-01-01T00:00:00Z</time>
				</trkpt>
				<trkpt lat="52.73816" lon="-0.37809">
					<ele>18</ele>
					<time>0001-01-01T00:00:00Z</time>
				</trkpt>
				<trkpt lat="52.73852" lon="-0.37884">
					<ele>18</ele>
					<time>0001-01-01T00:00:00Z</time>
				</trkpt>
				<trkpt lat="52.73875" lon="-0.37894">
					<ele>19</ele>
					<time>0001-01-01T00:00:00Z</time>
				</trkpt>
				<trkpt lat="52.73947" lon="-0.37938">
					<ele>19</ele>
					<time>0001-01-01T00:00:00Z</time>
				</trkpt>
				<trkpt lat="52.73997" lon="-0.37962">
					<ele>20</ele>
					<time>0001-01-01T00:00:00Z</time>
				</trkpt>
				<trkpt lat="52.74011" lon="-0.37913">
					<ele>20</ele>
					<time>0001-01-01T00:00:00Z</time>
				</trkpt>
				<trkpt lat="52.74020" lon="-0.37890">
					<ele>19</ele>
					<time>0001-01-01T00:00:00Z</time>
				</trkpt>
				<trkpt lat="52.74031" lon="-0.37887">
					<ele>19</ele>
					<time>0001-01-01T00:00:00Z</time>
				</trkpt>
				<trkpt lat="52.74038" lon="-0.37887">
					<ele>20</ele>
					<time>0001-01-01T00:00:00Z</time>
				</trkpt>
				<trkpt lat="52.74038" lon="-0.37885">
					<ele>19</ele>
					<time>0001-01-01T00:00:00Z</time>
				</trkpt>
				<trkpt lat="52.74040" lon="-0.37885">
					<ele>18</ele>
					<time>0001-01-01T00:00:00Z</time>
				</trkpt>
				<trkpt lat="52.74036" lon="-0.37887">
					<ele>19</ele>
					<time>0001-01-01T00:00:00Z</time>
				</trkpt>
				<trkpt lat="52.74018" lon="-0.37889">
					<ele>19</ele>
					<time>0001-01-01T00:00:00Z</time>
				</trkpt>
				<trkpt lat="52.74002" lon="-0.37948">
					<ele>20</ele>
					<time>0001-01-01T00:00:00Z</time>
				</trkpt>
				<trkpt lat="52.73987" lon="-0.37970">
					<ele>20</ele>
					<time>0001-01-01T00:00:00Z</time>
				</trkpt>
				<trkpt lat="52.73952" lon="-0.37945">
					<ele>20</ele>
					<time>0001-01-01T00:00:00Z</time>
				</trkpt>
				<trkpt lat="52.73897" lon="-0.37901">
					<ele>19</ele>
					<time>0001-01-01T00:00:00Z</time>
				</trkpt>
				<trkpt lat="52.73890" lon="-0.37898">
					<ele>19</ele>
					<time>0001-01-01T00:00:00Z</time>
				</trkpt>
				<trkpt lat="52.73856" lon="-0.37935">
					<ele>21</ele>
					<time>0001-01-01T00:00:00Z</time>
				</trkpt>
				<trkpt lat="52.73845" lon="-0.37976">
					<ele>21</ele>
					<time>0001-01-01T00:00:00Z</time>
				</trkpt>
				<trkpt lat="52.73818" lon="-0.38022">
					<ele>22</ele>
					<time>0001-01-01T00:00:00Z</time>
				</trkpt>
				<trkpt lat="52.73794" lon="-0.38033">
					<ele>22</ele>
					<time>0001-01-01T00:00:00Z</time>
				</trkpt>
				<trkpt lat="52.73759" lon="-0.38070">
					<ele>21</ele>
					<time>0001-01-01T00:00:00Z</time>
				</trkpt>
				<trkpt lat="52.73716" lon="-0.38220">
					<ele>24</ele>
					<time>0001-01-01T00:00:00Z</time>
				</trkpt>
				<trkpt lat="52.73656" lon="-0.38490">
					<ele>26</ele>
					<time>0001-01-01T00:00:00Z</time>
				</trkpt>
				<trkpt lat="52.73625" lon="-0.38764">
					<ele>32</ele>
					<time>0001-01-01T00:00:00Z</time>
				</trkpt>
				<trkpt lat="52.73663" lon="-0.39023">
					<ele>41</ele>
					<time>0001-01-01T00:00:00Z</time>
				</trkpt>
				<trkpt lat="52.73713" lon="-0.39283">
					<ele>49</ele>
					<time>0001-01-01T00:00:00Z</time>
				</trkpt>
				<trkpt lat="52.73744" lon="-0.39504">
					<ele>52</ele>
					<time>0001-01-01T00:00:00Z</time>
				</trkpt>
				<trkpt lat="52.73705" lon="-0.39633">
					<ele>50</ele>
					<time>0001-01-01T00:00:00Z</time>
				</trkpt>
				<trkpt lat="52.73697" lon="-0.39682">
					<ele>48</ele>
					<time>0001-01-01T00:00:00Z</time>
				</trkpt>
				<trkpt lat="52.73722" lon="-0.39781">
					<ele>47</ele>
					<time>0001-01-01T00:00:00Z</time>
				</trkpt>
				<trkpt lat="52.73759" lon="-0.39935">
					<ele>47</ele>
					<time>0001-01-01T00:00:00Z</time>
				</trkpt>
				<trkpt lat="52.73834" lon="-0.40071">
					<ele>51</ele>
					<time>0001-01-01T00:00:00Z</time>
				</trkpt>
				<trkpt lat="52.73905" lon="-0.40222">
					<ele>53</ele>
					<time>0001-01-01T00:00:00Z</time>
				</trkpt>
				<trkpt lat="52.74005" lon="-0.40358">
					<ele>51</ele>
					<time>0001-01-01T00:00:00Z</time>
				</trkpt>
				<trkpt lat="52.74111" lon="-0.40514">
					<ele>48</ele>
					<time>0001-01-01T00:00:00Z</time>
				</trkpt>
				<trkpt lat="52.74221" lon="-0.40677">
					<ele>47</ele>
					<time>0001-01-01T00:00:00Z</time>
				</trkpt>
				<trkpt lat="52.74274" lon="-0.40759">
					<ele>48</ele>
					<time>0001-01-01T00:00:00Z</time>
				</trkpt>
				<trkpt lat="52.74299" lon="-0.40799">
					<ele>48</ele>
					<time>0001-01-01T00:00:00Z</time>
				</trkpt>
				<trkpt lat="52.74308" lon="-0.40815">
					<ele>49</ele>
					<time>0001-01-01T00:00:00Z</time>
				</trkpt>
				<trkpt lat="52.74325" lon="-0.40915">
					<ele>40</ele>
					<time>0001-01-01T00:00:00Z</time>
				</trkpt>
				<trkpt lat="52.74325" lon="-0.40972">
					<ele>38</ele>
					<time>0001-01-01T00:00:00Z</time>
				</trkpt>
				<trkpt lat="52.74323" lon="-0.40985">
					<ele>37</ele>
					<time>0001-01-01T00:00:00Z</time>
				</trkpt>
				<trkpt lat="52.74288" lon="-0.41099">
					<ele>32</ele>
					<time>0001-01-01T00:00:00Z</time>
				</trkpt>
				<trkpt lat="52.74261" lon="-0.41192">
					<ele>28</ele>
					<time>0001-01-01T00:00:00Z</time>
				</trkpt>
				<trkpt lat="52.74261" lon="-0.41303">
					<ele>28</ele>
					<time>0001-01-01T00:00:00Z</time>
				</trkpt>
				<trkpt lat="52.74255" lon="-0.41332">
					<ele>26</ele>
					<time>0001-01-01T00:00:00Z</time>
				</trkpt>
				<trkpt lat="52.74251" lon="-0.41419">
					<ele>25</ele>
					<time>0001-01-01T00:00:00Z</time>
				</trkpt>
				<trkpt lat="52.74245" lon="-0.41464">
					<ele>25</ele>
					<time>0001-01-01T00:00:00Z</time>
				</trkpt>
				<trkpt lat="52.74209" lon="-0.41564">
					<ele>26</ele>
					<time>0001-01-01T00:00:00Z</time>
				</trkpt>
				<trkpt lat="52.74181" lon="-0.41750">
					<ele>24</ele>
					<time>0001-01-01T00:00:00Z</time>
				</trkpt>
				<trkpt lat="52.74188" lon="-0.41796">
					<ele>24</ele>
					<time>0001-01-01T00:00:00Z</time>
				</trkpt>
				<trkpt lat="52.74200" lon="-0.41812">
					<ele>25</ele>
					<time>0001-01-01T00:00:00Z</time>
				</trkpt>
				<trkpt lat="52.74263" lon="-0.41938">
					<ele>28</ele>
					<time>0001-01-01T00:00:00Z</time>
				</trkpt>
				<trkpt lat="52.74285" lon="-0.41959">
					<ele>28</ele>
					<time>0001-01-01T00:00:00Z</time>
				</trkpt>
				<trkpt lat="52.74407" lon="-0.41869">
					<ele>30</ele>
					<time>0001-01-01T00:00:00Z</time>
				</trkpt>
				<trkpt lat="52.74507" lon="-0.41832">
					<ele>34</ele>
					<time>0001-01-01T00:00:00Z</time>
				</trkpt>
				<trkpt lat="52.74625" lon="-0.41816">
					<ele>27</ele>
					<time>0001-01-01T00:00:00Z</time>
				</trkpt>
				<trkpt lat="52.74690" lon="-0.41785">
					<ele>28</ele>
					<time>0001-01-01T00:00:00Z</time>
				</trkpt>
				<trkpt lat="52.74837" lon="-0.41718">
					<ele>28</ele>
					<time>0001-01-01T00:00:00Z</time>
				</trkpt>
				<trkpt lat="52.74962" lon="-0.41670">
					<ele>30</ele>
					<time>0001-01-01T00:00:00Z</time>
				</trkpt>
				<trkpt lat="52.75104" lon="-0.41657">
					<ele>35</ele>
					<time>0001-01-01T00:00:00Z</time>
				</trkpt>
				<trkpt lat="52.75110" lon="-0.41653">
					<ele>35</ele>
					<time>0001-01-01T00:00:00Z</time>
				</trkpt>
				<trkpt lat="52.75242" lon="-0.41581">
					<ele>32</ele>
					<time>0001-01-01T00:00:00Z</time>
				</trkpt>
				<trkpt lat="52.75274" lon="-0.41580">
					<ele>32</ele>
					<time>0001-01-01T00:00:00Z</time>
				</trkpt>
				<trkpt lat="52.75367" lon="-0.41621">
					<ele>32</ele>
					<time>0001-01-01T00:00:00Z</time>
				</trkpt>
				<trkpt lat="52.75473" lon="-0.41740">
					<ele>36</ele>
					<time>0001-01-01T00:00:00Z</time>
				</trkpt>
				<trkpt lat="52.75539" lon="-0.41780">
					<ele>36</ele>
					<time>0001-01-01T00:00:00Z</time>
				</trkpt>
				<trkpt lat="52.75655" lon="-0.41849">
					<ele>41</ele>
					<time>0001-01-01T00:00:00Z</time>
				</trkpt>
				<trkpt lat="52.75764" lon="-0.41882">
					<ele>38</ele>
					<time>0001-01-01T00:00:00Z</time>
				</trkpt>
				<trkpt lat="52.75870" lon="-0.41918">
					<ele>35</ele>
					<time>0001-01-01T00:00:00Z</time>
				</trkpt>
				<trkpt lat="52.75927" lon="-0.41919">
					<ele>35</ele>
					<time>0001-01-01T00:00:00Z</time>
				</trkpt>
				<trkpt lat="52.76099" lon="-0.41923">
					<ele>34</ele>
					<time>0001-01-01T00:00:00Z</time>
				</trkpt>
				<trkpt lat="52.76223" lon="-0.41937">
					<ele>35</ele>
					<time>0001-01-01T00:00:00Z</time>
				</trkpt>
				<trkpt lat="52.76355" lon="-0.41999">
					<ele>33</ele>
					<time>0001-01-01T00:00:00Z</time>
				</trkpt>
				<trkpt lat="52.76533" lon="-0.42097">
					<ele>34</ele>
					<time>0001-01-01T00:00:00Z</time>
				</trkpt>
				<trkpt lat="52.76650" lon="-0.42154">
					<ele>37</ele>
					<time>0001-01-01T00:00:00Z</time>
				</trkpt>
				<trkpt lat="52.76749" lon="-0.42205">
					<ele>33</ele>
					<time>0001-01-01T00:00:00Z</time>
				</trkpt>
				<trkpt lat="52.76866" lon="-0.42258">
					<ele>31</ele>
					<time>0001-01-01T00:00:00Z</time>
				</trkpt>
				<trkpt lat="52.76967" lon="-0.42339">
					<ele>27</ele>
					<time>0001-01-01T00:00:00Z</time>
				</trkpt>
				<trkpt lat="52.77042" lon="-0.42401">
					<ele>23</ele>
					<time>0001-01-01T00:00:00Z</time>
				</trkpt>
				<trkpt lat="52.77159" lon="-0.42477">
					<ele>24</ele>
					<time>0001-01-01T00:00:00Z</time>
				</trkpt>
				<trkpt lat="52.77275" lon="-0.42603">
					<ele>25</ele>
					<time>0001-01-01T00:00:00Z</time>
				</trkpt>
				<trkpt lat="52.77293" lon="-0.42615">
					<ele>24</ele>
					<time>0001-01-01T00:00:00Z</time>
				</trkpt>
				<trkpt lat="52.77319" lon="-0.42621">
					<ele>25</ele>
					<time>0001-01-01T00:00:00Z</time>
				</trkpt>
				<trkpt lat="52.77469" lon="-0.42609">
					<ele>24</ele>
					<time>0001-01-01T00:00:00Z</time>
				</trkpt>
				<trkpt lat="52.77619" lon="-0.42606">
					<ele>25</ele>
					<time>0001-01-01T00:00:00Z</time>
				</trkpt>
				<trkpt lat="52.77664" lon="-0.42587">
					<ele>25</ele>
					<time>0001-01-01T00:00:00Z</time>
				</trkpt>
				<trkpt lat="52.77660" lon="-0.42548">
					<ele>24</ele>
					<time>0001-01-01T00:00:00Z</time>
				</trkpt>
				<trkpt lat="52.77659" lon="-0.42511">
					<ele>25</ele>
					<time>0001-01-01T00:00:00Z</time>
				</trkpt>
				<trkpt lat="52.77663" lon="-0.42491">
					<ele>25</ele>
					<time>0001-01-01T00:00:00Z</time>
				</trkpt>
				<trkpt lat="52.77665" lon="-0.42543">
					<ele>24</ele>
					<time>0001-01-01T00:00:00Z</time>
				</trkpt>
				<trkpt lat="52.77690" lon="-0.42601">
					<ele>24</ele>
					<time>0001-01-01T00:00:00Z</time>
				</trkpt>
				<trkpt lat="52.77754" lon="-0.42617">
					<ele>25</ele>
					<time>0001-01-01T00:00:00Z</time>
				</trkpt>
				<trkpt lat="52.77912" lon="-0.42628">
					<ele>25</ele>
					<time>0001-01-01T00:00:00Z</time>
				</trkpt>
				<trkpt lat="52.78059" lon="-0.42626">
					<ele>27</ele>
					<time>0001-01-01T00:00:00Z</time>
				</trkpt>
				<trkpt lat="52.78174" lon="-0.42650">
					<ele>26</ele>
					<time>0001-01-01T00:00:00Z</time>
				</trkpt>
				<trkpt lat="52.78289" lon="-0.42690">
					<ele>28</ele>
					<time>0001-01-01T00:00:00Z</time>
				</trkpt>
				<trkpt lat="52.78382" lon="-0.42778">
					<ele>28</ele>
					<time>0001-01-01T00:00:00Z</time>
				</trkpt>
				<trkpt lat="52.78430" lon="-0.42755">
					<ele>28</ele>
					<time>0001-01-01T00:00:00Z</time>
				</trkpt>
				<trkpt lat="52.78524" lon="-0.42602">
					<ele>28</ele>
					<time>0001-01-01T00:00:00Z</time>
				</trkpt>
				<trkpt lat="52.78543" lon="-0.42568">
					<ele>28</ele>
					<time>0001-01-01T00:00:00Z</time>
				</trkpt>
				<trkpt lat="52.78553" lon="-0.42537">
					<ele>28</ele>
					<time>0001-01-01T00:00:00Z</time>
				</trkpt>
				<trkpt lat="52.78579" lon="-0.42507">
					<ele>28</ele>
					<time>0001-01-01T00:00:00Z</time>
				</trkpt>
				<trkpt lat="52.78708" lon="-0.42515">
					<ele>28</ele>
					<time>0001-01-01T00:00:00Z</time>
				</trkpt>
				<trkpt lat="52.78870" lon="-0.42592">
					<ele>29</ele>
					<time>0001-01-01T00:00:00Z</time>
				</trkpt>
				<trkpt lat="52.79018" lon="-0.42670">
					<ele>30</ele>
					<time>0001-01-01T00:00:00Z</time>
				</trkpt>
				<trkpt lat="52.79157" lon="-0.42729">
					<ele>31</ele>
					<time>0001-01-01T00:00:00Z</time>
				</trkpt>
				<trkpt lat="52.79273" lon="-0.42722">
					<ele>31</ele>
					<time>0001-01-01T00:00:00Z</time>
				</trkpt>
				<trkpt lat="52.79397" lon="-0.42704">
					<ele>28</ele>
					<time>0001-01-01T00:00:00Z</time>
				</trkpt>
				<trkpt lat="52.79505" lon="-0.42721">
					<ele>29</ele>
					<time>0001-01-01T00:00:00Z</time>
				</trkpt>
				<trkpt lat="52.79570" lon="-0.42787">
					<ele>29</ele>
					<time>0001-01-01T00:00:00Z</time>
				</trkpt>
				<trkpt lat="52.79696" lon="-0.42857">
					<ele>32</ele>
					<time>0001-01-01T00:00:00Z</time>
				</trkpt>
				<trkpt lat="52.79849" lon="-0.42924">
					<ele>36</ele>
					<time>0001-01-01T00:00:00Z</time>
				</trkpt>
				<trkpt lat="52.79984" lon="-0.42991">
					<ele>39</ele>
					<time>0001-01-01T00:00:00Z</time>
				</trkpt>
				<trkpt lat="52.80080" lon="-0.43054">
					<ele>41</ele>
					<time>0001-01-01T00:00:00Z</time>
				</trkpt>
				<trkpt lat="52.80097" lon="-0.43052">
					<ele>41</ele>
					<time>0001-01-01T00:00:00Z</time>
				</trkpt>
				<trkpt lat="52.80106" lon="-0.43028">
					<ele>41</ele>
					<time>0001-01-01T00:00:00Z</time>
				</trkpt>
				<trkpt lat="52.80120" lon="-0.43001">
					<ele>41</ele>
					<time>0001-01-01T00:00:00Z</time>
				</trkpt>
				<trkpt lat="52.80144" lon="-0.42991">
					<ele>41</ele>
					<time>0001-01-01T00:00:00Z</time>
				</trkpt>
				<trkpt lat="52.80162" lon="-0.42992">
					<ele>41</ele>
					<time>0001-01-01T00:00:00Z</time>
				</trkpt>
				<trkpt lat="52.80215" lon="-0.43003">
					<ele>40</ele>
					<time>0001-01-01T00:00:00Z</time>
				</trkpt>
				<trkpt lat="52.80271" lon="-0.43015">
					<ele>37</ele>
					<time>0001-01-01T00:00:00Z</time>
				</trkpt>
				<trkpt lat="52.80303" lon="-0.43027">
					<ele>36</ele>
					<time>0001-01-01T00:00:00Z</time>
				</trkpt>
				<trkpt lat="52.80349" lon="-0.43040">
					<ele>33</ele>
					<time>0001-01-01T00:00:00Z</time>
				</trkpt>
				<trkpt lat="52.80443" lon="-0.42989">
					<ele>34</ele>
					<time>0001-01-01T00:00:00Z</time>
				</trkpt>
				<trkpt lat="52.80471" lon="-0.42989">
					<ele>34</ele>
					<time>0001-01-01T00:00:00Z</time>
				</trkpt>
				<trkpt lat="52.80506" lon="-0.43007">
					<ele>35</ele>
					<time>0001-01-01T00:00:00Z</time>
				</trkpt>
				<trkpt lat="52.80625" lon="-0.43084">
					<ele>36</ele>
					<time>0001-01-01T00:00:00Z</time>
				</trkpt>
				<trkpt lat="52.80686" lon="-0.43232">
					<ele>37</ele>
					<time>0001-01-01T00:00:00Z</time>
				</trkpt>
				<trkpt lat="52.80718" lon="-0.43292">
					<ele>38</ele>
					<time>0001-01-01T00:00:00Z</time>
				</trkpt>
				<trkpt lat="52.80762" lon="-0.43329">
					<ele>39</ele>
					<time>0001-01-01T00:00:00Z</time>
				</trkpt>
				<trkpt lat="52.80867" lon="-0.43406">
					<ele>43</ele>
					<time>0001-01-01T00:00:00Z</time>
				</trkpt>
				<trkpt lat="52.80961" lon="-0.43434">
					<ele>41</ele>
					<time>0001-01-01T00:00:00Z</time>
				</trkpt>
				<trkpt lat="52.81067" lon="-0.43423">
					<ele>39</ele>
					<time>0001-01-01T00:00:00Z</time>
				</trkpt>
				<trkpt lat="52.81099" lon="-0.43439">
					<ele>38</ele>
					<time>0001-01-01T00:00:00Z</time>
				</trkpt>
				<trkpt lat="52.81203" lon="-0.43565">
					<ele>39</ele>
					<time>0001-01-01T00:00:00Z</time>
				</trkpt>
				<trkpt lat="52.81359" lon="-0.43640">
					<ele>48</ele>
					<time>0001-01-01T00:00:00Z</time>
				</trkpt>
				<trkpt lat="52.81396" lon="-0.43638">
					<ele>49</ele>
					<time>0001-01-01T00:00:00Z</time>
				</trkpt>
				<trkpt lat="52.81488" lon="-0.43602">
					<ele>50</ele>
					<time>0001-01-01T00:00:00Z</time>
				</trkpt>
				<trkpt lat="52.81504" lon="-0.43603">
					<ele>50</ele>
					<time>0001-01-01T00:00:00Z</time>
				</trkpt>
				<trkpt lat="52.81513" lon="-0.43604">
					<ele>50</ele>
					<time>0001-01-01T00:00:00Z</time>
				</trkpt>
				<trkpt lat="52.81618" lon="-0.43645">
					<ele>55</ele>
					<time>0001-01-01T00:00:00Z</time>
				</trkpt>
				<trkpt lat="52.81722" lon="-0.43731">
					<ele>54</ele>
					<time>0001-01-01T00:00:00Z</time>
				</trkpt>
				<trkpt lat="52.81892" lon="-0.43788">
					<ele>59</ele>
					<time>0001-01-01T00:00:00Z</time>
				</trkpt>
				<trkpt lat="52.82067" lon="-0.43797">
					<ele>59</ele>
					<time>0001-01-01T00:00:00Z</time>
				</trkpt>
				<trkpt lat="52.82146" lon="-0.43761">
					<ele>57</ele>
					<time>0001-01-01T00:00:00Z</time>
				</trkpt>
				<trkpt lat="52.82188" lon="-0.43782">
					<ele>56</ele>
					<time>0001-01-01T00:00:00Z</time>
				</trkpt>
				<trkpt lat="52.82257" lon="-0.43818">
					<ele>51</ele>
					<time>0001-01-01T00:00:00Z</time>
				</trkpt>
				<trkpt lat="52.82283" lon="-0.43866">
					<ele>50</ele>
					<time>0001-01-01T00:00:00Z</time>
				</trkpt>
				<trkpt lat="52.82297" lon="-0.43874">
					<ele>51</ele>
					<time>0001-01-01T00:00:00Z</time>
				</trkpt>
				<trkpt lat="52.82302" lon="-0.43875">
					<ele>51</ele>
					<time>0001-01-01T00:00:00Z</time>
				</trkpt>
				<trkpt lat="52.82412" lon="-0.43892">
					<ele>56</ele>
					<time>0001-01-01T00:00:00Z</time>
				</trkpt>
				<trkpt lat="52.82568" lon="-0.43955">
					<ele>61</ele>
					<time>0001-01-01T00:00:00Z</time>
				</trkpt>
				<trkpt lat="52.82724" lon="-0.44009">
					<ele>66</ele>
					<time>0001-01-01T00:00:00Z</time>
				</trkpt>
				<trkpt lat="52.82754" lon="-0.44003">
					<ele>67</ele>
					<time>0001-01-01T00:00:00Z</time>
				</trkpt>
				<trkpt lat="52.82775" lon="-0.43944">
					<ele>69</ele>
					<time>0001-01-01T00:00:00Z</time>
				</trkpt>
				<trkpt lat="52.82770" lon="-0.43900">
					<ele>69</ele>
					<time>0001-01-01T00:00:00Z</time>
				</trkpt>
				<trkpt lat="52.82778" lon="-0.43854">
					<ele>70</ele>
					<time>0001-01-01T00:00:00Z</time>
				</trkpt>
				<trkpt lat="52.82818" lon="-0.43749">
					<ele>69</ele>
					<time>0001-01-01T00:00:00Z</time>
				</trkpt>
				<trkpt lat="52.82887" lon="-0.43541">
					<ele>68</ele>
					<time>0001-01-01T00:00:00Z</time>
				</trkpt>
				<trkpt lat="52.82921" lon="-0.43303">
					<ele>67</ele>
					<time>0001-01-01T00:00:00Z</time>
				</trkpt>
				<trkpt lat="52.82936" lon="-0.43251">
					<ele>66</ele>
					<time>0001-01-01T00:00:00Z</time>
				</trkpt>
				<trkpt lat="52.82999" lon="-0.43161">
					<ele>66</ele>
					<time>0001-01-01T00:00:00Z</time>
				</trkpt>
				<trkpt lat="52.83056" lon="-0.42928">
					<ele>64</ele>
					<time>0001-01-01T00:00:00Z</time>
				</trkpt>
				<trkpt lat="52.83079" lon="-0.42693">
					<ele>59</ele>
					<time>0001-01-01T00:00:00Z</time>
				</trkpt>
				<trkpt lat="52.83078" lon="-0.42668">
					<ele>58</ele>
					<time>0001-01-01T00:00:00Z</time>
				</trkpt>
				<trkpt lat="52.83089" lon="-0.42487">
					<ele>52</ele>
					<time>0001-01-01T00:00:00Z</time>
				</trkpt>
				<trkpt lat="52.83121" lon="-0.42343">
					<ele>52</ele>
					<time>0001-01-01T00:00:00Z</time>
				</trkpt>
				<trkpt lat="52.83139" lon="-0.42202">
					<ele>48</ele>
					<time>0001-01-01T00:00:00Z</time>
				</trkpt>
				<trkpt lat="52.83137" lon="-0.42125">
					<ele>47</ele>
					<time>0001-01-01T00:00:00Z</time>
				</trkpt>
				<trkpt lat="52.83118" lon="-0.41926">
					<ele>43</ele>
					<time>0001-01-01T00:00:00Z</time>
				</trkpt>
				<trkpt lat="52.83101" lon="-0.41669">
					<ele>44</ele>
					<time>0001-01-01T00:00:00Z</time>
				</trkpt>
				<trkpt lat="52.83093" lon="-0.41478">
					<ele>44</ele>
					<time>0001-01-01T00:00:00Z</time>
				</trkpt>
				<trkpt lat="52.83114" lon="-0.41334">
					<ele>46</ele>
					<time>0001-01-01T00:00:00Z</time>
				</trkpt>
				<trkpt lat="52.83128" lon="-0.41233">
					<ele>45</ele>
					<time>0001-01-01T00:00:00Z</time>
				</trkpt>
				<trkpt lat="52.83131" lon="-0.41215">
					<ele>45</ele>
					<time>0001-01-01T00:00:00Z</time>
				</trkpt>
				<trkpt lat="52.83135" lon="-0.41199">
					<ele>42</ele>
					<time>0001-01-01T00:00:00Z</time>
				</trkpt>
				<trkpt lat="52.83148" lon="-0.41151">
					<ele>40</ele>
					<time>0001-01-01T00:00:00Z</time>
				</trkpt>
				<trkpt lat="52.83205" lon="-0.40975">
					<ele>36</ele>
					<time>0001-01-01T00:00:00Z</time>
				</trkpt>
				<trkpt lat="52.83205" lon="-0.40925">
					<ele>36</ele>
					<time>0001-01-01T00:00:00Z</time>
				</trkpt>
				<trkpt lat="52.83191" lon="-0.40760">
					<ele>40</ele>
					<time>0001-01-01T00:00:00Z</time>
				</trkpt>
				<trkpt lat="52.83203" lon="-0.40724">
					<ele>40</ele>
					<time>0001-01-01T00:00:00Z</time>
				</trkpt>
				<trkpt lat="52.83207" lon="-0.40717">
					<ele>40</ele>
					<time>0001-01-01T00:00:00Z</time>
				</trkpt>
				<trkpt lat="52.83271" lon="-0.40540">
					<ele>41</ele>
					<time>0001-01-01T00:00:00Z</time>
				</trkpt>
				<trkpt lat="52.83297" lon="-0.40542">
					<ele>42</ele>
					<time>0001-01-01T00:00:00Z</time>
				</trkpt>
				<trkpt lat="52.83314" lon="-0.40545">
					<ele>42</ele>
					<time>0001-01-01T00:00:00Z</time>
				</trkpt>
				<trkpt lat="52.83326" lon="-0.40543">
					<ele>42</ele>
					<time>0001-01-01T00:00:00Z</time>
				</trkpt>
				<trkpt lat="52.83469" lon="-0.40503">
					<ele>40</ele>
					<time>0001-01-01T00:00:00Z</time>
				</trkpt>
				<trkpt lat="52.83603" lon="-0.40546">
					<ele>41</ele>
					<time>0001-01-01T00:00:00Z</time>
				</trkpt>
				<trkpt lat="52.83709" lon="-0.40586">
					<ele>40</ele>
					<time>0001-01-01T00:00:00Z</time>
				</trkpt>
				<trkpt lat="52.83736" lon="-0.40579">
					<ele>40</ele>
					<time>0001-01-01T00:00:00Z</time>
				</trkpt>
				<trkpt lat="52.83796" lon="-0.40515">
					<ele>40</ele>
					<time>0001-01-01T00:00:00Z</time>
				</trkpt>
				<trkpt lat="52.83893" lon="-0.40427">
					<ele>39</ele>
					<time>0001-01-01T00:00:00Z</time>
				</trkpt>
				<trkpt lat="52.83916" lon="-0.40421">
					<ele>39</ele>
					<time>0001-01-01T00:00:00Z</time>
				</trkpt>
				<trkpt lat="52.83946" lon="-0.40434">
					<ele>39</ele>
					<time>0001-01-01T00:00:00Z</time>
				</trkpt>
				<trkpt lat="52.84030" lon="-0.40466">
					<ele>38</ele>
					<time>0001-01-01T00:00:00Z</time>
				</trkpt>
				<trkpt lat="52.84039" lon="-0.40464">
					<ele>38</ele>
					<time>0001-01-01T00:00:00Z</time>
				</trkpt>
				<trkpt lat="52.84230" lon="-0.40387">
					<ele>42</ele>
					<time>0001-01-01T00:00:00Z</time>
				</trkpt>
				<trkpt lat="52.84346" lon="-0.40384">
					<ele>47</ele>
					<time>0001-01-01T00:00:00Z</time>
				</trkpt>
				<trkpt lat="52.84479" lon="-0.40440">
					<ele>52</ele>
					<time>0001-01-01T00:00:00Z</time>
				</trkpt>
				<trkpt lat="52.84516" lon="-0.40404">
					<ele>53</ele>
					<time>0001-01-01T00:00:00Z</time>
				</trkpt>
				<trkpt lat="52.84524" lon="-0.40201">
					<ele>53</ele>
					<time>0001-01-01T00:00:00Z</time>
				</trkpt>
				<trkpt lat="52.84538" lon="-0.40029">
					<ele>52</ele>
					<time>0001-01-01T00:00:00Z</time>
				</trkpt>
				<trkpt lat="52.84560" lon="-0.40000">
					<ele>52</ele>
					<time>0001-01-01T00:00:00Z</time>
				</trkpt>
				<trkpt lat="52.84601" lon="-0.39991">
					<ele>53</ele>
					<time>0001-01-01T00:00:00Z</time>
				</trkpt>
				<trkpt lat="52.84734" lon="-0.39918">
					<ele>51</ele>
					<time>0001-01-01T00:00:00Z</time>
				</trkpt>
				<trkpt lat="52.84851" lon="-0.39906">
					<ele>48</ele>
					<time>0001-01-01T00:00:00Z</time>
				</trkpt>
				<trkpt lat="52.84884" lon="-0.39891">
					<ele>47</ele>
					<time>0001-01-01T00:00:00Z</time>
				</trkpt>
				<trkpt lat="52.84968" lon="-0.39757">
					<ele>45</ele>
					<time>0001-01-01T00:00:00Z</time>
				</trkpt>
				<trkpt lat="52.85094" lon="-0.39617">
					<ele>48</ele>
					<time>0001-01-01T00:00:00Z</time>
				</trkpt>
				<trkpt lat="52.85156" lon="-0.39596">
					<ele>49</ele>
					<time>0001-01-01T00:00:00Z</time>
				</trkpt>
				<trkpt lat="52.85277" lon="-0.39661">
					<ele>50</ele>
					<time>0001-01-01T00:00:00Z</time>
				</trkpt>
				<trkpt lat="52.85302" lon="-0.39664">
					<ele>50</ele>
					<time>0001-01-01T00:00:00Z</time>
				</trkpt>
				<trkpt lat="52.85331" lon="-0.39645">
					<ele>50</ele>
					<time>0001-01-01T00:00:00Z</time>
				</trkpt>
				<trkpt lat="52.85409" lon="-0.39530">
					<ele>44</ele>
					<time>0001-01-01T00:00:00Z</time>
				</trkpt>
				<trkpt lat="52.85480" lon="-0.39353">
					<ele>39</ele>
					<time>0001-01-01T00:00:00Z</time>
				</trkpt>
				<trkpt lat="52.85567" lon="-0.39222">
					<ele>38</ele>
					<time>0001-01-01T00:00:00Z</time>
				</trkpt>
				<trkpt lat="52.85679" lon="-0.39190">
					<ele>39</ele>
					<time>0001-01-01T00:00:00Z</time>
				</trkpt>
				<trkpt lat="52.85704" lon="-0.39171">
					<ele>39</ele>
					<time>0001-01-01T00:00:00Z</time>
				</trkpt>
				<trkpt lat="52.85716" lon="-0.39138">
					<ele>38</ele>
					<time>0001-01-01T00:00:00Z</time>
				</trkpt>
				<trkpt lat="52.85745" lon="-0.39108">
					<ele>39</ele>
					<time>0001-01-01T00:00:00Z</time>
				</trkpt>
				<trkpt lat="52.85749" lon="-0.39110">
					<ele>40</ele>
					<time>0001-01-01T00:00:00Z</time>
				</trkpt>
				<trkpt lat="52.85750" lon="-0.39114">
					<ele>37</ele>
					<time>0001-01-01T00:00:00Z</time>
				</trkpt>
				<trkpt lat="52.85801" lon="-0.39159">
					<ele>36</ele>
					<time>0001-01-01T00:00:00Z</time>
				</trkpt>
				<trkpt lat="52.85816" lon="-0.39138">
					<ele>34</ele>
					<time>0001-01-01T00:00:00Z</time>
				</trkpt>
				<trkpt lat="52.85850" lon="-0.39019">
					<ele>29</ele>
					<time>0001-01-01T00:00:00Z</time>
				</trkpt>
				<trkpt lat="52.85923" lon="-0.38937">
					<ele>28</ele>
					<time>0001-01-01T00:00:00Z</time>
				</trkpt>
				<trkpt lat="52.85936" lon="-0.38914">
					<ele>28</ele>
					<time>0001-01-01T00:00:00Z</time>
				</trkpt>
				<trkpt lat="52.85955" lon="-0.38906">
					<ele>26</ele>
					<time>0001-01-01T00:00:00Z</time>
				</trkpt>
				<trkpt lat="52.85987" lon="-0.38909">
					<ele>27</ele>
					<time>0001-01-01T00:00:00Z</time>
				</trkpt>
				<trkpt lat="52.86022" lon="-0.38707">
					<ele>30</ele>
					<time>0001-01-01T00:00:00Z</time>
				</trkpt>
				<trkpt lat="52.86062" lon="-0.38570">
					<ele>34</ele>
					<time>0001-01-01T00:00:00Z</time>
				</trkpt>
				<trkpt lat="52.86084" lon="-0.38535">
					<ele>35</ele>
					<time>0001-01-01T00:00:00Z</time>
				</trkpt>
				<trkpt lat="52.86110" lon="-0.38518">
					<ele>36</ele>
					<time>0001-01-01T00:00:00Z</time>
				</trkpt>
				<trkpt lat="52.86131" lon="-0.38491">
					<ele>36</ele>
					<time>0001-01-01T00:00:00Z</time>
				</trkpt>
				<trkpt lat="52.86229" lon="-0.38319">
					<ele>37</ele>
					<time>0001-01-01T00:00:00Z</time>
				</trkpt>
				<trkpt lat="52.86303" lon="-0.38063">
					<ele>38</ele>
					<time>0001-01-01T00:00:00Z</time>
				</trkpt>
				<trkpt lat="52.86307" lon="-0.37963">
					<ele>37</ele>
					<time>0001-01-01T00:00:00Z</time>
				</trkpt>
				<trkpt lat="52.86305" lon="-0.37891">
					<ele>35</ele>
					<time>0001-01-01T00:00:00Z</time>
				</trkpt>
				<trkpt lat="52.86302" lon="-0.37827">
					<ele>35</ele>
					<time>0001-01-01T00:00:00Z</time>
				</trkpt>
				<trkpt lat="52.86307" lon="-0.37737">
					<ele>35</ele>
					<time>0001-01-01T00:00:00Z</time>
				</trkpt>
				<trkpt lat="52.86309" lon="-0.37656">
					<ele>35</ele>
					<time>0001-01-01T00:00:00Z</time>
				</trkpt>
				<trkpt lat="52.86290" lon="-0.37602">
					<ele>33</ele>
					<time>0001-01-01T00:00:00Z</time>
				</trkpt>
				<trkpt lat="52.86286" lon="-0.37596">
					<ele>33</ele>
					<time>0001-01-01T00:00:00Z</time>
				</trkpt>
				<trkpt lat="52.86290" lon="-0.37597">
					<ele>33</ele>
					<time>0001-01-01T00:00:00Z</time>
				</trkpt>
				<trkpt lat="52.86390" lon="-0.37577">
					<ele>38</ele>
					<time>0001-01-01T00:00:00Z</time>
				</trkpt>
				<trkpt lat="52.86540" lon="-0.37590">
					<ele>43</ele>
					<time>0001-01-01T00:00:00Z</time>
				</trkpt>
				<trkpt lat="52.86672" lon="-0.37608">
					<ele>44</ele>
					<time>0001-01-01T00:00:00Z</time>
				</trkpt>
				<trkpt lat="52.86771" lon="-0.37614">
					<ele>45</ele>
					<time>0001-01-01T00:00:00Z</time>
				</trkpt>
				<trkpt lat="52.86894" lon="-0.37622">
					<ele>41</ele>
					<time>0001-01-01T00:00:00Z</time>
				</trkpt>
				<trkpt lat="52.87000" lon="-0.37637">
					<ele>37</ele>
					<time>0001-01-01T00:00:00Z</time>
				</trkpt>
				<trkpt lat="52.87092" lon="-0.37619">
					<ele>36</ele>
					<time>0001-01-01T00:00:00Z</time>
				</trkpt>
				<trkpt lat="52.87198" lon="-0.37625">
					<ele>36</ele>
					<time>0001-01-01T00:00:00Z</time>
				</trkpt>
				<trkpt lat="52.87302" lon="-0.37646">
					<ele>31</ele>
					<time>0001-01-01T00:00:00Z</time>
				</trkpt>
				<trkpt lat="52.87367" lon="-0.37652">
					<ele>28</ele>
					<time>0001-01-01T00:00:00Z</time>
				</trkpt>
				<trkpt lat="52.87453" lon="-0.37676">
					<ele>25</ele>
					<time>0001-01-01T00:00:00Z</time>
				</trkpt>
				<trkpt lat="52.87480" lon="-0.37683">
					<ele>23</ele>
					<time>0001-01-01T00:00:00Z</time>
				</trkpt>
				<trkpt lat="52.87585" lon="-0.37708">
					<ele>20</ele>
					<time>0001-01-01T00:00:00Z</time>
				</trkpt>
				<trkpt lat="52.87752" lon="-0.37699">
					<ele>24</ele>
					<time>0001-01-01T00:00:00Z</time>
				</trkpt>
				<trkpt lat="52.87901" lon="-0.37682">
					<ele>27</ele>
					<time>0001-01-01T00:00:00Z</time>
				</trkpt>
				<trkpt lat="52.88070" lon="-0.37692">
					<ele>33</ele>
					<time>0001-01-01T00:00:00Z</time>
				</trkpt>
				<trkpt lat="52.88183" lon="-0.37708">
					<ele>39</ele>
					<time>0001-01-01T00:00:00Z</time>
				</trkpt>
				<trkpt lat="52.88279" lon="-0.37672">
					<ele>39</ele>
					<time>0001-01-01T00:00:00Z</time>
				</trkpt>
				<trkpt lat="52.88349" lon="-0.37650">
					<ele>37</ele>
					<time>0001-01-01T00:00:00Z</time>
				</trkpt>
				<trkpt lat="52.88463" lon="-0.37683">
					<ele>34</ele>
					<time>0001-01-01T00:00:00Z</time>
				</trkpt>
				<trkpt lat="52.88582" lon="-0.37701">
					<ele>31</ele>
					<time>0001-01-01T00:00:00Z</time>
				</trkpt>
				<trkpt lat="52.88690" lon="-0.37700">
					<ele>28</ele>
					<time>0001-01-01T00:00:00Z</time>
				</trkpt>
				<trkpt lat="52.88782" lon="-0.37679">
					<ele>24</ele>
					<time>0001-01-01T00:00:00Z</time>
				</trkpt>
				<trkpt lat="52.88862" lon="-0.37645">
					<ele>22</ele>
					<time>0001-01-01T00:00:00Z</time>
				</trkpt>
				<trkpt lat="52.88967" lon="-0.37586">
					<ele>18</ele>
					<time>0001-01-01T00:00:00Z</time>
				</trkpt>
				<trkpt lat="52.89097" lon="-0.37530">
					<ele>15</ele>
					<time>0001-01-01T00:00:00Z</time>
				</trkpt>
				<trkpt lat="52.89191" lon="-0.37518">
					<ele>15</ele>
					<time>0001-01-01T00:00:00Z</time>
				</trkpt>
				<trkpt lat="52.89251" lon="-0.37558">
					<ele>19</ele>
					<time>0001-01-01T00:00:00Z</time>
				</trkpt>
				<trkpt lat="52.89310" lon="-0.37595">
					<ele>22</ele>
					<time>0001-01-01T00:00:00Z</time>
				</trkpt>
				<trkpt lat="52.89334" lon="-0.37599">
					<ele>22</ele>
					<time>0001-01-01T00:00:00Z</time>
				</trkpt>
				<trkpt lat="52.89344" lon="-0.37600">
					<ele>23</ele>
					<time>0001-01-01T00:00:00Z</time>
				</trkpt>
				<trkpt lat="52.89468" lon="-0.37579">
					<ele>22</ele>
					<time>0001-01-01T00:00:00Z</time>
				</trkpt>
				<trkpt lat="52.89599" lon="-0.37553">
					<ele>21</ele>
					<time>0001-01-01T00:00:00Z</time>
				</trkpt>
				<trkpt lat="52.89744" lon="-0.37543">
					<ele>20</ele>
					<time>0001-01-01T00:00:00Z</time>
				</trkpt>
				<trkpt lat="52.89900" lon="-0.37509">
					<ele>21</ele>
					<time>0001-01-01T00:00:00Z</time>
				</trkpt>
				<trkpt lat="52.90083" lon="-0.37491">
					<ele>28</ele>
					<time>0001-01-01T00:00:00Z</time>
				</trkpt>
				<trkpt lat="52.90193" lon="-0.37514">
					<ele>30</ele>
					<time>0001-01-01T00:00:00Z</time>
				</trkpt>
				<trkpt lat="52.90299" lon="-0.37523">
					<ele>28</ele>
					<time>0001-01-01T00:00:00Z</time>
				</trkpt>
				<trkpt lat="52.90434" lon="-0.37550">
					<ele>28</ele>
					<time>0001-01-01T00:00:00Z</time>
				</trkpt>
				<trkpt lat="52.90565" lon="-0.37560">
					<ele>28</ele>
					<time>0001-01-01T00:00:00Z</time>
				</trkpt>
				<trkpt lat="52.90685" lon="-0.37556">
					<ele>25</ele>
					<time>0001-01-01T00:00:00Z</time>
				</trkpt>
				<trkpt lat="52.90813" lon="-0.37561">
					<ele>26</ele>
					<time>0001-01-01T00:00:00Z</time>
				</trkpt>
				<trkpt lat="52.90935" lon="-0.37593">
					<ele>27</ele>
					<time>0001-01-01T00:00:00Z</time>
				</trkpt>
				<trkpt lat="52.91112" lon="-0.37625">
					<ele>25</ele>
					<time>0001-01-01T00:00:00Z</time>
				</trkpt>
				<trkpt lat="52.91244" lon="-0.37659">
					<ele>25</ele>
					<time>0001-01-01T00:00:00Z</time>
				</trkpt>
				<trkpt lat="52.91368" lon="-0.37705">
					<ele>25</ele>
					<time>0001-01-01T00:00:00Z</time>
				</trkpt>
				<trkpt lat="52.91391" lon="-0.37721">
					<ele>26</ele>
					<time>0001-01-01T00:00:00Z</time>
				</trkpt>
				<trkpt lat="52.91413" lon="-0.37733">
					<ele>26</ele>
					<time>0001-01-01T00:00:00Z</time>
				</trkpt>
				<trkpt lat="52.91429" lon="-0.37751">
					<ele>26</ele>
					<time>0001-01-01T00:00:00Z</time>
				</trkpt>
				<trkpt lat="52.91506" lon="-0.37781">
					<ele>27</ele>
					<time>0001-01-01T00:00:00Z</time>
				</trkpt>
				<trkpt lat="52.91627" lon="-0.37788">
					<ele>27</ele>
					<time>0001-01-01T00:00:00Z</time>
				</trkpt>
				<trkpt lat="52.91724" lon="-0.37790">
					<ele>28</ele>
					<time>0001-01-01T00:00:00Z</time>
				</trkpt>
				<trkpt lat="52.91795" lon="-0.37794">
					<ele>25</ele>
					<time>0001-01-01T00:00:00Z</time>
				</trkpt>
				<trkpt lat="52.91877" lon="-0.37811">
					<ele>20</ele>
					<time>0001-01-01T00:00:00Z</time>
				</trkpt>
				<trkpt lat="52.91964" lon="-0.37827">
					<ele>15</ele>
					<time>0001-01-01T00:00:00Z</time>
				</trkpt>
				<trkpt lat="52.92099" lon="-0.37841">
					<ele>13</ele>
					<time>0001-01-01T00:00:00Z</time>
				</trkpt>
				<trkpt lat="52.92232" lon="-0.37870">
					<ele>11</ele>
					<time>0001-01-01T00:00:00Z</time>
				</trkpt>
				<trkpt lat="52.92358" lon="-0.37907">
					<ele>11</ele>
					<time>0001-01-01T00:00:00Z</time>
				</trkpt>
				<trkpt lat="52.92467" lon="-0.37934">
					<ele>10</ele>
					<time>0001-01-01T00:00:00Z</time>
				</trkpt>
				<trkpt lat="52.92556" lon="-0.37938">
					<ele>11</ele>
					<time>0001-01-01T00:00:00Z</time>
				</trkpt>
				<trkpt lat="52.92674" lon="-0.37920">
					<ele>13</ele>
					<time>0001-01-01T00:00:00Z</time>
				</trkpt>
				<trkpt lat="52.92813" lon="-0.37921">
					<ele>15</ele>
					<time>0001-01-01T00:00:00Z</time>
				</trkpt>
				<trkpt lat="52.92961" lon="-0.37949">
					<ele>12</ele>
					<time>0001-01-01T00:00:00Z</time>
				</trkpt>
				<trkpt lat="52.93079" lon="-0.37999">
					<ele>11</ele>
					<time>0001-01-01T00:00:00Z</time>
				</trkpt>
				<trkpt lat="52.93229" lon="-0.38046">
					<ele>11</ele>
					<time>0001-01-01T00:00:00Z</time>
				</trkpt>
				<trkpt lat="52.93346" lon="-0.38075">
					<ele>11</ele>
					<time>0001-01-01T00:00:00Z</time>
				</trkpt>
				<trkpt lat="52.93469" lon="-0.38113">
					<ele>11</ele>
					<time>0001-01-01T00:00:00Z</time>
				</trkpt>
				<trkpt lat="52.93576" lon="-0.38148">
					<ele>11</ele>
					<time>0001-01-01T00:00:00Z</time>
				</trkpt>
				<trkpt lat="52.93708" lon="-0.38187">
					<ele>11</ele>
					<time>0001-01-01T00:00:00Z</time>
				</trkpt>
				<trkpt lat="52.93829" lon="-0.38228">
					<ele>11</ele>
					<time>0001-01-01T00:00:00Z</time>
				</trkpt>
				<trkpt lat="52.93967" lon="-0.38277">
					<ele>11</ele>
					<time>0001-01-01T00:00:00Z</time>
				</trkpt>
				<trkpt lat="52.94079" lon="-0.38314">
					<ele>10</ele>
					<time>0001-01-01T00:00:00Z</time>
				</trkpt>
				<trkpt lat="52.94192" lon="-0.38353">
					<ele>10</ele>
					<time>0001-01-01T00:00:00Z</time>
				</trkpt>
				<trkpt lat="52.94338" lon="-0.38400">
					<ele>10</ele>
					<time>0001-01-01T00:00:00Z</time>
				</trkpt>
				<trkpt lat="52.94484" lon="-0.38443">
					<ele>10</ele>
					<time>0001-01-01T00:00:00Z</time>
				</trkpt>
				<trkpt lat="52.94597" lon="-0.38469">
					<ele>9</ele>
					<time>0001-01-01T00:00:00Z</time>
				</trkpt>
				<trkpt lat="52.94722" lon="-0.38495">
					<ele>9</ele>
					<time>0001-01-01T00:00:00Z</time>
				</trkpt>
				<trkpt lat="52.94867" lon="-0.38520">
					<ele>9</ele>
					<time>0001-01-01T00:00:00Z</time>
				</trkpt>
				<trkpt lat="52.95005" lon="-0.38545">
					<ele>9</ele>
					<time>0001-01-01T00:00:00Z</time>
				</trkpt>
				<trkpt lat="52.95011" lon="-0.38547">
					<ele>9</ele>
					<time>0001-01-01T00:00:00Z</time>
				</trkpt>
				<trkpt lat="52.95139" lon="-0.38579">
					<ele>8</ele>
					<time>0001-01-01T00:00:00Z</time>
				</trkpt>
				<trkpt lat="52.95285" lon="-0.38602">
					<ele>8</ele>
					<time>0001-01-01T00:00:00Z</time>
				</trkpt>
				<trkpt lat="52.95435" lon="-0.38639">
					<ele>10</ele>
					<time>0001-01-01T00:00:00Z</time>
				</trkpt>
				<trkpt lat="52.95557" lon="-0.38666">
					<ele>9</ele>
					<time>0001-01-01T00:00:00Z</time>
				</trkpt>
				<trkpt lat="52.95707" lon="-0.38698">
					<ele>10</ele>
					<time>0001-01-01T00:00:00Z</time>
				</trkpt>
				<trkpt lat="52.95855" lon="-0.38728">
					<ele>11</ele>
					<time>0001-01-01T00:00:00Z</time>
				</trkpt>
				<trkpt lat="52.95979" lon="-0.38752">
					<ele>11</ele>
					<time>0001-01-01T00:00:00Z</time>
				</trkpt>
				<trkpt lat="52.96106" lon="-0.38773">
					<ele>9</ele>
					<time>0001-01-01T00:00:00Z</time>
				</trkpt>
				<trkpt lat="52.96247" lon="-0.38788">
					<ele>14</ele>
					<time>0001-01-01T00:00:00Z</time>
				</trkpt>
				<trkpt lat="52.96360" lon="-0.38769">
					<ele>14</ele>
					<time>0001-01-01T00:00:00Z</time>
				</trkpt>
				<trkpt lat="52.96503" lon="-0.38733">
					<ele>14</ele>
					<time>0001-01-01T00:00:00Z</time>
				</trkpt>
				<trkpt lat="52.96665" lon="-0.38720">
					<ele>13</ele>
					<time>0001-01-01T00:00:00Z</time>
				</trkpt>
				<trkpt lat="52.96846" lon="-0.38716">
					<ele>13</ele>
					<time>0001-01-01T00:00:00Z</time>
				</trkpt>
				<trkpt lat="52.97023" lon="-0.38704">
					<ele>11</ele>
					<time>0001-01-01T00:00:00Z</time>
				</trkpt>
				<trkpt lat="52.97161" lon="-0.38695">
					<ele>10</ele>
					<time>0001-01-01T00:00:00Z</time>
				</trkpt>
				<trkpt lat="52.97348" lon="-0.38695">
					<ele>10</ele>
					<time>0001-01-01T00:00:00Z</time>
				</trkpt>
				<trkpt lat="52.97468" lon="-0.38701">
					<ele>10</ele>
					<time>0001-01-01T00:00:00Z</time>
				</trkpt>
				<trkpt lat="52.97634" lon="-0.38703">
					<ele>10</ele>
					<time>0001-01-01T00:00:00Z</time>
				</trkpt>
				<trkpt lat="52.97817" lon="-0.38705">
					<ele>11</ele>
					<time>0001-01-01T00:00:00Z</time>
				</trkpt>
				<trkpt lat="52.98024" lon="-0.38705">
					<ele>12</ele>
					<time>0001-01-01T00:00:00Z</time>
				</trkpt>
				<trkpt lat="52.98165" lon="-0.38723">
					<ele>11</ele>
					<time>0001-01-01T00:00:00Z</time>
				</trkpt>
				<trkpt lat="52.98352" lon="-0.38747">
					<ele>12</ele>
					<time>0001-01-01T00:00:00Z</time>
				</trkpt>
				<trkpt lat="52.98527" lon="-0.38821">
					<ele>13</ele>
					<time>0001-01-01T00:00:00Z</time>
				</trkpt>
				<trkpt lat="52.98689" lon="-0.38926">
					<ele>14</ele>
					<time>0001-01-01T00:00:00Z</time>
				</trkpt>
				<trkpt lat="52.98877" lon="-0.39053">
					<ele>15</ele>
					<time>0001-01-01T00:00:00Z</time>
				</trkpt>
				<trkpt lat="52.98883" lon="-0.39058">
					<ele>15</ele>
					<time>0001-01-01T00:00:00Z</time>
				</trkpt>
				<trkpt lat="52.98918" lon="-0.39140">
					<ele>15</ele>
					<time>0001-01-01T00:00:00Z</time>
				</trkpt>
				<trkpt lat="52.98898" lon="-0.39392">
					<ele>16</ele>
					<time>0001-01-01T00:00:00Z</time>
				</trkpt>
				<trkpt lat="52.98895" lon="-0.39788">
					<ele>16</ele>
					<time>0001-01-01T00:00:00Z</time>
				</trkpt>
				<trkpt lat="52.98900" lon="-0.40071">
					<ele>18</ele>
					<time>0001-01-01T00:00:00Z</time>
				</trkpt>
				<trkpt lat="52.98930" lon="-0.40140">
					<ele>17</ele>
					<time>0001-01-01T00:00:00Z</time>
				</trkpt>
				<trkpt lat="52.99105" lon="-0.40172">
					<ele>15</ele>
					<time>0001-01-01T00:00:00Z</time>
				</trkpt>
				<trkpt lat="52.99137" lon="-0.40200">
					<ele>15</ele>
					<time>0001-01-01T00:00:00Z</time>
				</trkpt>
				<trkpt lat="52.99148" lon="-0.40246">
					<ele>16</ele>
					<time>0001-01-01T00:00:00Z</time>
				</trkpt>
				<trkpt lat="52.99204" lon="-0.40417">
					<ele>16</ele>
					<time>0001-01-01T00:00:00Z</time>
				</trkpt>
				<trkpt lat="52.99343" lon="-0.40578">
					<ele>17</ele>
					<time>0001-01-01T00:00:00Z</time>
				</trkpt>
				<trkpt lat="52.99484" lon="-0.40743">
					<ele>16</ele>
					<time>0001-01-01T00:00:00Z</time>
				</trkpt>
				<trkpt lat="52.99516" lon="-0.40801">
					<ele>16</ele>
					<time>0001-01-01T00:00:00Z</time>
				</trkpt>
				<trkpt lat="52.99528" lon="-0.40857">
					<ele>16</ele>
					<time>0001-01-01T00:00:00Z</time>
				</trkpt>
				<trkpt lat="52.99546" lon="-0.40849">
					<ele>16</ele>
					<time>0001-01-01T00:00:00Z</time>
				</trkpt>
				<trkpt lat="52.99567" lon="-0.40843">
					<ele>16</ele>
					<time>0001-01-01T00:00:00Z</time>
				</trkpt>
				<trkpt lat="52.99578" lon="-0.40847">
					<ele>16</ele>
					<time>0001-01-01T00:00:00Z</time>
				</trkpt>
				<trkpt lat="52.99629" lon="-0.40875">
					<ele>15</ele>
					<time>0001-01-01T00:00:00Z</time>
				</trkpt>
				<trkpt lat="52.99664" lon="-0.40863">
					<ele>14</ele>
					<time>0001-01-01T00:00:00Z</time>
				</trkpt>
				<trkpt lat="52.99695" lon="-0.40741">
					<ele>13</ele>
					<time>0001-01-01T00:00:00Z</time>
				</trkpt>
				<trkpt lat="52.99731" lon="-0.40714">
					<ele>13</ele>
					<time>0001-01-01T00:00:00Z</time>
				</trkpt>
				<trkpt lat="52.99833" lon="-0.40811">
					<ele>14</ele>
					<time>0001-01-01T00:00:00Z</time>
				</trkpt>
				<trkpt lat="52.99926" lon="-0.40875">
					<ele>14</ele>
					<time>0001-01-01T00:00:00Z</time>
				</trkpt>
				<trkpt lat="52.99939" lon="-0.40900">
					<ele>14</ele>
					<time>0001-01-01T00:00:00Z</time>
				</trkpt>
				<trkpt lat="52.99945" lon="-0.40885">
					<ele>14</ele>
					<time>0001-01-01T00:00:00Z</time>
				</trkpt>
				<trkpt lat="52.99990" lon="-0.40733">
					<ele>14</ele>
					<time>0001-01-01T00:00:00Z</time>
				</trkpt>
				<trkpt lat="52.99992" lon="-0.40720">
					<ele>15</ele>
					<time>0001-01-01T00:00:00Z</time>
				</trkpt>
				<trkpt lat="52.99996" lon="-0.40678">
					<ele>15</ele>
					<time>0001-01-01T00:00:00Z</time>
				</trkpt>
				<trkpt lat="53.00007" lon="-0.40622">
					<ele>15</ele>
					<time>0001-01-01T00:00:00Z</time>
				</trkpt>
				<trkpt lat="53.00037" lon="-0.40566">
					<ele>15</ele>
					<time>0001-01-01T00:00:00Z</time>
				</trkpt>
				<trkpt lat="53.00067" lon="-0.40531">
					<ele>16</ele>
					<time>0001-01-01T00:00:00Z</time>
				</trkpt>
				<trkpt lat="53.00094" lon="-0.40491">
					<ele>16</ele>
					<time>0001-01-01T00:00:00Z</time>
				</trkpt>
				<trkpt lat="53.00154" lon="-0.40273">
					<ele>15</ele>
					<time>0001-01-01T00:00:00Z</time>
				</trkpt>
				<trkpt lat="53.00301" lon="-0.39864">
					<ele>19</ele>
					<time>0001-01-01T00:00:00Z</time>
				</trkpt>
				<trkpt lat="53.00425" lon="-0.39722">
					<ele>18</ele>
					<time>0001-01-01T00:00:00Z</time>
				</trkpt>
				<trkpt lat="53.00609" lon="-0.39597">
					<ele>18</ele>
					<time>0001-01-01T00:00:00Z</time>
				</trkpt>
				<trkpt lat="53.00731" lon="-0.39503">
					<ele>21</ele>
					<time>0001-01-01T00:00:00Z</time>
				</trkpt>
				<trkpt lat="53.00750" lon="-0.39489">
					<ele>21</ele>
					<time>0001-01-01T00:00:00Z</time>
				</trkpt>
				<trkpt lat="53.00862" lon="-0.39411">
					<ele>20</ele>
					<time>0001-01-01T00:00:00Z</time>
				</trkpt>
				<trkpt lat="53.00986" lon="-0.39342">
					<ele>15</ele>
					<time>0001-01-01T00:00:00Z</time>
				</trkpt>
				<trkpt lat="53.01010" lon="-0.39310">
					<ele>15</ele>
					<time>0001-01-01T00:00:00Z</time>
				</trkpt>
				<trkpt lat="53.01015" lon="-0.39291">
					<ele>15</ele>
					<time>0001-01-01T00:00:00Z</time>
				</trkpt>
				<trkpt lat="53.01018" lon="-0.39281">
					<ele>15</ele>
					<time>0001-01-01T00:00:00Z</time>
				</trkpt>
				<trkpt lat="53.01066" lon="-0.39258">
					<ele>15</ele>
					<time>0001-01-01T00:00:00Z</time>
				</trkpt>
				<trkpt lat="53.01075" lon="-0.39267">
					<ele>15</ele>
					<time>0001-01-01T00:00:00Z</time>
				</trkpt>
				<trkpt lat="53.01107" lon="-0.39280">
					<ele>15</ele>
					<time>0001-01-01T00:00:00Z</time>
				</trkpt>
				<trkpt lat="53.01119" lon="-0.39277">
					<ele>15</ele>
					<time>0001-01-01T00:00:00Z</time>
				</trkpt>
				<trkpt lat="53.01273" lon="-0.39203">
					<ele>14</ele>
					<time>0001-01-01T00:00:00Z</time>
				</trkpt>
				<trkpt lat="53.01442" lon="-0.39125">
					<ele>14</ele>
					<time>0001-01-01T00:00:00Z</time>
				</trkpt>
				<trkpt lat="53.01583" lon="-0.39060">
					<ele>15</ele>
					<time>0001-01-01T00:00:00Z</time>
				</trkpt>
				<trkpt lat="53.01723" lon="-0.38994">
					<ele>15</ele>
					<time>0001-01-01T00:00:00Z</time>
				</trkpt>
				<trkpt lat="53.01868" lon="-0.38927">
					<ele>15</ele>
					<time>0001-01-01T00:00:00Z</time>
				</trkpt>
				<trkpt lat="53.01995" lon="-0.38870">
					<ele>15</ele>
					<time>0001-01-01T00:00:00Z</time>
				</trkpt>
				<trkpt lat="53.02143" lon="-0.38804">
					<ele>14</ele>
					<time>0001-01-01T00:00:00Z</time>
				</trkpt>
				<trkpt lat="53.02260" lon="-0.38753">
					<ele>15</ele>
					<time>0001-01-01T00:00:00Z</time>
				</trkpt>
				<trkpt lat="53.02389" lon="-0.38695">
					<ele>15</ele>
					<time>0001-01-01T00:00:00Z</time>
				</trkpt>
				<trkpt lat="53.02538" lon="-0.38630">
					<ele>15</ele>
					<time>0001-01-01T00:00:00Z</time>
				</trkpt>
				<trkpt lat="53.02695" lon="-0.38559">
					<ele>15</ele>
					<time>0001-01-01T00:00:00Z</time>
				</trkpt>
				<trkpt lat="53.02830" lon="-0.38503">
					<ele>15</ele>
					<time>0001-01-01T00:00:00Z</time>
				</trkpt>
				<trkpt lat="53.02950" lon="-0.38477">
					<ele>15</ele>
					<time>0001-01-01T00:00:00Z</time>
				</trkpt>
				<trkpt lat="53.03063" lon="-0.38483">
					<ele>15</ele>
					<time>0001-01-01T00:00:00Z</time>
				</trkpt>
				<trkpt lat="53.03213" lon="-0.38497">
					<ele>15</ele>
					<time>0001-01-01T00:00:00Z</time>
				</trkpt>
				<trkpt lat="53.03247" lon="-0.38484">
					<ele>15</ele>
					<time>0001-01-01T00:00:00Z</time>
				</trkpt>
				<trkpt lat="53.03288" lon="-0.38499">
					<ele>16</ele>
					<time>0001-01-01T00:00:00Z</time>
				</trkpt>
				<trkpt lat="53.03456" lon="-0.38518">
					<ele>16</ele>
					<time>0001-01-01T00:00:00Z</time>
				</trkpt>
				<trkpt lat="53.03617" lon="-0.38532">
					<ele>16</ele>
					<time>0001-01-01T00:00:00Z</time>
				</trkpt>
				<trkpt lat="53.03805" lon="-0.38549">
					<ele>16</ele>
					<time>0001-01-01T00:00:00Z</time>
				</trkpt>
				<trkpt lat="53.03968" lon="-0.38562">
					<ele>15</ele>
					<time>0001-01-01T00:00:00Z</time>
				</trkpt>
				<trkpt lat="53.04118" lon="-0.38574">
					<ele>16</ele>
					<time>0001-01-01T00:00:00Z</time>
				</trkpt>
				<trkpt lat="53.04284" lon="-0.38587">
					<ele>15</ele>
					<time>0001-01-01T00:00:00Z</time>
				</trkpt>
				<trkpt lat="53.04432" lon="-0.38597">
					<ele>16</ele>
					<time>0001-01-01T00:00:00Z</time>
				</trkpt>
				<trkpt lat="53.04443" lon="-0.38596">
					<ele>16</ele>
					<time>0001-01-01T00:00:00Z</time>
				</trkpt>
				<trkpt lat="53.04467" lon="-0.38610">
					<ele>16</ele>
					<time>0001-01-01T00:00:00Z</time>
				</trkpt>
				<trkpt lat="53.04480" lon="-0.38703">
					<ele>17</ele>
					<time>0001-01-01T00:00:00Z</time>
				</trkpt>
				<trkpt lat="53.04476" lon="-0.38959">
					<ele>17</ele>
					<time>0001-01-01T00:00:00Z</time>
				</trkpt>
				<trkpt lat="53.04468" lon="-0.39218">
					<ele>18</ele>
					<time>0001-01-01T00:00:00Z</time>
				</trkpt>
				<trkpt lat="53.04459" lon="-0.39457">
					<ele>18</ele>
					<time>0001-01-01T00:00:00Z</time>
				</trkpt>
				<trkpt lat="53.04478" lon="-0.39509">
					<ele>18</ele>
					<time>0001-01-01T00:00:00Z</time>
				</trkpt>
				<trkpt lat="53.04529" lon="-0.39500">
					<ele>18</ele>
					<time>0001-01-01T00:00:00Z</time>
				</trkpt>
				<trkpt lat="53.04657" lon="-0.39538">
					<ele>18</ele>
					<time>0001-01-01T00:00:00Z</time>
				</trkpt>
				<trkpt lat="53.04820" lon="-0.39602">
					<ele>18</ele>
					<time>0001-01-01T00:00:00Z</time>
				</trkpt>
				<trkpt lat="53.04993" lon="-0.39632">
					<ele>20</ele>
					<time>0001-01-01T00:00:00Z</time>
				</trkpt>
				<trkpt lat="53.05188" lon="-0.39645">
					<ele>21</ele>
					<time>0001-01-01T00:00:00Z</time>
				</trkpt>
				<trkpt lat="53.05325" lon="-0.39625">
					<ele>20</ele>
					<time>0001-01-01T00:00:00Z</time>
				</trkpt>
				<trkpt lat="53.05480" lon="-0.39652">
					<ele>21</ele>
					<time>0001-01-01T00:00:00Z</time>
				</trkpt>
				<trkpt lat="53.05638" lon="-0.39639">
					<ele>20</ele>
					<time>0001-01-01T00:00:00Z</time>
				</trkpt>
				<trkpt lat="53.05789" lon="-0.39620">
					<ele>22</ele>
					<time>0001-01-01T00:00:00Z</time>
				</trkpt>
				<trkpt lat="53.05928" lon="-0.39602">
					<ele>21</ele>
					<time>0001-01-01T00:00:00Z</time>
				</trkpt>
				<trkpt lat="53.06042" lon="-0.39595">
					<ele>22</ele>
					<time>0001-01-01T00:00:00Z</time>
				</trkpt>
				<trkpt lat="53.06179" lon="-0.39543">
					<ele>23</ele>
					<time>0001-01-01T00:00:00Z</time>
				</trkpt>
				<trkpt lat="53.06330" lon="-0.39525">
					<ele>28</ele>
					<time>0001-01-01T00:00:00Z</time>
				</trkpt>
				<trkpt lat="53.06489" lon="-0.39530">
					<ele>30</ele>
					<time>0001-01-01T00:00:00Z</time>
				</trkpt>
				<trkpt lat="53.06604" lon="-0.39546">
					<ele>31</ele>
					<time>0001-01-01T00:00:00Z</time>
				</trkpt>
				<trkpt lat="53.06633" lon="-0.39554">
					<ele>31</ele>
					<time>0001-01-01T00:00:00Z</time>
				</trkpt>
				<trkpt lat="53.06656" lon="-0.39561">
					<ele>31</ele>
					<time>0001-01-01T00:00:00Z</time>
				</trkpt>
				<trkpt lat="53.06678" lon="-0.39565">
					<ele>31</ele>
					<time>0001-01-01T00:00:00Z</time>
				</trkpt>
				<trkpt lat="53.06687" lon="-0.39566">
					<ele>31</ele>
					<time>0001-01-01T00:00:00Z</time>
				</trkpt>
				<trkpt lat="53.06732" lon="-0.39571">
					<ele>30</ele>
					<time>0001-01-01T00:00:00Z</time>
				</trkpt>
				<trkpt lat="53.06838" lon="-0.39582">
					<ele>28</ele>
					<time>0001-01-01T00:00:00Z</time>
				</trkpt>
				<trkpt lat="53.06954" lon="-0.39617">
					<ele>23</ele>
					<time>0001-01-01T00:00:00Z</time>
				</trkpt>
				<trkpt lat="53.07021" lon="-0.39599">
					<ele>23</ele>
					<time>0001-01-01T00:00:00Z</time>
				</trkpt>
				<trkpt lat="53.07148" lon="-0.39567">
					<ele>22</ele>
					<time>0001-01-01T00:00:00Z</time>
				</trkpt>
				<trkpt lat="53.07264" lon="-0.39505">
					<ele>22</ele>
					<time>0001-01-01T00:00:00Z</time>
				</trkpt>
				<trkpt lat="53.07370" lon="-0.39447">
					<ele>22</ele>
					<time>0001-01-01T00:00:00Z</time>
				</trkpt>
				<trkpt lat="53.07498" lon="-0.39385">
					<ele>21</ele>
					<time>0001-01-01T00:00:00Z</time>
				</trkpt>
				<trkpt lat="53.07618" lon="-0.39313">
					<ele>22</ele>
					<time>0001-01-01T00:00:00Z</time>
				</trkpt>
				<trkpt lat="53.07708" lon="-0.39301">
					<ele>18</ele>
					<time>0001-01-01T00:00:00Z</time>
				</trkpt>
				<trkpt lat="53.07816" lon="-0.39294">
					<ele>21</ele>
					<time>0001-01-01T00:00:00Z</time>
				</trkpt>
				<trkpt lat="53.07958" lon="-0.39274">
					<ele>24</ele>
					<time>0001-01-01T00:00:00Z</time>
				</trkpt>
				<trkpt lat="53.08106" lon="-0.39238">
					<ele>25</ele>
					<time>0001-01-01T00:00:00Z</time>
				</trkpt>
				<trkpt lat="53.08246" lon="-0.39212">
					<ele>25</ele>
					<time>0001-01-01T00:00:00Z</time>
				</trkpt>
				<trkpt lat="53.08350" lon="-0.39211">
					<ele>25</ele>
					<time>0001-01-01T00:00:00Z</time>
				</trkpt>
				<trkpt lat="53.08467" lon="-0.39186">
					<ele>23</ele>
					<time>0001-01-01T00:00:00Z</time>
				</trkpt>
				<trkpt lat="53.08569" lon="-0.39203">
					<ele>24</ele>
					<time>0001-01-01T00:00:00Z</time>
				</trkpt>
				<trkpt lat="53.08685" lon="-0.39313">
					<ele>23</ele>
					<time>0001-01-01T00:00:00Z</time>
				</trkpt>
				<trkpt lat="53.08836" lon="-0.39370">
					<ele>24</ele>
					<time>0001-01-01T00:00:00Z</time>
				</trkpt>
				<trkpt lat="53.08949" lon="-0.39394">
					<ele>21</ele>
					<time>0001-01-01T00:00:00Z</time>
				</trkpt>
				<trkpt lat="53.09108" lon="-0.39426">
					<ele>22</ele>
					<time>0001-01-01T00:00:00Z</time>
				</trkpt>
				<trkpt lat="53.09138" lon="-0.39447">
					<ele>23</ele>
					<time>0001-01-01T00:00:00Z</time>
				</trkpt>
				<trkpt lat="53.09155" lon="-0.39475">
					<ele>23</ele>
					<time>0001-01-01T00:00:00Z</time>
				</trkpt>
				<trkpt lat="53.09281" lon="-0.39718">
					<ele>26</ele>
					<time>0001-01-01T00:00:00Z</time>
				</trkpt>
				<trkpt lat="53.09307" lon="-0.39745">
					<ele>26</ele>
					<time>0001-01-01T00:00:00Z</time>
				</trkpt>
				<trkpt lat="53.09432" lon="-0.39791">
					<ele>28</ele>
					<time>0001-01-01T00:00:00Z</time>
				</trkpt>
				<trkpt lat="53.09532" lon="-0.39820">
					<ele>25</ele>
					<time>0001-01-01T00:00:00Z</time>
				</trkpt>
				<trkpt lat="53.09680" lon="-0.39873">
					<ele>24</ele>
					<time>0001-01-01T00:00:00Z</time>
				</trkpt>
				<trkpt lat="53.09832" lon="-0.39971">
					<ele>23</ele>
					<time>0001-01-01T00:00:00Z</time>
				</trkpt>
				<trkpt lat="53.09994" lon="-0.40055">
					<ele>25</ele>
					<time>0001-01-01T00:00:00Z</time>
				</trkpt>
				<trkpt lat="53.10126" lon="-0.40137">
					<ele>26</ele>
					<time>0001-01-01T00:00:00Z</time>
				</trkpt>
				<trkpt lat="53.10269" lon="-0.40220">
					<ele>24</ele>
					<time>0001-01-01T00:00:00Z</time>
				</trkpt>
				<trkpt lat="53.10468" lon="-0.40344">
					<ele>25</ele>
					<time>0001-01-01T00:00:00Z</time>
				</trkpt>
				<trkpt lat="53.10586" lon="-0.40429">
					<ele>24</ele>
					<time>0001-01-01T00:00:00Z</time>
				</trkpt>
				<trkpt lat="53.10671" lon="-0.40571">
					<ele>23</ele>
					<time>0001-01-01T00:00:00Z</time>
				</trkpt>
				<trkpt lat="53.10742" lon="-0.40625">
					<ele>22</ele>
					<time>0001-01-01T00:00:00Z</time>
				</trkpt>
				<trkpt lat="53.10912" lon="-0.40694">
					<ele>21</ele>
					<time>0001-01-01T00:00:00Z</time>
				</trkpt>
				<trkpt lat="53.11085" lon="-0.40737">
					<ele>30</ele>
					<time>0001-01-01T00:00:00Z</time>
				</trkpt>
				<trkpt lat="53.11292" lon="-0.40815">
					<ele>33</ele>
					<time>0001-01-01T00:00:00Z</time>
				</trkpt>
				<trkpt lat="53.11488" lon="-0.40863">
					<ele>32</ele>
					<time>0001-01-01T00:00:00Z</time>
				</trkpt>
				<trkpt lat="53.11662" lon="-0.40858">
					<ele>32</ele>
					<time>0001-01-01T00:00:00Z</time>
				</trkpt>
				<trkpt lat="53.11861" lon="-0.40839">
					<ele>32</ele>
					<time>0001-01-01T00:00:00Z</time>
				</trkpt>
				<trkpt lat="53.12039" lon="-0.40794">
					<ele>30</ele>
					<time>0001-01-01T00:00:00Z</time>
				</trkpt>
				<trkpt lat="53.12214" lon="-0.40683">
					<ele>28</ele>
					<time>0001-01-01T00:00:00Z</time>
				</trkpt>
				<trkpt lat="53.12364" lon="-0.40617">
					<ele>27</ele>
					<time>0001-01-01T00:00:00Z</time>
				</trkpt>
				<trkpt lat="53.12471" lon="-0.40642">
					<ele>25</ele>
					<time>0001-01-01T00:00:00Z</time>
				</trkpt>
				<trkpt lat="53.12577" lon="-0.40645">
					<ele>16</ele>
					<time>0001-01-01T00:00:00Z</time>
				</trkpt>
				<trkpt lat="53.12758" lon="-0.40596">
					<ele>15</ele>
					<time>0001-01-01T00:00:00Z</time>
				</trkpt>
				<trkpt lat="53.12831" lon="-0.40584">
					<ele>15</ele>
					<time>0001-01-01T00:00:00Z</time>
				</trkpt>
				<trkpt lat="53.12984" lon="-0.40647">
					<ele>16</ele>
					<time>0001-01-01T00:00:00Z</time>
				</trkpt>
				<trkpt lat="53.13138" lon="-0.40750">
					<ele>21</ele>
					<time>0001-01-01T00:00:00Z</time>
				</trkpt>
				<trkpt lat="53.13257" lon="-0.40862">
					<ele>23</ele>
					<time>0001-01-01T00:00:00Z</time>
				</trkpt>
				<trkpt lat="53.13404" lon="-0.40948">
					<ele>25</ele>
					<time>0001-01-01T00:00:00Z</time>
				</trkpt>
				<trkpt lat="53.13527" lon="-0.41024">
					<ele>26</ele>
					<time>0001-01-01T00:00:00Z</time>
				</trkpt>
				<trkpt lat="53.13693" lon="-0.41187">
					<ele>30</ele>
					<time>0001-01-01T00:00:00Z</time>
				</trkpt>
				<trkpt lat="53.13829" lon="-0.41333">
					<ele>28</ele>
					<time>0001-01-01T00:00:00Z</time>
				</trkpt>
				<trkpt lat="53.13970" lon="-0.41459">
					<ele>28</ele>
					<time>0001-01-01T00:00:00Z</time>
				</trkpt>
				<trkpt lat="53.14132" lon="-0.41605">
					<ele>30</ele>
					<time>0001-01-01T00:00:00Z</time>
				</trkpt>
				<trkpt lat="53.14300" lon="-0.41749">
					<ele>32</ele>
					<time>0001-01-01T00:00:00Z</time>
				</trkpt>
				<trkpt lat="53.14441" lon="-0.41815">
					<ele>31</ele>
					<time>0001-01-01T00:00:00Z</time>
				</trkpt>
				<trkpt lat="53.14595" lon="-0.41811">
					<ele>25</ele>
					<time>0001-01-01T00:00:00Z</time>
				</trkpt>
				<trkpt lat="53.14681" lon="-0.41842">
					<ele>18</ele>
					<time>0001-01-01T00:00:00Z</time>
				</trkpt>
				<trkpt lat="53.14720" lon="-0.41897">
					<ele>17</ele>
					<time>0001-01-01T00:00:00Z</time>
				</trkpt>
				<trkpt lat="53.14816" lon="-0.42074">
					<ele>22</ele>
					<time>0001-01-01T00:00:00Z</time>
				</trkpt>
				<trkpt lat="53.14909" lon="-0.42158">
					<ele>28</ele>
					<time>0001-01-01T00:00:00Z</time>
				</trkpt>
				<trkpt lat="53.15059" lon="-0.42206">
					<ele>29</ele>
					<time>0001-01-01T00:00:00Z</time>
				</trkpt>
				<trkpt lat="53.15256" lon="-0.42262">
					<ele>30</ele>
					<time>0001-01-01T00:00:00Z</time>
				</trkpt>
				<trkpt lat="53.15434" lon="-0.42308">
					<ele>28</ele>
					<time>0001-01-01T00:00:00Z</time>
				</trkpt>
				<trkpt lat="53.15562" lon="-0.42426">
					<ele>29</ele>
					<time>0001-01-01T00:00:00Z</time>
				</trkpt>
				<trkpt lat="53.15710" lon="-0.42650">
					<ele>33</ele>
					<time>0001-01-01T00:00:00Z</time>
				</trkpt>
				<trkpt lat="53.15810" lon="-0.42838">
					<ele>37</ele>
					<time>0001-01-01T00:00:00Z</time>
				</trkpt>
				<trkpt lat="53.15913" lon="-0.43091">
					<ele>38</ele>
					<time>0001-01-01T00:00:00Z</time>
				</trkpt>
				<trkpt lat="53.16038" lon="-0.43249">
					<ele>38</ele>
					<time>0001-01-01T00:00:00Z</time>
				</trkpt>
				<trkpt lat="53.16220" lon="-0.43367">
					<ele>38</ele>
					<time>0001-01-01T00:00:00Z</time>
				</trkpt>
				<trkpt lat="53.16473" lon="-0.43501">
					<ele>32</ele>
					<time>0001-01-01T00:00:00Z</time>
				</trkpt>
				<trkpt lat="53.16607" lon="-0.43595">
					<ele>36</ele>
					<time>0001-01-01T00:00:00Z</time>
				</trkpt>
				<trkpt lat="53.16733" lon="-0.43705">
					<ele>33</ele>
					<time>0001-01-01T00:00:00Z</time>
				</trkpt>
				<trkpt lat="53.16859" lon="-0.43848">
					<ele>34</ele>
					<time>0001-01-01T00:00:00Z</time>
				</trkpt>
				<trkpt lat="53.16958" lon="-0.43930">
					<ele>38</ele>
					<time>0001-01-01T00:00:00Z</time>
				</trkpt>
				<trkpt lat="53.17114" lon="-0.44023">
					<ele>41</ele>
					<time>0001-01-01T00:00:00Z</time>
				</trkpt>
				<trkpt lat="53.17280" lon="-0.44149">
					<ele>41</ele>
					<time>0001-01-01T00:00:00Z</time>
				</trkpt>
				<trkpt lat="53.17461" lon="-0.44373">
					<ele>40</ele>
					<time>0001-01-01T00:00:00Z</time>
				</trkpt>
				<trkpt lat="53.17620" lon="-0.44521">
					<ele>36</ele>
					<time>0001-01-01T00:00:00Z</time>
				</trkpt>
				<trkpt lat="53.17790" lon="-0.44699">
					<ele>32</ele>
					<time>0001-01-01T00:00:00Z</time>
				</trkpt>
				<trkpt lat="53.17869" lon="-0.44792">
					<ele>35</ele>
					<time>0001-01-01T00:00:00Z</time>
				</trkpt>
				<trkpt lat="53.18004" lon="-0.44980">
					<ele>40</ele>
					<time>0001-01-01T00:00:00Z</time>
				</trkpt>
				<trkpt lat="53.18118" lon="-0.45173">
					<ele>43</ele>
					<time>0001-01-01T00:00:00Z</time>
				</trkpt>
				<trkpt lat="53.18250" lon="-0.45431">
					<ele>44</ele>
					<time>0001-01-01T00:00:00Z</time>
				</trkpt>
				<trkpt lat="53.18402" lon="-0.45641">
					<ele>40</ele>
					<time>0001-01-01T00:00:00Z</time>
				</trkpt>
				<trkpt lat="53.18527" lon="-0.45826">
					<ele>43</ele>
					<time>0001-01-01T00:00:00Z</time>
				</trkpt>
				<trkpt lat="53.18592" lon="-0.45924">
					<ele>43</ele>
					<time>0001-01-01T00:00:00Z</time>
				</trkpt>
				<trkpt lat="53.18613" lon="-0.45953">
					<ele>44</ele>
					<time>0001-01-01T00:00:00Z</time>
				</trkpt>
				<trkpt lat="53.18699" lon="-0.46080">
					<ele>43</ele>
					<time>0001-01-01T00:00:00Z</time>
				</trkpt>
				<trkpt lat="53.18860" lon="-0.46317">
					<ele>44</ele>
					<time>0001-01-01T00:00:00Z</time>
				</trkpt>
				<trkpt lat="53.19018" lon="-0.46546">
					<ele>45</ele>
					<time>0001-01-01T00:00:00Z</time>
				</trkpt>
				<trkpt lat="53.19055" lon="-0.46590">
					<ele>44</ele>
					<time>0001-01-01T00:00:00Z</time>
				</trkpt>
				<trkpt lat="53.19133" lon="-0.46621">
					<ele>43</ele>
					<time>0001-01-01T00:00:00Z</time>
				</trkpt>
				<trkpt lat="53.19230" lon="-0.46758">
					<ele>40</ele>
					<time>0001-01-01T00:00:00Z</time>
				</trkpt>
				<trkpt lat="53.19299" lon="-0.46915">
					<ele>42</ele>
					<time>0001-01-01T00:00:00Z</time>
				</trkpt>
				<trkpt lat="53.19306" lon="-0.46932">
					<ele>42</ele>
					<time>0001-01-01T00:00:00Z</time>
				</trkpt>
				<trkpt lat="53.19322" lon="-0.46981">
					<ele>42</ele>
					<time>0001-01-01T00:00:00Z</time>
				</trkpt>
				<trkpt lat="53.19360" lon="-0.47145">
					<ele>39</ele>
					<time>0001-01-01T00:00:00Z</time>
				</trkpt>
				<trkpt lat="53.19379" lon="-0.47349">
					<ele>32</ele>
					<time>0001-01-01T00:00:00Z</time>
				</trkpt>
				<trkpt lat="53.19400" lon="-0.47425">
					<ele>32</ele>
					<time>0001-01-01T00:00:00Z</time>
				</trkpt>
				<trkpt lat="53.19473" lon="-0.47566">
					<ele>34</ele>
					<time>0001-01-01T00:00:00Z</time>
				</trkpt>
				<trkpt lat="53.19529" lon="-0.47706">
					<ele>39</ele>
					<time>0001-01-01T00:00:00Z</time>
				</trkpt>
				<trkpt lat="53.19590" lon="-0.47914">
					<ele>41</ele>
					<time>0001-01-01T00:00:00Z</time>
				</trkpt>
				<trkpt lat="53.19591" lon="-0.47922">
					<ele>40</ele>
					<time>0001-01-01T00:00:00Z</time>
				</trkpt>
				<trkpt lat="53.19591" lon="-0.47924">
					<ele>40</ele>
					<time>0001-01-01T00:00:00Z</time>
				</trkpt>
				<trkpt lat="53.19594" lon="-0.47900">
					<ele>41</ele>
					<time>0001-01-01T00:00:00Z</time>
				</trkpt>
				<trkpt lat="53.19540" lon="-0.47725">
					<ele>39</ele>
					<time>0001-01-01T00:00:00Z</time>
				</trkpt>
				<trkpt lat="53.19470" lon="-0.47555">
					<ele>33</ele>
					<time>0001-01-01T00:00:00Z</time>
				</trkpt>
				<trkpt lat="53.19395" lon="-0.47405">
					<ele>29</ele>
					<time>0001-01-01T00:00:00Z</time>
				</trkpt>
				<trkpt lat="53.19381" lon="-0.47331">
					<ele>30</ele>
					<time>0001-01-01T00:00:00Z</time>
				</trkpt>
				<trkpt lat="53.19367" lon="-0.47164">
					<ele>36</ele>
					<time>0001-01-01T00:00:00Z</time>
				</trkpt>
				<trkpt lat="53.19340" lon="-0.47022">
					<ele>40</ele>
					<time>0001-01-01T00:00:00Z</time>
				</trkpt>
				<trkpt lat="53.19322" lon="-0.46962">
					<ele>40</ele>
					<time>0001-01-01T00:00:00Z</time>
				</trkpt>
				<trkpt lat="53.19332" lon="-0.46938">
					<ele>40</ele>
					<time>0001-01-01T00:00:00Z</time>
				</trkpt>
				<trkpt lat="53.19456" lon="-0.46882">
					<ele>41</ele>
					<time>0001-01-01T00:00:00Z</time>
				</trkpt>
				<trkpt lat="53.19669" lon="-0.46821">
					<ele>42</ele>
					<time>0001-01-01T00:00:00Z</time>
				</trkpt>
				<trkpt lat="53.19905" lon="-0.46782">
					<ele>40</ele>
					<time>0001-01-01T00:00:00Z</time>
				</trkpt>
				<trkpt lat="53.20136" lon="-0.46776">
					<ele>37</ele>
					<time>0001-01-01T00:00:00Z</time>
				</trkpt>
				<trkpt lat="53.20326" lon="-0.46825">
					<ele>35</ele>
					<time>0001-01-01T00:00:00Z</time>
				</trkpt>
				<trkpt lat="53.20486" lon="-0.46772">
					<ele>33</ele>
					<time>0001-01-01T00:00:00Z</time>
				</trkpt>
				<trkpt lat="53.20700" lon="-0.46749">
					<ele>32</ele>
					<time>0001-01-01T00:00:00Z</time>
				</trkpt>
				<trkpt lat="53.20891" lon="-0.46688">
					<ele>27</ele>
					<time>0001-01-01T00:00:00Z</time>
				</trkpt>
				<trkpt lat="53.20911" lon="-0.46679">
					<ele>26</ele>
					<time>0001-01-01T00:00:00Z</time>
				</trkpt>
				<trkpt lat="53.20925" lon="-0.46660">
					<ele>25</ele>
					<time>0001-01-01T00:00:00Z</time>
				</trkpt>
				<trkpt lat="53.20929" lon="-0.46623">
					<ele>25</ele>
					<time>0001-01-01T00:00:00Z</time>
				</trkpt>
				<trkpt lat="53.20926" lon="-0.46649">
					<ele>25</ele>
					<time>0001-01-01T00:00:00Z</time>
				</trkpt>
				<trkpt lat="53.20957" lon="-0.46668">
					<ele>23</ele>
					<time>0001-01-01T00:00:00Z</time>
				</trkpt>
				<trkpt lat="53.21107" lon="-0.46648">
					<ele>20</ele>
					<time>0001-01-01T00:00:00Z</time>
				</trkpt>
				<trkpt lat="53.21236" lon="-0.46689">
					<ele>15</ele>
					<time>0001-01-01T00:00:00Z</time>
				</trkpt>
				<trkpt lat="53.21256" lon="-0.46753">
					<ele>14</ele>
					<time>0001-01-01T00:00:00Z</time>
				</trkpt>
				<trkpt lat="53.21245" lon="-0.46923">
					<ele>15</ele>
					<time>0001-01-01T00:00:00Z</time>
				</trkpt>
				<trkpt lat="53.21278" lon="-0.46970">
					<ele>15</ele>
					<time>0001-01-01T00:00:00Z</time>
				</trkpt>
				<trkpt lat="53.21417" lon="-0.47010">
					<ele>19</ele>
					<time>0001-01-01T00:00:00Z</time>
				</trkpt>
				<trkpt lat="53.21537" lon="-0.47046">
					<ele>23</ele>
					<time>0001-01-01T00:00:00Z</time>
				</trkpt>
				<trkpt lat="53.21683" lon="-0.47117">
					<ele>25</ele>
					<time>0001-01-01T00:00:00Z</time>
				</trkpt>
				<trkpt lat="53.21704" lon="-0.47129">
					<ele>26</ele>
					<time>0001-01-01T00:00:00Z</time>
				</trkpt>
				<trkpt lat="53.21766" lon="-0.47153">
					<ele>26</ele>
					<time>0001-01-01T00:00:00Z</time>
				</trkpt>
				<trkpt lat="53.21917" lon="-0.47187">
					<ele>24</ele>
					<time>0001-01-01T00:00:00Z</time>
				</trkpt>
				<trkpt lat="53.21974" lon="-0.47230">
					<ele>20</ele>
					<time>0001-01-01T00:00:00Z</time>
				</trkpt>
				<trkpt lat="53.21999" lon="-0.47160">
					<ele>17</ele>
					<time>0001-01-01T00:00:00Z</time>
				</trkpt>
				<trkpt lat="53.22077" lon="-0.46927">
					<ele>12</ele>
					<time>0001-01-01T00:00:00Z</time>
				</trkpt>
				<trkpt lat="53.22140" lon="-0.46815">
					<ele>9</ele>
					<time>0001-01-01T00:00:00Z</time>
				</trkpt>
				<trkpt lat="53.22174" lon="-0.46786">
					<ele>8</ele>
					<time>0001-01-01T00:00:00Z</time>
				</trkpt>
				<trkpt lat="53.22217" lon="-0.46783">
					<ele>7</ele>
					<time>0001-01-01T00:00:00Z</time>
				</trkpt>
				<trkpt lat="53.22342" lon="-0.46835">
					<ele>3</ele>
					<time>0001-01-01T00:00:00Z</time>
				</trkpt>
				<trkpt lat="53.22361" lon="-0.46840">
					<ele>3</ele>
					<time>0001-01-01T00:00:00Z</time>
				</trkpt>
				<trkpt lat="53.22369" lon="-0.46808">
					<ele>3</ele>
					<time>0001-01-01T00:00:00Z</time>
				</trkpt>
				<trkpt lat="53.22342" lon="-0.46639">
					<ele>2</ele>
					<time>0001-01-01T00:00:00Z</time>
				</trkpt>
				<trkpt lat="53.22340" lon="-0.46568">
					<ele>3</ele>
					<time>0001-01-01T00:00:00Z</time>
				</trkpt>
				<trkpt lat="53.22356" lon="-0.46565">
					<ele>2</ele>
					<time>0001-01-01T00:00:00Z</time>
				</trkpt>
				<trkpt lat="53.22394" lon="-0.46561">
					<ele>3</ele>
					<time>0001-01-01T00:00:00Z</time>
				</trkpt>
				<trkpt lat="53.22397" lon="-0.46554">
					<ele>4</ele>
					<time>0001-01-01T00:00:00Z</time>
				</trkpt>
				<trkpt lat="53.22399" lon="-0.46547">
					<ele>4</ele>
					<time>0001-01-01T00:00:00Z</time>
				</trkpt>
				<trkpt lat="53.22396" lon="-0.46523">
					<ele>3</ele>
					<time>0001-01-01T00:00:00Z</time>
				</trkpt>
				<trkpt lat="53.22400" lon="-0.46526">
					<ele>7</ele>
					<time>0001-01-01T00:00:00Z</time>
				</trkpt>
				<trkpt lat="53.22400" lon="-0.46527">
					<ele>11</ele>
					<time>0001-01-01T00:00:00Z</time>
				</trkpt>
				<trkpt lat="53.22400" lon="-0.46532">
					<ele>10</ele>
					<time>0001-01-01T00:00:00Z</time>
				</trkpt>
				<trkpt lat="53.22395" lon="-0.46532">
					<ele>11</ele>
					<time>0001-01-01T00:00:00Z</time>
				</trkpt>
				<trkpt lat="53.22381" lon="-0.46537">
					<ele>6</ele>
					<time>0001-01-01T00:00:00Z</time>
				</trkpt>
				<trkpt lat="53.22384" lon="-0.46541">
					<ele>6</ele>
					<time>0001-01-01T00:00:00Z</time>
				</trkpt>
				<trkpt lat="53.22392" lon="-0.46540">
					<ele>3</ele>
					<time>0001-01-01T00:00:00Z</time>
				</trkpt>
				<trkpt lat="53.22414" lon="-0.46532">
					<ele>17</ele>
					<time>0001-01-01T00:00:00Z</time>
				</trkpt>
				<trkpt lat="53.22403" lon="-0.46522">
					<ele>8</ele>
					<time>0001-01-01T00:00:00Z</time>
				</trkpt>
				<trkpt lat="53.22405" lon="-0.46522">
					<ele>8</ele>
					<time>0001-01-01T00:00:00Z</time>
				</trkpt>
				<trkpt lat="53.22409" lon="-0.46529">
					<ele>10</ele>
					<time>0001-01-01T00:00:00Z</time>
				</trkpt>
				<trkpt lat="53.22414" lon="-0.46547">
					<ele>11</ele>
					<time>0001-01-01T00:00:00Z</time>
				</trkpt>
				<trkpt lat="53.22408" lon="-0.46553">
					<ele>16</ele>
					<time>0001-01-01T00:00:00Z</time>
				</trkpt>
				<trkpt lat="53.22398" lon="-0.46524">
					<ele>14</ele>
					<time>0001-01-01T00:00:00Z</time>
				</trkpt>
				<trkpt lat="53.22401" lon="-0.46522">
					<ele>12</ele>
					<time>0001-01-01T00:00:00Z</time>
				</trkpt>
				<trkpt lat="53.22412" lon="-0.46530">
					<ele>9</ele>
					<time>0001-01-01T00:00:00Z</time>
				</trkpt>
				<trkpt lat="53.22405" lon="-0.46525">
					<ele>4</ele>
					<time>0001-01-01T00:00:00Z</time>
				</trkpt>
				<trkpt lat="53.22395" lon="-0.46521">
					<ele>8</ele>
					<time>0001-01-01T00:00:00Z</time>
				</trkpt>
				<trkpt lat="53.22401" lon="-0.46526">
					<ele>7</ele>
					<time>0001-01-01T00:00:00Z</time>
				</trkpt>
				<trkpt lat="53.22402" lon="-0.46527">
					<ele>6</ele>
					<time>0001-01-01T00:00:00Z</time>
				</trkpt>
				<trkpt lat="53.22400" lon="-0.46550">
					<ele>7</ele>
					<time>0001-01-01T00:00:00Z</time>
				</trkpt>
				<trkpt lat="53.22401" lon="-0.46550">
					<ele>9</ele>
					<time>0001-01-01T00:00:00Z</time>
				</trkpt>
				<trkpt lat="53.22401" lon="-0.46563">
					<ele>8</ele>
					<time>0001-01-01T00:00:00Z</time>
				</trkpt>
				<trkpt lat="53.22399" lon="-0.46563">
					<ele>7</ele>
					<time>0001-01-01T00:00:00Z</time>
				</trkpt>
				<trkpt lat="53.22388" lon="-0.46564">
					<ele>6</ele>
					<time>0001-01-01T00:00:00Z</time>
				</trkpt>
				<trkpt lat="53.22345" lon="-0.46560">
					<ele>5</ele>
					<time>0001-01-01T00:00:00Z</time>
				</trkpt>
				<trkpt lat="53.22342" lon="-0.46559">
					<ele>5</ele>
					<time>0001-01-01T00:00:00Z</time>
				</trkpt>
				<trkpt lat="53.22331" lon="-0.46490">
					<ele>3</ele>
					<time>0001-01-01T00:00:00Z</time>
				</trkpt>
				<trkpt lat="53.22310" lon="-0.46307">
					<ele>2</ele>
					<time>0001-01-01T00:00:00Z</time>
				</trkpt>
				<trkpt lat="53.22275" lon="-0.46045">
					<ele>2</ele>
					<time>0001-01-01T00:00:00Z</time>
				</trkpt>
				<trkpt lat="53.22240" lon="-0.45791">
					<ele>2</ele>
					<time>0001-01-01T00:00:00Z</time>
				</trkpt>
				<trkpt lat="53.22217" lon="-0.45568">
					<ele>2</ele>
					<time>0001-01-01T00:00:00Z</time>
				</trkpt>
				<trkpt lat="53.22194" lon="-0.45267">
					<ele>0</ele>
					<time>0001-01-01T00:00:00Z</time>
				</trkpt>
				<trkpt lat="53.22163" lon="-0.44948">
					<ele>1</ele>
					<time>0001-01-01T00:00:00Z</time>
				</trkpt>
				<trkpt lat="53.22137" lon="-0.44647">
					<ele>1</ele>
					<time>0001-01-01T00:00:00Z</time>
				</trkpt>
				<trkpt lat="53.22132" lon="-0.44353">
					<ele>1</ele>
					<time>0001-01-01T00:00:00Z</time>
				</trkpt>
				<trkpt lat="53.22086" lon="-0.44066">
					<ele>0</ele>
					<time>0001-01-01T00:00:00Z</time>
				</trkpt>
				<trkpt lat="53.22006" lon="-0.43838">
					<ele>0</ele>
					<time>0001-01-01T00:00:00Z</time>
				</trkpt>
				<trkpt lat="53.21978" lon="-0.43770">
					<ele>0</ele>
					<time>0001-01-01T00:00:00Z</time>
				</trkpt>
				<trkpt lat="53.21966" lon="-0.43751">
					<ele>0</ele>
					<time>0001-01-01T00:00:00Z</time>
				</trkpt>
				<trkpt lat="53.21870" lon="-0.43671">
					<ele>0</ele>
					<time>0001-01-01T00:00:00Z</time>
				</trkpt>
				<trkpt lat="53.21795" lon="-0.43577">
					<ele>1</ele>
					<time>0001-01-01T00:00:00Z</time>
				</trkpt>
				<trkpt lat="53.21787" lon="-0.43482">
					<ele>1</ele>
					<time>0001-01-01T00:00:00Z</time>
				</trkpt>
				<trkpt lat="53.21791" lon="-0.43473">
					<ele>1</ele>
					<time>0001-01-01T00:00:00Z</time>
				</trkpt>
				<trkpt lat="53.21898" lon="-0.43213">
					<ele>1</ele>
					<time>0001-01-01T00:00:00Z</time>
				</trkpt>
				<trkpt lat="53.21969" lon="-0.43041">
					<ele>1</ele>
					<time>0001-01-01T00:00:00Z</time>
				</trkpt>
				<trkpt lat="53.21953" lon="-0.42996">
					<ele>1</ele>
					<time>0001-01-01T00:00:00Z</time>
				</trkpt>
				<trkpt lat="53.21825" lon="-0.42850">
					<ele>0</ele>
					<time>0001-01-01T00:00:00Z</time>
				</trkpt>
				<trkpt lat="53.21709" lon="-0.42669">
					<ele>1</ele>
					<time>0001-01-01T00:00:00Z</time>
				</trkpt>
				<trkpt lat="53.21575" lon="-0.42358">
					<ele>0</ele>
					<time>0001-01-01T00:00:00Z</time>
				</trkpt>
				<trkpt lat="53.21419" lon="-0.42144">
					<ele>2</ele>
					<time>0001-01-01T00:00:00Z</time>
				</trkpt>
				<trkpt lat="53.21251" lon="-0.41922">
					<ele>2</ele>
					<time>0001-01-01T00:00:00Z</time>
				</trkpt>
				<trkpt lat="53.21074" lon="-0.41667">
					<ele>1</ele>
					<time>0001-01-01T00:00:00Z</time>
				</trkpt>
				<trkpt lat="53.20980" lon="-0.41483">
					<ele>1</ele>
					<time>0001-01-01T00:00:00Z</time>
				</trkpt>
				<trkpt lat="53.20851" lon="-0.41233">
					<ele>1</ele>
					<time>0001-01-01T00:00:00Z</time>
				</trkpt>
				<trkpt lat="53.20729" lon="-0.41049">
					<ele>2</ele>
					<time>0001-01-01T00:00:00Z</time>
				</trkpt>
				<trkpt lat="53.20589" lon="-0.40830">
					<ele>2</ele>
					<time>0001-01-01T00:00:00Z</time>
				</trkpt>
				<trkpt lat="53.20440" lon="-0.40564">
					<ele>1</ele>
					<time>0001-01-01T00:00:00Z</time>
				</trkpt>
				<trkpt lat="53.20290" lon="-0.40301">
					<ele>1</ele>
					<time>0001-01-01T00:00:00Z</time>
				</trkpt>
				<trkpt lat="53.20146" lon="-0.40036">
					<ele>1</ele>
					<time>0001-01-01T00:00:00Z</time>
				</trkpt>
				<trkpt lat="53.20012" lon="-0.39767">
					<ele>2</ele>
					<time>0001-01-01T00:00:00Z</time>
				</trkpt>
				<trkpt lat="53.19876" lon="-0.39566">
					<ele>1</ele>
					<time>0001-01-01T00:00:00Z</time>
				</trkpt>
				<trkpt lat="53.19837" lon="-0.39524">
					<ele>1</ele>
					<time>0001-01-01T00:00:00Z</time>
				</trkpt>
				<trkpt lat="53.19817" lon="-0.39513">
					<ele>2</ele>
					<time>0001-01-01T00:00:00Z</time>
				</trkpt>
				<trkpt lat="53.19777" lon="-0.39504">
					<ele>2</ele>
					<time>0001-01-01T00:00:00Z</time>
				</trkpt>
				<trkpt lat="53.19746" lon="-0.39431">
					<ele>2</ele>
					<time>0001-01-01T00:00:00Z</time>
				</trkpt>
				<trkpt lat="53.19763" lon="-0.39261">
					<ele>0</ele>
					<time>0001-01-01T00:00:00Z</time>
				</trkpt>
				<trkpt lat="53.19793" lon="-0.39112">
					<ele>0</ele>
					<time>0001-01-01T00:00:00Z</time>
				</trkpt>
				<trkpt lat="53.19824" lon="-0.38941">
					<ele>0</ele>
					<time>0001-01-01T00:00:00Z</time>
				</trkpt>
				<trkpt lat="53.19864" lon="-0.38747">
					<ele>0</ele>
					<time>0001-01-01T00:00:00Z</time>
				</trkpt>
				<trkpt lat="53.19900" lon="-0.38557">
					<ele>-1</ele>
					<time>0001-01-01T00:00:00Z</time>
				</trkpt>
				<trkpt lat="53.19950" lon="-0.38299">
					<ele>-1</ele>
					<time>0001-01-01T00:00:00Z</time>
				</trkpt>
				<trkpt lat="53.19993" lon="-0.38060">
					<ele>-1</ele>
					<time>0001-01-01T00:00:00Z</time>
				</trkpt>
				<trkpt lat="53.20051" lon="-0.37753">
					<ele>0</ele>
					<time>0001-01-01T00:00:00Z</time>
				</trkpt>
				<trkpt lat="53.20106" lon="-0.37457">
					<ele>-1</ele>
					<time>0001-01-01T00:00:00Z</time>
				</trkpt>
				<trkpt lat="53.20156" lon="-0.37212">
					<ele>-1</ele>
					<time>0001-01-01T00:00:00Z</time>
				</trkpt>
				<trkpt lat="53.20196" lon="-0.36974">
					<ele>-1</ele>
					<time>0001-01-01T00:00:00Z</time>
				</trkpt>
				<trkpt lat="53.20247" lon="-0.36678">
					<ele>-1</ele>
					<time>0001-01-01T00:00:00Z</time>
				</trkpt>
				<trkpt lat="53.20293" lon="-0.36413">
					<ele>0</ele>
					<time>0001-01-01T00:00:00Z</time>
				</trkpt>
				<trkpt lat="53.20344" lon="-0.36121">
					<ele>0</ele>
					<time>0001-01-01T00:00:00Z</time>
				</trkpt>
				<trkpt lat="53.20398" lon="-0.35838">
					<ele>-1</ele>
					<time>0001-01-01T00:00:00Z</time>
				</trkpt>
				<trkpt lat="53.20476" lon="-0.35544">
					<ele>-1</ele>
					<time>0001-01-01T00:00:00Z</time>
				</trkpt>
				<trkpt lat="53.20562" lon="-0.35239">
					<ele>0</ele>
					<time>0001-01-01T00:00:00Z</time>
				</trkpt>
				<trkpt lat="53.20630" lon="-0.34947">
					<ele>0</ele>
					<time>0001-01-01T00:00:00Z</time>
				</trkpt>
				<trkpt lat="53.20699" lon="-0.34562">
					<ele>0</ele>
					<time>0001-01-01T00:00:00Z</time>
				</trkpt>
				<trkpt lat="53.20771" lon="-0.34226">
					<ele>0</ele>
					<time>0001-01-01T00:00:00Z</time>
				</trkpt>
				<trkpt lat="53.20828" lon="-0.33899">
					<ele>0</ele>
					<time>0001-01-01T00:00:00Z</time>
				</trkpt>
				<trkpt lat="53.20849" lon="-0.33784">
					<ele>1</ele>
					<time>0001-01-01T00:00:00Z</time>
				</trkpt>
				<trkpt lat="53.20821" lon="-0.33726">
					<ele>2</ele>
					<time>0001-01-01T00:00:00Z</time>
				</trkpt>
				<trkpt lat="53.20794" lon="-0.33713">
					<ele>3</ele>
					<time>0001-01-01T00:00:00Z</time>
				</trkpt>
				<trkpt lat="53.20782" lon="-0.33691">
					<ele>5</ele>
					<time>0001-01-01T00:00:00Z</time>
				</trkpt>
				<trkpt lat="53.20773" lon="-0.33650">
					<ele>5</ele>
					<time>0001-01-01T00:00:00Z</time>
				</trkpt>
				<trkpt lat="53.20769" lon="-0.33605">
					<ele>4</ele>
					<time>0001-01-01T00:00:00Z</time>
				</trkpt>
				<trkpt lat="53.20767" lon="-0.33523">
					<ele>3</ele>
					<time>0001-01-01T00:00:00Z</time>
				</trkpt>
				<trkpt lat="53.20774" lon="-0.33471">
					<ele>3</ele>
					<time>0001-01-01T00:00:00Z</time>
				</trkpt>
				<trkpt lat="53.20821" lon="-0.33247">
					<ele>5</ele>
					<time>0001-01-01T00:00:00Z</time>
				</trkpt>
				<trkpt lat="53.20893" lon="-0.32988">
					<ele>6</ele>
					<time>0001-01-01T00:00:00Z</time>
				</trkpt>
				<trkpt lat="53.20986" lon="-0.32767">
					<ele>10</ele>
					<time>0001-01-01T00:00:00Z</time>
				</trkpt>
				<trkpt lat="53.21043" lon="-0.32548">
					<ele>10</ele>
					<time>0001-01-01T00:00:00Z</time>
				</trkpt>
				<trkpt lat="53.21078" lon="-0.32453">
					<ele>9</ele>
					<time>0001-01-01T00:00:00Z</time>
				</trkpt>
				<trkpt lat="53.21094" lon="-0.32436">
					<ele>9</ele>
					<time>0001-01-01T00:00:00Z</time>
				</trkpt>
				<trkpt lat="53.21127" lon="-0.32387">
					<ele>7</ele>
					<time>0001-01-01T00:00:00Z</time>
				</trkpt>
				<trkpt lat="53.21140" lon="-0.32332">
					<ele>7</ele>
					<time>0001-01-01T00:00:00Z</time>
				</trkpt>
				<trkpt lat="53.21195" lon="-0.32270">
					<ele>6</ele>
					<time>0001-01-01T00:00:00Z</time>
				</trkpt>
				<trkpt lat="53.21210" lon="-0.32224">
					<ele>5</ele>
					<time>0001-01-01T00:00:00Z</time>
				</trkpt>
				<trkpt lat="53.21258" lon="-0.32037">
					<ele>5</ele>
					<time>0001-01-01T00:00:00Z</time>
				</trkpt>
				<trkpt lat="53.21300" lon="-0.32003">
					<ele>5</ele>
					<time>0001-01-01T00:00:00Z</time>
				</trkpt>
				<trkpt lat="53.21329" lon="-0.32018">
					<ele>5</ele>
					<time>0001-01-01T00:00:00Z</time>
				</trkpt>
				<trkpt lat="53.21335" lon="-0.32015">
					<ele>5</ele>
					<time>0001-01-01T00:00:00Z</time>
				</trkpt>
				<trkpt lat="53.21298" lon="-0.32000">
					<ele>5</ele>
					<time>0001-01-01T00:00:00Z</time>
				</trkpt>
				<trkpt lat="53.21289" lon="-0.31998">
					<ele>5</ele>
					<time>0001-01-01T00:00:00Z</time>
				</trkpt>
				<trkpt lat="53.21292" lon="-0.31994">
					<ele>5</ele>
					<time>0001-01-01T00:00:00Z</time>
				</trkpt>
				<trkpt lat="53.21305" lon="-0.32001">
					<ele>5</ele>
					<time>0001-01-01T00:00:00Z</time>
				</trkpt>
				<trkpt lat="53.21333" lon="-0.32017">
					<ele>5</ele>
					<time>0001-01-01T00:00:00Z</time>
				</trkpt>
				<trkpt lat="53.21396" lon="-0.32051">
					<ele>5</ele>
					<time>0001-01-01T00:00:00Z</time>
				</trkpt>
				<trkpt lat="53.21432" lon="-0.32022">
					<ele>5</ele>
					<time>0001-01-01T00:00:00Z</time>
				</trkpt>
				<trkpt lat="53.21443" lon="-0.32001">
					<ele>4</ele>
					<time>0001-01-01T00:00:00Z</time>
				</trkpt>
				<trkpt lat="53.21507" lon="-0.31982">
					<ele>4</ele>
					<time>0001-01-01T00:00:00Z</time>
				</trkpt>
				<trkpt lat="53.21650" lon="-0.32006">
					<ele>4</ele>
					<time>0001-01-01T00:00:00Z</time>
				</trkpt>
				<trkpt lat="53.21781" lon="-0.31964">
					<ele>5</ele>
					<time>0001-01-01T00:00:00Z</time>
				</trkpt>
				<trkpt lat="53.21934" lon="-0.31940">
					<ele>6</ele>
					<time>0001-01-01T00:00:00Z</time>
				</trkpt>
				<trkpt lat="53.22020" lon="-0.31947">
					<ele>6</ele>
					<time>0001-01-01T00:00:00Z</time>
				</trkpt>
				<trkpt lat="53.22068" lon="-0.31928">
					<ele>6</ele>
					<time>0001-01-01T00:00:00Z</time>
				</trkpt>
				<trkpt lat="53.22156" lon="-0.31839">
					<ele>3</ele>
					<time>0001-01-01T00:00:00Z</time>
				</trkpt>
				<trkpt lat="53.22241" lon="-0.31802">
					<ele>2</ele>
					<time>0001-01-01T00:00:00Z</time>
				</trkpt>
				<trkpt lat="53.22273" lon="-0.31763">
					<ele>2</ele>
					<time>0001-01-01T00:00:00Z</time>
				</trkpt>
				<trkpt lat="53.22436" lon="-0.31504">
					<ele>2</ele>
					<time>0001-01-01T00:00:00Z</time>
				</trkpt>
				<trkpt lat="53.22500" lon="-0.31486">
					<ele>1</ele>
					<time>0001-01-01T00:00:00Z</time>
				</trkpt>
				<trkpt lat="53.22600" lon="-0.31553">
					<ele>1</ele>
					<time>0001-01-01T00:00:00Z</time>
				</trkpt>
				<trkpt lat="53.22634" lon="-0.31597">
					<ele>2</ele>
					<time>0001-01-01T00:00:00Z</time>
				</trkpt>
				<trkpt lat="53.22682" lon="-0.31593">
					<ele>2</ele>
					<time>0001-01-01T00:00:00Z</time>
				</trkpt>
				<trkpt lat="53.22829" lon="-0.31479">
					<ele>2</ele>
					<time>0001-01-01T00:00:00Z</time>
				</trkpt>
				<trkpt lat="53.22916" lon="-0.31309">
					<ele>3</ele>
					<time>0001-01-01T00:00:00Z</time>
				</trkpt>
				<trkpt lat="53.23003" lon="-0.31105">
					<ele>3</ele>
					<time>0001-01-01T00:00:00Z</time>
				</trkpt>
				<trkpt lat="53.23041" lon="-0.31102">
					<ele>3</ele>
					<time>0001-01-01T00:00:00Z</time>
				</trkpt>
				<trkpt lat="53.23121" lon="-0.31164">
					<ele>3</ele>
					<time>0001-01-01T00:00:00Z</time>
				</trkpt>
				<trkpt lat="53.23159" lon="-0.31166">
					<ele>3</ele>
					<time>0001-01-01T00:00:00Z</time>
				</trkpt>
				<trkpt lat="53.23341" lon="-0.31102">
					<ele>7</ele>
					<time>0001-01-01T00:00:00Z</time>
				</trkpt>
				<trkpt lat="53.23515" lon="-0.31036">
					<ele>9</ele>
					<time>0001-01-01T00:00:00Z</time>
				</trkpt>
				<trkpt lat="53.23704" lon="-0.30973">
					<ele>10</ele>
					<time>0001-01-01T00:00:00Z</time>
				</trkpt>
				<trkpt lat="53.23801" lon="-0.30971">
					<ele>9</ele>
					<time>0001-01-01T00:00:00Z</time>
				</trkpt>
				<trkpt lat="53.23863" lon="-0.30918">
					<ele>8</ele>
					<time>0001-01-01T00:00:00Z</time>
				</trkpt>
				<trkpt lat="53.23895" lon="-0.30872">
					<ele>9</ele>
					<time>0001-01-01T00:00:00Z</time>
				</trkpt>
				<trkpt lat="53.24001" lon="-0.30803">
					<ele>12</ele>
					<time>0001-01-01T00:00:00Z</time>
				</trkpt>
				<trkpt lat="53.24183" lon="-0.30641">
					<ele>12</ele>
					<time>0001-01-01T00:00:00Z</time>
				</trkpt>
				<trkpt lat="53.24363" lon="-0.30541">
					<ele>9</ele>
					<time>0001-01-01T00:00:00Z</time>
				</trkpt>
				<trkpt lat="53.24513" lon="-0.30499">
					<ele>12</ele>
					<time>0001-01-01T00:00:00Z</time>
				</trkpt>
				<trkpt lat="53.24692" lon="-0.30402">
					<ele>14</ele>
					<time>0001-01-01T00:00:00Z</time>
				</trkpt>
				<trkpt lat="53.24915" lon="-0.30301">
					<ele>14</ele>
					<time>0001-01-01T00:00:00Z</time>
				</trkpt>
				<trkpt lat="53.25028" lon="-0.30209">
					<ele>14</ele>
					<time>0001-01-01T00:00:00Z</time>
				</trkpt>
				<trkpt lat="53.25191" lon="-0.30096">
					<ele>15</ele>
					<time>0001-01-01T00:00:00Z</time>
				</trkpt>
				<trkpt lat="53.25278" lon="-0.30038">
					<ele>15</ele>
					<time>0001-01-01T00:00:00Z</time>
				</trkpt>
				<trkpt lat="53.25317" lon="-0.30042">
					<ele>15</ele>
					<time>0001-01-01T00:00:00Z</time>
				</trkpt>
				<trkpt lat="53.25346" lon="-0.30055">
					<ele>15</ele>
					<time>0001-01-01T00:00:00Z</time>
				</trkpt>
				<trkpt lat="53.25371" lon="-0.30106">
					<ele>16</ele>
					<time>0001-01-01T00:00:00Z</time>
				</trkpt>
				<trkpt lat="53.25380" lon="-0.30141">
					<ele>16</ele>
					<time>0001-01-01T00:00:00Z</time>
				</trkpt>
				<trkpt lat="53.25407" lon="-0.30186">
					<ele>16</ele>
					<time>0001-01-01T00:00:00Z</time>
				</trkpt>
				<trkpt lat="53.25531" lon="-0.30245">
					<ele>14</ele>
					<time>0001-01-01T00:00:00Z</time>
				</trkpt>
				<trkpt lat="53.25703" lon="-0.30251">
					<ele>10</ele>
					<time>0001-01-01T00:00:00Z</time>
				</trkpt>
				<trkpt lat="53.25830" lon="-0.30234">
					<ele>8</ele>
					<time>0001-01-01T00:00:00Z</time>
				</trkpt>
				<trkpt lat="53.25871" lon="-0.30262">
					<ele>8</ele>
					<time>0001-01-01T00:00:00Z</time>
				</trkpt>
				<trkpt lat="53.25905" lon="-0.30323">
					<ele>9</ele>
					<time>0001-01-01T00:00:00Z</time>
				</trkpt>
				<trkpt lat="53.25960" lon="-0.30537">
					<ele>10</ele>
					<time>0001-01-01T00:00:00Z</time>
				</trkpt>
				<trkpt lat="53.26040" lon="-0.30696">
					<ele>15</ele>
					<time>0001-01-01T00:00:00Z</time>
				</trkpt>
				<trkpt lat="53.26153" lon="-0.30786">
					<ele>16</ele>
					<time>0001-01-01T00:00:00Z</time>
				</trkpt>
				<trkpt lat="53.26320" lon="-0.30776">
					<ele>15</ele>
					<time>0001-01-01T00:00:00Z</time>
				</trkpt>
				<trkpt lat="53.26497" lon="-0.30730">
					<ele>12</ele>
					<time>0001-01-01T00:00:00Z</time>
				</trkpt>
				<trkpt lat="53.26722" lon="-0.30659">
					<ele>11</ele>
					<time>0001-01-01T00:00:00Z</time>
				</trkpt>
				<trkpt lat="53.26992" lon="-0.30393">
					<ele>11</ele>
					<time>0001-01-01T00:00:00Z</time>
				</trkpt>
				<trkpt lat="53.27132" lon="-0.30305">
					<ele>15</ele>
					<time>0001-01-01T00:00:00Z</time>
				</trkpt>
				<trkpt lat="53.27282" lon="-0.30232">
					<ele>15</ele>
					<time>0001-01-01T00:00:00Z</time>
				</trkpt>
				<trkpt lat="53.27423" lon="-0.30174">
					<ele>13</ele>
					<time>0001-01-01T00:00:00Z</time>
				</trkpt>
				<trkpt lat="53.27586" lon="-0.30128">
					<ele>13</ele>
					<time>0001-01-01T00:00:00Z</time>
				</trkpt>
				<trkpt lat="53.27665" lon="-0.30139">
					<ele>13</ele>
					<time>0001-01-01T00:00:00Z</time>
				</trkpt>
				<trkpt lat="53.27680" lon="-0.30151">
					<ele>14</ele>
					<time>0001-01-01T00:00:00Z</time>
				</trkpt>
				<trkpt lat="53.27747" lon="-0.30244">
					<ele>17</ele>
					<time>0001-01-01T00:00:00Z</time>
				</trkpt>
				<trkpt lat="53.27759" lon="-0.30276">
					<ele>18</ele>
					<time>0001-01-01T00:00:00Z</time>
				</trkpt>
				<trkpt lat="53.27807" lon="-0.30475">
					<ele>20</ele>
					<time>0001-01-01T00:00:00Z</time>
				</trkpt>
				<trkpt lat="53.27846" lon="-0.30744">
					<ele>17</ele>
					<time>0001-01-01T00:00:00Z</time>
				</trkpt>
				<trkpt lat="53.27863" lon="-0.30928">
					<ele>15</ele>
					<time>0001-01-01T00:00:00Z</time>
				</trkpt>
				<trkpt lat="53.27906" lon="-0.30967">
					<ele>15</ele>
					<time>0001-01-01T00:00:00Z</time>
				</trkpt>
				<trkpt lat="53.27913" lon="-0.30963">
					<ele>15</ele>
					<time>0001-01-01T00:00:00Z</time>
				</trkpt>
				<trkpt lat="53.28091" lon="-0.30843">
					<ele>18</ele>
					<time>0001-01-01T00:00:00Z</time>
				</trkpt>
				<trkpt lat="53.28248" lon="-0.30732">
					<ele>19</ele>
					<time>0001-01-01T00:00:00Z</time>
				</trkpt>
				<trkpt lat="53.28397" lon="-0.30603">
					<ele>20</ele>
					<time>0001-01-01T00:00:00Z</time>
				</trkpt>
				<trkpt lat="53.28555" lon="-0.30450">
					<ele>24</ele>
					<time>0001-01-01T00:00:00Z</time>
				</trkpt>
				<trkpt lat="53.28671" lon="-0.30342">
					<ele>25</ele>
					<time>0001-01-01T00:00:00Z</time>
				</trkpt>
				<trkpt lat="53.28676" lon="-0.30330">
					<ele>26</ele>
					<time>0001-01-01T00:00:00Z</time>
				</trkpt>
				<trkpt lat="53.28676" lon="-0.30332">
					<ele>25</ele>
					<time>0001-01-01T00:00:00Z</time>
				</trkpt>
				<trkpt lat="53.28673" lon="-0.30325">
					<ele>26</ele>
					<time>0001-01-01T00:00:00Z</time>
				</trkpt>
				<trkpt lat="53.28672" lon="-0.30335">
					<ele>26</ele>
					<time>0001-01-01T00:00:00Z</time>
				</trkpt>
				<trkpt lat="53.28675" lon="-0.30334">
					<ele>27</ele>
					<time>0001-01-01T00:00:00Z</time>
				</trkpt>
				<trkpt lat="53.28700" lon="-0.30323">
					<ele>28</ele>
					<time>0001-01-01T00:00:00Z</time>
				</trkpt>
				<trkpt lat="53.28714" lon="-0.30317">
					<ele>28</ele>
					<time>0001-01-01T00:00:00Z</time>
				</trkpt>
				<trkpt lat="53.28719" lon="-0.30339">
					<ele>27</ele>
					<time>0001-01-01T00:00:00Z</time>
				</trkpt>
				<trkpt lat="53.28721" lon="-0.30377">
					<ele>26</ele>
					<time>0001-01-01T00:00:00Z</time>
				</trkpt>
				<trkpt lat="53.28732" lon="-0.30365">
					<ele>23</ele>
					<time>0001-01-01T00:00:00Z</time>
				</trkpt>
				<trkpt lat="53.28729" lon="-0.30313">
					<ele>24</ele>
					<time>0001-01-01T00:00:00Z</time>
				</trkpt>
				<trkpt lat="53.28766" lon="-0.30316">
					<ele>22</ele>
					<time>0001-01-01T00:00:00Z</time>
				</trkpt>
				<trkpt lat="53.28852" lon="-0.30378">
					<ele>21</ele>
					<time>0001-01-01T00:00:00Z</time>
				</trkpt>
				<trkpt lat="53.28882" lon="-0.30374">
					<ele>21</ele>
					<time>0001-01-01T00:00:00Z</time>
				</trkpt>
				<trkpt lat="53.29013" lon="-0.30284">
					<ele>21</ele>
					<time>0001-01-01T00:00:00Z</time>
				</trkpt>
				<trkpt lat="53.29112" lon="-0.30336">
					<ele>21</ele>
					<time>0001-01-01T00:00:00Z</time>
				</trkpt>
				<trkpt lat="53.29257" lon="-0.30435">
					<ele>20</ele>
					<time>0001-01-01T00:00:00Z</time>
				</trkpt>
				<trkpt lat="53.29374" lon="-0.30449">
					<ele>20</ele>
					<time>0001-01-01T00:00:00Z</time>
				</trkpt>
				<trkpt lat="53.29409" lon="-0.30464">
					<ele>20</ele>
					<time>0001-01-01T00:00:00Z</time>
				</trkpt>
				<trkpt lat="53.29493" lon="-0.30606">
					<ele>21</ele>
					<time>0001-01-01T00:00:00Z</time>
				</trkpt>
				<trkpt lat="53.29520" lon="-0.30638">
					<ele>22</ele>
					<time>0001-01-01T00:00:00Z</time>
				</trkpt>
				<trkpt lat="53.29664" lon="-0.30708">
					<ele>23</ele>
					<time>0001-01-01T00:00:00Z</time>
				</trkpt>
				<trkpt lat="53.29831" lon="-0.30798">
					<ele>24</ele>
					<time>0001-01-01T00:00:00Z</time>
				</trkpt>
				<trkpt lat="53.30011" lon="-0.30923">
					<ele>23</ele>
					<time>0001-01-01T00:00:00Z</time>
				</trkpt>
				<trkpt lat="53.30206" lon="-0.31100">
					<ele>25</ele>
					<time>0001-01-01T00:00:00Z</time>
				</trkpt>
				<trkpt lat="53.30405" lon="-0.31288">
					<ele>23</ele>
					<time>0001-01-01T00:00:00Z</time>
				</trkpt>
				<trkpt lat="53.30718" lon="-0.31541">
					<ele>20</ele>
					<time>0001-01-01T00:00:00Z</time>
				</trkpt>
				<trkpt lat="53.30844" lon="-0.31637">
					<ele>23</ele>
					<time>0001-01-01T00:00:00Z</time>
				</trkpt>
				<trkpt lat="53.30974" lon="-0.31783">
					<ele>25</ele>
					<time>0001-01-01T00:00:00Z</time>
				</trkpt>
				<trkpt lat="53.31040" lon="-0.31854">
					<ele>25</ele>
					<time>0001-01-01T00:00:00Z</time>
				</trkpt>
				<trkpt lat="53.31098" lon="-0.31899">
					<ele>24</ele>
					<time>0001-01-01T00:00:00Z</time>
				</trkpt>
				<trkpt lat="53.31126" lon="-0.31952">
					<ele>22</ele>
					<time>0001-01-01T00:00:00Z</time>
				</trkpt>
				<trkpt lat="53.31219" lon="-0.32171">
					<ele>18</ele>
					<time>0001-01-01T00:00:00Z</time>
				</trkpt>
				<trkpt lat="53.31226" lon="-0.32181">
					<ele>18</ele>
					<time>0001-01-01T00:00:00Z</time>
				</trkpt>
				<trkpt lat="53.31375" lon="-0.32265">
					<ele>18</ele>
					<time>0001-01-01T00:00:00Z</time>
				</trkpt>
				<trkpt lat="53.31382" lon="-0.32270">
					<ele>17</ele>
					<time>0001-01-01T00:00:00Z</time>
				</trkpt>
				<trkpt lat="53.31422" lon="-0.32316">
					<ele>19</ele>
					<time>0001-01-01T00:00:00Z</time>
				</trkpt>
				<trkpt lat="53.31505" lon="-0.32407">
					<ele>23</ele>
					<time>0001-01-01T00:00:00Z</time>
				</trkpt>
				<trkpt lat="53.31655" lon="-0.32520">
					<ele>27</ele>
					<time>0001-01-01T00:00:00Z</time>
				</trkpt>
				<trkpt lat="53.31666" lon="-0.32525">
					<ele>27</ele>
					<time>0001-01-01T00:00:00Z</time>
				</trkpt>
				<trkpt lat="53.31735" lon="-0.32562">
					<ele>28</ele>
					<time>0001-01-01T00:00:00Z</time>
				</trkpt>
				<trkpt lat="53.31765" lon="-0.32526">
					<ele>27</ele>
					<time>0001-01-01T00:00:00Z</time>
				</trkpt>
				<trkpt lat="53.31814" lon="-0.32346">
					<ele>27</ele>
					<time>0001-01-01T00:00:00Z</time>
				</trkpt>
				<trkpt lat="53.31863" lon="-0.32328">
					<ele>27</ele>
					<time>0001-01-01T00:00:00Z</time>
				</trkpt>
				<trkpt lat="53.32003" lon="-0.32425">
					<ele>26</ele>
					<time>0001-01-01T00:00:00Z</time>
				</trkpt>
				<trkpt lat="53.32045" lon="-0.32413">
					<ele>27</ele>
					<time>0001-01-01T00:00:00Z</time>
				</trkpt>
				<trkpt lat="53.32110" lon="-0.32313">
					<ele>28</ele>
					<time>0001-01-01T00:00:00Z</time>
				</trkpt>
				<trkpt lat="53.32151" lon="-0.32314">
					<ele>27</ele>
					<time>0001-01-01T00:00:00Z</time>
				</trkpt>
				<trkpt lat="53.32320" lon="-0.32393">
					<ele>27</ele>
					<time>0001-01-01T00:00:00Z</time>
				</trkpt>
				<trkpt lat="53.32510" lon="-0.32512">
					<ele>26</ele>
					<time>0001-01-01T00:00:00Z</time>
				</trkpt>
				<trkpt lat="53.32677" lon="-0.32678">
					<ele>26</ele>
					<time>0001-01-01T00:00:00Z</time>
				</trkpt>
				<trkpt lat="53.32808" lon="-0.32812">
					<ele>25</ele>
					<time>0001-01-01T00:00:00Z</time>
				</trkpt>
				<trkpt lat="53.32987" lon="-0.32947">
					<ele>22</ele>
					<time>0001-01-01T00:00:00Z</time>
				</trkpt>
				<trkpt lat="53.33170" lon="-0.33081">
					<ele>23</ele>
					<time>0001-01-01T00:00:00Z</time>
				</trkpt>
				<trkpt lat="53.33310" lon="-0.33212">
					<ele>24</ele>
					<time>0001-01-01T00:00:00Z</time>
				</trkpt>
				<trkpt lat="53.33461" lon="-0.33415">
					<ele>22</ele>
					<time>0001-01-01T00:00:00Z</time>
				</trkpt>
				<trkpt lat="53.33547" lon="-0.33572">
					<ele>22</ele>
					<time>0001-01-01T00:00:00Z</time>
				</trkpt>
				<trkpt lat="53.33577" lon="-0.33589">
					<ele>21</ele>
					<time>0001-01-01T00:00:00Z</time>
				</trkpt>
				<trkpt lat="53.33564" lon="-0.33592">
					<ele>21</ele>
					<time>0001-01-01T00:00:00Z</time>
				</trkpt>
				<trkpt lat="53.33499" lon="-0.33679">
					<ele>19</ele>
					<time>0001-01-01T00:00:00Z</time>
				</trkpt>
				<trkpt lat="53.33415" lon="-0.33809">
					<ele>20</ele>
					<time>0001-01-01T00:00:00Z</time>
				</trkpt>
				<trkpt lat="53.33375" lon="-0.33979">
					<ele>21</ele>
					<time>0001-01-01T00:00:00Z</time>
				</trkpt>
				<trkpt lat="53.33301" lon="-0.34154">
					<ele>23</ele>
					<time>0001-01-01T00:00:00Z</time>
				</trkpt>
				<trkpt lat="53.33267" lon="-0.34212">
					<ele>23</ele>
					<time>0001-01-01T00:00:00Z</time>
				</trkpt>
				<trkpt lat="53.33265" lon="-0.34214">
					<ele>23</ele>
					<time>0001-01-01T00:00:00Z</time>
				</trkpt>
				<trkpt lat="53.33265" lon="-0.34220">
					<ele>24</ele>
					<time>0001-01-01T00:00:00Z</time>
				</trkpt>
				<trkpt lat="53.33276" lon="-0.34208">
					<ele>24</ele>
					<time>0001-01-01T00:00:00Z</time>
				</trkpt>
				<trkpt lat="53.33291" lon="-0.34217">
					<ele>24</ele>
					<time>0001-01-01T00:00:00Z</time>
				</trkpt>
				<trkpt lat="53.33381" lon="-0.34319">
					<ele>24</ele>
					<time>0001-01-01T00:00:00Z</time>
				</trkpt>
				<trkpt lat="53.33424" lon="-0.34372">
					<ele>24</ele>
					<time>0001-01-01T00:00:00Z</time>
				</trkpt>
				<trkpt lat="53.33432" lon="-0.34404">
					<ele>23</ele>
					<time>0001-01-01T00:00:00Z</time>
				</trkpt>
				<trkpt lat="53.33463" lon="-0.34459">
					<ele>22</ele>
					<time>0001-01-01T00:00:00Z</time>
				</trkpt>
				<trkpt lat="53.33537" lon="-0.34522">
					<ele>21</ele>
					<time>0001-01-01T00:00:00Z</time>
				</trkpt>
				<trkpt lat="53.33638" lon="-0.34640">
					<ele>21</ele>
					<time>0001-01-01T00:00:00Z</time>
				</trkpt>
				<trkpt lat="53.33772" lon="-0.34728">
					<ele>22</ele>
					<time>0001-01-01T00:00:00Z</time>
				</trkpt>
				<trkpt lat="53.33903" lon="-0.34839">
					<ele>23</ele>
					<time>0001-01-01T00:00:00Z</time>
				</trkpt>
				<trkpt lat="53.34066" lon="-0.34950">
					<ele>22</ele>
					<time>0001-01-01T00:00:00Z</time>
				</trkpt>
				<trkpt lat="53.34240" lon="-0.35070">
					<ele>21</ele>
					<time>0001-01-01T00:00:00Z</time>
				</trkpt>
				<trkpt lat="53.34436" lon="-0.35204">
					<ele>19</ele>
					<time>0001-01-01T00:00:00Z</time>
				</trkpt>
				<trkpt lat="53.34572" lon="-0.35243">
					<ele>22</ele>
					<time>0001-01-01T00:00:00Z</time>
				</trkpt>
				<trkpt lat="53.34713" lon="-0.35274">
					<ele>23</ele>
					<time>0001-01-01T00:00:00Z</time>
				</trkpt>
				<trkpt lat="53.34901" lon="-0.35339">
					<ele>23</ele>
					<time>0001-01-01T00:00:00Z</time>
				</trkpt>
				<trkpt lat="53.35107" lon="-0.35397">
					<ele>23</ele>
					<time>0001-01-01T00:00:00Z</time>
				</trkpt>
				<trkpt lat="53.35240" lon="-0.35417">
					<ele>21</ele>
					<time>0001-01-01T00:00:00Z</time>
				</trkpt>
				<trkpt lat="53.35437" lon="-0.35473">
					<ele>23</ele>
					<time>0001-01-01T00:00:00Z</time>
				</trkpt>
				<trkpt lat="53.35601" lon="-0.35523">
					<ele>23</ele>
					<time>0001-01-01T00:00:00Z</time>
				</trkpt>
				<trkpt lat="53.35695" lon="-0.35584">
					<ele>25</ele>
					<time>0001-01-01T00:00:00Z</time>
				</trkpt>
				<trkpt lat="53.35706" lon="-0.35605">
					<ele>25</ele>
					<time>0001-01-01T00:00:00Z</time>
				</trkpt>
				<trkpt lat="53.35726" lon="-0.35634">
					<ele>24</ele>
					<time>0001-01-01T00:00:00Z</time>
				</trkpt>
				<trkpt lat="53.35827" lon="-0.35682">
					<ele>23</ele>
					<time>0001-01-01T00:00:00Z</time>
				</trkpt>
				<trkpt lat="53.35932" lon="-0.35754">
					<ele>21</ele>
					<time>0001-01-01T00:00:00Z</time>
				</trkpt>
				<trkpt lat="53.35968" lon="-0.35763">
					<ele>20</ele>
					<time>0001-01-01T00:00:00Z</time>
				</trkpt>
				<trkpt lat="53.36102" lon="-0.35763">
					<ele>21</ele>
					<time>0001-01-01T00:00:00Z</time>
				</trkpt>
				<trkpt lat="53.36263" lon="-0.35873">
					<ele>23</ele>
					<time>0001-01-01T00:00:00Z</time>
				</trkpt>
				<trkpt lat="53.36427" lon="-0.35986">
					<ele>25</ele>
					<time>0001-01-01T00:00:00Z</time>
				</trkpt>
				<trkpt lat="53.36576" lon="-0.36072">
					<ele>24</ele>
					<time>0001-01-01T00:00:00Z</time>
				</trkpt>
				<trkpt lat="53.36704" lon="-0.36118">
					<ele>23</ele>
					<time>0001-01-01T00:00:00Z</time>
				</trkpt>
				<trkpt lat="53.36838" lon="-0.36181">
					<ele>25</ele>
					<time>0001-01-01T00:00:00Z</time>
				</trkpt>
				<trkpt lat="53.36956" lon="-0.36229">
					<ele>27</ele>
					<time>0001-01-01T00:00:00Z</time>
				</trkpt>
				<trkpt lat="53.37121" lon="-0.36237">
					<ele>29</ele>
					<time>0001-01-01T00:00:00Z</time>
				</trkpt>
				<trkpt lat="53.37299" lon="-0.36244">
					<ele>28</ele>
					<time>0001-01-01T00:00:00Z</time>
				</trkpt>
				<trkpt lat="53.37507" lon="-0.36254">
					<ele>26</ele>
					<time>0001-01-01T00:00:00Z</time>
				</trkpt>
				<trkpt lat="53.37695" lon="-0.36261">
					<ele>23</ele>
					<time>0001-01-01T00:00:00Z</time>
				</trkpt>
				<trkpt lat="53.37918" lon="-0.36270">
					<ele>22</ele>
					<time>0001-01-01T00:00:00Z</time>
				</trkpt>
				<trkpt lat="53.38112" lon="-0.36280">
					<ele>26</ele>
					<time>0001-01-01T00:00:00Z</time>
				</trkpt>
				<trkpt lat="53.38288" lon="-0.36286">
					<ele>27</ele>
					<time>0001-01-01T00:00:00Z</time>
				</trkpt>
				<trkpt lat="53.38462" lon="-0.36292">
					<ele>23</ele>
					<time>0001-01-01T00:00:00Z</time>
				</trkpt>
				<trkpt lat="53.38537" lon="-0.36298">
					<ele>20</ele>
					<time>0001-01-01T00:00:00Z</time>
				</trkpt>
				<trkpt lat="53.38583" lon="-0.36257">
					<ele>19</ele>
					<time>0001-01-01T00:00:00Z</time>
				</trkpt>
				<trkpt lat="53.38593" lon="-0.36234">
					<ele>19</ele>
					<time>0001-01-01T00:00:00Z</time>
				</trkpt>
				<trkpt lat="53.38622" lon="-0.36207">
					<ele>18</ele>
					<time>0001-01-01T00:00:00Z</time>
				</trkpt>
				<trkpt lat="53.38708" lon="-0.36212">
					<ele>17</ele>
					<time>0001-01-01T00:00:00Z</time>
				</trkpt>
				<trkpt lat="53.38716" lon="-0.36220">
					<ele>17</ele>
					<time>0001-01-01T00:00:00Z</time>
				</trkpt>
				<trkpt lat="53.38723" lon="-0.36239">
					<ele>16</ele>
					<time>0001-01-01T00:00:00Z</time>
				</trkpt>
				<trkpt lat="53.38781" lon="-0.36274">
					<ele>20</ele>
					<time>0001-01-01T00:00:00Z</time>
				</trkpt>
				<trkpt lat="53.38824" lon="-0.36266">
					<ele>21</ele>
					<time>0001-01-01T00:00:00Z</time>
				</trkpt>
				<trkpt lat="53.38839" lon="-0.36249">
					<ele>20</ele>
					<time>0001-01-01T00:00:00Z</time>
				</trkpt>
				<trkpt lat="53.38916" lon="-0.36212">
					<ele>19</ele>
					<time>0001-01-01T00:00:00Z</time>
				</trkpt>
				<trkpt lat="53.38979" lon="-0.36217">
					<ele>17</ele>
					<time>0001-01-01T00:00:00Z</time>
				</trkpt>
				<trkpt lat="53.39011" lon="-0.36185">
					<ele>17</ele>
					<time>0001-01-01T00:00:00Z</time>
				</trkpt>
				<trkpt lat="53.39035" lon="-0.36136">
					<ele>18</ele>
					<time>0001-01-01T00:00:00Z</time>
				</trkpt>
				<trkpt lat="53.39074" lon="-0.36100">
					<ele>20</ele>
					<time>0001-01-01T00:00:00Z</time>
				</trkpt>
				<trkpt lat="53.39087" lon="-0.36093">
					<ele>20</ele>
					<time>0001-01-01T00:00:00Z</time>
				</trkpt>
				<trkpt lat="53.39195" lon="-0.36116">
					<ele>19</ele>
					<time>0001-01-01T00:00:00Z</time>
				</trkpt>
				<trkpt lat="53.39276" lon="-0.36145">
					<ele>18</ele>
					<time>0001-01-01T00:00:00Z</time>
				</trkpt>
				<trkpt lat="53.39328" lon="-0.36087">
					<ele>17</ele>
					<time>0001-01-01T00:00:00Z</time>
				</trkpt>
				<trkpt lat="53.39390" lon="-0.35939">
					<ele>18</ele>
					<time>0001-01-01T00:00:00Z</time>
				</trkpt>
				<trkpt lat="53.39426" lon="-0.35923">
					<ele>18</ele>
					<time>0001-01-01T00:00:00Z</time>
				</trkpt>
				<trkpt lat="53.39565" lon="-0.35994">
					<ele>21</ele>
					<time>0001-01-01T00:00:00Z</time>
				</trkpt>
				<trkpt lat="53.39642" lon="-0.36033">
					<ele>22</ele>
					<time>0001-01-01T00:00:00Z</time>
				</trkpt>
				<trkpt lat="53.39643" lon="-0.36033">
					<ele>24</ele>
					<time>0001-01-01T00:00:00Z</time>
				</trkpt>
				<trkpt lat="53.39644" lon="-0.36035">
					<ele>25</ele>
					<time>0001-01-01T00:00:00Z</time>
				</trkpt>
				<trkpt lat="53.39656" lon="-0.36043">
					<ele>25</ele>
					<time>0001-01-01T00:00:00Z</time>
				</trkpt>
				<trkpt lat="53.39694" lon="-0.36064">
					<ele>25</ele>
					<time>0001-01-01T00:00:00Z</time>
				</trkpt>
				<trkpt lat="53.39771" lon="-0.36110">
					<ele>27</ele>
					<time>0001-01-01T00:00:00Z</time>
				</trkpt>
				<trkpt lat="53.39861" lon="-0.36161">
					<ele>28</ele>
					<time>0001-01-01T00:00:00Z</time>
				</trkpt>
				<trkpt lat="53.39893" lon="-0.36121">
					<ele>28</ele>
					<time>0001-01-01T00:00:00Z</time>
				</trkpt>
				<trkpt lat="53.39938" lon="-0.35919">
					<ele>29</ele>
					<time>0001-01-01T00:00:00Z</time>
				</trkpt>
				<trkpt lat="53.39954" lon="-0.35913">
					<ele>30</ele>
					<time>0001-01-01T00:00:00Z</time>
				</trkpt>
				<trkpt lat="53.39968" lon="-0.35918">
					<ele>30</ele>
					<time>0001-01-01T00:00:00Z</time>
				</trkpt>
				<trkpt lat="53.40078" lon="-0.35953">
					<ele>28</ele>
					<time>0001-01-01T00:00:00Z</time>
				</trkpt>
				<trkpt lat="53.40271" lon="-0.36013">
					<ele>26</ele>
					<time>0001-01-01T00:00:00Z</time>
				</trkpt>
				<trkpt lat="53.40934" lon="-0.36276">
					<ele>26</ele>
					<time>0001-01-01T00:00:00Z</time>
				</trkpt>
				<trkpt lat="53.40988" lon="-0.36319">
					<ele>26</ele>
					<time>0001-01-01T00:00:00Z</time>
				</trkpt>
				<trkpt lat="53.41128" lon="-0.36413">
					<ele>28</ele>
					<time>0001-01-01T00:00:00Z</time>
				</trkpt>
				<trkpt lat="53.41157" lon="-0.36431">
					<ele>28</ele>
					<time>0001-01-01T00:00:00Z</time>
				</trkpt>
				<trkpt lat="53.41239" lon="-0.36491">
					<ele>27</ele>
					<time>0001-01-01T00:00:00Z</time>
				</trkpt>
				<trkpt lat="53.41447" lon="-0.36638">
					<ele>27</ele>
					<time>0001-01-01T00:00:00Z</time>
				</trkpt>
				<trkpt lat="53.41619" lon="-0.36766">
					<ele>25</ele>
					<time>0001-01-01T00:00:00Z</time>
				</trkpt>
				<trkpt lat="53.41758" lon="-0.36860">
					<ele>23</ele>
					<time>0001-01-01T00:00:00Z</time>
				</trkpt>
				<trkpt lat="53.41773" lon="-0.36871">
					<ele>23</ele>
					<time>0001-01-01T00:00:00Z</time>
				</trkpt>
				<trkpt lat="53.41789" lon="-0.36896">
					<ele>23</ele>
					<time>0001-01-01T00:00:00Z</time>
				</trkpt>
				<trkpt lat="53.41797" lon="-0.36932">
					<ele>22</ele>
					<time>0001-01-01T00:00:00Z</time>
				</trkpt>
				<trkpt lat="53.41825" lon="-0.37162">
					<ele>20</ele>
					<time>0001-01-01T00:00:00Z</time>
				</trkpt>
				<trkpt lat="53.41869" lon="-0.37475">
					<ele>18</ele>
					<time>0001-01-01T00:00:00Z</time>
				</trkpt>
				<trkpt lat="53.41908" lon="-0.37750">
					<ele>17</ele>
					<time>0001-01-01T00:00:00Z</time>
				</trkpt>
				<trkpt lat="53.41935" lon="-0.37934">
					<ele>16</ele>
					<time>0001-01-01T00:00:00Z</time>
				</trkpt>
				<trkpt lat="53.41955" lon="-0.38051">
					<ele>18</ele>
					<time>0001-01-01T00:00:00Z</time>
				</trkpt>
				<trkpt lat="53.41975" lon="-0.38281">
					<ele>18</ele>
					<time>0001-01-01T00:00:00Z</time>
				</trkpt>
				<trkpt lat="53.41968" lon="-0.38507">
					<ele>18</ele>
					<time>0001-01-01T00:00:00Z</time>
				</trkpt>
				<trkpt lat="53.41994" lon="-0.38694">
					<ele>19</ele>
					<time>0001-01-01T00:00:00Z</time>
				</trkpt>
				<trkpt lat="53.42031" lon="-0.38911">
					<ele>19</ele>
					<time>0001-01-01T00:00:00Z</time>
				</trkpt>
				<trkpt lat="53.42031" lon="-0.38922">
					<ele>19</ele>
					<time>0001-01-01T00:00:00Z</time>
				</trkpt>
				<trkpt lat="53.42006" lon="-0.39066">
					<ele>21</ele>
					<time>0001-01-01T00:00:00Z</time>
				</trkpt>
				<trkpt lat="53.42002" lon="-0.39148">
					<ele>21</ele>
					<time>0001-01-01T00:00:00Z</time>
				</trkpt>
				<trkpt lat="53.41994" lon="-0.39219">
					<ele>20</ele>
					<time>0001-01-01T00:00:00Z</time>
				</trkpt>
				<trkpt lat="53.41997" lon="-0.39265">
					<ele>19</ele>
					<time>0001-01-01T00:00:00Z</time>
				</trkpt>
				<trkpt lat="53.42054" lon="-0.39480">
					<ele>17</ele>
					<time>0001-01-01T00:00:00Z</time>
				</trkpt>
				<trkpt lat="53.42059" lon="-0.39511">
					<ele>17</ele>
					<time>0001-01-01T00:00:00Z</time>
				</trkpt>
				<trkpt lat="53.42060" lon="-0.39551">
					<ele>18</ele>
					<time>0001-01-01T00:00:00Z</time>
				</trkpt>
				<trkpt lat="53.42043" lon="-0.39788">
					<ele>21</ele>
					<time>0001-01-01T00:00:00Z</time>
				</trkpt>
				<trkpt lat="53.42038" lon="-0.39957">
					<ele>19</ele>
					<time>0001-01-01T00:00:00Z</time>
				</trkpt>
				<trkpt lat="53.42071" lon="-0.39980">
					<ele>17</ele>
					<time>0001-01-01T00:00:00Z</time>
				</trkpt>
				<trkpt lat="53.42237" lon="-0.39927">
					<ele>15</ele>
					<time>0001-01-01T00:00:00Z</time>
				</trkpt>
				<trkpt lat="53.42389" lon="-0.39911">
					<ele>16</ele>
					<time>0001-01-01T00:00:00Z</time>
				</trkpt>
				<trkpt lat="53.42460" lon="-0.39855">
					<ele>15</ele>
					<time>0001-01-01T00:00:00Z</time>
				</trkpt>
				<trkpt lat="53.42547" lon="-0.39703">
					<ele>15</ele>
					<time>0001-01-01T00:00:00Z</time>
				</trkpt>
				<trkpt lat="53.42576" lon="-0.39667">
					<ele>15</ele>
					<time>0001-01-01T00:00:00Z</time>
				</trkpt>
				<trkpt lat="53.42610" lon="-0.39674">
					<ele>16</ele>
					<time>0001-01-01T00:00:00Z</time>
				</trkpt>
				<trkpt lat="53.42734" lon="-0.39751">
					<ele>16</ele>
					<time>0001-01-01T00:00:00Z</time>
				</trkpt>
				<trkpt lat="53.42740" lon="-0.39755">
					<ele>16</ele>
					<time>0001-01-01T00:00:00Z</time>
				</trkpt>
				<trkpt lat="53.42767" lon="-0.39784">
					<ele>17</ele>
					<time>0001-01-01T00:00:00Z</time>
				</trkpt>
				<trkpt lat="53.42834" lon="-0.40010">
					<ele>19</ele>
					<time>0001-01-01T00:00:00Z</time>
				</trkpt>
				<trkpt lat="53.42839" lon="-0.40028">
					<ele>19</ele>
					<time>0001-01-01T00:00:00Z</time>
				</trkpt>
				<trkpt lat="53.42854" lon="-0.40163">
					<ele>17</ele>
					<time>0001-01-01T00:00:00Z</time>
				</trkpt>
				<trkpt lat="53.42957" lon="-0.40280">
					<ele>15</ele>
					<time>0001-01-01T00:00:00Z</time>
				</trkpt>
				<trkpt lat="53.43102" lon="-0.40393">
					<ele>15</ele>
					<time>0001-01-01T00:00:00Z</time>
				</trkpt>
				<trkpt lat="53.43252" lon="-0.40508">
					<ele>15</ele>
					<time>0001-01-01T00:00:00Z</time>
				</trkpt>
				<trkpt lat="53.43409" lon="-0.40620">
					<ele>16</ele>
					<time>0001-01-01T00:00:00Z</time>
				</trkpt>
				<trkpt lat="53.43522" lon="-0.40706">
					<ele>19</ele>
					<time>0001-01-01T00:00:00Z</time>
				</trkpt>
				<trkpt lat="53.43535" lon="-0.40709">
					<ele>19</ele>
					<time>0001-01-01T00:00:00Z</time>
				</trkpt>
				<trkpt lat="53.43637" lon="-0.40653">
					<ele>20</ele>
					<time>0001-01-01T00:00:00Z</time>
				</trkpt>
				<trkpt lat="53.43676" lon="-0.40630">
					<ele>20</ele>
					<time>0001-01-01T00:00:00Z</time>
				</trkpt>
				<trkpt lat="53.43828" lon="-0.40608">
					<ele>23</ele>
					<time>0001-01-01T00:00:00Z</time>
				</trkpt>
				<trkpt lat="53.43983" lon="-0.40629">
					<ele>26</ele>
					<time>0001-01-01T00:00:00Z</time>
				</trkpt>
				<trkpt lat="53.44169" lon="-0.40748">
					<ele>23</ele>
					<time>0001-01-01T00:00:00Z</time>
				</trkpt>
				<trkpt lat="53.44326" lon="-0.40854">
					<ele>22</ele>
					<time>0001-01-01T00:00:00Z</time>
				</trkpt>
				<trkpt lat="53.44388" lon="-0.40944">
					<ele>22</ele>
					<time>0001-01-01T00:00:00Z</time>
				</trkpt>
				<trkpt lat="53.44543" lon="-0.41098">
					<ele>20</ele>
					<time>0001-01-01T00:00:00Z</time>
				</trkpt>
				<trkpt lat="53.44551" lon="-0.41103">
					<ele>20</ele>
					<time>0001-01-01T00:00:00Z</time>
				</trkpt>
				<trkpt lat="53.44574" lon="-0.41154">
					<ele>18</ele>
					<time>0001-01-01T00:00:00Z</time>
				</trkpt>
				<trkpt lat="53.44585" lon="-0.41437">
					<ele>18</ele>
					<time>0001-01-01T00:00:00Z</time>
				</trkpt>
				<trkpt lat="53.44637" lon="-0.41707">
					<ele>16</ele>
					<time>0001-01-01T00:00:00Z</time>
				</trkpt>
				<trkpt lat="53.44772" lon="-0.41782">
					<ele>13</ele>
					<time>0001-01-01T00:00:00Z</time>
				</trkpt>
				<trkpt lat="53.44934" lon="-0.41833">
					<ele>11</ele>
					<time>0001-01-01T00:00:00Z</time>
				</trkpt>
				<trkpt lat="53.45107" lon="-0.41842">
					<ele>15</ele>
					<time>0001-01-01T00:00:00Z</time>
				</trkpt>
				<trkpt lat="53.45198" lon="-0.41817">
					<ele>15</ele>
					<time>0001-01-01T00:00:00Z</time>
				</trkpt>
				<trkpt lat="53.45218" lon="-0.41824">
					<ele>15</ele>
					<time>0001-01-01T00:00:00Z</time>
				</trkpt>
				<trkpt lat="53.45236" lon="-0.41894">
					<ele>17</ele>
					<time>0001-01-01T00:00:00Z</time>
				</trkpt>
				<trkpt lat="53.45229" lon="-0.42073">
					<ele>16</ele>
					<time>0001-01-01T00:00:00Z</time>
				</trkpt>
				<trkpt lat="53.45222" lon="-0.42205">
					<ele>17</ele>
					<time>0001-01-01T00:00:00Z</time>
				</trkpt>
				<trkpt lat="53.45268" lon="-0.42283">
					<ele>16</ele>
					<time>0001-01-01T00:00:00Z</time>
				</trkpt>
				<trkpt lat="53.45275" lon="-0.42286">
					<ele>16</ele>
					<time>0001-01-01T00:00:00Z</time>
				</trkpt>
				<trkpt lat="53.45440" lon="-0.42307">
					<ele>15</ele>
					<time>0001-01-01T00:00:00Z</time>
				</trkpt>
				<trkpt lat="53.45629" lon="-0.42342">
					<ele>12</ele>
					<time>0001-01-01T00:00:00Z</time>
				</trkpt>
				<trkpt lat="53.45675" lon="-0.42361">
					<ele>12</ele>
					<time>0001-01-01T00:00:00Z</time>
				</trkpt>
				<trkpt lat="53.45776" lon="-0.42374">
					<ele>14</ele>
					<time>0001-01-01T00:00:00Z</time>
				</trkpt>
				<trkpt lat="53.45928" lon="-0.42465">
					<ele>14</ele>
					<time>0001-01-01T00:00:00Z</time>
				</trkpt>
				<trkpt lat="53.46147" lon="-0.42677">
					<ele>14</ele>
					<time>0001-01-01T00:00:00Z</time>
				</trkpt>
				<trkpt lat="53.46261" lon="-0.42771">
					<ele>16</ele>
					<time>0001-01-01T00:00:00Z</time>
				</trkpt>
				<trkpt lat="53.46357" lon="-0.42859">
					<ele>16</ele>
					<time>0001-01-01T00:00:00Z</time>
				</trkpt>
				<trkpt lat="53.46465" lon="-0.42967">
					<ele>18</ele>
					<time>0001-01-01T00:00:00Z</time>
				</trkpt>
				<trkpt lat="53.46631" lon="-0.43090">
					<ele>18</ele>
					<time>0001-01-01T00:00:00Z</time>
				</trkpt>
				<trkpt lat="53.46777" lon="-0.43114">
					<ele>17</ele>
					<time>0001-01-01T00:00:00Z</time>
				</trkpt>
				<trkpt lat="53.46881" lon="-0.43098">
					<ele>19</ele>
					<time>0001-01-01T00:00:00Z</time>
				</trkpt>
				<trkpt lat="53.46898" lon="-0.43119">
					<ele>20</ele>
					<time>0001-01-01T00:00:00Z</time>
				</trkpt>
				<trkpt lat="53.46916" lon="-0.43135">
					<ele>20</ele>
					<time>0001-01-01T00:00:00Z</time>
				</trkpt>
				<trkpt lat="53.47015" lon="-0.43135">
					<ele>20</ele>
					<time>0001-01-01T00:00:00Z</time>
				</trkpt>
				<trkpt lat="53.47017" lon="-0.43137">
					<ele>20</ele>
					<time>0001-01-01T00:00:00Z</time>
				</trkpt>
				<trkpt lat="53.47032" lon="-0.43165">
					<ele>19</ele>
					<time>0001-01-01T00:00:00Z</time>
				</trkpt>
				<trkpt lat="53.47034" lon="-0.43181">
					<ele>19</ele>
					<time>0001-01-01T00:00:00Z</time>
				</trkpt>
				<trkpt lat="53.47030" lon="-0.43272">
					<ele>19</ele>
					<time>0001-01-01T00:00:00Z</time>
				</trkpt>
				<trkpt lat="53.46969" lon="-0.43513">
					<ele>18</ele>
					<time>0001-01-01T00:00:00Z</time>
				</trkpt>
				<trkpt lat="53.46902" lon="-0.43806">
					<ele>13</ele>
					<time>0001-01-01T00:00:00Z</time>
				</trkpt>
				<trkpt lat="53.46895" lon="-0.43860">
					<ele>13</ele>
					<time>0001-01-01T00:00:00Z</time>
				</trkpt>
				<trkpt lat="53.46910" lon="-0.44105">
					<ele>15</ele>
					<time>0001-01-01T00:00:00Z</time>
				</trkpt>
				<trkpt lat="53.46924" lon="-0.44294">
					<ele>15</ele>
					<time>0001-01-01T00:00:00Z</time>
				</trkpt>
				<trkpt lat="53.46891" lon="-0.44362">
					<ele>13</ele>
					<time>0001-01-01T00:00:00Z</time>
				</trkpt>
				<trkpt lat="53.46728" lon="-0.44429">
					<ele>13</ele>
					<time>0001-01-01T00:00:00Z</time>
				</trkpt>
				<trkpt lat="53.46579" lon="-0.44506">
					<ele>14</ele>
					<time>0001-01-01T00:00:00Z</time>
				</trkpt>
				<trkpt lat="53.46560" lon="-0.44564">
					<ele>14</ele>
					<time>0001-01-01T00:00:00Z</time>
				</trkpt>
				<trkpt lat="53.46556" lon="-0.44844">
					<ele>13</ele>
					<time>0001-01-01T00:00:00Z</time>
				</trkpt>
				<trkpt lat="53.46530" lon="-0.44879">
					<ele>13</ele>
					<time>0001-01-01T00:00:00Z</time>
				</trkpt>
				<trkpt lat="53.46357" lon="-0.44961">
					<ele>12</ele>
					<time>0001-01-01T00:00:00Z</time>
				</trkpt>
				<trkpt lat="53.46283" lon="-0.44973">
					<ele>12</ele>
					<time>0001-01-01T00:00:00Z</time>
				</trkpt>
				<trkpt lat="53.46259" lon="-0.45023">
					<ele>11</ele>
					<time>0001-01-01T00:00:00Z</time>
				</trkpt>
				<trkpt lat="53.46246" lon="-0.45295">
					<ele>8</ele>
					<time>0001-01-01T00:00:00Z</time>
				</trkpt>
				<trkpt lat="53.46225" lon="-0.45665">
					<ele>6</ele>
					<time>0001-01-01T00:00:00Z</time>
				</trkpt>
				<trkpt lat="53.46205" lon="-0.45995">
					<ele>4</ele>
					<time>0001-01-01T00:00:00Z</time>
				</trkpt>
				<trkpt lat="53.46185" lon="-0.46377">
					<ele>2</ele>
					<time>0001-01-01T00:00:00Z</time>
				</trkpt>
				<trkpt lat="53.46176" lon="-0.46488">
					<ele>1</ele>
					<time>0001-01-01T00:00:00Z</time>
				</trkpt>
				<trkpt lat="53.46150" lon="-0.46546">
					<ele>1</ele>
					<time>0001-01-01T00:00:00Z</time>
				</trkpt>
				<trkpt lat="53.46086" lon="-0.46698">
					<ele>1</ele>
					<time>0001-01-01T00:00:00Z</time>
				</trkpt>
				<trkpt lat="53.46036" lon="-0.47020">
					<ele>0</ele>
					<time>0001-01-01T00:00:00Z</time>
				</trkpt>
				<trkpt lat="53.46000" lon="-0.47249">
					<ele>1</ele>
					<time>0001-01-01T00:00:00Z</time>
				</trkpt>
				<trkpt lat="53.45979" lon="-0.47362">
					<ele>1</ele>
					<time>0001-01-01T00:00:00Z</time>
				</trkpt>
				<trkpt lat="53.45921" lon="-0.47581">
					<ele>0</ele>
					<time>0001-01-01T00:00:00Z</time>
				</trkpt>
				<trkpt lat="53.45907" lon="-0.47619">
					<ele>0</ele>
					<time>0001-01-01T00:00:00Z</time>
				</trkpt>
				<trkpt lat="53.45877" lon="-0.47631">
					<ele>0</ele>
					<time>0001-01-01T00:00:00Z</time>
				</trkpt>
				<trkpt lat="53.45727" lon="-0.47611">
					<ele>2</ele>
					<time>0001-01-01T00:00:00Z</time>
				</trkpt>
				<trkpt lat="53.45560" lon="-0.47596">
					<ele>3</ele>
					<time>0001-01-01T00:00:00Z</time>
				</trkpt>
				<trkpt lat="53.45523" lon="-0.47592">
					<ele>3</ele>
					<time>0001-01-01T00:00:00Z</time>
				</trkpt>
				<trkpt lat="53.45501" lon="-0.47636">
					<ele>3</ele>
					<time>0001-01-01T00:00:00Z</time>
				</trkpt>
				<trkpt lat="53.45463" lon="-0.47821">
					<ele>2</ele>
					<time>0001-01-01T00:00:00Z</time>
				</trkpt>
				<trkpt lat="53.45436" lon="-0.48020">
					<ele>2</ele>
					<time>0001-01-01T00:00:00Z</time>
				</trkpt>
				<trkpt lat="53.45389" lon="-0.48368">
					<ele>3</ele>
					<time>0001-01-01T00:00:00Z</time>
				</trkpt>
				<trkpt lat="53.45351" lon="-0.48625">
					<ele>2</ele>
					<time>0001-01-01T00:00:00Z</time>
				</trkpt>
				<trkpt lat="53.45309" lon="-0.48876">
					<ele>2</ele>
					<time>0001-01-01T00:00:00Z</time>
				</trkpt>
				<trkpt lat="53.45257" lon="-0.49183">
					<ele>2</ele>
					<time>0001-01-01T00:00:00Z</time>
				</trkpt>
				<trkpt lat="53.45200" lon="-0.49396">
					<ele>3</ele>
					<time>0001-01-01T00:00:00Z</time>
				</trkpt>
				<trkpt lat="53.45094" lon="-0.49610">
					<ele>4</ele>
					<time>0001-01-01T00:00:00Z</time>
				</trkpt>
				<trkpt lat="53.44984" lon="-0.49837">
					<ele>4</ele>
					<time>0001-01-01T00:00:00Z</time>
				</trkpt>
				<trkpt lat="53.44874" lon="-0.50061">
					<ele>5</ele>
					<time>0001-01-01T00:00:00Z</time>
				</trkpt>
				<trkpt lat="53.44831" lon="-0.50167">
					<ele>5</ele>
					<time>0001-01-01T00:00:00Z</time>
				</trkpt>
				<trkpt lat="53.44839" lon="-0.50382">
					<ele>5</ele>
					<time>0001-01-01T00:00:00Z</time>
				</trkpt>
				<trkpt lat="53.44901" lon="-0.50656">
					<ele>4</ele>
					<time>0001-01-01T00:00:00Z</time>
				</trkpt>
				<trkpt lat="53.44975" lon="-0.50962">
					<ele>4</ele>
					<time>0001-01-01T00:00:00Z</time>
				</trkpt>
				<trkpt lat="53.45055" lon="-0.51253">
					<ele>5</ele>
					<time>0001-01-01T00:00:00Z</time>
				</trkpt>
				<trkpt lat="53.45136" lon="-0.51534">
					<ele>6</ele>
					<time>0001-01-01T00:00:00Z</time>
				</trkpt>
				<trkpt lat="53.45229" lon="-0.51683">
					<ele>7</ele>
					<time>0001-01-01T00:00:00Z</time>
				</trkpt>
				<trkpt lat="53.45309" lon="-0.51853">
					<ele>8</ele>
					<time>0001-01-01T00:00:00Z</time>
				</trkpt>
				<trkpt lat="53.45337" lon="-0.52022">
					<ele>9</ele>
					<time>0001-01-01T00:00:00Z</time>
				</trkpt>
				<trkpt lat="53.45334" lon="-0.52073">
					<ele>9</ele>
					<time>0001-01-01T00:00:00Z</time>
				</trkpt>
				<trkpt lat="53.45324" lon="-0.52116">
					<ele>9</ele>
					<time>0001-01-01T00:00:00Z</time>
				</trkpt>
				<trkpt lat="53.45364" lon="-0.52136">
					<ele>9</ele>
					<time>0001-01-01T00:00:00Z</time>
				</trkpt>
				<trkpt lat="53.45351" lon="-0.52140">
					<ele>9</ele>
					<time>0001-01-01T00:00:00Z</time>
				</trkpt>
				<trkpt lat="53.45347" lon="-0.52151">
					<ele>10</ele>
					<time>0001-01-01T00:00:00Z</time>
				</trkpt>
				<trkpt lat="53.45334" lon="-0.52321">
					<ele>11</ele>
					<time>0001-01-01T00:00:00Z</time>
				</trkpt>
				<trkpt lat="53.45332" lon="-0.52485">
					<ele>12</ele>
					<time>0001-01-01T00:00:00Z</time>
				</trkpt>
				<trkpt lat="53.45373" lon="-0.52650">
					<ele>15</ele>
					<time>0001-01-01T00:00:00Z</time>
				</trkpt>
				<trkpt lat="53.45447" lon="-0.52834">
					<ele>18</ele>
					<time>0001-01-01T00:00:00Z</time>
				</trkpt>
				<trkpt lat="53.45457" lon="-0.52846">
					<ele>19</ele>
					<time>0001-01-01T00:00:00Z</time>
				</trkpt>
				<trkpt lat="53.45485" lon="-0.52865">
					<ele>19</ele>
					<time>0001-01-01T00:00:00Z</time>
				</trkpt>
				<trkpt lat="53.45521" lon="-0.52940">
					<ele>19</ele>
					<time>0001-01-01T00:00:00Z</time>
				</trkpt>
				<trkpt lat="53.45561" lon="-0.53108">
					<ele>15</ele>
					<time>0001-01-01T00:00:00Z</time>
				</trkpt>
				<trkpt lat="53.45563" lon="-0.53121">
					<ele>15</ele>
					<time>0001-01-01T00:00:00Z</time>
				</trkpt>
				<trkpt lat="53.45566" lon="-0.53269">
					<ele>14</ele>
					<time>0001-01-01T00:00:00Z</time>
				</trkpt>
				<trkpt lat="53.45608" lon="-0.53434">
					<ele>15</ele>
					<time>0001-01-01T00:00:00Z</time>
				</trkpt>
				<trkpt lat="53.45656" lon="-0.53639">
					<ele>16</ele>
					<time>0001-01-01T00:00:00Z</time>
				</trkpt>
				<trkpt lat="53.45695" lon="-0.53790">
					<ele>16</ele>
					<time>0001-01-01T00:00:00Z</time>
				</trkpt>
				<trkpt lat="53.45729" lon="-0.53826">
					<ele>16</ele>
					<time>0001-01-01T00:00:00Z</time>
				</trkpt>
				<trkpt lat="53.45756" lon="-0.53838">
					<ele>16</ele>
					<time>0001-01-01T00:00:00Z</time>
				</trkpt>
				<trkpt lat="53.45776" lon="-0.53914">
					<ele>17</ele>
					<time>0001-01-01T00:00:00Z</time>
				</trkpt>
				<trkpt lat="53.45760" lon="-0.54120">
					<ele>19</ele>
					<time>0001-01-01T00:00:00Z</time>
				</trkpt>
				<trkpt lat="53.45739" lon="-0.54374">
					<ele>21</ele>
					<time>0001-01-01T00:00:00Z</time>
				</trkpt>
				<trkpt lat="53.45708" lon="-0.54587">
					<ele>22</ele>
					<time>0001-01-01T00:00:00Z</time>
				</trkpt>
				<trkpt lat="53.45676" lon="-0.54789">
					<ele>26</ele>
					<time>0001-01-01T00:00:00Z</time>
				</trkpt>
				<trkpt lat="53.45641" lon="-0.55003">
					<ele>30</ele>
					<time>0001-01-01T00:00:00Z</time>
				</trkpt>
				<trkpt lat="53.45623" lon="-0.55161">
					<ele>33</ele>
					<time>0001-01-01T00:00:00Z</time>
				</trkpt>
				<trkpt lat="53.45646" lon="-0.55176">
					<ele>33</ele>
					<time>0001-01-01T00:00:00Z</time>
				</trkpt>
				<trkpt lat="53.45817" lon="-0.55183">
					<ele>31</ele>
					<time>0001-01-01T00:00:00Z</time>
				</trkpt>
				<trkpt lat="53.45925" lon="-0.55185">
					<ele>30</ele>
					<time>0001-01-01T00:00:00Z</time>
				</trkpt>
				<trkpt lat="53.45946" lon="-0.55240">
					<ele>30</ele>
					<time>0001-01-01T00:00:00Z</time>
				</trkpt>
				<trkpt lat="53.45918" lon="-0.55504">
					<ele>33</ele>
					<time>0001-01-01T00:00:00Z</time>
				</trkpt>
				<trkpt lat="53.45892" lon="-0.55716">
					<ele>37</ele>
					<time>0001-01-01T00:00:00Z</time>
				</trkpt>
				<trkpt lat="53.45872" lon="-0.55911">
					<ele>38</ele>
					<time>0001-01-01T00:00:00Z</time>
				</trkpt>
				<trkpt lat="53.45852" lon="-0.56134">
					<ele>40</ele>
					<time>0001-01-01T00:00:00Z</time>
				</trkpt>
				<trkpt lat="53.45830" lon="-0.56357">
					<ele>42</ele>
					<time>0001-01-01T00:00:00Z</time>
				</trkpt>
				<trkpt lat="53.45833" lon="-0.56380">
					<ele>42</ele>
					<time>0001-01-01T00:00:00Z</time>
				</trkpt>
				<trkpt lat="53.45912" lon="-0.56438">
					<ele>42</ele>
					<time>0001-01-01T00:00:00Z</time>
				</trkpt>
				<trkpt lat="53.46050" lon="-0.56532">
					<ele>39</ele>
					<time>0001-01-01T00:00:00Z</time>
				</trkpt>
				<trkpt lat="53.46190" lon="-0.56631">
					<ele>40</ele>
					<time>0001-01-01T00:00:00Z</time>
				</trkpt>
				<trkpt lat="53.46315" lon="-0.56717">
					<ele>40</ele>
					<time>0001-01-01T00:00:00Z</time>
				</trkpt>
				<trkpt lat="53.46429" lon="-0.56797">
					<ele>43</ele>
					<time>0001-01-01T00:00:00Z</time>
				</trkpt>
				<trkpt lat="53.46549" lon="-0.56927">
					<ele>45</ele>
					<time>0001-01-01T00:00:00Z</time>
				</trkpt>
				<trkpt lat="53.46636" lon="-0.57123">
					<ele>48</ele>
					<time>0001-01-01T00:00:00Z</time>
				</trkpt>
				<trkpt lat="53.46717" lon="-0.57361">
					<ele>51</ele>
					<time>0001-01-01T00:00:00Z</time>
				</trkpt>
				<trkpt lat="53.46799" lon="-0.57601">
					<ele>53</ele>
					<time>0001-01-01T00:00:00Z</time>
				</trkpt>
				<trkpt lat="53.46888" lon="-0.57860">
					<ele>57</ele>
					<time>0001-01-01T00:00:00Z</time>
				</trkpt>
				<trkpt lat="53.46982" lon="-0.58136">
					<ele>59</ele>
					<time>0001-01-01T00:00:00Z</time>
				</trkpt>
				<trkpt lat="53.47056" lon="-0.58359">
					<ele>58</ele>
					<time>0001-01-01T00:00:00Z</time>
				</trkpt>
				<trkpt lat="53.47066" lon="-0.58389">
					<ele>57</ele>
					<time>0001-01-01T00:00:00Z</time>
				</trkpt>
				<trkpt lat="53.47086" lon="-0.58413">
					<ele>57</ele>
					<time>0001-01-01T00:00:00Z</time>
				</trkpt>
				<trkpt lat="53.47189" lon="-0.58504">
					<ele>58</ele>
					<time>0001-01-01T00:00:00Z</time>
				</trkpt>
				<trkpt lat="53.47308" lon="-0.58653">
					<ele>58</ele>
					<time>0001-01-01T00:00:00Z</time>
				</trkpt>
				<trkpt lat="53.47434" lon="-0.58816">
					<ele>56</ele>
					<time>0001-01-01T00:00:00Z</time>
				</trkpt>
				<trkpt lat="53.47543" lon="-0.58773">
					<ele>60</ele>
					<time>0001-01-01T00:00:00Z</time>
				</trkpt>
				<trkpt lat="53.47592" lon="-0.58743">
					<ele>58</ele>
					<time>0001-01-01T00:00:00Z</time>
				</trkpt>
				<trkpt lat="53.47733" lon="-0.58709">
					<ele>60</ele>
					<time>0001-01-01T00:00:00Z</time>
				</trkpt>
				<trkpt lat="53.47734" lon="-0.58785">
					<ele>59</ele>
					<time>0001-01-01T00:00:00Z</time>
				</trkpt>
				<trkpt lat="53.47731" lon="-0.58793">
					<ele>59</ele>
					<time>0001-01-01T00:00:00Z</time>
				</trkpt>
				<trkpt lat="53.47725" lon="-0.58810">
					<ele>59</ele>
					<time>0001-01-01T00:00:00Z</time>
				</trkpt>
				<trkpt lat="53.47697" lon="-0.58947">
					<ele>58</ele>
					<time>0001-01-01T00:00:00Z</time>
				</trkpt>
				<trkpt lat="53.47743" lon="-0.59036">
					<ele>54</ele>
					<time>0001-01-01T00:00:00Z</time>
				</trkpt>
				<trkpt lat="53.47773" lon="-0.59060">
					<ele>52</ele>
					<time>0001-01-01T00:00:00Z</time>
				</trkpt>
				<trkpt lat="53.47838" lon="-0.59210">
					<ele>43</ele>
					<time>0001-01-01T00:00:00Z</time>
				</trkpt>
				<trkpt lat="53.47877" lon="-0.59305">
					<ele>38</ele>
					<time>0001-01-01T00:00:00Z</time>
				</trkpt>
				<trkpt lat="53.47912" lon="-0.59368">
					<ele>35</ele>
					<time>0001-01-01T00:00:00Z</time>
				</trkpt>
				<trkpt lat="53.48078" lon="-0.59569">
					<ele>25</ele>
					<time>0001-01-01T00:00:00Z</time>
				</trkpt>
				<trkpt lat="53.48213" lon="-0.59616">
					<ele>23</ele>
					<time>0001-01-01T00:00:00Z</time>
				</trkpt>
				<trkpt lat="53.48393" lon="-0.59653">
					<ele>20</ele>
					<time>0001-01-01T00:00:00Z</time>
				</trkpt>
				<trkpt lat="53.48595" lon="-0.59714">
					<ele>19</ele>
					<time>0001-01-01T00:00:00Z</time>
				</trkpt>
				<trkpt lat="53.48761" lon="-0.59761">
					<ele>18</ele>
					<time>0001-01-01T00:00:00Z</time>
				</trkpt>
				<trkpt lat="53.48936" lon="-0.59811">
					<ele>19</ele>
					<time>0001-01-01T00:00:00Z</time>
				</trkpt>
				<trkpt lat="53.49122" lon="-0.59867">
					<ele>21</ele>
					<time>0001-01-01T00:00:00Z</time>
				</trkpt>
				<trkpt lat="53.49288" lon="-0.59915">
					<ele>22</ele>
					<time>0001-01-01T00:00:00Z</time>
				</trkpt>
				<trkpt lat="53.49411" lon="-0.59988">
					<ele>24</ele>
					<time>0001-01-01T00:00:00Z</time>
				</trkpt>
				<trkpt lat="53.49544" lon="-0.60044">
					<ele>26</ele>
					<time>0001-01-01T00:00:00Z</time>
				</trkpt>
				<trkpt lat="53.49718" lon="-0.60117">
					<ele>26</ele>
					<time>0001-01-01T00:00:00Z</time>
				</trkpt>
				<trkpt lat="53.49857" lon="-0.60203">
					<ele>26</ele>
					<time>0001-01-01T00:00:00Z</time>
				</trkpt>
				<trkpt lat="53.49895" lon="-0.60366">
					<ele>25</ele>
					<time>0001-01-01T00:00:00Z</time>
				</trkpt>
				<trkpt lat="53.49878" lon="-0.60536">
					<ele>24</ele>
					<time>0001-01-01T00:00:00Z</time>
				</trkpt>
				<trkpt lat="53.49875" lon="-0.60625">
					<ele>24</ele>
					<time>0001-01-01T00:00:00Z</time>
				</trkpt>
				<trkpt lat="53.49893" lon="-0.60683">
					<ele>24</ele>
					<time>0001-01-01T00:00:00Z</time>
				</trkpt>
				<trkpt lat="53.49995" lon="-0.60870">
					<ele>22</ele>
					<time>0001-01-01T00:00:00Z</time>
				</trkpt>
				<trkpt lat="53.50090" lon="-0.60951">
					<ele>16</ele>
					<time>0001-01-01T00:00:00Z</time>
				</trkpt>
				<trkpt lat="53.50112" lon="-0.60992">
					<ele>16</ele>
					<time>0001-01-01T00:00:00Z</time>
				</trkpt>
				<trkpt lat="53.50195" lon="-0.61216">
					<ele>15</ele>
					<time>0001-01-01T00:00:00Z</time>
				</trkpt>
				<trkpt lat="53.50198" lon="-0.61229">
					<ele>15</ele>
					<time>0001-01-01T00:00:00Z</time>
				</trkpt>
				<trkpt lat="53.50201" lon="-0.61280">
					<ele>15</ele>
					<time>0001-01-01T00:00:00Z</time>
				</trkpt>
				<trkpt lat="53.50175" lon="-0.61574">
					<ele>14</ele>
					<time>0001-01-01T00:00:00Z</time>
				</trkpt>
				<trkpt lat="53.50151" lon="-0.61852">
					<ele>13</ele>
					<time>0001-01-01T00:00:00Z</time>
				</trkpt>
				<trkpt lat="53.50186" lon="-0.61914">
					<ele>14</ele>
					<time>0001-01-01T00:00:00Z</time>
				</trkpt>
				<trkpt lat="53.50356" lon="-0.61981">
					<ele>13</ele>
					<time>0001-01-01T00:00:00Z</time>
				</trkpt>
				<trkpt lat="53.50513" lon="-0.62042">
					<ele>10</ele>
					<time>0001-01-01T00:00:00Z</time>
				</trkpt>
				<trkpt lat="53.50622" lon="-0.62091">
					<ele>10</ele>
					<time>0001-01-01T00:00:00Z</time>
				</trkpt>
				<trkpt lat="53.50644" lon="-0.62161">
					<ele>11</ele>
					<time>0001-01-01T00:00:00Z</time>
				</trkpt>
				<trkpt lat="53.50662" lon="-0.62485">
					<ele>13</ele>
					<time>0001-01-01T00:00:00Z</time>
				</trkpt>
				<trkpt lat="53.50675" lon="-0.62735">
					<ele>13</ele>
					<time>0001-01-01T00:00:00Z</time>
				</trkpt>
				<trkpt lat="53.50678" lon="-0.62781">
					<ele>13</ele>
					<time>0001-01-01T00:00:00Z</time>
				</trkpt>
				<trkpt lat="53.50710" lon="-0.62835">
					<ele>13</ele>
					<time>0001-01-01T00:00:00Z</time>
				</trkpt>
				<trkpt lat="53.50917" lon="-0.62927">
					<ele>11</ele>
					<time>0001-01-01T00:00:00Z</time>
				</trkpt>
				<trkpt lat="53.51107" lon="-0.63022">
					<ele>10</ele>
					<time>0001-01-01T00:00:00Z</time>
				</trkpt>
				<trkpt lat="53.51314" lon="-0.63138">
					<ele>11</ele>
					<time>0001-01-01T00:00:00Z</time>
				</trkpt>
				<trkpt lat="53.51502" lon="-0.63166">
					<ele>12</ele>
					<time>0001-01-01T00:00:00Z</time>
				</trkpt>
				<trkpt lat="53.51684" lon="-0.63194">
					<ele>14</ele>
					<time>0001-01-01T00:00:00Z</time>
				</trkpt>
				<trkpt lat="53.51841" lon="-0.63216">
					<ele>15</ele>
					<time>0001-01-01T00:00:00Z</time>
				</trkpt>
				<trkpt lat="53.52036" lon="-0.63247">
					<ele>19</ele>
					<time>0001-01-01T00:00:00Z</time>
				</trkpt>
				<trkpt lat="53.52205" lon="-0.63276">
					<ele>20</ele>
					<time>0001-01-01T00:00:00Z</time>
				</trkpt>
				<trkpt lat="53.52389" lon="-0.63303">
					<ele>23</ele>
					<time>0001-01-01T00:00:00Z</time>
				</trkpt>
				<trkpt lat="53.52437" lon="-0.63315">
					<ele>24</ele>
					<time>0001-01-01T00:00:00Z</time>
				</trkpt>
				<trkpt lat="53.52439" lon="-0.63331">
					<ele>24</ele>
					<time>0001-01-01T00:00:00Z</time>
				</trkpt>
				<trkpt lat="53.52427" lon="-0.63530">
					<ele>24</ele>
					<time>0001-01-01T00:00:00Z</time>
				</trkpt>
				<trkpt lat="53.52419" lon="-0.63758">
					<ele>28</ele>
					<time>0001-01-01T00:00:00Z</time>
				</trkpt>
				<trkpt lat="53.52428" lon="-0.63797">
					<ele>28</ele>
					<time>0001-01-01T00:00:00Z</time>
				</trkpt>
				<trkpt lat="53.52509" lon="-0.64019">
					<ele>28</ele>
					<time>0001-01-01T00:00:00Z</time>
				</trkpt>
				<trkpt lat="53.52552" lon="-0.64296">
					<ele>29</ele>
					<time>0001-01-01T00:00:00Z</time>
				</trkpt>
				<trkpt lat="53.52598" lon="-0.64606">
					<ele>30</ele>
					<time>0001-01-01T00:00:00Z</time>
				</trkpt>
				<trkpt lat="53.52657" lon="-0.64873">
					<ele>31</ele>
					<time>0001-01-01T00:00:00Z</time>
				</trkpt>
				<trkpt lat="53.52698" lon="-0.65016">
					<ele>31</ele>
					<time>0001-01-01T00:00:00Z</time>
				</trkpt>
				<trkpt lat="53.52674" lon="-0.65280">
					<ele>26</ele>
					<time>0001-01-01T00:00:00Z</time>
				</trkpt>
				<trkpt lat="53.52673" lon="-0.65341">
					<ele>26</ele>
					<time>0001-01-01T00:00:00Z</time>
				</trkpt>
				<trkpt lat="53.52688" lon="-0.65352">
					<ele>26</ele>
					<time>0001-01-01T00:00:00Z</time>
				</trkpt>
				<trkpt lat="53.52799" lon="-0.65362">
					<ele>28</ele>
					<time>0001-01-01T00:00:00Z</time>
				</trkpt>
				<trkpt lat="53.52870" lon="-0.65381">
					<ele>31</ele>
					<time>0001-01-01T00:00:00Z</time>
				</trkpt>
				<trkpt lat="53.52868" lon="-0.65375">
					<ele>31</ele>
					<time>0001-01-01T00:00:00Z</time>
				</trkpt>
				<trkpt lat="53.52830" lon="-0.65365">
					<ele>29</ele>
					<time>0001-01-01T00:00:00Z</time>
				</trkpt>
				<trkpt lat="53.52822" lon="-0.65398">
					<ele>28</ele>
					<time>0001-01-01T00:00:00Z</time>
				</trkpt>
				<trkpt lat="53.52811" lon="-0.65615">
					<ele>26</ele>
					<time>0001-01-01T00:00:00Z</time>
				</trkpt>
				<trkpt lat="53.52808" lon="-0.65639">
					<ele>26</ele>
					<time>0001-01-01T00:00:00Z</time>
				</trkpt>
				<trkpt lat="53.52760" lon="-0.65762">
					<ele>26</ele>
					<time>0001-01-01T00:00:00Z</time>
				</trkpt>
				<trkpt lat="53.52690" lon="-0.66170">
					<ele>27</ele>
					<time>0001-01-01T00:00:00Z</time>
				</trkpt>
				<trkpt lat="53.52694" lon="-0.66412">
					<ele>22</ele>
					<time>0001-01-01T00:00:00Z</time>
				</trkpt>
				<trkpt lat="53.52736" lon="-0.66802">
					<ele>11</ele>
					<time>0001-01-01T00:00:00Z</time>
				</trkpt>
				<trkpt lat="53.52771" lon="-0.67099">
					<ele>6</ele>
					<time>0001-01-01T00:00:00Z</time>
				</trkpt>
				<trkpt lat="53.52773" lon="-0.67139">
					<ele>5</ele>
					<time>0001-01-01T00:00:00Z</time>
				</trkpt>
				<trkpt lat="53.52778" lon="-0.67219">
					<ele>5</ele>
					<time>0001-01-01T00:00:00Z</time>
				</trkpt>
				<trkpt lat="53.52783" lon="-0.67412">
					<ele>5</ele>
					<time>0001-01-01T00:00:00Z</time>
				</trkpt>
				<trkpt lat="53.52794" lon="-0.67701">
					<ele>3</ele>
					<time>0001-01-01T00:00:00Z</time>
				</trkpt>
				<trkpt lat="53.52805" lon="-0.68019">
					<ele>0</ele>
					<time>0001-01-01T00:00:00Z</time>
				</trkpt>
				<trkpt lat="53.52817" lon="-0.68380">
					<ele>3</ele>
					<time>0001-01-01T00:00:00Z</time>
				</trkpt>
				<trkpt lat="53.52831" lon="-0.68745">
					<ele>4</ele>
					<time>0001-01-01T00:00:00Z</time>
				</trkpt>
				<trkpt lat="53.52844" lon="-0.69043">
					<ele>3</ele>
					<time>0001-01-01T00:00:00Z</time>
				</trkpt>
				<trkpt lat="53.52856" lon="-0.69436">
					<ele>2</ele>
					<time>0001-01-01T00:00:00Z</time>
				</trkpt>
				<trkpt lat="53.52863" lon="-0.69586">
					<ele>2</ele>
					<time>0001-01-01T00:00:00Z</time>
				</trkpt>
				<trkpt lat="53.52916" lon="-0.69783">
					<ele>1</ele>
					<time>0001-01-01T00:00:00Z</time>
				</trkpt>
				<trkpt lat="53.53001" lon="-0.70087">
					<ele>0</ele>
					<time>0001-01-01T00:00:00Z</time>
				</trkpt>
				<trkpt lat="53.53082" lon="-0.70377">
					<ele>-2</ele>
					<time>0001-01-01T00:00:00Z</time>
				</trkpt>
				<trkpt lat="53.53158" lon="-0.70647">
					<ele>-2</ele>
					<time>0001-01-01T00:00:00Z</time>
				</trkpt>
				<trkpt lat="53.53230" lon="-0.70948">
					<ele>-1</ele>
					<time>0001-01-01T00:00:00Z</time>
				</trkpt>
				<trkpt lat="53.53276" lon="-0.71251">
					<ele>0</ele>
					<time>0001-01-01T00:00:00Z</time>
				</trkpt>
				<trkpt lat="53.53299" lon="-0.71382">
					<ele>0</ele>
					<time>0001-01-01T00:00:00Z</time>
				</trkpt>
				<trkpt lat="53.53331" lon="-0.71429">
					<ele>0</ele>
					<time>0001-01-01T00:00:00Z</time>
				</trkpt>
				<trkpt lat="53.53511" lon="-0.71571">
					<ele>0</ele>
					<time>0001-01-01T00:00:00Z</time>
				</trkpt>
				<trkpt lat="53.53612" lon="-0.71647">
					<ele>1</ele>
					<time>0001-01-01T00:00:00Z</time>
				</trkpt>
				<trkpt lat="53.53690" lon="-0.71796">
					<ele>0</ele>
					<time>0001-01-01T00:00:00Z</time>
				</trkpt>
				<trkpt lat="53.53792" lon="-0.72028">
					<ele>-2</ele>
					<time>0001-01-01T00:00:00Z</time>
				</trkpt>
				<trkpt lat="53.53838" lon="-0.72234">
					<ele>-2</ele>
					<time>0001-01-01T00:00:00Z</time>
				</trkpt>
				<trkpt lat="53.53824" lon="-0.72299">
					<ele>0</ele>
					<time>0001-01-01T00:00:00Z</time>
				</trkpt>
				<trkpt lat="53.53811" lon="-0.72326">
					<ele>0</ele>
					<time>0001-01-01T00:00:00Z</time>
				</trkpt>
				<trkpt lat="53.53810" lon="-0.72395">
					<ele>-1</ele>
					<time>0001-01-01T00:00:00Z</time>
				</trkpt>
				<trkpt lat="53.53862" lon="-0.72662">
					<ele>0</ele>
					<time>0001-01-01T00:00:00Z</time>
				</trkpt>
				<trkpt lat="53.53928" lon="-0.72993">
					<ele>0</ele>
					<time>0001-01-01T00:00:00Z</time>
				</trkpt>
				<trkpt lat="53.53966" lon="-0.73025">
					<ele>0</ele>
					<time>0001-01-01T00:00:00Z</time>
				</trkpt>
				<trkpt lat="53.54007" lon="-0.73023">
					<ele>0</ele>
					<time>0001-01-01T00:00:00Z</time>
				</trkpt>
				<trkpt lat="53.54033" lon="-0.73087">
					<ele>-1</ele>
					<time>0001-01-01T00:00:00Z</time>
				</trkpt>
				<trkpt lat="53.54032" lon="-0.73408">
					<ele>0</ele>
					<time>0001-01-01T00:00:00Z</time>
				</trkpt>
				<trkpt lat="53.54023" lon="-0.73692">
					<ele>2</ele>
					<time>0001-01-01T00:00:00Z</time>
				</trkpt>
				<trkpt lat="53.54038" lon="-0.73886">
					<ele>3</ele>
					<time>0001-01-01T00:00:00Z</time>
				</trkpt>
				<trkpt lat="53.54042" lon="-0.73900">
					<ele>3</ele>
					<time>0001-01-01T00:00:00Z</time>
				</trkpt>
				<trkpt lat="53.54055" lon="-0.73894">
					<ele>2</ele>
					<time>0001-01-01T00:00:00Z</time>
				</trkpt>
				<trkpt lat="53.54146" lon="-0.73808">
					<ele>2</ele>
					<time>0001-01-01T00:00:00Z</time>
				</trkpt>
				<trkpt lat="53.54227" lon="-0.73760">
					<ele>3</ele>
					<time>0001-01-01T00:00:00Z</time>
				</trkpt>
				<trkpt lat="53.54333" lon="-0.73702">
					<ele>3</ele>
					<time>0001-01-01T00:00:00Z</time>
				</trkpt>
				<trkpt lat="53.54469" lon="-0.73680">
					<ele>3</ele>
					<time>0001-01-01T00:00:00Z</time>
				</trkpt>
				<trkpt lat="53.54586" lon="-0.73675">
					<ele>3</ele>
					<time>0001-01-01T00:00:00Z</time>
				</trkpt>
				<trkpt lat="53.54629" lon="-0.73692">
					<ele>3</ele>
					<time>0001-01-01T00:00:00Z</time>
				</trkpt>
				<trkpt lat="53.54699" lon="-0.73693">
					<ele>4</ele>
					<time>0001-01-01T00:00:00Z</time>
				</trkpt>
				<trkpt lat="53.54842" lon="-0.73758">
					<ele>3</ele>
					<time>0001-01-01T00:00:00Z</time>
				</trkpt>
				<trkpt lat="53.54954" lon="-0.73790">
					<ele>2</ele>
					<time>0001-01-01T00:00:00Z</time>
				</trkpt>
				<trkpt lat="53.55079" lon="-0.73875">
					<ele>2</ele>
					<time>0001-01-01T00:00:00Z</time>
				</trkpt>
				<trkpt lat="53.55208" lon="-0.73998">
					<ele>3</ele>
					<time>0001-01-01T00:00:00Z</time>
				</trkpt>
				<trkpt lat="53.55320" lon="-0.74140">
					<ele>1</ele>
					<time>0001-01-01T00:00:00Z</time>
				</trkpt>
				<trkpt lat="53.55413" lon="-0.74252">
					<ele>0</ele>
					<time>0001-01-01T00:00:00Z</time>
				</trkpt>
				<trkpt lat="53.55536" lon="-0.74368">
					<ele>0</ele>
					<time>0001-01-01T00:00:00Z</time>
				</trkpt>
				<trkpt lat="53.55698" lon="-0.74479">
					<ele>2</ele>
					<time>0001-01-01T00:00:00Z</time>
				</trkpt>
				<trkpt lat="53.55779" lon="-0.74504">
					<ele>2</ele>
					<time>0001-01-01T00:00:00Z</time>
				</trkpt>
				<trkpt lat="53.55961" lon="-0.74561">
					<ele>2</ele>
					<time>0001-01-01T00:00:00Z</time>
				</trkpt>
				<trkpt lat="53.56157" lon="-0.74593">
					<ele>2</ele>
					<time>0001-01-01T00:00:00Z</time>
				</trkpt>
				<trkpt lat="53.56382" lon="-0.74597">
					<ele>3</ele>
					<time>0001-01-01T00:00:00Z</time>
				</trkpt>
				<trkpt lat="53.56557" lon="-0.74588">
					<ele>3</ele>
					<time>0001-01-01T00:00:00Z</time>
				</trkpt>
				<trkpt lat="53.56755" lon="-0.74569">
					<ele>3</ele>
					<time>0001-01-01T00:00:00Z</time>
				</trkpt>
				<trkpt lat="53.56891" lon="-0.74541">
					<ele>4</ele>
					<time>0001-01-01T00:00:00Z</time>
				</trkpt>
				<trkpt lat="53.57007" lon="-0.74466">
					<ele>4</ele>
					<time>0001-01-01T00:00:00Z</time>
				</trkpt>
				<trkpt lat="53.57070" lon="-0.74325">
					<ele>3</ele>
					<time>0001-01-01T00:00:00Z</time>
				</trkpt>
				<trkpt lat="53.57078" lon="-0.74279">
					<ele>3</ele>
					<time>0001-01-01T00:00:00Z</time>
				</trkpt>
				<trkpt lat="53.57077" lon="-0.74277">
					<ele>3</ele>
					<time>0001-01-01T00:00:00Z</time>
				</trkpt>
				<trkpt lat="53.57078" lon="-0.74270">
					<ele>3</ele>
					<time>0001-01-01T00:00:00Z</time>
				</trkpt>
				<trkpt lat="53.57081" lon="-0.74275">
					<ele>3</ele>
					<time>0001-01-01T00:00:00Z</time>
				</trkpt>
				<trkpt lat="53.57074" lon="-0.74310">
					<ele>3</ele>
					<time>0001-01-01T00:00:00Z</time>
				</trkpt>
				<trkpt lat="53.57047" lon="-0.74399">
					<ele>3</ele>
					<time>0001-01-01T00:00:00Z</time>
				</trkpt>
				<trkpt lat="53.57031" lon="-0.74431">
					<ele>3</ele>
					<time>0001-01-01T00:00:00Z</time>
				</trkpt>
				<trkpt lat="53.57049" lon="-0.74476">
					<ele>2</ele>
					<time>0001-01-01T00:00:00Z</time>
				</trkpt>
				<trkpt lat="53.57063" lon="-0.74474">
					<ele>2</ele>
					<time>0001-01-01T00:00:00Z</time>
				</trkpt>
				<trkpt lat="53.57090" lon="-0.74455">
					<ele>2</ele>
					<time>0001-01-01T00:00:00Z</time>
				</trkpt>
				<trkpt lat="53.57130" lon="-0.74318">
					<ele>3</ele>
					<time>0001-01-01T00:00:00Z</time>
				</trkpt>
				<trkpt lat="53.57213" lon="-0.74211">
					<ele>4</ele>
					<time>0001-01-01T00:00:00Z</time>
				</trkpt>
				<trkpt lat="53.57329" lon="-0.74093">
					<ele>4</ele>
					<time>0001-01-01T00:00:00Z</time>
				</trkpt>
				<trkpt lat="53.57429" lon="-0.73930">
					<ele>5</ele>
					<time>0001-01-01T00:00:00Z</time>
				</trkpt>
				<trkpt lat="53.57476" lon="-0.73848">
					<ele>4</ele>
					<time>0001-01-01T00:00:00Z</time>
				</trkpt>
				<trkpt lat="53.57548" lon="-0.73719">
					<ele>4</ele>
					<time>0001-01-01T00:00:00Z</time>
				</trkpt>
				<trkpt lat="53.57652" lon="-0.73570">
					<ele>5</ele>
					<time>0001-01-01T00:00:00Z</time>
				</trkpt>
				<trkpt lat="53.57768" lon="-0.73390">
					<ele>5</ele>
					<time>0001-01-01T00:00:00Z</time>
				</trkpt>
				<trkpt lat="53.57897" lon="-0.73215">
					<ele>5</ele>
					<time>0001-01-01T00:00:00Z</time>
				</trkpt>
				<trkpt lat="53.58023" lon="-0.73074">
					<ele>4</ele>
					<time>0001-01-01T00:00:00Z</time>
				</trkpt>
				<trkpt lat="53.58168" lon="-0.72959">
					<ele>6</ele>
					<time>0001-01-01T00:00:00Z</time>
				</trkpt>
				<trkpt lat="53.58316" lon="-0.72919">
					<ele>5</ele>
					<time>0001-01-01T00:00:00Z</time>
				</trkpt>
				<trkpt lat="53.58488" lon="-0.72897">
					<ele>3</ele>
					<time>0001-01-01T00:00:00Z</time>
				</trkpt>
				<trkpt lat="53.58622" lon="-0.72888">
					<ele>3</ele>
					<time>0001-01-01T00:00:00Z</time>
				</trkpt>
				<trkpt lat="53.58689" lon="-0.72862">
					<ele>3</ele>
					<time>0001-01-01T00:00:00Z</time>
				</trkpt>
				<trkpt lat="53.58711" lon="-0.72882">
					<ele>3</ele>
					<time>0001-01-01T00:00:00Z</time>
				</trkpt>
				<trkpt lat="53.58712" lon="-0.72886">
					<ele>3</ele>
					<time>0001-01-01T00:00:00Z</time>
				</trkpt>
				<trkpt lat="53.58706" lon="-0.72894">
					<ele>3</ele>
					<time>0001-01-01T00:00:00Z</time>
				</trkpt>
				<trkpt lat="53.58643" lon="-0.72914">
					<ele>6</ele>
					<time>0001-01-01T00:00:00Z</time>
				</trkpt>
				<trkpt lat="53.58606" lon="-0.72920">
					<ele>7</ele>
					<time>0001-01-01T00:00:00Z</time>
				</trkpt>
				<trkpt lat="53.58586" lon="-0.72945">
					<ele>9</ele>
					<time>0001-01-01T00:00:00Z</time>
				</trkpt>
				<trkpt lat="53.58567" lon="-0.73340">
					<ele>10</ele>
					<time>0001-01-01T00:00:00Z</time>
				</trkpt>
				<trkpt lat="53.58560" lon="-0.73578">
					<ele>4</ele>
					<time>0001-01-01T00:00:00Z</time>
				</trkpt>
				<trkpt lat="53.58561" lon="-0.73616">
					<ele>3</ele>
					<time>0001-01-01T00:00:00Z</time>
				</trkpt>
				<trkpt lat="53.58538" lon="-0.73673">
					<ele>2</ele>
					<time>0001-01-01T00:00:00Z</time>
				</trkpt>
				<trkpt lat="53.58387" lon="-0.73723">
					<ele>3</ele>
					<time>0001-01-01T00:00:00Z</time>
				</trkpt>
				<trkpt lat="53.58312" lon="-0.73742">
					<ele>3</ele>
					<time>0001-01-01T00:00:00Z</time>
				</trkpt>
				<trkpt lat="53.58198" lon="-0.73776">
					<ele>3</ele>
					<time>0001-01-01T00:00:00Z</time>
				</trkpt>
				<trkpt lat="53.58037" lon="-0.73824">
					<ele>3</ele>
					<time>0001-01-01T00:00:00Z</time>
				</trkpt>
				<trkpt lat="53.57939" lon="-0.73858">
					<ele>3</ele>
					<time>0001-01-01T00:00:00Z</time>
				</trkpt>
				<trkpt lat="53.57802" lon="-0.73994">
					<ele>4</ele>
					<time>0001-01-01T00:00:00Z</time>
				</trkpt>
				<trkpt lat="53.57765" lon="-0.74064">
					<ele>4</ele>
					<time>0001-01-01T00:00:00Z</time>
				</trkpt>
				<trkpt lat="53.57716" lon="-0.74091">
					<ele>-2</ele>
					<time>0001-01-01T00:00:00Z</time>
				</trkpt>
				<trkpt lat="53.57595" lon="-0.74194">
					<ele>-1</ele>
					<time>0001-01-01T00:00:00Z</time>
				</trkpt>
				<trkpt lat="53.57541" lon="-0.74283">
					<ele>0</ele>
					<time>0001-01-01T00:00:00Z</time>
				</trkpt>
				<trkpt lat="53.57512" lon="-0.74422">
					<ele>0</ele>
					<time>0001-01-01T00:00:00Z</time>
				</trkpt>
				<trkpt lat="53.57494" lon="-0.74450">
					<ele>1</ele>
					<time>0001-01-01T00:00:00Z</time>
				</trkpt>
				<trkpt lat="53.57383" lon="-0.74562">
					<ele>1</ele>
					<time>0001-01-01T00:00:00Z</time>
				</trkpt>
				<trkpt lat="53.57284" lon="-0.74674">
					<ele>2</ele>
					<time>0001-01-01T00:00:00Z</time>
				</trkpt>
				<trkpt lat="53.57181" lon="-0.74752">
					<ele>1</ele>
					<time>0001-01-01T00:00:00Z</time>
				</trkpt>
				<trkpt lat="53.57041" lon="-0.74788">
					<ele>2</ele>
					<time>0001-01-01T00:00:00Z</time>
				</trkpt>
				<trkpt lat="53.56904" lon="-0.74847">
					<ele>3</ele>
					<time>0001-01-01T00:00:00Z</time>
				</trkpt>
				<trkpt lat="53.56767" lon="-0.74901">
					<ele>2</ele>
					<time>0001-01-01T00:00:00Z</time>
				</trkpt>
				<trkpt lat="53.56628" lon="-0.74912">
					<ele>0</ele>
					<time>0001-01-01T00:00:00Z</time>
				</trkpt>
				<trkpt lat="53.56503" lon="-0.74925">
					<ele>1</ele>
					<time>0001-01-01T00:00:00Z</time>
				</trkpt>
				<trkpt lat="53.56394" lon="-0.74936">
					<ele>1</ele>
					<time>0001-01-01T00:00:00Z</time>
				</trkpt>
				<trkpt lat="53.56313" lon="-0.74943">
					<ele>0</ele>
					<time>0001-01-01T00:00:00Z</time>
				</trkpt>
				<trkpt lat="53.56297" lon="-0.74988">
					<ele>0</ele>
					<time>0001-01-01T00:00:00Z</time>
				</trkpt>
				<trkpt lat="53.56314" lon="-0.75199">
					<ele>1</ele>
					<time>0001-01-01T00:00:00Z</time>
				</trkpt>
				<trkpt lat="53.56321" lon="-0.75435">
					<ele>1</ele>
					<time>0001-01-01T00:00:00Z</time>
				</trkpt>
				<trkpt lat="53.56324" lon="-0.75701">
					<ele>1</ele>
					<time>0001-01-01T00:00:00Z</time>
				</trkpt>
				<trkpt lat="53.56325" lon="-0.75957">
					<ele>1</ele>
					<time>0001-01-01T00:00:00Z</time>
				</trkpt>
				<trkpt lat="53.56315" lon="-0.76105">
					<ele>1</ele>
					<time>0001-01-01T00:00:00Z</time>
				</trkpt>
				<trkpt lat="53.56304" lon="-0.76137">
					<ele>1</ele>
					<time>0001-01-01T00:00:00Z</time>
				</trkpt>
				<trkpt lat="53.56207" lon="-0.76344">
					<ele>2</ele>
					<time>0001-01-01T00:00:00Z</time>
				</trkpt>
				<trkpt lat="53.56081" lon="-0.76565">
					<ele>2</ele>
					<time>0001-01-01T00:00:00Z</time>
				</trkpt>
				<trkpt lat="53.55969" lon="-0.76788">
					<ele>1</ele>
					<time>0001-01-01T00:00:00Z</time>
				</trkpt>
				<trkpt lat="53.55857" lon="-0.77006">
					<ele>2</ele>
					<time>0001-01-01T00:00:00Z</time>
				</trkpt>
				<trkpt lat="53.55767" lon="-0.77184">
					<ele>3</ele>
					<time>0001-01-01T00:00:00Z</time>
				</trkpt>
				<trkpt lat="53.55672" lon="-0.77400">
					<ele>4</ele>
					<time>0001-01-01T00:00:00Z</time>
				</trkpt>
				<trkpt lat="53.55615" lon="-0.77533">
					<ele>9</ele>
					<time>0001-01-01T00:00:00Z</time>
				</trkpt>
				<trkpt lat="53.55538" lon="-0.77656">
					<ele>11</ele>
					<time>0001-01-01T00:00:00Z</time>
				</trkpt>
				<trkpt lat="53.55443" lon="-0.77786">
					<ele>7</ele>
					<time>0001-01-01T00:00:00Z</time>
				</trkpt>
				<trkpt lat="53.55392" lon="-0.77823">
					<ele>4</ele>
					<time>0001-01-01T00:00:00Z</time>
				</trkpt>
				<trkpt lat="53.55362" lon="-0.77827">
					<ele>3</ele>
					<time>0001-01-01T00:00:00Z</time>
				</trkpt>
				<trkpt lat="53.55346" lon="-0.77824">
					<ele>3</ele>
					<time>0001-01-01T00:00:00Z</time>
				</trkpt>
				<trkpt lat="53.55226" lon="-0.77744">
					<ele>4</ele>
					<time>0001-01-01T00:00:00Z</time>
				</trkpt>
				<trkpt lat="53.55184" lon="-0.77717">
					<ele>4</ele>
					<time>0001-01-01T00:00:00Z</time>
				</trkpt>
				<trkpt lat="53.55150" lon="-0.77760">
					<ele>5</ele>
					<time>0001-01-01T00:00:00Z</time>
				</trkpt>
				<trkpt lat="53.55150" lon="-0.77770">
					<ele>5</ele>
					<time>0001-01-01T00:00:00Z</time>
				</trkpt>
				<trkpt lat="53.55149" lon="-0.77821">
					<ele>6</ele>
					<time>0001-01-01T00:00:00Z</time>
				</trkpt>
				<trkpt lat="53.55117" lon="-0.77893">
					<ele>7</ele>
					<time>0001-01-01T00:00:00Z</time>
				</trkpt>
				<trkpt lat="53.55107" lon="-0.78105">
					<ele>7</ele>
					<time>0001-01-01T00:00:00Z</time>
				</trkpt>
				<trkpt lat="53.55108" lon="-0.78214">
					<ele>7</ele>
					<time>0001-01-01T00:00:00Z</time>
				</trkpt>
				<trkpt lat="53.55151" lon="-0.78362">
					<ele>6</ele>
					<time>0001-01-01T00:00:00Z</time>
				</trkpt>
				<trkpt lat="53.55198" lon="-0.78541">
					<ele>8</ele>
					<time>0001-01-01T00:00:00Z</time>
				</trkpt>
				<trkpt lat="53.55234" lon="-0.78778">
					<ele>9</ele>
					<time>0001-01-01T00:00:00Z</time>
				</trkpt>
				<trkpt lat="53.55239" lon="-0.79026">
					<ele>8</ele>
					<time>0001-01-01T00:00:00Z</time>
				</trkpt>
				<trkpt lat="53.55234" lon="-0.79278">
					<ele>9</ele>
					<time>0001-01-01T00:00:00Z</time>
				</trkpt>
				<trkpt lat="53.55229" lon="-0.79492">
					<ele>9</ele>
					<time>0001-01-01T00:00:00Z</time>
				</trkpt>
				<trkpt lat="53.55277" lon="-0.79716">
					<ele>9</ele>
					<time>0001-01-01T00:00:00Z</time>
				</trkpt>
				<trkpt lat="53.55293" lon="-0.79919">
					<ele>8</ele>
					<time>0001-01-01T00:00:00Z</time>
				</trkpt>
				<trkpt lat="53.55282" lon="-0.80222">
					<ele>7</ele>
					<time>0001-01-01T00:00:00Z</time>
				</trkpt>
				<trkpt lat="53.55269" lon="-0.80516">
					<ele>6</ele>
					<time>0001-01-01T00:00:00Z</time>
				</trkpt>
				<trkpt lat="53.55287" lon="-0.80684">
					<ele>5</ele>
					<time>0001-01-01T00:00:00Z</time>
				</trkpt>
				<trkpt lat="53.55283" lon="-0.80896">
					<ele>4</ele>
					<time>0001-01-01T00:00:00Z</time>
				</trkpt>
				<trkpt lat="53.55283" lon="-0.80934">
					<ele>4</ele>
					<time>0001-01-01T00:00:00Z</time>
				</trkpt>
				<trkpt lat="53.55306" lon="-0.80972">
					<ele>3</ele>
					<time>0001-01-01T00:00:00Z</time>
				</trkpt>
				<trkpt lat="53.55427" lon="-0.80993">
					<ele>3</ele>
					<time>0001-01-01T00:00:00Z</time>
				</trkpt>
				<trkpt lat="53.55530" lon="-0.81034">
					<ele>2</ele>
					<time>0001-01-01T00:00:00Z</time>
				</trkpt>
				<trkpt lat="53.55548" lon="-0.81059">
					<ele>2</ele>
					<time>0001-01-01T00:00:00Z</time>
				</trkpt>
				<trkpt lat="53.55609" lon="-0.81296">
					<ele>2</ele>
					<time>0001-01-01T00:00:00Z</time>
				</trkpt>
				<trkpt lat="53.55638" lon="-0.81423">
					<ele>2</ele>
					<time>0001-01-01T00:00:00Z</time>
				</trkpt>
				<trkpt lat="53.55667" lon="-0.81526">
					<ele>5</ele>
					<time>0001-01-01T00:00:00Z</time>
				</trkpt>
				<trkpt lat="53.55676" lon="-0.81570">
					<ele>5</ele>
					<time>0001-01-01T00:00:00Z</time>
				</trkpt>
				<trkpt lat="53.55674" lon="-0.81635">
					<ele>5</ele>
					<time>0001-01-01T00:00:00Z</time>
				</trkpt>
				<trkpt lat="53.55668" lon="-0.81845">
					<ele>6</ele>
					<time>0001-01-01T00:00:00Z</time>
				</trkpt>
				<trkpt lat="53.55670" lon="-0.81864">
					<ele>6</ele>
					<time>0001-01-01T00:00:00Z</time>
				</trkpt>
				<trkpt lat="53.55711" lon="-0.82017">
					<ele>5</ele>
					<time>0001-01-01T00:00:00Z</time>
				</trkpt>
				<trkpt lat="53.55746" lon="-0.82258">
					<ele>5</ele>
					<time>0001-01-01T00:00:00Z</time>
				</trkpt>
				<trkpt lat="53.55770" lon="-0.82489">
					<ele>5</ele>
					<time>0001-01-01T00:00:00Z</time>
				</trkpt>
				<trkpt lat="53.55781" lon="-0.82709">
					<ele>6</ele>
					<time>0001-01-01T00:00:00Z</time>
				</trkpt>
				<trkpt lat="53.55791" lon="-0.82971">
					<ele>4</ele>
					<time>0001-01-01T00:00:00Z</time>
				</trkpt>
				<trkpt lat="53.55784" lon="-0.83207">
					<ele>4</ele>
					<time>0001-01-01T00:00:00Z</time>
				</trkpt>
				<trkpt lat="53.55781" lon="-0.83369">
					<ele>3</ele>
					<time>0001-01-01T00:00:00Z</time>
				</trkpt>
				<trkpt lat="53.55790" lon="-0.83677">
					<ele>1</ele>
					<time>0001-01-01T00:00:00Z</time>
				</trkpt>
				<trkpt lat="53.55790" lon="-0.83729">
					<ele>0</ele>
					<time>0001-01-01T00:00:00Z</time>
				</trkpt>
				<trkpt lat="53.55839" lon="-0.84000">
					<ele>0</ele>
					<time>0001-01-01T00:00:00Z</time>
				</trkpt>
				<trkpt lat="53.55899" lon="-0.84200">
					<ele>0</ele>
					<time>0001-01-01T00:00:00Z</time>
				</trkpt>
				<trkpt lat="53.55959" lon="-0.84385">
					<ele>2</ele>
					<time>0001-01-01T00:00:00Z</time>
				</trkpt>
				<trkpt lat="53.56022" lon="-0.84577">
					<ele>1</ele>
					<time>0001-01-01T00:00:00Z</time>
				</trkpt>
				<trkpt lat="53.56100" lon="-0.84831">
					<ele>2</ele>
					<time>0001-01-01T00:00:00Z</time>
				</trkpt>
				<trkpt lat="53.56169" lon="-0.85069">
					<ele>1</ele>
					<time>0001-01-01T00:00:00Z</time>
				</trkpt>
				<trkpt lat="53.56227" lon="-0.85265">
					<ele>1</ele>
					<time>0001-01-01T00:00:00Z</time>
				</trkpt>
				<trkpt lat="53.56280" lon="-0.85447">
					<ele>1</ele>
					<time>0001-01-01T00:00:00Z</time>
				</trkpt>
				<trkpt lat="53.56335" lon="-0.85635">
					<ele>1</ele>
					<time>0001-01-01T00:00:00Z</time>
				</trkpt>
				<trkpt lat="53.56396" lon="-0.85869">
					<ele>1</ele>
					<time>0001-01-01T00:00:00Z</time>
				</trkpt>
				<trkpt lat="53.56427" lon="-0.86112">
					<ele>0</ele>
					<time>0001-01-01T00:00:00Z</time>
				</trkpt>
				<trkpt lat="53.56428" lon="-0.86403">
					<ele>0</ele>
					<time>0001-01-01T00:00:00Z</time>
				</trkpt>
				<trkpt lat="53.56423" lon="-0.86600">
					<ele>1</ele>
					<time>0001-01-01T00:00:00Z</time>
				</trkpt>
				<trkpt lat="53.56416" lon="-0.86814">
					<ele>1</ele>
					<time>0001-01-01T00:00:00Z</time>
				</trkpt>
				<trkpt lat="53.56410" lon="-0.87048">
					<ele>0</ele>
					<time>0001-01-01T00:00:00Z</time>
				</trkpt>
				<trkpt lat="53.56402" lon="-0.87326">
					<ele>3</ele>
					<time>0001-01-01T00:00:00Z</time>
				</trkpt>
				<trkpt lat="53.56394" lon="-0.87616">
					<ele>2</ele>
					<time>0001-01-01T00:00:00Z</time>
				</trkpt>
				<trkpt lat="53.56388" lon="-0.87863">
					<ele>2</ele>
					<time>0001-01-01T00:00:00Z</time>
				</trkpt>
				<trkpt lat="53.56385" lon="-0.87880">
					<ele>1</ele>
					<time>0001-01-01T00:00:00Z</time>
				</trkpt>
				<trkpt lat="53.56387" lon="-0.87889">
					<ele>1</ele>
					<time>0001-01-01T00:00:00Z</time>
				</trkpt>
				<trkpt lat="53.56411" lon="-0.87968">
					<ele>1</ele>
					<time>0001-01-01T00:00:00Z</time>
				</trkpt>
				<trkpt lat="53.56435" lon="-0.88078">
					<ele>0</ele>
					<time>0001-01-01T00:00:00Z</time>
				</trkpt>
				<trkpt lat="53.56475" lon="-0.88260">
					<ele>0</ele>
					<time>0001-01-01T00:00:00Z</time>
				</trkpt>
				<trkpt lat="53.56477" lon="-0.88269">
					<ele>0</ele>
					<time>0001-01-01T00:00:00Z</time>
				</trkpt>
				<trkpt lat="53.56556" lon="-0.88399">
					<ele>0</ele>
					<time>0001-01-01T00:00:00Z</time>
				</trkpt>
				<trkpt lat="53.56610" lon="-0.88471">
					<ele>0</ele>
					<time>0001-01-01T00:00:00Z</time>
				</trkpt>
				<trkpt lat="53.56649" lon="-0.88631">
					<ele>0</ele>
					<time>0001-01-01T00:00:00Z</time>
				</trkpt>
				<trkpt lat="53.56642" lon="-0.88861">
					<ele>0</ele>
					<time>0001-01-01T00:00:00Z</time>
				</trkpt>
				<trkpt lat="53.56651" lon="-0.89107">
					<ele>0</ele>
					<time>0001-01-01T00:00:00Z</time>
				</trkpt>
				<trkpt lat="53.56699" lon="-0.89330">
					<ele>-1</ele>
					<time>0001-01-01T00:00:00Z</time>
				</trkpt>
				<trkpt lat="53.56768" lon="-0.89641">
					<ele>-1</ele>
					<time>0001-01-01T00:00:00Z</time>
				</trkpt>
				<trkpt lat="53.56816" lon="-0.89868">
					<ele>-1</ele>
					<time>0001-01-01T00:00:00Z</time>
				</trkpt>
				<trkpt lat="53.56873" lon="-0.90137">
					<ele>0</ele>
					<time>0001-01-01T00:00:00Z</time>
				</trkpt>
				<trkpt lat="53.56926" lon="-0.90390">
					<ele>0</ele>
					<time>0001-01-01T00:00:00Z</time>
				</trkpt>
				<trkpt lat="53.56978" lon="-0.90636">
					<ele>0</ele>
					<time>0001-01-01T00:00:00Z</time>
				</trkpt>
				<trkpt lat="53.57043" lon="-0.90939">
					<ele>1</ele>
					<time>0001-01-01T00:00:00Z</time>
				</trkpt>
				<trkpt lat="53.57103" lon="-0.91223">
					<ele>0</ele>
					<time>0001-01-01T00:00:00Z</time>
				</trkpt>
				<trkpt lat="53.57157" lon="-0.91474">
					<ele>0</ele>
					<time>0001-01-01T00:00:00Z</time>
				</trkpt>
				<trkpt lat="53.57214" lon="-0.91736">
					<ele>0</ele>
					<time>0001-01-01T00:00:00Z</time>
				</trkpt>
				<trkpt lat="53.57261" lon="-0.91956">
					<ele>-1</ele>
					<time>0001-01-01T00:00:00Z</time>
				</trkpt>
				<trkpt lat="53.57309" lon="-0.92179">
					<ele>-1</ele>
					<time>0001-01-01T00:00:00Z</time>
				</trkpt>
				<trkpt lat="53.57337" lon="-0.92287">
					<ele>0</ele>
					<time>0001-01-01T00:00:00Z</time>
				</trkpt>
				<trkpt lat="53.57391" lon="-0.92274">
					<ele>-2</ele>
					<time>0001-01-01T00:00:00Z</time>
				</trkpt>
				<trkpt lat="53.57501" lon="-0.92233">
					<ele>0</ele>
					<time>0001-01-01T00:00:00Z</time>
				</trkpt>
				<trkpt lat="53.57521" lon="-0.92226">
					<ele>0</ele>
					<time>0001-01-01T00:00:00Z</time>
				</trkpt>
				<trkpt lat="53.57636" lon="-0.92189">
					<ele>4</ele>
					<time>0001-01-01T00:00:00Z</time>
				</trkpt>
				<trkpt lat="53.57757" lon="-0.92148">
					<ele>0</ele>
					<time>0001-01-01T00:00:00Z</time>
				</trkpt>
				<trkpt lat="53.57923" lon="-0.92091">
					<ele>1</ele>
					<time>0001-01-01T00:00:00Z</time>
				</trkpt>
				<trkpt lat="53.58174" lon="-0.92005">
					<ele>1</ele>
					<time>0001-01-01T00:00:00Z</time>
				</trkpt>
				<trkpt lat="53.58388" lon="-0.91933">
					<ele>2</ele>
					<time>0001-01-01T00:00:00Z</time>
				</trkpt>
				<trkpt lat="53.58604" lon="-0.91860">
					<ele>2</ele>
					<time>0001-01-01T00:00:00Z</time>
				</trkpt>
				<trkpt lat="53.58736" lon="-0.91814">
					<ele>3</ele>
					<time>0001-01-01T00:00:00Z</time>
				</trkpt>
				<trkpt lat="53.58755" lon="-0.91812">
					<ele>2</ele>
					<time>0001-01-01T00:00:00Z</time>
				</trkpt>
				<trkpt lat="53.58781" lon="-0.91928">
					<ele>0</ele>
					<time>0001-01-01T00:00:00Z</time>
				</trkpt>
				<trkpt lat="53.58800" lon="-0.92017">
					<ele>0</ele>
					<time>0001-01-01T00:00:00Z</time>
				</trkpt>
				<trkpt lat="53.58818" lon="-0.92024">
					<ele>0</ele>
					<time>0001-01-01T00:00:00Z</time>
				</trkpt>
				<trkpt lat="53.58921" lon="-0.91985">
					<ele>0</ele>
					<time>0001-01-01T00:00:00Z</time>
				</trkpt>
				<trkpt lat="53.59053" lon="-0.91935">
					<ele>0</ele>
					<time>0001-01-01T00:00:00Z</time>
				</trkpt>
				<trkpt lat="53.59186" lon="-0.91884">
					<ele>2</ele>
					<time>0001-01-01T00:00:00Z</time>
				</trkpt>
				<trkpt lat="53.59387" lon="-0.91808">
					<ele>2</ele>
					<time>0001-01-01T00:00:00Z</time>
				</trkpt>
				<trkpt lat="53.59539" lon="-0.91749">
					<ele>2</ele>
					<time>0001-01-01T00:00:00Z</time>
				</trkpt>
				<trkpt lat="53.59738" lon="-0.91674">
					<ele>1</ele>
					<time>0001-01-01T00:00:00Z</time>
				</trkpt>
				<trkpt lat="53.59924" lon="-0.91604">
					<ele>0</ele>
					<time>0001-01-01T00:00:00Z</time>
				</trkpt>
				<trkpt lat="53.60057" lon="-0.91554">
					<ele>0</ele>
					<time>0001-01-01T00:00:00Z</time>
				</trkpt>
				<trkpt lat="53.60086" lon="-0.91572">
					<ele>0</ele>
					<time>0001-01-01T00:00:00Z</time>
				</trkpt>
				<trkpt lat="53.60126" lon="-0.91615">
					<ele>0</ele>
					<time>0001-01-01T00:00:00Z</time>
				</trkpt>
				<trkpt lat="53.60181" lon="-0.91643">
					<ele>1</ele>
					<time>0001-01-01T00:00:00Z</time>
				</trkpt>
				<trkpt lat="53.60184" lon="-0.91644">
					<ele>0</ele>
					<time>0001-01-01T00:00:00Z</time>
				</trkpt>
				<trkpt lat="53.60183" lon="-0.91671">
					<ele>0</ele>
					<time>0001-01-01T00:00:00Z</time>
				</trkpt>
				<trkpt lat="53.60152" lon="-0.91818">
					<ele>-1</ele>
					<time>0001-01-01T00:00:00Z</time>
				</trkpt>
				<trkpt lat="53.60106" lon="-0.92053">
					<ele>-2</ele>
					<time>0001-01-01T00:00:00Z</time>
				</trkpt>
				<trkpt lat="53.60063" lon="-0.92278">
					<ele>-3</ele>
					<time>0001-01-01T00:00:00Z</time>
				</trkpt>
				<trkpt lat="53.60033" lon="-0.92433">
					<ele>-1</ele>
					<time>0001-01-01T00:00:00Z</time>
				</trkpt>
				<trkpt lat="53.60023" lon="-0.92528">
					<ele>-2</ele>
					<time>0001-01-01T00:00:00Z</time>
				</trkpt>
				<trkpt lat="53.60069" lon="-0.92791">
					<ele>-2</ele>
					<time>0001-01-01T00:00:00Z</time>
				</trkpt>
				<trkpt lat="53.60153" lon="-0.93030">
					<ele>-1</ele>
					<time>0001-01-01T00:00:00Z</time>
				</trkpt>
				<trkpt lat="53.60260" lon="-0.93261">
					<ele>0</ele>
					<time>0001-01-01T00:00:00Z</time>
				</trkpt>
				<trkpt lat="53.60374" lon="-0.93457">
					<ele>0</ele>
					<time>0001-01-01T00:00:00Z</time>
				</trkpt>
				<trkpt lat="53.60440" lon="-0.93567">
					<ele>0</ele>
					<time>0001-01-01T00:00:00Z</time>
				</trkpt>
				<trkpt lat="53.60515" lon="-0.93693">
					<ele>0</ele>
					<time>0001-01-01T00:00:00Z</time>
				</trkpt>
				<trkpt lat="53.60611" lon="-0.93859">
					<ele>0</ele>
					<time>0001-01-01T00:00:00Z</time>
				</trkpt>
				<trkpt lat="53.60675" lon="-0.93953">
					<ele>0</ele>
					<time>0001-01-01T00:00:00Z</time>
				</trkpt>
				<trkpt lat="53.60787" lon="-0.94042">
					<ele>3</ele>
					<time>0001-01-01T00:00:00Z</time>
				</trkpt>
				<trkpt lat="53.60944" lon="-0.94179">
					<ele>4</ele>
					<time>0001-01-01T00:00:00Z</time>
				</trkpt>
				<trkpt lat="53.61097" lon="-0.94325">
					<ele>6</ele>
					<time>0001-01-01T00:00:00Z</time>
				</trkpt>
				<trkpt lat="53.61270" lon="-0.94482">
					<ele>6</ele>
					<time>0001-01-01T00:00:00Z</time>
				</trkpt>
				<trkpt lat="53.61336" lon="-0.94546">
					<ele>5</ele>
					<time>0001-01-01T00:00:00Z</time>
				</trkpt>
				<trkpt lat="53.61353" lon="-0.94582">
					<ele>4</ele>
					<time>0001-01-01T00:00:00Z</time>
				</trkpt>
				<trkpt lat="53.61369" lon="-0.94621">
					<ele>3</ele>
					<time>0001-01-01T00:00:00Z</time>
				</trkpt>
				<trkpt lat="53.61389" lon="-0.94650">
					<ele>3</ele>
					<time>0001-01-01T00:00:00Z</time>
				</trkpt>
				<trkpt lat="53.61394" lon="-0.94722">
					<ele>3</ele>
					<time>0001-01-01T00:00:00Z</time>
				</trkpt>
				<trkpt lat="53.61352" lon="-0.94920">
					<ele>0</ele>
					<time>0001-01-01T00:00:00Z</time>
				</trkpt>
				<trkpt lat="53.61332" lon="-0.95006">
					<ele>0</ele>
					<time>0001-01-01T00:00:00Z</time>
				</trkpt>
				<trkpt lat="53.61305" lon="-0.95135">
					<ele>1</ele>
					<time>0001-01-01T00:00:00Z</time>
				</trkpt>
				<trkpt lat="53.61299" lon="-0.95163">
					<ele>2</ele>
					<time>0001-01-01T00:00:00Z</time>
				</trkpt>
				<trkpt lat="53.61287" lon="-0.95205">
					<ele>1</ele>
					<time>0001-01-01T00:00:00Z</time>
				</trkpt>
				<trkpt lat="53.61292" lon="-0.95202">
					<ele>1</ele>
					<time>0001-01-01T00:00:00Z</time>
				</trkpt>
				<trkpt lat="53.61318" lon="-0.95136">
					<ele>1</ele>
					<time>0001-01-01T00:00:00Z</time>
				</trkpt>
				<trkpt lat="53.61366" lon="-0.95161">
					<ele>3</ele>
					<time>0001-01-01T00:00:00Z</time>
				</trkpt>
				<trkpt lat="53.61376" lon="-0.95166">
					<ele>3</ele>
					<time>0001-01-01T00:00:00Z</time>
				</trkpt>
				<trkpt lat="53.61382" lon="-0.95161">
					<ele>3</ele>
					<time>0001-01-01T00:00:00Z</time>
				</trkpt>
				<trkpt lat="53.61383" lon="-0.95156">
					<ele>4</ele>
					<time>0001-01-01T00:00:00Z</time>
				</trkpt>
				<trkpt lat="53.61407" lon="-0.95171">
					<ele>0</ele>
					<time>0001-01-01T00:00:00Z</time>
				</trkpt>
				<trkpt lat="53.61410" lon="-0.95173">
					<ele>0</ele>
					<time>0001-01-01T00:00:00Z</time>
				</trkpt>
				<trkpt lat="53.61405" lon="-0.95161">
					<ele>3</ele>
					<time>0001-01-01T00:00:00Z</time>
				</trkpt>
				<trkpt lat="53.61409" lon="-0.95165">
					<ele>0</ele>
					<time>0001-01-01T00:00:00Z</time>
				</trkpt>
				<trkpt lat="53.61405" lon="-0.95163">
					<ele>2</ele>
					<time>0001-01-01T00:00:00Z</time>
				</trkpt>
				<trkpt lat="53.61401" lon="-0.95155">
					<ele>4</ele>
					<time>0001-01-01T00:00:00Z</time>
				</trkpt>
				<trkpt lat="53.61383" lon="-0.95147">
					<ele>4</ele>
					<time>0001-01-01T00:00:00Z</time>
				</trkpt>
				<trkpt lat="53.61380" lon="-0.95151">
					<ele>4</ele>
					<time>0001-01-01T00:00:00Z</time>
				</trkpt>
				<trkpt lat="53.61377" lon="-0.95163">
					<ele>3</ele>
					<time>0001-01-01T00:00:00Z</time>
				</trkpt>
				<trkpt lat="53.61377" lon="-0.95165">
					<ele>2</ele>
					<time>0001-01-01T00:00:00Z</time>
				</trkpt>
				<trkpt lat="53.61374" lon="-0.95165">
					<ele>5</ele>
					<time>0001-01-01T00:00:00Z</time>
				</trkpt>
				<trkpt lat="53.61342" lon="-0.95152">
					<ele>4</ele>
					<time>0001-01-01T00:00:00Z</time>
				</trkpt>
				<trkpt lat="53.61310" lon="-0.95140">
					<ele>3</ele>
					<time>0001-01-01T00:00:00Z</time>
				</trkpt>
				<trkpt lat="53.61309" lon="-0.95107">
					<ele>3</ele>
					<time>0001-01-01T00:00:00Z</time>
				</trkpt>
				<trkpt lat="53.61335" lon="-0.95008">
					<ele>3</ele>
					<time>0001-01-01T00:00:00Z</time>
				</trkpt>
				<trkpt lat="53.61409" lon="-0.95027">
					<ele>1</ele>
					<time>0001-01-01T00:00:00Z</time>
				</trkpt>
				<trkpt lat="53.61532" lon="-0.95069">
					<ele>0</ele>
					<time>0001-01-01T00:00:00Z</time>
				</trkpt>
				<trkpt lat="53.61650" lon="-0.95110">
					<ele>0</ele>
					<time>0001-01-01T00:00:00Z</time>
				</trkpt>
				<trkpt lat="53.61801" lon="-0.95159">
					<ele>-2</ele>
					<time>0001-01-01T00:00:00Z</time>
				</trkpt>
				<trkpt lat="53.61945" lon="-0.95209">
					<ele>-2</ele>
					<time>0001-01-01T00:00:00Z</time>
				</trkpt>
				<trkpt lat="53.62071" lon="-0.95256">
					<ele>-1</ele>
					<time>0001-01-01T00:00:00Z</time>
				</trkpt>
				<trkpt lat="53.62082" lon="-0.95260">
					<ele>-1</ele>
					<time>0001-01-01T00:00:00Z</time>
				</trkpt>
				<trkpt lat="53.62094" lon="-0.95271">
					<ele>0</ele>
					<time>0001-01-01T00:00:00Z</time>
				</trkpt>
				<trkpt lat="53.62114" lon="-0.95273">
					<ele>-1</ele>
					<time>0001-01-01T00:00:00Z</time>
				</trkpt>
				<trkpt lat="53.62199" lon="-0.95255">
					<ele>-1</ele>
					<time>0001-01-01T00:00:00Z</time>
				</trkpt>
				<trkpt lat="53.62260" lon="-0.95245">
					<ele>-1</ele>
					<time>0001-01-01T00:00:00Z</time>
				</trkpt>
				<trkpt lat="53.62364" lon="-0.95230">
					<ele>0</ele>
					<time>0001-01-01T00:00:00Z</time>
				</trkpt>
				<trkpt lat="53.62562" lon="-0.95199">
					<ele>1</ele>
					<time>0001-01-01T00:00:00Z</time>
				</trkpt>
				<trkpt lat="53.62756" lon="-0.95169">
					<ele>0</ele>
					<time>0001-01-01T00:00:00Z</time>
				</trkpt>
				<trkpt lat="53.62920" lon="-0.95145">
					<ele>-1</ele>
					<time>0001-01-01T00:00:00Z</time>
				</trkpt>
				<trkpt lat="53.63095" lon="-0.95130">
					<ele>-2</ele>
					<time>0001-01-01T00:00:00Z</time>
				</trkpt>
				<trkpt lat="53.63280" lon="-0.95148">
					<ele>-1</ele>
					<time>0001-01-01T00:00:00Z</time>
				</trkpt>
				<trkpt lat="53.63440" lon="-0.95203">
					<ele>0</ele>
					<time>0001-01-01T00:00:00Z</time>
				</trkpt>
				<trkpt lat="53.63602" lon="-0.95263">
					<ele>-1</ele>
					<time>0001-01-01T00:00:00Z</time>
				</trkpt>
				<trkpt lat="53.63733" lon="-0.95311">
					<ele>-1</ele>
					<time>0001-01-01T00:00:00Z</time>
				</trkpt>
				<trkpt lat="53.63930" lon="-0.95386">
					<ele>-2</ele>
					<time>0001-01-01T00:00:00Z</time>
				</trkpt>
				<trkpt lat="53.64144" lon="-0.95465">
					<ele>-2</ele>
					<time>0001-01-01T00:00:00Z</time>
				</trkpt>
				<trkpt lat="53.64373" lon="-0.95550">
					<ele>0</ele>
					<time>0001-01-01T00:00:00Z</time>
				</trkpt>
				<trkpt lat="53.64596" lon="-0.95631">
					<ele>-1</ele>
					<time>0001-01-01T00:00:00Z</time>
				</trkpt>
				<trkpt lat="53.64833" lon="-0.95718">
					<ele>-2</ele>
					<time>0001-01-01T00:00:00Z</time>
				</trkpt>
				<trkpt lat="53.65039" lon="-0.95763">
					<ele>-2</ele>
					<time>0001-01-01T00:00:00Z</time>
				</trkpt>
				<trkpt lat="53.65231" lon="-0.95783">
					<ele>-2</ele>
					<time>0001-01-01T00:00:00Z</time>
				</trkpt>
				<trkpt lat="53.65409" lon="-0.95794">
					<ele>-2</ele>
					<time>0001-01-01T00:00:00Z</time>
				</trkpt>
				<trkpt lat="53.65630" lon="-0.95806">
					<ele>-1</ele>
					<time>0001-01-01T00:00:00Z</time>
				</trkpt>
				<trkpt lat="53.65780" lon="-0.95759">
					<ele>0</ele>
					<time>0001-01-01T00:00:00Z</time>
				</trkpt>
				<trkpt lat="53.65950" lon="-0.95712">
					<ele>0</ele>
					<time>0001-01-01T00:00:00Z</time>
				</trkpt>
				<trkpt lat="53.66161" lon="-0.95655">
					<ele>0</ele>
					<time>0001-01-01T00:00:00Z</time>
				</trkpt>
				<trkpt lat="53.66405" lon="-0.95574">
					<ele>0</ele>
					<time>0001-01-01T00:00:00Z</time>
				</trkpt>
				<trkpt lat="53.66618" lon="-0.95503">
					<ele>1</ele>
					<time>0001-01-01T00:00:00Z</time>
				</trkpt>
				<trkpt lat="53.66863" lon="-0.95423">
					<ele>1</ele>
					<time>0001-01-01T00:00:00Z</time>
				</trkpt>
				<trkpt lat="53.67085" lon="-0.95351">
					<ele>0</ele>
					<time>0001-01-01T00:00:00Z</time>
				</trkpt>
				<trkpt lat="53.67241" lon="-0.95302">
					<ele>0</ele>
					<time>0001-01-01T00:00:00Z</time>
				</trkpt>
				<trkpt lat="53.67451" lon="-0.95227">
					<ele>-3</ele>
					<time>0001-01-01T00:00:00Z</time>
				</trkpt>
				<trkpt lat="53.67649" lon="-0.95163">
					<ele>-1</ele>
					<time>0001-01-01T00:00:00Z</time>
				</trkpt>
				<trkpt lat="53.67836" lon="-0.95104">
					<ele>-1</ele>
					<time>0001-01-01T00:00:00Z</time>
				</trkpt>
				<trkpt lat="53.67862" lon="-0.95049">
					<ele>-1</ele>
					<time>0001-01-01T00:00:00Z</time>
				</trkpt>
				<trkpt lat="53.67901" lon="-0.94722">
					<ele>0</ele>
					<time>0001-01-01T00:00:00Z</time>
				</trkpt>
				<trkpt lat="53.67954" lon="-0.94435">
					<ele>0</ele>
					<time>0001-01-01T00:00:00Z</time>
				</trkpt>
				<trkpt lat="53.67997" lon="-0.94209">
					<ele>0</ele>
					<time>0001-01-01T00:00:00Z</time>
				</trkpt>
				<trkpt lat="53.68055" lon="-0.93969">
					<ele>0</ele>
					<time>0001-01-01T00:00:00Z</time>
				</trkpt>
				<trkpt lat="53.68102" lon="-0.93949">
					<ele>3</ele>
					<time>0001-01-01T00:00:00Z</time>
				</trkpt>
				<trkpt lat="53.68150" lon="-0.93989">
					<ele>1</ele>
					<time>0001-01-01T00:00:00Z</time>
				</trkpt>
				<trkpt lat="53.68197" lon="-0.94097">
					<ele>6</ele>
					<time>0001-01-01T00:00:00Z</time>
				</trkpt>
				<trkpt lat="53.68237" lon="-0.94226">
					<ele>1</ele>
					<time>0001-01-01T00:00:00Z</time>
				</trkpt>
				<trkpt lat="53.68322" lon="-0.94496">
					<ele>0</ele>
					<time>0001-01-01T00:00:00Z</time>
				</trkpt>
				<trkpt lat="53.68392" lon="-0.94720">
					<ele>1</ele>
					<time>0001-01-01T00:00:00Z</time>
				</trkpt>
				<trkpt lat="53.68463" lon="-0.94989">
					<ele>0</ele>
					<time>0001-01-01T00:00:00Z</time>
				</trkpt>
				<trkpt lat="53.68535" lon="-0.95294">
					<ele>0</ele>
					<time>0001-01-01T00:00:00Z</time>
				</trkpt>
				<trkpt lat="53.68607" lon="-0.95594">
					<ele>1</ele>
					<time>0001-01-01T00:00:00Z</time>
				</trkpt>
				<trkpt lat="53.68707" lon="-0.95843">
					<ele>0</ele>
					<time>0001-01-01T00:00:00Z</time>
				</trkpt>
				<trkpt lat="53.68842" lon="-0.95993">
					<ele>0</ele>
					<time>0001-01-01T00:00:00Z</time>
				</trkpt>
				<trkpt lat="53.68938" lon="-0.96088">
					<ele>2</ele>
					<time>0001-01-01T00:00:00Z</time>
				</trkpt>
				<trkpt lat="53.68971" lon="-0.96091">
					<ele>1</ele>
					<time>0001-01-01T00:00:00Z</time>
				</trkpt>
				<trkpt lat="53.69228" lon="-0.96033">
					<ele>3</ele>
					<time>0001-01-01T00:00:00Z</time>
				</trkpt>
				<trkpt lat="53.69412" lon="-0.95967">
					<ele>3</ele>
					<time>0001-01-01T00:00:00Z</time>
				</trkpt>
				<trkpt lat="53.69618" lon="-0.95899">
					<ele>2</ele>
					<time>0001-01-01T00:00:00Z</time>
				</trkpt>
				<trkpt lat="53.69659" lon="-0.95894">
					<ele>3</ele>
					<time>0001-01-01T00:00:00Z</time>
				</trkpt>
				<trkpt lat="53.69716" lon="-0.95909">
					<ele>2</ele>
					<time>0001-01-01T00:00:00Z</time>
				</trkpt>
				<trkpt lat="53.69749" lon="-0.95991">
					<ele>2</ele>
					<time>0001-01-01T00:00:00Z</time>
				</trkpt>
				<trkpt lat="53.69753" lon="-0.96134">
					<ele>3</ele>
					<time>0001-01-01T00:00:00Z</time>
				</trkpt>
				<trkpt lat="53.69774" lon="-0.96177">
					<ele>2</ele>
					<time>0001-01-01T00:00:00Z</time>
				</trkpt>
				<trkpt lat="53.69889" lon="-0.96222">
					<ele>1</ele>
					<time>0001-01-01T00:00:00Z</time>
				</trkpt>
				<trkpt lat="53.69987" lon="-0.96201">
					<ele>3</ele>
					<time>0001-01-01T00:00:00Z</time>
				</trkpt>
				<trkpt lat="53.70103" lon="-0.96091">
					<ele>3</ele>
					<time>0001-01-01T00:00:00Z</time>
				</trkpt>
				<trkpt lat="53.70283" lon="-0.95909">
					<ele>1</ele>
					<time>0001-01-01T00:00:00Z</time>
				</trkpt>
				<trkpt lat="53.70400" lon="-0.95791">
					<ele>1</ele>
					<time>0001-01-01T00:00:00Z</time>
				</trkpt>
				<trkpt lat="53.70450" lon="-0.95741">
					<ele>0</ele>
					<time>0001-01-01T00:00:00Z</time>
				</trkpt>
				<trkpt lat="53.70506" lon="-0.95694">
					<ele>0</ele>
					<time>0001-01-01T00:00:00Z</time>
				</trkpt>
				<trkpt lat="53.70512" lon="-0.95694">
					<ele>2</ele>
					<time>0001-01-01T00:00:00Z</time>
				</trkpt>
				<trkpt lat="53.70512" lon="-0.95696">
					<ele>1</ele>
					<time>0001-01-01T00:00:00Z</time>
				</trkpt>
				<trkpt lat="53.70507" lon="-0.95696">
					<ele>1</ele>
					<time>0001-01-01T00:00:00Z</time>
				</trkpt>
				<trkpt lat="53.70506" lon="-0.95695">
					<ele>1</ele>
					<time>0001-01-01T00:00:00Z</time>
				</trkpt>
				<trkpt lat="53.70519" lon="-0.95685">
					<ele>1</ele>
					<time>0001-01-01T00:00:00Z</time>
				</trkpt>
				<trkpt lat="53.70578" lon="-0.95645">
					<ele>0</ele>
					<time>0001-01-01T00:00:00Z</time>
				</trkpt>
				<trkpt lat="53.70627" lon="-0.95595">
					<ele>0</ele>
					<time>0001-01-01T00:00:00Z</time>
				</trkpt>
				<trkpt lat="53.70655" lon="-0.95531">
					<ele>0</ele>
					<time>0001-01-01T00:00:00Z</time>
				</trkpt>
				<trkpt lat="53.70672" lon="-0.95463">
					<ele>0</ele>
					<time>0001-01-01T00:00:00Z</time>
				</trkpt>
				<trkpt lat="53.70698" lon="-0.95271">
					<ele>-1</ele>
					<time>0001-01-01T00:00:00Z</time>
				</trkpt>
				<trkpt lat="53.70733" lon="-0.95103">
					<ele>-2</ele>
					<time>0001-01-01T00:00:00Z</time>
				</trkpt>
				<trkpt lat="53.70737" lon="-0.94874">
					<ele>-1</ele>
					<time>0001-01-01T00:00:00Z</time>
				</trkpt>
				<trkpt lat="53.70720" lon="-0.94626">
					<ele>0</ele>
					<time>0001-01-01T00:00:00Z</time>
				</trkpt>
				<trkpt lat="53.70670" lon="-0.94470">
					<ele>0</ele>
					<time>0001-01-01T00:00:00Z</time>
				</trkpt>
				<trkpt lat="53.70585" lon="-0.94330">
					<ele>0</ele>
					<time>0001-01-01T00:00:00Z</time>
				</trkpt>
				<trkpt lat="53.70559" lon="-0.94159">
					<ele>0</ele>
					<time>0001-01-01T00:00:00Z</time>
				</trkpt>
				<trkpt lat="53.70562" lon="-0.93934">
					<ele>0</ele>
					<time>0001-01-01T00:00:00Z</time>
				</trkpt>
				<trkpt lat="53.70579" lon="-0.93702">
					<ele>0</ele>
					<time>0001-01-01T00:00:00Z</time>
				</trkpt>
				<trkpt lat="53.70592" lon="-0.93660">
					<ele>-1</ele>
					<time>0001-01-01T00:00:00Z</time>
				</trkpt>
				<trkpt lat="53.70648" lon="-0.93599">
					<ele>0</ele>
					<time>0001-01-01T00:00:00Z</time>
				</trkpt>
				<trkpt lat="53.70644" lon="-0.93543">
					<ele>0</ele>
					<time>0001-01-01T00:00:00Z</time>
				</trkpt>
				<trkpt lat="53.70638" lon="-0.93524">
					<ele>0</ele>
					<time>0001-01-01T00:00:00Z</time>
				</trkpt>
				<trkpt lat="53.70635" lon="-0.93350">
					<ele>0</ele>
					<time>0001-01-01T00:00:00Z</time>
				</trkpt>
				<trkpt lat="53.70662" lon="-0.93106">
					<ele>0</ele>
					<time>0001-01-01T00:00:00Z</time>
				</trkpt>
				<trkpt lat="53.70695" lon="-0.92814">
					<ele>-4</ele>
					<time>0001-01-01T00:00:00Z</time>
				</trkpt>
				<trkpt lat="53.70711" lon="-0.92527">
					<ele>-6</ele>
					<time>0001-01-01T00:00:00Z</time>
				</trkpt>
				<trkpt lat="53.70697" lon="-0.92205">
					<ele>-5</ele>
					<time>0001-01-01T00:00:00Z</time>
				</trkpt>
				<trkpt lat="53.70659" lon="-0.91936">
					<ele>-6</ele>
					<time>0001-01-01T00:00:00Z</time>
				</trkpt>
				<trkpt lat="53.70624" lon="-0.91659">
					<ele>-5</ele>
					<time>0001-01-01T00:00:00Z</time>
				</trkpt>
				<trkpt lat="53.70647" lon="-0.91457">
					<ele>-2</ele>
					<time>0001-01-01T00:00:00Z</time>
				</trkpt>
				<trkpt lat="53.70650" lon="-0.91432">
					<ele>-2</ele>
					<time>0001-01-01T00:00:00Z</time>
				</trkpt>
				<trkpt lat="53.70644" lon="-0.91444">
					<ele>-1</ele>
					<time>0001-01-01T00:00:00Z</time>
				</trkpt>
				<trkpt lat="53.70635" lon="-0.91515">
					<ele>-2</ele>
					<time>0001-01-01T00:00:00Z</time>
				</trkpt>
				<trkpt lat="53.70648" lon="-0.91541">
					<ele>-2</ele>
					<time>0001-01-01T00:00:00Z</time>
				</trkpt>
				<trkpt lat="53.70759" lon="-0.91541">
					<ele>-1</ele>
					<time>0001-01-01T00:00:00Z</time>
				</trkpt>
				<trkpt lat="53.70921" lon="-0.91506">
					<ele>-1</ele>
					<time>0001-01-01T00:00:00Z</time>
				</trkpt>
				<trkpt lat="53.71113" lon="-0.91417">
					<ele>-1</ele>
					<time>0001-01-01T00:00:00Z</time>
				</trkpt>
				<trkpt lat="53.71329" lon="-0.91300">
					<ele>-1</ele>
					<time>0001-01-01T00:00:00Z</time>
				</trkpt>
				<trkpt lat="53.71352" lon="-0.91269">
					<ele>-1</ele>
					<time>0001-01-01T00:00:00Z</time>
				</trkpt>
				<trkpt lat="53.71476" lon="-0.91007">
					<ele>-4</ele>
					<time>0001-01-01T00:00:00Z</time>
				</trkpt>
				<trkpt lat="53.71574" lon="-0.90782">
					<ele>-1</ele>
					<time>0001-01-01T00:00:00Z</time>
				</trkpt>
				<trkpt lat="53.71615" lon="-0.90601">
					<ele>0</ele>
					<time>0001-01-01T00:00:00Z</time>
				</trkpt>
				<trkpt lat="53.71713" lon="-0.90413">
					<ele>0</ele>
					<time>0001-01-01T00:00:00Z</time>
				</trkpt>
				<trkpt lat="53.71846" lon="-0.90305">
					<ele>0</ele>
					<time>0001-01-01T00:00:00Z</time>
				</trkpt>
				<trkpt lat="53.71943" lon="-0.90272">
					<ele>2</ele>
					<time>0001-01-01T00:00:00Z</time>
				</trkpt>
				<trkpt lat="53.72078" lon="-0.90280">
					<ele>3</ele>
					<time>0001-01-01T00:00:00Z</time>
				</trkpt>
				<trkpt lat="53.72093" lon="-0.90277">
					<ele>3</ele>
					<time>0001-01-01T00:00:00Z</time>
				</trkpt>
				<trkpt lat="53.72129" lon="-0.90214">
					<ele>2</ele>
					<time>0001-01-01T00:00:00Z</time>
				</trkpt>
				<trkpt lat="53.72148" lon="-0.90143">
					<ele>1</ele>
					<time>0001-01-01T00:00:00Z</time>
				</trkpt>
				<trkpt lat="53.72236" lon="-0.89916">
					<ele>1</ele>
					<time>0001-01-01T00:00:00Z</time>
				</trkpt>
				<trkpt lat="53.72337" lon="-0.89626">
					<ele>1</ele>
					<time>0001-01-01T00:00:00Z</time>
				</trkpt>
				<trkpt lat="53.72424" lon="-0.89325">
					<ele>1</ele>
					<time>0001-01-01T00:00:00Z</time>
				</trkpt>
				<trkpt lat="53.72454" lon="-0.89185">
					<ele>0</ele>
					<time>0001-01-01T00:00:00Z</time>
				</trkpt>
				<trkpt lat="53.72470" lon="-0.89144">
					<ele>1</ele>
					<time>0001-01-01T00:00:00Z</time>
				</trkpt>
				<trkpt lat="53.72572" lon="-0.89037">
					<ele>2</ele>
					<time>0001-01-01T00:00:00Z</time>
				</trkpt>
				<trkpt lat="53.72781" lon="-0.89029">
					<ele>4</ele>
					<time>0001-01-01T00:00:00Z</time>
				</trkpt>
				<trkpt lat="53.72836" lon="-0.89029">
					<ele>5</ele>
					<time>0001-01-01T00:00:00Z</time>
				</trkpt>
				<trkpt lat="53.72874" lon="-0.88975">
					<ele>3</ele>
					<time>0001-01-01T00:00:00Z</time>
				</trkpt>
				<trkpt lat="53.72898" lon="-0.88802">
					<ele>0</ele>
					<time>0001-01-01T00:00:00Z</time>
				</trkpt>
				<trkpt lat="53.72905" lon="-0.88786">
					<ele>0</ele>
					<time>0001-01-01T00:00:00Z</time>
				</trkpt>
				<trkpt lat="53.72947" lon="-0.88765">
					<ele>0</ele>
					<time>0001-01-01T00:00:00Z</time>
				</trkpt>
				<trkpt lat="53.72961" lon="-0.88764">
					<ele>0</ele>
					<time>0001-01-01T00:00:00Z</time>
				</trkpt>
				<trkpt lat="53.72944" lon="-0.88762">
					<ele>0</ele>
					<time>0001-01-01T00:00:00Z</time>
				</trkpt>
				<trkpt lat="53.72937" lon="-0.88762">
					<ele>0</ele>
					<time>0001-01-01T00:00:00Z</time>
				</trkpt>
				<trkpt lat="53.72926" lon="-0.88720">
					<ele>0</ele>
					<time>0001-01-01T00:00:00Z</time>
				</trkpt>
				<trkpt lat="53.72933" lon="-0.88705">
					<ele>0</ele>
					<time>0001-01-01T00:00:00Z</time>
				</trkpt>
				<trkpt lat="53.72960" lon="-0.88660">
					<ele>0</ele>
					<time>0001-01-01T00:00:00Z</time>
				</trkpt>
				<trkpt lat="53.73113" lon="-0.88516">
					<ele>0</ele>
					<time>0001-01-01T00:00:00Z</time>
				</trkpt>
				<trkpt lat="53.73282" lon="-0.88340">
					<ele>0</ele>
					<time>0001-01-01T00:00:00Z</time>
				</trkpt>
				<trkpt lat="53.73432" lon="-0.88141">
					<ele>2</ele>
					<time>0001-01-01T00:00:00Z</time>
				</trkpt>
				<trkpt lat="53.73583" lon="-0.87882">
					<ele>3</ele>
					<time>0001-01-01T00:00:00Z</time>
				</trkpt>
				<trkpt lat="53.73653" lon="-0.87730">
					<ele>4</ele>
					<time>0001-01-01T00:00:00Z</time>
				</trkpt>
				<trkpt lat="53.73734" lon="-0.87532">
					<ele>2</ele>
					<time>0001-01-01T00:00:00Z</time>
				</trkpt>
				<trkpt lat="53.73747" lon="-0.87498">
					<ele>2</ele>
					<time>0001-01-01T00:00:00Z</time>
				</trkpt>
				<trkpt lat="53.73741" lon="-0.87497">
					<ele>1</ele>
					<time>0001-01-01T00:00:00Z</time>
				</trkpt>
				<trkpt lat="53.73704" lon="-0.87599">
					<ele>0</ele>
					<time>0001-01-01T00:00:00Z</time>
				</trkpt>
				<trkpt lat="53.73693" lon="-0.87626">
					<ele>0</ele>
					<time>0001-01-01T00:00:00Z</time>
				</trkpt>
				<trkpt lat="53.73708" lon="-0.87650">
					<ele>0</ele>
					<time>0001-01-01T00:00:00Z</time>
				</trkpt>
				<trkpt lat="53.73717" lon="-0.87646">
					<ele>0</ele>
					<time>0001-01-01T00:00:00Z</time>
				</trkpt>
				<trkpt lat="53.73822" lon="-0.87606">
					<ele>0</ele>
					<time>0001-01-01T00:00:00Z</time>
				</trkpt>
				<trkpt lat="53.73958" lon="-0.87554">
					<ele>0</ele>
					<time>0001-01-01T00:00:00Z</time>
				</trkpt>
				<trkpt lat="53.73976" lon="-0.87492">
					<ele>0</ele>
					<time>0001-01-01T00:00:00Z</time>
				</trkpt>
				<trkpt lat="53.73968" lon="-0.87439">
					<ele>0</ele>
					<time>0001-01-01T00:00:00Z</time>
				</trkpt>
				<trkpt lat="53.73990" lon="-0.87376">
					<ele>0</ele>
					<time>0001-01-01T00:00:00Z</time>
				</trkpt>
				<trkpt lat="53.74122" lon="-0.87237">
					<ele>0</ele>
					<time>0001-01-01T00:00:00Z</time>
				</trkpt>
				<trkpt lat="53.74266" lon="-0.87072">
					<ele>0</ele>
					<time>0001-01-01T00:00:00Z</time>
				</trkpt>
				<trkpt lat="53.74292" lon="-0.87055">
					<ele>0</ele>
					<time>0001-01-01T00:00:00Z</time>
				</trkpt>
				<trkpt lat="53.74383" lon="-0.86991">
					<ele>2</ele>
					<time>0001-01-01T00:00:00Z</time>
				</trkpt>
				<trkpt lat="53.74543" lon="-0.86835">
					<ele>3</ele>
					<time>0001-01-01T00:00:00Z</time>
				</trkpt>
				<trkpt lat="53.74609" lon="-0.86741">
					<ele>4</ele>
					<time>0001-01-01T00:00:00Z</time>
				</trkpt>
				<trkpt lat="53.74627" lon="-0.86686">
					<ele>4</ele>
					<time>0001-01-01T00:00:00Z</time>
				</trkpt>
				<trkpt lat="53.74638" lon="-0.86617">
					<ele>3</ele>
					<time>0001-01-01T00:00:00Z</time>
				</trkpt>
				<trkpt lat="53.74709" lon="-0.86457">
					<ele>2</ele>
					<time>0001-01-01T00:00:00Z</time>
				</trkpt>
				<trkpt lat="53.74718" lon="-0.86410">
					<ele>2</ele>
					<time>0001-01-01T00:00:00Z</time>
				</trkpt>
				<trkpt lat="53.74766" lon="-0.86338">
					<ele>0</ele>
					<time>0001-01-01T00:00:00Z</time>
				</trkpt>
				<trkpt lat="53.75202" lon="-0.86228">
					<ele>0</ele>
					<time>0001-01-01T00:00:00Z</time>
				</trkpt>
				<trkpt lat="53.75428" lon="-0.86241">
					<ele>2</ele>
					<time>0001-01-01T00:00:00Z</time>
				</trkpt>
				<trkpt lat="53.75578" lon="-0.86186">
					<ele>2</ele>
					<time>0001-01-01T00:00:00Z</time>
				</trkpt>
				<trkpt lat="53.75780" lon="-0.86119">
					<ele>2</ele>
					<time>0001-01-01T00:00:00Z</time>
				</trkpt>
				<trkpt lat="53.76046" lon="-0.86085">
					<ele>2</ele>
					<time>0001-01-01T00:00:00Z</time>
				</trkpt>
				<trkpt lat="53.76275" lon="-0.86057">
					<ele>1</ele>
					<time>0001-01-01T00:00:00Z</time>
				</trkpt>
				<trkpt lat="53.76493" lon="-0.86046">
					<ele>2</ele>
					<time>0001-01-01T00:00:00Z</time>
				</trkpt>
				<trkpt lat="53.76694" lon="-0.86050">
					<ele>2</ele>
					<time>0001-01-01T00:00:00Z</time>
				</trkpt>
				<trkpt lat="53.76962" lon="-0.86053">
					<ele>1</ele>
					<time>0001-01-01T00:00:00Z</time>
				</trkpt>
				<trkpt lat="53.77246" lon="-0.86088">
					<ele>1</ele>
					<time>0001-01-01T00:00:00Z</time>
				</trkpt>
				<trkpt lat="53.77436" lon="-0.86188">
					<ele>0</ele>
					<time>0001-01-01T00:00:00Z</time>
				</trkpt>
				<trkpt lat="53.77604" lon="-0.86279">
					<ele>1</ele>
					<time>0001-01-01T00:00:00Z</time>
				</trkpt>
				<trkpt lat="53.77709" lon="-0.86448">
					<ele>1</ele>
					<time>0001-01-01T00:00:00Z</time>
				</trkpt>
				<trkpt lat="53.77870" lon="-0.86731">
					<ele>2</ele>
					<time>0001-01-01T00:00:00Z</time>
				</trkpt>
				<trkpt lat="53.78019" lon="-0.87000">
					<ele>2</ele>
					<time>0001-01-01T00:00:00Z</time>
				</trkpt>
				<trkpt lat="53.78175" lon="-0.87279">
					<ele>2</ele>
					<time>0001-01-01T00:00:00Z</time>
				</trkpt>
				<trkpt lat="53.78338" lon="-0.87565">
					<ele>3</ele>
					<time>0001-01-01T00:00:00Z</time>
				</trkpt>
				<trkpt lat="53.78465" lon="-0.87724">
					<ele>3</ele>
					<time>0001-01-01T00:00:00Z</time>
				</trkpt>
				<trkpt lat="53.78635" lon="-0.87831">
					<ele>2</ele>
					<time>0001-01-01T00:00:00Z</time>
				</trkpt>
				<trkpt lat="53.78785" lon="-0.87961">
					<ele>1</ele>
					<time>0001-01-01T00:00:00Z</time>
				</trkpt>
				<trkpt lat="53.78966" lon="-0.88156">
					<ele>2</ele>
					<time>0001-01-01T00:00:00Z</time>
				</trkpt>
				<trkpt lat="53.79126" lon="-0.88349">
					<ele>3</ele>
					<time>0001-01-01T00:00:00Z</time>
				</trkpt>
				<trkpt lat="53.79151" lon="-0.88378">
					<ele>3</ele>
					<time>0001-01-01T00:00:00Z</time>
				</trkpt>
				<trkpt lat="53.79174" lon="-0.88431">
					<ele>3</ele>
					<time>0001-01-01T00:00:00Z</time>
				</trkpt>
				<trkpt lat="53.79241" lon="-0.88722">
					<ele>2</ele>
					<time>0001-01-01T00:00:00Z</time>
				</trkpt>
				<trkpt lat="53.79288" lon="-0.88761">
					<ele>2</ele>
					<time>0001-01-01T00:00:00Z</time>
				</trkpt>
				<trkpt lat="53.79472" lon="-0.88824">
					<ele>2</ele>
					<time>0001-01-01T00:00:00Z</time>
				</trkpt>
				<trkpt lat="53.79502" lon="-0.88844">
					<ele>2</ele>
					<time>0001-01-01T00:00:00Z</time>
				</trkpt>
				<trkpt lat="53.79540" lon="-0.88893">
					<ele>2</ele>
					<time>0001-01-01T00:00:00Z</time>
				</trkpt>
				<trkpt lat="53.79585" lon="-0.88918">
					<ele>2</ele>
					<time>0001-01-01T00:00:00Z</time>
				</trkpt>
				<trkpt lat="53.79783" lon="-0.88937">
					<ele>2</ele>
					<time>0001-01-01T00:00:00Z</time>
				</trkpt>
				<trkpt lat="53.79984" lon="-0.88968">
					<ele>3</ele>
					<time>0001-01-01T00:00:00Z</time>
				</trkpt>
				<trkpt lat="53.80159" lon="-0.89024">
					<ele>3</ele>
					<time>0001-01-01T00:00:00Z</time>
				</trkpt>
				<trkpt lat="53.80396" lon="-0.89094">
					<ele>3</ele>
					<time>0001-01-01T00:00:00Z</time>
				</trkpt>
				<trkpt lat="53.80630" lon="-0.89169">
					<ele>3</ele>
					<time>0001-01-01T00:00:00Z</time>
				</trkpt>
				<trkpt lat="53.80807" lon="-0.89249">
					<ele>3</ele>
					<time>0001-01-01T00:00:00Z</time>
				</trkpt>
				<trkpt lat="53.80822" lon="-0.89255">
					<ele>3</ele>
					<time>0001-01-01T00:00:00Z</time>
				</trkpt>
				<trkpt lat="53.80861" lon="-0.89247">
					<ele>3</ele>
					<time>0001-01-01T00:00:00Z</time>
				</trkpt>
				<trkpt lat="53.81057" lon="-0.89167">
					<ele>5</ele>
					<time>0001-01-01T00:00:00Z</time>
				</trkpt>
				<trkpt lat="53.81241" lon="-0.89195">
					<ele>5</ele>
					<time>0001-01-01T00:00:00Z</time>
				</trkpt>
				<trkpt lat="53.81408" lon="-0.89253">
					<ele>4</ele>
					<time>0001-01-01T00:00:00Z</time>
				</trkpt>
				<trkpt lat="53.81517" lon="-0.89340">
					<ele>5</ele>
					<time>0001-01-01T00:00:00Z</time>
				</trkpt>
				<trkpt lat="53.81628" lon="-0.89544">
					<ele>5</ele>
					<time>0001-01-01T00:00:00Z</time>
				</trkpt>
				<trkpt lat="53.81702" lon="-0.89763">
					<ele>6</ele>
					<time>0001-01-01T00:00:00Z</time>
				</trkpt>
				<trkpt lat="53.81785" lon="-0.89951">
					<ele>4</ele>
					<time>0001-01-01T00:00:00Z</time>
				</trkpt>
				<trkpt lat="53.81874" lon="-0.90097">
					<ele>5</ele>
					<time>0001-01-01T00:00:00Z</time>
				</trkpt>
				<trkpt lat="53.81908" lon="-0.90146">
					<ele>4</ele>
					<time>0001-01-01T00:00:00Z</time>
				</trkpt>
				<trkpt lat="53.81999" lon="-0.90228">
					<ele>5</ele>
					<time>0001-01-01T00:00:00Z</time>
				</trkpt>
				<trkpt lat="53.82109" lon="-0.90300">
					<ele>5</ele>
					<time>0001-01-01T00:00:00Z</time>
				</trkpt>
				<trkpt lat="53.82235" lon="-0.90384">
					<ele>5</ele>
					<time>0001-01-01T00:00:00Z</time>
				</trkpt>
				<trkpt lat="53.82330" lon="-0.90497">
					<ele>4</ele>
					<time>0001-01-01T00:00:00Z</time>
				</trkpt>
				<trkpt lat="53.82452" lon="-0.90524">
					<ele>4</ele>
					<time>0001-01-01T00:00:00Z</time>
				</trkpt>
				<trkpt lat="53.82588" lon="-0.90570">
					<ele>4</ele>
					<time>0001-01-01T00:00:00Z</time>
				</trkpt>
				<trkpt lat="53.82694" lon="-0.90665">
					<ele>4</ele>
					<time>0001-01-01T00:00:00Z</time>
				</trkpt>
				<trkpt lat="53.82766" lon="-0.90783">
					<ele>4</ele>
					<time>0001-01-01T00:00:00Z</time>
				</trkpt>
				<trkpt lat="53.82885" lon="-0.90891">
					<ele>4</ele>
					<time>0001-01-01T00:00:00Z</time>
				</trkpt>
				<trkpt lat="53.83071" lon="-0.91003">
					<ele>5</ele>
					<time>0001-01-01T00:00:00Z</time>
				</trkpt>
				<trkpt lat="53.83206" lon="-0.91105">
					<ele>4</ele>
					<time>0001-01-01T00:00:00Z</time>
				</trkpt>
				<trkpt lat="53.83301" lon="-0.91153">
					<ele>5</ele>
					<time>0001-01-01T00:00:00Z</time>
				</trkpt>
				<trkpt lat="53.83315" lon="-0.91155">
					<ele>5</ele>
					<time>0001-01-01T00:00:00Z</time>
				</trkpt>
				<trkpt lat="53.83484" lon="-0.91102">
					<ele>4</ele>
					<time>0001-01-01T00:00:00Z</time>
				</trkpt>
				<trkpt lat="53.83669" lon="-0.91044">
					<ele>4</ele>
					<time>0001-01-01T00:00:00Z</time>
				</trkpt>
				<trkpt lat="53.83985" lon="-0.90942">
					<ele>4</ele>
					<time>0001-01-01T00:00:00Z</time>
				</trkpt>
				<trkpt lat="53.84100" lon="-0.91020">
					<ele>5</ele>
					<time>0001-01-01T00:00:00Z</time>
				</trkpt>
				<trkpt lat="53.84152" lon="-0.90997">
					<ele>5</ele>
					<time>0001-01-01T00:00:00Z</time>
				</trkpt>
				<trkpt lat="53.84268" lon="-0.90866">
					<ele>5</ele>
					<time>0001-01-01T00:00:00Z</time>
				</trkpt>
				<trkpt lat="53.84284" lon="-0.90821">
					<ele>5</ele>
					<time>0001-01-01T00:00:00Z</time>
				</trkpt>
				<trkpt lat="53.84290" lon="-0.90796">
					<ele>5</ele>
					<time>0001-01-01T00:00:00Z</time>
				</trkpt>
				<trkpt lat="53.84339" lon="-0.90737">
					<ele>6</ele>
					<time>0001-01-01T00:00:00Z</time>
				</trkpt>
				<trkpt lat="53.84536" lon="-0.90654">
					<ele>6</ele>
					<time>0001-01-01T00:00:00Z</time>
				</trkpt>
				<trkpt lat="53.84552" lon="-0.90651">
					<ele>6</ele>
					<time>0001-01-01T00:00:00Z</time>
				</trkpt>
				<trkpt lat="53.84600" lon="-0.90674">
					<ele>4</ele>
					<time>0001-01-01T00:00:00Z</time>
				</trkpt>
				<trkpt lat="53.84724" lon="-0.90833">
					<ele>3</ele>
					<time>0001-01-01T00:00:00Z</time>
				</trkpt>
				<trkpt lat="53.84735" lon="-0.90847">
					<ele>4</ele>
					<time>0001-01-01T00:00:00Z</time>
				</trkpt>
				<trkpt lat="53.84824" lon="-0.91071">
					<ele>4</ele>
					<time>0001-01-01T00:00:00Z</time>
				</trkpt>
				<trkpt lat="53.84847" lon="-0.91139">
					<ele>4</ele>
					<time>0001-01-01T00:00:00Z</time>
				</trkpt>
				<trkpt lat="53.84874" lon="-0.91179">
					<ele>5</ele>
					<time>0001-01-01T00:00:00Z</time>
				</trkpt>
				<trkpt lat="53.85047" lon="-0.91355">
					<ele>5</ele>
					<time>0001-01-01T00:00:00Z</time>
				</trkpt>
				<trkpt lat="53.85216" lon="-0.91526">
					<ele>5</ele>
					<time>0001-01-01T00:00:00Z</time>
				</trkpt>
				<trkpt lat="53.85420" lon="-0.91735">
					<ele>4</ele>
					<time>0001-01-01T00:00:00Z</time>
				</trkpt>
				<trkpt lat="53.85596" lon="-0.91911">
					<ele>3</ele>
					<time>0001-01-01T00:00:00Z</time>
				</trkpt>
				<trkpt lat="53.85639" lon="-0.91897">
					<ele>3</ele>
					<time>0001-01-01T00:00:00Z</time>
				</trkpt>
				<trkpt lat="53.85799" lon="-0.91744">
					<ele>5</ele>
					<time>0001-01-01T00:00:00Z</time>
				</trkpt>
				<trkpt lat="53.85882" lon="-0.91612">
					<ele>5</ele>
					<time>0001-01-01T00:00:00Z</time>
				</trkpt>
				<trkpt lat="53.86021" lon="-0.91328">
					<ele>5</ele>
					<time>0001-01-01T00:00:00Z</time>
				</trkpt>
				<trkpt lat="53.86131" lon="-0.91103">
					<ele>4</ele>
					<time>0001-01-01T00:00:00Z</time>
				</trkpt>
				<trkpt lat="53.86220" lon="-0.90861">
					<ele>6</ele>
					<time>0001-01-01T00:00:00Z</time>
				</trkpt>
				<trkpt lat="53.86304" lon="-0.90569">
					<ele>7</ele>
					<time>0001-01-01T00:00:00Z</time>
				</trkpt>
				<trkpt lat="53.86401" lon="-0.90231">
					<ele>6</ele>
					<time>0001-01-01T00:00:00Z</time>
				</trkpt>
				<trkpt lat="53.86490" lon="-0.90117">
					<ele>7</ele>
					<time>0001-01-01T00:00:00Z</time>
				</trkpt>
				<trkpt lat="53.86628" lon="-0.89955">
					<ele>6</ele>
					<time>0001-01-01T00:00:00Z</time>
				</trkpt>
				<trkpt lat="53.86774" lon="-0.89790">
					<ele>7</ele>
					<time>0001-01-01T00:00:00Z</time>
				</trkpt>
				<trkpt lat="53.86940" lon="-0.89607">
					<ele>7</ele>
					<time>0001-01-01T00:00:00Z</time>
				</trkpt>
				<trkpt lat="53.87066" lon="-0.89434">
					<ele>7</ele>
					<time>0001-01-01T00:00:00Z</time>
				</trkpt>
				<trkpt lat="53.87201" lon="-0.89225">
					<ele>7</ele>
					<time>0001-01-01T00:00:00Z</time>
				</trkpt>
				<trkpt lat="53.87306" lon="-0.89141">
					<ele>7</ele>
					<time>0001-01-01T00:00:00Z</time>
				</trkpt>
				<trkpt lat="53.87445" lon="-0.89151">
					<ele>5</ele>
					<time>0001-01-01T00:00:00Z</time>
				</trkpt>
				<trkpt lat="53.87632" lon="-0.89162">
					<ele>3</ele>
					<time>0001-01-01T00:00:00Z</time>
				</trkpt>
				<trkpt lat="53.87822" lon="-0.89183">
					<ele>3</ele>
					<time>0001-01-01T00:00:00Z</time>
				</trkpt>
				<trkpt lat="53.88311" lon="-0.89235">
					<ele>4</ele>
					<time>0001-01-01T00:00:00Z</time>
				</trkpt>
				<trkpt lat="53.88502" lon="-0.89257">
					<ele>7</ele>
					<time>0001-01-01T00:00:00Z</time>
				</trkpt>
				<trkpt lat="53.88692" lon="-0.89281">
					<ele>8</ele>
					<time>0001-01-01T00:00:00Z</time>
				</trkpt>
				<trkpt lat="53.88870" lon="-0.89302">
					<ele>13</ele>
					<time>0001-01-01T00:00:00Z</time>
				</trkpt>
				<trkpt lat="53.89054" lon="-0.89311">
					<ele>14</ele>
					<time>0001-01-01T00:00:00Z</time>
				</trkpt>
				<trkpt lat="53.89227" lon="-0.89334">
					<ele>13</ele>
					<time>0001-01-01T00:00:00Z</time>
				</trkpt>
				<trkpt lat="53.89386" lon="-0.89353">
					<ele>10</ele>
					<time>0001-01-01T00:00:00Z</time>
				</trkpt>
				<trkpt lat="53.89449" lon="-0.89360">
					<ele>9</ele>
					<time>0001-01-01T00:00:00Z</time>
				</trkpt>
				<trkpt lat="53.89467" lon="-0.89384">
					<ele>8</ele>
					<time>0001-01-01T00:00:00Z</time>
				</trkpt>
				<trkpt lat="53.89471" lon="-0.89574">
					<ele>8</ele>
					<time>0001-01-01T00:00:00Z</time>
				</trkpt>
				<trkpt lat="53.89469" lon="-0.89858">
					<ele>8</ele>
					<time>0001-01-01T00:00:00Z</time>
				</trkpt>
				<trkpt lat="53.89464" lon="-0.89945">
					<ele>7</ele>
					<time>0001-01-01T00:00:00Z</time>
				</trkpt>
				<trkpt lat="53.89491" lon="-0.89996">
					<ele>6</ele>
					<time>0001-01-01T00:00:00Z</time>
				</trkpt>
				<trkpt lat="53.89639" lon="-0.90079">
					<ele>6</ele>
					<time>0001-01-01T00:00:00Z</time>
				</trkpt>
				<trkpt lat="53.89645" lon="-0.90086">
					<ele>6</ele>
					<time>0001-01-01T00:00:00Z</time>
				</trkpt>
				<trkpt lat="53.89653" lon="-0.90164">
					<ele>7</ele>
					<time>0001-01-01T00:00:00Z</time>
				</trkpt>
				<trkpt lat="53.89643" lon="-0.90210">
					<ele>7</ele>
					<time>0001-01-01T00:00:00Z</time>
				</trkpt>
				<trkpt lat="53.89646" lon="-0.90448">
					<ele>7</ele>
					<time>0001-01-01T00:00:00Z</time>
				</trkpt>
				<trkpt lat="53.89693" lon="-0.90742">
					<ele>6</ele>
					<time>0001-01-01T00:00:00Z</time>
				</trkpt>
				<trkpt lat="53.89748" lon="-0.91028">
					<ele>6</ele>
					<time>0001-01-01T00:00:00Z</time>
				</trkpt>
				<trkpt lat="53.89820" lon="-0.91163">
					<ele>4</ele>
					<time>0001-01-01T00:00:00Z</time>
				</trkpt>
				<trkpt lat="53.89915" lon="-0.91370">
					<ele>6</ele>
					<time>0001-01-01T00:00:00Z</time>
				</trkpt>
				<trkpt lat="53.90014" lon="-0.91604">
					<ele>7</ele>
					<time>0001-01-01T00:00:00Z</time>
				</trkpt>
				<trkpt lat="53.90123" lon="-0.91867">
					<ele>7</ele>
					<time>0001-01-01T00:00:00Z</time>
				</trkpt>
				<trkpt lat="53.90220" lon="-0.92103">
					<ele>8</ele>
					<time>0001-01-01T00:00:00Z</time>
				</trkpt>
				<trkpt lat="53.90324" lon="-0.92353">
					<ele>9</ele>
					<time>0001-01-01T00:00:00Z</time>
				</trkpt>
				<trkpt lat="53.90401" lon="-0.92589">
					<ele>11</ele>
					<time>0001-01-01T00:00:00Z</time>
				</trkpt>
				<trkpt lat="53.90464" lon="-0.92779">
					<ele>11</ele>
					<time>0001-01-01T00:00:00Z</time>
				</trkpt>
				<trkpt lat="53.90493" lon="-0.92818">
					<ele>10</ele>
					<time>0001-01-01T00:00:00Z</time>
				</trkpt>
				<trkpt lat="53.90547" lon="-0.92815">
					<ele>10</ele>
					<time>0001-01-01T00:00:00Z</time>
				</trkpt>
				<trkpt lat="53.90711" lon="-0.92688">
					<ele>10</ele>
					<time>0001-01-01T00:00:00Z</time>
				</trkpt>
				<trkpt lat="53.90867" lon="-0.92569">
					<ele>10</ele>
					<time>0001-01-01T00:00:00Z</time>
				</trkpt>
				<trkpt lat="53.90992" lon="-0.92510">
					<ele>10</ele>
					<time>0001-01-01T00:00:00Z</time>
				</trkpt>
				<trkpt lat="53.91163" lon="-0.92436">
					<ele>11</ele>
					<time>0001-01-01T00:00:00Z</time>
				</trkpt>
				<trkpt lat="53.91311" lon="-0.92438">
					<ele>10</ele>
					<time>0001-01-01T00:00:00Z</time>
				</trkpt>
				<trkpt lat="53.91442" lon="-0.92402">
					<ele>9</ele>
					<time>0001-01-01T00:00:00Z</time>
				</trkpt>
				<trkpt lat="53.91544" lon="-0.92356">
					<ele>10</ele>
					<time>0001-01-01T00:00:00Z</time>
				</trkpt>
				<trkpt lat="53.91619" lon="-0.92427">
					<ele>8</ele>
					<time>0001-01-01T00:00:00Z</time>
				</trkpt>
				<trkpt lat="53.91690" lon="-0.92457">
					<ele>8</ele>
					<time>0001-01-01T00:00:00Z</time>
				</trkpt>
				<trkpt lat="53.91712" lon="-0.92516">
					<ele>9</ele>
					<time>0001-01-01T00:00:00Z</time>
				</trkpt>
				<trkpt lat="53.91721" lon="-0.92612">
					<ele>8</ele>
					<time>0001-01-01T00:00:00Z</time>
				</trkpt>
				<trkpt lat="53.91811" lon="-0.92679">
					<ele>4</ele>
					<time>0001-01-01T00:00:00Z</time>
				</trkpt>
				<trkpt lat="53.91848" lon="-0.92695">
					<ele>4</ele>
					<time>0001-01-01T00:00:00Z</time>
				</trkpt>
				<trkpt lat="53.91990" lon="-0.92774">
					<ele>5</ele>
					<time>0001-01-01T00:00:00Z</time>
				</trkpt>
				<trkpt lat="53.92012" lon="-0.92779">
					<ele>5</ele>
					<time>0001-01-01T00:00:00Z</time>
				</trkpt>
				<trkpt lat="53.92029" lon="-0.92805">
					<ele>6</ele>
					<time>0001-01-01T00:00:00Z</time>
				</trkpt>
				<trkpt lat="53.92038" lon="-0.92872">
					<ele>8</ele>
					<time>0001-01-01T00:00:00Z</time>
				</trkpt>
				<trkpt lat="53.92014" lon="-0.93039">
					<ele>7</ele>
					<time>0001-01-01T00:00:00Z</time>
				</trkpt>
				<trkpt lat="53.92025" lon="-0.93187">
					<ele>11</ele>
					<time>0001-01-01T00:00:00Z</time>
				</trkpt>
				<trkpt lat="53.92022" lon="-0.93377">
					<ele>8</ele>
					<time>0001-01-01T00:00:00Z</time>
				</trkpt>
				<trkpt lat="53.92032" lon="-0.93485">
					<ele>7</ele>
					<time>0001-01-01T00:00:00Z</time>
				</trkpt>
				<trkpt lat="53.92133" lon="-0.93777">
					<ele>5</ele>
					<time>0001-01-01T00:00:00Z</time>
				</trkpt>
				<trkpt lat="53.92165" lon="-0.93836">
					<ele>5</ele>
					<time>0001-01-01T00:00:00Z</time>
				</trkpt>
				<trkpt lat="53.92271" lon="-0.93919">
					<ele>7</ele>
					<time>0001-01-01T00:00:00Z</time>
				</trkpt>
				<trkpt lat="53.92351" lon="-0.94024">
					<ele>7</ele>
					<time>0001-01-01T00:00:00Z</time>
				</trkpt>
				<trkpt lat="53.92389" lon="-0.94204">
					<ele>9</ele>
					<time>0001-01-01T00:00:00Z</time>
				</trkpt>
				<trkpt lat="53.92420" lon="-0.94425">
					<ele>11</ele>
					<time>0001-01-01T00:00:00Z</time>
				</trkpt>
				<trkpt lat="53.92462" lon="-0.94691">
					<ele>11</ele>
					<time>0001-01-01T00:00:00Z</time>
				</trkpt>
				<trkpt lat="53.92484" lon="-0.94821">
					<ele>12</ele>
					<time>0001-01-01T00:00:00Z</time>
				</trkpt>
				<trkpt lat="53.92497" lon="-0.95074">
					<ele>13</ele>
					<time>0001-01-01T00:00:00Z</time>
				</trkpt>
				<trkpt lat="53.92537" lon="-0.95362">
					<ele>14</ele>
					<time>0001-01-01T00:00:00Z</time>
				</trkpt>
				<trkpt lat="53.92562" lon="-0.95572">
					<ele>15</ele>
					<time>0001-01-01T00:00:00Z</time>
				</trkpt>
				<trkpt lat="53.92568" lon="-0.95613">
					<ele>15</ele>
					<time>0001-01-01T00:00:00Z</time>
				</trkpt>
				<trkpt lat="53.92639" lon="-0.95977">
					<ele>15</ele>
					<time>0001-01-01T00:00:00Z</time>
				</trkpt>
				<trkpt lat="53.92730" lon="-0.96150">
					<ele>16</ele>
					<time>0001-01-01T00:00:00Z</time>
				</trkpt>
				<trkpt lat="53.92858" lon="-0.96380">
					<ele>17</ele>
					<time>0001-01-01T00:00:00Z</time>
				</trkpt>
				<trkpt lat="53.92960" lon="-0.96579">
					<ele>15</ele>
					<time>0001-01-01T00:00:00Z</time>
				</trkpt>
				<trkpt lat="53.93065" lon="-0.96774">
					<ele>15</ele>
					<time>0001-01-01T00:00:00Z</time>
				</trkpt>
				<trkpt lat="53.93124" lon="-0.96985">
					<ele>12</ele>
					<time>0001-01-01T00:00:00Z</time>
				</trkpt>
				<trkpt lat="53.93182" lon="-0.97219">
					<ele>11</ele>
					<time>0001-01-01T00:00:00Z</time>
				</trkpt>
				<trkpt lat="53.93257" lon="-0.97384">
					<ele>14</ele>
					<time>0001-01-01T00:00:00Z</time>
				</trkpt>
				<trkpt lat="53.93378" lon="-0.97602">
					<ele>15</ele>
					<time>0001-01-01T00:00:00Z</time>
				</trkpt>
				<trkpt lat="53.93495" lon="-0.97810">
					<ele>15</ele>
					<time>0001-01-01T00:00:00Z</time>
				</trkpt>
				<trkpt lat="53.93625" lon="-0.98050">
					<ele>15</ele>
					<time>0001-01-01T00:00:00Z</time>
				</trkpt>
				<trkpt lat="53.93743" lon="-0.98231">
					<ele>16</ele>
					<time>0001-01-01T00:00:00Z</time>
				</trkpt>
				<trkpt lat="53.93840" lon="-0.98369">
					<ele>13</ele>
					<time>0001-01-01T00:00:00Z</time>
				</trkpt>
				<trkpt lat="53.94089" lon="-0.98172">
					<ele>15</ele>
					<time>0001-01-01T00:00:00Z</time>
				</trkpt>
				<trkpt lat="53.94167" lon="-0.98109">
					<ele>15</ele>
					<time>0001-01-01T00:00:00Z</time>
				</trkpt>
				<trkpt lat="53.94263" lon="-0.97917">
					<ele>14</ele>
					<time>0001-01-01T00:00:00Z</time>
				</trkpt>
				<trkpt lat="53.94369" lon="-0.97696">
					<ele>13</ele>
					<time>0001-01-01T00:00:00Z</time>
				</trkpt>
				<trkpt lat="53.94459" lon="-0.97507">
					<ele>11</ele>
					<time>0001-01-01T00:00:00Z</time>
				</trkpt>
				<trkpt lat="53.94505" lon="-0.97448">
					<ele>13</ele>
					<time>0001-01-01T00:00:00Z</time>
				</trkpt>
				<trkpt lat="53.94639" lon="-0.97417">
					<ele>16</ele>
					<time>0001-01-01T00:00:00Z</time>
				</trkpt>
				<trkpt lat="53.94815" lon="-0.97364">
					<ele>15</ele>
					<time>0001-01-01T00:00:00Z</time>
				</trkpt>
				<trkpt lat="53.94975" lon="-0.97314">
					<ele>14</ele>
					<time>0001-01-01T00:00:00Z</time>
				</trkpt>
				<trkpt lat="53.95125" lon="-0.97267">
					<ele>15</ele>
					<time>0001-01-01T00:00:00Z</time>
				</trkpt>
				<trkpt lat="53.95289" lon="-0.97219">
					<ele>14</ele>
					<time>0001-01-01T00:00:00Z</time>
				</trkpt>
				<trkpt lat="53.95355" lon="-0.97201">
					<ele>14</ele>
					<time>0001-01-01T00:00:00Z</time>
				</trkpt>
				<trkpt lat="53.95467" lon="-0.97265">
					<ele>13</ele>
					<time>0001-01-01T00:00:00Z</time>
				</trkpt>
				<trkpt lat="53.95472" lon="-0.97263">
					<ele>14</ele>
					<time>0001-01-01T00:00:00Z</time>
				</trkpt>
				<trkpt lat="53.95475" lon="-0.97226">
					<ele>14</ele>
					<time>0001-01-01T00:00:00Z</time>
				</trkpt>
				<trkpt lat="53.95473" lon="-0.97201">
					<ele>13</ele>
					<time>0001-01-01T00:00:00Z</time>
				</trkpt>
				<trkpt lat="53.95492" lon="-0.97178">
					<ele>13</ele>
					<time>0001-01-01T00:00:00Z</time>
				</trkpt>
				<trkpt lat="53.95603" lon="-0.97234">
					<ele>13</ele>
					<time>0001-01-01T00:00:00Z</time>
				</trkpt>
				<trkpt lat="53.95691" lon="-0.97278">
					<ele>14</ele>
					<time>0001-01-01T00:00:00Z</time>
				</trkpt>
				<trkpt lat="53.95816" lon="-0.97342">
					<ele>13</ele>
					<time>0001-01-01T00:00:00Z</time>
				</trkpt>
				<trkpt lat="53.95977" lon="-0.97427">
					<ele>14</ele>
					<time>0001-01-01T00:00:00Z</time>
				</trkpt>
				<trkpt lat="53.96145" lon="-0.97527">
					<ele>13</ele>
					<time>0001-01-01T00:00:00Z</time>
				</trkpt>
				<trkpt lat="53.96272" lon="-0.97627">
					<ele>13</ele>
					<time>0001-01-01T00:00:00Z</time>
				</trkpt>
				<trkpt lat="53.96360" lon="-0.97762">
					<ele>14</ele>
					<time>0001-01-01T00:00:00Z</time>
				</trkpt>
				<trkpt lat="53.96477" lon="-0.97899">
					<ele>14</ele>
					<time>0001-01-01T00:00:00Z</time>
				</trkpt>
				<trkpt lat="53.96507" lon="-0.97943">
					<ele>15</ele>
					<time>0001-01-01T00:00:00Z</time>
				</trkpt>
				<trkpt lat="53.96537" lon="-0.97936">
					<ele>16</ele>
					<time>0001-01-01T00:00:00Z</time>
				</trkpt>
				<trkpt lat="53.96555" lon="-0.97883">
					<ele>16</ele>
					<time>0001-01-01T00:00:00Z</time>
				</trkpt>
				<trkpt lat="53.96644" lon="-0.97737">
					<ele>15</ele>
					<time>0001-01-01T00:00:00Z</time>
				</trkpt>
				<trkpt lat="53.96690" lon="-0.97651">
					<ele>15</ele>
					<time>0001-01-01T00:00:00Z</time>
				</trkpt>
				<trkpt lat="53.96709" lon="-0.97657">
					<ele>15</ele>
					<time>0001-01-01T00:00:00Z</time>
				</trkpt>
				<trkpt lat="53.96801" lon="-0.97767">
					<ele>18</ele>
					<time>0001-01-01T00:00:00Z</time>
				</trkpt>
				<trkpt lat="53.96848" lon="-0.97814">
					<ele>22</ele>
					<time>0001-01-01T00:00:00Z</time>
				</trkpt>
				<trkpt lat="53.96861" lon="-0.97799">
					<ele>22</ele>
					<time>0001-01-01T00:00:00Z</time>
				</trkpt>
				<trkpt lat="53.96906" lon="-0.97712">
					<ele>24</ele>
					<time>0001-01-01T00:00:00Z</time>
				</trkpt>
				<trkpt lat="53.96978" lon="-0.97489">
					<ele>25</ele>
					<time>0001-01-01T00:00:00Z</time>
				</trkpt>
				<trkpt lat="53.97059" lon="-0.97311">
					<ele>27</ele>
					<time>0001-01-01T00:00:00Z</time>
				</trkpt>
				<trkpt lat="53.97160" lon="-0.97095">
					<ele>26</ele>
					<time>0001-01-01T00:00:00Z</time>
				</trkpt>
				<trkpt lat="53.97250" lon="-0.96926">
					<ele>25</ele>
					<time>0001-01-01T00:00:00Z</time>
				</trkpt>
				<trkpt lat="53.97379" lon="-0.96781">
					<ele>25</ele>
					<time>0001-01-01T00:00:00Z</time>
				</trkpt>
				<trkpt lat="53.97590" lon="-0.96567">
					<ele>25</ele>
					<time>0001-01-01T00:00:00Z</time>
				</trkpt>
				<trkpt lat="53.97619" lon="-0.96587">
					<ele>26</ele>
					<time>0001-01-01T00:00:00Z</time>
				</trkpt>
				<trkpt lat="53.97684" lon="-0.96728">
					<ele>32</ele>
					<time>0001-01-01T00:00:00Z</time>
				</trkpt>
				<trkpt lat="53.97730" lon="-0.96830">
					<ele>35</ele>
					<time>0001-01-01T00:00:00Z</time>
				</trkpt>
				<trkpt lat="53.97720" lon="-0.96858">
					<ele>36</ele>
					<time>0001-01-01T00:00:00Z</time>
				</trkpt>
				<trkpt lat="53.97691" lon="-0.96919">
					<ele>36</ele>
					<time>0001-01-01T00:00:00Z</time>
				</trkpt>
				<trkpt lat="53.97712" lon="-0.96966">
					<ele>37</ele>
					<time>0001-01-01T00:00:00Z</time>
				</trkpt>
				<trkpt lat="53.97730" lon="-0.97073">
					<ele>38</ele>
					<time>0001-01-01T00:00:00Z</time>
				</trkpt>
				<trkpt lat="53.97743" lon="-0.97215">
					<ele>38</ele>
					<time>0001-01-01T00:00:00Z</time>
				</trkpt>
				<trkpt lat="53.97744" lon="-0.97222">
					<ele>38</ele>
					<time>0001-01-01T00:00:00Z</time>
				</trkpt>
				<trkpt lat="53.97779" lon="-0.97246">
					<ele>35</ele>
					<time>0001-01-01T00:00:00Z</time>
				</trkpt>
				<trkpt lat="53.97940" lon="-0.97261">
					<ele>31</ele>
					<time>0001-01-01T00:00:00Z</time>
				</trkpt>
				<trkpt lat="53.97949" lon="-0.97263">
					<ele>31</ele>
					<time>0001-01-01T00:00:00Z</time>
				</trkpt>
				<trkpt lat="53.97979" lon="-0.97285">
					<ele>30</ele>
					<time>0001-01-01T00:00:00Z</time>
				</trkpt>
				<trkpt lat="53.98019" lon="-0.97329">
					<ele>29</ele>
					<time>0001-01-01T00:00:00Z</time>
				</trkpt>
				<trkpt lat="53.98029" lon="-0.97345">
					<ele>28</ele>
					<time>0001-01-01T00:00:00Z</time>
				</trkpt>
				<trkpt lat="53.98075" lon="-0.97348">
					<ele>27</ele>
					<time>0001-01-01T00:00:00Z</time>
				</trkpt>
				<trkpt lat="53.98204" lon="-0.97270">
					<ele>27</ele>
					<time>0001-01-01T00:00:00Z</time>
				</trkpt>
				<trkpt lat="53.98290" lon="-0.97176">
					<ele>28</ele>
					<time>0001-01-01T00:00:00Z</time>
				</trkpt>
				<trkpt lat="53.98380" lon="-0.97089">
					<ele>27</ele>
					<time>0001-01-01T00:00:00Z</time>
				</trkpt>
				<trkpt lat="53.98408" lon="-0.97071">
					<ele>26</ele>
					<time>0001-01-01T00:00:00Z</time>
				</trkpt>
				<trkpt lat="53.98447" lon="-0.97073">
					<ele>25</ele>
					<time>0001-01-01T00:00:00Z</time>
				</trkpt>
				<trkpt lat="53.98577" lon="-0.97177">
					<ele>24</ele>
					<time>0001-01-01T00:00:00Z</time>
				</trkpt>
				<trkpt lat="53.98691" lon="-0.97277">
					<ele>24</ele>
					<time>0001-01-01T00:00:00Z</time>
				</trkpt>
				<trkpt lat="53.98745" lon="-0.97283">
					<ele>24</ele>
					<time>0001-01-01T00:00:00Z</time>
				</trkpt>
				<trkpt lat="53.98780" lon="-0.97246">
					<ele>24</ele>
					<time>0001-01-01T00:00:00Z</time>
				</trkpt>
				<trkpt lat="53.98784" lon="-0.97224">
					<ele>24</ele>
					<time>0001-01-01T00:00:00Z</time>
				</trkpt>
				<trkpt lat="53.98811" lon="-0.97194">
					<ele>25</ele>
					<time>0001-01-01T00:00:00Z</time>
				</trkpt>
				<trkpt lat="53.98830" lon="-0.97187">
					<ele>25</ele>
					<time>0001-01-01T00:00:00Z</time>
				</trkpt>
				<trkpt lat="53.98852" lon="-0.97164">
					<ele>26</ele>
					<time>0001-01-01T00:00:00Z</time>
				</trkpt>
				<trkpt lat="53.98862" lon="-0.97150">
					<ele>28</ele>
					<time>0001-01-01T00:00:00Z</time>
				</trkpt>
				<trkpt lat="53.98886" lon="-0.97138">
					<ele>27</ele>
					<time>0001-01-01T00:00:00Z</time>
				</trkpt>
				<trkpt lat="53.99012" lon="-0.97181">
					<ele>25</ele>
					<time>0001-01-01T00:00:00Z</time>
				</trkpt>
				<trkpt lat="53.99133" lon="-0.97233">
					<ele>25</ele>
					<time>0001-01-01T00:00:00Z</time>
				</trkpt>
				<trkpt lat="53.99258" lon="-0.97249">
					<ele>26</ele>
					<time>0001-01-01T00:00:00Z</time>
				</trkpt>
				<trkpt lat="53.99394" lon="-0.97186">
					<ele>27</ele>
					<time>0001-01-01T00:00:00Z</time>
				</trkpt>
				<trkpt lat="53.99565" lon="-0.97099">
					<ele>28</ele>
					<time>0001-01-01T00:00:00Z</time>
				</trkpt>
				<trkpt lat="53.99728" lon="-0.97031">
					<ele>27</ele>
					<time>0001-01-01T00:00:00Z</time>
				</trkpt>
				<trkpt lat="53.99892" lon="-0.96991">
					<ele>28</ele>
					<time>0001-01-01T00:00:00Z</time>
				</trkpt>
				<trkpt lat="53.99987" lon="-0.96992">
					<ele>28</ele>
					<time>0001-01-01T00:00:00Z</time>
				</trkpt>
				<trkpt lat="54.00108" lon="-0.97078">
					<ele>28</ele>
					<time>0001-01-01T00:00:00Z</time>
				</trkpt>
				<trkpt lat="54.00265" lon="-0.97202">
					<ele>27</ele>
					<time>0001-01-01T00:00:00Z</time>
				</trkpt>
				<trkpt lat="54.00427" lon="-0.97329">
					<ele>27</ele>
					<time>0001-01-01T00:00:00Z</time>
				</trkpt>
				<trkpt lat="54.00464" lon="-0.97361">
					<ele>26</ele>
					<time>0001-01-01T00:00:00Z</time>
				</trkpt>
				<trkpt lat="54.00482" lon="-0.97397">
					<ele>26</ele>
					<time>0001-01-01T00:00:00Z</time>
				</trkpt>
				<trkpt lat="54.00529" lon="-0.97599">
					<ele>25</ele>
					<time>0001-01-01T00:00:00Z</time>
				</trkpt>
				<trkpt lat="54.00579" lon="-0.97830">
					<ele>25</ele>
					<time>0001-01-01T00:00:00Z</time>
				</trkpt>
				<trkpt lat="54.00662" lon="-0.98231">
					<ele>27</ele>
					<time>0001-01-01T00:00:00Z</time>
				</trkpt>
				<trkpt lat="54.00684" lon="-0.98280">
					<ele>26</ele>
					<time>0001-01-01T00:00:00Z</time>
				</trkpt>
				<trkpt lat="54.00837" lon="-0.98472">
					<ele>24</ele>
					<time>0001-01-01T00:00:00Z</time>
				</trkpt>
				<trkpt lat="54.01000" lon="-0.98671">
					<ele>23</ele>
					<time>0001-01-01T00:00:00Z</time>
				</trkpt>
				<trkpt lat="54.01161" lon="-0.98869">
					<ele>21</ele>
					<time>0001-01-01T00:00:00Z</time>
				</trkpt>
				<trkpt lat="54.01270" lon="-0.99002">
					<ele>21</ele>
					<time>0001-01-01T00:00:00Z</time>
				</trkpt>
				<trkpt lat="54.01294" lon="-0.99035">
					<ele>22</ele>
					<time>0001-01-01T00:00:00Z</time>
				</trkpt>
				<trkpt lat="54.01296" lon="-0.99039">
					<ele>22</ele>
					<time>0001-01-01T00:00:00Z</time>
				</trkpt>
				<trkpt lat="54.01305" lon="-0.99059">
					<ele>21</ele>
					<time>0001-01-01T00:00:00Z</time>
				</trkpt>
				<trkpt lat="54.01361" lon="-0.99226">
					<ele>20</ele>
					<time>0001-01-01T00:00:00Z</time>
				</trkpt>
				<trkpt lat="54.01454" lon="-0.99515">
					<ele>18</ele>
					<time>0001-01-01T00:00:00Z</time>
				</trkpt>
				<trkpt lat="54.01544" lon="-0.99790">
					<ele>19</ele>
					<time>0001-01-01T00:00:00Z</time>
				</trkpt>
				<trkpt lat="54.01633" lon="-1.00059">
					<ele>20</ele>
					<time>0001-01-01T00:00:00Z</time>
				</trkpt>
				<trkpt lat="54.01732" lon="-1.00302">
					<ele>20</ele>
					<time>0001-01-01T00:00:00Z</time>
				</trkpt>
				<trkpt lat="54.01863" lon="-1.00576">
					<ele>19</ele>
					<time>0001-01-01T00:00:00Z</time>
				</trkpt>
				<trkpt lat="54.01941" lon="-1.00770">
					<ele>19</ele>
					<time>0001-01-01T00:00:00Z</time>
				</trkpt>
				<trkpt lat="54.01916" lon="-1.00958">
					<ele>21</ele>
					<time>0001-01-01T00:00:00Z</time>
				</trkpt>
				<trkpt lat="54.01891" lon="-1.01196">
					<ele>22</ele>
					<time>0001-01-01T00:00:00Z</time>
				</trkpt>
				<trkpt lat="54.01861" lon="-1.01513">
					<ele>27</ele>
					<time>0001-01-01T00:00:00Z</time>
				</trkpt>
				<trkpt lat="54.01835" lon="-1.01770">
					<ele>28</ele>
					<time>0001-01-01T00:00:00Z</time>
				</trkpt>
				<trkpt lat="54.01806" lon="-1.02066">
					<ele>27</ele>
					<time>0001-01-01T00:00:00Z</time>
				</trkpt>
				<trkpt lat="54.01788" lon="-1.02377">
					<ele>26</ele>
					<time>0001-01-01T00:00:00Z</time>
				</trkpt>
				<trkpt lat="54.01798" lon="-1.02617">
					<ele>24</ele>
					<time>0001-01-01T00:00:00Z</time>
				</trkpt>
				<trkpt lat="54.01824" lon="-1.02980">
					<ele>22</ele>
					<time>0001-01-01T00:00:00Z</time>
				</trkpt>
				<trkpt lat="54.01839" lon="-1.03255">
					<ele>23</ele>
					<time>0001-01-01T00:00:00Z</time>
				</trkpt>
				<trkpt lat="54.01864" lon="-1.03491">
					<ele>21</ele>
					<time>0001-01-01T00:00:00Z</time>
				</trkpt>
				<trkpt lat="54.01887" lon="-1.03826">
					<ele>20</ele>
					<time>0001-01-01T00:00:00Z</time>
				</trkpt>
				<trkpt lat="54.01918" lon="-1.04159">
					<ele>22</ele>
					<time>0001-01-01T00:00:00Z</time>
				</trkpt>
				<trkpt lat="54.01955" lon="-1.04458">
					<ele>20</ele>
					<time>0001-01-01T00:00:00Z</time>
				</trkpt>
				<trkpt lat="54.01971" lon="-1.04559">
					<ele>20</ele>
					<time>0001-01-01T00:00:00Z</time>
				</trkpt>
				<trkpt lat="54.01988" lon="-1.04558">
					<ele>20</ele>
					<time>0001-01-01T00:00:00Z</time>
				</trkpt>
				<trkpt lat="54.02216" lon="-1.04462">
					<ele>21</ele>
					<time>0001-01-01T00:00:00Z</time>
				</trkpt>
				<trkpt lat="54.02412" lon="-1.04364">
					<ele>22</ele>
					<time>0001-01-01T00:00:00Z</time>
				</trkpt>
				<trkpt lat="54.02569" lon="-1.04248">
					<ele>22</ele>
					<time>0001-01-01T00:00:00Z</time>
				</trkpt>
				<trkpt lat="54.02733" lon="-1.04093">
					<ele>22</ele>
					<time>0001-01-01T00:00:00Z</time>
				</trkpt>
				<trkpt lat="54.02798" lon="-1.04014">
					<ele>20</ele>
					<time>0001-01-01T00:00:00Z</time>
				</trkpt>
				<trkpt lat="54.02873" lon="-1.04035">
					<ele>20</ele>
					<time>0001-01-01T00:00:00Z</time>
				</trkpt>
				<trkpt lat="54.03060" lon="-1.03991">
					<ele>19</ele>
					<time>0001-01-01T00:00:00Z</time>
				</trkpt>
				<trkpt lat="54.03234" lon="-1.03890">
					<ele>18</ele>
					<time>0001-01-01T00:00:00Z</time>
				</trkpt>
				<trkpt lat="54.03410" lon="-1.03839">
					<ele>17</ele>
					<time>0001-01-01T00:00:00Z</time>
				</trkpt>
				<trkpt lat="54.03557" lon="-1.03832">
					<ele>17</ele>
					<time>0001-01-01T00:00:00Z</time>
				</trkpt>
				<trkpt lat="54.03702" lon="-1.03872">
					<ele>17</ele>
					<time>0001-01-01T00:00:00Z</time>
				</trkpt>
				<trkpt lat="54.03723" lon="-1.03878">
					<ele>17</ele>
					<time>0001-01-01T00:00:00Z</time>
				</trkpt>
				<trkpt lat="54.03750" lon="-1.03846">
					<ele>17</ele>
					<time>0001-01-01T00:00:00Z</time>
				</trkpt>
				<trkpt lat="54.03763" lon="-1.03819">
					<ele>17</ele>
					<time>0001-01-01T00:00:00Z</time>
				</trkpt>
				<trkpt lat="54.03851" lon="-1.03730">
					<ele>17</ele>
					<time>0001-01-01T00:00:00Z</time>
				</trkpt>
				<trkpt lat="54.03893" lon="-1.03732">
					<ele>17</ele>
					<time>0001-01-01T00:00:00Z</time>
				</trkpt>
				<trkpt lat="54.03922" lon="-1.03739">
					<ele>17</ele>
					<time>0001-01-01T00:00:00Z</time>
				</trkpt>
				<trkpt lat="54.03954" lon="-1.03702">
					<ele>16</ele>
					<time>0001-01-01T00:00:00Z</time>
				</trkpt>
				<trkpt lat="54.04000" lon="-1.03533">
					<ele>17</ele>
					<time>0001-01-01T00:00:00Z</time>
				</trkpt>
				<trkpt lat="54.04027" lon="-1.03513">
					<ele>16</ele>
					<time>0001-01-01T00:00:00Z</time>
				</trkpt>
				<trkpt lat="54.04134" lon="-1.03527">
					<ele>16</ele>
					<time>0001-01-01T00:00:00Z</time>
				</trkpt>
				<trkpt lat="54.04274" lon="-1.03524">
					<ele>17</ele>
					<time>0001-01-01T00:00:00Z</time>
				</trkpt>
				<trkpt lat="54.04288" lon="-1.03523">
					<ele>17</ele>
					<time>0001-01-01T00:00:00Z</time>
				</trkpt>
				<trkpt lat="54.04412" lon="-1.03508">
					<ele>19</ele>
					<time>0001-01-01T00:00:00Z</time>
				</trkpt>
				<trkpt lat="54.04590" lon="-1.03515">
					<ele>20</ele>
					<time>0001-01-01T00:00:00Z</time>
				</trkpt>
				<trkpt lat="54.04744" lon="-1.03540">
					<ele>21</ele>
					<time>0001-01-01T00:00:00Z</time>
				</trkpt>
				<trkpt lat="54.04887" lon="-1.03609">
					<ele>20</ele>
					<time>0001-01-01T00:00:00Z</time>
				</trkpt>
				<trkpt lat="54.04901" lon="-1.03648">
					<ele>20</ele>
					<time>0001-01-01T00:00:00Z</time>
				</trkpt>
				<trkpt lat="54.04916" lon="-1.03894">
					<ele>21</ele>
					<time>0001-01-01T00:00:00Z</time>
				</trkpt>
				<trkpt lat="54.04929" lon="-1.04161">
					<ele>23</ele>
					<time>0001-01-01T00:00:00Z</time>
				</trkpt>
				<trkpt lat="54.04930" lon="-1.04272">
					<ele>22</ele>
					<time>0001-01-01T00:00:00Z</time>
				</trkpt>
				<trkpt lat="54.04930" lon="-1.04271">
					<ele>19</ele>
					<time>0001-01-01T00:00:00Z</time>
				</trkpt>
				<trkpt lat="54.04933" lon="-1.04322">
					<ele>19</ele>
					<time>0001-01-01T00:00:00Z</time>
				</trkpt>
				<trkpt lat="54.04947" lon="-1.04432">
					<ele>19</ele>
					<time>0001-01-01T00:00:00Z</time>
				</trkpt>
				<trkpt lat="54.04977" lon="-1.04630">
					<ele>20</ele>
					<time>0001-01-01T00:00:00Z</time>
				</trkpt>
				<trkpt lat="54.05015" lon="-1.04874">
					<ele>20</ele>
					<time>0001-01-01T00:00:00Z</time>
				</trkpt>
				<trkpt lat="54.05071" lon="-1.05254">
					<ele>23</ele>
					<time>0001-01-01T00:00:00Z</time>
				</trkpt>
				<trkpt lat="54.05142" lon="-1.05567">
					<ele>21</ele>
					<time>0001-01-01T00:00:00Z</time>
				</trkpt>
				<trkpt lat="54.05200" lon="-1.05779">
					<ele>22</ele>
					<time>0001-01-01T00:00:00Z</time>
				</trkpt>
				<trkpt lat="54.05236" lon="-1.05816">
					<ele>23</ele>
					<time>0001-01-01T00:00:00Z</time>
				</trkpt>
				<trkpt lat="54.05436" lon="-1.05892">
					<ele>22</ele>
					<time>0001-01-01T00:00:00Z</time>
				</trkpt>
				<trkpt lat="54.05599" lon="-1.05926">
					<ele>23</ele>
					<time>0001-01-01T00:00:00Z</time>
				</trkpt>
				<trkpt lat="54.05633" lon="-1.05935">
					<ele>24</ele>
					<time>0001-01-01T00:00:00Z</time>
				</trkpt>
				<trkpt lat="54.05665" lon="-1.05991">
					<ele>23</ele>
					<time>0001-01-01T00:00:00Z</time>
				</trkpt>
				<trkpt lat="54.05713" lon="-1.06269">
					<ele>24</ele>
					<time>0001-01-01T00:00:00Z</time>
				</trkpt>
				<trkpt lat="54.05773" lon="-1.06493">
					<ele>22</ele>
					<time>0001-01-01T00:00:00Z</time>
				</trkpt>
				<trkpt lat="54.05858" lon="-1.06772">
					<ele>23</ele>
					<time>0001-01-01T00:00:00Z</time>
				</trkpt>
				<trkpt lat="54.05901" lon="-1.06949">
					<ele>23</ele>
					<time>0001-01-01T00:00:00Z</time>
				</trkpt>
				<trkpt lat="54.05903" lon="-1.06987">
					<ele>23</ele>
					<time>0001-01-01T00:00:00Z</time>
				</trkpt>
				<trkpt lat="54.05867" lon="-1.07252">
					<ele>22</ele>
					<time>0001-01-01T00:00:00Z</time>
				</trkpt>
				<trkpt lat="54.05834" lon="-1.07487">
					<ele>21</ele>
					<time>0001-01-01T00:00:00Z</time>
				</trkpt>
				<trkpt lat="54.05799" lon="-1.07743">
					<ele>21</ele>
					<time>0001-01-01T00:00:00Z</time>
				</trkpt>
				<trkpt lat="54.05760" lon="-1.08015">
					<ele>20</ele>
					<time>0001-01-01T00:00:00Z</time>
				</trkpt>
				<trkpt lat="54.05725" lon="-1.08278">
					<ele>22</ele>
					<time>0001-01-01T00:00:00Z</time>
				</trkpt>
				<trkpt lat="54.05705" lon="-1.08417">
					<ele>22</ele>
					<time>0001-01-01T00:00:00Z</time>
				</trkpt>
				<trkpt lat="54.05726" lon="-1.08465">
					<ele>21</ele>
					<time>0001-01-01T00:00:00Z</time>
				</trkpt>
				<trkpt lat="54.05891" lon="-1.08575">
					<ele>21</ele>
					<time>0001-01-01T00:00:00Z</time>
				</trkpt>
				<trkpt lat="54.06071" lon="-1.08697">
					<ele>23</ele>
					<time>0001-01-01T00:00:00Z</time>
				</trkpt>
				<trkpt lat="54.06201" lon="-1.08784">
					<ele>25</ele>
					<time>0001-01-01T00:00:00Z</time>
				</trkpt>
				<trkpt lat="54.06277" lon="-1.08838">
					<ele>24</ele>
					<time>0001-01-01T00:00:00Z</time>
				</trkpt>
				<trkpt lat="54.06283" lon="-1.08877">
					<ele>24</ele>
					<time>0001-01-01T00:00:00Z</time>
				</trkpt>
				<trkpt lat="54.06226" lon="-1.09066">
					<ele>24</ele>
					<time>0001-01-01T00:00:00Z</time>
				</trkpt>
				<trkpt lat="54.06222" lon="-1.09086">
					<ele>24</ele>
					<time>0001-01-01T00:00:00Z</time>
				</trkpt>
				<trkpt lat="54.06228" lon="-1.09110">
					<ele>24</ele>
					<time>0001-01-01T00:00:00Z</time>
				</trkpt>
				<trkpt lat="54.06237" lon="-1.09113">
					<ele>24</ele>
					<time>0001-01-01T00:00:00Z</time>
				</trkpt>
				<trkpt lat="54.06287" lon="-1.09125">
					<ele>24</ele>
					<time>0001-01-01T00:00:00Z</time>
				</trkpt>
				<trkpt lat="54.06457" lon="-1.09239">
					<ele>24</ele>
					<time>0001-01-01T00:00:00Z</time>
				</trkpt>
				<trkpt lat="54.06635" lon="-1.09360">
					<ele>25</ele>
					<time>0001-01-01T00:00:00Z</time>
				</trkpt>
				<trkpt lat="54.06774" lon="-1.09467">
					<ele>28</ele>
					<time>0001-01-01T00:00:00Z</time>
				</trkpt>
				<trkpt lat="54.06936" lon="-1.09603">
					<ele>29</ele>
					<time>0001-01-01T00:00:00Z</time>
				</trkpt>
				<trkpt lat="54.07104" lon="-1.09761">
					<ele>30</ele>
					<time>0001-01-01T00:00:00Z</time>
				</trkpt>
				<trkpt lat="54.07281" lon="-1.09930">
					<ele>33</ele>
					<time>0001-01-01T00:00:00Z</time>
				</trkpt>
				<trkpt lat="54.07471" lon="-1.10104">
					<ele>35</ele>
					<time>0001-01-01T00:00:00Z</time>
				</trkpt>
				<trkpt lat="54.07534" lon="-1.10173">
					<ele>35</ele>
					<time>0001-01-01T00:00:00Z</time>
				</trkpt>
				<trkpt lat="54.07563" lon="-1.10195">
					<ele>35</ele>
					<time>0001-01-01T00:00:00Z</time>
				</trkpt>
				<trkpt lat="54.07680" lon="-1.10310">
					<ele>38</ele>
					<time>0001-01-01T00:00:00Z</time>
				</trkpt>
				<trkpt lat="54.07789" lon="-1.10431">
					<ele>36</ele>
					<time>0001-01-01T00:00:00Z</time>
				</trkpt>
				<trkpt lat="54.07921" lon="-1.10604">
					<ele>34</ele>
					<time>0001-01-01T00:00:00Z</time>
				</trkpt>
				<trkpt lat="54.08100" lon="-1.10755">
					<ele>32</ele>
					<time>0001-01-01T00:00:00Z</time>
				</trkpt>
				<trkpt lat="54.08119" lon="-1.10776">
					<ele>32</ele>
					<time>0001-01-01T00:00:00Z</time>
				</trkpt>
				<trkpt lat="54.08257" lon="-1.10965">
					<ele>29</ele>
					<time>0001-01-01T00:00:00Z</time>
				</trkpt>
				<trkpt lat="54.08397" lon="-1.11026">
					<ele>28</ele>
					<time>0001-01-01T00:00:00Z</time>
				</trkpt>
				<trkpt lat="54.08603" lon="-1.11059">
					<ele>29</ele>
					<time>0001-01-01T00:00:00Z</time>
				</trkpt>
				<trkpt lat="54.08777" lon="-1.11066">
					<ele>29</ele>
					<time>0001-01-01T00:00:00Z</time>
				</trkpt>
				<trkpt lat="54.08804" lon="-1.11048">
					<ele>29</ele>
					<time>0001-01-01T00:00:00Z</time>
				</trkpt>
				<trkpt lat="54.08828" lon="-1.11024">
					<ele>30</ele>
					<time>0001-01-01T00:00:00Z</time>
				</trkpt>
				<trkpt lat="54.08927" lon="-1.11018">
					<ele>32</ele>
					<time>0001-01-01T00:00:00Z</time>
				</trkpt>
				<trkpt lat="54.09096" lon="-1.11044">
					<ele>33</ele>
					<time>0001-01-01T00:00:00Z</time>
				</trkpt>
				<trkpt lat="54.09256" lon="-1.11093">
					<ele>33</ele>
					<time>0001-01-01T00:00:00Z</time>
				</trkpt>
				<trkpt lat="54.09379" lon="-1.11129">
					<ele>34</ele>
					<time>0001-01-01T00:00:00Z</time>
				</trkpt>
				<trkpt lat="54.09503" lon="-1.11028">
					<ele>35</ele>
					<time>0001-01-01T00:00:00Z</time>
				</trkpt>
				<trkpt lat="54.09516" lon="-1.11015">
					<ele>35</ele>
					<time>0001-01-01T00:00:00Z</time>
				</trkpt>
				<trkpt lat="54.09563" lon="-1.11010">
					<ele>36</ele>
					<time>0001-01-01T00:00:00Z</time>
				</trkpt>
				<trkpt lat="54.09683" lon="-1.11077">
					<ele>36</ele>
					<time>0001-01-01T00:00:00Z</time>
				</trkpt>
				<trkpt lat="54.09740" lon="-1.11067">
					<ele>36</ele>
					<time>0001-01-01T00:00:00Z</time>
				</trkpt>
				<trkpt lat="54.09900" lon="-1.11046">
					<ele>35</ele>
					<time>0001-01-01T00:00:00Z</time>
				</trkpt>
				<trkpt lat="54.10074" lon="-1.11067">
					<ele>38</ele>
					<time>0001-01-01T00:00:00Z</time>
				</trkpt>
				<trkpt lat="54.10224" lon="-1.11067">
					<ele>40</ele>
					<time>0001-01-01T00:00:00Z</time>
				</trkpt>
				<trkpt lat="54.10289" lon="-1.11080">
					<ele>45</ele>
					<time>0001-01-01T00:00:00Z</time>
				</trkpt>
				<trkpt lat="54.10296" lon="-1.11137">
					<ele>47</ele>
					<time>0001-01-01T00:00:00Z</time>
				</trkpt>
				<trkpt lat="54.10321" lon="-1.11332">
					<ele>52</ele>
					<time>0001-01-01T00:00:00Z</time>
				</trkpt>
				<trkpt lat="54.10371" lon="-1.11517">
					<ele>50</ele>
					<time>0001-01-01T00:00:00Z</time>
				</trkpt>
				<trkpt lat="54.10437" lon="-1.11827">
					<ele>48</ele>
					<time>0001-01-01T00:00:00Z</time>
				</trkpt>
				<trkpt lat="54.10456" lon="-1.12108">
					<ele>46</ele>
					<time>0001-01-01T00:00:00Z</time>
				</trkpt>
				<trkpt lat="54.10492" lon="-1.12349">
					<ele>47</ele>
					<time>0001-01-01T00:00:00Z</time>
				</trkpt>
				<trkpt lat="54.10558" lon="-1.12587">
					<ele>45</ele>
					<time>0001-01-01T00:00:00Z</time>
				</trkpt>
				<trkpt lat="54.10582" lon="-1.12800">
					<ele>44</ele>
					<time>0001-01-01T00:00:00Z</time>
				</trkpt>
				<trkpt lat="54.10618" lon="-1.13089">
					<ele>41</ele>
					<time>0001-01-01T00:00:00Z</time>
				</trkpt>
				<trkpt lat="54.10665" lon="-1.13446">
					<ele>40</ele>
					<time>0001-01-01T00:00:00Z</time>
				</trkpt>
				<trkpt lat="54.10726" lon="-1.13745">
					<ele>38</ele>
					<time>0001-01-01T00:00:00Z</time>
				</trkpt>
				<trkpt lat="54.10836" lon="-1.14071">
					<ele>36</ele>
					<time>0001-01-01T00:00:00Z</time>
				</trkpt>
				<trkpt lat="54.10924" lon="-1.14337">
					<ele>36</ele>
					<time>0001-01-01T00:00:00Z</time>
				</trkpt>
				<trkpt lat="54.10929" lon="-1.14348">
					<ele>36</ele>
					<time>0001-01-01T00:00:00Z</time>
				</trkpt>
				<trkpt lat="54.10944" lon="-1.14334">
					<ele>36</ele>
					<time>0001-01-01T00:00:00Z</time>
				</trkpt>
				<trkpt lat="54.11034" lon="-1.14303">
					<ele>37</ele>
					<time>0001-01-01T00:00:00Z</time>
				</trkpt>
				<trkpt lat="54.11146" lon="-1.14335">
					<ele>39</ele>
					<time>0001-01-01T00:00:00Z</time>
				</trkpt>
				<trkpt lat="54.11235" lon="-1.14312">
					<ele>40</ele>
					<time>0001-01-01T00:00:00Z</time>
				</trkpt>
				<trkpt lat="54.11383" lon="-1.14311">
					<ele>42</ele>
					<time>0001-01-01T00:00:00Z</time>
				</trkpt>
				<trkpt lat="54.11509" lon="-1.14303">
					<ele>42</ele>
					<time>0001-01-01T00:00:00Z</time>
				</trkpt>
				<trkpt lat="54.11622" lon="-1.14277">
					<ele>47</ele>
					<time>0001-01-01T00:00:00Z</time>
				</trkpt>
				<trkpt lat="54.11758" lon="-1.14248">
					<ele>51</ele>
					<time>0001-01-01T00:00:00Z</time>
				</trkpt>
				<trkpt lat="54.11936" lon="-1.14196">
					<ele>56</ele>
					<time>0001-01-01T00:00:00Z</time>
				</trkpt>
				<trkpt lat="54.12050" lon="-1.14163">
					<ele>61</ele>
					<time>0001-01-01T00:00:00Z</time>
				</trkpt>
				<trkpt lat="54.12133" lon="-1.14140">
					<ele>63</ele>
					<time>0001-01-01T00:00:00Z</time>
				</trkpt>
				<trkpt lat="54.12259" lon="-1.14099">
					<ele>65</ele>
					<time>0001-01-01T00:00:00Z</time>
				</trkpt>
				<trkpt lat="54.12370" lon="-1.14153">
					<ele>68</ele>
					<time>0001-01-01T00:00:00Z</time>
				</trkpt>
				<trkpt lat="54.12532" lon="-1.14288">
					<ele>72</ele>
					<time>0001-01-01T00:00:00Z</time>
				</trkpt>
				<trkpt lat="54.12616" lon="-1.14374">
					<ele>77</ele>
					<time>0001-01-01T00:00:00Z</time>
				</trkpt>
				<trkpt lat="54.12655" lon="-1.14357">
					<ele>82</ele>
					<time>0001-01-01T00:00:00Z</time>
				</trkpt>
				<trkpt lat="54.12692" lon="-1.14275">
					<ele>88</ele>
					<time>0001-01-01T00:00:00Z</time>
				</trkpt>
				<trkpt lat="54.12726" lon="-1.14221">
					<ele>93</ele>
					<time>0001-01-01T00:00:00Z</time>
				</trkpt>
				<trkpt lat="54.12742" lon="-1.14222">
					<ele>95</ele>
					<time>0001-01-01T00:00:00Z</time>
				</trkpt>
				<trkpt lat="54.12773" lon="-1.14291">
					<ele>98</ele>
					<time>0001-01-01T00:00:00Z</time>
				</trkpt>
				<trkpt lat="54.12801" lon="-1.14357">
					<ele>102</ele>
					<time>0001-01-01T00:00:00Z</time>
				</trkpt>
				<trkpt lat="54.12825" lon="-1.14403">
					<ele>107</ele>
					<time>0001-01-01T00:00:00Z</time>
				</trkpt>
				<trkpt lat="54.12857" lon="-1.14448">
					<ele>111</ele>
					<time>0001-01-01T00:00:00Z</time>
				</trkpt>
				<trkpt lat="54.12859" lon="-1.14547">
					<ele>113</ele>
					<time>0001-01-01T00:00:00Z</time>
				</trkpt>
				<trkpt lat="54.12871" lon="-1.14638">
					<ele>113</ele>
					<time>0001-01-01T00:00:00Z</time>
				</trkpt>
				<trkpt lat="54.12887" lon="-1.14664">
					<ele>112</ele>
					<time>0001-01-01T00:00:00Z</time>
				</trkpt>
				<trkpt lat="54.13017" lon="-1.14764">
					<ele>108</ele>
					<time>0001-01-01T00:00:00Z</time>
				</trkpt>
				<trkpt lat="54.13122" lon="-1.14870">
					<ele>108</ele>
					<time>0001-01-01T00:00:00Z</time>
				</trkpt>
				<trkpt lat="54.13169" lon="-1.14927">
					<ele>111</ele>
					<time>0001-01-01T00:00:00Z</time>
				</trkpt>
				<trkpt lat="54.13297" lon="-1.15036">
					<ele>114</ele>
					<time>0001-01-01T00:00:00Z</time>
				</trkpt>
				<trkpt lat="54.13317" lon="-1.15056">
					<ele>113</ele>
					<time>0001-01-01T00:00:00Z</time>
				</trkpt>
				<trkpt lat="54.13457" lon="-1.15246">
					<ele>94</ele>
					<time>0001-01-01T00:00:00Z</time>
				</trkpt>
				<trkpt lat="54.13576" lon="-1.15436">
					<ele>87</ele>
					<time>0001-01-01T00:00:00Z</time>
				</trkpt>
				<trkpt lat="54.13715" lon="-1.15607">
					<ele>81</ele>
					<time>0001-01-01T00:00:00Z</time>
				</trkpt>
				<trkpt lat="54.13730" lon="-1.15629">
					<ele>80</ele>
					<time>0001-01-01T00:00:00Z</time>
				</trkpt>
				<trkpt lat="54.13777" lon="-1.15655">
					<ele>79</ele>
					<time>0001-01-01T00:00:00Z</time>
				</trkpt>
				<trkpt lat="54.13944" lon="-1.15673">
					<ele>80</ele>
					<time>0001-01-01T00:00:00Z</time>
				</trkpt>
				<trkpt lat="54.14044" lon="-1.15685">
					<ele>83</ele>
					<time>0001-01-01T00:00:00Z</time>
				</trkpt>
				<trkpt lat="54.14173" lon="-1.15701">
					<ele>83</ele>
					<time>0001-01-01T00:00:00Z</time>
				</trkpt>
				<trkpt lat="54.14312" lon="-1.15733">
					<ele>85</ele>
					<time>0001-01-01T00:00:00Z</time>
				</trkpt>
				<trkpt lat="54.14452" lon="-1.15787">
					<ele>87</ele>
					<time>0001-01-01T00:00:00Z</time>
				</trkpt>
				<trkpt lat="54.14555" lon="-1.15774">
					<ele>90</ele>
					<time>0001-01-01T00:00:00Z</time>
				</trkpt>
				<trkpt lat="54.14640" lon="-1.15731">
					<ele>91</ele>
					<time>0001-01-01T00:00:00Z</time>
				</trkpt>
				<trkpt lat="54.14844" lon="-1.15687">
					<ele>84</ele>
					<time>0001-01-01T00:00:00Z</time>
				</trkpt>
				<trkpt lat="54.14999" lon="-1.15692">
					<ele>85</ele>
					<time>0001-01-01T00:00:00Z</time>
				</trkpt>
				<trkpt lat="54.15121" lon="-1.15775">
					<ele>86</ele>
					<time>0001-01-01T00:00:00Z</time>
				</trkpt>
				<trkpt lat="54.15284" lon="-1.15901">
					<ele>86</ele>
					<time>0001-01-01T00:00:00Z</time>
				</trkpt>
				<trkpt lat="54.15380" lon="-1.15911">
					<ele>87</ele>
					<time>0001-01-01T00:00:00Z</time>
				</trkpt>
				<trkpt lat="54.15474" lon="-1.15908">
					<ele>85</ele>
					<time>0001-01-01T00:00:00Z</time>
				</trkpt>
				<trkpt lat="54.15509" lon="-1.15939">
					<ele>85</ele>
					<time>0001-01-01T00:00:00Z</time>
				</trkpt>
				<trkpt lat="54.15530" lon="-1.15977">
					<ele>85</ele>
					<time>0001-01-01T00:00:00Z</time>
				</trkpt>
				<trkpt lat="54.15557" lon="-1.16075">
					<ele>86</ele>
					<time>0001-01-01T00:00:00Z</time>
				</trkpt>
				<trkpt lat="54.15602" lon="-1.16119">
					<ele>87</ele>
					<time>0001-01-01T00:00:00Z</time>
				</trkpt>
				<trkpt lat="54.15738" lon="-1.16173">
					<ele>86</ele>
					<time>0001-01-01T00:00:00Z</time>
				</trkpt>
				<trkpt lat="54.15831" lon="-1.16226">
					<ele>87</ele>
					<time>0001-01-01T00:00:00Z</time>
				</trkpt>
				<trkpt lat="54.15951" lon="-1.16276">
					<ele>90</ele>
					<time>0001-01-01T00:00:00Z</time>
				</trkpt>
				<trkpt lat="54.16020" lon="-1.16286">
					<ele>94</ele>
					<time>0001-01-01T00:00:00Z</time>
				</trkpt>
				<trkpt lat="54.16081" lon="-1.16299">
					<ele>103</ele>
					<time>0001-01-01T00:00:00Z</time>
				</trkpt>
				<trkpt lat="54.16125" lon="-1.16322">
					<ele>109</ele>
					<time>0001-01-01T00:00:00Z</time>
				</trkpt>
				<trkpt lat="54.16168" lon="-1.16350">
					<ele>113</ele>
					<time>0001-01-01T00:00:00Z</time>
				</trkpt>
				<trkpt lat="54.16214" lon="-1.16365">
					<ele>119</ele>
					<time>0001-01-01T00:00:00Z</time>
				</trkpt>
				<trkpt lat="54.16284" lon="-1.16341">
					<ele>125</ele>
					<time>0001-01-01T00:00:00Z</time>
				</trkpt>
				<trkpt lat="54.16312" lon="-1.16332">
					<ele>126</ele>
					<time>0001-01-01T00:00:00Z</time>
				</trkpt>
				<trkpt lat="54.16421" lon="-1.16351">
					<ele>132</ele>
					<time>0001-01-01T00:00:00Z</time>
				</trkpt>
				<trkpt lat="54.16497" lon="-1.16369">
					<ele>135</ele>
					<time>0001-01-01T00:00:00Z</time>
				</trkpt>
				<trkpt lat="54.16527" lon="-1.16343">
					<ele>135</ele>
					<time>0001-01-01T00:00:00Z</time>
				</trkpt>
				<trkpt lat="54.16573" lon="-1.16176">
					<ele>129</ele>
					<time>0001-01-01T00:00:00Z</time>
				</trkpt>
				<trkpt lat="54.16613" lon="-1.16071">
					<ele>127</ele>
					<time>0001-01-01T00:00:00Z</time>
				</trkpt>
				<trkpt lat="54.16645" lon="-1.16051">
					<ele>129</ele>
					<time>0001-01-01T00:00:00Z</time>
				</trkpt>
				<trkpt lat="54.16747" lon="-1.16091">
					<ele>135</ele>
					<time>0001-01-01T00:00:00Z</time>
				</trkpt>
				<trkpt lat="54.16835" lon="-1.16137">
					<ele>138</ele>
					<time>0001-01-01T00:00:00Z</time>
				</trkpt>
				<trkpt lat="54.16931" lon="-1.16184">
					<ele>140</ele>
					<time>0001-01-01T00:00:00Z</time>
				</trkpt>
				<trkpt lat="54.17057" lon="-1.16261">
					<ele>140</ele>
					<time>0001-01-01T00:00:00Z</time>
				</trkpt>
				<trkpt lat="54.17341" lon="-1.16482">
					<ele>137</ele>
					<time>0001-01-01T00:00:00Z</time>
				</trkpt>
				<trkpt lat="54.17415" lon="-1.16540">
					<ele>136</ele>
					<time>0001-01-01T00:00:00Z</time>
				</trkpt>
				<trkpt lat="54.17460" lon="-1.16579">
					<ele>135</ele>
					<time>0001-01-01T00:00:00Z</time>
				</trkpt>
				<trkpt lat="54.17686" lon="-1.16774">
					<ele>124</ele>
					<time>0001-01-01T00:00:00Z</time>
				</trkpt>
				<trkpt lat="54.17722" lon="-1.16805">
					<ele>121</ele>
					<time>0001-01-01T00:00:00Z</time>
				</trkpt>
				<trkpt lat="54.17752" lon="-1.16837">
					<ele>119</ele>
					<time>0001-01-01T00:00:00Z</time>
				</trkpt>
				<trkpt lat="54.17765" lon="-1.16950">
					<ele>112</ele>
					<time>0001-01-01T00:00:00Z</time>
				</trkpt>
				<trkpt lat="54.17787" lon="-1.17020">
					<ele>108</ele>
					<time>0001-01-01T00:00:00Z</time>
				</trkpt>
				<trkpt lat="54.18183" lon="-1.17283">
					<ele>91</ele>
					<time>0001-01-01T00:00:00Z</time>
				</trkpt>
				<trkpt lat="54.18357" lon="-1.17313">
					<ele>85</ele>
					<time>0001-01-01T00:00:00Z</time>
				</trkpt>
				<trkpt lat="54.18447" lon="-1.17334">
					<ele>84</ele>
					<time>0001-01-01T00:00:00Z</time>
				</trkpt>
				<trkpt lat="54.18482" lon="-1.17364">
					<ele>82</ele>
					<time>0001-01-01T00:00:00Z</time>
				</trkpt>
				<trkpt lat="54.18575" lon="-1.17514">
					<ele>81</ele>
					<time>0001-01-01T00:00:00Z</time>
				</trkpt>
				<trkpt lat="54.18659" lon="-1.17648">
					<ele>81</ele>
					<time>0001-01-01T00:00:00Z</time>
				</trkpt>
				<trkpt lat="54.18679" lon="-1.17682">
					<ele>80</ele>
					<time>0001-01-01T00:00:00Z</time>
				</trkpt>
				<trkpt lat="54.18716" lon="-1.17859">
					<ele>71</ele>
					<time>0001-01-01T00:00:00Z</time>
				</trkpt>
				<trkpt lat="54.18733" lon="-1.18104">
					<ele>70</ele>
					<time>0001-01-01T00:00:00Z</time>
				</trkpt>
				<trkpt lat="54.18762" lon="-1.18092">
					<ele>69</ele>
					<time>0001-01-01T00:00:00Z</time>
				</trkpt>
				<trkpt lat="54.18772" lon="-1.18085">
					<ele>68</ele>
					<time>0001-01-01T00:00:00Z</time>
				</trkpt>
				<trkpt lat="54.18835" lon="-1.18043">
					<ele>67</ele>
					<time>0001-01-01T00:00:00Z</time>
				</trkpt>
				<trkpt lat="54.18896" lon="-1.18017">
					<ele>66</ele>
					<time>0001-01-01T00:00:00Z</time>
				</trkpt>
				<trkpt lat="54.18894" lon="-1.17995">
					<ele>65</ele>
					<time>0001-01-01T00:00:00Z</time>
				</trkpt>
				<trkpt lat="54.18886" lon="-1.17977">
					<ele>65</ele>
					<time>0001-01-01T00:00:00Z</time>
				</trkpt>
				<trkpt lat="54.18878" lon="-1.17981">
					<ele>65</ele>
					<time>0001-01-01T00:00:00Z</time>
				</trkpt>
				<trkpt lat="54.18874" lon="-1.17982">
					<ele>65</ele>
					<time>0001-01-01T00:00:00Z</time>
				</trkpt>
				<trkpt lat="54.18872" lon="-1.17980">
					<ele>65</ele>
					<time>0001-01-01T00:00:00Z</time>
				</trkpt>
				<trkpt lat="54.18866" lon="-1.17988">
					<ele>65</ele>
					<time>0001-01-01T00:00:00Z</time>
				</trkpt>
				<trkpt lat="54.18867" lon="-1.18001">
					<ele>65</ele>
					<time>0001-01-01T00:00:00Z</time>
				</trkpt>
				<trkpt lat="54.18862" lon="-1.18001">
					<ele>61</ele>
					<time>0001-01-01T00:00:00Z</time>
				</trkpt>
				<trkpt lat="54.18869" lon="-1.17990">
					<ele>60</ele>
					<time>0001-01-01T00:00:00Z</time>
				</trkpt>
				<trkpt lat="54.18874" lon="-1.17989">
					<ele>59</ele>
					<time>0001-01-01T00:00:00Z</time>
				</trkpt>
				<trkpt lat="54.18873" lon="-1.17986">
					<ele>59</ele>
					<time>0001-01-01T00:00:00Z</time>
				</trkpt>
				<trkpt lat="54.18874" lon="-1.17989">
					<ele>61</ele>
					<time>0001-01-01T00:00:00Z</time>
				</trkpt>
				<trkpt lat="54.18879" lon="-1.18007">
					<ele>61</ele>
					<time>0001-01-01T00:00:00Z</time>
				</trkpt>
				<trkpt lat="54.18882" lon="-1.18004">
					<ele>61</ele>
					<time>0001-01-01T00:00:00Z</time>
				</trkpt>
				<trkpt lat="54.18879" lon="-1.17990">
					<ele>60</ele>
					<time>0001-01-01T00:00:00Z</time>
				</trkpt>
				<trkpt lat="54.18879" lon="-1.17988">
					<ele>60</ele>
					<time>0001-01-01T00:00:00Z</time>
				</trkpt>
				<trkpt lat="54.18891" lon="-1.18018">
					<ele>58</ele>
					<time>0001-01-01T00:00:00Z</time>
				</trkpt>
				<trkpt lat="54.18887" lon="-1.18026">
					<ele>58</ele>
					<time>0001-01-01T00:00:00Z</time>
				</trkpt>
				<trkpt lat="54.18817" lon="-1.18049">
					<ele>59</ele>
					<time>0001-01-01T00:00:00Z</time>
				</trkpt>
				<trkpt lat="54.18748" lon="-1.18095">
					<ele>58</ele>
					<time>0001-01-01T00:00:00Z</time>
				</trkpt>
				<trkpt lat="54.18738" lon="-1.18100">
					<ele>59</ele>
					<time>0001-01-01T00:00:00Z</time>
				</trkpt>
				<trkpt lat="54.18734" lon="-1.18133">
					<ele>61</ele>
					<time>0001-01-01T00:00:00Z</time>
				</trkpt>
				<trkpt lat="54.18749" lon="-1.18231">
					<ele>64</ele>
					<time>0001-01-01T00:00:00Z</time>
				</trkpt>
				<trkpt lat="54.18773" lon="-1.18349">
					<ele>66</ele>
					<time>0001-01-01T00:00:00Z</time>
				</trkpt>
				<trkpt lat="54.18804" lon="-1.18473">
					<ele>71</ele>
					<time>0001-01-01T00:00:00Z</time>
				</trkpt>
				<trkpt lat="54.18827" lon="-1.18618">
					<ele>77</ele>
					<time>0001-01-01T00:00:00Z</time>
				</trkpt>
				<trkpt lat="54.18875" lon="-1.18831">
					<ele>82</ele>
					<time>0001-01-01T00:00:00Z</time>
				</trkpt>
				<trkpt lat="54.18917" lon="-1.19008">
					<ele>85</ele>
					<time>0001-01-01T00:00:00Z</time>
				</trkpt>
				<trkpt lat="54.18951" lon="-1.19223">
					<ele>89</ele>
					<time>0001-01-01T00:00:00Z</time>
				</trkpt>
				<trkpt lat="54.18942" lon="-1.19379">
					<ele>88</ele>
					<time>0001-01-01T00:00:00Z</time>
				</trkpt>
				<trkpt lat="54.18934" lon="-1.19445">
					<ele>88</ele>
					<time>0001-01-01T00:00:00Z</time>
				</trkpt>
				<trkpt lat="54.18935" lon="-1.19676">
					<ele>73</ele>
					<time>0001-01-01T00:00:00Z</time>
				</trkpt>
				<trkpt lat="54.18919" lon="-1.20000">
					<ele>67</ele>
					<time>0001-01-01T00:00:00Z</time>
				</trkpt>
				<trkpt lat="54.18899" lon="-1.20347">
					<ele>65</ele>
					<time>0001-01-01T00:00:00Z</time>
				</trkpt>
				<trkpt lat="54.18888" lon="-1.20616">
					<ele>64</ele>
					<time>0001-01-01T00:00:00Z</time>
				</trkpt>
				<trkpt lat="54.18839" lon="-1.20940">
					<ele>60</ele>
					<time>0001-01-01T00:00:00Z</time>
				</trkpt>
				<trkpt lat="54.18834" lon="-1.20971">
					<ele>61</ele>
					<time>0001-01-01T00:00:00Z</time>
				</trkpt>
				<trkpt lat="54.18866" lon="-1.21140">
					<ele>61</ele>
					<time>0001-01-01T00:00:00Z</time>
				</trkpt>
				<trkpt lat="54.18940" lon="-1.21434">
					<ele>63</ele>
					<time>0001-01-01T00:00:00Z</time>
				</trkpt>
				<trkpt lat="54.18959" lon="-1.21603">
					<ele>63</ele>
					<time>0001-01-01T00:00:00Z</time>
				</trkpt>
				<trkpt lat="54.19014" lon="-1.21822">
					<ele>60</ele>
					<time>0001-01-01T00:00:00Z</time>
				</trkpt>
				<trkpt lat="54.19023" lon="-1.22056">
					<ele>58</ele>
					<time>0001-01-01T00:00:00Z</time>
				</trkpt>
				<trkpt lat="54.19058" lon="-1.22299">
					<ele>56</ele>
					<time>0001-01-01T00:00:00Z</time>
				</trkpt>
				<trkpt lat="54.19091" lon="-1.22610">
					<ele>54</ele>
					<time>0001-01-01T00:00:00Z</time>
				</trkpt>
				<trkpt lat="54.19110" lon="-1.22929">
					<ele>53</ele>
					<time>0001-01-01T00:00:00Z</time>
				</trkpt>
				<trkpt lat="54.19124" lon="-1.23153">
					<ele>52</ele>
					<time>0001-01-01T00:00:00Z</time>
				</trkpt>
				<trkpt lat="54.19116" lon="-1.23436">
					<ele>50</ele>
					<time>0001-01-01T00:00:00Z</time>
				</trkpt>
				<trkpt lat="54.19114" lon="-1.23813">
					<ele>44</ele>
					<time>0001-01-01T00:00:00Z</time>
				</trkpt>
				<trkpt lat="54.19111" lon="-1.24129">
					<ele>42</ele>
					<time>0001-01-01T00:00:00Z</time>
				</trkpt>
				<trkpt lat="54.19122" lon="-1.24219">
					<ele>41</ele>
					<time>0001-01-01T00:00:00Z</time>
				</trkpt>
				<trkpt lat="54.19119" lon="-1.24432">
					<ele>42</ele>
					<time>0001-01-01T00:00:00Z</time>
				</trkpt>
				<trkpt lat="54.19115" lon="-1.24460">
					<ele>41</ele>
					<time>0001-01-01T00:00:00Z</time>
				</trkpt>
				<trkpt lat="54.19035" lon="-1.24715">
					<ele>42</ele>
					<time>0001-01-01T00:00:00Z</time>
				</trkpt>
				<trkpt lat="54.19021" lon="-1.24770">
					<ele>41</ele>
					<time>0001-01-01T00:00:00Z</time>
				</trkpt>
				<trkpt lat="54.19030" lon="-1.24866">
					<ele>40</ele>
					<time>0001-01-01T00:00:00Z</time>
				</trkpt>
				<trkpt lat="54.19074" lon="-1.25074">
					<ele>39</ele>
					<time>0001-01-01T00:00:00Z</time>
				</trkpt>
				<trkpt lat="54.19076" lon="-1.25136">
					<ele>38</ele>
					<time>0001-01-01T00:00:00Z</time>
				</trkpt>
				<trkpt lat="54.19099" lon="-1.25364">
					<ele>38</ele>
					<time>0001-01-01T00:00:00Z</time>
				</trkpt>
				<trkpt lat="54.19181" lon="-1.25580">
					<ele>42</ele>
					<time>0001-01-01T00:00:00Z</time>
				</trkpt>
				<trkpt lat="54.19217" lon="-1.25774">
					<ele>44</ele>
					<time>0001-01-01T00:00:00Z</time>
				</trkpt>
				<trkpt lat="54.19260" lon="-1.26029">
					<ele>45</ele>
					<time>0001-01-01T00:00:00Z</time>
				</trkpt>
				<trkpt lat="54.19319" lon="-1.26244">
					<ele>50</ele>
					<time>0001-01-01T00:00:00Z</time>
				</trkpt>
				<trkpt lat="54.19355" lon="-1.26340">
					<ele>52</ele>
					<time>0001-01-01T00:00:00Z</time>
				</trkpt>
				<trkpt lat="54.19394" lon="-1.26434">
					<ele>53</ele>
					<time>0001-01-01T00:00:00Z</time>
				</trkpt>
				<trkpt lat="54.19419" lon="-1.26543">
					<ele>53</ele>
					<time>0001-01-01T00:00:00Z</time>
				</trkpt>
				<trkpt lat="54.19436" lon="-1.26586">
					<ele>52</ele>
					<time>0001-01-01T00:00:00Z</time>
				</trkpt>
				<trkpt lat="54.19519" lon="-1.26730">
					<ele>50</ele>
					<time>0001-01-01T00:00:00Z</time>
				</trkpt>
				<trkpt lat="54.19532" lon="-1.26769">
					<ele>50</ele>
					<time>0001-01-01T00:00:00Z</time>
				</trkpt>
				<trkpt lat="54.19580" lon="-1.26948">
					<ele>44</ele>
					<time>0001-01-01T00:00:00Z</time>
				</trkpt>
				<trkpt lat="54.19670" lon="-1.27082">
					<ele>40</ele>
					<time>0001-01-01T00:00:00Z</time>
				</trkpt>
				<trkpt lat="54.19768" lon="-1.27187">
					<ele>39</ele>
					<time>0001-01-01T00:00:00Z</time>
				</trkpt>
				<trkpt lat="54.19861" lon="-1.27295">
					<ele>40</ele>
					<time>0001-01-01T00:00:00Z</time>
				</trkpt>
				<trkpt lat="54.19877" lon="-1.27368">
					<ele>40</ele>
					<time>0001-01-01T00:00:00Z</time>
				</trkpt>
				<trkpt lat="54.19899" lon="-1.27603">
					<ele>39</ele>
					<time>0001-01-01T00:00:00Z</time>
				</trkpt>
				<trkpt lat="54.19956" lon="-1.27874">
					<ele>38</ele>
					<time>0001-01-01T00:00:00Z</time>
				</trkpt>
				<trkpt lat="54.20032" lon="-1.28066">
					<ele>39</ele>
					<time>0001-01-01T00:00:00Z</time>
				</trkpt>
				<trkpt lat="54.20107" lon="-1.28370">
					<ele>38</ele>
					<time>0001-01-01T00:00:00Z</time>
				</trkpt>
				<trkpt lat="54.20197" lon="-1.28626">
					<ele>39</ele>
					<time>0001-01-01T00:00:00Z</time>
				</trkpt>
				<trkpt lat="54.20304" lon="-1.28852">
					<ele>38</ele>
					<time>0001-01-01T00:00:00Z</time>
				</trkpt>
				<trkpt lat="54.20319" lon="-1.29066">
					<ele>36</ele>
					<time>0001-01-01T00:00:00Z</time>
				</trkpt>
				<trkpt lat="54.20313" lon="-1.29103">
					<ele>36</ele>
					<time>0001-01-01T00:00:00Z</time>
				</trkpt>
				<trkpt lat="54.20299" lon="-1.29132">
					<ele>37</ele>
					<time>0001-01-01T00:00:00Z</time>
				</trkpt>
				<trkpt lat="54.20371" lon="-1.29253">
					<ele>38</ele>
					<time>0001-01-01T00:00:00Z</time>
				</trkpt>
				<trkpt lat="54.20475" lon="-1.29479">
					<ele>37</ele>
					<time>0001-01-01T00:00:00Z</time>
				</trkpt>
				<trkpt lat="54.20618" lon="-1.29741">
					<ele>36</ele>
					<time>0001-01-01T00:00:00Z</time>
				</trkpt>
				<trkpt lat="54.20798" lon="-1.29971">
					<ele>34</ele>
					<time>0001-01-01T00:00:00Z</time>
				</trkpt>
				<trkpt lat="54.20850" lon="-1.30036">
					<ele>34</ele>
					<time>0001-01-01T00:00:00Z</time>
				</trkpt>
				<trkpt lat="54.20847" lon="-1.30112">
					<ele>33</ele>
					<time>0001-01-01T00:00:00Z</time>
				</trkpt>
				<trkpt lat="54.20750" lon="-1.30358">
					<ele>32</ele>
					<time>0001-01-01T00:00:00Z</time>
				</trkpt>
				<trkpt lat="54.20645" lon="-1.30620">
					<ele>32</ele>
					<time>0001-01-01T00:00:00Z</time>
				</trkpt>
				<trkpt lat="54.20523" lon="-1.30928">
					<ele>32</ele>
					<time>0001-01-01T00:00:00Z</time>
				</trkpt>
				<trkpt lat="54.20447" lon="-1.31123">
					<ele>32</ele>
					<time>0001-01-01T00:00:00Z</time>
				</trkpt>
				<trkpt lat="54.20466" lon="-1.31140">
					<ele>32</ele>
					<time>0001-01-01T00:00:00Z</time>
				</trkpt>
				<trkpt lat="54.20595" lon="-1.31175">
					<ele>32</ele>
					<time>0001-01-01T00:00:00Z</time>
				</trkpt>
				<trkpt lat="54.20675" lon="-1.31194">
					<ele>31</ele>
					<time>0001-01-01T00:00:00Z</time>
				</trkpt>
				<trkpt lat="54.20708" lon="-1.31240">
					<ele>31</ele>
					<time>0001-01-01T00:00:00Z</time>
				</trkpt>
				<trkpt lat="54.20794" lon="-1.31487">
					<ele>30</ele>
					<time>0001-01-01T00:00:00Z</time>
				</trkpt>
				<trkpt lat="54.20886" lon="-1.31731">
					<ele>29</ele>
					<time>0001-01-01T00:00:00Z</time>
				</trkpt>
				<trkpt lat="54.20972" lon="-1.32054">
					<ele>29</ele>
					<time>0001-01-01T00:00:00Z</time>
				</trkpt>
				<trkpt lat="54.21033" lon="-1.32274">
					<ele>29</ele>
					<time>0001-01-01T00:00:00Z</time>
				</trkpt>
				<trkpt lat="54.21174" lon="-1.32435">
					<ele>31</ele>
					<time>0001-01-01T00:00:00Z</time>
				</trkpt>
				<trkpt lat="54.21310" lon="-1.32619">
					<ele>31</ele>
					<time>0001-01-01T00:00:00Z</time>
				</trkpt>
				<trkpt lat="54.21334" lon="-1.32660">
					<ele>31</ele>
					<time>0001-01-01T00:00:00Z</time>
				</trkpt>
				<trkpt lat="54.21365" lon="-1.32733">
					<ele>32</ele>
					<time>0001-01-01T00:00:00Z</time>
				</trkpt>
				<trkpt lat="54.21403" lon="-1.32774">
					<ele>32</ele>
					<time>0001-01-01T00:00:00Z</time>
				</trkpt>
				<trkpt lat="54.21561" lon="-1.32880">
					<ele>32</ele>
					<time>0001-01-01T00:00:00Z</time>
				</trkpt>
				<trkpt lat="54.21721" lon="-1.32957">
					<ele>31</ele>
					<time>0001-01-01T00:00:00Z</time>
				</trkpt>
				<trkpt lat="54.21821" lon="-1.32971">
					<ele>31</ele>
					<time>0001-01-01T00:00:00Z</time>
				</trkpt>
				<trkpt lat="54.21855" lon="-1.32995">
					<ele>29</ele>
					<time>0001-01-01T00:00:00Z</time>
				</trkpt>
				<trkpt lat="54.21903" lon="-1.33050">
					<ele>28</ele>
					<time>0001-01-01T00:00:00Z</time>
				</trkpt>
				<trkpt lat="54.21926" lon="-1.33103">
					<ele>28</ele>
					<time>0001-01-01T00:00:00Z</time>
				</trkpt>
				<trkpt lat="54.21984" lon="-1.33267">
					<ele>27</ele>
					<time>0001-01-01T00:00:00Z</time>
				</trkpt>
				<trkpt lat="54.22086" lon="-1.33500">
					<ele>28</ele>
					<time>0001-01-01T00:00:00Z</time>
				</trkpt>
				<trkpt lat="54.22170" lon="-1.33678">
					<ele>31</ele>
					<time>0001-01-01T00:00:00Z</time>
				</trkpt>
				<trkpt lat="54.22231" lon="-1.33731">
					<ele>33</ele>
					<time>0001-01-01T00:00:00Z</time>
				</trkpt>
				<trkpt lat="54.22386" lon="-1.33852">
					<ele>34</ele>
					<time>0001-01-01T00:00:00Z</time>
				</trkpt>
				<trkpt lat="54.22536" lon="-1.33988">
					<ele>33</ele>
					<time>0001-01-01T00:00:00Z</time>
				</trkpt>
				<trkpt lat="54.22695" lon="-1.34121">
					<ele>34</ele>
					<time>0001-01-01T00:00:00Z</time>
				</trkpt>
				<trkpt lat="54.22826" lon="-1.34221">
					<ele>35</ele>
					<time>0001-01-01T00:00:00Z</time>
				</trkpt>
				<trkpt lat="54.22951" lon="-1.34370">
					<ele>34</ele>
					<time>0001-01-01T00:00:00Z</time>
				</trkpt>
				<trkpt lat="54.23051" lon="-1.34533">
					<ele>34</ele>
					<time>0001-01-01T00:00:00Z</time>
				</trkpt>
				<trkpt lat="54.23060" lon="-1.34557">
					<ele>35</ele>
					<time>0001-01-01T00:00:00Z</time>
				</trkpt>
				<trkpt lat="54.23083" lon="-1.34574">
					<ele>35</ele>
					<time>0001-01-01T00:00:00Z</time>
				</trkpt>
				<trkpt lat="54.23139" lon="-1.34658">
					<ele>34</ele>
					<time>0001-01-01T00:00:00Z</time>
				</trkpt>
				<trkpt lat="54.23144" lon="-1.34733">
					<ele>34</ele>
					<time>0001-01-01T00:00:00Z</time>
				</trkpt>
				<trkpt lat="54.23141" lon="-1.34763">
					<ele>34</ele>
					<time>0001-01-01T00:00:00Z</time>
				</trkpt>
				<trkpt lat="54.23148" lon="-1.34750">
					<ele>34</ele>
					<time>0001-01-01T00:00:00Z</time>
				</trkpt>
				<trkpt lat="54.23151" lon="-1.34715">
					<ele>35</ele>
					<time>0001-01-01T00:00:00Z</time>
				</trkpt>
				<trkpt lat="54.23180" lon="-1.34722">
					<ele>34</ele>
					<time>0001-01-01T00:00:00Z</time>
				</trkpt>
				<trkpt lat="54.23184" lon="-1.34730">
					<ele>34</ele>
					<time>0001-01-01T00:00:00Z</time>
				</trkpt>
				<trkpt lat="54.23285" lon="-1.34931">
					<ele>36</ele>
					<time>0001-01-01T00:00:00Z</time>
				</trkpt>
				<trkpt lat="54.23397" lon="-1.35171">
					<ele>38</ele>
					<time>0001-01-01T00:00:00Z</time>
				</trkpt>
				<trkpt lat="54.23488" lon="-1.35376">
					<ele>39</ele>
					<time>0001-01-01T00:00:00Z</time>
				</trkpt>
				<trkpt lat="54.23590" lon="-1.35653">
					<ele>36</ele>
					<time>0001-01-01T00:00:00Z</time>
				</trkpt>
				<trkpt lat="54.23679" lon="-1.35898">
					<ele>36</ele>
					<time>0001-01-01T00:00:00Z</time>
				</trkpt>
				<trkpt lat="54.23781" lon="-1.36132">
					<ele>36</ele>
					<time>0001-01-01T00:00:00Z</time>
				</trkpt>
				<trkpt lat="54.23866" lon="-1.36339">
					<ele>36</ele>
					<time>0001-01-01T00:00:00Z</time>
				</trkpt>
				<trkpt lat="54.23967" lon="-1.36610">
					<ele>34</ele>
					<time>0001-01-01T00:00:00Z</time>
				</trkpt>
				<trkpt lat="54.24069" lon="-1.36802">
					<ele>33</ele>
					<time>0001-01-01T00:00:00Z</time>
				</trkpt>
				<trkpt lat="54.24185" lon="-1.37024">
					<ele>33</ele>
					<time>0001-01-01T00:00:00Z</time>
				</trkpt>
				<trkpt lat="54.24281" lon="-1.37199">
					<ele>37</ele>
					<time>0001-01-01T00:00:00Z</time>
				</trkpt>
				<trkpt lat="54.24395" lon="-1.37391">
					<ele>37</ele>
					<time>0001-01-01T00:00:00Z</time>
				</trkpt>
				<trkpt lat="54.24475" lon="-1.37607">
					<ele>36</ele>
					<time>0001-01-01T00:00:00Z</time>
				</trkpt>
				<trkpt lat="54.24543" lon="-1.37809">
					<ele>34</ele>
					<time>0001-01-01T00:00:00Z</time>
				</trkpt>
				<trkpt lat="54.24617" lon="-1.37994">
					<ele>35</ele>
					<time>0001-01-01T00:00:00Z</time>
				</trkpt>
				<trkpt lat="54.24697" lon="-1.38192">
					<ele>36</ele>
					<time>0001-01-01T00:00:00Z</time>
				</trkpt>
				<trkpt lat="54.24815" lon="-1.38393">
					<ele>38</ele>
					<time>0001-01-01T00:00:00Z</time>
				</trkpt>
				<trkpt lat="54.24908" lon="-1.38565">
					<ele>37</ele>
					<time>0001-01-01T00:00:00Z</time>
				</trkpt>
				<trkpt lat="54.24961" lon="-1.38769">
					<ele>34</ele>
					<time>0001-01-01T00:00:00Z</time>
				</trkpt>
				<trkpt lat="54.25012" lon="-1.39011">
					<ele>33</ele>
					<time>0001-01-01T00:00:00Z</time>
				</trkpt>
				<trkpt lat="54.25039" lon="-1.39053">
					<ele>33</ele>
					<time>0001-01-01T00:00:00Z</time>
				</trkpt>
				<trkpt lat="54.25196" lon="-1.39226">
					<ele>33</ele>
					<time>0001-01-01T00:00:00Z</time>
				</trkpt>
				<trkpt lat="54.25335" lon="-1.39446">
					<ele>30</ele>
					<time>0001-01-01T00:00:00Z</time>
				</trkpt>
				<trkpt lat="54.25341" lon="-1.39458">
					<ele>30</ele>
					<time>0001-01-01T00:00:00Z</time>
				</trkpt>
				<trkpt lat="54.25356" lon="-1.39515">
					<ele>29</ele>
					<time>0001-01-01T00:00:00Z</time>
				</trkpt>
				<trkpt lat="54.25364" lon="-1.39560">
					<ele>28</ele>
					<time>0001-01-01T00:00:00Z</time>
				</trkpt>
				<trkpt lat="54.25462" lon="-1.39792">
					<ele>30</ele>
					<time>0001-01-01T00:00:00Z</time>
				</trkpt>
				<trkpt lat="54.25477" lon="-1.39959">
					<ele>30</ele>
					<time>0001-01-01T00:00:00Z</time>
				</trkpt>
				<trkpt lat="54.25479" lon="-1.40119">
					<ele>35</ele>
					<time>0001-01-01T00:00:00Z</time>
				</trkpt>
				<trkpt lat="54.25480" lon="-1.40231">
					<ele>34</ele>
					<time>0001-01-01T00:00:00Z</time>
				</trkpt>
				<trkpt lat="54.25437" lon="-1.40468">
					<ele>35</ele>
					<time>0001-01-01T00:00:00Z</time>
				</trkpt>
				<trkpt lat="54.25366" lon="-1.40725">
					<ele>31</ele>
					<time>0001-01-01T00:00:00Z</time>
				</trkpt>
				<trkpt lat="54.25290" lon="-1.40985">
					<ele>31</ele>
					<time>0001-01-01T00:00:00Z</time>
				</trkpt>
				<trkpt lat="54.25232" lon="-1.41245">
					<ele>30</ele>
					<time>0001-01-01T00:00:00Z</time>
				</trkpt>
				<trkpt lat="54.25231" lon="-1.41353">
					<ele>29</ele>
					<time>0001-01-01T00:00:00Z</time>
				</trkpt>
				<trkpt lat="54.25174" lon="-1.41486">
					<ele>29</ele>
					<time>0001-01-01T00:00:00Z</time>
				</trkpt>
				<trkpt lat="54.25170" lon="-1.41497">
					<ele>29</ele>
					<time>0001-01-01T00:00:00Z</time>
				</trkpt>
				<trkpt lat="54.25185" lon="-1.41518">
					<ele>29</ele>
					<time>0001-01-01T00:00:00Z</time>
				</trkpt>
				<trkpt lat="54.25300" lon="-1.41571">
					<ele>32</ele>
					<time>0001-01-01T00:00:00Z</time>
				</trkpt>
				<trkpt lat="54.25444" lon="-1.41650">
					<ele>29</ele>
					<time>0001-01-01T00:00:00Z</time>
				</trkpt>
				<trkpt lat="54.25603" lon="-1.41722">
					<ele>27</ele>
					<time>0001-01-01T00:00:00Z</time>
				</trkpt>
				<trkpt lat="54.25713" lon="-1.41878">
					<ele>28</ele>
					<time>0001-01-01T00:00:00Z</time>
				</trkpt>
				<trkpt lat="54.25730" lon="-1.41914">
					<ele>29</ele>
					<time>0001-01-01T00:00:00Z</time>
				</trkpt>
				<trkpt lat="54.25759" lon="-1.41939">
					<ele>29</ele>
					<time>0001-01-01T00:00:00Z</time>
				</trkpt>
				<trkpt lat="54.25871" lon="-1.41937">
					<ele>31</ele>
					<time>0001-01-01T00:00:00Z</time>
				</trkpt>
				<trkpt lat="54.26015" lon="-1.41912">
					<ele>28</ele>
					<time>0001-01-01T00:00:00Z</time>
				</trkpt>
				<trkpt lat="54.26167" lon="-1.41952">
					<ele>28</ele>
					<time>0001-01-01T00:00:00Z</time>
				</trkpt>
				<trkpt lat="54.26392" lon="-1.41932">
					<ele>29</ele>
					<time>0001-01-01T00:00:00Z</time>
				</trkpt>
				<trkpt lat="54.26509" lon="-1.41888">
					<ele>28</ele>
					<time>0001-01-01T00:00:00Z</time>
				</trkpt>
				<trkpt lat="54.26686" lon="-1.41757">
					<ele>26</ele>
					<time>0001-01-01T00:00:00Z</time>
				</trkpt>
				<trkpt lat="54.26801" lon="-1.41777">
					<ele>26</ele>
					<time>0001-01-01T00:00:00Z</time>
				</trkpt>
				<trkpt lat="54.26944" lon="-1.41833">
					<ele>28</ele>
					<time>0001-01-01T00:00:00Z</time>
				</trkpt>
				<trkpt lat="54.27053" lon="-1.41865">
					<ele>31</ele>
					<time>0001-01-01T00:00:00Z</time>
				</trkpt>
				<trkpt lat="54.27201" lon="-1.41817">
					<ele>32</ele>
					<time>0001-01-01T00:00:00Z</time>
				</trkpt>
				<trkpt lat="54.27356" lon="-1.41877">
					<ele>35</ele>
					<time>0001-01-01T00:00:00Z</time>
				</trkpt>
				<trkpt lat="54.27501" lon="-1.41978">
					<ele>36</ele>
					<time>0001-01-01T00:00:00Z</time>
				</trkpt>
				<trkpt lat="54.27701" lon="-1.42097">
					<ele>36</ele>
					<time>0001-01-01T00:00:00Z</time>
				</trkpt>
				<trkpt lat="54.27860" lon="-1.42237">
					<ele>34</ele>
					<time>0001-01-01T00:00:00Z</time>
				</trkpt>
				<trkpt lat="54.27965" lon="-1.42404">
					<ele>32</ele>
					<time>0001-01-01T00:00:00Z</time>
				</trkpt>
				<trkpt lat="54.28075" lon="-1.42529">
					<ele>30</ele>
					<time>0001-01-01T00:00:00Z</time>
				</trkpt>
				<trkpt lat="54.28218" lon="-1.42699">
					<ele>28</ele>
					<time>0001-01-01T00:00:00Z</time>
				</trkpt>
				<trkpt lat="54.28231" lon="-1.42756">
					<ele>28</ele>
					<time>0001-01-01T00:00:00Z</time>
				</trkpt>
				<trkpt lat="54.28184" lon="-1.43091">
					<ele>28</ele>
					<time>0001-01-01T00:00:00Z</time>
				</trkpt>
				<trkpt lat="54.28201" lon="-1.43243">
					<ele>25</ele>
					<time>0001-01-01T00:00:00Z</time>
				</trkpt>
				<trkpt lat="54.28211" lon="-1.43391">
					<ele>25</ele>
					<time>0001-01-01T00:00:00Z</time>
				</trkpt>
				<trkpt lat="54.28211" lon="-1.43405">
					<ele>25</ele>
					<time>0001-01-01T00:00:00Z</time>
				</trkpt>
				<trkpt lat="54.28192" lon="-1.43553">
					<ele>30</ele>
					<time>0001-01-01T00:00:00Z</time>
				</trkpt>
				<trkpt lat="54.28211" lon="-1.43593">
					<ele>31</ele>
					<time>0001-01-01T00:00:00Z</time>
				</trkpt>
				<trkpt lat="54.28361" lon="-1.43696">
					<ele>31</ele>
					<time>0001-01-01T00:00:00Z</time>
				</trkpt>
				<trkpt lat="54.28517" lon="-1.43812">
					<ele>28</ele>
					<time>0001-01-01T00:00:00Z</time>
				</trkpt>
				<trkpt lat="54.28643" lon="-1.43903">
					<ele>31</ele>
					<time>0001-01-01T00:00:00Z</time>
				</trkpt>
				<trkpt lat="54.28784" lon="-1.44045">
					<ele>31</ele>
					<time>0001-01-01T00:00:00Z</time>
				</trkpt>
				<trkpt lat="54.28903" lon="-1.44196">
					<ele>33</ele>
					<time>0001-01-01T00:00:00Z</time>
				</trkpt>
				<trkpt lat="54.29021" lon="-1.44346">
					<ele>30</ele>
					<time>0001-01-01T00:00:00Z</time>
				</trkpt>
				<trkpt lat="54.29102" lon="-1.44383">
					<ele>26</ele>
					<time>0001-01-01T00:00:00Z</time>
				</trkpt>
				<trkpt lat="54.29133" lon="-1.44419">
					<ele>27</ele>
					<time>0001-01-01T00:00:00Z</time>
				</trkpt>
				<trkpt lat="54.29228" lon="-1.44635">
					<ele>28</ele>
					<time>0001-01-01T00:00:00Z</time>
				</trkpt>
				<trkpt lat="54.29421" lon="-1.44962">
					<ele>31</ele>
					<time>0001-01-01T00:00:00Z</time>
				</trkpt>
				<trkpt lat="54.29532" lon="-1.45064">
					<ele>36</ele>
					<time>0001-01-01T00:00:00Z</time>
				</trkpt>
				<trkpt lat="54.29666" lon="-1.45185">
					<ele>39</ele>
					<time>0001-01-01T00:00:00Z</time>
				</trkpt>
				<trkpt lat="54.29831" lon="-1.45292">
					<ele>40</ele>
					<time>0001-01-01T00:00:00Z</time>
				</trkpt>
				<trkpt lat="54.29983" lon="-1.45348">
					<ele>38</ele>
					<time>0001-01-01T00:00:00Z</time>
				</trkpt>
				<trkpt lat="54.30131" lon="-1.45396">
					<ele>34</ele>
					<time>0001-01-01T00:00:00Z</time>
				</trkpt>
				<trkpt lat="54.30276" lon="-1.45504">
					<ele>33</ele>
					<time>0001-01-01T00:00:00Z</time>
				</trkpt>
				<trkpt lat="54.30403" lon="-1.45614">
					<ele>37</ele>
					<time>0001-01-01T00:00:00Z</time>
				</trkpt>
				<trkpt lat="54.30545" lon="-1.45719">
					<ele>40</ele>
					<time>0001-01-01T00:00:00Z</time>
				</trkpt>
				<trkpt lat="54.30717" lon="-1.45799">
					<ele>38</ele>
					<time>0001-01-01T00:00:00Z</time>
				</trkpt>
				<trkpt lat="54.30839" lon="-1.45817">
					<ele>35</ele>
					<time>0001-01-01T00:00:00Z</time>
				</trkpt>
				<trkpt lat="54.30889" lon="-1.45839">
					<ele>34</ele>
					<time>0001-01-01T00:00:00Z</time>
				</trkpt>
				<trkpt lat="54.31022" lon="-1.45945">
					<ele>34</ele>
					<time>0001-01-01T00:00:00Z</time>
				</trkpt>
				<trkpt lat="54.31159" lon="-1.46047">
					<ele>38</ele>
					<time>0001-01-01T00:00:00Z</time>
				</trkpt>
				<trkpt lat="54.31318" lon="-1.46147">
					<ele>39</ele>
					<time>0001-01-01T00:00:00Z</time>
				</trkpt>
				<trkpt lat="54.31807" lon="-1.46475">
					<ele>40</ele>
					<time>0001-01-01T00:00:00Z</time>
				</trkpt>
				<trkpt lat="54.31971" lon="-1.46461">
					<ele>33</ele>
					<time>0001-01-01T00:00:00Z</time>
				</trkpt>
				<trkpt lat="54.32031" lon="-1.46474">
					<ele>32</ele>
					<time>0001-01-01T00:00:00Z</time>
				</trkpt>
				<trkpt lat="54.32182" lon="-1.46556">
					<ele>34</ele>
					<time>0001-01-01T00:00:00Z</time>
				</trkpt>
				<trkpt lat="54.32266" lon="-1.46585">
					<ele>38</ele>
					<time>0001-01-01T00:00:00Z</time>
				</trkpt>
				<trkpt lat="54.32334" lon="-1.46571">
					<ele>39</ele>
					<time>0001-01-01T00:00:00Z</time>
				</trkpt>
				<trkpt lat="54.32338" lon="-1.46571">
					<ele>39</ele>
					<time>0001-01-01T00:00:00Z</time>
				</trkpt>
				<trkpt lat="54.32372" lon="-1.46569">
					<ele>39</ele>
					<time>0001-01-01T00:00:00Z</time>
				</trkpt>
				<trkpt lat="54.32512" lon="-1.46651">
					<ele>41</ele>
					<time>0001-01-01T00:00:00Z</time>
				</trkpt>
				<trkpt lat="54.32623" lon="-1.46718">
					<ele>45</ele>
					<time>0001-01-01T00:00:00Z</time>
				</trkpt>
				<trkpt lat="54.32710" lon="-1.46800">
					<ele>37</ele>
					<time>0001-01-01T00:00:00Z</time>
				</trkpt>
				<trkpt lat="54.32845" lon="-1.46915">
					<ele>34</ele>
					<time>0001-01-01T00:00:00Z</time>
				</trkpt>
				<trkpt lat="54.32960" lon="-1.46961">
					<ele>33</ele>
					<time>0001-01-01T00:00:00Z</time>
				</trkpt>
				<trkpt lat="54.33067" lon="-1.47034">
					<ele>36</ele>
					<time>0001-01-01T00:00:00Z</time>
				</trkpt>
				<trkpt lat="54.33214" lon="-1.47164">
					<ele>38</ele>
					<time>0001-01-01T00:00:00Z</time>
				</trkpt>
				<trkpt lat="54.33360" lon="-1.47239">
					<ele>41</ele>
					<time>0001-01-01T00:00:00Z</time>
				</trkpt>
				<trkpt lat="54.33384" lon="-1.47257">
					<ele>42</ele>
					<time>0001-01-01T00:00:00Z</time>
				</trkpt>
				<trkpt lat="54.33508" lon="-1.47352">
					<ele>46</ele>
					<time>0001-01-01T00:00:00Z</time>
				</trkpt>
				<trkpt lat="54.33645" lon="-1.47378">
					<ele>47</ele>
					<time>0001-01-01T00:00:00Z</time>
				</trkpt>
				<trkpt lat="54.33803" lon="-1.47454">
					<ele>43</ele>
					<time>0001-01-01T00:00:00Z</time>
				</trkpt>
				<trkpt lat="54.33935" lon="-1.47474">
					<ele>40</ele>
					<time>0001-01-01T00:00:00Z</time>
				</trkpt>
				<trkpt lat="54.34108" lon="-1.47513">
					<ele>38</ele>
					<time>0001-01-01T00:00:00Z</time>
				</trkpt>
				<trkpt lat="54.34230" lon="-1.47435">
					<ele>37</ele>
					<time>0001-01-01T00:00:00Z</time>
				</trkpt>
				<trkpt lat="54.34360" lon="-1.47374">
					<ele>35</ele>
					<time>0001-01-01T00:00:00Z</time>
				</trkpt>
				<trkpt lat="54.34502" lon="-1.47385">
					<ele>39</ele>
					<time>0001-01-01T00:00:00Z</time>
				</trkpt>
				<trkpt lat="54.34508" lon="-1.47387">
					<ele>40</ele>
					<time>0001-01-01T00:00:00Z</time>
				</trkpt>
				<trkpt lat="54.34563" lon="-1.47369">
					<ele>39</ele>
					<time>0001-01-01T00:00:00Z</time>
				</trkpt>
				<trkpt lat="54.34606" lon="-1.47409">
					<ele>38</ele>
					<time>0001-01-01T00:00:00Z</time>
				</trkpt>
				<trkpt lat="54.34609" lon="-1.47459">
					<ele>40</ele>
					<time>0001-01-01T00:00:00Z</time>
				</trkpt>
				<trkpt lat="54.34606" lon="-1.47498">
					<ele>41</ele>
					<time>0001-01-01T00:00:00Z</time>
				</trkpt>
				<trkpt lat="54.34562" lon="-1.47700">
					<ele>45</ele>
					<time>0001-01-01T00:00:00Z</time>
				</trkpt>
				<trkpt lat="54.34561" lon="-1.47737">
					<ele>46</ele>
					<time>0001-01-01T00:00:00Z</time>
				</trkpt>
				<trkpt lat="54.34565" lon="-1.47774">
					<ele>47</ele>
					<time>0001-01-01T00:00:00Z</time>
				</trkpt>
				<trkpt lat="54.34575" lon="-1.47819">
					<ele>46</ele>
					<time>0001-01-01T00:00:00Z</time>
				</trkpt>
				<trkpt lat="54.34665" lon="-1.47961">
					<ele>46</ele>
					<time>0001-01-01T00:00:00Z</time>
				</trkpt>
				<trkpt lat="54.34819" lon="-1.48156">
					<ele>46</ele>
					<time>0001-01-01T00:00:00Z</time>
				</trkpt>
				<trkpt lat="54.34964" lon="-1.48254">
					<ele>47</ele>
					<time>0001-01-01T00:00:00Z</time>
				</trkpt>
				<trkpt lat="54.35010" lon="-1.48286">
					<ele>48</ele>
					<time>0001-01-01T00:00:00Z</time>
				</trkpt>
				<trkpt lat="54.35069" lon="-1.48382">
					<ele>52</ele>
					<time>0001-01-01T00:00:00Z</time>
				</trkpt>
				<trkpt lat="54.35168" lon="-1.48518">
					<ele>53</ele>
					<time>0001-01-01T00:00:00Z</time>
				</trkpt>
				<trkpt lat="54.35277" lon="-1.48687">
					<ele>57</ele>
					<time>0001-01-01T00:00:00Z</time>
				</trkpt>
				<trkpt lat="54.35361" lon="-1.48852">
					<ele>59</ele>
					<time>0001-01-01T00:00:00Z</time>
				</trkpt>
				<trkpt lat="54.35474" lon="-1.49072">
					<ele>59</ele>
					<time>0001-01-01T00:00:00Z</time>
				</trkpt>
				<trkpt lat="54.35586" lon="-1.49294">
					<ele>55</ele>
					<time>0001-01-01T00:00:00Z</time>
				</trkpt>
				<trkpt lat="54.35687" lon="-1.49497">
					<ele>54</ele>
					<time>0001-01-01T00:00:00Z</time>
				</trkpt>
				<trkpt lat="54.35809" lon="-1.49740">
					<ele>53</ele>
					<time>0001-01-01T00:00:00Z</time>
				</trkpt>
				<trkpt lat="54.35917" lon="-1.49967">
					<ele>54</ele>
					<time>0001-01-01T00:00:00Z</time>
				</trkpt>
				<trkpt lat="54.35971" lon="-1.50156">
					<ele>51</ele>
					<time>0001-01-01T00:00:00Z</time>
				</trkpt>
				<trkpt lat="54.36048" lon="-1.50452">
					<ele>46</ele>
					<time>0001-01-01T00:00:00Z</time>
				</trkpt>
				<trkpt lat="54.36119" lon="-1.50673">
					<ele>41</ele>
					<time>0001-01-01T00:00:00Z</time>
				</trkpt>
				<trkpt lat="54.36227" lon="-1.50819">
					<ele>35</ele>
					<time>0001-01-01T00:00:00Z</time>
				</trkpt>
				<trkpt lat="54.36275" lon="-1.50856">
					<ele>35</ele>
					<time>0001-01-01T00:00:00Z</time>
				</trkpt>
				<trkpt lat="54.36307" lon="-1.50912">
					<ele>37</ele>
					<time>0001-01-01T00:00:00Z</time>
				</trkpt>
				<trkpt lat="54.36374" lon="-1.51055">
					<ele>39</ele>
					<time>0001-01-01T00:00:00Z</time>
				</trkpt>
				<trkpt lat="54.36418" lon="-1.51196">
					<ele>43</ele>
					<time>0001-01-01T00:00:00Z</time>
				</trkpt>
				<trkpt lat="54.36451" lon="-1.51311">
					<ele>46</ele>
					<time>0001-01-01T00:00:00Z</time>
				</trkpt>
				<trkpt lat="54.36462" lon="-1.51343">
					<ele>47</ele>
					<time>0001-01-01T00:00:00Z</time>
				</trkpt>
				<trkpt lat="54.36510" lon="-1.51369">
					<ele>47</ele>
					<time>0001-01-01T00:00:00Z</time>
				</trkpt>
				<trkpt lat="54.36672" lon="-1.51326">
					<ele>48</ele>
					<time>0001-01-01T00:00:00Z</time>
				</trkpt>
				<trkpt lat="54.36802" lon="-1.51319">
					<ele>40</ele>
					<time>0001-01-01T00:00:00Z</time>
				</trkpt>
				<trkpt lat="54.36856" lon="-1.51408">
					<ele>39</ele>
					<time>0001-01-01T00:00:00Z</time>
				</trkpt>
				<trkpt lat="54.36898" lon="-1.51682">
					<ele>40</ele>
					<time>0001-01-01T00:00:00Z</time>
				</trkpt>
				<trkpt lat="54.36920" lon="-1.51949">
					<ele>43</ele>
					<time>0001-01-01T00:00:00Z</time>
				</trkpt>
				<trkpt lat="54.36912" lon="-1.52141">
					<ele>44</ele>
					<time>0001-01-01T00:00:00Z</time>
				</trkpt>
				<trkpt lat="54.36918" lon="-1.52378">
					<ele>46</ele>
					<time>0001-01-01T00:00:00Z</time>
				</trkpt>
				<trkpt lat="54.36903" lon="-1.52653">
					<ele>48</ele>
					<time>0001-01-01T00:00:00Z</time>
				</trkpt>
				<trkpt lat="54.36917" lon="-1.52935">
					<ele>43</ele>
					<time>0001-01-01T00:00:00Z</time>
				</trkpt>
				<trkpt lat="54.36948" lon="-1.53217">
					<ele>43</ele>
					<time>0001-01-01T00:00:00Z</time>
				</trkpt>
				<trkpt lat="54.36971" lon="-1.53418">
					<ele>45</ele>
					<time>0001-01-01T00:00:00Z</time>
				</trkpt>
				<trkpt lat="54.36987" lon="-1.53551">
					<ele>45</ele>
					<time>0001-01-01T00:00:00Z</time>
				</trkpt>
				<trkpt lat="54.36962" lon="-1.53639">
					<ele>41</ele>
					<time>0001-01-01T00:00:00Z</time>
				</trkpt>
				<trkpt lat="54.36824" lon="-1.53854">
					<ele>33</ele>
					<time>0001-01-01T00:00:00Z</time>
				</trkpt>
				<trkpt lat="54.36730" lon="-1.54027">
					<ele>32</ele>
					<time>0001-01-01T00:00:00Z</time>
				</trkpt>
				<trkpt lat="54.36672" lon="-1.54224">
					<ele>33</ele>
					<time>0001-01-01T00:00:00Z</time>
				</trkpt>
				<trkpt lat="54.36655" lon="-1.54362">
					<ele>38</ele>
					<time>0001-01-01T00:00:00Z</time>
				</trkpt>
				<trkpt lat="54.36650" lon="-1.54387">
					<ele>38</ele>
					<time>0001-01-01T00:00:00Z</time>
				</trkpt>
				<trkpt lat="54.36613" lon="-1.54435">
					<ele>38</ele>
					<time>0001-01-01T00:00:00Z</time>
				</trkpt>
				<trkpt lat="54.36501" lon="-1.54459">
					<ele>42</ele>
					<time>0001-01-01T00:00:00Z</time>
				</trkpt>
				<trkpt lat="54.36452" lon="-1.54477">
					<ele>43</ele>
					<time>0001-01-01T00:00:00Z</time>
				</trkpt>
				<trkpt lat="54.36429" lon="-1.54510">
					<ele>41</ele>
					<time>0001-01-01T00:00:00Z</time>
				</trkpt>
				<trkpt lat="54.36413" lon="-1.54551">
					<ele>39</ele>
					<time>0001-01-01T00:00:00Z</time>
				</trkpt>
				<trkpt lat="54.36382" lon="-1.54583">
					<ele>36</ele>
					<time>0001-01-01T00:00:00Z</time>
				</trkpt>
				<trkpt lat="54.36362" lon="-1.54592">
					<ele>36</ele>
					<time>0001-01-01T00:00:00Z</time>
				</trkpt>
				<trkpt lat="54.36285" lon="-1.54592">
					<ele>34</ele>
					<time>0001-01-01T00:00:00Z</time>
				</trkpt>
				<trkpt lat="54.36264" lon="-1.54654">
					<ele>33</ele>
					<time>0001-01-01T00:00:00Z</time>
				</trkpt>
				<trkpt lat="54.36266" lon="-1.54697">
					<ele>33</ele>
					<time>0001-01-01T00:00:00Z</time>
				</trkpt>
				<trkpt lat="54.36261" lon="-1.54765">
					<ele>32</ele>
					<time>0001-01-01T00:00:00Z</time>
				</trkpt>
				<trkpt lat="54.36236" lon="-1.54840">
					<ele>32</ele>
					<time>0001-01-01T00:00:00Z</time>
				</trkpt>
				<trkpt lat="54.36227" lon="-1.54892">
					<ele>33</ele>
					<time>0001-01-01T00:00:00Z</time>
				</trkpt>
				<trkpt lat="54.36234" lon="-1.54988">
					<ele>32</ele>
					<time>0001-01-01T00:00:00Z</time>
				</trkpt>
				<trkpt lat="54.36268" lon="-1.55117">
					<ele>32</ele>
					<time>0001-01-01T00:00:00Z</time>
				</trkpt>
				<trkpt lat="54.36274" lon="-1.55238">
					<ele>34</ele>
					<time>0001-01-01T00:00:00Z</time>
				</trkpt>
				<trkpt lat="54.36307" lon="-1.55385">
					<ele>33</ele>
					<time>0001-01-01T00:00:00Z</time>
				</trkpt>
				<trkpt lat="54.36421" lon="-1.55601">
					<ele>33</ele>
					<time>0001-01-01T00:00:00Z</time>
				</trkpt>
				<trkpt lat="54.36427" lon="-1.55609">
					<ele>33</ele>
					<time>0001-01-01T00:00:00Z</time>
				</trkpt>
				<trkpt lat="54.36440" lon="-1.55620">
					<ele>34</ele>
					<time>0001-01-01T00:00:00Z</time>
				</trkpt>
				<trkpt lat="54.36467" lon="-1.55624">
					<ele>34</ele>
					<time>0001-01-01T00:00:00Z</time>
				</trkpt>
				<trkpt lat="54.36511" lon="-1.55611">
					<ele>31</ele>
					<time>0001-01-01T00:00:00Z</time>
				</trkpt>
				<trkpt lat="54.36570" lon="-1.55636">
					<ele>31</ele>
					<time>0001-01-01T00:00:00Z</time>
				</trkpt>
				<trkpt lat="54.36607" lon="-1.55691">
					<ele>29</ele>
					<time>0001-01-01T00:00:00Z</time>
				</trkpt>
				<trkpt lat="54.36630" lon="-1.55754">
					<ele>29</ele>
					<time>0001-01-01T00:00:00Z</time>
				</trkpt>
				<trkpt lat="54.36637" lon="-1.55782">
					<ele>30</ele>
					<time>0001-01-01T00:00:00Z</time>
				</trkpt>
				<trkpt lat="54.36654" lon="-1.55964">
					<ele>31</ele>
					<time>0001-01-01T00:00:00Z</time>
				</trkpt>
				<trkpt lat="54.36679" lon="-1.56021">
					<ele>31</ele>
					<time>0001-01-01T00:00:00Z</time>
				</trkpt>
				<trkpt lat="54.36700" lon="-1.56085">
					<ele>31</ele>
					<time>0001-01-01T00:00:00Z</time>
				</trkpt>
				<trkpt lat="54.36710" lon="-1.56490">
					<ele>34</ele>
					<time>0001-01-01T00:00:00Z</time>
				</trkpt>
				<trkpt lat="54.36741" lon="-1.56545">
					<ele>33</ele>
					<time>0001-01-01T00:00:00Z</time>
				</trkpt>
				<trkpt lat="54.36812" lon="-1.56569">
					<ele>33</ele>
					<time>0001-01-01T00:00:00Z</time>
				</trkpt>
				<trkpt lat="54.36875" lon="-1.56694">
					<ele>33</ele>
					<time>0001-01-01T00:00:00Z</time>
				</trkpt>
				<trkpt lat="54.36961" lon="-1.56817">
					<ele>34</ele>
					<time>0001-01-01T00:00:00Z</time>
				</trkpt>
				<trkpt lat="54.37093" lon="-1.56907">
					<ele>36</ele>
					<time>0001-01-01T00:00:00Z</time>
				</trkpt>
				<trkpt lat="54.37198" lon="-1.56991">
					<ele>38</ele>
					<time>0001-01-01T00:00:00Z</time>
				</trkpt>
				<trkpt lat="54.37350" lon="-1.57106">
					<ele>40</ele>
					<time>0001-01-01T00:00:00Z</time>
				</trkpt>
				<trkpt lat="54.37422" lon="-1.57165">
					<ele>40</ele>
					<time>0001-01-01T00:00:00Z</time>
				</trkpt>
				<trkpt lat="54.37449" lon="-1.57205">
					<ele>40</ele>
					<time>0001-01-01T00:00:00Z</time>
				</trkpt>
				<trkpt lat="54.37463" lon="-1.57286">
					<ele>42</ele>
					<time>0001-01-01T00:00:00Z</time>
				</trkpt>
				<trkpt lat="54.37452" lon="-1.57431">
					<ele>49</ele>
					<time>0001-01-01T00:00:00Z</time>
				</trkpt>
				<trkpt lat="54.37449" lon="-1.57614">
					<ele>51</ele>
					<time>0001-01-01T00:00:00Z</time>
				</trkpt>
				<trkpt lat="54.37453" lon="-1.57886">
					<ele>49</ele>
					<time>0001-01-01T00:00:00Z</time>
				</trkpt>
				<trkpt lat="54.37464" lon="-1.58188">
					<ele>46</ele>
					<time>0001-01-01T00:00:00Z</time>
				</trkpt>
				<trkpt lat="54.37528" lon="-1.58515">
					<ele>46</ele>
					<time>0001-01-01T00:00:00Z</time>
				</trkpt>
				<trkpt lat="54.37538" lon="-1.58741">
					<ele>46</ele>
					<time>0001-01-01T00:00:00Z</time>
				</trkpt>
				<trkpt lat="54.37523" lon="-1.58999">
					<ele>44</ele>
					<time>0001-01-01T00:00:00Z</time>
				</trkpt>
				<trkpt lat="54.37532" lon="-1.59248">
					<ele>45</ele>
					<time>0001-01-01T00:00:00Z</time>
				</trkpt>
				<trkpt lat="54.37536" lon="-1.59442">
					<ele>44</ele>
					<time>0001-01-01T00:00:00Z</time>
				</trkpt>
				<trkpt lat="54.37556" lon="-1.59623">
					<ele>43</ele>
					<time>0001-01-01T00:00:00Z</time>
				</trkpt>
				<trkpt lat="54.37625" lon="-1.59867">
					<ele>43</ele>
					<time>0001-01-01T00:00:00Z</time>
				</trkpt>
				<trkpt lat="54.37716" lon="-1.60093">
					<ele>44</ele>
					<time>0001-01-01T00:00:00Z</time>
				</trkpt>
				<trkpt lat="54.37822" lon="-1.60232">
					<ele>44</ele>
					<time>0001-01-01T00:00:00Z</time>
				</trkpt>
				<trkpt lat="54.37920" lon="-1.60394">
					<ele>46</ele>
					<time>0001-01-01T00:00:00Z</time>
				</trkpt>
				<trkpt lat="54.38042" lon="-1.60625">
					<ele>48</ele>
					<time>0001-01-01T00:00:00Z</time>
				</trkpt>
				<trkpt lat="54.38088" lon="-1.60833">
					<ele>49</ele>
					<time>0001-01-01T00:00:00Z</time>
				</trkpt>
				<trkpt lat="54.38136" lon="-1.61050">
					<ele>48</ele>
					<time>0001-01-01T00:00:00Z</time>
				</trkpt>
				<trkpt lat="54.38167" lon="-1.61086">
					<ele>49</ele>
					<time>0001-01-01T00:00:00Z</time>
				</trkpt>
				<trkpt lat="54.38337" lon="-1.61147">
					<ele>49</ele>
					<time>0001-01-01T00:00:00Z</time>
				</trkpt>
				<trkpt lat="54.38456" lon="-1.61246">
					<ele>49</ele>
					<time>0001-01-01T00:00:00Z</time>
				</trkpt>
				<trkpt lat="54.38576" lon="-1.61337">
					<ele>50</ele>
					<time>0001-01-01T00:00:00Z</time>
				</trkpt>
				<trkpt lat="54.38738" lon="-1.61433">
					<ele>52</ele>
					<time>0001-01-01T00:00:00Z</time>
				</trkpt>
				<trkpt lat="54.38837" lon="-1.61521">
					<ele>53</ele>
					<time>0001-01-01T00:00:00Z</time>
				</trkpt>
				<trkpt lat="54.38978" lon="-1.61543">
					<ele>53</ele>
					<time>0001-01-01T00:00:00Z</time>
				</trkpt>
				<trkpt lat="54.39167" lon="-1.61535">
					<ele>56</ele>
					<time>0001-01-01T00:00:00Z</time>
				</trkpt>
				<trkpt lat="54.39317" lon="-1.61600">
					<ele>57</ele>
					<time>0001-01-01T00:00:00Z</time>
				</trkpt>
				<trkpt lat="54.39364" lon="-1.61622">
					<ele>57</ele>
					<time>0001-01-01T00:00:00Z</time>
				</trkpt>
				<trkpt lat="54.39381" lon="-1.61647">
					<ele>57</ele>
					<time>0001-01-01T00:00:00Z</time>
				</trkpt>
				<trkpt lat="54.39394" lon="-1.61664">
					<ele>55</ele>
					<time>0001-01-01T00:00:00Z</time>
				</trkpt>
				<trkpt lat="54.39470" lon="-1.61652">
					<ele>55</ele>
					<time>0001-01-01T00:00:00Z</time>
				</trkpt>
				<trkpt lat="54.39521" lon="-1.61617">
					<ele>56</ele>
					<time>0001-01-01T00:00:00Z</time>
				</trkpt>
				<trkpt lat="54.39549" lon="-1.61610">
					<ele>56</ele>
					<time>0001-01-01T00:00:00Z</time>
				</trkpt>
				<trkpt lat="54.39693" lon="-1.61668">
					<ele>56</ele>
					<time>0001-01-01T00:00:00Z</time>
				</trkpt>
				<trkpt lat="54.39810" lon="-1.61691">
					<ele>56</ele>
					<time>0001-01-01T00:00:00Z</time>
				</trkpt>
				<trkpt lat="54.39928" lon="-1.61656">
					<ele>57</ele>
					<time>0001-01-01T00:00:00Z</time>
				</trkpt>
				<trkpt lat="54.40100" lon="-1.61597">
					<ele>56</ele>
					<time>0001-01-01T00:00:00Z</time>
				</trkpt>
				<trkpt lat="54.40107" lon="-1.61595">
					<ele>56</ele>
					<time>0001-01-01T00:00:00Z</time>
				</trkpt>
				<trkpt lat="54.40268" lon="-1.61613">
					<ele>56</ele>
					<time>0001-01-01T00:00:00Z</time>
				</trkpt>
				<trkpt lat="54.40425" lon="-1.61623">
					<ele>57</ele>
					<time>0001-01-01T00:00:00Z</time>
				</trkpt>
				<trkpt lat="54.40595" lon="-1.61626">
					<ele>57</ele>
					<time>0001-01-01T00:00:00Z</time>
				</trkpt>
				<trkpt lat="54.40760" lon="-1.61642">
					<ele>57</ele>
					<time>0001-01-01T00:00:00Z</time>
				</trkpt>
				<trkpt lat="54.40787" lon="-1.61639">
					<ele>58</ele>
					<time>0001-01-01T00:00:00Z</time>
				</trkpt>
				<trkpt lat="54.40915" lon="-1.61710">
					<ele>57</ele>
					<time>0001-01-01T00:00:00Z</time>
				</trkpt>
				<trkpt lat="54.41083" lon="-1.61841">
					<ele>57</ele>
					<time>0001-01-01T00:00:00Z</time>
				</trkpt>
				<trkpt lat="54.41243" lon="-1.62012">
					<ele>56</ele>
					<time>0001-01-01T00:00:00Z</time>
				</trkpt>
				<trkpt lat="54.41386" lon="-1.62142">
					<ele>57</ele>
					<time>0001-01-01T00:00:00Z</time>
				</trkpt>
				<trkpt lat="54.41549" lon="-1.62269">
					<ele>57</ele>
					<time>0001-01-01T00:00:00Z</time>
				</trkpt>
				<trkpt lat="54.41687" lon="-1.62413">
					<ele>60</ele>
					<time>0001-01-01T00:00:00Z</time>
				</trkpt>
				<trkpt lat="54.41788" lon="-1.62546">
					<ele>61</ele>
					<time>0001-01-01T00:00:00Z</time>
				</trkpt>
				<trkpt lat="54.41915" lon="-1.62697">
					<ele>61</ele>
					<time>0001-01-01T00:00:00Z</time>
				</trkpt>
				<trkpt lat="54.42030" lon="-1.62804">
					<ele>65</ele>
					<time>0001-01-01T00:00:00Z</time>
				</trkpt>
				<trkpt lat="54.42138" lon="-1.62912">
					<ele>68</ele>
					<time>0001-01-01T00:00:00Z</time>
				</trkpt>
				<trkpt lat="54.42297" lon="-1.63039">
					<ele>68</ele>
					<time>0001-01-01T00:00:00Z</time>
				</trkpt>
				<trkpt lat="54.42413" lon="-1.63123">
					<ele>69</ele>
					<time>0001-01-01T00:00:00Z</time>
				</trkpt>
				<trkpt lat="54.42525" lon="-1.63238">
					<ele>67</ele>
					<time>0001-01-01T00:00:00Z</time>
				</trkpt>
				<trkpt lat="54.42670" lon="-1.63423">
					<ele>66</ele>
					<time>0001-01-01T00:00:00Z</time>
				</trkpt>
				<trkpt lat="54.42785" lon="-1.63621">
					<ele>68</ele>
					<time>0001-01-01T00:00:00Z</time>
				</trkpt>
				<trkpt lat="54.42811" lon="-1.63657">
					<ele>68</ele>
					<time>0001-01-01T00:00:00Z</time>
				</trkpt>
				<trkpt lat="54.42851" lon="-1.63647">
					<ele>68</ele>
					<time>0001-01-01T00:00:00Z</time>
				</trkpt>
				<trkpt lat="54.42930" lon="-1.63698">
					<ele>68</ele>
					<time>0001-01-01T00:00:00Z</time>
				</trkpt>
				<trkpt lat="54.42969" lon="-1.63709">
					<ele>67</ele>
					<time>0001-01-01T00:00:00Z</time>
				</trkpt>
				<trkpt lat="54.43046" lon="-1.63702">
					<ele>68</ele>
					<time>0001-01-01T00:00:00Z</time>
				</trkpt>
				<trkpt lat="54.43062" lon="-1.63706">
					<ele>69</ele>
					<time>0001-01-01T00:00:00Z</time>
				</trkpt>
				<trkpt lat="54.43159" lon="-1.63792">
					<ele>71</ele>
					<time>0001-01-01T00:00:00Z</time>
				</trkpt>
				<trkpt lat="54.43235" lon="-1.63778">
					<ele>77</ele>
					<time>0001-01-01T00:00:00Z</time>
				</trkpt>
				<trkpt lat="54.43367" lon="-1.63795">
					<ele>76</ele>
					<time>0001-01-01T00:00:00Z</time>
				</trkpt>
				<trkpt lat="54.43464" lon="-1.63876">
					<ele>74</ele>
					<time>0001-01-01T00:00:00Z</time>
				</trkpt>
				<trkpt lat="54.43735" lon="-1.63929">
					<ele>74</ele>
					<time>0001-01-01T00:00:00Z</time>
				</trkpt>
				<trkpt lat="54.43793" lon="-1.63916">
					<ele>74</ele>
					<time>0001-01-01T00:00:00Z</time>
				</trkpt>
				<trkpt lat="54.43972" lon="-1.63979">
					<ele>74</ele>
					<time>0001-01-01T00:00:00Z</time>
				</trkpt>
				<trkpt lat="54.44142" lon="-1.64021">
					<ele>79</ele>
					<time>0001-01-01T00:00:00Z</time>
				</trkpt>
				<trkpt lat="54.44290" lon="-1.64133">
					<ele>81</ele>
					<time>0001-01-01T00:00:00Z</time>
				</trkpt>
				<trkpt lat="54.44408" lon="-1.64237">
					<ele>81</ele>
					<time>0001-01-01T00:00:00Z</time>
				</trkpt>
				<trkpt lat="54.44632" lon="-1.64409">
					<ele>85</ele>
					<time>0001-01-01T00:00:00Z</time>
				</trkpt>
				<trkpt lat="54.44710" lon="-1.64473">
					<ele>86</ele>
					<time>0001-01-01T00:00:00Z</time>
				</trkpt>
				<trkpt lat="54.44724" lon="-1.64538">
					<ele>84</ele>
					<time>0001-01-01T00:00:00Z</time>
				</trkpt>
				<trkpt lat="54.44720" lon="-1.64645">
					<ele>83</ele>
					<time>0001-01-01T00:00:00Z</time>
				</trkpt>
				<trkpt lat="54.44750" lon="-1.64693">
					<ele>83</ele>
					<time>0001-01-01T00:00:00Z</time>
				</trkpt>
				<trkpt lat="54.44756" lon="-1.64692">
					<ele>83</ele>
					<time>0001-01-01T00:00:00Z</time>
				</trkpt>
				<trkpt lat="54.44817" lon="-1.64674">
					<ele>84</ele>
					<time>0001-01-01T00:00:00Z</time>
				</trkpt>
				<trkpt lat="54.44843" lon="-1.64690">
					<ele>85</ele>
					<time>0001-01-01T00:00:00Z</time>
				</trkpt>
				<trkpt lat="54.44853" lon="-1.64735">
					<ele>86</ele>
					<time>0001-01-01T00:00:00Z</time>
				</trkpt>
				<trkpt lat="54.44831" lon="-1.64846">
					<ele>94</ele>
					<time>0001-01-01T00:00:00Z</time>
				</trkpt>
				<trkpt lat="54.44796" lon="-1.64968">
					<ele>100</ele>
					<time>0001-01-01T00:00:00Z</time>
				</trkpt>
				<trkpt lat="54.44785" lon="-1.64985">
					<ele>98</ele>
					<time>0001-01-01T00:00:00Z</time>
				</trkpt>
				<trkpt lat="54.44716" lon="-1.64990">
					<ele>97</ele>
					<time>0001-01-01T00:00:00Z</time>
				</trkpt>
				<trkpt lat="54.44692" lon="-1.65043">
					<ele>101</ele>
					<time>0001-01-01T00:00:00Z</time>
				</trkpt>
				<trkpt lat="54.44760" lon="-1.65136">
					<ele>104</ele>
					<time>0001-01-01T00:00:00Z</time>
				</trkpt>
				<trkpt lat="54.44815" lon="-1.65197">
					<ele>103</ele>
					<time>0001-01-01T00:00:00Z</time>
				</trkpt>
				<trkpt lat="54.44885" lon="-1.65267">
					<ele>104</ele>
					<time>0001-01-01T00:00:00Z</time>
				</trkpt>
				<trkpt lat="54.44923" lon="-1.65313">
					<ele>107</ele>
					<time>0001-01-01T00:00:00Z</time>
				</trkpt>
				<trkpt lat="54.44941" lon="-1.65275">
					<ele>109</ele>
					<time>0001-01-01T00:00:00Z</time>
				</trkpt>
				<trkpt lat="54.44956" lon="-1.65268">
					<ele>107</ele>
					<time>0001-01-01T00:00:00Z</time>
				</trkpt>
				<trkpt lat="54.44962" lon="-1.65251">
					<ele>107</ele>
					<time>0001-01-01T00:00:00Z</time>
				</trkpt>
				<trkpt lat="54.44943" lon="-1.65227">
					<ele>107</ele>
					<time>0001-01-01T00:00:00Z</time>
				</trkpt>
				<trkpt lat="54.44942" lon="-1.65230">
					<ele>106</ele>
					<time>0001-01-01T00:00:00Z</time>
				</trkpt>
				<trkpt lat="54.44945" lon="-1.65230">
					<ele>110</ele>
					<time>0001-01-01T00:00:00Z</time>
				</trkpt>
				<trkpt lat="54.44941" lon="-1.65232">
					<ele>106</ele>
					<time>0001-01-01T00:00:00Z</time>
				</trkpt>
				<trkpt lat="54.44942" lon="-1.65236">
					<ele>108</ele>
					<time>0001-01-01T00:00:00Z</time>
				</trkpt>
				<trkpt lat="54.44942" lon="-1.65237">
					<ele>102</ele>
					<time>0001-01-01T00:00:00Z</time>
				</trkpt>
				<trkpt lat="54.44947" lon="-1.65244">
					<ele>101</ele>
					<time>0001-01-01T00:00:00Z</time>
				</trkpt>
				<trkpt lat="54.44960" lon="-1.65284">
					<ele>104</ele>
					<time>0001-01-01T00:00:00Z</time>
				</trkpt>
				<trkpt lat="54.44957" lon="-1.65287">
					<ele>104</ele>
					<time>0001-01-01T00:00:00Z</time>
				</trkpt>
				<trkpt lat="54.44954" lon="-1.65284">
					<ele>103</ele>
					<time>0001-01-01T00:00:00Z</time>
				</trkpt>
				<trkpt lat="54.44957" lon="-1.65271">
					<ele>115</ele>
					<time>0001-01-01T00:00:00Z</time>
				</trkpt>
				<trkpt lat="54.44958" lon="-1.65271">
					<ele>115</ele>
					<time>0001-01-01T00:00:00Z</time>
				</trkpt>
				<trkpt lat="54.44956" lon="-1.65274">
					<ele>115</ele>
					<time>0001-01-01T00:00:00Z</time>
				</trkpt>
				<trkpt lat="54.44947" lon="-1.65280">
					<ele>109</ele>
					<time>0001-01-01T00:00:00Z</time>
				</trkpt>
				<trkpt lat="54.44946" lon="-1.65278">
					<ele>109</ele>
					<time>0001-01-01T00:00:00Z</time>
				</trkpt>
				<trkpt lat="54.44924" lon="-1.65330">
					<ele>107</ele>
					<time>0001-01-01T00:00:00Z</time>
				</trkpt>
				<trkpt lat="54.44925" lon="-1.65338">
					<ele>107</ele>
					<time>0001-01-01T00:00:00Z</time>
				</trkpt>
				<trkpt lat="54.44981" lon="-1.65428">
					<ele>108</ele>
					<time>0001-01-01T00:00:00Z</time>
				</trkpt>
				<trkpt lat="54.45065" lon="-1.65535">
					<ele>111</ele>
					<time>0001-01-01T00:00:00Z</time>
				</trkpt>
				<trkpt lat="54.45141" lon="-1.65656">
					<ele>112</ele>
					<time>0001-01-01T00:00:00Z</time>
				</trkpt>
				<trkpt lat="54.45250" lon="-1.65816">
					<ele>113</ele>
					<time>0001-01-01T00:00:00Z</time>
				</trkpt>
				<trkpt lat="54.45336" lon="-1.65933">
					<ele>113</ele>
					<time>0001-01-01T00:00:00Z</time>
				</trkpt>
				<trkpt lat="54.45452" lon="-1.66129">
					<ele>114</ele>
					<time>0001-01-01T00:00:00Z</time>
				</trkpt>
				<trkpt lat="54.45528" lon="-1.66297">
					<ele>116</ele>
					<time>0001-01-01T00:00:00Z</time>
				</trkpt>
				<trkpt lat="54.45585" lon="-1.66490">
					<ele>119</ele>
					<time>0001-01-01T00:00:00Z</time>
				</trkpt>
				<trkpt lat="54.45609" lon="-1.66586">
					<ele>121</ele>
					<time>0001-01-01T00:00:00Z</time>
				</trkpt>
				<trkpt lat="54.45635" lon="-1.66659">
					<ele>122</ele>
					<time>0001-01-01T00:00:00Z</time>
				</trkpt>
				<trkpt lat="54.45673" lon="-1.66763">
					<ele>125</ele>
					<time>0001-01-01T00:00:00Z</time>
				</trkpt>
				<trkpt lat="54.45696" lon="-1.66790">
					<ele>125</ele>
					<time>0001-01-01T00:00:00Z</time>
				</trkpt>
				<trkpt lat="54.45746" lon="-1.66798">
					<ele>124</ele>
					<time>0001-01-01T00:00:00Z</time>
				</trkpt>
				<trkpt lat="54.46053" lon="-1.66510">
					<ele>112</ele>
					<time>0001-01-01T00:00:00Z</time>
				</trkpt>
				<trkpt lat="54.46267" lon="-1.66238">
					<ele>111</ele>
					<time>0001-01-01T00:00:00Z</time>
				</trkpt>
				<trkpt lat="54.46348" lon="-1.66160">
					<ele>108</ele>
					<time>0001-01-01T00:00:00Z</time>
				</trkpt>
				<trkpt lat="54.46578" lon="-1.65915">
					<ele>99</ele>
					<time>0001-01-01T00:00:00Z</time>
				</trkpt>
				<trkpt lat="54.46607" lon="-1.65885">
					<ele>98</ele>
					<time>0001-01-01T00:00:00Z</time>
				</trkpt>
				<trkpt lat="54.46659" lon="-1.65878">
					<ele>94</ele>
					<time>0001-01-01T00:00:00Z</time>
				</trkpt>
				<trkpt lat="54.46698" lon="-1.65898">
					<ele>93</ele>
					<time>0001-01-01T00:00:00Z</time>
				</trkpt>
				<trkpt lat="54.46704" lon="-1.65926">
					<ele>92</ele>
					<time>0001-01-01T00:00:00Z</time>
				</trkpt>
				<trkpt lat="54.46696" lon="-1.66080">
					<ele>91</ele>
					<time>0001-01-01T00:00:00Z</time>
				</trkpt>
				<trkpt lat="54.46696" lon="-1.66091">
					<ele>91</ele>
					<time>0001-01-01T00:00:00Z</time>
				</trkpt>
				<trkpt lat="54.46740" lon="-1.66335">
					<ele>91</ele>
					<time>0001-01-01T00:00:00Z</time>
				</trkpt>
				<trkpt lat="54.46774" lon="-1.66467">
					<ele>91</ele>
					<time>0001-01-01T00:00:00Z</time>
				</trkpt>
				<trkpt lat="54.46774" lon="-1.66510">
					<ele>92</ele>
					<time>0001-01-01T00:00:00Z</time>
				</trkpt>
				<trkpt lat="54.46769" lon="-1.66542">
					<ele>93</ele>
					<time>0001-01-01T00:00:00Z</time>
				</trkpt>
				<trkpt lat="54.46775" lon="-1.66604">
					<ele>94</ele>
					<time>0001-01-01T00:00:00Z</time>
				</trkpt>
				<trkpt lat="54.46804" lon="-1.66680">
					<ele>96</ele>
					<time>0001-01-01T00:00:00Z</time>
				</trkpt>
				<trkpt lat="54.46820" lon="-1.66707">
					<ele>96</ele>
					<time>0001-01-01T00:00:00Z</time>
				</trkpt>
				<trkpt lat="54.46872" lon="-1.66755">
					<ele>96</ele>
					<time>0001-01-01T00:00:00Z</time>
				</trkpt>
				<trkpt lat="54.46891" lon="-1.66787">
					<ele>97</ele>
					<time>0001-01-01T00:00:00Z</time>
				</trkpt>
				<trkpt lat="54.46978" lon="-1.66917">
					<ele>102</ele>
					<time>0001-01-01T00:00:00Z</time>
				</trkpt>
				<trkpt lat="54.47011" lon="-1.66944">
					<ele>103</ele>
					<time>0001-01-01T00:00:00Z</time>
				</trkpt>
				<trkpt lat="54.47020" lon="-1.66975">
					<ele>104</ele>
					<time>0001-01-01T00:00:00Z</time>
				</trkpt>
				<trkpt lat="54.47008" lon="-1.67105">
					<ele>108</ele>
					<time>0001-01-01T00:00:00Z</time>
				</trkpt>
				<trkpt lat="54.47016" lon="-1.67270">
					<ele>114</ele>
					<time>0001-01-01T00:00:00Z</time>
				</trkpt>
				<trkpt lat="54.47046" lon="-1.67468">
					<ele>117</ele>
					<time>0001-01-01T00:00:00Z</time>
				</trkpt>
				<trkpt lat="54.47037" lon="-1.67620">
					<ele>121</ele>
					<time>0001-01-01T00:00:00Z</time>
				</trkpt>
				<trkpt lat="54.47018" lon="-1.67798">
					<ele>127</ele>
					<time>0001-01-01T00:00:00Z</time>
				</trkpt>
				<trkpt lat="54.47017" lon="-1.67974">
					<ele>132</ele>
					<time>0001-01-01T00:00:00Z</time>
				</trkpt>
				<trkpt lat="54.47009" lon="-1.68157">
					<ele>133</ele>
					<time>0001-01-01T00:00:00Z</time>
				</trkpt>
				<trkpt lat="54.47021" lon="-1.68376">
					<ele>136</ele>
					<time>0001-01-01T00:00:00Z</time>
				</trkpt>
				<trkpt lat="54.47032" lon="-1.68597">
					<ele>138</ele>
					<time>0001-01-01T00:00:00Z</time>
				</trkpt>
				<trkpt lat="54.46996" lon="-1.68744">
					<ele>133</ele>
					<time>0001-01-01T00:00:00Z</time>
				</trkpt>
				<trkpt lat="54.47023" lon="-1.69224">
					<ele>131</ele>
					<time>0001-01-01T00:00:00Z</time>
				</trkpt>
				<trkpt lat="54.47021" lon="-1.69253">
					<ele>131</ele>
					<time>0001-01-01T00:00:00Z</time>
				</trkpt>
				<trkpt lat="54.47021" lon="-1.69266">
					<ele>131</ele>
					<time>0001-01-01T00:00:00Z</time>
				</trkpt>
				<trkpt lat="54.47031" lon="-1.69310">
					<ele>132</ele>
					<time>0001-01-01T00:00:00Z</time>
				</trkpt>
				<trkpt lat="54.47049" lon="-1.69360">
					<ele>133</ele>
					<time>0001-01-01T00:00:00Z</time>
				</trkpt>
				<trkpt lat="54.47071" lon="-1.69400">
					<ele>134</ele>
					<time>0001-01-01T00:00:00Z</time>
				</trkpt>
				<trkpt lat="54.47077" lon="-1.69441">
					<ele>135</ele>
					<time>0001-01-01T00:00:00Z</time>
				</trkpt>
				<trkpt lat="54.47076" lon="-1.69497">
					<ele>136</ele>
					<time>0001-01-01T00:00:00Z</time>
				</trkpt>
				<trkpt lat="54.47078" lon="-1.69513">
					<ele>136</ele>
					<time>0001-01-01T00:00:00Z</time>
				</trkpt>
				<trkpt lat="54.47080" lon="-1.69530">
					<ele>137</ele>
					<time>0001-01-01T00:00:00Z</time>
				</trkpt>
				<trkpt lat="54.47119" lon="-1.69675">
					<ele>139</ele>
					<time>0001-01-01T00:00:00Z</time>
				</trkpt>
				<trkpt lat="54.47186" lon="-1.69888">
					<ele>142</ele>
					<time>0001-01-01T00:00:00Z</time>
				</trkpt>
				<trkpt lat="54.47209" lon="-1.69954">
					<ele>142</ele>
					<time>0001-01-01T00:00:00Z</time>
				</trkpt>
				<trkpt lat="54.47197" lon="-1.70187">
					<ele>144</ele>
					<time>0001-01-01T00:00:00Z</time>
				</trkpt>
				<trkpt lat="54.47195" lon="-1.70384">
					<ele>149</ele>
					<time>0001-01-01T00:00:00Z</time>
				</trkpt>
				<trkpt lat="54.47193" lon="-1.70573">
					<ele>151</ele>
					<time>0001-01-01T00:00:00Z</time>
				</trkpt>
				<trkpt lat="54.47234" lon="-1.70759">
					<ele>155</ele>
					<time>0001-01-01T00:00:00Z</time>
				</trkpt>
				<trkpt lat="54.47265" lon="-1.70968">
					<ele>158</ele>
					<time>0001-01-01T00:00:00Z</time>
				</trkpt>
				<trkpt lat="54.47318" lon="-1.71209">
					<ele>163</ele>
					<time>0001-01-01T00:00:00Z</time>
				</trkpt>
				<trkpt lat="54.47369" lon="-1.71400">
					<ele>169</ele>
					<time>0001-01-01T00:00:00Z</time>
				</trkpt>
				<trkpt lat="54.47419" lon="-1.71586">
					<ele>174</ele>
					<time>0001-01-01T00:00:00Z</time>
				</trkpt>
				<trkpt lat="54.47493" lon="-1.71787">
					<ele>177</ele>
					<time>0001-01-01T00:00:00Z</time>
				</trkpt>
				<trkpt lat="54.47549" lon="-1.71992">
					<ele>176</ele>
					<time>0001-01-01T00:00:00Z</time>
				</trkpt>
				<trkpt lat="54.47629" lon="-1.72209">
					<ele>173</ele>
					<time>0001-01-01T00:00:00Z</time>
				</trkpt>
				<trkpt lat="54.47721" lon="-1.72476">
					<ele>171</ele>
					<time>0001-01-01T00:00:00Z</time>
				</trkpt>
				<trkpt lat="54.47750" lon="-1.72575">
					<ele>171</ele>
					<time>0001-01-01T00:00:00Z</time>
				</trkpt>
				<trkpt lat="54.47753" lon="-1.72653">
					<ele>171</ele>
					<time>0001-01-01T00:00:00Z</time>
				</trkpt>
				<trkpt lat="54.47742" lon="-1.72785">
					<ele>171</ele>
					<time>0001-01-01T00:00:00Z</time>
				</trkpt>
				<trkpt lat="54.47724" lon="-1.72871">
					<ele>171</ele>
					<time>0001-01-01T00:00:00Z</time>
				</trkpt>
				<trkpt lat="54.47732" lon="-1.72899">
					<ele>171</ele>
					<time>0001-01-01T00:00:00Z</time>
				</trkpt>
				<trkpt lat="54.47821" lon="-1.73001">
					<ele>166</ele>
					<time>0001-01-01T00:00:00Z</time>
				</trkpt>
				<trkpt lat="54.47930" lon="-1.73133">
					<ele>165</ele>
					<time>0001-01-01T00:00:00Z</time>
				</trkpt>
				<trkpt lat="54.48074" lon="-1.73296">
					<ele>164</ele>
					<time>0001-01-01T00:00:00Z</time>
				</trkpt>
				<trkpt lat="54.48114" lon="-1.73292">
					<ele>164</ele>
					<time>0001-01-01T00:00:00Z</time>
				</trkpt>
				<trkpt lat="54.48198" lon="-1.73193">
					<ele>156</ele>
					<time>0001-01-01T00:00:00Z</time>
				</trkpt>
				<trkpt lat="54.48255" lon="-1.73173">
					<ele>154</ele>
					<time>0001-01-01T00:00:00Z</time>
				</trkpt>
				<trkpt lat="54.48399" lon="-1.73138">
					<ele>145</ele>
					<time>0001-01-01T00:00:00Z</time>
				</trkpt>
				<trkpt lat="54.48542" lon="-1.73086">
					<ele>142</ele>
					<time>0001-01-01T00:00:00Z</time>
				</trkpt>
				<trkpt lat="54.48684" lon="-1.73066">
					<ele>139</ele>
					<time>0001-01-01T00:00:00Z</time>
				</trkpt>
				<trkpt lat="54.48888" lon="-1.72995">
					<ele>137</ele>
					<time>0001-01-01T00:00:00Z</time>
				</trkpt>
				<trkpt lat="54.48917" lon="-1.72974">
					<ele>137</ele>
					<time>0001-01-01T00:00:00Z</time>
				</trkpt>
				<trkpt lat="54.49058" lon="-1.72970">
					<ele>140</ele>
					<time>0001-01-01T00:00:00Z</time>
				</trkpt>
				<trkpt lat="54.49247" lon="-1.73006">
					<ele>137</ele>
					<time>0001-01-01T00:00:00Z</time>
				</trkpt>
				<trkpt lat="54.49564" lon="-1.73065">
					<ele>130</ele>
					<time>0001-01-01T00:00:00Z</time>
				</trkpt>
				<trkpt lat="54.49763" lon="-1.73078">
					<ele>122</ele>
					<time>0001-01-01T00:00:00Z</time>
				</trkpt>
				<trkpt lat="54.49949" lon="-1.73074">
					<ele>117</ele>
					<time>0001-01-01T00:00:00Z</time>
				</trkpt>
				<trkpt lat="54.50275" lon="-1.72988">
					<ele>112</ele>
					<time>0001-01-01T00:00:00Z</time>
				</trkpt>
				<trkpt lat="54.50421" lon="-1.72957">
					<ele>111</ele>
					<time>0001-01-01T00:00:00Z</time>
				</trkpt>
				<trkpt lat="54.50485" lon="-1.72953">
					<ele>111</ele>
					<time>0001-01-01T00:00:00Z</time>
				</trkpt>
				<trkpt lat="54.50602" lon="-1.72997">
					<ele>107</ele>
					<time>0001-01-01T00:00:00Z</time>
				</trkpt>
				<trkpt lat="54.50618" lon="-1.73003">
					<ele>107</ele>
					<time>0001-01-01T00:00:00Z</time>
				</trkpt>
				<trkpt lat="54.50753" lon="-1.73108">
					<ele>105</ele>
					<time>0001-01-01T00:00:00Z</time>
				</trkpt>
				<trkpt lat="54.50894" lon="-1.73221">
					<ele>104</ele>
					<time>0001-01-01T00:00:00Z</time>
				</trkpt>
				<trkpt lat="54.50911" lon="-1.73242">
					<ele>103</ele>
					<time>0001-01-01T00:00:00Z</time>
				</trkpt>
				<trkpt lat="54.50924" lon="-1.73319">
					<ele>104</ele>
					<time>0001-01-01T00:00:00Z</time>
				</trkpt>
				<trkpt lat="54.50911" lon="-1.73696">
					<ele>103</ele>
					<time>0001-01-01T00:00:00Z</time>
				</trkpt>
				<trkpt lat="54.50827" lon="-1.74009">
					<ele>105</ele>
					<time>0001-01-01T00:00:00Z</time>
				</trkpt>
				<trkpt lat="54.50831" lon="-1.74066">
					<ele>106</ele>
					<time>0001-01-01T00:00:00Z</time>
				</trkpt>
				<trkpt lat="54.50893" lon="-1.74299">
					<ele>111</ele>
					<time>0001-01-01T00:00:00Z</time>
				</trkpt>
				<trkpt lat="54.50965" lon="-1.74500">
					<ele>112</ele>
					<time>0001-01-01T00:00:00Z</time>
				</trkpt>
				<trkpt lat="54.51061" lon="-1.74749">
					<ele>111</ele>
					<time>0001-01-01T00:00:00Z</time>
				</trkpt>
				<trkpt lat="54.51109" lon="-1.74898">
					<ele>110</ele>
					<time>0001-01-01T00:00:00Z</time>
				</trkpt>
				<trkpt lat="54.51148" lon="-1.74934">
					<ele>109</ele>
					<time>0001-01-01T00:00:00Z</time>
				</trkpt>
				<trkpt lat="54.51294" lon="-1.74966">
					<ele>109</ele>
					<time>0001-01-01T00:00:00Z</time>
				</trkpt>
				<trkpt lat="54.51420" lon="-1.74987">
					<ele>113</ele>
					<time>0001-01-01T00:00:00Z</time>
				</trkpt>
				<trkpt lat="54.51486" lon="-1.74994">
					<ele>116</ele>
					<time>0001-01-01T00:00:00Z</time>
				</trkpt>
				<trkpt lat="54.51506" lon="-1.75014">
					<ele>115</ele>
					<time>0001-01-01T00:00:00Z</time>
				</trkpt>
				<trkpt lat="54.51566" lon="-1.75213">
					<ele>119</ele>
					<time>0001-01-01T00:00:00Z</time>
				</trkpt>
				<trkpt lat="54.51645" lon="-1.75379">
					<ele>123</ele>
					<time>0001-01-01T00:00:00Z</time>
				</trkpt>
				<trkpt lat="54.51666" lon="-1.75408">
					<ele>124</ele>
					<time>0001-01-01T00:00:00Z</time>
				</trkpt>
				<trkpt lat="54.51672" lon="-1.75451">
					<ele>124</ele>
					<time>0001-01-01T00:00:00Z</time>
				</trkpt>
				<trkpt lat="54.51657" lon="-1.75619">
					<ele>128</ele>
					<time>0001-01-01T00:00:00Z</time>
				</trkpt>
				<trkpt lat="54.51657" lon="-1.75808">
					<ele>133</ele>
					<time>0001-01-01T00:00:00Z</time>
				</trkpt>
				<trkpt lat="54.51683" lon="-1.75999">
					<ele>137</ele>
					<time>0001-01-01T00:00:00Z</time>
				</trkpt>
				<trkpt lat="54.51690" lon="-1.76061">
					<ele>138</ele>
					<time>0001-01-01T00:00:00Z</time>
				</trkpt>
				<trkpt lat="54.51669" lon="-1.76262">
					<ele>137</ele>
					<time>0001-01-01T00:00:00Z</time>
				</trkpt>
				<trkpt lat="54.51641" lon="-1.76544">
					<ele>132</ele>
					<time>0001-01-01T00:00:00Z</time>
				</trkpt>
				<trkpt lat="54.51616" lon="-1.76770">
					<ele>133</ele>
					<time>0001-01-01T00:00:00Z</time>
				</trkpt>
				<trkpt lat="54.51585" lon="-1.77056">
					<ele>131</ele>
					<time>0001-01-01T00:00:00Z</time>
				</trkpt>
				<trkpt lat="54.51565" lon="-1.77292">
					<ele>133</ele>
					<time>0001-01-01T00:00:00Z</time>
				</trkpt>
				<trkpt lat="54.51587" lon="-1.77510">
					<ele>133</ele>
					<time>0001-01-01T00:00:00Z</time>
				</trkpt>
				<trkpt lat="54.51609" lon="-1.77776">
					<ele>134</ele>
					<time>0001-01-01T00:00:00Z</time>
				</trkpt>
				<trkpt lat="54.51587" lon="-1.78031">
					<ele>132</ele>
					<time>0001-01-01T00:00:00Z</time>
				</trkpt>
				<trkpt lat="54.51529" lon="-1.78273">
					<ele>132</ele>
					<time>0001-01-01T00:00:00Z</time>
				</trkpt>
				<trkpt lat="54.51488" lon="-1.78503">
					<ele>134</ele>
					<time>0001-01-01T00:00:00Z</time>
				</trkpt>
				<trkpt lat="54.51471" lon="-1.78708">
					<ele>136</ele>
					<time>0001-01-01T00:00:00Z</time>
				</trkpt>
				<trkpt lat="54.51451" lon="-1.78987">
					<ele>130</ele>
					<time>0001-01-01T00:00:00Z</time>
				</trkpt>
				<trkpt lat="54.51418" lon="-1.79201">
					<ele>132</ele>
					<time>0001-01-01T00:00:00Z</time>
				</trkpt>
				<trkpt lat="54.51417" lon="-1.79492">
					<ele>133</ele>
					<time>0001-01-01T00:00:00Z</time>
				</trkpt>
				<trkpt lat="54.51436" lon="-1.79786">
					<ele>132</ele>
					<time>0001-01-01T00:00:00Z</time>
				</trkpt>
				<trkpt lat="54.51440" lon="-1.79961">
					<ele>131</ele>
					<time>0001-01-01T00:00:00Z</time>
				</trkpt>
				<trkpt lat="54.51452" lon="-1.79978">
					<ele>131</ele>
					<time>0001-01-01T00:00:00Z</time>
				</trkpt>
				<trkpt lat="54.51578" lon="-1.79941">
					<ele>132</ele>
					<time>0001-01-01T00:00:00Z</time>
				</trkpt>
				<trkpt lat="54.51700" lon="-1.79936">
					<ele>132</ele>
					<time>0001-01-01T00:00:00Z</time>
				</trkpt>
				<trkpt lat="54.51857" lon="-1.79965">
					<ele>135</ele>
					<time>0001-01-01T00:00:00Z</time>
				</trkpt>
				<trkpt lat="54.51968" lon="-1.79976">
					<ele>127</ele>
					<time>0001-01-01T00:00:00Z</time>
				</trkpt>
				<trkpt lat="54.52120" lon="-1.80021">
					<ele>123</ele>
					<time>0001-01-01T00:00:00Z</time>
				</trkpt>
				<trkpt lat="54.52176" lon="-1.80021">
					<ele>124</ele>
					<time>0001-01-01T00:00:00Z</time>
				</trkpt>
				<trkpt lat="54.52182" lon="-1.80022">
					<ele>124</ele>
					<time>0001-01-01T00:00:00Z</time>
				</trkpt>
				<trkpt lat="54.52160" lon="-1.80020">
					<ele>123</ele>
					<time>0001-01-01T00:00:00Z</time>
				</trkpt>
				<trkpt lat="54.52123" lon="-1.80022">
					<ele>121</ele>
					<time>0001-01-01T00:00:00Z</time>
				</trkpt>
				<trkpt lat="54.52112" lon="-1.80069">
					<ele>121</ele>
					<time>0001-01-01T00:00:00Z</time>
				</trkpt>
				<trkpt lat="54.52140" lon="-1.80641">
					<ele>118</ele>
					<time>0001-01-01T00:00:00Z</time>
				</trkpt>
				<trkpt lat="54.52155" lon="-1.80890">
					<ele>121</ele>
					<time>0001-01-01T00:00:00Z</time>
				</trkpt>
				<trkpt lat="54.52147" lon="-1.81283">
					<ele>121</ele>
					<time>0001-01-01T00:00:00Z</time>
				</trkpt>
				<trkpt lat="54.52125" lon="-1.81547">
					<ele>121</ele>
					<time>0001-01-01T00:00:00Z</time>
				</trkpt>
				<trkpt lat="54.52102" lon="-1.81789">
					<ele>119</ele>
					<time>0001-01-01T00:00:00Z</time>
				</trkpt>
				<trkpt lat="54.52122" lon="-1.82064">
					<ele>119</ele>
					<time>0001-01-01T00:00:00Z</time>
				</trkpt>
				<trkpt lat="54.52171" lon="-1.82256">
					<ele>121</ele>
					<time>0001-01-01T00:00:00Z</time>
				</trkpt>
				<trkpt lat="54.52231" lon="-1.82447">
					<ele>122</ele>
					<time>0001-01-01T00:00:00Z</time>
				</trkpt>
				<trkpt lat="54.52275" lon="-1.82646">
					<ele>117</ele>
					<time>0001-01-01T00:00:00Z</time>
				</trkpt>
				<trkpt lat="54.52278" lon="-1.82898">
					<ele>118</ele>
					<time>0001-01-01T00:00:00Z</time>
				</trkpt>
				<trkpt lat="54.52291" lon="-1.83177">
					<ele>119</ele>
					<time>0001-01-01T00:00:00Z</time>
				</trkpt>
				<trkpt lat="54.52294" lon="-1.83391">
					<ele>122</ele>
					<time>0001-01-01T00:00:00Z</time>
				</trkpt>
				<trkpt lat="54.52288" lon="-1.83624">
					<ele>122</ele>
					<time>0001-01-01T00:00:00Z</time>
				</trkpt>
				<trkpt lat="54.52287" lon="-1.83753">
					<ele>123</ele>
					<time>0001-01-01T00:00:00Z</time>
				</trkpt>
				<trkpt lat="54.52311" lon="-1.83762">
					<ele>123</ele>
					<time>0001-01-01T00:00:00Z</time>
				</trkpt>
				<trkpt lat="54.52457" lon="-1.83723">
					<ele>117</ele>
					<time>0001-01-01T00:00:00Z</time>
				</trkpt>
				<trkpt lat="54.52620" lon="-1.83678">
					<ele>107</ele>
					<time>0001-01-01T00:00:00Z</time>
				</trkpt>
				<trkpt lat="54.52648" lon="-1.83670">
					<ele>106</ele>
					<time>0001-01-01T00:00:00Z</time>
				</trkpt>
				<trkpt lat="54.52657" lon="-1.83536">
					<ele>107</ele>
					<time>0001-01-01T00:00:00Z</time>
				</trkpt>
				<trkpt lat="54.52659" lon="-1.83505">
					<ele>107</ele>
					<time>0001-01-01T00:00:00Z</time>
				</trkpt>
				<trkpt lat="54.52673" lon="-1.83583">
					<ele>114</ele>
					<time>0001-01-01T00:00:00Z</time>
				</trkpt>
				<trkpt lat="54.52693" lon="-1.83706">
					<ele>122</ele>
					<time>0001-01-01T00:00:00Z</time>
				</trkpt>
				<trkpt lat="54.52730" lon="-1.83792">
					<ele>123</ele>
					<time>0001-01-01T00:00:00Z</time>
				</trkpt>
				<trkpt lat="54.52850" lon="-1.83815">
					<ele>126</ele>
					<time>0001-01-01T00:00:00Z</time>
				</trkpt>
				<trkpt lat="54.52983" lon="-1.83842">
					<ele>127</ele>
					<time>0001-01-01T00:00:00Z</time>
				</trkpt>
				<trkpt lat="54.53004" lon="-1.83847">
					<ele>127</ele>
					<time>0001-01-01T00:00:00Z</time>
				</trkpt>
				<trkpt lat="54.53027" lon="-1.83972">
					<ele>128</ele>
					<time>0001-01-01T00:00:00Z</time>
				</trkpt>
				<trkpt lat="54.53062" lon="-1.84477">
					<ele>130</ele>
					<time>0001-01-01T00:00:00Z</time>
				</trkpt>
				<trkpt lat="54.53099" lon="-1.84757">
					<ele>133</ele>
					<time>0001-01-01T00:00:00Z</time>
				</trkpt>
				<trkpt lat="54.53136" lon="-1.85056">
					<ele>136</ele>
					<time>0001-01-01T00:00:00Z</time>
				</trkpt>
				<trkpt lat="54.53164" lon="-1.85201">
					<ele>135</ele>
					<time>0001-01-01T00:00:00Z</time>
				</trkpt>
				<trkpt lat="54.53169" lon="-1.85261">
					<ele>137</ele>
					<time>0001-01-01T00:00:00Z</time>
				</trkpt>
				<trkpt lat="54.53184" lon="-1.85492">
					<ele>140</ele>
					<time>0001-01-01T00:00:00Z</time>
				</trkpt>
				<trkpt lat="54.53228" lon="-1.85759">
					<ele>140</ele>
					<time>0001-01-01T00:00:00Z</time>
				</trkpt>
				<trkpt lat="54.53266" lon="-1.86045">
					<ele>139</ele>
					<time>0001-01-01T00:00:00Z</time>
				</trkpt>
				<trkpt lat="54.53264" lon="-1.86096">
					<ele>140</ele>
					<time>0001-01-01T00:00:00Z</time>
				</trkpt>
				<trkpt lat="54.53255" lon="-1.86141">
					<ele>140</ele>
					<time>0001-01-01T00:00:00Z</time>
				</trkpt>
				<trkpt lat="54.53241" lon="-1.86185">
					<ele>141</ele>
					<time>0001-01-01T00:00:00Z</time>
				</trkpt>
				<trkpt lat="54.53204" lon="-1.86292">
					<ele>141</ele>
					<time>0001-01-01T00:00:00Z</time>
				</trkpt>
				<trkpt lat="54.53201" lon="-1.86512">
					<ele>142</ele>
					<time>0001-01-01T00:00:00Z</time>
				</trkpt>
				<trkpt lat="54.53205" lon="-1.86791">
					<ele>144</ele>
					<time>0001-01-01T00:00:00Z</time>
				</trkpt>
				<trkpt lat="54.53225" lon="-1.87058">
					<ele>148</ele>
					<time>0001-01-01T00:00:00Z</time>
				</trkpt>
				<trkpt lat="54.53257" lon="-1.87312">
					<ele>151</ele>
					<time>0001-01-01T00:00:00Z</time>
				</trkpt>
				<trkpt lat="54.53289" lon="-1.87558">
					<ele>154</ele>
					<time>0001-01-01T00:00:00Z</time>
				</trkpt>
				<trkpt lat="54.53318" lon="-1.87824">
					<ele>155</ele>
					<time>0001-01-01T00:00:00Z</time>
				</trkpt>
				<trkpt lat="54.53342" lon="-1.88102">
					<ele>155</ele>
					<time>0001-01-01T00:00:00Z</time>
				</trkpt>
				<trkpt lat="54.53388" lon="-1.88324">
					<ele>155</ele>
					<time>0001-01-01T00:00:00Z</time>
				</trkpt>
				<trkpt lat="54.53417" lon="-1.88555">
					<ele>156</ele>
					<time>0001-01-01T00:00:00Z</time>
				</trkpt>
				<trkpt lat="54.53435" lon="-1.88842">
					<ele>159</ele>
					<time>0001-01-01T00:00:00Z</time>
				</trkpt>
				<trkpt lat="54.53469" lon="-1.89097">
					<ele>157</ele>
					<time>0001-01-01T00:00:00Z</time>
				</trkpt>
				<trkpt lat="54.53496" lon="-1.89342">
					<ele>157</ele>
					<time>0001-01-01T00:00:00Z</time>
				</trkpt>
				<trkpt lat="54.53514" lon="-1.89580">
					<ele>155</ele>
					<time>0001-01-01T00:00:00Z</time>
				</trkpt>
				<trkpt lat="54.53523" lon="-1.89705">
					<ele>156</ele>
					<time>0001-01-01T00:00:00Z</time>
				</trkpt>
				<trkpt lat="54.53558" lon="-1.89941">
					<ele>157</ele>
					<time>0001-01-01T00:00:00Z</time>
				</trkpt>
				<trkpt lat="54.53622" lon="-1.90192">
					<ele>157</ele>
					<time>0001-01-01T00:00:00Z</time>
				</trkpt>
				<trkpt lat="54.53706" lon="-1.90434">
					<ele>155</ele>
					<time>0001-01-01T00:00:00Z</time>
				</trkpt>
				<trkpt lat="54.53814" lon="-1.90717">
					<ele>153</ele>
					<time>0001-01-01T00:00:00Z</time>
				</trkpt>
				<trkpt lat="54.53916" lon="-1.90896">
					<ele>152</ele>
					<time>0001-01-01T00:00:00Z</time>
				</trkpt>
				<trkpt lat="54.53986" lon="-1.91131">
					<ele>153</ele>
					<time>0001-01-01T00:00:00Z</time>
				</trkpt>
				<trkpt lat="54.54015" lon="-1.91263">
					<ele>153</ele>
					<time>0001-01-01T00:00:00Z</time>
				</trkpt>
				<trkpt lat="54.54043" lon="-1.91422">
					<ele>153</ele>
					<time>0001-01-01T00:00:00Z</time>
				</trkpt>
				<trkpt lat="54.54051" lon="-1.91474">
					<ele>153</ele>
					<time>0001-01-01T00:00:00Z</time>
				</trkpt>
				<trkpt lat="54.54099" lon="-1.91687">
					<ele>154</ele>
					<time>0001-01-01T00:00:00Z</time>
				</trkpt>
				<trkpt lat="54.54116" lon="-1.91793">
					<ele>153</ele>
					<time>0001-01-01T00:00:00Z</time>
				</trkpt>
				<trkpt lat="54.54152" lon="-1.92031">
					<ele>156</ele>
					<time>0001-01-01T00:00:00Z</time>
				</trkpt>
				<trkpt lat="54.54194" lon="-1.92230">
					<ele>158</ele>
					<time>0001-01-01T00:00:00Z</time>
				</trkpt>
				<trkpt lat="54.54212" lon="-1.92354">
					<ele>153</ele>
					<time>0001-01-01T00:00:00Z</time>
				</trkpt>
				<trkpt lat="54.54211" lon="-1.92361">
					<ele>153</ele>
					<time>0001-01-01T00:00:00Z</time>
				</trkpt>
				<trkpt lat="54.54073" lon="-1.92456">
					<ele>146</ele>
					<time>0001-01-01T00:00:00Z</time>
				</trkpt>
				<trkpt lat="54.54070" lon="-1.92510">
					<ele>143</ele>
					<time>0001-01-01T00:00:00Z</time>
				</trkpt>
				<trkpt lat="54.54082" lon="-1.92542">
					<ele>143</ele>
					<time>0001-01-01T00:00:00Z</time>
				</trkpt>
				<trkpt lat="54.54096" lon="-1.92569">
					<ele>141</ele>
					<time>0001-01-01T00:00:00Z</time>
				</trkpt>
				<trkpt lat="54.54174" lon="-1.92636">
					<ele>141</ele>
					<time>0001-01-01T00:00:00Z</time>
				</trkpt>
				<trkpt lat="54.54178" lon="-1.92639">
					<ele>138</ele>
					<time>0001-01-01T00:00:00Z</time>
				</trkpt>
				<trkpt lat="54.54172" lon="-1.92644">
					<ele>141</ele>
					<time>0001-01-01T00:00:00Z</time>
				</trkpt>
				<trkpt lat="54.54188" lon="-1.92639">
					<ele>141</ele>
					<time>0001-01-01T00:00:00Z</time>
				</trkpt>
				<trkpt lat="54.54213" lon="-1.92656">
					<ele>140</ele>
					<time>0001-01-01T00:00:00Z</time>
				</trkpt>
				<trkpt lat="54.54233" lon="-1.92670">
					<ele>140</ele>
					<time>0001-01-01T00:00:00Z</time>
				</trkpt>
				<trkpt lat="54.54255" lon="-1.92680">
					<ele>140</ele>
					<time>0001-01-01T00:00:00Z</time>
				</trkpt>
				<trkpt lat="54.54266" lon="-1.92698">
					<ele>142</ele>
					<time>0001-01-01T00:00:00Z</time>
				</trkpt>
				<trkpt lat="54.54270" lon="-1.92758">
					<ele>140</ele>
					<time>0001-01-01T00:00:00Z</time>
				</trkpt>
				<trkpt lat="54.54293" lon="-1.92791">
					<ele>137</ele>
					<time>0001-01-01T00:00:00Z</time>
				</trkpt>
				<trkpt lat="54.54327" lon="-1.92852">
					<ele>137</ele>
					<time>0001-01-01T00:00:00Z</time>
				</trkpt>
				<trkpt lat="54.54339" lon="-1.92889">
					<ele>138</ele>
					<time>0001-01-01T00:00:00Z</time>
				</trkpt>
				<trkpt lat="54.54436" lon="-1.93037">
					<ele>140</ele>
					<time>0001-01-01T00:00:00Z</time>
				</trkpt>
				<trkpt lat="54.54506" lon="-1.93087">
					<ele>138</ele>
					<time>0001-01-01T00:00:00Z</time>
				</trkpt>
				<trkpt lat="54.54535" lon="-1.93113">
					<ele>138</ele>
					<time>0001-01-01T00:00:00Z</time>
				</trkpt>
				<trkpt lat="54.54558" lon="-1.93154">
					<ele>138</ele>
					<time>0001-01-01T00:00:00Z</time>
				</trkpt>
				<trkpt lat="54.54563" lon="-1.93291">
					<ele>138</ele>
					<time>0001-01-01T00:00:00Z</time>
				</trkpt>
				<trkpt lat="54.54567" lon="-1.93433">
					<ele>147</ele>
					<time>0001-01-01T00:00:00Z</time>
				</trkpt>
				<trkpt lat="54.54586" lon="-1.93587">
					<ele>155</ele>
					<time>0001-01-01T00:00:00Z</time>
				</trkpt>
				<trkpt lat="54.54598" lon="-1.93695">
					<ele>163</ele>
					<time>0001-01-01T00:00:00Z</time>
				</trkpt>
				<trkpt lat="54.54602" lon="-1.93742">
					<ele>164</ele>
					<time>0001-01-01T00:00:00Z</time>
				</trkpt>
				<trkpt lat="54.54628" lon="-1.93967">
					<ele>168</ele>
					<time>0001-01-01T00:00:00Z</time>
				</trkpt>
				<trkpt lat="54.54669" lon="-1.94208">
					<ele>173</ele>
					<time>0001-01-01T00:00:00Z</time>
				</trkpt>
				<trkpt lat="54.54719" lon="-1.94406">
					<ele>178</ele>
					<time>0001-01-01T00:00:00Z</time>
				</trkpt>
				<trkpt lat="54.54784" lon="-1.94624">
					<ele>180</ele>
					<time>0001-01-01T00:00:00Z</time>
				</trkpt>
				<trkpt lat="54.54867" lon="-1.94908">
					<ele>180</ele>
					<time>0001-01-01T00:00:00Z</time>
				</trkpt>
				<trkpt lat="54.54959" lon="-1.95224">
					<ele>184</ele>
					<time>0001-01-01T00:00:00Z</time>
				</trkpt>
				<trkpt lat="54.55047" lon="-1.95530">
					<ele>187</ele>
					<time>0001-01-01T00:00:00Z</time>
				</trkpt>
				<trkpt lat="54.55131" lon="-1.95818">
					<ele>188</ele>
					<time>0001-01-01T00:00:00Z</time>
				</trkpt>
				<trkpt lat="54.55192" lon="-1.96055">
					<ele>188</ele>
					<time>0001-01-01T00:00:00Z</time>
				</trkpt>
				<trkpt lat="54.55205" lon="-1.96265">
					<ele>192</ele>
					<time>0001-01-01T00:00:00Z</time>
				</trkpt>
				<trkpt lat="54.55171" lon="-1.96465">
					<ele>195</ele>
					<time>0001-01-01T00:00:00Z</time>
				</trkpt>
				<trkpt lat="54.55164" lon="-1.96654">
					<ele>198</ele>
					<time>0001-01-01T00:00:00Z</time>
				</trkpt>
				<trkpt lat="54.55170" lon="-1.96695">
					<ele>198</ele>
					<time>0001-01-01T00:00:00Z</time>
				</trkpt>
				<trkpt lat="54.55234" lon="-1.96868">
					<ele>201</ele>
					<time>0001-01-01T00:00:00Z</time>
				</trkpt>
				<trkpt lat="54.55478" lon="-1.96991">
					<ele>201</ele>
					<time>0001-01-01T00:00:00Z</time>
				</trkpt>
				<trkpt lat="54.55483" lon="-1.97240">
					<ele>204</ele>
					<time>0001-01-01T00:00:00Z</time>
				</trkpt>
				<trkpt lat="54.55448" lon="-1.97486">
					<ele>208</ele>
					<time>0001-01-01T00:00:00Z</time>
				</trkpt>
				<trkpt lat="54.55444" lon="-1.97620">
					<ele>213</ele>
					<time>0001-01-01T00:00:00Z</time>
				</trkpt>
				<trkpt lat="54.55478" lon="-1.97678">
					<ele>214</ele>
					<time>0001-01-01T00:00:00Z</time>
				</trkpt>
				<trkpt lat="54.55521" lon="-1.97689">
					<ele>214</ele>
					<time>0001-01-01T00:00:00Z</time>
				</trkpt>
				<trkpt lat="54.55648" lon="-1.97934">
					<ele>214</ele>
					<time>0001-01-01T00:00:00Z</time>
				</trkpt>
				<trkpt lat="54.55738" lon="-1.98094">
					<ele>216</ele>
					<time>0001-01-01T00:00:00Z</time>
				</trkpt>
				<trkpt lat="54.55835" lon="-1.98149">
					<ele>214</ele>
					<time>0001-01-01T00:00:00Z</time>
				</trkpt>
				<trkpt lat="54.55865" lon="-1.98160">
					<ele>214</ele>
					<time>0001-01-01T00:00:00Z</time>
				</trkpt>
				<trkpt lat="54.56053" lon="-1.98145">
					<ele>208</ele>
					<time>0001-01-01T00:00:00Z</time>
				</trkpt>
				<trkpt lat="54.56222" lon="-1.98093">
					<ele>205</ele>
					<time>0001-01-01T00:00:00Z</time>
				</trkpt>
				<trkpt lat="54.56302" lon="-1.98110">
					<ele>207</ele>
					<time>0001-01-01T00:00:00Z</time>
				</trkpt>
				<trkpt lat="54.56377" lon="-1.98094">
					<ele>205</ele>
					<time>0001-01-01T00:00:00Z</time>
				</trkpt>
				<trkpt lat="54.56516" lon="-1.98091">
					<ele>193</ele>
					<time>0001-01-01T00:00:00Z</time>
				</trkpt>
				<trkpt lat="54.56694" lon="-1.98063">
					<ele>188</ele>
					<time>0001-01-01T00:00:00Z</time>
				</trkpt>
				<trkpt lat="54.56754" lon="-1.98070">
					<ele>186</ele>
					<time>0001-01-01T00:00:00Z</time>
				</trkpt>
				<trkpt lat="54.56948" lon="-1.98098">
					<ele>183</ele>
					<time>0001-01-01T00:00:00Z</time>
				</trkpt>
				<trkpt lat="54.56956" lon="-1.98103">
					<ele>183</ele>
					<time>0001-01-01T00:00:00Z</time>
				</trkpt>
				<trkpt lat="54.56984" lon="-1.98138">
					<ele>182</ele>
					<time>0001-01-01T00:00:00Z</time>
				</trkpt>
				<trkpt lat="54.57090" lon="-1.98111">
					<ele>179</ele>
					<time>0001-01-01T00:00:00Z</time>
				</trkpt>
				<trkpt lat="54.57099" lon="-1.98108">
					<ele>179</ele>
					<time>0001-01-01T00:00:00Z</time>
				</trkpt>
				<trkpt lat="54.57158" lon="-1.98148">
					<ele>177</ele>
					<time>0001-01-01T00:00:00Z</time>
				</trkpt>
				<trkpt lat="54.57255" lon="-1.98310">
					<ele>178</ele>
					<time>0001-01-01T00:00:00Z</time>
				</trkpt>
				<trkpt lat="54.57334" lon="-1.98432">
					<ele>178</ele>
					<time>0001-01-01T00:00:00Z</time>
				</trkpt>
				<trkpt lat="54.57366" lon="-1.98491">
					<ele>176</ele>
					<time>0001-01-01T00:00:00Z</time>
				</trkpt>
				<trkpt lat="54.57482" lon="-1.98636">
					<ele>173</ele>
					<time>0001-01-01T00:00:00Z</time>
				</trkpt>
				<trkpt lat="54.57528" lon="-1.98719">
					<ele>170</ele>
					<time>0001-01-01T00:00:00Z</time>
				</trkpt>
				<trkpt lat="54.57582" lon="-1.98751">
					<ele>168</ele>
					<time>0001-01-01T00:00:00Z</time>
				</trkpt>
				<trkpt lat="54.57614" lon="-1.98765">
					<ele>167</ele>
					<time>0001-01-01T00:00:00Z</time>
				</trkpt>
				<trkpt lat="54.57672" lon="-1.98809">
					<ele>169</ele>
					<time>0001-01-01T00:00:00Z</time>
				</trkpt>
				<trkpt lat="54.57740" lon="-1.98900">
					<ele>173</ele>
					<time>0001-01-01T00:00:00Z</time>
				</trkpt>
				<trkpt lat="54.57791" lon="-1.99024">
					<ele>179</ele>
					<time>0001-01-01T00:00:00Z</time>
				</trkpt>
				<trkpt lat="54.57850" lon="-1.99166">
					<ele>184</ele>
					<time>0001-01-01T00:00:00Z</time>
				</trkpt>
				<trkpt lat="54.57911" lon="-1.99304">
					<ele>185</ele>
					<time>0001-01-01T00:00:00Z</time>
				</trkpt>
				<trkpt lat="54.58014" lon="-1.99489">
					<ele>188</ele>
					<time>0001-01-01T00:00:00Z</time>
				</trkpt>
				<trkpt lat="54.58105" lon="-1.99597">
					<ele>189</ele>
					<time>0001-01-01T00:00:00Z</time>
				</trkpt>
				<trkpt lat="54.58110" lon="-1.99605">
					<ele>189</ele>
					<time>0001-01-01T00:00:00Z</time>
				</trkpt>
				<trkpt lat="54.58127" lon="-1.99663">
					<ele>191</ele>
					<time>0001-01-01T00:00:00Z</time>
				</trkpt>
				<trkpt lat="54.58161" lon="-1.99839">
					<ele>194</ele>
					<time>0001-01-01T00:00:00Z</time>
				</trkpt>
				<trkpt lat="54.58211" lon="-1.99984">
					<ele>198</ele>
					<time>0001-01-01T00:00:00Z</time>
				</trkpt>
				<trkpt lat="54.58237" lon="-2.00007">
					<ele>199</ele>
					<time>0001-01-01T00:00:00Z</time>
				</trkpt>
				<trkpt lat="54.58345" lon="-2.00009">
					<ele>201</ele>
					<time>0001-01-01T00:00:00Z</time>
				</trkpt>
				<trkpt lat="54.58404" lon="-2.00029">
					<ele>207</ele>
					<time>0001-01-01T00:00:00Z</time>
				</trkpt>
				<trkpt lat="54.58459" lon="-2.00058">
					<ele>210</ele>
					<time>0001-01-01T00:00:00Z</time>
				</trkpt>
				<trkpt lat="54.58518" lon="-2.00097">
					<ele>206</ele>
					<time>0001-01-01T00:00:00Z</time>
				</trkpt>
				<trkpt lat="54.58562" lon="-2.00166">
					<ele>206</ele>
					<time>0001-01-01T00:00:00Z</time>
				</trkpt>
				<trkpt lat="54.58571" lon="-2.00197">
					<ele>206</ele>
					<time>0001-01-01T00:00:00Z</time>
				</trkpt>
				<trkpt lat="54.58627" lon="-2.00320">
					<ele>213</ele>
					<time>0001-01-01T00:00:00Z</time>
				</trkpt>
				<trkpt lat="54.58695" lon="-2.00424">
					<ele>217</ele>
					<time>0001-01-01T00:00:00Z</time>
				</trkpt>
				<trkpt lat="54.58788" lon="-2.00481">
					<ele>217</ele>
					<time>0001-01-01T00:00:00Z</time>
				</trkpt>
				<trkpt lat="54.58865" lon="-2.00563">
					<ele>222</ele>
					<time>0001-01-01T00:00:00Z</time>
				</trkpt>
				<trkpt lat="54.58936" lon="-2.00631">
					<ele>223</ele>
					<time>0001-01-01T00:00:00Z</time>
				</trkpt>
				<trkpt lat="54.58974" lon="-2.00764">
					<ele>226</ele>
					<time>0001-01-01T00:00:00Z</time>
				</trkpt>
				<trkpt lat="54.58997" lon="-2.00839">
					<ele>229</ele>
					<time>0001-01-01T00:00:00Z</time>
				</trkpt>
				<trkpt lat="54.59075" lon="-2.00948">
					<ele>229</ele>
					<time>0001-01-01T00:00:00Z</time>
				</trkpt>
				<trkpt lat="54.59174" lon="-2.01047">
					<ele>223</ele>
					<time>0001-01-01T00:00:00Z</time>
				</trkpt>
				<trkpt lat="54.59192" lon="-2.01061">
					<ele>223</ele>
					<time>0001-01-01T00:00:00Z</time>
				</trkpt>
				<trkpt lat="54.59308" lon="-2.01053">
					<ele>223</ele>
					<time>0001-01-01T00:00:00Z</time>
				</trkpt>
				<trkpt lat="54.59335" lon="-2.01047">
					<ele>223</ele>
					<time>0001-01-01T00:00:00Z</time>
				</trkpt>
				<trkpt lat="54.59399" lon="-2.01077">
					<ele>223</ele>
					<time>0001-01-01T00:00:00Z</time>
				</trkpt>
				<trkpt lat="54.59526" lon="-2.01093">
					<ele>221</ele>
					<time>0001-01-01T00:00:00Z</time>
				</trkpt>
				<trkpt lat="54.59566" lon="-2.01078">
					<ele>221</ele>
					<time>0001-01-01T00:00:00Z</time>
				</trkpt>
				<trkpt lat="54.59605" lon="-2.01066">
					<ele>222</ele>
					<time>0001-01-01T00:00:00Z</time>
				</trkpt>
				<trkpt lat="54.59632" lon="-2.01116">
					<ele>222</ele>
					<time>0001-01-01T00:00:00Z</time>
				</trkpt>
				<trkpt lat="54.59705" lon="-2.01330">
					<ele>219</ele>
					<time>0001-01-01T00:00:00Z</time>
				</trkpt>
				<trkpt lat="54.59787" lon="-2.01533">
					<ele>221</ele>
					<time>0001-01-01T00:00:00Z</time>
				</trkpt>
				<trkpt lat="54.59872" lon="-2.01716">
					<ele>222</ele>
					<time>0001-01-01T00:00:00Z</time>
				</trkpt>
				<trkpt lat="54.59954" lon="-2.01896">
					<ele>225</ele>
					<time>0001-01-01T00:00:00Z</time>
				</trkpt>
				<trkpt lat="54.60064" lon="-2.02174">
					<ele>222</ele>
					<time>0001-01-01T00:00:00Z</time>
				</trkpt>
				<trkpt lat="54.60153" lon="-2.02482">
					<ele>222</ele>
					<time>0001-01-01T00:00:00Z</time>
				</trkpt>
				<trkpt lat="54.60199" lon="-2.02703">
					<ele>224</ele>
					<time>0001-01-01T00:00:00Z</time>
				</trkpt>
				<trkpt lat="54.60242" lon="-2.02909">
					<ele>226</ele>
					<time>0001-01-01T00:00:00Z</time>
				</trkpt>
				<trkpt lat="54.60306" lon="-2.03107">
					<ele>230</ele>
					<time>0001-01-01T00:00:00Z</time>
				</trkpt>
				<trkpt lat="54.60352" lon="-2.03280">
					<ele>231</ele>
					<time>0001-01-01T00:00:00Z</time>
				</trkpt>
				<trkpt lat="54.60409" lon="-2.03459">
					<ele>228</ele>
					<time>0001-01-01T00:00:00Z</time>
				</trkpt>
				<trkpt lat="54.60514" lon="-2.03737">
					<ele>227</ele>
					<time>0001-01-01T00:00:00Z</time>
				</trkpt>
				<trkpt lat="54.60654" lon="-2.04015">
					<ele>227</ele>
					<time>0001-01-01T00:00:00Z</time>
				</trkpt>
				<trkpt lat="54.60738" lon="-2.04095">
					<ele>228</ele>
					<time>0001-01-01T00:00:00Z</time>
				</trkpt>
				<trkpt lat="54.60768" lon="-2.04254">
					<ele>228</ele>
					<time>0001-01-01T00:00:00Z</time>
				</trkpt>
				<trkpt lat="54.60818" lon="-2.04520">
					<ele>229</ele>
					<time>0001-01-01T00:00:00Z</time>
				</trkpt>
				<trkpt lat="54.60823" lon="-2.04543">
					<ele>228</ele>
					<time>0001-01-01T00:00:00Z</time>
				</trkpt>
				<trkpt lat="54.60831" lon="-2.04709">
					<ele>231</ele>
					<time>0001-01-01T00:00:00Z</time>
				</trkpt>
				<trkpt lat="54.60857" lon="-2.04869">
					<ele>235</ele>
					<time>0001-01-01T00:00:00Z</time>
				</trkpt>
				<trkpt lat="54.60866" lon="-2.04943">
					<ele>235</ele>
					<time>0001-01-01T00:00:00Z</time>
				</trkpt>
				<trkpt lat="54.60880" lon="-2.05189">
					<ele>237</ele>
					<time>0001-01-01T00:00:00Z</time>
				</trkpt>
				<trkpt lat="54.60880" lon="-2.05231">
					<ele>239</ele>
					<time>0001-01-01T00:00:00Z</time>
				</trkpt>
				<trkpt lat="54.60875" lon="-2.05472">
					<ele>240</ele>
					<time>0001-01-01T00:00:00Z</time>
				</trkpt>
				<trkpt lat="54.60879" lon="-2.05571">
					<ele>239</ele>
					<time>0001-01-01T00:00:00Z</time>
				</trkpt>
				<trkpt lat="54.60935" lon="-2.05751">
					<ele>237</ele>
					<time>0001-01-01T00:00:00Z</time>
				</trkpt>
				<trkpt lat="54.60951" lon="-2.05801">
					<ele>235</ele>
					<time>0001-01-01T00:00:00Z</time>
				</trkpt>
				<trkpt lat="54.60955" lon="-2.05861">
					<ele>234</ele>
					<time>0001-01-01T00:00:00Z</time>
				</trkpt>
				<trkpt lat="54.60952" lon="-2.05933">
					<ele>234</ele>
					<time>0001-01-01T00:00:00Z</time>
				</trkpt>
				<trkpt lat="54.60980" lon="-2.05984">
					<ele>234</ele>
					<time>0001-01-01T00:00:00Z</time>
				</trkpt>
				<trkpt lat="54.61040" lon="-2.06100">
					<ele>236</ele>
					<time>0001-01-01T00:00:00Z</time>
				</trkpt>
				<trkpt lat="54.61089" lon="-2.06215">
					<ele>233</ele>
					<time>0001-01-01T00:00:00Z</time>
				</trkpt>
				<trkpt lat="54.61128" lon="-2.06442">
					<ele>233</ele>
					<time>0001-01-01T00:00:00Z</time>
				</trkpt>
				<trkpt lat="54.61141" lon="-2.06479">
					<ele>233</ele>
					<time>0001-01-01T00:00:00Z</time>
				</trkpt>
				<trkpt lat="54.61293" lon="-2.06615">
					<ele>232</ele>
					<time>0001-01-01T00:00:00Z</time>
				</trkpt>
				<trkpt lat="54.61326" lon="-2.06670">
					<ele>233</ele>
					<time>0001-01-01T00:00:00Z</time>
				</trkpt>
				<trkpt lat="54.61411" lon="-2.06787">
					<ele>229</ele>
					<time>0001-01-01T00:00:00Z</time>
				</trkpt>
				<trkpt lat="54.61554" lon="-2.06992">
					<ele>227</ele>
					<time>0001-01-01T00:00:00Z</time>
				</trkpt>
				<trkpt lat="54.61580" lon="-2.07026">
					<ele>227</ele>
					<time>0001-01-01T00:00:00Z</time>
				</trkpt>
				<trkpt lat="54.61622" lon="-2.07061">
					<ele>227</ele>
					<time>0001-01-01T00:00:00Z</time>
				</trkpt>
				<trkpt lat="54.61640" lon="-2.07141">
					<ele>227</ele>
					<time>0001-01-01T00:00:00Z</time>
				</trkpt>
				<trkpt lat="54.61632" lon="-2.07173">
					<ele>227</ele>
					<time>0001-01-01T00:00:00Z</time>
				</trkpt>
				<trkpt lat="54.61581" lon="-2.07370">
					<ele>231</ele>
					<time>0001-01-01T00:00:00Z</time>
				</trkpt>
				<trkpt lat="54.61578" lon="-2.07431">
					<ele>232</ele>
					<time>0001-01-01T00:00:00Z</time>
				</trkpt>
				<trkpt lat="54.61591" lon="-2.07614">
					<ele>233</ele>
					<time>0001-01-01T00:00:00Z</time>
				</trkpt>
				<trkpt lat="54.61588" lon="-2.07707">
					<ele>232</ele>
					<time>0001-01-01T00:00:00Z</time>
				</trkpt>
				<trkpt lat="54.61603" lon="-2.07765">
					<ele>232</ele>
					<time>0001-01-01T00:00:00Z</time>
				</trkpt>
				<trkpt lat="54.61613" lon="-2.07818">
					<ele>232</ele>
					<time>0001-01-01T00:00:00Z</time>
				</trkpt>
				<trkpt lat="54.61622" lon="-2.07851">
					<ele>233</ele>
					<time>0001-01-01T00:00:00Z</time>
				</trkpt>
				<trkpt lat="54.61635" lon="-2.07894">
					<ele>233</ele>
					<time>0001-01-01T00:00:00Z</time>
				</trkpt>
				<trkpt lat="54.61676" lon="-2.08091">
					<ele>238</ele>
					<time>0001-01-01T00:00:00Z</time>
				</trkpt>
				<trkpt lat="54.61730" lon="-2.08271">
					<ele>240</ele>
					<time>0001-01-01T00:00:00Z</time>
				</trkpt>
				<trkpt lat="54.61874" lon="-2.08510">
					<ele>237</ele>
					<time>0001-01-01T00:00:00Z</time>
				</trkpt>
				<trkpt lat="54.61953" lon="-2.08520">
					<ele>235</ele>
					<time>0001-01-01T00:00:00Z</time>
				</trkpt>
				<trkpt lat="54.62176" lon="-2.08512">
					<ele>223</ele>
					<time>0001-01-01T00:00:00Z</time>
				</trkpt>
				<trkpt lat="54.62226" lon="-2.08459">
					<ele>223</ele>
					<time>0001-01-01T00:00:00Z</time>
				</trkpt>
				<trkpt lat="54.62260" lon="-2.08396">
					<ele>224</ele>
					<time>0001-01-01T00:00:00Z</time>
				</trkpt>
				<trkpt lat="54.62351" lon="-2.08335">
					<ele>229</ele>
					<time>0001-01-01T00:00:00Z</time>
				</trkpt>
				<trkpt lat="54.62371" lon="-2.08324">
					<ele>230</ele>
					<time>0001-01-01T00:00:00Z</time>
				</trkpt>
				<trkpt lat="54.62413" lon="-2.08301">
					<ele>231</ele>
					<time>0001-01-01T00:00:00Z</time>
				</trkpt>
				<trkpt lat="54.62423" lon="-2.08316">
					<ele>230</ele>
					<time>0001-01-01T00:00:00Z</time>
				</trkpt>
				<trkpt lat="54.62478" lon="-2.08349">
					<ele>231</ele>
					<time>0001-01-01T00:00:00Z</time>
				</trkpt>
				<trkpt lat="54.62594" lon="-2.08382">
					<ele>232</ele>
					<time>0001-01-01T00:00:00Z</time>
				</trkpt>
				<trkpt lat="54.62599" lon="-2.08429">
					<ele>234</ele>
					<time>0001-01-01T00:00:00Z</time>
				</trkpt>
				<trkpt lat="54.62560" lon="-2.08480">
					<ele>235</ele>
					<time>0001-01-01T00:00:00Z</time>
				</trkpt>
				<trkpt lat="54.62545" lon="-2.08513">
					<ele>236</ele>
					<time>0001-01-01T00:00:00Z</time>
				</trkpt>
				<trkpt lat="54.62561" lon="-2.08606">
					<ele>237</ele>
					<time>0001-01-01T00:00:00Z</time>
				</trkpt>
				<trkpt lat="54.62588" lon="-2.08809">
					<ele>235</ele>
					<time>0001-01-01T00:00:00Z</time>
				</trkpt>
				<trkpt lat="54.62609" lon="-2.09006">
					<ele>238</ele>
					<time>0001-01-01T00:00:00Z</time>
				</trkpt>
				<trkpt lat="54.62615" lon="-2.09117">
					<ele>239</ele>
					<time>0001-01-01T00:00:00Z</time>
				</trkpt>
				<trkpt lat="54.62607" lon="-2.09270">
					<ele>244</ele>
					<time>0001-01-01T00:00:00Z</time>
				</trkpt>
				<trkpt lat="54.62621" lon="-2.09467">
					<ele>248</ele>
					<time>0001-01-01T00:00:00Z</time>
				</trkpt>
				<trkpt lat="54.62681" lon="-2.09701">
					<ele>249</ele>
					<time>0001-01-01T00:00:00Z</time>
				</trkpt>
				<trkpt lat="54.62739" lon="-2.09868">
					<ele>250</ele>
					<time>0001-01-01T00:00:00Z</time>
				</trkpt>
				<trkpt lat="54.62837" lon="-2.10123">
					<ele>248</ele>
					<time>0001-01-01T00:00:00Z</time>
				</trkpt>
				<trkpt lat="54.62938" lon="-2.10355">
					<ele>251</ele>
					<time>0001-01-01T00:00:00Z</time>
				</trkpt>
				<trkpt lat="54.63024" lon="-2.10558">
					<ele>249</ele>
					<time>0001-01-01T00:00:00Z</time>
				</trkpt>
				<trkpt lat="54.63129" lon="-2.10725">
					<ele>251</ele>
					<time>0001-01-01T00:00:00Z</time>
				</trkpt>
				<trkpt lat="54.63224" lon="-2.10888">
					<ele>252</ele>
					<time>0001-01-01T00:00:00Z</time>
				</trkpt>
				<trkpt lat="54.63293" lon="-2.11082">
					<ele>251</ele>
					<time>0001-01-01T00:00:00Z</time>
				</trkpt>
				<trkpt lat="54.63337" lon="-2.11171">
					<ele>251</ele>
					<time>0001-01-01T00:00:00Z</time>
				</trkpt>
				<trkpt lat="54.63474" lon="-2.11440">
					<ele>250</ele>
					<time>0001-01-01T00:00:00Z</time>
				</trkpt>
				<trkpt lat="54.63505" lon="-2.11699">
					<ele>245</ele>
					<time>0001-01-01T00:00:00Z</time>
				</trkpt>
				<trkpt lat="54.63563" lon="-2.11875">
					<ele>243</ele>
					<time>0001-01-01T00:00:00Z</time>
				</trkpt>
				<trkpt lat="54.63628" lon="-2.12029">
					<ele>242</ele>
					<time>0001-01-01T00:00:00Z</time>
				</trkpt>
				<trkpt lat="54.63669" lon="-2.12210">
					<ele>244</ele>
					<time>0001-01-01T00:00:00Z</time>
				</trkpt>
				<trkpt lat="54.63734" lon="-2.12363">
					<ele>244</ele>
					<time>0001-01-01T00:00:00Z</time>
				</trkpt>
				<trkpt lat="54.63818" lon="-2.12498">
					<ele>247</ele>
					<time>0001-01-01T00:00:00Z</time>
				</trkpt>
				<trkpt lat="54.63896" lon="-2.12656">
					<ele>246</ele>
					<time>0001-01-01T00:00:00Z</time>
				</trkpt>
				<trkpt lat="54.63978" lon="-2.12849">
					<ele>248</ele>
					<time>0001-01-01T00:00:00Z</time>
				</trkpt>
				<trkpt lat="54.64045" lon="-2.12983">
					<ele>251</ele>
					<time>0001-01-01T00:00:00Z</time>
				</trkpt>
				<trkpt lat="54.64103" lon="-2.13056">
					<ele>252</ele>
					<time>0001-01-01T00:00:00Z</time>
				</trkpt>
				<trkpt lat="54.64206" lon="-2.13125">
					<ele>257</ele>
					<time>0001-01-01T00:00:00Z</time>
				</trkpt>
				<trkpt lat="54.64216" lon="-2.13137">
					<ele>257</ele>
					<time>0001-01-01T00:00:00Z</time>
				</trkpt>
				<trkpt lat="54.64313" lon="-2.13369">
					<ele>262</ele>
					<time>0001-01-01T00:00:00Z</time>
				</trkpt>
				<trkpt lat="54.64368" lon="-2.13524">
					<ele>264</ele>
					<time>0001-01-01T00:00:00Z</time>
				</trkpt>
				<trkpt lat="54.64442" lon="-2.13689">
					<ele>265</ele>
					<time>0001-01-01T00:00:00Z</time>
				</trkpt>
				<trkpt lat="54.64547" lon="-2.13889">
					<ele>267</ele>
					<time>0001-01-01T00:00:00Z</time>
				</trkpt>
				<trkpt lat="54.64644" lon="-2.14107">
					<ele>271</ele>
					<time>0001-01-01T00:00:00Z</time>
				</trkpt>
				<trkpt lat="54.64694" lon="-2.14284">
					<ele>274</ele>
					<time>0001-01-01T00:00:00Z</time>
				</trkpt>
				<trkpt lat="54.64743" lon="-2.14478">
					<ele>275</ele>
					<time>0001-01-01T00:00:00Z</time>
				</trkpt>
				<trkpt lat="54.64790" lon="-2.14705">
					<ele>275</ele>
					<time>0001-01-01T00:00:00Z</time>
				</trkpt>
				<trkpt lat="54.64803" lon="-2.14854">
					<ele>276</ele>
					<time>0001-01-01T00:00:00Z</time>
				</trkpt>
				<trkpt lat="54.64790" lon="-2.15058">
					<ele>281</ele>
					<time>0001-01-01T00:00:00Z</time>
				</trkpt>
				<trkpt lat="54.64821" lon="-2.15187">
					<ele>283</ele>
					<time>0001-01-01T00:00:00Z</time>
				</trkpt>
				<trkpt lat="54.64892" lon="-2.15357">
					<ele>282</ele>
					<time>0001-01-01T00:00:00Z</time>
				</trkpt>
				<trkpt lat="54.64951" lon="-2.15855">
					<ele>287</ele>
					<time>0001-01-01T00:00:00Z</time>
				</trkpt>
				<trkpt lat="54.64980" lon="-2.16095">
					<ele>289</ele>
					<time>0001-01-01T00:00:00Z</time>
				</trkpt>
				<trkpt lat="54.65014" lon="-2.16440">
					<ele>289</ele>
					<time>0001-01-01T00:00:00Z</time>
				</trkpt>
				<trkpt lat="54.65068" lon="-2.16605">
					<ele>287</ele>
					<time>0001-01-01T00:00:00Z</time>
				</trkpt>
				<trkpt lat="54.65081" lon="-2.16763">
					<ele>288</ele>
					<time>0001-01-01T00:00:00Z</time>
				</trkpt>
				<trkpt lat="54.65084" lon="-2.16820">
					<ele>288</ele>
					<time>0001-01-01T00:00:00Z</time>
				</trkpt>
				<trkpt lat="54.65085" lon="-2.16854">
					<ele>288</ele>
					<time>0001-01-01T00:00:00Z</time>
				</trkpt>
				<trkpt lat="54.65084" lon="-2.16972">
					<ele>292</ele>
					<time>0001-01-01T00:00:00Z</time>
				</trkpt>
				<trkpt lat="54.65079" lon="-2.17190">
					<ele>299</ele>
					<time>0001-01-01T00:00:00Z</time>
				</trkpt>
				<trkpt lat="54.65080" lon="-2.17227">
					<ele>300</ele>
					<time>0001-01-01T00:00:00Z</time>
				</trkpt>
				<trkpt lat="54.65078" lon="-2.17252">
					<ele>300</ele>
					<time>0001-01-01T00:00:00Z</time>
				</trkpt>
				<trkpt lat="54.65093" lon="-2.17405">
					<ele>301</ele>
					<time>0001-01-01T00:00:00Z</time>
				</trkpt>
				<trkpt lat="54.65159" lon="-2.17634">
					<ele>306</ele>
					<time>0001-01-01T00:00:00Z</time>
				</trkpt>
				<trkpt lat="54.65142" lon="-2.17650">
					<ele>307</ele>
					<time>0001-01-01T00:00:00Z</time>
				</trkpt>
				<trkpt lat="54.65165" lon="-2.17662">
					<ele>310</ele>
					<time>0001-01-01T00:00:00Z</time>
				</trkpt>
				<trkpt lat="54.65199" lon="-2.17809">
					<ele>314</ele>
					<time>0001-01-01T00:00:00Z</time>
				</trkpt>
				<trkpt lat="54.65213" lon="-2.17864">
					<ele>317</ele>
					<time>0001-01-01T00:00:00Z</time>
				</trkpt>
				<trkpt lat="54.65310" lon="-2.18064">
					<ele>320</ele>
					<time>0001-01-01T00:00:00Z</time>
				</trkpt>
				<trkpt lat="54.65385" lon="-2.18206">
					<ele>326</ele>
					<time>0001-01-01T00:00:00Z</time>
				</trkpt>
				<trkpt lat="54.65446" lon="-2.18380">
					<ele>329</ele>
					<time>0001-01-01T00:00:00Z</time>
				</trkpt>
				<trkpt lat="54.65458" lon="-2.18443">
					<ele>330</ele>
					<time>0001-01-01T00:00:00Z</time>
				</trkpt>
				<trkpt lat="54.65469" lon="-2.18511">
					<ele>336</ele>
					<time>0001-01-01T00:00:00Z</time>
				</trkpt>
				<trkpt lat="54.65499" lon="-2.18766">
					<ele>339</ele>
					<time>0001-01-01T00:00:00Z</time>
				</trkpt>
				<trkpt lat="54.65552" lon="-2.18933">
					<ele>343</ele>
					<time>0001-01-01T00:00:00Z</time>
				</trkpt>
				<trkpt lat="54.65632" lon="-2.19212">
					<ele>351</ele>
					<time>0001-01-01T00:00:00Z</time>
				</trkpt>
				<trkpt lat="54.65656" lon="-2.19269">
					<ele>353</ele>
					<time>0001-01-01T00:00:00Z</time>
				</trkpt>
				<trkpt lat="54.65689" lon="-2.19406">
					<ele>357</ele>
					<time>0001-01-01T00:00:00Z</time>
				</trkpt>
				<trkpt lat="54.65714" lon="-2.19576">
					<ele>365</ele>
					<time>0001-01-01T00:00:00Z</time>
				</trkpt>
				<trkpt lat="54.65750" lon="-2.19722">
					<ele>371</ele>
					<time>0001-01-01T00:00:00Z</time>
				</trkpt>
				<trkpt lat="54.65824" lon="-2.19837">
					<ele>374</ele>
					<time>0001-01-01T00:00:00Z</time>
				</trkpt>
				<trkpt lat="54.65925" lon="-2.19931">
					<ele>376</ele>
					<time>0001-01-01T00:00:00Z</time>
				</trkpt>
				<trkpt lat="54.66020" lon="-2.20122">
					<ele>378</ele>
					<time>0001-01-01T00:00:00Z</time>
				</trkpt>
				<trkpt lat="54.66108" lon="-2.20284">
					<ele>378</ele>
					<time>0001-01-01T00:00:00Z</time>
				</trkpt>
				<trkpt lat="54.66167" lon="-2.20463">
					<ele>377</ele>
					<time>0001-01-01T00:00:00Z</time>
				</trkpt>
				<trkpt lat="54.66234" lon="-2.20610">
					<ele>378</ele>
					<time>0001-01-01T00:00:00Z</time>
				</trkpt>
				<trkpt lat="54.66330" lon="-2.20800">
					<ele>378</ele>
					<time>0001-01-01T00:00:00Z</time>
				</trkpt>
				<trkpt lat="54.66398" lon="-2.21015">
					<ele>379</ele>
					<time>0001-01-01T00:00:00Z</time>
				</trkpt>
				<trkpt lat="54.66462" lon="-2.21218">
					<ele>379</ele>
					<time>0001-01-01T00:00:00Z</time>
				</trkpt>
				<trkpt lat="54.66527" lon="-2.21400">
					<ele>379</ele>
					<time>0001-01-01T00:00:00Z</time>
				</trkpt>
				<trkpt lat="54.66584" lon="-2.21536">
					<ele>380</ele>
					<time>0001-01-01T00:00:00Z</time>
				</trkpt>
				<trkpt lat="54.66679" lon="-2.21681">
					<ele>384</ele>
					<time>0001-01-01T00:00:00Z</time>
				</trkpt>
				<trkpt lat="54.66783" lon="-2.21794">
					<ele>384</ele>
					<time>0001-01-01T00:00:00Z</time>
				</trkpt>
				<trkpt lat="54.66899" lon="-2.21908">
					<ele>383</ele>
					<time>0001-01-01T00:00:00Z</time>
				</trkpt>
				<trkpt lat="54.67020" lon="-2.22060">
					<ele>381</ele>
					<time>0001-01-01T00:00:00Z</time>
				</trkpt>
				<trkpt lat="54.67119" lon="-2.22238">
					<ele>382</ele>
					<time>0001-01-01T00:00:00Z</time>
				</trkpt>
				<trkpt lat="54.67160" lon="-2.22286">
					<ele>383</ele>
					<time>0001-01-01T00:00:00Z</time>
				</trkpt>
				<trkpt lat="54.67178" lon="-2.22339">
					<ele>383</ele>
					<time>0001-01-01T00:00:00Z</time>
				</trkpt>
				<trkpt lat="54.67218" lon="-2.22484">
					<ele>386</ele>
					<time>0001-01-01T00:00:00Z</time>
				</trkpt>
				<trkpt lat="54.67297" lon="-2.22630">
					<ele>388</ele>
					<time>0001-01-01T00:00:00Z</time>
				</trkpt>
				<trkpt lat="54.67403" lon="-2.22799">
					<ele>392</ele>
					<time>0001-01-01T00:00:00Z</time>
				</trkpt>
				<trkpt lat="54.67496" lon="-2.22825">
					<ele>390</ele>
					<time>0001-01-01T00:00:00Z</time>
				</trkpt>
				<trkpt lat="54.67551" lon="-2.22840">
					<ele>389</ele>
					<time>0001-01-01T00:00:00Z</time>
				</trkpt>
				<trkpt lat="54.67593" lon="-2.22908">
					<ele>388</ele>
					<time>0001-01-01T00:00:00Z</time>
				</trkpt>
				<trkpt lat="54.67639" lon="-2.22897">
					<ele>389</ele>
					<time>0001-01-01T00:00:00Z</time>
				</trkpt>
				<trkpt lat="54.67653" lon="-2.22880">
					<ele>391</ele>
					<time>0001-01-01T00:00:00Z</time>
				</trkpt>
				<trkpt lat="54.67662" lon="-2.22872">
					<ele>392</ele>
					<time>0001-01-01T00:00:00Z</time>
				</trkpt>
				<trkpt lat="54.67713" lon="-2.22884">
					<ele>398</ele>
					<time>0001-01-01T00:00:00Z</time>
				</trkpt>
				<trkpt lat="54.67761" lon="-2.22988">
					<ele>406</ele>
					<time>0001-01-01T00:00:00Z</time>
				</trkpt>
				<trkpt lat="54.67800" lon="-2.23085">
					<ele>409</ele>
					<time>0001-01-01T00:00:00Z</time>
				</trkpt>
				<trkpt lat="54.67846" lon="-2.23144">
					<ele>413</ele>
					<time>0001-01-01T00:00:00Z</time>
				</trkpt>
				<trkpt lat="54.67897" lon="-2.23238">
					<ele>419</ele>
					<time>0001-01-01T00:00:00Z</time>
				</trkpt>
				<trkpt lat="54.67929" lon="-2.23349">
					<ele>425</ele>
					<time>0001-01-01T00:00:00Z</time>
				</trkpt>
				<trkpt lat="54.67958" lon="-2.23462">
					<ele>429</ele>
					<time>0001-01-01T00:00:00Z</time>
				</trkpt>
				<trkpt lat="54.67996" lon="-2.23607">
					<ele>433</ele>
					<time>0001-01-01T00:00:00Z</time>
				</trkpt>
				<trkpt lat="54.68021" lon="-2.23705">
					<ele>436</ele>
					<time>0001-01-01T00:00:00Z</time>
				</trkpt>
				<trkpt lat="54.68053" lon="-2.23840">
					<ele>440</ele>
					<time>0001-01-01T00:00:00Z</time>
				</trkpt>
				<trkpt lat="54.68080" lon="-2.23945">
					<ele>447</ele>
					<time>0001-01-01T00:00:00Z</time>
				</trkpt>
				<trkpt lat="54.68108" lon="-2.24036">
					<ele>452</ele>
					<time>0001-01-01T00:00:00Z</time>
				</trkpt>
				<trkpt lat="54.68136" lon="-2.24132">
					<ele>453</ele>
					<time>0001-01-01T00:00:00Z</time>
				</trkpt>
				<trkpt lat="54.68169" lon="-2.24291">
					<ele>452</ele>
					<time>0001-01-01T00:00:00Z</time>
				</trkpt>
				<trkpt lat="54.68189" lon="-2.24474">
					<ele>451</ele>
					<time>0001-01-01T00:00:00Z</time>
				</trkpt>
				<trkpt lat="54.68215" lon="-2.24688">
					<ele>447</ele>
					<time>0001-01-01T00:00:00Z</time>
				</trkpt>
				<trkpt lat="54.68241" lon="-2.24861">
					<ele>450</ele>
					<time>0001-01-01T00:00:00Z</time>
				</trkpt>
				<trkpt lat="54.68290" lon="-2.25047">
					<ele>452</ele>
					<time>0001-01-01T00:00:00Z</time>
				</trkpt>
				<trkpt lat="54.68357" lon="-2.25199">
					<ele>455</ele>
					<time>0001-01-01T00:00:00Z</time>
				</trkpt>
				<trkpt lat="54.68372" lon="-2.25233">
					<ele>456</ele>
					<time>0001-01-01T00:00:00Z</time>
				</trkpt>
				<trkpt lat="54.68451" lon="-2.25372">
					<ele>459</ele>
					<time>0001-01-01T00:00:00Z</time>
				</trkpt>
				<trkpt lat="54.68506" lon="-2.25503">
					<ele>461</ele>
					<time>0001-01-01T00:00:00Z</time>
				</trkpt>
				<trkpt lat="54.68577" lon="-2.25575">
					<ele>463</ele>
					<time>0001-01-01T00:00:00Z</time>
				</trkpt>
				<trkpt lat="54.68656" lon="-2.25688">
					<ele>465</ele>
					<time>0001-01-01T00:00:00Z</time>
				</trkpt>
				<trkpt lat="54.68742" lon="-2.25826">
					<ele>468</ele>
					<time>0001-01-01T00:00:00Z</time>
				</trkpt>
				<trkpt lat="54.68824" lon="-2.25962">
					<ele>470</ele>
					<time>0001-01-01T00:00:00Z</time>
				</trkpt>
				<trkpt lat="54.68833" lon="-2.25974">
					<ele>470</ele>
					<time>0001-01-01T00:00:00Z</time>
				</trkpt>
				<trkpt lat="54.68902" lon="-2.26122">
					<ele>470</ele>
					<time>0001-01-01T00:00:00Z</time>
				</trkpt>
				<trkpt lat="54.68974" lon="-2.26239">
					<ele>472</ele>
					<time>0001-01-01T00:00:00Z</time>
				</trkpt>
				<trkpt lat="54.69073" lon="-2.26403">
					<ele>475</ele>
					<time>0001-01-01T00:00:00Z</time>
				</trkpt>
				<trkpt lat="54.69163" lon="-2.26538">
					<ele>477</ele>
					<time>0001-01-01T00:00:00Z</time>
				</trkpt>
				<trkpt lat="54.69259" lon="-2.26676">
					<ele>480</ele>
					<time>0001-01-01T00:00:00Z</time>
				</trkpt>
				<trkpt lat="54.69357" lon="-2.26845">
					<ele>482</ele>
					<time>0001-01-01T00:00:00Z</time>
				</trkpt>
				<trkpt lat="54.69443" lon="-2.27020">
					<ele>485</ele>
					<time>0001-01-01T00:00:00Z</time>
				</trkpt>
				<trkpt lat="54.69540" lon="-2.27145">
					<ele>488</ele>
					<time>0001-01-01T00:00:00Z</time>
				</trkpt>
				<trkpt lat="54.69642" lon="-2.27240">
					<ele>492</ele>
					<time>0001-01-01T00:00:00Z</time>
				</trkpt>
				<trkpt lat="54.69754" lon="-2.27336">
					<ele>495</ele>
					<time>0001-01-01T00:00:00Z</time>
				</trkpt>
				<trkpt lat="54.69858" lon="-2.27451">
					<ele>500</ele>
					<time>0001-01-01T00:00:00Z</time>
				</trkpt>
				<trkpt lat="54.69939" lon="-2.27555">
					<ele>503</ele>
					<time>0001-01-01T00:00:00Z</time>
				</trkpt>
				<trkpt lat="54.69952" lon="-2.27562">
					<ele>503</ele>
					<time>0001-01-01T00:00:00Z</time>
				</trkpt>
				<trkpt lat="54.70033" lon="-2.27602">
					<ele>506</ele>
					<time>0001-01-01T00:00:00Z</time>
				</trkpt>
				<trkpt lat="54.70126" lon="-2.27668">
					<ele>511</ele>
					<time>0001-01-01T00:00:00Z</time>
				</trkpt>
				<trkpt lat="54.70224" lon="-2.27721">
					<ele>514</ele>
					<time>0001-01-01T00:00:00Z</time>
				</trkpt>
				<trkpt lat="54.70243" lon="-2.27736">
					<ele>514</ele>
					<time>0001-01-01T00:00:00Z</time>
				</trkpt>
				<trkpt lat="54.70278" lon="-2.27835">
					<ele>518</ele>
					<time>0001-01-01T00:00:00Z</time>
				</trkpt>
				<trkpt lat="54.70278" lon="-2.27980">
					<ele>521</ele>
					<time>0001-01-01T00:00:00Z</time>
				</trkpt>
				<trkpt lat="54.70286" lon="-2.28085">
					<ele>524</ele>
					<time>0001-01-01T00:00:00Z</time>
				</trkpt>
				<trkpt lat="54.70355" lon="-2.28176">
					<ele>527</ele>
					<time>0001-01-01T00:00:00Z</time>
				</trkpt>
				<trkpt lat="54.70358" lon="-2.28180">
					<ele>527</ele>
					<time>0001-01-01T00:00:00Z</time>
				</trkpt>
				<trkpt lat="54.70394" lon="-2.28293">
					<ele>532</ele>
					<time>0001-01-01T00:00:00Z</time>
				</trkpt>
				<trkpt lat="54.70434" lon="-2.28447">
					<ele>536</ele>
					<time>0001-01-01T00:00:00Z</time>
				</trkpt>
				<trkpt lat="54.70496" lon="-2.28567">
					<ele>540</ele>
					<time>0001-01-01T00:00:00Z</time>
				</trkpt>
				<trkpt lat="54.70556" lon="-2.28702">
					<ele>545</ele>
					<time>0001-01-01T00:00:00Z</time>
				</trkpt>
				<trkpt lat="54.70635" lon="-2.28779">
					<ele>548</ele>
					<time>0001-01-01T00:00:00Z</time>
				</trkpt>
				<trkpt lat="54.70720" lon="-2.28868">
					<ele>553</ele>
					<time>0001-01-01T00:00:00Z</time>
				</trkpt>
				<trkpt lat="54.70771" lon="-2.28927">
					<ele>555</ele>
					<time>0001-01-01T00:00:00Z</time>
				</trkpt>
				<trkpt lat="54.70853" lon="-2.28963">
					<ele>560</ele>
					<time>0001-01-01T00:00:00Z</time>
				</trkpt>
				<trkpt lat="54.70898" lon="-2.28976">
					<ele>561</ele>
					<time>0001-01-01T00:00:00Z</time>
				</trkpt>
				<trkpt lat="54.70984" lon="-2.29067">
					<ele>562</ele>
					<time>0001-01-01T00:00:00Z</time>
				</trkpt>
				<trkpt lat="54.71087" lon="-2.29193">
					<ele>560</ele>
					<time>0001-01-01T00:00:00Z</time>
				</trkpt>
				<trkpt lat="54.71107" lon="-2.29241">
					<ele>560</ele>
					<time>0001-01-01T00:00:00Z</time>
				</trkpt>
				<trkpt lat="54.71149" lon="-2.29472">
					<ele>559</ele>
					<time>0001-01-01T00:00:00Z</time>
				</trkpt>
				<trkpt lat="54.71214" lon="-2.29639">
					<ele>558</ele>
					<time>0001-01-01T00:00:00Z</time>
				</trkpt>
				<trkpt lat="54.71320" lon="-2.29792">
					<ele>557</ele>
					<time>0001-01-01T00:00:00Z</time>
				</trkpt>
				<trkpt lat="54.71369" lon="-2.29866">
					<ele>556</ele>
					<time>0001-01-01T00:00:00Z</time>
				</trkpt>
				<trkpt lat="54.71379" lon="-2.29908">
					<ele>555</ele>
					<time>0001-01-01T00:00:00Z</time>
				</trkpt>
				<trkpt lat="54.71384" lon="-2.29965">
					<ele>556</ele>
					<time>0001-01-01T00:00:00Z</time>
				</trkpt>
				<trkpt lat="54.71374" lon="-2.30042">
					<ele>557</ele>
					<time>0001-01-01T00:00:00Z</time>
				</trkpt>
				<trkpt lat="54.71326" lon="-2.30157">
					<ele>561</ele>
					<time>0001-01-01T00:00:00Z</time>
				</trkpt>
				<trkpt lat="54.71282" lon="-2.30257">
					<ele>565</ele>
					<time>0001-01-01T00:00:00Z</time>
				</trkpt>
				<trkpt lat="54.71247" lon="-2.30384">
					<ele>568</ele>
					<time>0001-01-01T00:00:00Z</time>
				</trkpt>
				<trkpt lat="54.71234" lon="-2.30477">
					<ele>569</ele>
					<time>0001-01-01T00:00:00Z</time>
				</trkpt>
				<trkpt lat="54.71241" lon="-2.30660">
					<ele>571</ele>
					<time>0001-01-01T00:00:00Z</time>
				</trkpt>
				<trkpt lat="54.71207" lon="-2.30787">
					<ele>573</ele>
					<time>0001-01-01T00:00:00Z</time>
				</trkpt>
				<trkpt lat="54.71198" lon="-2.30881">
					<ele>574</ele>
					<time>0001-01-01T00:00:00Z</time>
				</trkpt>
				<trkpt lat="54.71205" lon="-2.31045">
					<ele>574</ele>
					<time>0001-01-01T00:00:00Z</time>
				</trkpt>
				<trkpt lat="54.71211" lon="-2.31276">
					<ele>575</ele>
					<time>0001-01-01T00:00:00Z</time>
				</trkpt>
				<trkpt lat="54.71228" lon="-2.31400">
					<ele>576</ele>
					<time>0001-01-01T00:00:00Z</time>
				</trkpt>
				<trkpt lat="54.71229" lon="-2.31440">
					<ele>576</ele>
					<time>0001-01-01T00:00:00Z</time>
				</trkpt>
				<trkpt lat="54.71184" lon="-2.31584">
					<ele>576</ele>
					<time>0001-01-01T00:00:00Z</time>
				</trkpt>
				<trkpt lat="54.71109" lon="-2.31736">
					<ele>576</ele>
					<time>0001-01-01T00:00:00Z</time>
				</trkpt>
				<trkpt lat="54.71047" lon="-2.31922">
					<ele>576</ele>
					<time>0001-01-01T00:00:00Z</time>
				</trkpt>
				<trkpt lat="54.70983" lon="-2.32024">
					<ele>576</ele>
					<time>0001-01-01T00:00:00Z</time>
				</trkpt>
				<trkpt lat="54.70961" lon="-2.32175">
					<ele>575</ele>
					<time>0001-01-01T00:00:00Z</time>
				</trkpt>
				<trkpt lat="54.70981" lon="-2.32359">
					<ele>577</ele>
					<time>0001-01-01T00:00:00Z</time>
				</trkpt>
				<trkpt lat="54.71001" lon="-2.32533">
					<ele>581</ele>
					<time>0001-01-01T00:00:00Z</time>
				</trkpt>
				<trkpt lat="54.71012" lon="-2.32625">
					<ele>585</ele>
					<time>0001-01-01T00:00:00Z</time>
				</trkpt>
				<trkpt lat="54.71033" lon="-2.32730">
					<ele>589</ele>
					<time>0001-01-01T00:00:00Z</time>
				</trkpt>
				<trkpt lat="54.71059" lon="-2.32827">
					<ele>592</ele>
					<time>0001-01-01T00:00:00Z</time>
				</trkpt>
				<trkpt lat="54.71080" lon="-2.32971">
					<ele>593</ele>
					<time>0001-01-01T00:00:00Z</time>
				</trkpt>
				<trkpt lat="54.71106" lon="-2.33186">
					<ele>594</ele>
					<time>0001-01-01T00:00:00Z</time>
				</trkpt>
				<trkpt lat="54.71159" lon="-2.33379">
					<ele>594</ele>
					<time>0001-01-01T00:00:00Z</time>
				</trkpt>
				<trkpt lat="54.71214" lon="-2.33584">
					<ele>596</ele>
					<time>0001-01-01T00:00:00Z</time>
				</trkpt>
				<trkpt lat="54.71272" lon="-2.33696">
					<ele>596</ele>
					<time>0001-01-01T00:00:00Z</time>
				</trkpt>
				<trkpt lat="54.71288" lon="-2.33753">
					<ele>595</ele>
					<time>0001-01-01T00:00:00Z</time>
				</trkpt>
				<trkpt lat="54.71324" lon="-2.33943">
					<ele>594</ele>
					<time>0001-01-01T00:00:00Z</time>
				</trkpt>
				<trkpt lat="54.71362" lon="-2.34017">
					<ele>593</ele>
					<time>0001-01-01T00:00:00Z</time>
				</trkpt>
				<trkpt lat="54.71395" lon="-2.34034">
					<ele>592</ele>
					<time>0001-01-01T00:00:00Z</time>
				</trkpt>
				<trkpt lat="54.71537" lon="-2.34090">
					<ele>592</ele>
					<time>0001-01-01T00:00:00Z</time>
				</trkpt>
				<trkpt lat="54.71581" lon="-2.34126">
					<ele>592</ele>
					<time>0001-01-01T00:00:00Z</time>
				</trkpt>
				<trkpt lat="54.71646" lon="-2.34126">
					<ele>592</ele>
					<time>0001-01-01T00:00:00Z</time>
				</trkpt>
				<trkpt lat="54.71693" lon="-2.34168">
					<ele>592</ele>
					<time>0001-01-01T00:00:00Z</time>
				</trkpt>
				<trkpt lat="54.71774" lon="-2.34311">
					<ele>595</ele>
					<time>0001-01-01T00:00:00Z</time>
				</trkpt>
				<trkpt lat="54.71840" lon="-2.34459">
					<ele>595</ele>
					<time>0001-01-01T00:00:00Z</time>
				</trkpt>
				<trkpt lat="54.71870" lon="-2.34594">
					<ele>598</ele>
					<time>0001-01-01T00:00:00Z</time>
				</trkpt>
				<trkpt lat="54.71928" lon="-2.34737">
					<ele>600</ele>
					<time>0001-01-01T00:00:00Z</time>
				</trkpt>
				<trkpt lat="54.72013" lon="-2.34800">
					<ele>599</ele>
					<time>0001-01-01T00:00:00Z</time>
				</trkpt>
				<trkpt lat="54.72090" lon="-2.34901">
					<ele>600</ele>
					<time>0001-01-01T00:00:00Z</time>
				</trkpt>
				<trkpt lat="54.72171" lon="-2.35059">
					<ele>601</ele>
					<time>0001-01-01T00:00:00Z</time>
				</trkpt>
				<trkpt lat="54.72260" lon="-2.35169">
					<ele>600</ele>
					<time>0001-01-01T00:00:00Z</time>
				</trkpt>
				<trkpt lat="54.72392" lon="-2.35208">
					<ele>598</ele>
					<time>0001-01-01T00:00:00Z</time>
				</trkpt>
				<trkpt lat="54.72518" lon="-2.35237">
					<ele>595</ele>
					<time>0001-01-01T00:00:00Z</time>
				</trkpt>
				<trkpt lat="54.72576" lon="-2.35247">
					<ele>595</ele>
					<time>0001-01-01T00:00:00Z</time>
				</trkpt>
				<trkpt lat="54.72581" lon="-2.35247">
					<ele>595</ele>
					<time>0001-01-01T00:00:00Z</time>
				</trkpt>
				<trkpt lat="54.72585" lon="-2.35242">
					<ele>595</ele>
					<time>0001-01-01T00:00:00Z</time>
				</trkpt>
				<trkpt lat="54.72610" lon="-2.35245">
					<ele>594</ele>
					<time>0001-01-01T00:00:00Z</time>
				</trkpt>
				<trkpt lat="54.72629" lon="-2.35252">
					<ele>592</ele>
					<time>0001-01-01T00:00:00Z</time>
				</trkpt>
				<trkpt lat="54.72679" lon="-2.35256">
					<ele>589</ele>
					<time>0001-01-01T00:00:00Z</time>
				</trkpt>
				<trkpt lat="54.72773" lon="-2.35211">
					<ele>587</ele>
					<time>0001-01-01T00:00:00Z</time>
				</trkpt>
				<trkpt lat="54.72814" lon="-2.35171">
					<ele>584</ele>
					<time>0001-01-01T00:00:00Z</time>
				</trkpt>
				<trkpt lat="54.72856" lon="-2.35193">
					<ele>584</ele>
					<time>0001-01-01T00:00:00Z</time>
				</trkpt>
				<trkpt lat="54.72949" lon="-2.35313">
					<ele>577</ele>
					<time>0001-01-01T00:00:00Z</time>
				</trkpt>
				<trkpt lat="54.73097" lon="-2.35461">
					<ele>566</ele>
					<time>0001-01-01T00:00:00Z</time>
				</trkpt>
				<trkpt lat="54.73280" lon="-2.35587">
					<ele>551</ele>
					<time>0001-01-01T00:00:00Z</time>
				</trkpt>
				<trkpt lat="54.73486" lon="-2.35773">
					<ele>538</ele>
					<time>0001-01-01T00:00:00Z</time>
				</trkpt>
				<trkpt lat="54.73654" lon="-2.35989">
					<ele>528</ele>
					<time>0001-01-01T00:00:00Z</time>
				</trkpt>
				<trkpt lat="54.73818" lon="-2.36184">
					<ele>519</ele>
					<time>0001-01-01T00:00:00Z</time>
				</trkpt>
				<trkpt lat="54.73988" lon="-2.36302">
					<ele>509</ele>
					<time>0001-01-01T00:00:00Z</time>
				</trkpt>
				<trkpt lat="54.74209" lon="-2.36428">
					<ele>498</ele>
					<time>0001-01-01T00:00:00Z</time>
				</trkpt>
				<trkpt lat="54.74404" lon="-2.36583">
					<ele>488</ele>
					<time>0001-01-01T00:00:00Z</time>
				</trkpt>
				<trkpt lat="54.74612" lon="-2.36737">
					<ele>480</ele>
					<time>0001-01-01T00:00:00Z</time>
				</trkpt>
				<trkpt lat="54.74800" lon="-2.36870">
					<ele>471</ele>
					<time>0001-01-01T00:00:00Z</time>
				</trkpt>
				<trkpt lat="54.75012" lon="-2.37012">
					<ele>462</ele>
					<time>0001-01-01T00:00:00Z</time>
				</trkpt>
				<trkpt lat="54.75168" lon="-2.37107">
					<ele>454</ele>
					<time>0001-01-01T00:00:00Z</time>
				</trkpt>
				<trkpt lat="54.75375" lon="-2.37286">
					<ele>447</ele>
					<time>0001-01-01T00:00:00Z</time>
				</trkpt>
				<trkpt lat="54.75598" lon="-2.37470">
					<ele>437</ele>
					<time>0001-01-01T00:00:00Z</time>
				</trkpt>
				<trkpt lat="54.75736" lon="-2.37551">
					<ele>432</ele>
					<time>0001-01-01T00:00:00Z</time>
				</trkpt>
				<trkpt lat="54.75791" lon="-2.37600">
					<ele>428</ele>
					<time>0001-01-01T00:00:00Z</time>
				</trkpt>
				<trkpt lat="54.75876" lon="-2.37609">
					<ele>425</ele>
					<time>0001-01-01T00:00:00Z</time>
				</trkpt>
				<trkpt lat="54.75905" lon="-2.37651">
					<ele>427</ele>
					<time>0001-01-01T00:00:00Z</time>
				</trkpt>
				<trkpt lat="54.75950" lon="-2.37792">
					<ele>433</ele>
					<time>0001-01-01T00:00:00Z</time>
				</trkpt>
				<trkpt lat="54.76013" lon="-2.37869">
					<ele>436</ele>
					<time>0001-01-01T00:00:00Z</time>
				</trkpt>
				<trkpt lat="54.76100" lon="-2.37998">
					<ele>436</ele>
					<time>0001-01-01T00:00:00Z</time>
				</trkpt>
				<trkpt lat="54.76184" lon="-2.38124">
					<ele>434</ele>
					<time>0001-01-01T00:00:00Z</time>
				</trkpt>
				<trkpt lat="54.76301" lon="-2.38296">
					<ele>432</ele>
					<time>0001-01-01T00:00:00Z</time>
				</trkpt>
				<trkpt lat="54.76471" lon="-2.38550">
					<ele>430</ele>
					<time>0001-01-01T00:00:00Z</time>
				</trkpt>
				<trkpt lat="54.76548" lon="-2.38658">
					<ele>427</ele>
					<time>0001-01-01T00:00:00Z</time>
				</trkpt>
				<trkpt lat="54.76677" lon="-2.38740">
					<ele>427</ele>
					<time>0001-01-01T00:00:00Z</time>
				</trkpt>
				<trkpt lat="54.76778" lon="-2.38818">
					<ele>431</ele>
					<time>0001-01-01T00:00:00Z</time>
				</trkpt>
				<trkpt lat="54.76805" lon="-2.38828">
					<ele>432</ele>
					<time>0001-01-01T00:00:00Z</time>
				</trkpt>
				<trkpt lat="54.76894" lon="-2.38866">
					<ele>435</ele>
					<time>0001-01-01T00:00:00Z</time>
				</trkpt>
				<trkpt lat="54.77026" lon="-2.38930">
					<ele>436</ele>
					<time>0001-01-01T00:00:00Z</time>
				</trkpt>
				<trkpt lat="54.77150" lon="-2.39004">
					<ele>438</ele>
					<time>0001-01-01T00:00:00Z</time>
				</trkpt>
				<trkpt lat="54.77281" lon="-2.39097">
					<ele>438</ele>
					<time>0001-01-01T00:00:00Z</time>
				</trkpt>
				<trkpt lat="54.77345" lon="-2.39132">
					<ele>438</ele>
					<time>0001-01-01T00:00:00Z</time>
				</trkpt>
				<trkpt lat="54.77374" lon="-2.39129">
					<ele>438</ele>
					<time>0001-01-01T00:00:00Z</time>
				</trkpt>
				<trkpt lat="54.77504" lon="-2.39079">
					<ele>438</ele>
					<time>0001-01-01T00:00:00Z</time>
				</trkpt>
				<trkpt lat="54.77595" lon="-2.38975">
					<ele>435</ele>
					<time>0001-01-01T00:00:00Z</time>
				</trkpt>
				<trkpt lat="54.77638" lon="-2.39004">
					<ele>436</ele>
					<time>0001-01-01T00:00:00Z</time>
				</trkpt>
				<trkpt lat="54.77644" lon="-2.39036">
					<ele>438</ele>
					<time>0001-01-01T00:00:00Z</time>
				</trkpt>
				<trkpt lat="54.77659" lon="-2.39147">
					<ele>444</ele>
					<time>0001-01-01T00:00:00Z</time>
				</trkpt>
				<trkpt lat="54.77685" lon="-2.39313">
					<ele>450</ele>
					<time>0001-01-01T00:00:00Z</time>
				</trkpt>
				<trkpt lat="54.77691" lon="-2.39423">
					<ele>448</ele>
					<time>0001-01-01T00:00:00Z</time>
				</trkpt>
				<trkpt lat="54.77690" lon="-2.39550">
					<ele>448</ele>
					<time>0001-01-01T00:00:00Z</time>
				</trkpt>
				<trkpt lat="54.77712" lon="-2.39684">
					<ele>450</ele>
					<time>0001-01-01T00:00:00Z</time>
				</trkpt>
				<trkpt lat="54.77741" lon="-2.39808">
					<ele>453</ele>
					<time>0001-01-01T00:00:00Z</time>
				</trkpt>
				<trkpt lat="54.77774" lon="-2.39936">
					<ele>459</ele>
					<time>0001-01-01T00:00:00Z</time>
				</trkpt>
				<trkpt lat="54.77814" lon="-2.40068">
					<ele>458</ele>
					<time>0001-01-01T00:00:00Z</time>
				</trkpt>
				<trkpt lat="54.77876" lon="-2.40244">
					<ele>455</ele>
					<time>0001-01-01T00:00:00Z</time>
				</trkpt>
				<trkpt lat="54.77946" lon="-2.40426">
					<ele>452</ele>
					<time>0001-01-01T00:00:00Z</time>
				</trkpt>
				<trkpt lat="54.78052" lon="-2.40666">
					<ele>451</ele>
					<time>0001-01-01T00:00:00Z</time>
				</trkpt>
				<trkpt lat="54.78123" lon="-2.40878">
					<ele>449</ele>
					<time>0001-01-01T00:00:00Z</time>
				</trkpt>
				<trkpt lat="54.78190" lon="-2.41070">
					<ele>444</ele>
					<time>0001-01-01T00:00:00Z</time>
				</trkpt>
				<trkpt lat="54.78327" lon="-2.41704">
					<ele>440</ele>
					<time>0001-01-01T00:00:00Z</time>
				</trkpt>
				<trkpt lat="54.78314" lon="-2.41679">
					<ele>438</ele>
					<time>0001-01-01T00:00:00Z</time>
				</trkpt>
				<trkpt lat="54.78360" lon="-2.41909">
					<ele>438</ele>
					<time>0001-01-01T00:00:00Z</time>
				</trkpt>
				<trkpt lat="54.78408" lon="-2.42158">
					<ele>429</ele>
					<time>0001-01-01T00:00:00Z</time>
				</trkpt>
				<trkpt lat="54.78425" lon="-2.42219">
					<ele>426</ele>
					<time>0001-01-01T00:00:00Z</time>
				</trkpt>
				<trkpt lat="54.78500" lon="-2.42292">
					<ele>422</ele>
					<time>0001-01-01T00:00:00Z</time>
				</trkpt>
				<trkpt lat="54.78609" lon="-2.42304">
					<ele>421</ele>
					<time>0001-01-01T00:00:00Z</time>
				</trkpt>
				<trkpt lat="54.78618" lon="-2.42305">
					<ele>420</ele>
					<time>0001-01-01T00:00:00Z</time>
				</trkpt>
				<trkpt lat="54.78627" lon="-2.42340">
					<ele>417</ele>
					<time>0001-01-01T00:00:00Z</time>
				</trkpt>
				<trkpt lat="54.78620" lon="-2.42565">
					<ele>418</ele>
					<time>0001-01-01T00:00:00Z</time>
				</trkpt>
				<trkpt lat="54.78606" lon="-2.42682">
					<ele>415</ele>
					<time>0001-01-01T00:00:00Z</time>
				</trkpt>
				<trkpt lat="54.78593" lon="-2.42687">
					<ele>415</ele>
					<time>0001-01-01T00:00:00Z</time>
				</trkpt>
				<trkpt lat="54.78590" lon="-2.42686">
					<ele>417</ele>
					<time>0001-01-01T00:00:00Z</time>
				</trkpt>
				<trkpt lat="54.78588" lon="-2.42682">
					<ele>418</ele>
					<time>0001-01-01T00:00:00Z</time>
				</trkpt>
				<trkpt lat="54.78582" lon="-2.42686">
					<ele>418</ele>
					<time>0001-01-01T00:00:00Z</time>
				</trkpt>
				<trkpt lat="54.78580" lon="-2.42670">
					<ele>421</ele>
					<time>0001-01-01T00:00:00Z</time>
				</trkpt>
				<trkpt lat="54.78578" lon="-2.42679">
					<ele>419</ele>
					<time>0001-01-01T00:00:00Z</time>
				</trkpt>
				<trkpt lat="54.78580" lon="-2.42674">
					<ele>420</ele>
					<time>0001-01-01T00:00:00Z</time>
				</trkpt>
				<trkpt lat="54.78581" lon="-2.42674">
					<ele>416</ele>
					<time>0001-01-01T00:00:00Z</time>
				</trkpt>
				<trkpt lat="54.78589" lon="-2.42679">
					<ele>415</ele>
					<time>0001-01-01T00:00:00Z</time>
				</trkpt>
				<trkpt lat="54.78603" lon="-2.42686">
					<ele>413</ele>
					<time>0001-01-01T00:00:00Z</time>
				</trkpt>
				<trkpt lat="54.78603" lon="-2.42689">
					<ele>408</ele>
					<time>0001-01-01T00:00:00Z</time>
				</trkpt>
				<trkpt lat="54.78604" lon="-2.42685">
					<ele>410</ele>
					<time>0001-01-01T00:00:00Z</time>
				</trkpt>
				<trkpt lat="54.78610" lon="-2.42643">
					<ele>410</ele>
					<time>0001-01-01T00:00:00Z</time>
				</trkpt>
				<trkpt lat="54.78618" lon="-2.42582">
					<ele>412</ele>
					<time>0001-01-01T00:00:00Z</time>
				</trkpt>
				<trkpt lat="54.78623" lon="-2.42467">
					<ele>413</ele>
					<time>0001-01-01T00:00:00Z</time>
				</trkpt>
				<trkpt lat="54.78627" lon="-2.42331">
					<ele>414</ele>
					<time>0001-01-01T00:00:00Z</time>
				</trkpt>
				<trkpt lat="54.78629" lon="-2.42313">
					<ele>415</ele>
					<time>0001-01-01T00:00:00Z</time>
				</trkpt>
				<trkpt lat="54.78633" lon="-2.42306">
					<ele>416</ele>
					<time>0001-01-01T00:00:00Z</time>
				</trkpt>
				<trkpt lat="54.78634" lon="-2.42305">
					<ele>416</ele>
					<time>0001-01-01T00:00:00Z</time>
				</trkpt>
				<trkpt lat="54.78684" lon="-2.42299">
					<ele>414</ele>
					<time>0001-01-01T00:00:00Z</time>
				</trkpt>
				<trkpt lat="54.78785" lon="-2.42347">
					<ele>414</ele>
					<time>0001-01-01T00:00:00Z</time>
				</trkpt>
				<trkpt lat="54.78908" lon="-2.42400">
					<ele>413</ele>
					<time>0001-01-01T00:00:00Z</time>
				</trkpt>
				<trkpt lat="54.79033" lon="-2.42417">
					<ele>406</ele>
					<time>0001-01-01T00:00:00Z</time>
				</trkpt>
				<trkpt lat="54.79279" lon="-2.42448">
					<ele>396</ele>
					<time>0001-01-01T00:00:00Z</time>
				</trkpt>
				<trkpt lat="54.79473" lon="-2.42472">
					<ele>387</ele>
					<time>0001-01-01T00:00:00Z</time>
				</trkpt>
				<trkpt lat="54.79715" lon="-2.42504">
					<ele>378</ele>
					<time>0001-01-01T00:00:00Z</time>
				</trkpt>
				<trkpt lat="54.79786" lon="-2.42513">
					<ele>373</ele>
					<time>0001-01-01T00:00:00Z</time>
				</trkpt>
				<trkpt lat="54.79834" lon="-2.42550">
					<ele>374</ele>
					<time>0001-01-01T00:00:00Z</time>
				</trkpt>
				<trkpt lat="54.79942" lon="-2.42706">
					<ele>375</ele>
					<time>0001-01-01T00:00:00Z</time>
				</trkpt>
				<trkpt lat="54.80035" lon="-2.42836">
					<ele>373</ele>
					<time>0001-01-01T00:00:00Z</time>
				</trkpt>
				<trkpt lat="54.80161" lon="-2.42960">
					<ele>364</ele>
					<time>0001-01-01T00:00:00Z</time>
				</trkpt>
				<trkpt lat="54.80355" lon="-2.43122">
					<ele>355</ele>
					<time>0001-01-01T00:00:00Z</time>
				</trkpt>
				<trkpt lat="54.80560" lon="-2.43277">
					<ele>347</ele>
					<time>0001-01-01T00:00:00Z</time>
				</trkpt>
				<trkpt lat="54.80703" lon="-2.43346">
					<ele>338</ele>
					<time>0001-01-01T00:00:00Z</time>
				</trkpt>
				<trkpt lat="54.80859" lon="-2.43423">
					<ele>325</ele>
					<time>0001-01-01T00:00:00Z</time>
				</trkpt>
				<trkpt lat="54.80919" lon="-2.43489">
					<ele>315</ele>
					<time>0001-01-01T00:00:00Z</time>
				</trkpt>
				<trkpt lat="54.80968" lon="-2.43583">
					<ele>314</ele>
					<time>0001-01-01T00:00:00Z</time>
				</trkpt>
				<trkpt lat="54.81052" lon="-2.43690">
					<ele>313</ele>
					<time>0001-01-01T00:00:00Z</time>
				</trkpt>
				<trkpt lat="54.81104" lon="-2.43743">
					<ele>312</ele>
					<time>0001-01-01T00:00:00Z</time>
				</trkpt>
				<trkpt lat="54.81118" lon="-2.43764">
					<ele>311</ele>
					<time>0001-01-01T00:00:00Z</time>
				</trkpt>
				<trkpt lat="54.81168" lon="-2.43817">
					<ele>308</ele>
					<time>0001-01-01T00:00:00Z</time>
				</trkpt>
				<trkpt lat="54.81198" lon="-2.43840">
					<ele>308</ele>
					<time>0001-01-01T00:00:00Z</time>
				</trkpt>
				<trkpt lat="54.81202" lon="-2.43844">
					<ele>306</ele>
					<time>0001-01-01T00:00:00Z</time>
				</trkpt>
				<trkpt lat="54.81204" lon="-2.43849">
					<ele>306</ele>
					<time>0001-01-01T00:00:00Z</time>
				</trkpt>
				<trkpt lat="54.81228" lon="-2.43866">
					<ele>306</ele>
					<time>0001-01-01T00:00:00Z</time>
				</trkpt>
				<trkpt lat="54.81245" lon="-2.43889">
					<ele>298</ele>
					<time>0001-01-01T00:00:00Z</time>
				</trkpt>
				<trkpt lat="54.81252" lon="-2.43933">
					<ele>291</ele>
					<time>0001-01-01T00:00:00Z</time>
				</trkpt>
				<trkpt lat="54.81254" lon="-2.43989">
					<ele>289</ele>
					<time>0001-01-01T00:00:00Z</time>
				</trkpt>
				<trkpt lat="54.81255" lon="-2.44033">
					<ele>286</ele>
					<time>0001-01-01T00:00:00Z</time>
				</trkpt>
				<trkpt lat="54.81252" lon="-2.44089">
					<ele>281</ele>
					<time>0001-01-01T00:00:00Z</time>
				</trkpt>
				<trkpt lat="54.81250" lon="-2.44116">
					<ele>277</ele>
					<time>0001-01-01T00:00:00Z</time>
				</trkpt>
				<trkpt lat="54.81244" lon="-2.44136">
					<ele>276</ele>
					<time>0001-01-01T00:00:00Z</time>
				</trkpt>
				<trkpt lat="54.81231" lon="-2.44141">
					<ele>276</ele>
					<time>0001-01-01T00:00:00Z</time>
				</trkpt>
				<trkpt lat="54.81178" lon="-2.44168">
					<ele>276</ele>
					<time>0001-01-01T00:00:00Z</time>
				</trkpt>
				<trkpt lat="54.81064" lon="-2.44190">
					<ele>275</ele>
					<time>0001-01-01T00:00:00Z</time>
				</trkpt>
				<trkpt lat="54.80951" lon="-2.44241">
					<ele>272</ele>
					<time>0001-01-01T00:00:00Z</time>
				</trkpt>
				<trkpt lat="54.80938" lon="-2.44266">
					<ele>271</ele>
					<time>0001-01-01T00:00:00Z</time>
				</trkpt>
				<trkpt lat="54.80892" lon="-2.44390">
					<ele>272</ele>
					<time>0001-01-01T00:00:00Z</time>
				</trkpt>
				<trkpt lat="54.80890" lon="-2.44396">
					<ele>272</ele>
					<time>0001-01-01T00:00:00Z</time>
				</trkpt>
				<trkpt lat="54.80962" lon="-2.44482">
					<ele>271</ele>
					<time>0001-01-01T00:00:00Z</time>
				</trkpt>
				<trkpt lat="54.80990" lon="-2.44558">
					<ele>273</ele>
					<time>0001-01-01T00:00:00Z</time>
				</trkpt>
				<trkpt lat="54.81011" lon="-2.44667">
					<ele>282</ele>
					<time>0001-01-01T00:00:00Z</time>
				</trkpt>
				<trkpt lat="54.81056" lon="-2.44783">
					<ele>285</ele>
					<time>0001-01-01T00:00:00Z</time>
				</trkpt>
				<trkpt lat="54.81096" lon="-2.44856">
					<ele>287</ele>
					<time>0001-01-01T00:00:00Z</time>
				</trkpt>
				<trkpt lat="54.81213" lon="-2.44923">
					<ele>289</ele>
					<time>0001-01-01T00:00:00Z</time>
				</trkpt>
				<trkpt lat="54.81345" lon="-2.45001">
					<ele>288</ele>
					<time>0001-01-01T00:00:00Z</time>
				</trkpt>
				<trkpt lat="54.81479" lon="-2.45099">
					<ele>287</ele>
					<time>0001-01-01T00:00:00Z</time>
				</trkpt>
				<trkpt lat="54.81575" lon="-2.45165">
					<ele>289</ele>
					<time>0001-01-01T00:00:00Z</time>
				</trkpt>
				<trkpt lat="54.81677" lon="-2.45245">
					<ele>290</ele>
					<time>0001-01-01T00:00:00Z</time>
				</trkpt>
				<trkpt lat="54.81742" lon="-2.45298">
					<ele>293</ele>
					<time>0001-01-01T00:00:00Z</time>
				</trkpt>
				<trkpt lat="54.81844" lon="-2.45383">
					<ele>294</ele>
					<time>0001-01-01T00:00:00Z</time>
				</trkpt>
				<trkpt lat="54.81952" lon="-2.45476">
					<ele>293</ele>
					<time>0001-01-01T00:00:00Z</time>
				</trkpt>
				<trkpt lat="54.82124" lon="-2.45618">
					<ele>288</ele>
					<time>0001-01-01T00:00:00Z</time>
				</trkpt>
				<trkpt lat="54.82228" lon="-2.45710">
					<ele>291</ele>
					<time>0001-01-01T00:00:00Z</time>
				</trkpt>
				<trkpt lat="54.82311" lon="-2.45781">
					<ele>294</ele>
					<time>0001-01-01T00:00:00Z</time>
				</trkpt>
				<trkpt lat="54.82428" lon="-2.45888">
					<ele>291</ele>
					<time>0001-01-01T00:00:00Z</time>
				</trkpt>
				<trkpt lat="54.82573" lon="-2.46018">
					<ele>289</ele>
					<time>0001-01-01T00:00:00Z</time>
				</trkpt>
				<trkpt lat="54.82714" lon="-2.46158">
					<ele>281</ele>
					<time>0001-01-01T00:00:00Z</time>
				</trkpt>
				<trkpt lat="54.82826" lon="-2.46286">
					<ele>270</ele>
					<time>0001-01-01T00:00:00Z</time>
				</trkpt>
				<trkpt lat="54.82857" lon="-2.46373">
					<ele>267</ele>
					<time>0001-01-01T00:00:00Z</time>
				</trkpt>
				<trkpt lat="54.82968" lon="-2.46527">
					<ele>263</ele>
					<time>0001-01-01T00:00:00Z</time>
				</trkpt>
				<trkpt lat="54.83016" lon="-2.46547">
					<ele>264</ele>
					<time>0001-01-01T00:00:00Z</time>
				</trkpt>
				<trkpt lat="54.83129" lon="-2.46553">
					<ele>265</ele>
					<time>0001-01-01T00:00:00Z</time>
				</trkpt>
				<trkpt lat="54.83150" lon="-2.46564">
					<ele>266</ele>
					<time>0001-01-01T00:00:00Z</time>
				</trkpt>
				<trkpt lat="54.83164" lon="-2.46578">
					<ele>266</ele>
					<time>0001-01-01T00:00:00Z</time>
				</trkpt>
				<trkpt lat="54.83212" lon="-2.46716">
					<ele>267</ele>
					<time>0001-01-01T00:00:00Z</time>
				</trkpt>
				<trkpt lat="54.83245" lon="-2.46928">
					<ele>268</ele>
					<time>0001-01-01T00:00:00Z</time>
				</trkpt>
				<trkpt lat="54.83292" lon="-2.47031">
					<ele>268</ele>
					<time>0001-01-01T00:00:00Z</time>
				</trkpt>
				<trkpt lat="54.83346" lon="-2.47144">
					<ele>272</ele>
					<time>0001-01-01T00:00:00Z</time>
				</trkpt>
				<trkpt lat="54.83397" lon="-2.47249">
					<ele>275</ele>
					<time>0001-01-01T00:00:00Z</time>
				</trkpt>
				<trkpt lat="54.83449" lon="-2.47353">
					<ele>283</ele>
					<time>0001-01-01T00:00:00Z</time>
				</trkpt>
				<trkpt lat="54.83496" lon="-2.47439">
					<ele>286</ele>
					<time>0001-01-01T00:00:00Z</time>
				</trkpt>
				<trkpt lat="54.83639" lon="-2.47689">
					<ele>289</ele>
					<time>0001-01-01T00:00:00Z</time>
				</trkpt>
				<trkpt lat="54.83656" lon="-2.47713">
					<ele>289</ele>
					<time>0001-01-01T00:00:00Z</time>
				</trkpt>
				<trkpt lat="54.83786" lon="-2.47834">
					<ele>289</ele>
					<time>0001-01-01T00:00:00Z</time>
				</trkpt>
				<trkpt lat="54.83934" lon="-2.47959">
					<ele>285</ele>
					<time>0001-01-01T00:00:00Z</time>
				</trkpt>
				<trkpt lat="54.84131" lon="-2.48131">
					<ele>282</ele>
					<time>0001-01-01T00:00:00Z</time>
				</trkpt>
				<trkpt lat="54.84272" lon="-2.48235">
					<ele>276</ele>
					<time>0001-01-01T00:00:00Z</time>
				</trkpt>
				<trkpt lat="54.84438" lon="-2.48307">
					<ele>268</ele>
					<time>0001-01-01T00:00:00Z</time>
				</trkpt>
				<trkpt lat="54.84595" lon="-2.48415">
					<ele>266</ele>
					<time>0001-01-01T00:00:00Z</time>
				</trkpt>
				<trkpt lat="54.84674" lon="-2.48463">
					<ele>266</ele>
					<time>0001-01-01T00:00:00Z</time>
				</trkpt>
				<trkpt lat="54.84748" lon="-2.48507">
					<ele>268</ele>
					<time>0001-01-01T00:00:00Z</time>
				</trkpt>
				<trkpt lat="54.84857" lon="-2.48603">
					<ele>267</ele>
					<time>0001-01-01T00:00:00Z</time>
				</trkpt>
				<trkpt lat="54.84979" lon="-2.48756">
					<ele>269</ele>
					<time>0001-01-01T00:00:00Z</time>
				</trkpt>
				<trkpt lat="54.85058" lon="-2.48883">
					<ele>264</ele>
					<time>0001-01-01T00:00:00Z</time>
				</trkpt>
				<trkpt lat="54.85131" lon="-2.48965">
					<ele>255</ele>
					<time>0001-01-01T00:00:00Z</time>
				</trkpt>
				<trkpt lat="54.85183" lon="-2.49091">
					<ele>249</ele>
					<time>0001-01-01T00:00:00Z</time>
				</trkpt>
				<trkpt lat="54.85198" lon="-2.49137">
					<ele>246</ele>
					<time>0001-01-01T00:00:00Z</time>
				</trkpt>
				<trkpt lat="54.85240" lon="-2.49129">
					<ele>240</ele>
					<time>0001-01-01T00:00:00Z</time>
				</trkpt>
				<trkpt lat="54.85287" lon="-2.49068">
					<ele>238</ele>
					<time>0001-01-01T00:00:00Z</time>
				</trkpt>
				<trkpt lat="54.85338" lon="-2.49050">
					<ele>235</ele>
					<time>0001-01-01T00:00:00Z</time>
				</trkpt>
				<trkpt lat="54.85362" lon="-2.49086">
					<ele>234</ele>
					<time>0001-01-01T00:00:00Z</time>
				</trkpt>
				<trkpt lat="54.85449" lon="-2.49221">
					<ele>236</ele>
					<time>0001-01-01T00:00:00Z</time>
				</trkpt>
				<trkpt lat="54.85486" lon="-2.49270">
					<ele>237</ele>
					<time>0001-01-01T00:00:00Z</time>
				</trkpt>
				<trkpt lat="54.85517" lon="-2.49297">
					<ele>237</ele>
					<time>0001-01-01T00:00:00Z</time>
				</trkpt>
				<trkpt lat="54.85584" lon="-2.49436">
					<ele>233</ele>
					<time>0001-01-01T00:00:00Z</time>
				</trkpt>
				<trkpt lat="54.85604" lon="-2.49498">
					<ele>231</ele>
					<time>0001-01-01T00:00:00Z</time>
				</trkpt>
				<trkpt lat="54.85638" lon="-2.49541">
					<ele>229</ele>
					<time>0001-01-01T00:00:00Z</time>
				</trkpt>
				<trkpt lat="54.85836" lon="-2.49707">
					<ele>221</ele>
					<time>0001-01-01T00:00:00Z</time>
				</trkpt>
				<trkpt lat="54.85955" lon="-2.49832">
					<ele>220</ele>
					<time>0001-01-01T00:00:00Z</time>
				</trkpt>
				<trkpt lat="54.86011" lon="-2.49854">
					<ele>220</ele>
					<time>0001-01-01T00:00:00Z</time>
				</trkpt>
				<trkpt lat="54.86049" lon="-2.49869">
					<ele>220</ele>
					<time>0001-01-01T00:00:00Z</time>
				</trkpt>
				<trkpt lat="54.86170" lon="-2.49913">
					<ele>212</ele>
					<time>0001-01-01T00:00:00Z</time>
				</trkpt>
				<trkpt lat="54.86449" lon="-2.50127">
					<ele>207</ele>
					<time>0001-01-01T00:00:00Z</time>
				</trkpt>
				<trkpt lat="54.86558" lon="-2.50263">
					<ele>206</ele>
					<time>0001-01-01T00:00:00Z</time>
				</trkpt>
				<trkpt lat="54.86598" lon="-2.50318">
					<ele>205</ele>
					<time>0001-01-01T00:00:00Z</time>
				</trkpt>
				<trkpt lat="54.86614" lon="-2.50325">
					<ele>205</ele>
					<time>0001-01-01T00:00:00Z</time>
				</trkpt>
				<trkpt lat="54.86709" lon="-2.50332">
					<ele>205</ele>
					<time>0001-01-01T00:00:00Z</time>
				</trkpt>
				<trkpt lat="54.86872" lon="-2.50344">
					<ele>202</ele>
					<time>0001-01-01T00:00:00Z</time>
				</trkpt>
				<trkpt lat="54.87031" lon="-2.50372">
					<ele>202</ele>
					<time>0001-01-01T00:00:00Z</time>
				</trkpt>
				<trkpt lat="54.87177" lon="-2.50336">
					<ele>202</ele>
					<time>0001-01-01T00:00:00Z</time>
				</trkpt>
				<trkpt lat="54.87234" lon="-2.50357">
					<ele>199</ele>
					<time>0001-01-01T00:00:00Z</time>
				</trkpt>
				<trkpt lat="54.87354" lon="-2.50322">
					<ele>198</ele>
					<time>0001-01-01T00:00:00Z</time>
				</trkpt>
				<trkpt lat="54.87377" lon="-2.50324">
					<ele>198</ele>
					<time>0001-01-01T00:00:00Z</time>
				</trkpt>
				<trkpt lat="54.87497" lon="-2.50410">
					<ele>198</ele>
					<time>0001-01-01T00:00:00Z</time>
				</trkpt>
				<trkpt lat="54.87642" lon="-2.50440">
					<ele>201</ele>
					<time>0001-01-01T00:00:00Z</time>
				</trkpt>
				<trkpt lat="54.87754" lon="-2.50388">
					<ele>202</ele>
					<time>0001-01-01T00:00:00Z</time>
				</trkpt>
				<trkpt lat="54.87798" lon="-2.50357">
					<ele>202</ele>
					<time>0001-01-01T00:00:00Z</time>
				</trkpt>
				<trkpt lat="54.87831" lon="-2.50361">
					<ele>203</ele>
					<time>0001-01-01T00:00:00Z</time>
				</trkpt>
				<trkpt lat="54.88010" lon="-2.50458">
					<ele>205</ele>
					<time>0001-01-01T00:00:00Z</time>
				</trkpt>
				<trkpt lat="54.88141" lon="-2.50563">
					<ele>207</ele>
					<time>0001-01-01T00:00:00Z</time>
				</trkpt>
				<trkpt lat="54.88287" lon="-2.50729">
					<ele>204</ele>
					<time>0001-01-01T00:00:00Z</time>
				</trkpt>
				<trkpt lat="54.88315" lon="-2.50755">
					<ele>204</ele>
					<time>0001-01-01T00:00:00Z</time>
				</trkpt>
				<trkpt lat="54.88415" lon="-2.50733">
					<ele>202</ele>
					<time>0001-01-01T00:00:00Z</time>
				</trkpt>
				<trkpt lat="54.88441" lon="-2.50720">
					<ele>202</ele>
					<time>0001-01-01T00:00:00Z</time>
				</trkpt>
				<trkpt lat="54.88466" lon="-2.50703">
					<ele>205</ele>
					<time>0001-01-01T00:00:00Z</time>
				</trkpt>
				<trkpt lat="54.88470" lon="-2.50701">
					<ele>205</ele>
					<time>0001-01-01T00:00:00Z</time>
				</trkpt>
				<trkpt lat="54.88511" lon="-2.50680">
					<ele>206</ele>
					<time>0001-01-01T00:00:00Z</time>
				</trkpt>
				<trkpt lat="54.88575" lon="-2.50649">
					<ele>207</ele>
					<time>0001-01-01T00:00:00Z</time>
				</trkpt>
				<trkpt lat="54.88716" lon="-2.50594">
					<ele>213</ele>
					<time>0001-01-01T00:00:00Z</time>
				</trkpt>
				<trkpt lat="54.88838" lon="-2.50568">
					<ele>214</ele>
					<time>0001-01-01T00:00:00Z</time>
				</trkpt>
				<trkpt lat="54.88964" lon="-2.50579">
					<ele>217</ele>
					<time>0001-01-01T00:00:00Z</time>
				</trkpt>
				<trkpt lat="54.89096" lon="-2.50648">
					<ele>220</ele>
					<time>0001-01-01T00:00:00Z</time>
				</trkpt>
				<trkpt lat="54.89232" lon="-2.50735">
					<ele>224</ele>
					<time>0001-01-01T00:00:00Z</time>
				</trkpt>
				<trkpt lat="54.89346" lon="-2.50756">
					<ele>226</ele>
					<time>0001-01-01T00:00:00Z</time>
				</trkpt>
				<trkpt lat="54.89480" lon="-2.50795">
					<ele>230</ele>
					<time>0001-01-01T00:00:00Z</time>
				</trkpt>
				<trkpt lat="54.89643" lon="-2.50850">
					<ele>235</ele>
					<time>0001-01-01T00:00:00Z</time>
				</trkpt>
				<trkpt lat="54.89797" lon="-2.50918">
					<ele>235</ele>
					<time>0001-01-01T00:00:00Z</time>
				</trkpt>
				<trkpt lat="54.89965" lon="-2.51012">
					<ele>237</ele>
					<time>0001-01-01T00:00:00Z</time>
				</trkpt>
				<trkpt lat="54.90041" lon="-2.51197">
					<ele>235</ele>
					<time>0001-01-01T00:00:00Z</time>
				</trkpt>
				<trkpt lat="54.90059" lon="-2.51294">
					<ele>233</ele>
					<time>0001-01-01T00:00:00Z</time>
				</trkpt>
				<trkpt lat="54.90057" lon="-2.51381">
					<ele>230</ele>
					<time>0001-01-01T00:00:00Z</time>
				</trkpt>
				<trkpt lat="54.90096" lon="-2.51444">
					<ele>228</ele>
					<time>0001-01-01T00:00:00Z</time>
				</trkpt>
				<trkpt lat="54.90112" lon="-2.51437">
					<ele>228</ele>
					<time>0001-01-01T00:00:00Z</time>
				</trkpt>
				<trkpt lat="54.90175" lon="-2.51332">
					<ele>232</ele>
					<time>0001-01-01T00:00:00Z</time>
				</trkpt>
				<trkpt lat="54.90283" lon="-2.51216">
					<ele>234</ele>
					<time>0001-01-01T00:00:00Z</time>
				</trkpt>
				<trkpt lat="54.90441" lon="-2.51056">
					<ele>234</ele>
					<time>0001-01-01T00:00:00Z</time>
				</trkpt>
				<trkpt lat="54.90586" lon="-2.51006">
					<ele>233</ele>
					<time>0001-01-01T00:00:00Z</time>
				</trkpt>
				<trkpt lat="54.90754" lon="-2.50995">
					<ele>234</ele>
					<time>0001-01-01T00:00:00Z</time>
				</trkpt>
				<trkpt lat="54.90957" lon="-2.50961">
					<ele>230</ele>
					<time>0001-01-01T00:00:00Z</time>
				</trkpt>
				<trkpt lat="54.91158" lon="-2.50944">
					<ele>228</ele>
					<time>0001-01-01T00:00:00Z</time>
				</trkpt>
				<trkpt lat="54.91381" lon="-2.51023">
					<ele>221</ele>
					<time>0001-01-01T00:00:00Z</time>
				</trkpt>
				<trkpt lat="54.91538" lon="-2.51177">
					<ele>219</ele>
					<time>0001-01-01T00:00:00Z</time>
				</trkpt>
				<trkpt lat="54.91574" lon="-2.51259">
					<ele>219</ele>
					<time>0001-01-01T00:00:00Z</time>
				</trkpt>
				<trkpt lat="54.91593" lon="-2.51288">
					<ele>219</ele>
					<time>0001-01-01T00:00:00Z</time>
				</trkpt>
				<trkpt lat="54.91695" lon="-2.51383">
					<ele>218</ele>
					<time>0001-01-01T00:00:00Z</time>
				</trkpt>
				<trkpt lat="54.91780" lon="-2.51415">
					<ele>216</ele>
					<time>0001-01-01T00:00:00Z</time>
				</trkpt>
				<trkpt lat="54.91900" lon="-2.51362">
					<ele>215</ele>
					<time>0001-01-01T00:00:00Z</time>
				</trkpt>
				<trkpt lat="54.91963" lon="-2.51423">
					<ele>214</ele>
					<time>0001-01-01T00:00:00Z</time>
				</trkpt>
				<trkpt lat="54.91971" lon="-2.51444">
					<ele>214</ele>
					<time>0001-01-01T00:00:00Z</time>
				</trkpt>
				<trkpt lat="54.92015" lon="-2.51663">
					<ele>213</ele>
					<time>0001-01-01T00:00:00Z</time>
				</trkpt>
				<trkpt lat="54.92030" lon="-2.51876">
					<ele>212</ele>
					<time>0001-01-01T00:00:00Z</time>
				</trkpt>
				<trkpt lat="54.92059" lon="-2.52121">
					<ele>211</ele>
					<time>0001-01-01T00:00:00Z</time>
				</trkpt>
				<trkpt lat="54.92091" lon="-2.52377">
					<ele>208</ele>
					<time>0001-01-01T00:00:00Z</time>
				</trkpt>
				<trkpt lat="54.92107" lon="-2.52662">
					<ele>204</ele>
					<time>0001-01-01T00:00:00Z</time>
				</trkpt>
				<trkpt lat="54.92066" lon="-2.52937">
					<ele>203</ele>
					<time>0001-01-01T00:00:00Z</time>
				</trkpt>
				<trkpt lat="54.92021" lon="-2.53204">
					<ele>204</ele>
					<time>0001-01-01T00:00:00Z</time>
				</trkpt>
				<trkpt lat="54.92000" lon="-2.53431">
					<ele>204</ele>
					<time>0001-01-01T00:00:00Z</time>
				</trkpt>
				<trkpt lat="54.91986" lon="-2.53748">
					<ele>202</ele>
					<time>0001-01-01T00:00:00Z</time>
				</trkpt>
				<trkpt lat="54.91980" lon="-2.53953">
					<ele>202</ele>
					<time>0001-01-01T00:00:00Z</time>
				</trkpt>
				<trkpt lat="54.91994" lon="-2.54203">
					<ele>201</ele>
					<time>0001-01-01T00:00:00Z</time>
				</trkpt>
				<trkpt lat="54.92055" lon="-2.54378">
					<ele>199</ele>
					<time>0001-01-01T00:00:00Z</time>
				</trkpt>
				<trkpt lat="54.92133" lon="-2.54634">
					<ele>200</ele>
					<time>0001-01-01T00:00:00Z</time>
				</trkpt>
				<trkpt lat="54.92166" lon="-2.54817">
					<ele>202</ele>
					<time>0001-01-01T00:00:00Z</time>
				</trkpt>
				<trkpt lat="54.92188" lon="-2.54997">
					<ele>204</ele>
					<time>0001-01-01T00:00:00Z</time>
				</trkpt>
				<trkpt lat="54.92249" lon="-2.55130">
					<ele>205</ele>
					<time>0001-01-01T00:00:00Z</time>
				</trkpt>
				<trkpt lat="54.92281" lon="-2.55210">
					<ele>205</ele>
					<time>0001-01-01T00:00:00Z</time>
				</trkpt>
				<trkpt lat="54.92286" lon="-2.55253">
					<ele>205</ele>
					<time>0001-01-01T00:00:00Z</time>
				</trkpt>
				<trkpt lat="54.92280" lon="-2.55478">
					<ele>204</ele>
					<time>0001-01-01T00:00:00Z</time>
				</trkpt>
				<trkpt lat="54.92284" lon="-2.55708">
					<ele>204</ele>
					<time>0001-01-01T00:00:00Z</time>
				</trkpt>
				<trkpt lat="54.92303" lon="-2.55960">
					<ele>198</ele>
					<time>0001-01-01T00:00:00Z</time>
				</trkpt>
				<trkpt lat="54.92356" lon="-2.56262">
					<ele>195</ele>
					<time>0001-01-01T00:00:00Z</time>
				</trkpt>
				<trkpt lat="54.92409" lon="-2.56487">
					<ele>196</ele>
					<time>0001-01-01T00:00:00Z</time>
				</trkpt>
				<trkpt lat="54.92413" lon="-2.56615">
					<ele>201</ele>
					<time>0001-01-01T00:00:00Z</time>
				</trkpt>
				<trkpt lat="54.92404" lon="-2.56757">
					<ele>206</ele>
					<time>0001-01-01T00:00:00Z</time>
				</trkpt>
				<trkpt lat="54.92400" lon="-2.56888">
					<ele>209</ele>
					<time>0001-01-01T00:00:00Z</time>
				</trkpt>
				<trkpt lat="54.92402" lon="-2.56940">
					<ele>210</ele>
					<time>0001-01-01T00:00:00Z</time>
				</trkpt>
				<trkpt lat="54.92413" lon="-2.57009">
					<ele>211</ele>
					<time>0001-01-01T00:00:00Z</time>
				</trkpt>
				<trkpt lat="54.92421" lon="-2.57025">
					<ele>212</ele>
					<time>0001-01-01T00:00:00Z</time>
				</trkpt>
				<trkpt lat="54.92506" lon="-2.57116">
					<ele>211</ele>
					<time>0001-01-01T00:00:00Z</time>
				</trkpt>
				<trkpt lat="54.92525" lon="-2.57140">
					<ele>211</ele>
					<time>0001-01-01T00:00:00Z</time>
				</trkpt>
				<trkpt lat="54.92541" lon="-2.57176">
					<ele>213</ele>
					<time>0001-01-01T00:00:00Z</time>
				</trkpt>
				<trkpt lat="54.92581" lon="-2.57321">
					<ele>217</ele>
					<time>0001-01-01T00:00:00Z</time>
				</trkpt>
				<trkpt lat="54.92630" lon="-2.57474">
					<ele>218</ele>
					<time>0001-01-01T00:00:00Z</time>
				</trkpt>
				<trkpt lat="54.92691" lon="-2.57693">
					<ele>214</ele>
					<time>0001-01-01T00:00:00Z</time>
				</trkpt>
				<trkpt lat="54.92728" lon="-2.57787">
					<ele>212</ele>
					<time>0001-01-01T00:00:00Z</time>
				</trkpt>
				<trkpt lat="54.92730" lon="-2.57885">
					<ele>209</ele>
					<time>0001-01-01T00:00:00Z</time>
				</trkpt>
				<trkpt lat="54.92709" lon="-2.58080">
					<ele>206</ele>
					<time>0001-01-01T00:00:00Z</time>
				</trkpt>
				<trkpt lat="54.92701" lon="-2.58342">
					<ele>199</ele>
					<time>0001-01-01T00:00:00Z</time>
				</trkpt>
				<trkpt lat="54.92691" lon="-2.58521">
					<ele>196</ele>
					<time>0001-01-01T00:00:00Z</time>
				</trkpt>
				<trkpt lat="54.92721" lon="-2.58588">
					<ele>192</ele>
					<time>0001-01-01T00:00:00Z</time>
				</trkpt>
				<trkpt lat="54.92759" lon="-2.58706">
					<ele>187</ele>
					<time>0001-01-01T00:00:00Z</time>
				</trkpt>
				<trkpt lat="54.92761" lon="-2.58757">
					<ele>186</ele>
					<time>0001-01-01T00:00:00Z</time>
				</trkpt>
				<trkpt lat="54.92773" lon="-2.58817">
					<ele>185</ele>
					<time>0001-01-01T00:00:00Z</time>
				</trkpt>
				<trkpt lat="54.92790" lon="-2.58882">
					<ele>185</ele>
					<time>0001-01-01T00:00:00Z</time>
				</trkpt>
				<trkpt lat="54.92786" lon="-2.58952">
					<ele>186</ele>
					<time>0001-01-01T00:00:00Z</time>
				</trkpt>
				<trkpt lat="54.92771" lon="-2.59057">
					<ele>187</ele>
					<time>0001-01-01T00:00:00Z</time>
				</trkpt>
				<trkpt lat="54.92775" lon="-2.59105">
					<ele>188</ele>
					<time>0001-01-01T00:00:00Z</time>
				</trkpt>
				<trkpt lat="54.92805" lon="-2.59163">
					<ele>188</ele>
					<time>0001-01-01T00:00:00Z</time>
				</trkpt>
				<trkpt lat="54.92914" lon="-2.59212">
					<ele>188</ele>
					<time>0001-01-01T00:00:00Z</time>
				</trkpt>
				<trkpt lat="54.92994" lon="-2.59258">
					<ele>189</ele>
					<time>0001-01-01T00:00:00Z</time>
				</trkpt>
				<trkpt lat="54.93012" lon="-2.59299">
					<ele>189</ele>
					<time>0001-01-01T00:00:00Z</time>
				</trkpt>
				<trkpt lat="54.93055" lon="-2.59560">
					<ele>191</ele>
					<time>0001-01-01T00:00:00Z</time>
				</trkpt>
				<trkpt lat="54.93066" lon="-2.59825">
					<ele>191</ele>
					<time>0001-01-01T00:00:00Z</time>
				</trkpt>
				<trkpt lat="54.93079" lon="-2.60026">
					<ele>192</ele>
					<time>0001-01-01T00:00:00Z</time>
				</trkpt>
				<trkpt lat="54.93067" lon="-2.60247">
					<ele>191</ele>
					<time>0001-01-01T00:00:00Z</time>
				</trkpt>
				<trkpt lat="54.93063" lon="-2.60438">
					<ele>192</ele>
					<time>0001-01-01T00:00:00Z</time>
				</trkpt>
				<trkpt lat="54.93119" lon="-2.60596">
					<ele>193</ele>
					<time>0001-01-01T00:00:00Z</time>
				</trkpt>
				<trkpt lat="54.93182" lon="-2.60710">
					<ele>194</ele>
					<time>0001-01-01T00:00:00Z</time>
				</trkpt>
				<trkpt lat="54.93204" lon="-2.60731">
					<ele>194</ele>
					<time>0001-01-01T00:00:00Z</time>
				</trkpt>
				<trkpt lat="54.93271" lon="-2.60756">
					<ele>193</ele>
					<time>0001-01-01T00:00:00Z</time>
				</trkpt>
				<trkpt lat="54.93283" lon="-2.60762">
					<ele>193</ele>
					<time>0001-01-01T00:00:00Z</time>
				</trkpt>
				<trkpt lat="54.93377" lon="-2.60890">
					<ele>195</ele>
					<time>0001-01-01T00:00:00Z</time>
				</trkpt>
				<trkpt lat="54.93438" lon="-2.61076">
					<ele>197</ele>
					<time>0001-01-01T00:00:00Z</time>
				</trkpt>
				<trkpt lat="54.93460" lon="-2.61282">
					<ele>199</ele>
					<time>0001-01-01T00:00:00Z</time>
				</trkpt>
				<trkpt lat="54.93423" lon="-2.61519">
					<ele>201</ele>
					<time>0001-01-01T00:00:00Z</time>
				</trkpt>
				<trkpt lat="54.93375" lon="-2.61798">
					<ele>204</ele>
					<time>0001-01-01T00:00:00Z</time>
				</trkpt>
				<trkpt lat="54.93329" lon="-2.62046">
					<ele>206</ele>
					<time>0001-01-01T00:00:00Z</time>
				</trkpt>
				<trkpt lat="54.93309" lon="-2.62272">
					<ele>207</ele>
					<time>0001-01-01T00:00:00Z</time>
				</trkpt>
				<trkpt lat="54.93324" lon="-2.62539">
					<ele>208</ele>
					<time>0001-01-01T00:00:00Z</time>
				</trkpt>
				<trkpt lat="54.93344" lon="-2.62786">
					<ele>208</ele>
					<time>0001-01-01T00:00:00Z</time>
				</trkpt>
				<trkpt lat="54.93309" lon="-2.63026">
					<ele>209</ele>
					<time>0001-01-01T00:00:00Z</time>
				</trkpt>
				<trkpt lat="54.93311" lon="-2.63222">
					<ele>211</ele>
					<time>0001-01-01T00:00:00Z</time>
				</trkpt>
				<trkpt lat="54.93315" lon="-2.63500">
					<ele>210</ele>
					<time>0001-01-01T00:00:00Z</time>
				</trkpt>
				<trkpt lat="54.93279" lon="-2.63708">
					<ele>210</ele>
					<time>0001-01-01T00:00:00Z</time>
				</trkpt>
				<trkpt lat="54.93239" lon="-2.63917">
					<ele>212</ele>
					<time>0001-01-01T00:00:00Z</time>
				</trkpt>
				<trkpt lat="54.93217" lon="-2.64031">
					<ele>213</ele>
					<time>0001-01-01T00:00:00Z</time>
				</trkpt>
				<trkpt lat="54.93209" lon="-2.64104">
					<ele>213</ele>
					<time>0001-01-01T00:00:00Z</time>
				</trkpt>
				<trkpt lat="54.93193" lon="-2.64225">
					<ele>209</ele>
					<time>0001-01-01T00:00:00Z</time>
				</trkpt>
				<trkpt lat="54.93124" lon="-2.64445">
					<ele>205</ele>
					<time>0001-01-01T00:00:00Z</time>
				</trkpt>
				<trkpt lat="54.93059" lon="-2.64703">
					<ele>204</ele>
					<time>0001-01-01T00:00:00Z</time>
				</trkpt>
				<trkpt lat="54.93000" lon="-2.64990">
					<ele>203</ele>
					<time>0001-01-01T00:00:00Z</time>
				</trkpt>
				<trkpt lat="54.92960" lon="-2.65252">
					<ele>204</ele>
					<time>0001-01-01T00:00:00Z</time>
				</trkpt>
				<trkpt lat="54.92925" lon="-2.65445">
					<ele>204</ele>
					<time>0001-01-01T00:00:00Z</time>
				</trkpt>
				<trkpt lat="54.92920" lon="-2.65524">
					<ele>203</ele>
					<time>0001-01-01T00:00:00Z</time>
				</trkpt>
				<trkpt lat="54.92953" lon="-2.65685">
					<ele>204</ele>
					<time>0001-01-01T00:00:00Z</time>
				</trkpt>
				<trkpt lat="54.92966" lon="-2.65748">
					<ele>207</ele>
					<time>0001-01-01T00:00:00Z</time>
				</trkpt>
				<trkpt lat="54.93091" lon="-2.66207">
					<ele>208</ele>
					<time>0001-01-01T00:00:00Z</time>
				</trkpt>
				<trkpt lat="54.93093" lon="-2.66397">
					<ele>205</ele>
					<time>0001-01-01T00:00:00Z</time>
				</trkpt>
				<trkpt lat="54.93112" lon="-2.66507">
					<ele>201</ele>
					<time>0001-01-01T00:00:00Z</time>
				</trkpt>
				<trkpt lat="54.93104" lon="-2.66634">
					<ele>199</ele>
					<time>0001-01-01T00:00:00Z</time>
				</trkpt>
				<trkpt lat="54.93174" lon="-2.66661">
					<ele>197</ele>
					<time>0001-01-01T00:00:00Z</time>
				</trkpt>
				<trkpt lat="54.93193" lon="-2.66669">
					<ele>196</ele>
					<time>0001-01-01T00:00:00Z</time>
				</trkpt>
				<trkpt lat="54.93224" lon="-2.66709">
					<ele>193</ele>
					<time>0001-01-01T00:00:00Z</time>
				</trkpt>
				<trkpt lat="54.93243" lon="-2.66748">
					<ele>191</ele>
					<time>0001-01-01T00:00:00Z</time>
				</trkpt>
				<trkpt lat="54.93252" lon="-2.66872">
					<ele>186</ele>
					<time>0001-01-01T00:00:00Z</time>
				</trkpt>
				<trkpt lat="54.93252" lon="-2.66953">
					<ele>184</ele>
					<time>0001-01-01T00:00:00Z</time>
				</trkpt>
				<trkpt lat="54.93287" lon="-2.67177">
					<ele>174</ele>
					<time>0001-01-01T00:00:00Z</time>
				</trkpt>
				<trkpt lat="54.93356" lon="-2.67354">
					<ele>172</ele>
					<time>0001-01-01T00:00:00Z</time>
				</trkpt>
				<trkpt lat="54.93455" lon="-2.67553">
					<ele>166</ele>
					<time>0001-01-01T00:00:00Z</time>
				</trkpt>
				<trkpt lat="54.93509" lon="-2.67632">
					<ele>164</ele>
					<time>0001-01-01T00:00:00Z</time>
				</trkpt>
				<trkpt lat="54.93537" lon="-2.67649">
					<ele>163</ele>
					<time>0001-01-01T00:00:00Z</time>
				</trkpt>
				<trkpt lat="54.93556" lon="-2.67654">
					<ele>164</ele>
					<time>0001-01-01T00:00:00Z</time>
				</trkpt>
				<trkpt lat="54.93569" lon="-2.67714">
					<ele>162</ele>
					<time>0001-01-01T00:00:00Z</time>
				</trkpt>
				<trkpt lat="54.93541" lon="-2.67888">
					<ele>154</ele>
					<time>0001-01-01T00:00:00Z</time>
				</trkpt>
				<trkpt lat="54.93515" lon="-2.67930">
					<ele>152</ele>
					<time>0001-01-01T00:00:00Z</time>
				</trkpt>
				<trkpt lat="54.93498" lon="-2.68029">
					<ele>151</ele>
					<time>0001-01-01T00:00:00Z</time>
				</trkpt>
				<trkpt lat="54.93509" lon="-2.68205">
					<ele>155</ele>
					<time>0001-01-01T00:00:00Z</time>
				</trkpt>
				<trkpt lat="54.93532" lon="-2.68444">
					<ele>153</ele>
					<time>0001-01-01T00:00:00Z</time>
				</trkpt>
				<trkpt lat="54.93589" lon="-2.68674">
					<ele>147</ele>
					<time>0001-01-01T00:00:00Z</time>
				</trkpt>
				<trkpt lat="54.93652" lon="-2.68983">
					<ele>143</ele>
					<time>0001-01-01T00:00:00Z</time>
				</trkpt>
				<trkpt lat="54.93711" lon="-2.69243">
					<ele>145</ele>
					<time>0001-01-01T00:00:00Z</time>
				</trkpt>
				<trkpt lat="54.93764" lon="-2.69491">
					<ele>140</ele>
					<time>0001-01-01T00:00:00Z</time>
				</trkpt>
				<trkpt lat="54.93768" lon="-2.69540">
					<ele>140</ele>
					<time>0001-01-01T00:00:00Z</time>
				</trkpt>
				<trkpt lat="54.93760" lon="-2.69579">
					<ele>138</ele>
					<time>0001-01-01T00:00:00Z</time>
				</trkpt>
				<trkpt lat="54.93712" lon="-2.69822">
					<ele>128</ele>
					<time>0001-01-01T00:00:00Z</time>
				</trkpt>
				<trkpt lat="54.93699" lon="-2.69898">
					<ele>129</ele>
					<time>0001-01-01T00:00:00Z</time>
				</trkpt>
				<trkpt lat="54.93700" lon="-2.69951">
					<ele>129</ele>
					<time>0001-01-01T00:00:00Z</time>
				</trkpt>
				<trkpt lat="54.93714" lon="-2.70118">
					<ele>134</ele>
					<time>0001-01-01T00:00:00Z</time>
				</trkpt>
				<trkpt lat="54.93726" lon="-2.70312">
					<ele>137</ele>
					<time>0001-01-01T00:00:00Z</time>
				</trkpt>
				<trkpt lat="54.93779" lon="-2.70480">
					<ele>137</ele>
					<time>0001-01-01T00:00:00Z</time>
				</trkpt>
				<trkpt lat="54.93787" lon="-2.70541">
					<ele>137</ele>
					<time>0001-01-01T00:00:00Z</time>
				</trkpt>
				<trkpt lat="54.93816" lon="-2.70641">
					<ele>132</ele>
					<time>0001-01-01T00:00:00Z</time>
				</trkpt>
				<trkpt lat="54.93935" lon="-2.70882">
					<ele>131</ele>
					<time>0001-01-01T00:00:00Z</time>
				</trkpt>
				<trkpt lat="54.93972" lon="-2.70984">
					<ele>131</ele>
					<time>0001-01-01T00:00:00Z</time>
				</trkpt>
				<trkpt lat="54.93980" lon="-2.71015">
					<ele>130</ele>
					<time>0001-01-01T00:00:00Z</time>
				</trkpt>
				<trkpt lat="54.93998" lon="-2.71208">
					<ele>129</ele>
					<time>0001-01-01T00:00:00Z</time>
				</trkpt>
				<trkpt lat="54.94006" lon="-2.71239">
					<ele>129</ele>
					<time>0001-01-01T00:00:00Z</time>
				</trkpt>
				<trkpt lat="54.94006" lon="-2.71241">
					<ele>129</ele>
					<time>0001-01-01T00:00:00Z</time>
				</trkpt>
				<trkpt lat="54.94022" lon="-2.71239">
					<ele>128</ele>
					<time>0001-01-01T00:00:00Z</time>
				</trkpt>
				<trkpt lat="54.94049" lon="-2.71259">
					<ele>127</ele>
					<time>0001-01-01T00:00:00Z</time>
				</trkpt>
				<trkpt lat="54.94096" lon="-2.71353">
					<ele>128</ele>
					<time>0001-01-01T00:00:00Z</time>
				</trkpt>
				<trkpt lat="54.94115" lon="-2.71455">
					<ele>128</ele>
					<time>0001-01-01T00:00:00Z</time>
				</trkpt>
				<trkpt lat="54.94142" lon="-2.71712">
					<ele>127</ele>
					<time>0001-01-01T00:00:00Z</time>
				</trkpt>
				<trkpt lat="54.94181" lon="-2.72041">
					<ele>116</ele>
					<time>0001-01-01T00:00:00Z</time>
				</trkpt>
				<trkpt lat="54.94241" lon="-2.72372">
					<ele>103</ele>
					<time>0001-01-01T00:00:00Z</time>
				</trkpt>
				<trkpt lat="54.94284" lon="-2.72614">
					<ele>93</ele>
					<time>0001-01-01T00:00:00Z</time>
				</trkpt>
				<trkpt lat="54.94304" lon="-2.72780">
					<ele>90</ele>
					<time>0001-01-01T00:00:00Z</time>
				</trkpt>
				<trkpt lat="54.94301" lon="-2.73012">
					<ele>89</ele>
					<time>0001-01-01T00:00:00Z</time>
				</trkpt>
				<trkpt lat="54.94313" lon="-2.73233">
					<ele>82</ele>
					<time>0001-01-01T00:00:00Z</time>
				</trkpt>
				<trkpt lat="54.94314" lon="-2.73381">
					<ele>78</ele>
					<time>0001-01-01T00:00:00Z</time>
				</trkpt>
				<trkpt lat="54.94291" lon="-2.73550">
					<ele>75</ele>
					<time>0001-01-01T00:00:00Z</time>
				</trkpt>
				<trkpt lat="54.94260" lon="-2.73639">
					<ele>74</ele>
					<time>0001-01-01T00:00:00Z</time>
				</trkpt>
				<trkpt lat="54.94182" lon="-2.73977">
					<ele>69</ele>
					<time>0001-01-01T00:00:00Z</time>
				</trkpt>
				<trkpt lat="54.94175" lon="-2.74013">
					<ele>69</ele>
					<time>0001-01-01T00:00:00Z</time>
				</trkpt>
				<trkpt lat="54.94181" lon="-2.73985">
					<ele>69</ele>
					<time>0001-01-01T00:00:00Z</time>
				</trkpt>
				<trkpt lat="54.94194" lon="-2.73929">
					<ele>69</ele>
					<time>0001-01-01T00:00:00Z</time>
				</trkpt>
				<trkpt lat="54.94236" lon="-2.74020">
					<ele>72</ele>
					<time>0001-01-01T00:00:00Z</time>
				</trkpt>
				<trkpt lat="54.94251" lon="-2.74038">
					<ele>73</ele>
					<time>0001-01-01T00:00:00Z</time>
				</trkpt>
				<trkpt lat="54.94325" lon="-2.74083">
					<ele>77</ele>
					<time>0001-01-01T00:00:00Z</time>
				</trkpt>
				<trkpt lat="54.94419" lon="-2.74129">
					<ele>75</ele>
					<time>0001-01-01T00:00:00Z</time>
				</trkpt>
				<trkpt lat="54.94546" lon="-2.74225">
					<ele>69</ele>
					<time>0001-01-01T00:00:00Z</time>
				</trkpt>
				<trkpt lat="54.94718" lon="-2.74361">
					<ele>66</ele>
					<time>0001-01-01T00:00:00Z</time>
				</trkpt>
				<trkpt lat="54.94894" lon="-2.74472">
					<ele>62</ele>
					<time>0001-01-01T00:00:00Z</time>
				</trkpt>
				<trkpt lat="54.94984" lon="-2.74643">
					<ele>58</ele>
					<time>0001-01-01T00:00:00Z</time>
				</trkpt>
				<trkpt lat="54.95125" lon="-2.74984">
					<ele>48</ele>
					<time>0001-01-01T00:00:00Z</time>
				</trkpt>
				<trkpt lat="54.95153" lon="-2.75227">
					<ele>45</ele>
					<time>0001-01-01T00:00:00Z</time>
				</trkpt>
				<trkpt lat="54.95192" lon="-2.75598">
					<ele>42</ele>
					<time>0001-01-01T00:00:00Z</time>
				</trkpt>
				<trkpt lat="54.95244" lon="-2.75765">
					<ele>40</ele>
					<time>0001-01-01T00:00:00Z</time>
				</trkpt>
				<trkpt lat="54.95242" lon="-2.75819">
					<ele>40</ele>
					<time>0001-01-01T00:00:00Z</time>
				</trkpt>
				<trkpt lat="54.95200" lon="-2.76052">
					<ele>40</ele>
					<time>0001-01-01T00:00:00Z</time>
				</trkpt>
				<trkpt lat="54.95211" lon="-2.76100">
					<ele>40</ele>
					<time>0001-01-01T00:00:00Z</time>
				</trkpt>
				<trkpt lat="54.95275" lon="-2.76233">
					<ele>39</ele>
					<time>0001-01-01T00:00:00Z</time>
				</trkpt>
				<trkpt lat="54.95320" lon="-2.76229">
					<ele>38</ele>
					<time>0001-01-01T00:00:00Z</time>
				</trkpt>
				<trkpt lat="54.95332" lon="-2.76224">
					<ele>38</ele>
					<time>0001-01-01T00:00:00Z</time>
				</trkpt>
				<trkpt lat="54.95359" lon="-2.76262">
					<ele>36</ele>
					<time>0001-01-01T00:00:00Z</time>
				</trkpt>
				<trkpt lat="54.95376" lon="-2.76318">
					<ele>35</ele>
					<time>0001-01-01T00:00:00Z</time>
				</trkpt>
				<trkpt lat="54.95393" lon="-2.76351">
					<ele>36</ele>
					<time>0001-01-01T00:00:00Z</time>
				</trkpt>
				<trkpt lat="54.95419" lon="-2.76365">
					<ele>36</ele>
					<time>0001-01-01T00:00:00Z</time>
				</trkpt>
				<trkpt lat="54.95433" lon="-2.76370">
					<ele>36</ele>
					<time>0001-01-01T00:00:00Z</time>
				</trkpt>
				<trkpt lat="54.95454" lon="-2.76384">
					<ele>35</ele>
					<time>0001-01-01T00:00:00Z</time>
				</trkpt>
				<trkpt lat="54.95546" lon="-2.76511">
					<ele>34</ele>
					<time>0001-01-01T00:00:00Z</time>
				</trkpt>
				<trkpt lat="54.95596" lon="-2.76586">
					<ele>34</ele>
					<time>0001-01-01T00:00:00Z</time>
				</trkpt>
				<trkpt lat="54.95633" lon="-2.76750">
					<ele>40</ele>
					<time>0001-01-01T00:00:00Z</time>
				</trkpt>
				<trkpt lat="54.95655" lon="-2.76909">
					<ele>41</ele>
					<time>0001-01-01T00:00:00Z</time>
				</trkpt>
				<trkpt lat="54.95672" lon="-2.77040">
					<ele>44</ele>
					<time>0001-01-01T00:00:00Z</time>
				</trkpt>
				<trkpt lat="54.95674" lon="-2.77085">
					<ele>45</ele>
					<time>0001-01-01T00:00:00Z</time>
				</trkpt>
				<trkpt lat="54.95674" lon="-2.77087">
					<ele>43</ele>
					<time>0001-01-01T00:00:00Z</time>
				</trkpt>
				<trkpt lat="54.95677" lon="-2.77089">
					<ele>43</ele>
					<time>0001-01-01T00:00:00Z</time>
				</trkpt>
				<trkpt lat="54.95679" lon="-2.77103">
					<ele>44</ele>
					<time>0001-01-01T00:00:00Z</time>
				</trkpt>
				<trkpt lat="54.95689" lon="-2.77193">
					<ele>48</ele>
					<time>0001-01-01T00:00:00Z</time>
				</trkpt>
				<trkpt lat="54.95700" lon="-2.77308">
					<ele>51</ele>
					<time>0001-01-01T00:00:00Z</time>
				</trkpt>
				<trkpt lat="54.95703" lon="-2.77468">
					<ele>54</ele>
					<time>0001-01-01T00:00:00Z</time>
				</trkpt>
				<trkpt lat="54.95705" lon="-2.77676">
					<ele>59</ele>
					<time>0001-01-01T00:00:00Z</time>
				</trkpt>
				<trkpt lat="54.95708" lon="-2.77824">
					<ele>60</ele>
					<time>0001-01-01T00:00:00Z</time>
				</trkpt>
				<trkpt lat="54.95710" lon="-2.77940">
					<ele>64</ele>
					<time>0001-01-01T00:00:00Z</time>
				</trkpt>
				<trkpt lat="54.95712" lon="-2.78039">
					<ele>68</ele>
					<time>0001-01-01T00:00:00Z</time>
				</trkpt>
				<trkpt lat="54.95737" lon="-2.78176">
					<ele>71</ele>
					<time>0001-01-01T00:00:00Z</time>
				</trkpt>
				<trkpt lat="54.95818" lon="-2.78358">
					<ele>70</ele>
					<time>0001-01-01T00:00:00Z</time>
				</trkpt>
				<trkpt lat="54.95932" lon="-2.78523">
					<ele>68</ele>
					<time>0001-01-01T00:00:00Z</time>
				</trkpt>
				<trkpt lat="54.95956" lon="-2.78569">
					<ele>70</ele>
					<time>0001-01-01T00:00:00Z</time>
				</trkpt>
				<trkpt lat="54.96028" lon="-2.78797">
					<ele>73</ele>
					<time>0001-01-01T00:00:00Z</time>
				</trkpt>
				<trkpt lat="54.96102" lon="-2.79046">
					<ele>70</ele>
					<time>0001-01-01T00:00:00Z</time>
				</trkpt>
				<trkpt lat="54.96162" lon="-2.79247">
					<ele>70</ele>
					<time>0001-01-01T00:00:00Z</time>
				</trkpt>
				<trkpt lat="54.96222" lon="-2.79458">
					<ele>71</ele>
					<time>0001-01-01T00:00:00Z</time>
				</trkpt>
				<trkpt lat="54.96273" lon="-2.79720">
					<ele>71</ele>
					<time>0001-01-01T00:00:00Z</time>
				</trkpt>
				<trkpt lat="54.96314" lon="-2.80035">
					<ele>68</ele>
					<time>0001-01-01T00:00:00Z</time>
				</trkpt>
				<trkpt lat="54.96343" lon="-2.80263">
					<ele>70</ele>
					<time>0001-01-01T00:00:00Z</time>
				</trkpt>
				<trkpt lat="54.96377" lon="-2.80520">
					<ele>69</ele>
					<time>0001-01-01T00:00:00Z</time>
				</trkpt>
				<trkpt lat="54.96414" lon="-2.80797">
					<ele>64</ele>
					<time>0001-01-01T00:00:00Z</time>
				</trkpt>
				<trkpt lat="54.96457" lon="-2.81117">
					<ele>60</ele>
					<time>0001-01-01T00:00:00Z</time>
				</trkpt>
				<trkpt lat="54.96516" lon="-2.81560">
					<ele>55</ele>
					<time>0001-01-01T00:00:00Z</time>
				</trkpt>
				<trkpt lat="54.96560" lon="-2.81852">
					<ele>51</ele>
					<time>0001-01-01T00:00:00Z</time>
				</trkpt>
				<trkpt lat="54.96634" lon="-2.82175">
					<ele>49</ele>
					<time>0001-01-01T00:00:00Z</time>
				</trkpt>
				<trkpt lat="54.96695" lon="-2.82511">
					<ele>48</ele>
					<time>0001-01-01T00:00:00Z</time>
				</trkpt>
				<trkpt lat="54.96746" lon="-2.82721">
					<ele>49</ele>
					<time>0001-01-01T00:00:00Z</time>
				</trkpt>
				<trkpt lat="54.96812" lon="-2.82943">
					<ele>50</ele>
					<time>0001-01-01T00:00:00Z</time>
				</trkpt>
				<trkpt lat="54.96886" lon="-2.83195">
					<ele>51</ele>
					<time>0001-01-01T00:00:00Z</time>
				</trkpt>
				<trkpt lat="54.96979" lon="-2.83509">
					<ele>51</ele>
					<time>0001-01-01T00:00:00Z</time>
				</trkpt>
				<trkpt lat="54.97073" lon="-2.83836">
					<ele>50</ele>
					<time>0001-01-01T00:00:00Z</time>
				</trkpt>
				<trkpt lat="54.97156" lon="-2.84132">
					<ele>52</ele>
					<time>0001-01-01T00:00:00Z</time>
				</trkpt>
				<trkpt lat="54.97214" lon="-2.84325">
					<ele>55</ele>
					<time>0001-01-01T00:00:00Z</time>
				</trkpt>
				<trkpt lat="54.97278" lon="-2.84543">
					<ele>55</ele>
					<time>0001-01-01T00:00:00Z</time>
				</trkpt>
				<trkpt lat="54.97331" lon="-2.84797">
					<ele>52</ele>
					<time>0001-01-01T00:00:00Z</time>
				</trkpt>
				<trkpt lat="54.97394" lon="-2.85144">
					<ele>51</ele>
					<time>0001-01-01T00:00:00Z</time>
				</trkpt>
				<trkpt lat="54.97434" lon="-2.85434">
					<ele>51</ele>
					<time>0001-01-01T00:00:00Z</time>
				</trkpt>
				<trkpt lat="54.97470" lon="-2.85704">
					<ele>49</ele>
					<time>0001-01-01T00:00:00Z</time>
				</trkpt>
				<trkpt lat="54.97491" lon="-2.85830">
					<ele>49</ele>
					<time>0001-01-01T00:00:00Z</time>
				</trkpt>
				<trkpt lat="54.97610" lon="-2.86089">
					<ele>46</ele>
					<time>0001-01-01T00:00:00Z</time>
				</trkpt>
				<trkpt lat="54.97752" lon="-2.86398">
					<ele>44</ele>
					<time>0001-01-01T00:00:00Z</time>
				</trkpt>
				<trkpt lat="54.97845" lon="-2.86624">
					<ele>44</ele>
					<time>0001-01-01T00:00:00Z</time>
				</trkpt>
				<trkpt lat="54.97886" lon="-2.86892">
					<ele>45</ele>
					<time>0001-01-01T00:00:00Z</time>
				</trkpt>
				<trkpt lat="54.97922" lon="-2.87214">
					<ele>47</ele>
					<time>0001-01-01T00:00:00Z</time>
				</trkpt>
				<trkpt lat="54.97949" lon="-2.87443">
					<ele>48</ele>
					<time>0001-01-01T00:00:00Z</time>
				</trkpt>
				<trkpt lat="54.97969" lon="-2.87702">
					<ele>50</ele>
					<time>0001-01-01T00:00:00Z</time>
				</trkpt>
				<trkpt lat="54.97922" lon="-2.87931">
					<ele>49</ele>
					<time>0001-01-01T00:00:00Z</time>
				</trkpt>
				<trkpt lat="54.97914" lon="-2.88117">
					<ele>49</ele>
					<time>0001-01-01T00:00:00Z</time>
				</trkpt>
				<trkpt lat="54.97944" lon="-2.88361">
					<ele>49</ele>
					<time>0001-01-01T00:00:00Z</time>
				</trkpt>
				<trkpt lat="54.98010" lon="-2.88608">
					<ele>49</ele>
					<time>0001-01-01T00:00:00Z</time>
				</trkpt>
				<trkpt lat="54.98084" lon="-2.88880">
					<ele>48</ele>
					<time>0001-01-01T00:00:00Z</time>
				</trkpt>
				<trkpt lat="54.98141" lon="-2.89183">
					<ele>45</ele>
					<time>0001-01-01T00:00:00Z</time>
				</trkpt>
				<trkpt lat="54.98194" lon="-2.89492">
					<ele>39</ele>
					<time>0001-01-01T00:00:00Z</time>
				</trkpt>
				<trkpt lat="54.98231" lon="-2.89738">
					<ele>40</ele>
					<time>0001-01-01T00:00:00Z</time>
				</trkpt>
				<trkpt lat="54.98279" lon="-2.90061">
					<ele>36</ele>
					<time>0001-01-01T00:00:00Z</time>
				</trkpt>
				<trkpt lat="54.98341" lon="-2.90402">
					<ele>31</ele>
					<time>0001-01-01T00:00:00Z</time>
				</trkpt>
				<trkpt lat="54.98410" lon="-2.90744">
					<ele>28</ele>
					<time>0001-01-01T00:00:00Z</time>
				</trkpt>
				<trkpt lat="54.98409" lon="-2.90997">
					<ele>27</ele>
					<time>0001-01-01T00:00:00Z</time>
				</trkpt>
				<trkpt lat="54.98411" lon="-2.91270">
					<ele>25</ele>
					<time>0001-01-01T00:00:00Z</time>
				</trkpt>
				<trkpt lat="54.98438" lon="-2.91487">
					<ele>26</ele>
					<time>0001-01-01T00:00:00Z</time>
				</trkpt>
				<trkpt lat="54.98453" lon="-2.91556">
					<ele>27</ele>
					<time>0001-01-01T00:00:00Z</time>
				</trkpt>
				<trkpt lat="54.98486" lon="-2.91601">
					<ele>27</ele>
					<time>0001-01-01T00:00:00Z</time>
				</trkpt>
				<trkpt lat="54.98651" lon="-2.91705">
					<ele>26</ele>
					<time>0001-01-01T00:00:00Z</time>
				</trkpt>
				<trkpt lat="54.98774" lon="-2.91852">
					<ele>22</ele>
					<time>0001-01-01T00:00:00Z</time>
				</trkpt>
				<trkpt lat="54.98916" lon="-2.92058">
					<ele>20</ele>
					<time>0001-01-01T00:00:00Z</time>
				</trkpt>
				<trkpt lat="54.99016" lon="-2.92216">
					<ele>23</ele>
					<time>0001-01-01T00:00:00Z</time>
				</trkpt>
				<trkpt lat="54.99096" lon="-2.92432">
					<ele>24</ele>
					<time>0001-01-01T00:00:00Z</time>
				</trkpt>
				<trkpt lat="54.99276" lon="-2.92902">
					<ele>27</ele>
					<time>0001-01-01T00:00:00Z</time>
				</trkpt>
				<trkpt lat="54.99349" lon="-2.93106">
					<ele>28</ele>
					<time>0001-01-01T00:00:00Z</time>
				</trkpt>
				<trkpt lat="54.99447" lon="-2.93372">
					<ele>29</ele>
					<time>0001-01-01T00:00:00Z</time>
				</trkpt>
				<trkpt lat="54.99541" lon="-2.93627">
					<ele>28</ele>
					<time>0001-01-01T00:00:00Z</time>
				</trkpt>
				<trkpt lat="54.99626" lon="-2.93851">
					<ele>28</ele>
					<time>0001-01-01T00:00:00Z</time>
				</trkpt>
				<trkpt lat="54.99733" lon="-2.94124">
					<ele>26</ele>
					<time>0001-01-01T00:00:00Z</time>
				</trkpt>
				<trkpt lat="54.99826" lon="-2.94377">
					<ele>23</ele>
					<time>0001-01-01T00:00:00Z</time>
				</trkpt>
				<trkpt lat="54.99940" lon="-2.94688">
					<ele>25</ele>
					<time>0001-01-01T00:00:00Z</time>
				</trkpt>
				<trkpt lat="55.00038" lon="-2.94954">
					<ele>22</ele>
					<time>0001-01-01T00:00:00Z</time>
				</trkpt>
				<trkpt lat="55.00163" lon="-2.95279">
					<ele>22</ele>
					<time>0001-01-01T00:00:00Z</time>
				</trkpt>
				<trkpt lat="55.00264" lon="-2.95559">
					<ele>22</ele>
					<time>0001-01-01T00:00:00Z</time>
				</trkpt>
				<trkpt lat="55.00352" lon="-2.95805">
					<ele>26</ele>
					<time>0001-01-01T00:00:00Z</time>
				</trkpt>
				<trkpt lat="55.00460" lon="-2.96072">
					<ele>26</ele>
					<time>0001-01-01T00:00:00Z</time>
				</trkpt>
				<trkpt lat="55.00565" lon="-2.96367">
					<ele>25</ele>
					<time>0001-01-01T00:00:00Z</time>
				</trkpt>
				<trkpt lat="55.00676" lon="-2.96670">
					<ele>24</ele>
					<time>0001-01-01T00:00:00Z</time>
				</trkpt>
				<trkpt lat="55.00732" lon="-2.96822">
					<ele>25</ele>
					<time>0001-01-01T00:00:00Z</time>
				</trkpt>
				<trkpt lat="55.00717" lon="-2.96929">
					<ele>23</ele>
					<time>0001-01-01T00:00:00Z</time>
				</trkpt>
				<trkpt lat="55.00690" lon="-2.97073">
					<ele>24</ele>
					<time>0001-01-01T00:00:00Z</time>
				</trkpt>
				<trkpt lat="55.00692" lon="-2.97077">
					<ele>24</ele>
					<time>0001-01-01T00:00:00Z</time>
				</trkpt>
				<trkpt lat="55.00699" lon="-2.97086">
					<ele>23</ele>
					<time>0001-01-01T00:00:00Z</time>
				</trkpt>
				<trkpt lat="55.00710" lon="-2.97095">
					<ele>24</ele>
					<time>0001-01-01T00:00:00Z</time>
				</trkpt>
				<trkpt lat="55.00831" lon="-2.97172">
					<ele>22</ele>
					<time>0001-01-01T00:00:00Z</time>
				</trkpt>
				<trkpt lat="55.00926" lon="-2.97244">
					<ele>22</ele>
					<time>0001-01-01T00:00:00Z</time>
				</trkpt>
				<trkpt lat="55.00957" lon="-2.97284">
					<ele>23</ele>
					<time>0001-01-01T00:00:00Z</time>
				</trkpt>
				<trkpt lat="55.00957" lon="-2.97287">
					<ele>22</ele>
					<time>0001-01-01T00:00:00Z</time>
				</trkpt>
				<trkpt lat="55.00960" lon="-2.97291">
					<ele>22</ele>
					<time>0001-01-01T00:00:00Z</time>
				</trkpt>
				<trkpt lat="55.00963" lon="-2.97295">
					<ele>23</ele>
					<time>0001-01-01T00:00:00Z</time>
				</trkpt>
				<trkpt lat="55.00982" lon="-2.97311">
					<ele>28</ele>
					<time>0001-01-01T00:00:00Z</time>
				</trkpt>
				<trkpt lat="55.00985" lon="-2.97337">
					<ele>27</ele>
					<time>0001-01-01T00:00:00Z</time>
				</trkpt>
				<trkpt lat="55.00987" lon="-2.97318">
					<ele>28</ele>
					<time>0001-01-01T00:00:00Z</time>
				</trkpt>
				<trkpt lat="55.00990" lon="-2.97324">
					<ele>28</ele>
					<time>0001-01-01T00:00:00Z</time>
				</trkpt>
				<trkpt lat="55.00990" lon="-2.97326">
					<ele>24</ele>
					<time>0001-01-01T00:00:00Z</time>
				</trkpt>
				<trkpt lat="55.01020" lon="-2.97359">
					<ele>22</ele>
					<time>0001-01-01T00:00:00Z</time>
				</trkpt>
				<trkpt lat="55.01028" lon="-2.97369">
					<ele>22</ele>
					<time>0001-01-01T00:00:00Z</time>
				</trkpt>
				<trkpt lat="55.01055" lon="-2.97427">
					<ele>23</ele>
					<time>0001-01-01T00:00:00Z</time>
				</trkpt>
				<trkpt lat="55.01102" lon="-2.97639">
					<ele>18</ele>
					<time>0001-01-01T00:00:00Z</time>
				</trkpt>
				<trkpt lat="55.01124" lon="-2.97884">
					<ele>15</ele>
					<time>0001-01-01T00:00:00Z</time>
				</trkpt>
				<trkpt lat="55.01137" lon="-2.98021">
					<ele>15</ele>
					<time>0001-01-01T00:00:00Z</time>
				</trkpt>
				<trkpt lat="55.01183" lon="-2.98104">
					<ele>15</ele>
					<time>0001-01-01T00:00:00Z</time>
				</trkpt>
				<trkpt lat="55.01372" lon="-2.98212">
					<ele>15</ele>
					<time>0001-01-01T00:00:00Z</time>
				</trkpt>
				<trkpt lat="55.01588" lon="-2.98331">
					<ele>15</ele>
					<time>0001-01-01T00:00:00Z</time>
				</trkpt>
				<trkpt lat="55.01776" lon="-2.98434">
					<ele>15</ele>
					<time>0001-01-01T00:00:00Z</time>
				</trkpt>
				<trkpt lat="55.01971" lon="-2.98528">
					<ele>18</ele>
					<time>0001-01-01T00:00:00Z</time>
				</trkpt>
				<trkpt lat="55.01986" lon="-2.98524">
					<ele>18</ele>
					<time>0001-01-01T00:00:00Z</time>
				</trkpt>
				<trkpt lat="55.02015" lon="-2.98504">
					<ele>18</ele>
					<time>0001-01-01T00:00:00Z</time>
				</trkpt>
				<trkpt lat="55.02160" lon="-2.98308">
					<ele>18</ele>
					<time>0001-01-01T00:00:00Z</time>
				</trkpt>
				<trkpt lat="55.02353" lon="-2.98040">
					<ele>17</ele>
					<time>0001-01-01T00:00:00Z</time>
				</trkpt>
				<trkpt lat="55.02555" lon="-2.97770">
					<ele>18</ele>
					<time>0001-01-01T00:00:00Z</time>
				</trkpt>
				<trkpt lat="55.02739" lon="-2.97583">
					<ele>18</ele>
					<time>0001-01-01T00:00:00Z</time>
				</trkpt>
				<trkpt lat="55.02901" lon="-2.97357">
					<ele>18</ele>
					<time>0001-01-01T00:00:00Z</time>
				</trkpt>
				<trkpt lat="55.03075" lon="-2.97092">
					<ele>18</ele>
					<time>0001-01-01T00:00:00Z</time>
				</trkpt>
				<trkpt lat="55.03290" lon="-2.96787">
					<ele>12</ele>
					<time>0001-01-01T00:00:00Z</time>
				</trkpt>
				<trkpt lat="55.03438" lon="-2.96683">
					<ele>16</ele>
					<time>0001-01-01T00:00:00Z</time>
				</trkpt>
				<trkpt lat="55.03620" lon="-2.96567">
					<ele>25</ele>
					<time>0001-01-01T00:00:00Z</time>
				</trkpt>
				<trkpt lat="55.03757" lon="-2.96427">
					<ele>31</ele>
					<time>0001-01-01T00:00:00Z</time>
				</trkpt>
				<trkpt lat="55.03871" lon="-2.96291">
					<ele>40</ele>
					<time>0001-01-01T00:00:00Z</time>
				</trkpt>
				<trkpt lat="55.03963" lon="-2.96207">
					<ele>42</ele>
					<time>0001-01-01T00:00:00Z</time>
				</trkpt>
				<trkpt lat="55.04108" lon="-2.96131">
					<ele>41</ele>
					<time>0001-01-01T00:00:00Z</time>
				</trkpt>
				<trkpt lat="55.04218" lon="-2.96068">
					<ele>38</ele>
					<time>0001-01-01T00:00:00Z</time>
				</trkpt>
				<trkpt lat="55.04392" lon="-2.96061">
					<ele>37</ele>
					<time>0001-01-01T00:00:00Z</time>
				</trkpt>
				<trkpt lat="55.04572" lon="-2.96058">
					<ele>37</ele>
					<time>0001-01-01T00:00:00Z</time>
				</trkpt>
				<trkpt lat="55.04730" lon="-2.96081">
					<ele>34</ele>
					<time>0001-01-01T00:00:00Z</time>
				</trkpt>
				<trkpt lat="55.04830" lon="-2.96082">
					<ele>35</ele>
					<time>0001-01-01T00:00:00Z</time>
				</trkpt>
				<trkpt lat="55.04991" lon="-2.96061">
					<ele>35</ele>
					<time>0001-01-01T00:00:00Z</time>
				</trkpt>
				<trkpt lat="55.05135" lon="-2.96114">
					<ele>37</ele>
					<time>0001-01-01T00:00:00Z</time>
				</trkpt>
				<trkpt lat="55.05319" lon="-2.96103">
					<ele>40</ele>
					<time>0001-01-01T00:00:00Z</time>
				</trkpt>
				<trkpt lat="55.05465" lon="-2.96046">
					<ele>41</ele>
					<time>0001-01-01T00:00:00Z</time>
				</trkpt>
				<trkpt lat="55.05618" lon="-2.95964">
					<ele>42</ele>
					<time>0001-01-01T00:00:00Z</time>
				</trkpt>
				<trkpt lat="55.05795" lon="-2.95838">
					<ele>44</ele>
					<time>0001-01-01T00:00:00Z</time>
				</trkpt>
				<trkpt lat="55.05941" lon="-2.95744">
					<ele>46</ele>
					<time>0001-01-01T00:00:00Z</time>
				</trkpt>
				<trkpt lat="55.06067" lon="-2.95672">
					<ele>48</ele>
					<time>0001-01-01T00:00:00Z</time>
				</trkpt>
				<trkpt lat="55.06216" lon="-2.95597">
					<ele>52</ele>
					<time>0001-01-01T00:00:00Z</time>
				</trkpt>
				<trkpt lat="55.06391" lon="-2.95535">
					<ele>55</ele>
					<time>0001-01-01T00:00:00Z</time>
				</trkpt>
				<trkpt lat="55.06551" lon="-2.95503">
					<ele>60</ele>
					<time>0001-01-01T00:00:00Z</time>
				</trkpt>
				<trkpt lat="55.06708" lon="-2.95492">
					<ele>64</ele>
					<time>0001-01-01T00:00:00Z</time>
				</trkpt>
				<trkpt lat="55.06926" lon="-2.95513">
					<ele>64</ele>
					<time>0001-01-01T00:00:00Z</time>
				</trkpt>
				<trkpt lat="55.07131" lon="-2.95557">
					<ele>63</ele>
					<time>0001-01-01T00:00:00Z</time>
				</trkpt>
				<trkpt lat="55.07266" lon="-2.95590">
					<ele>61</ele>
					<time>0001-01-01T00:00:00Z</time>
				</trkpt>
				<trkpt lat="55.07440" lon="-2.95634">
					<ele>69</ele>
					<time>0001-01-01T00:00:00Z</time>
				</trkpt>
				<trkpt lat="55.07590" lon="-2.95689">
					<ele>73</ele>
					<time>0001-01-01T00:00:00Z</time>
				</trkpt>
				<trkpt lat="55.07715" lon="-2.95760">
					<ele>74</ele>
					<time>0001-01-01T00:00:00Z</time>
				</trkpt>
				<trkpt lat="55.07831" lon="-2.95839">
					<ele>78</ele>
					<time>0001-01-01T00:00:00Z</time>
				</trkpt>
				<trkpt lat="55.07976" lon="-2.95959">
					<ele>82</ele>
					<time>0001-01-01T00:00:00Z</time>
				</trkpt>
				<trkpt lat="55.08125" lon="-2.96070">
					<ele>85</ele>
					<time>0001-01-01T00:00:00Z</time>
				</trkpt>
				<trkpt lat="55.08280" lon="-2.96175">
					<ele>87</ele>
					<time>0001-01-01T00:00:00Z</time>
				</trkpt>
				<trkpt lat="55.08444" lon="-2.96273">
					<ele>90</ele>
					<time>0001-01-01T00:00:00Z</time>
				</trkpt>
				<trkpt lat="55.08539" lon="-2.96322">
					<ele>89</ele>
					<time>0001-01-01T00:00:00Z</time>
				</trkpt>
				<trkpt lat="55.08633" lon="-2.96369">
					<ele>87</ele>
					<time>0001-01-01T00:00:00Z</time>
				</trkpt>
				<trkpt lat="55.08757" lon="-2.96429">
					<ele>84</ele>
					<time>0001-01-01T00:00:00Z</time>
				</trkpt>
				<trkpt lat="55.08888" lon="-2.96490">
					<ele>82</ele>
					<time>0001-01-01T00:00:00Z</time>
				</trkpt>
				<trkpt lat="55.09026" lon="-2.96573">
					<ele>79</ele>
					<time>0001-01-01T00:00:00Z</time>
				</trkpt>
				<trkpt lat="55.09189" lon="-2.96710">
					<ele>73</ele>
					<time>0001-01-01T00:00:00Z</time>
				</trkpt>
				<trkpt lat="55.09362" lon="-2.96887">
					<ele>67</ele>
					<time>0001-01-01T00:00:00Z</time>
				</trkpt>
				<trkpt lat="55.09526" lon="-2.97100">
					<ele>64</ele>
					<time>0001-01-01T00:00:00Z</time>
				</trkpt>
				<trkpt lat="55.09686" lon="-2.97376">
					<ele>64</ele>
					<time>0001-01-01T00:00:00Z</time>
				</trkpt>
				<trkpt lat="55.09779" lon="-2.97518">
					<ele>64</ele>
					<time>0001-01-01T00:00:00Z</time>
				</trkpt>
				<trkpt lat="55.09916" lon="-2.97681">
					<ele>63</ele>
					<time>0001-01-01T00:00:00Z</time>
				</trkpt>
				<trkpt lat="55.10098" lon="-2.97831">
					<ele>63</ele>
					<time>0001-01-01T00:00:00Z</time>
				</trkpt>
				<trkpt lat="55.10247" lon="-2.97908">
					<ele>62</ele>
					<time>0001-01-01T00:00:00Z</time>
				</trkpt>
				<trkpt lat="55.10428" lon="-2.97956">
					<ele>58</ele>
					<time>0001-01-01T00:00:00Z</time>
				</trkpt>
				<trkpt lat="55.10583" lon="-2.98027">
					<ele>60</ele>
					<time>0001-01-01T00:00:00Z</time>
				</trkpt>
				<trkpt lat="55.10691" lon="-2.98112">
					<ele>63</ele>
					<time>0001-01-01T00:00:00Z</time>
				</trkpt>
				<trkpt lat="55.10786" lon="-2.98190">
					<ele>66</ele>
					<time>0001-01-01T00:00:00Z</time>
				</trkpt>
				<trkpt lat="55.10897" lon="-2.98274">
					<ele>71</ele>
					<time>0001-01-01T00:00:00Z</time>
				</trkpt>
				<trkpt lat="55.11059" lon="-2.98386">
					<ele>78</ele>
					<time>0001-01-01T00:00:00Z</time>
				</trkpt>
				<trkpt lat="55.11216" lon="-2.98489">
					<ele>83</ele>
					<time>0001-01-01T00:00:00Z</time>
				</trkpt>
				<trkpt lat="55.11376" lon="-2.98588">
					<ele>86</ele>
					<time>0001-01-01T00:00:00Z</time>
				</trkpt>
				<trkpt lat="55.11535" lon="-2.98678">
					<ele>89</ele>
					<time>0001-01-01T00:00:00Z</time>
				</trkpt>
				<trkpt lat="55.11751" lon="-2.98789">
					<ele>91</ele>
					<time>0001-01-01T00:00:00Z</time>
				</trkpt>
				<trkpt lat="55.11906" lon="-2.98863">
					<ele>93</ele>
					<time>0001-01-01T00:00:00Z</time>
				</trkpt>
				<trkpt lat="55.12001" lon="-2.98904">
					<ele>99</ele>
					<time>0001-01-01T00:00:00Z</time>
				</trkpt>
				<trkpt lat="55.12147" lon="-2.98964">
					<ele>107</ele>
					<time>0001-01-01T00:00:00Z</time>
				</trkpt>
				<trkpt lat="55.12297" lon="-2.99018">
					<ele>109</ele>
					<time>0001-01-01T00:00:00Z</time>
				</trkpt>
				<trkpt lat="55.12464" lon="-2.99036">
					<ele>105</ele>
					<time>0001-01-01T00:00:00Z</time>
				</trkpt>
				<trkpt lat="55.12623" lon="-2.98970">
					<ele>97</ele>
					<time>0001-01-01T00:00:00Z</time>
				</trkpt>
				<trkpt lat="55.12771" lon="-2.98825">
					<ele>84</ele>
					<time>0001-01-01T00:00:00Z</time>
				</trkpt>
				<trkpt lat="55.12892" lon="-2.98579">
					<ele>82</ele>
					<time>0001-01-01T00:00:00Z</time>
				</trkpt>
				<trkpt lat="55.12980" lon="-2.98432">
					<ele>83</ele>
					<time>0001-01-01T00:00:00Z</time>
				</trkpt>
				<trkpt lat="55.13046" lon="-2.98377">
					<ele>84</ele>
					<time>0001-01-01T00:00:00Z</time>
				</trkpt>
				<trkpt lat="55.13109" lon="-2.98337">
					<ele>89</ele>
					<time>0001-01-01T00:00:00Z</time>
				</trkpt>
				<trkpt lat="55.13137" lon="-2.98337">
					<ele>89</ele>
					<time>0001-01-01T00:00:00Z</time>
				</trkpt>
				<trkpt lat="55.13165" lon="-2.98356">
					<ele>89</ele>
					<time>0001-01-01T00:00:00Z</time>
				</trkpt>
				<trkpt lat="55.13839" lon="-2.98984">
					<ele>88</ele>
					<time>0001-01-01T00:00:00Z</time>
				</trkpt>
				<trkpt lat="55.14049" lon="-2.98982">
					<ele>88</ele>
					<time>0001-01-01T00:00:00Z</time>
				</trkpt>
				<trkpt lat="55.14070" lon="-2.98964">
					<ele>87</ele>
					<time>0001-01-01T00:00:00Z</time>
				</trkpt>
				<trkpt lat="55.14078" lon="-2.98951">
					<ele>87</ele>
					<time>0001-01-01T00:00:00Z</time>
				</trkpt>
				<trkpt lat="55.14090" lon="-2.98912">
					<ele>86</ele>
					<time>0001-01-01T00:00:00Z</time>
				</trkpt>
				<trkpt lat="55.14094" lon="-2.98846">
					<ele>85</ele>
					<time>0001-01-01T00:00:00Z</time>
				</trkpt>
				<trkpt lat="55.14110" lon="-2.98820">
					<ele>85</ele>
					<time>0001-01-01T00:00:00Z</time>
				</trkpt>
				<trkpt lat="55.14123" lon="-2.98821">
					<ele>85</ele>
					<time>0001-01-01T00:00:00Z</time>
				</trkpt>
				<trkpt lat="55.14396" lon="-2.98899">
					<ele>86</ele>
					<time>0001-01-01T00:00:00Z</time>
				</trkpt>
				<trkpt lat="55.14499" lon="-2.99073">
					<ele>86</ele>
					<time>0001-01-01T00:00:00Z</time>
				</trkpt>
				<trkpt lat="55.14588" lon="-2.99224">
					<ele>83</ele>
					<time>0001-01-01T00:00:00Z</time>
				</trkpt>
				<trkpt lat="55.14727" lon="-2.99283">
					<ele>82</ele>
					<time>0001-01-01T00:00:00Z</time>
				</trkpt>
				<trkpt lat="55.14809" lon="-2.99347">
					<ele>82</ele>
					<time>0001-01-01T00:00:00Z</time>
				</trkpt>
				<trkpt lat="55.14862" lon="-2.99425">
					<ele>84</ele>
					<time>0001-01-01T00:00:00Z</time>
				</trkpt>
				<trkpt lat="55.14940" lon="-2.99646">
					<ele>84</ele>
					<time>0001-01-01T00:00:00Z</time>
				</trkpt>
				<trkpt lat="55.15023" lon="-2.99789">
					<ele>84</ele>
					<time>0001-01-01T00:00:00Z</time>
				</trkpt>
				<trkpt lat="55.15098" lon="-2.99886">
					<ele>86</ele>
					<time>0001-01-01T00:00:00Z</time>
				</trkpt>
				<trkpt lat="55.15197" lon="-3.00020">
					<ele>84</ele>
					<time>0001-01-01T00:00:00Z</time>
				</trkpt>
				<trkpt lat="55.15270" lon="-3.00027">
					<ele>86</ele>
					<time>0001-01-01T00:00:00Z</time>
				</trkpt>
				<trkpt lat="55.15238" lon="-3.00028">
					<ele>88</ele>
					<time>0001-01-01T00:00:00Z</time>
				</trkpt>
				<trkpt lat="55.15234" lon="-3.00051">
					<ele>88</ele>
					<time>0001-01-01T00:00:00Z</time>
				</trkpt>
				<trkpt lat="55.15267" lon="-3.00214">
					<ele>84</ele>
					<time>0001-01-01T00:00:00Z</time>
				</trkpt>
				<trkpt lat="55.15283" lon="-3.00289">
					<ele>85</ele>
					<time>0001-01-01T00:00:00Z</time>
				</trkpt>
				<trkpt lat="55.15329" lon="-3.00503">
					<ele>85</ele>
					<time>0001-01-01T00:00:00Z</time>
				</trkpt>
				<trkpt lat="55.15389" lon="-3.00782">
					<ele>85</ele>
					<time>0001-01-01T00:00:00Z</time>
				</trkpt>
				<trkpt lat="55.15429" lon="-3.00863">
					<ele>90</ele>
					<time>0001-01-01T00:00:00Z</time>
				</trkpt>
				<trkpt lat="55.15474" lon="-3.00895">
					<ele>93</ele>
					<time>0001-01-01T00:00:00Z</time>
				</trkpt>
				<trkpt lat="55.15530" lon="-3.00951">
					<ele>95</ele>
					<time>0001-01-01T00:00:00Z</time>
				</trkpt>
				<trkpt lat="55.15572" lon="-3.01011">
					<ele>98</ele>
					<time>0001-01-01T00:00:00Z</time>
				</trkpt>
				<trkpt lat="55.15626" lon="-3.01185">
					<ele>104</ele>
					<time>0001-01-01T00:00:00Z</time>
				</trkpt>
				<trkpt lat="55.27351" lon="-3.18088">
					<ele>197</ele>
					<time>0001-01-01T00:00:00Z</time>
				</trkpt>
				<trkpt lat="55.27360" lon="-3.18097">
					<ele>183</ele>
					<time>0001-01-01T00:00:00Z</time>
				</trkpt>
				<trkpt lat="55.27382" lon="-3.18147">
					<ele>187</ele>
					<time>0001-01-01T00:00:00Z</time>
				</trkpt>
				<trkpt lat="55.27424" lon="-3.18219">
					<ele>186</ele>
					<time>0001-01-01T00:00:00Z</time>
				</trkpt>
				<trkpt lat="55.27493" lon="-3.18310">
					<ele>182</ele>
					<time>0001-01-01T00:00:00Z</time>
				</trkpt>
				<trkpt lat="55.27530" lon="-3.18351">
					<ele>183</ele>
					<time>0001-01-01T00:00:00Z</time>
				</trkpt>
				<trkpt lat="55.27651" lon="-3.18453">
					<ele>186</ele>
					<time>0001-01-01T00:00:00Z</time>
				</trkpt>
				<trkpt lat="55.27770" lon="-3.18560">
					<ele>188</ele>
					<time>0001-01-01T00:00:00Z</time>
				</trkpt>
				<trkpt lat="55.27847" lon="-3.18627">
					<ele>189</ele>
					<time>0001-01-01T00:00:00Z</time>
				</trkpt>
				<trkpt lat="55.27942" lon="-3.18629">
					<ele>192</ele>
					<time>0001-01-01T00:00:00Z</time>
				</trkpt>
				<trkpt lat="55.27993" lon="-3.18622">
					<ele>196</ele>
					<time>0001-01-01T00:00:00Z</time>
				</trkpt>
				<trkpt lat="55.28003" lon="-3.18624">
					<ele>196</ele>
					<time>0001-01-01T00:00:00Z</time>
				</trkpt>
				<trkpt lat="55.28035" lon="-3.18656">
					<ele>197</ele>
					<time>0001-01-01T00:00:00Z</time>
				</trkpt>
				<trkpt lat="55.28045" lon="-3.18673">
					<ele>197</ele>
					<time>0001-01-01T00:00:00Z</time>
				</trkpt>
				<trkpt lat="55.28074" lon="-3.18695">
					<ele>199</ele>
					<time>0001-01-01T00:00:00Z</time>
				</trkpt>
				<trkpt lat="55.28096" lon="-3.18701">
					<ele>200</ele>
					<time>0001-01-01T00:00:00Z</time>
				</trkpt>
				<trkpt lat="55.28204" lon="-3.18772">
					<ele>200</ele>
					<time>0001-01-01T00:00:00Z</time>
				</trkpt>
				<trkpt lat="55.28287" lon="-3.18861">
					<ele>201</ele>
					<time>0001-01-01T00:00:00Z</time>
				</trkpt>
				<trkpt lat="55.28305" lon="-3.18892">
					<ele>201</ele>
					<time>0001-01-01T00:00:00Z</time>
				</trkpt>
				<trkpt lat="55.28350" lon="-3.18946">
					<ele>200</ele>
					<time>0001-01-01T00:00:00Z</time>
				</trkpt>
				<trkpt lat="55.28390" lon="-3.18963">
					<ele>200</ele>
					<time>0001-01-01T00:00:00Z</time>
				</trkpt>
				<trkpt lat="55.28745" lon="-3.18937">
					<ele>197</ele>
					<time>0001-01-01T00:00:00Z</time>
				</trkpt>
				<trkpt lat="55.28759" lon="-3.18936">
					<ele>196</ele>
					<time>0001-01-01T00:00:00Z</time>
				</trkpt>
				<trkpt lat="55.28876" lon="-3.18964">
					<ele>198</ele>
					<time>0001-01-01T00:00:00Z</time>
				</trkpt>
				<trkpt lat="55.28961" lon="-3.18985">
					<ele>202</ele>
					<time>0001-01-01T00:00:00Z</time>
				</trkpt>
				<trkpt lat="55.29079" lon="-3.19070">
					<ele>204</ele>
					<time>0001-01-01T00:00:00Z</time>
				</trkpt>
				<trkpt lat="55.29151" lon="-3.19252">
					<ele>208</ele>
					<time>0001-01-01T00:00:00Z</time>
				</trkpt>
				<trkpt lat="55.29200" lon="-3.19378">
					<ele>205</ele>
					<time>0001-01-01T00:00:00Z</time>
				</trkpt>
				<trkpt lat="55.29261" lon="-3.19541">
					<ele>202</ele>
					<time>0001-01-01T00:00:00Z</time>
				</trkpt>
				<trkpt lat="55.29296" lon="-3.19661">
					<ele>202</ele>
					<time>0001-01-01T00:00:00Z</time>
				</trkpt>
				<trkpt lat="55.29315" lon="-3.19696">
					<ele>203</ele>
					<time>0001-01-01T00:00:00Z</time>
				</trkpt>
				<trkpt lat="55.29336" lon="-3.19722">
					<ele>202</ele>
					<time>0001-01-01T00:00:00Z</time>
				</trkpt>
				<trkpt lat="55.29423" lon="-3.19701">
					<ele>202</ele>
					<time>0001-01-01T00:00:00Z</time>
				</trkpt>
				<trkpt lat="55.29514" lon="-3.19675">
					<ele>209</ele>
					<time>0001-01-01T00:00:00Z</time>
				</trkpt>
				<trkpt lat="55.29535" lon="-3.19681">
					<ele>209</ele>
					<time>0001-01-01T00:00:00Z</time>
				</trkpt>
				<trkpt lat="55.29651" lon="-3.19740">
					<ele>211</ele>
					<time>0001-01-01T00:00:00Z</time>
				</trkpt>
				<trkpt lat="55.29780" lon="-3.19752">
					<ele>214</ele>
					<time>0001-01-01T00:00:00Z</time>
				</trkpt>
				<trkpt lat="55.29944" lon="-3.19785">
					<ele>214</ele>
					<time>0001-01-01T00:00:00Z</time>
				</trkpt>
				<trkpt lat="55.30003" lon="-3.19775">
					<ele>212</ele>
					<time>0001-01-01T00:00:00Z</time>
				</trkpt>
				<trkpt lat="55.30041" lon="-3.19796">
					<ele>211</ele>
					<time>0001-01-01T00:00:00Z</time>
				</trkpt>
				<trkpt lat="55.30170" lon="-3.19936">
					<ele>209</ele>
					<time>0001-01-01T00:00:00Z</time>
				</trkpt>
				<trkpt lat="55.30177" lon="-3.19943">
					<ele>209</ele>
					<time>0001-01-01T00:00:00Z</time>
				</trkpt>
				<trkpt lat="55.30232" lon="-3.19970">
					<ele>210</ele>
					<time>0001-01-01T00:00:00Z</time>
				</trkpt>
				<trkpt lat="55.30245" lon="-3.19970">
					<ele>210</ele>
					<time>0001-01-01T00:00:00Z</time>
				</trkpt>
				<trkpt lat="55.30267" lon="-3.19966">
					<ele>210</ele>
					<time>0001-01-01T00:00:00Z</time>
				</trkpt>
				<trkpt lat="55.30343" lon="-3.20044">
					<ele>208</ele>
					<time>0001-01-01T00:00:00Z</time>
				</trkpt>
				<trkpt lat="55.30356" lon="-3.20059">
					<ele>208</ele>
					<time>0001-01-01T00:00:00Z</time>
				</trkpt>
				<trkpt lat="55.30400" lon="-3.20074">
					<ele>207</ele>
					<time>0001-01-01T00:00:00Z</time>
				</trkpt>
				<trkpt lat="55.30459" lon="-3.20065">
					<ele>208</ele>
					<time>0001-01-01T00:00:00Z</time>
				</trkpt>
				<trkpt lat="55.30595" lon="-3.20169">
					<ele>212</ele>
					<time>0001-01-01T00:00:00Z</time>
				</trkpt>
				<trkpt lat="55.30715" lon="-3.20292">
					<ele>213</ele>
					<time>0001-01-01T00:00:00Z</time>
				</trkpt>
				<trkpt lat="55.30770" lon="-3.20332">
					<ele>214</ele>
					<time>0001-01-01T00:00:00Z</time>
				</trkpt>
				<trkpt lat="55.30970" lon="-3.20250">
					<ele>212</ele>
					<time>0001-01-01T00:00:00Z</time>
				</trkpt>
				<trkpt lat="55.31089" lon="-3.20192">
					<ele>206</ele>
					<time>0001-01-01T00:00:00Z</time>
				</trkpt>
				<trkpt lat="55.31098" lon="-3.20190">
					<ele>206</ele>
					<time>0001-01-01T00:00:00Z</time>
				</trkpt>
				<trkpt lat="55.31133" lon="-3.20196">
					<ele>205</ele>
					<time>0001-01-01T00:00:00Z</time>
				</trkpt>
				<trkpt lat="55.31237" lon="-3.20223">
					<ele>206</ele>
					<time>0001-01-01T00:00:00Z</time>
				</trkpt>
				<trkpt lat="55.31381" lon="-3.20241">
					<ele>208</ele>
					<time>0001-01-01T00:00:00Z</time>
				</trkpt>
				<trkpt lat="55.31492" lon="-3.20240">
					<ele>209</ele>
					<time>0001-01-01T00:00:00Z</time>
				</trkpt>
				<trkpt lat="55.31607" lon="-3.20249">
					<ele>212</ele>
					<time>0001-01-01T00:00:00Z</time>
				</trkpt>
				<trkpt lat="55.31702" lon="-3.20272">
					<ele>212</ele>
					<time>0001-01-01T00:00:00Z</time>
				</trkpt>
				<trkpt lat="55.31856" lon="-3.20346">
					<ele>213</ele>
					<time>0001-01-01T00:00:00Z</time>
				</trkpt>
				<trkpt lat="55.31983" lon="-3.20393">
					<ele>214</ele>
					<time>0001-01-01T00:00:00Z</time>
				</trkpt>
				<trkpt lat="55.32107" lon="-3.20367">
					<ele>214</ele>
					<time>0001-01-01T00:00:00Z</time>
				</trkpt>
				<trkpt lat="55.32173" lon="-3.20270">
					<ele>217</ele>
					<time>0001-01-01T00:00:00Z</time>
				</trkpt>
				<trkpt lat="55.32227" lon="-3.20173">
					<ele>219</ele>
					<time>0001-01-01T00:00:00Z</time>
				</trkpt>
				<trkpt lat="55.32320" lon="-3.20132">
					<ele>223</ele>
					<time>0001-01-01T00:00:00Z</time>
				</trkpt>
				<trkpt lat="55.32455" lon="-3.20209">
					<ele>224</ele>
					<time>0001-01-01T00:00:00Z</time>
				</trkpt>
				<trkpt lat="55.32544" lon="-3.20302">
					<ele>227</ele>
					<time>0001-01-01T00:00:00Z</time>
				</trkpt>
				<trkpt lat="55.32629" lon="-3.20341">
					<ele>229</ele>
					<time>0001-01-01T00:00:00Z</time>
				</trkpt>
				<trkpt lat="55.32696" lon="-3.20394">
					<ele>233</ele>
					<time>0001-01-01T00:00:00Z</time>
				</trkpt>
				<trkpt lat="55.32725" lon="-3.20392">
					<ele>234</ele>
					<time>0001-01-01T00:00:00Z</time>
				</trkpt>
				<trkpt lat="55.32831" lon="-3.20347">
					<ele>239</ele>
					<time>0001-01-01T00:00:00Z</time>
				</trkpt>
				<trkpt lat="55.32926" lon="-3.20272">
					<ele>242</ele>
					<time>0001-01-01T00:00:00Z</time>
				</trkpt>
				<trkpt lat="55.33018" lon="-3.20225">
					<ele>246</ele>
					<time>0001-01-01T00:00:00Z</time>
				</trkpt>
				<trkpt lat="55.33110" lon="-3.20158">
					<ele>249</ele>
					<time>0001-01-01T00:00:00Z</time>
				</trkpt>
				<trkpt lat="55.33190" lon="-3.20121">
					<ele>253</ele>
					<time>0001-01-01T00:00:00Z</time>
				</trkpt>
				<trkpt lat="55.33294" lon="-3.20079">
					<ele>258</ele>
					<time>0001-01-01T00:00:00Z</time>
				</trkpt>
				<trkpt lat="55.33411" lon="-3.20023">
					<ele>262</ele>
					<time>0001-01-01T00:00:00Z</time>
				</trkpt>
				<trkpt lat="55.33528" lon="-3.19929">
					<ele>265</ele>
					<time>0001-01-01T00:00:00Z</time>
				</trkpt>
				<trkpt lat="55.33626" lon="-3.19871">
					<ele>268</ele>
					<time>0001-01-01T00:00:00Z</time>
				</trkpt>
				<trkpt lat="55.33748" lon="-3.19829">
					<ele>273</ele>
					<time>0001-01-01T00:00:00Z</time>
				</trkpt>
				<trkpt lat="55.33869" lon="-3.19778">
					<ele>278</ele>
					<time>0001-01-01T00:00:00Z</time>
				</trkpt>
				<trkpt lat="55.33971" lon="-3.19741">
					<ele>283</ele>
					<time>0001-01-01T00:00:00Z</time>
				</trkpt>
				<trkpt lat="55.34084" lon="-3.19698">
					<ele>287</ele>
					<time>0001-01-01T00:00:00Z</time>
				</trkpt>
				<trkpt lat="55.34211" lon="-3.19643">
					<ele>290</ele>
					<time>0001-01-01T00:00:00Z</time>
				</trkpt>
				<trkpt lat="55.34311" lon="-3.19581">
					<ele>294</ele>
					<time>0001-01-01T00:00:00Z</time>
				</trkpt>
				<trkpt lat="55.34413" lon="-3.19480">
					<ele>298</ele>
					<time>0001-01-01T00:00:00Z</time>
				</trkpt>
				<trkpt lat="55.34499" lon="-3.19352">
					<ele>301</ele>
					<time>0001-01-01T00:00:00Z</time>
				</trkpt>
				<trkpt lat="55.34569" lon="-3.19233">
					<ele>304</ele>
					<time>0001-01-01T00:00:00Z</time>
				</trkpt>
				<trkpt lat="55.34635" lon="-3.19137">
					<ele>307</ele>
					<time>0001-01-01T00:00:00Z</time>
				</trkpt>
				<trkpt lat="55.34713" lon="-3.19021">
					<ele>311</ele>
					<time>0001-01-01T00:00:00Z</time>
				</trkpt>
				<trkpt lat="55.34807" lon="-3.18854">
					<ele>315</ele>
					<time>0001-01-01T00:00:00Z</time>
				</trkpt>
				<trkpt lat="55.34902" lon="-3.18737">
					<ele>318</ele>
					<time>0001-01-01T00:00:00Z</time>
				</trkpt>
				<trkpt lat="55.34986" lon="-3.18577">
					<ele>320</ele>
					<time>0001-01-01T00:00:00Z</time>
				</trkpt>
				<trkpt lat="55.35027" lon="-3.18410">
					<ele>324</ele>
					<time>0001-01-01T00:00:00Z</time>
				</trkpt>
				<trkpt lat="55.35027" lon="-3.18261">
					<ele>326</ele>
					<time>0001-01-01T00:00:00Z</time>
				</trkpt>
				<trkpt lat="55.35047" lon="-3.18197">
					<ele>328</ele>
					<time>0001-01-01T00:00:00Z</time>
				</trkpt>
				<trkpt lat="55.35138" lon="-3.18087">
					<ele>331</ele>
					<time>0001-01-01T00:00:00Z</time>
				</trkpt>
				<trkpt lat="55.35187" lon="-3.17996">
					<ele>333</ele>
					<time>0001-01-01T00:00:00Z</time>
				</trkpt>
				<trkpt lat="55.35296" lon="-3.17923">
					<ele>336</ele>
					<time>0001-01-01T00:00:00Z</time>
				</trkpt>
				<trkpt lat="55.35424" lon="-3.17828">
					<ele>337</ele>
					<time>0001-01-01T00:00:00Z</time>
				</trkpt>
				<trkpt lat="55.35431" lon="-3.17791">
					<ele>337</ele>
					<time>0001-01-01T00:00:00Z</time>
				</trkpt>
				<trkpt lat="55.35699" lon="-3.17272">
					<ele>334</ele>
					<time>0001-01-01T00:00:00Z</time>
				</trkpt>
				<trkpt lat="55.35783" lon="-3.17221">
					<ele>332</ele>
					<time>0001-01-01T00:00:00Z</time>
				</trkpt>
				<trkpt lat="55.35912" lon="-3.17079">
					<ele>330</ele>
					<time>0001-01-01T00:00:00Z</time>
				</trkpt>
				<trkpt lat="55.36068" lon="-3.16878">
					<ele>328</ele>
					<time>0001-01-01T00:00:00Z</time>
				</trkpt>
				<trkpt lat="55.36206" lon="-3.16761">
					<ele>325</ele>
					<time>0001-01-01T00:00:00Z</time>
				</trkpt>
				<trkpt lat="55.36256" lon="-3.16721">
					<ele>324</ele>
					<time>0001-01-01T00:00:00Z</time>
				</trkpt>
				<trkpt lat="55.36282" lon="-3.16655">
					<ele>323</ele>
					<time>0001-01-01T00:00:00Z</time>
				</trkpt>
				<trkpt lat="55.36356" lon="-3.16377">
					<ele>320</ele>
					<time>0001-01-01T00:00:00Z</time>
				</trkpt>
				<trkpt lat="55.36484" lon="-3.16095">
					<ele>316</ele>
					<time>0001-01-01T00:00:00Z</time>
				</trkpt>
				<trkpt lat="55.36650" lon="-3.15744">
					<ele>313</ele>
					<time>0001-01-01T00:00:00Z</time>
				</trkpt>
				<trkpt lat="55.36657" lon="-3.15701">
					<ele>312</ele>
					<time>0001-01-01T00:00:00Z</time>
				</trkpt>
				<trkpt lat="55.36674" lon="-3.15645">
					<ele>311</ele>
					<time>0001-01-01T00:00:00Z</time>
				</trkpt>
				<trkpt lat="55.36770" lon="-3.15415">
					<ele>308</ele>
					<time>0001-01-01T00:00:00Z</time>
				</trkpt>
				<trkpt lat="55.36820" lon="-3.15191">
					<ele>305</ele>
					<time>0001-01-01T00:00:00Z</time>
				</trkpt>
				<trkpt lat="55.36837" lon="-3.15153">
					<ele>304</ele>
					<time>0001-01-01T00:00:00Z</time>
				</trkpt>
				<trkpt lat="55.36959" lon="-3.15015">
					<ele>301</ele>
					<time>0001-01-01T00:00:00Z</time>
				</trkpt>
				<trkpt lat="55.37072" lon="-3.14876">
					<ele>297</ele>
					<time>0001-01-01T00:00:00Z</time>
				</trkpt>
				<trkpt lat="55.37296" lon="-3.14688">
					<ele>294</ele>
					<time>0001-01-01T00:00:00Z</time>
				</trkpt>
				<trkpt lat="55.37463" lon="-3.14458">
					<ele>291</ele>
					<time>0001-01-01T00:00:00Z</time>
				</trkpt>
				<trkpt lat="55.37513" lon="-3.14378">
					<ele>292</ele>
					<time>0001-01-01T00:00:00Z</time>
				</trkpt>
				<trkpt lat="55.37528" lon="-3.14360">
					<ele>292</ele>
					<time>0001-01-01T00:00:00Z</time>
				</trkpt>
				<trkpt lat="55.37648" lon="-3.14321">
					<ele>292</ele>
					<time>0001-01-01T00:00:00Z</time>
				</trkpt>
				<trkpt lat="55.37656" lon="-3.14319">
					<ele>292</ele>
					<time>0001-01-01T00:00:00Z</time>
				</trkpt>
				<trkpt lat="55.37684" lon="-3.14279">
					<ele>292</ele>
					<time>0001-01-01T00:00:00Z</time>
				</trkpt>
				<trkpt lat="55.37787" lon="-3.14041">
					<ele>293</ele>
					<time>0001-01-01T00:00:00Z</time>
				</trkpt>
				<trkpt lat="55.37823" lon="-3.13944">
					<ele>292</ele>
					<time>0001-01-01T00:00:00Z</time>
				</trkpt>
				<trkpt lat="55.37953" lon="-3.13751">
					<ele>289</ele>
					<time>0001-01-01T00:00:00Z</time>
				</trkpt>
				<trkpt lat="55.37998" lon="-3.13693">
					<ele>286</ele>
					<time>0001-01-01T00:00:00Z</time>
				</trkpt>
				<trkpt lat="55.38074" lon="-3.13642">
					<ele>284</ele>
					<time>0001-01-01T00:00:00Z</time>
				</trkpt>
				<trkpt lat="55.38111" lon="-3.13581">
					<ele>284</ele>
					<time>0001-01-01T00:00:00Z</time>
				</trkpt>
				<trkpt lat="55.38127" lon="-3.13505">
					<ele>283</ele>
					<time>0001-01-01T00:00:00Z</time>
				</trkpt>
				<trkpt lat="55.38158" lon="-3.13450">
					<ele>286</ele>
					<time>0001-01-01T00:00:00Z</time>
				</trkpt>
				<trkpt lat="55.38216" lon="-3.13397">
					<ele>286</ele>
					<time>0001-01-01T00:00:00Z</time>
				</trkpt>
				<trkpt lat="55.38311" lon="-3.13384">
					<ele>283</ele>
					<time>0001-01-01T00:00:00Z</time>
				</trkpt>
				<trkpt lat="55.38510" lon="-3.13450">
					<ele>280</ele>
					<time>0001-01-01T00:00:00Z</time>
				</trkpt>
				<trkpt lat="55.38644" lon="-3.13507">
					<ele>280</ele>
					<time>0001-01-01T00:00:00Z</time>
				</trkpt>
				<trkpt lat="55.38768" lon="-3.13787">
					<ele>276</ele>
					<time>0001-01-01T00:00:00Z</time>
				</trkpt>
				<trkpt lat="55.38855" lon="-3.13893">
					<ele>276</ele>
					<time>0001-01-01T00:00:00Z</time>
				</trkpt>
				<trkpt lat="55.38967" lon="-3.14047">
					<ele>273</ele>
					<time>0001-01-01T00:00:00Z</time>
				</trkpt>
				<trkpt lat="55.39244" lon="-3.14135">
					<ele>273</ele>
					<time>0001-01-01T00:00:00Z</time>
				</trkpt>
				<trkpt lat="55.39344" lon="-3.14075">
					<ele>271</ele>
					<time>0001-01-01T00:00:00Z</time>
				</trkpt>
				<trkpt lat="55.39436" lon="-3.13981">
					<ele>268</ele>
					<time>0001-01-01T00:00:00Z</time>
				</trkpt>
				<trkpt lat="55.39524" lon="-3.13801">
					<ele>265</ele>
					<time>0001-01-01T00:00:00Z</time>
				</trkpt>
				<trkpt lat="55.39536" lon="-3.13768">
					<ele>264</ele>
					<time>0001-01-01T00:00:00Z</time>
				</trkpt>
				<trkpt lat="55.39571" lon="-3.13553">
					<ele>263</ele>
					<time>0001-01-01T00:00:00Z</time>
				</trkpt>
				<trkpt lat="55.39686" lon="-3.13407">
					<ele>263</ele>
					<time>0001-01-01T00:00:00Z</time>
				</trkpt>
				<trkpt lat="55.39842" lon="-3.13404">
					<ele>263</ele>
					<time>0001-01-01T00:00:00Z</time>
				</trkpt>
				<trkpt lat="55.39851" lon="-3.13405">
					<ele>263</ele>
					<time>0001-01-01T00:00:00Z</time>
				</trkpt>
				<trkpt lat="55.40049" lon="-3.13389">
					<ele>263</ele>
					<time>0001-01-01T00:00:00Z</time>
				</trkpt>
				<trkpt lat="55.40082" lon="-3.13415">
					<ele>263</ele>
					<time>0001-01-01T00:00:00Z</time>
				</trkpt>
				<trkpt lat="55.40118" lon="-3.13459">
					<ele>262</ele>
					<time>0001-01-01T00:00:00Z</time>
				</trkpt>
				<trkpt lat="55.40244" lon="-3.13692">
					<ele>259</ele>
					<time>0001-01-01T00:00:00Z</time>
				</trkpt>
				<trkpt lat="55.40362" lon="-3.13783">
					<ele>258</ele>
					<time>0001-01-01T00:00:00Z</time>
				</trkpt>
				<trkpt lat="55.40524" lon="-3.13891">
					<ele>257</ele>
					<time>0001-01-01T00:00:00Z</time>
				</trkpt>
				<trkpt lat="55.40658" lon="-3.13909">
					<ele>257</ele>
					<time>0001-01-01T00:00:00Z</time>
				</trkpt>
				<trkpt lat="55.40728" lon="-3.13970">
					<ele>254</ele>
					<time>0001-01-01T00:00:00Z</time>
				</trkpt>
				<trkpt lat="55.40911" lon="-3.14060">
					<ele>249</ele>
					<time>0001-01-01T00:00:00Z</time>
				</trkpt>
				<trkpt lat="55.41314" lon="-3.14243">
					<ele>243</ele>
					<time>0001-01-01T00:00:00Z</time>
				</trkpt>
				<trkpt lat="55.41397" lon="-3.14311">
					<ele>240</ele>
					<time>0001-01-01T00:00:00Z</time>
				</trkpt>
				<trkpt lat="55.41417" lon="-3.14356">
					<ele>239</ele>
					<time>0001-01-01T00:00:00Z</time>
				</trkpt>
				<trkpt lat="55.41463" lon="-3.14497">
					<ele>238</ele>
					<time>0001-01-01T00:00:00Z</time>
				</trkpt>
				<trkpt lat="55.41574" lon="-3.14694">
					<ele>232</ele>
					<time>0001-01-01T00:00:00Z</time>
				</trkpt>
				<trkpt lat="55.41649" lon="-3.14795">
					<ele>235</ele>
					<time>0001-01-01T00:00:00Z</time>
				</trkpt>
				<trkpt lat="55.41670" lon="-3.14834">
					<ele>234</ele>
					<time>0001-01-01T00:00:00Z</time>
				</trkpt>
				<trkpt lat="55.41719" lon="-3.14968">
					<ele>233</ele>
					<time>0001-01-01T00:00:00Z</time>
				</trkpt>
				<trkpt lat="55.41765" lon="-3.15019">
					<ele>233</ele>
					<time>0001-01-01T00:00:00Z</time>
				</trkpt>
				<trkpt lat="55.41857" lon="-3.15057">
					<ele>233</ele>
					<time>0001-01-01T00:00:00Z</time>
				</trkpt>
				<trkpt lat="55.41897" lon="-3.14981">
					<ele>234</ele>
					<time>0001-01-01T00:00:00Z</time>
				</trkpt>
				<trkpt lat="55.41960" lon="-3.14757">
					<ele>235</ele>
					<time>0001-01-01T00:00:00Z</time>
				</trkpt>
				<trkpt lat="55.42030" lon="-3.14501">
					<ele>233</ele>
					<time>0001-01-01T00:00:00Z</time>
				</trkpt>
				<trkpt lat="55.42279" lon="-3.13937">
					<ele>234</ele>
					<time>0001-01-01T00:00:00Z</time>
				</trkpt>
				<trkpt lat="55.42413" lon="-3.13707">
					<ele>232</ele>
					<time>0001-01-01T00:00:00Z</time>
				</trkpt>
				<trkpt lat="55.42553" lon="-3.13482">
					<ele>233</ele>
					<time>0001-01-01T00:00:00Z</time>
				</trkpt>
				<trkpt lat="55.42749" lon="-3.13268">
					<ele>234</ele>
					<time>0001-01-01T00:00:00Z</time>
				</trkpt>
				<trkpt lat="55.42878" lon="-3.13092">
					<ele>233</ele>
					<time>0001-01-01T00:00:00Z</time>
				</trkpt>
				<trkpt lat="55.42965" lon="-3.12968">
					<ele>235</ele>
					<time>0001-01-01T00:00:00Z</time>
				</trkpt>
				<trkpt lat="55.43246" lon="-3.12439">
					<ele>237</ele>
					<time>0001-01-01T00:00:00Z</time>
				</trkpt>
				<trkpt lat="55.43295" lon="-3.12334">
					<ele>238</ele>
					<time>0001-01-01T00:00:00Z</time>
				</trkpt>
				<trkpt lat="55.43357" lon="-3.12248">
					<ele>239</ele>
					<time>0001-01-01T00:00:00Z</time>
				</trkpt>
				<trkpt lat="55.43470" lon="-3.12063">
					<ele>238</ele>
					<time>0001-01-01T00:00:00Z</time>
				</trkpt>
				<trkpt lat="55.43561" lon="-3.11829">
					<ele>237</ele>
					<time>0001-01-01T00:00:00Z</time>
				</trkpt>
				<trkpt lat="55.43676" lon="-3.11605">
					<ele>237</ele>
					<time>0001-01-01T00:00:00Z</time>
				</trkpt>
				<trkpt lat="55.43772" lon="-3.11381">
					<ele>233</ele>
					<time>0001-01-01T00:00:00Z</time>
				</trkpt>
				<trkpt lat="55.43878" lon="-3.11141">
					<ele>230</ele>
					<time>0001-01-01T00:00:00Z</time>
				</trkpt>
				<trkpt lat="55.43958" lon="-3.10981">
					<ele>232</ele>
					<time>0001-01-01T00:00:00Z</time>
				</trkpt>
				<trkpt lat="55.44030" lon="-3.10797">
					<ele>234</ele>
					<time>0001-01-01T00:00:00Z</time>
				</trkpt>
				<trkpt lat="55.44045" lon="-3.10776">
					<ele>235</ele>
					<time>0001-01-01T00:00:00Z</time>
				</trkpt>
				<trkpt lat="55.44158" lon="-3.10687">
					<ele>235</ele>
					<time>0001-01-01T00:00:00Z</time>
				</trkpt>
				<trkpt lat="55.44272" lon="-3.10591">
					<ele>238</ele>
					<time>0001-01-01T00:00:00Z</time>
				</trkpt>
				<trkpt lat="55.44387" lon="-3.10449">
					<ele>236</ele>
					<time>0001-01-01T00:00:00Z</time>
				</trkpt>
				<trkpt lat="55.44440" lon="-3.10434">
					<ele>235</ele>
					<time>0001-01-01T00:00:00Z</time>
				</trkpt>
				<trkpt lat="55.44603" lon="-3.10469">
					<ele>232</ele>
					<time>0001-01-01T00:00:00Z</time>
				</trkpt>
				<trkpt lat="55.44678" lon="-3.10454">
					<ele>232</ele>
					<time>0001-01-01T00:00:00Z</time>
				</trkpt>
				<trkpt lat="55.44814" lon="-3.10353">
					<ele>231</ele>
					<time>0001-01-01T00:00:00Z</time>
				</trkpt>
				<trkpt lat="55.44883" lon="-3.10318">
					<ele>234</ele>
					<time>0001-01-01T00:00:00Z</time>
				</trkpt>
				<trkpt lat="55.44939" lon="-3.10305">
					<ele>238</ele>
					<time>0001-01-01T00:00:00Z</time>
				</trkpt>
				<trkpt lat="55.45018" lon="-3.10311">
					<ele>242</ele>
					<time>0001-01-01T00:00:00Z</time>
				</trkpt>
				<trkpt lat="55.45105" lon="-3.10269">
					<ele>247</ele>
					<time>0001-01-01T00:00:00Z</time>
				</trkpt>
				<trkpt lat="55.45161" lon="-3.10233">
					<ele>247</ele>
					<time>0001-01-01T00:00:00Z</time>
				</trkpt>
				<trkpt lat="55.45311" lon="-3.10138">
					<ele>246</ele>
					<time>0001-01-01T00:00:00Z</time>
				</trkpt>
				<trkpt lat="55.45479" lon="-3.10024">
					<ele>246</ele>
					<time>0001-01-01T00:00:00Z</time>
				</trkpt>
				<trkpt lat="55.45525" lon="-3.09943">
					<ele>240</ele>
					<time>0001-01-01T00:00:00Z</time>
				</trkpt>
				<trkpt lat="55.45528" lon="-3.09937">
					<ele>240</ele>
					<time>0001-01-01T00:00:00Z</time>
				</trkpt>
				<trkpt lat="55.45522" lon="-3.09946">
					<ele>238</ele>
					<time>0001-01-01T00:00:00Z</time>
				</trkpt>
				<trkpt lat="55.45509" lon="-3.10017">
					<ele>234</ele>
					<time>0001-01-01T00:00:00Z</time>
				</trkpt>
				<trkpt lat="55.45510" lon="-3.10020">
					<ele>235</ele>
					<time>0001-01-01T00:00:00Z</time>
				</trkpt>
				<trkpt lat="55.45526" lon="-3.10061">
					<ele>237</ele>
					<time>0001-01-01T00:00:00Z</time>
				</trkpt>
				<trkpt lat="55.45544" lon="-3.10141">
					<ele>235</ele>
					<time>0001-01-01T00:00:00Z</time>
				</trkpt>
				<trkpt lat="55.45530" lon="-3.10277">
					<ele>233</ele>
					<time>0001-01-01T00:00:00Z</time>
				</trkpt>
				<trkpt lat="55.45491" lon="-3.10405">
					<ele>235</ele>
					<time>0001-01-01T00:00:00Z</time>
				</trkpt>
				<trkpt lat="55.45487" lon="-3.10545">
					<ele>238</ele>
					<time>0001-01-01T00:00:00Z</time>
				</trkpt>
				<trkpt lat="55.45470" lon="-3.10710">
					<ele>242</ele>
					<time>0001-01-01T00:00:00Z</time>
				</trkpt>
				<trkpt lat="55.45467" lon="-3.10777">
					<ele>244</ele>
					<time>0001-01-01T00:00:00Z</time>
				</trkpt>
				<trkpt lat="55.45480" lon="-3.10815">
					<ele>243</ele>
					<time>0001-01-01T00:00:00Z</time>
				</trkpt>
				<trkpt lat="55.45533" lon="-3.10976">
					<ele>249</ele>
					<time>0001-01-01T00:00:00Z</time>
				</trkpt>
				<trkpt lat="55.45587" lon="-3.11096">
					<ele>255</ele>
					<time>0001-01-01T00:00:00Z</time>
				</trkpt>
				<trkpt lat="55.45666" lon="-3.11200">
					<ele>259</ele>
					<time>0001-01-01T00:00:00Z</time>
				</trkpt>
				<trkpt lat="55.45749" lon="-3.11301">
					<ele>260</ele>
					<time>0001-01-01T00:00:00Z</time>
				</trkpt>
				<trkpt lat="55.45824" lon="-3.11393">
					<ele>264</ele>
					<time>0001-01-01T00:00:00Z</time>
				</trkpt>
				<trkpt lat="55.45843" lon="-3.11406">
					<ele>264</ele>
					<time>0001-01-01T00:00:00Z</time>
				</trkpt>
				<trkpt lat="55.45900" lon="-3.11419">
					<ele>267</ele>
					<time>0001-01-01T00:00:00Z</time>
				</trkpt>
				<trkpt lat="55.45963" lon="-3.11471">
					<ele>271</ele>
					<time>0001-01-01T00:00:00Z</time>
				</trkpt>
				<trkpt lat="55.45969" lon="-3.11481">
					<ele>272</ele>
					<time>0001-01-01T00:00:00Z</time>
				</trkpt>
				<trkpt lat="55.46022" lon="-3.11584">
					<ele>277</ele>
					<time>0001-01-01T00:00:00Z</time>
				</trkpt>
				<trkpt lat="55.46089" lon="-3.11724">
					<ele>283</ele>
					<time>0001-01-01T00:00:00Z</time>
				</trkpt>
				<trkpt lat="55.46121" lon="-3.11844">
					<ele>286</ele>
					<time>0001-01-01T00:00:00Z</time>
				</trkpt>
				<trkpt lat="55.46156" lon="-3.12009">
					<ele>290</ele>
					<time>0001-01-01T00:00:00Z</time>
				</trkpt>
				<trkpt lat="55.46193" lon="-3.12115">
					<ele>293</ele>
					<time>0001-01-01T00:00:00Z</time>
				</trkpt>
				<trkpt lat="55.46243" lon="-3.12250">
					<ele>300</ele>
					<time>0001-01-01T00:00:00Z</time>
				</trkpt>
				<trkpt lat="55.46292" lon="-3.12369">
					<ele>304</ele>
					<time>0001-01-01T00:00:00Z</time>
				</trkpt>
				<trkpt lat="55.46338" lon="-3.12467">
					<ele>308</ele>
					<time>0001-01-01T00:00:00Z</time>
				</trkpt>
				<trkpt lat="55.46396" lon="-3.12555">
					<ele>313</ele>
					<time>0001-01-01T00:00:00Z</time>
				</trkpt>
				<trkpt lat="55.46440" lon="-3.12660">
					<ele>315</ele>
					<time>0001-01-01T00:00:00Z</time>
				</trkpt>
				<trkpt lat="55.46517" lon="-3.12768">
					<ele>321</ele>
					<time>0001-01-01T00:00:00Z</time>
				</trkpt>
				<trkpt lat="55.46566" lon="-3.12827">
					<ele>320</ele>
					<time>0001-01-01T00:00:00Z</time>
				</trkpt>
				<trkpt lat="55.46578" lon="-3.12856">
					<ele>319</ele>
					<time>0001-01-01T00:00:00Z</time>
				</trkpt>
				<trkpt lat="55.46585" lon="-3.13000">
					<ele>318</ele>
					<time>0001-01-01T00:00:00Z</time>
				</trkpt>
				<trkpt lat="55.46592" lon="-3.13181">
					<ele>317</ele>
					<time>0001-01-01T00:00:00Z</time>
				</trkpt>
				<trkpt lat="55.46616" lon="-3.13331">
					<ele>323</ele>
					<time>0001-01-01T00:00:00Z</time>
				</trkpt>
				<trkpt lat="55.46646" lon="-3.13483">
					<ele>326</ele>
					<time>0001-01-01T00:00:00Z</time>
				</trkpt>
				<trkpt lat="55.46678" lon="-3.13626">
					<ele>333</ele>
					<time>0001-01-01T00:00:00Z</time>
				</trkpt>
				<trkpt lat="55.46717" lon="-3.13745">
					<ele>339</ele>
					<time>0001-01-01T00:00:00Z</time>
				</trkpt>
				<trkpt lat="55.46781" lon="-3.13841">
					<ele>348</ele>
					<time>0001-01-01T00:00:00Z</time>
				</trkpt>
				<trkpt lat="55.46833" lon="-3.13958">
					<ele>354</ele>
					<time>0001-01-01T00:00:00Z</time>
				</trkpt>
				<trkpt lat="55.46854" lon="-3.14092">
					<ele>359</ele>
					<time>0001-01-01T00:00:00Z</time>
				</trkpt>
				<trkpt lat="55.46855" lon="-3.14194">
					<ele>363</ele>
					<time>0001-01-01T00:00:00Z</time>
				</trkpt>
				<trkpt lat="55.46873" lon="-3.14348">
					<ele>369</ele>
					<time>0001-01-01T00:00:00Z</time>
				</trkpt>
				<trkpt lat="55.46897" lon="-3.14569">
					<ele>376</ele>
					<time>0001-01-01T00:00:00Z</time>
				</trkpt>
				<trkpt lat="55.46921" lon="-3.14721">
					<ele>381</ele>
					<time>0001-01-01T00:00:00Z</time>
				</trkpt>
				<trkpt lat="55.46926" lon="-3.14732">
					<ele>382</ele>
					<time>0001-01-01T00:00:00Z</time>
				</trkpt>
				<trkpt lat="55.46935" lon="-3.14747">
					<ele>383</ele>
					<time>0001-01-01T00:00:00Z</time>
				</trkpt>
				<trkpt lat="55.46964" lon="-3.14763">
					<ele>382</ele>
					<time>0001-01-01T00:00:00Z</time>
				</trkpt>
				<trkpt lat="55.46971" lon="-3.14761">
					<ele>381</ele>
					<time>0001-01-01T00:00:00Z</time>
				</trkpt>
				<trkpt lat="55.47049" lon="-3.14674">
					<ele>377</ele>
					<time>0001-01-01T00:00:00Z</time>
				</trkpt>
				<trkpt lat="55.47164" lon="-3.14538">
					<ele>374</ele>
					<time>0001-01-01T00:00:00Z</time>
				</trkpt>
				<trkpt lat="55.47312" lon="-3.14374">
					<ele>370</ele>
					<time>0001-01-01T00:00:00Z</time>
				</trkpt>
				<trkpt lat="55.47516" lon="-3.14166">
					<ele>367</ele>
					<time>0001-01-01T00:00:00Z</time>
				</trkpt>
				<trkpt lat="55.47656" lon="-3.13938">
					<ele>356</ele>
					<time>0001-01-01T00:00:00Z</time>
				</trkpt>
				<trkpt lat="55.47754" lon="-3.13790">
					<ele>347</ele>
					<time>0001-01-01T00:00:00Z</time>
				</trkpt>
				<trkpt lat="55.47865" lon="-3.13726">
					<ele>341</ele>
					<time>0001-01-01T00:00:00Z</time>
				</trkpt>
				<trkpt lat="55.47998" lon="-3.13553">
					<ele>335</ele>
					<time>0001-01-01T00:00:00Z</time>
				</trkpt>
				<trkpt lat="55.48066" lon="-3.13447">
					<ele>331</ele>
					<time>0001-01-01T00:00:00Z</time>
				</trkpt>
				<trkpt lat="55.48108" lon="-3.13410">
					<ele>327</ele>
					<time>0001-01-01T00:00:00Z</time>
				</trkpt>
				<trkpt lat="55.48208" lon="-3.13369">
					<ele>324</ele>
					<time>0001-01-01T00:00:00Z</time>
				</trkpt>
				<trkpt lat="55.48410" lon="-3.13223">
					<ele>318</ele>
					<time>0001-01-01T00:00:00Z</time>
				</trkpt>
				<trkpt lat="55.48574" lon="-3.13068">
					<ele>314</ele>
					<time>0001-01-01T00:00:00Z</time>
				</trkpt>
				<trkpt lat="55.48736" lon="-3.12874">
					<ele>312</ele>
					<time>0001-01-01T00:00:00Z</time>
				</trkpt>
				<trkpt lat="55.48866" lon="-3.12705">
					<ele>310</ele>
					<time>0001-01-01T00:00:00Z</time>
				</trkpt>
				<trkpt lat="55.49019" lon="-3.12502">
					<ele>310</ele>
					<time>0001-01-01T00:00:00Z</time>
				</trkpt>
				<trkpt lat="55.49130" lon="-3.12302">
					<ele>310</ele>
					<time>0001-01-01T00:00:00Z</time>
				</trkpt>
				<trkpt lat="55.49249" lon="-3.12130">
					<ele>308</ele>
					<time>0001-01-01T00:00:00Z</time>
				</trkpt>
				<trkpt lat="55.49329" lon="-3.12027">
					<ele>306</ele>
					<time>0001-01-01T00:00:00Z</time>
				</trkpt>
				<trkpt lat="55.49363" lon="-3.12009">
					<ele>305</ele>
					<time>0001-01-01T00:00:00Z</time>
				</trkpt>
				<trkpt lat="55.49546" lon="-3.11930">
					<ele>299</ele>
					<time>0001-01-01T00:00:00Z</time>
				</trkpt>
				<trkpt lat="55.49749" lon="-3.11809">
					<ele>292</ele>
					<time>0001-01-01T00:00:00Z</time>
				</trkpt>
				<trkpt lat="55.49920" lon="-3.11701">
					<ele>286</ele>
					<time>0001-01-01T00:00:00Z</time>
				</trkpt>
				<trkpt lat="55.49958" lon="-3.11669">
					<ele>285</ele>
					<time>0001-01-01T00:00:00Z</time>
				</trkpt>
				<trkpt lat="55.49992" lon="-3.11604">
					<ele>284</ele>
					<time>0001-01-01T00:00:00Z</time>
				</trkpt>
				<trkpt lat="55.50037" lon="-3.11487">
					<ele>280</ele>
					<time>0001-01-01T00:00:00Z</time>
				</trkpt>
				<trkpt lat="55.50161" lon="-3.11372">
					<ele>275</ele>
					<time>0001-01-01T00:00:00Z</time>
				</trkpt>
				<trkpt lat="55.50310" lon="-3.11280">
					<ele>269</ele>
					<time>0001-01-01T00:00:00Z</time>
				</trkpt>
				<trkpt lat="55.50346" lon="-3.11241">
					<ele>267</ele>
					<time>0001-01-01T00:00:00Z</time>
				</trkpt>
				<trkpt lat="55.50514" lon="-3.10989">
					<ele>262</ele>
					<time>0001-01-01T00:00:00Z</time>
				</trkpt>
				<trkpt lat="55.50650" lon="-3.10728">
					<ele>260</ele>
					<time>0001-01-01T00:00:00Z</time>
				</trkpt>
				<trkpt lat="55.50744" lon="-3.10475">
					<ele>257</ele>
					<time>0001-01-01T00:00:00Z</time>
				</trkpt>
				<trkpt lat="55.50754" lon="-3.10446">
					<ele>256</ele>
					<time>0001-01-01T00:00:00Z</time>
				</trkpt>
				<trkpt lat="55.50830" lon="-3.10282">
					<ele>253</ele>
					<time>0001-01-01T00:00:00Z</time>
				</trkpt>
				<trkpt lat="55.51109" lon="-3.09655">
					<ele>255</ele>
					<time>0001-01-01T00:00:00Z</time>
				</trkpt>
				<trkpt lat="55.51203" lon="-3.09685">
					<ele>247</ele>
					<time>0001-01-01T00:00:00Z</time>
				</trkpt>
				<trkpt lat="55.51286" lon="-3.09715">
					<ele>243</ele>
					<time>0001-01-01T00:00:00Z</time>
				</trkpt>
				<trkpt lat="55.51322" lon="-3.09726">
					<ele>242</ele>
					<time>0001-01-01T00:00:00Z</time>
				</trkpt>
				<trkpt lat="55.51385" lon="-3.09747">
					<ele>240</ele>
					<time>0001-01-01T00:00:00Z</time>
				</trkpt>
				<trkpt lat="55.51462" lon="-3.09744">
					<ele>240</ele>
					<time>0001-01-01T00:00:00Z</time>
				</trkpt>
				<trkpt lat="55.51544" lon="-3.09697">
					<ele>240</ele>
					<time>0001-01-01T00:00:00Z</time>
				</trkpt>
				<trkpt lat="55.51574" lon="-3.09659">
					<ele>242</ele>
					<time>0001-01-01T00:00:00Z</time>
				</trkpt>
				<trkpt lat="55.51618" lon="-3.09550">
					<ele>243</ele>
					<time>0001-01-01T00:00:00Z</time>
				</trkpt>
				<trkpt lat="55.51693" lon="-3.09459">
					<ele>245</ele>
					<time>0001-01-01T00:00:00Z</time>
				</trkpt>
				<trkpt lat="55.51764" lon="-3.09353">
					<ele>253</ele>
					<time>0001-01-01T00:00:00Z</time>
				</trkpt>
				<trkpt lat="55.51837" lon="-3.09275">
					<ele>260</ele>
					<time>0001-01-01T00:00:00Z</time>
				</trkpt>
				<trkpt lat="55.51915" lon="-3.09156">
					<ele>265</ele>
					<time>0001-01-01T00:00:00Z</time>
				</trkpt>
				<trkpt lat="55.51980" lon="-3.09041">
					<ele>269</ele>
					<time>0001-01-01T00:00:00Z</time>
				</trkpt>
				<trkpt lat="55.52042" lon="-3.08919">
					<ele>275</ele>
					<time>0001-01-01T00:00:00Z</time>
				</trkpt>
				<trkpt lat="55.52058" lon="-3.08915">
					<ele>276</ele>
					<time>0001-01-01T00:00:00Z</time>
				</trkpt>
				<trkpt lat="55.52091" lon="-3.08936">
					<ele>278</ele>
					<time>0001-01-01T00:00:00Z</time>
				</trkpt>
				<trkpt lat="55.52119" lon="-3.09041">
					<ele>281</ele>
					<time>0001-01-01T00:00:00Z</time>
				</trkpt>
				<trkpt lat="55.52165" lon="-3.09196">
					<ele>284</ele>
					<time>0001-01-01T00:00:00Z</time>
				</trkpt>
				<trkpt lat="55.52225" lon="-3.09375">
					<ele>284</ele>
					<time>0001-01-01T00:00:00Z</time>
				</trkpt>
				<trkpt lat="55.52288" lon="-3.09490">
					<ele>285</ele>
					<time>0001-01-01T00:00:00Z</time>
				</trkpt>
				<trkpt lat="55.52388" lon="-3.09611">
					<ele>284</ele>
					<time>0001-01-01T00:00:00Z</time>
				</trkpt>
				<trkpt lat="55.52471" lon="-3.09663">
					<ele>284</ele>
					<time>0001-01-01T00:00:00Z</time>
				</trkpt>
				<trkpt lat="55.52533" lon="-3.09678">
					<ele>286</ele>
					<time>0001-01-01T00:00:00Z</time>
				</trkpt>
				<trkpt lat="55.52615" lon="-3.09700">
					<ele>289</ele>
					<time>0001-01-01T00:00:00Z</time>
				</trkpt>
				<trkpt lat="55.52719" lon="-3.09662">
					<ele>292</ele>
					<time>0001-01-01T00:00:00Z</time>
				</trkpt>
				<trkpt lat="55.52792" lon="-3.09675">
					<ele>293</ele>
					<time>0001-01-01T00:00:00Z</time>
				</trkpt>
				<trkpt lat="55.52873" lon="-3.09722">
					<ele>292</ele>
					<time>0001-01-01T00:00:00Z</time>
				</trkpt>
				<trkpt lat="55.52873" lon="-3.09721">
					<ele>292</ele>
					<time>0001-01-01T00:00:00Z</time>
				</trkpt>
				<trkpt lat="55.52894" lon="-3.09733">
					<ele>293</ele>
					<time>0001-01-01T00:00:00Z</time>
				</trkpt>
				<trkpt lat="55.52960" lon="-3.09766">
					<ele>295</ele>
					<time>0001-01-01T00:00:00Z</time>
				</trkpt>
				<trkpt lat="55.53043" lon="-3.09801">
					<ele>297</ele>
					<time>0001-01-01T00:00:00Z</time>
				</trkpt>
				<trkpt lat="55.53128" lon="-3.09898">
					<ele>301</ele>
					<time>0001-01-01T00:00:00Z</time>
				</trkpt>
				<trkpt lat="55.53206" lon="-3.10009">
					<ele>304</ele>
					<time>0001-01-01T00:00:00Z</time>
				</trkpt>
				<trkpt lat="55.53261" lon="-3.10049">
					<ele>305</ele>
					<time>0001-01-01T00:00:00Z</time>
				</trkpt>
				<trkpt lat="55.53353" lon="-3.10105">
					<ele>310</ele>
					<time>0001-01-01T00:00:00Z</time>
				</trkpt>
				<trkpt lat="55.53364" lon="-3.10126">
					<ele>310</ele>
					<time>0001-01-01T00:00:00Z</time>
				</trkpt>
				<trkpt lat="55.53423" lon="-3.10216">
					<ele>314</ele>
					<time>0001-01-01T00:00:00Z</time>
				</trkpt>
				<trkpt lat="55.53480" lon="-3.10270">
					<ele>317</ele>
					<time>0001-01-01T00:00:00Z</time>
				</trkpt>
				<trkpt lat="55.53578" lon="-3.10357">
					<ele>322</ele>
					<time>0001-01-01T00:00:00Z</time>
				</trkpt>
				<trkpt lat="55.53674" lon="-3.10399">
					<ele>324</ele>
					<time>0001-01-01T00:00:00Z</time>
				</trkpt>
				<trkpt lat="55.53776" lon="-3.10384">
					<ele>326</ele>
					<time>0001-01-01T00:00:00Z</time>
				</trkpt>
				<trkpt lat="55.53898" lon="-3.10298">
					<ele>331</ele>
					<time>0001-01-01T00:00:00Z</time>
				</trkpt>
				<trkpt lat="55.54002" lon="-3.10159">
					<ele>336</ele>
					<time>0001-01-01T00:00:00Z</time>
				</trkpt>
				<trkpt lat="55.54081" lon="-3.10041">
					<ele>339</ele>
					<time>0001-01-01T00:00:00Z</time>
				</trkpt>
				<trkpt lat="55.54083" lon="-3.10035">
					<ele>339</ele>
					<time>0001-01-01T00:00:00Z</time>
				</trkpt>
				<trkpt lat="55.54158" lon="-3.09943">
					<ele>343</ele>
					<time>0001-01-01T00:00:00Z</time>
				</trkpt>
				<trkpt lat="55.54266" lon="-3.09806">
					<ele>347</ele>
					<time>0001-01-01T00:00:00Z</time>
				</trkpt>
				<trkpt lat="55.54342" lon="-3.09639">
					<ele>351</ele>
					<time>0001-01-01T00:00:00Z</time>
				</trkpt>
				<trkpt lat="55.54404" lon="-3.09470">
					<ele>352</ele>
					<time>0001-01-01T00:00:00Z</time>
				</trkpt>
				<trkpt lat="55.54478" lon="-3.09296">
					<ele>356</ele>
					<time>0001-01-01T00:00:00Z</time>
				</trkpt>
				<trkpt lat="55.54521" lon="-3.09181">
					<ele>358</ele>
					<time>0001-01-01T00:00:00Z</time>
				</trkpt>
				<trkpt lat="55.54579" lon="-3.09063">
					<ele>359</ele>
					<time>0001-01-01T00:00:00Z</time>
				</trkpt>
				<trkpt lat="55.54587" lon="-3.09056">
					<ele>359</ele>
					<time>0001-01-01T00:00:00Z</time>
				</trkpt>
				<trkpt lat="55.54593" lon="-3.09056">
					<ele>359</ele>
					<time>0001-01-01T00:00:00Z</time>
				</trkpt>
				<trkpt lat="55.54595" lon="-3.09052">
					<ele>359</ele>
					<time>0001-01-01T00:00:00Z</time>
				</trkpt>
				<trkpt lat="55.54594" lon="-3.09047">
					<ele>360</ele>
					<time>0001-01-01T00:00:00Z</time>
				</trkpt>
				<trkpt lat="55.54587" lon="-3.09053">
					<ele>360</ele>
					<time>0001-01-01T00:00:00Z</time>
				</trkpt>
				<trkpt lat="55.54581" lon="-3.09059">
					<ele>360</ele>
					<time>0001-01-01T00:00:00Z</time>
				</trkpt>
				<trkpt lat="55.54576" lon="-3.09062">
					<ele>359</ele>
					<time>0001-01-01T00:00:00Z</time>
				</trkpt>
				<trkpt lat="55.54578" lon="-3.09063">
					<ele>359</ele>
					<time>0001-01-01T00:00:00Z</time>
				</trkpt>
				<trkpt lat="55.54589" lon="-3.09055">
					<ele>359</ele>
					<time>0001-01-01T00:00:00Z</time>
				</trkpt>
				<trkpt lat="55.54592" lon="-3.09030">
					<ele>362</ele>
					<time>0001-01-01T00:00:00Z</time>
				</trkpt>
				<trkpt lat="55.54592" lon="-3.09028">
					<ele>363</ele>
					<time>0001-01-01T00:00:00Z</time>
				</trkpt>
				<trkpt lat="55.54596" lon="-3.09041">
					<ele>363</ele>
					<time>0001-01-01T00:00:00Z</time>
				</trkpt>
				<trkpt lat="55.54592" lon="-3.09050">
					<ele>358</ele>
					<time>0001-01-01T00:00:00Z</time>
				</trkpt>
				<trkpt lat="55.54592" lon="-3.09053">
					<ele>357</ele>
					<time>0001-01-01T00:00:00Z</time>
				</trkpt>
				<trkpt lat="55.54594" lon="-3.09052">
					<ele>357</ele>
					<time>0001-01-01T00:00:00Z</time>
				</trkpt>
				<trkpt lat="55.54594" lon="-3.09053">
					<ele>360</ele>
					<time>0001-01-01T00:00:00Z</time>
				</trkpt>
				<trkpt lat="55.54594" lon="-3.09051">
					<ele>361</ele>
					<time>0001-01-01T00:00:00Z</time>
				</trkpt>
				<trkpt lat="55.54594" lon="-3.09049">
					<ele>359</ele>
					<time>0001-01-01T00:00:00Z</time>
				</trkpt>
				<trkpt lat="55.54601" lon="-3.09042">
					<ele>358</ele>
					<time>0001-01-01T00:00:00Z</time>
				</trkpt>
				<trkpt lat="55.54656" lon="-3.09000">
					<ele>355</ele>
					<time>0001-01-01T00:00:00Z</time>
				</trkpt>
				<trkpt lat="55.54781" lon="-3.08967">
					<ele>351</ele>
					<time>0001-01-01T00:00:00Z</time>
				</trkpt>
				<trkpt lat="55.54873" lon="-3.08944">
					<ele>349</ele>
					<time>0001-01-01T00:00:00Z</time>
				</trkpt>
				<trkpt lat="55.54906" lon="-3.08959">
					<ele>348</ele>
					<time>0001-01-01T00:00:00Z</time>
				</trkpt>
				<trkpt lat="55.54922" lon="-3.08971">
					<ele>348</ele>
					<time>0001-01-01T00:00:00Z</time>
				</trkpt>
				<trkpt lat="55.54968" lon="-3.08975">
					<ele>345</ele>
					<time>0001-01-01T00:00:00Z</time>
				</trkpt>
				<trkpt lat="55.54987" lon="-3.08972">
					<ele>345</ele>
					<time>0001-01-01T00:00:00Z</time>
				</trkpt>
				<trkpt lat="55.55056" lon="-3.09015">
					<ele>340</ele>
					<time>0001-01-01T00:00:00Z</time>
				</trkpt>
				<trkpt lat="55.55120" lon="-3.09024">
					<ele>336</ele>
					<time>0001-01-01T00:00:00Z</time>
				</trkpt>
				<trkpt lat="55.55227" lon="-3.09094">
					<ele>329</ele>
					<time>0001-01-01T00:00:00Z</time>
				</trkpt>
				<trkpt lat="55.55445" lon="-3.09198">
					<ele>317</ele>
					<time>0001-01-01T00:00:00Z</time>
				</trkpt>
				<trkpt lat="55.55664" lon="-3.09205">
					<ele>306</ele>
					<time>0001-01-01T00:00:00Z</time>
				</trkpt>
				<trkpt lat="55.55817" lon="-3.09194">
					<ele>298</ele>
					<time>0001-01-01T00:00:00Z</time>
				</trkpt>
				<trkpt lat="55.56081" lon="-3.09122">
					<ele>279</ele>
					<time>0001-01-01T00:00:00Z</time>
				</trkpt>
				<trkpt lat="55.56162" lon="-3.09074">
					<ele>274</ele>
					<time>0001-01-01T00:00:00Z</time>
				</trkpt>
				<trkpt lat="55.56225" lon="-3.09066">
					<ele>270</ele>
					<time>0001-01-01T00:00:00Z</time>
				</trkpt>
				<trkpt lat="55.56449" lon="-3.08974">
					<ele>262</ele>
					<time>0001-01-01T00:00:00Z</time>
				</trkpt>
				<trkpt lat="55.56599" lon="-3.08911">
					<ele>258</ele>
					<time>0001-01-01T00:00:00Z</time>
				</trkpt>
				<trkpt lat="55.56720" lon="-3.08914">
					<ele>249</ele>
					<time>0001-01-01T00:00:00Z</time>
				</trkpt>
				<trkpt lat="55.56870" lon="-3.08823">
					<ele>242</ele>
					<time>0001-01-01T00:00:00Z</time>
				</trkpt>
				<trkpt lat="55.56903" lon="-3.08794">
					<ele>241</ele>
					<time>0001-01-01T00:00:00Z</time>
				</trkpt>
				<trkpt lat="55.56951" lon="-3.08801">
					<ele>239</ele>
					<time>0001-01-01T00:00:00Z</time>
				</trkpt>
				<trkpt lat="55.56993" lon="-3.08846">
					<ele>237</ele>
					<time>0001-01-01T00:00:00Z</time>
				</trkpt>
				<trkpt lat="55.57074" lon="-3.08840">
					<ele>234</ele>
					<time>0001-01-01T00:00:00Z</time>
				</trkpt>
				<trkpt lat="55.57097" lon="-3.08838">
					<ele>233</ele>
					<time>0001-01-01T00:00:00Z</time>
				</trkpt>
				<trkpt lat="55.57149" lon="-3.08801">
					<ele>231</ele>
					<time>0001-01-01T00:00:00Z</time>
				</trkpt>
				<trkpt lat="55.57342" lon="-3.08702">
					<ele>224</ele>
					<time>0001-01-01T00:00:00Z</time>
				</trkpt>
				<trkpt lat="55.57394" lon="-3.08712">
					<ele>222</ele>
					<time>0001-01-01T00:00:00Z</time>
				</trkpt>
				<trkpt lat="55.57530" lon="-3.08676">
					<ele>218</ele>
					<time>0001-01-01T00:00:00Z</time>
				</trkpt>
				<trkpt lat="55.57799" lon="-3.08682">
					<ele>212</ele>
					<time>0001-01-01T00:00:00Z</time>
				</trkpt>
				<trkpt lat="55.58024" lon="-3.08626">
					<ele>206</ele>
					<time>0001-01-01T00:00:00Z</time>
				</trkpt>
				<trkpt lat="55.58118" lon="-3.08604">
					<ele>203</ele>
					<time>0001-01-01T00:00:00Z</time>
				</trkpt>
				<trkpt lat="55.58256" lon="-3.08505">
					<ele>202</ele>
					<time>0001-01-01T00:00:00Z</time>
				</trkpt>
				<trkpt lat="55.58478" lon="-3.08363">
					<ele>200</ele>
					<time>0001-01-01T00:00:00Z</time>
				</trkpt>
				<trkpt lat="55.58679" lon="-3.08272">
					<ele>197</ele>
					<time>0001-01-01T00:00:00Z</time>
				</trkpt>
				<trkpt lat="55.58690" lon="-3.08270">
					<ele>197</ele>
					<time>0001-01-01T00:00:00Z</time>
				</trkpt>
				<trkpt lat="55.58800" lon="-3.08192">
					<ele>196</ele>
					<time>0001-01-01T00:00:00Z</time>
				</trkpt>
				<trkpt lat="55.59004" lon="-3.07958">
					<ele>195</ele>
					<time>0001-01-01T00:00:00Z</time>
				</trkpt>
				<trkpt lat="55.59023" lon="-3.07928">
					<ele>195</ele>
					<time>0001-01-01T00:00:00Z</time>
				</trkpt>
				<trkpt lat="55.59050" lon="-3.07897">
					<ele>195</ele>
					<time>0001-01-01T00:00:00Z</time>
				</trkpt>
				<trkpt lat="55.59106" lon="-3.07859">
					<ele>190</ele>
					<time>0001-01-01T00:00:00Z</time>
				</trkpt>
				<trkpt lat="55.59212" lon="-3.07723">
					<ele>183</ele>
					<time>0001-01-01T00:00:00Z</time>
				</trkpt>
				<trkpt lat="55.59361" lon="-3.07586">
					<ele>177</ele>
					<time>0001-01-01T00:00:00Z</time>
				</trkpt>
				<trkpt lat="55.59390" lon="-3.07529">
					<ele>174</ele>
					<time>0001-01-01T00:00:00Z</time>
				</trkpt>
				<trkpt lat="55.59415" lon="-3.07463">
					<ele>171</ele>
					<time>0001-01-01T00:00:00Z</time>
				</trkpt>
				<trkpt lat="55.59538" lon="-3.07319">
					<ele>169</ele>
					<time>0001-01-01T00:00:00Z</time>
				</trkpt>
				<trkpt lat="55.59654" lon="-3.07136">
					<ele>165</ele>
					<time>0001-01-01T00:00:00Z</time>
				</trkpt>
				<trkpt lat="55.59723" lon="-3.07028">
					<ele>165</ele>
					<time>0001-01-01T00:00:00Z</time>
				</trkpt>
				<trkpt lat="55.59734" lon="-3.06968">
					<ele>165</ele>
					<time>0001-01-01T00:00:00Z</time>
				</trkpt>
				<trkpt lat="55.59743" lon="-3.06703">
					<ele>164</ele>
					<time>0001-01-01T00:00:00Z</time>
				</trkpt>
				<trkpt lat="55.59782" lon="-3.06566">
					<ele>162</ele>
					<time>0001-01-01T00:00:00Z</time>
				</trkpt>
				<trkpt lat="55.59924" lon="-3.06469">
					<ele>163</ele>
					<time>0001-01-01T00:00:00Z</time>
				</trkpt>
				<trkpt lat="55.60046" lon="-3.06418">
					<ele>161</ele>
					<time>0001-01-01T00:00:00Z</time>
				</trkpt>
				<trkpt lat="55.60073" lon="-3.06398">
					<ele>159</ele>
					<time>0001-01-01T00:00:00Z</time>
				</trkpt>
				<trkpt lat="55.60046" lon="-3.06365">
					<ele>160</ele>
					<time>0001-01-01T00:00:00Z</time>
				</trkpt>
				<trkpt lat="55.60027" lon="-3.06346">
					<ele>161</ele>
					<time>0001-01-01T00:00:00Z</time>
				</trkpt>
				<trkpt lat="55.60025" lon="-3.06322">
					<ele>160</ele>
					<time>0001-01-01T00:00:00Z</time>
				</trkpt>
				<trkpt lat="55.60025" lon="-3.06326">
					<ele>163</ele>
					<time>0001-01-01T00:00:00Z</time>
				</trkpt>
				<trkpt lat="55.60025" lon="-3.06328">
					<ele>164</ele>
					<time>0001-01-01T00:00:00Z</time>
				</trkpt>
				<trkpt lat="55.60023" lon="-3.06339">
					<ele>164</ele>
					<time>0001-01-01T00:00:00Z</time>
				</trkpt>
				<trkpt lat="55.60032" lon="-3.06359">
					<ele>163</ele>
					<time>0001-01-01T00:00:00Z</time>
				</trkpt>
				<trkpt lat="55.60075" lon="-3.06397">
					<ele>159</ele>
					<time>0001-01-01T00:00:00Z</time>
				</trkpt>
				<trkpt lat="55.60123" lon="-3.06362">
					<ele>158</ele>
					<time>0001-01-01T00:00:00Z</time>
				</trkpt>
				<trkpt lat="55.60243" lon="-3.06236">
					<ele>160</ele>
					<time>0001-01-01T00:00:00Z</time>
				</trkpt>
				<trkpt lat="55.60374" lon="-3.06191">
					<ele>165</ele>
					<time>0001-01-01T00:00:00Z</time>
				</trkpt>
				<trkpt lat="55.60598" lon="-3.06126">
					<ele>170</ele>
					<time>0001-01-01T00:00:00Z</time>
				</trkpt>
				<trkpt lat="55.60688" lon="-3.06089">
					<ele>170</ele>
					<time>0001-01-01T00:00:00Z</time>
				</trkpt>
				<trkpt lat="55.60812" lon="-3.05969">
					<ele>163</ele>
					<time>0001-01-01T00:00:00Z</time>
				</trkpt>
				<trkpt lat="55.60945" lon="-3.05755">
					<ele>163</ele>
					<time>0001-01-01T00:00:00Z</time>
				</trkpt>
				<trkpt lat="55.60996" lon="-3.05673">
					<ele>155</ele>
					<time>0001-01-01T00:00:00Z</time>
				</trkpt>
				<trkpt lat="55.61031" lon="-3.05679">
					<ele>152</ele>
					<time>0001-01-01T00:00:00Z</time>
				</trkpt>
				<trkpt lat="55.61172" lon="-3.05820">
					<ele>150</ele>
					<time>0001-01-01T00:00:00Z</time>
				</trkpt>
				<trkpt lat="55.61271" lon="-3.05934">
					<ele>148</ele>
					<time>0001-01-01T00:00:00Z</time>
				</trkpt>
				<trkpt lat="55.61393" lon="-3.06074">
					<ele>148</ele>
					<time>0001-01-01T00:00:00Z</time>
				</trkpt>
				<trkpt lat="55.61537" lon="-3.06287">
					<ele>143</ele>
					<time>0001-01-01T00:00:00Z</time>
				</trkpt>
				<trkpt lat="55.61663" lon="-3.06470">
					<ele>144</ele>
					<time>0001-01-01T00:00:00Z</time>
				</trkpt>
				<trkpt lat="55.61698" lon="-3.06519">
					<ele>144</ele>
					<time>0001-01-01T00:00:00Z</time>
				</trkpt>
				<trkpt lat="55.61727" lon="-3.06559">
					<ele>145</ele>
					<time>0001-01-01T00:00:00Z</time>
				</trkpt>
				<trkpt lat="55.61760" lon="-3.06574">
					<ele>144</ele>
					<time>0001-01-01T00:00:00Z</time>
				</trkpt>
				<trkpt lat="55.61805" lon="-3.06581">
					<ele>142</ele>
					<time>0001-01-01T00:00:00Z</time>
				</trkpt>
				<trkpt lat="55.61808" lon="-3.06583">
					<ele>142</ele>
					<time>0001-01-01T00:00:00Z</time>
				</trkpt>
				<trkpt lat="55.61840" lon="-3.06523">
					<ele>141</ele>
					<time>0001-01-01T00:00:00Z</time>
				</trkpt>
				<trkpt lat="55.61916" lon="-3.06352">
					<ele>141</ele>
					<time>0001-01-01T00:00:00Z</time>
				</trkpt>
				<trkpt lat="55.61950" lon="-3.06269">
					<ele>141</ele>
					<time>0001-01-01T00:00:00Z</time>
				</trkpt>
				<trkpt lat="55.61953" lon="-3.06248">
					<ele>141</ele>
					<time>0001-01-01T00:00:00Z</time>
				</trkpt>
				<trkpt lat="55.61958" lon="-3.06258">
					<ele>143</ele>
					<time>0001-01-01T00:00:00Z</time>
				</trkpt>
				<trkpt lat="55.62071" lon="-3.06256">
					<ele>145</ele>
					<time>0001-01-01T00:00:00Z</time>
				</trkpt>
				<trkpt lat="55.62129" lon="-3.06304">
					<ele>148</ele>
					<time>0001-01-01T00:00:00Z</time>
				</trkpt>
				<trkpt lat="55.62233" lon="-3.06342">
					<ele>151</ele>
					<time>0001-01-01T00:00:00Z</time>
				</trkpt>
				<trkpt lat="55.62284" lon="-3.06319">
					<ele>153</ele>
					<time>0001-01-01T00:00:00Z</time>
				</trkpt>
				<trkpt lat="55.62318" lon="-3.06290">
					<ele>152</ele>
					<time>0001-01-01T00:00:00Z</time>
				</trkpt>
				<trkpt lat="55.62328" lon="-3.06244">
					<ele>150</ele>
					<time>0001-01-01T00:00:00Z</time>
				</trkpt>
				<trkpt lat="55.62305" lon="-3.06122">
					<ele>148</ele>
					<time>0001-01-01T00:00:00Z</time>
				</trkpt>
				<trkpt lat="55.62309" lon="-3.06108">
					<ele>148</ele>
					<time>0001-01-01T00:00:00Z</time>
				</trkpt>
				<trkpt lat="55.62379" lon="-3.06057">
					<ele>150</ele>
					<time>0001-01-01T00:00:00Z</time>
				</trkpt>
				<trkpt lat="55.62494" lon="-3.05951">
					<ele>153</ele>
					<time>0001-01-01T00:00:00Z</time>
				</trkpt>
				<trkpt lat="55.62630" lon="-3.05863">
					<ele>155</ele>
					<time>0001-01-01T00:00:00Z</time>
				</trkpt>
				<trkpt lat="55.62795" lon="-3.05794">
					<ele>157</ele>
					<time>0001-01-01T00:00:00Z</time>
				</trkpt>
				<trkpt lat="55.62947" lon="-3.05750">
					<ele>159</ele>
					<time>0001-01-01T00:00:00Z</time>
				</trkpt>
				<trkpt lat="55.63080" lon="-3.05667">
					<ele>163</ele>
					<time>0001-01-01T00:00:00Z</time>
				</trkpt>
				<trkpt lat="55.63248" lon="-3.05587">
					<ele>175</ele>
					<time>0001-01-01T00:00:00Z</time>
				</trkpt>
				<trkpt lat="55.63356" lon="-3.05537">
					<ele>179</ele>
					<time>0001-01-01T00:00:00Z</time>
				</trkpt>
				<trkpt lat="55.63565" lon="-3.05612">
					<ele>183</ele>
					<time>0001-01-01T00:00:00Z</time>
				</trkpt>
				<trkpt lat="55.63687" lon="-3.05682">
					<ele>181</ele>
					<time>0001-01-01T00:00:00Z</time>
				</trkpt>
				<trkpt lat="55.63720" lon="-3.05712">
					<ele>180</ele>
					<time>0001-01-01T00:00:00Z</time>
				</trkpt>
				<trkpt lat="55.63747" lon="-3.05690">
					<ele>179</ele>
					<time>0001-01-01T00:00:00Z</time>
				</trkpt>
				<trkpt lat="55.63814" lon="-3.05583">
					<ele>177</ele>
					<time>0001-01-01T00:00:00Z</time>
				</trkpt>
				<trkpt lat="55.63846" lon="-3.05575">
					<ele>176</ele>
					<time>0001-01-01T00:00:00Z</time>
				</trkpt>
				<trkpt lat="55.64002" lon="-3.05645">
					<ele>175</ele>
					<time>0001-01-01T00:00:00Z</time>
				</trkpt>
				<trkpt lat="55.64149" lon="-3.05714">
					<ele>177</ele>
					<time>0001-01-01T00:00:00Z</time>
				</trkpt>
				<trkpt lat="55.64306" lon="-3.05837">
					<ele>177</ele>
					<time>0001-01-01T00:00:00Z</time>
				</trkpt>
				<trkpt lat="55.64464" lon="-3.06003">
					<ele>180</ele>
					<time>0001-01-01T00:00:00Z</time>
				</trkpt>
				<trkpt lat="55.64585" lon="-3.06183">
					<ele>183</ele>
					<time>0001-01-01T00:00:00Z</time>
				</trkpt>
				<trkpt lat="55.64677" lon="-3.06284">
					<ele>184</ele>
					<time>0001-01-01T00:00:00Z</time>
				</trkpt>
				<trkpt lat="55.64683" lon="-3.06287">
					<ele>184</ele>
					<time>0001-01-01T00:00:00Z</time>
				</trkpt>
				<trkpt lat="55.64797" lon="-3.06239">
					<ele>187</ele>
					<time>0001-01-01T00:00:00Z</time>
				</trkpt>
				<trkpt lat="55.64923" lon="-3.06195">
					<ele>189</ele>
					<time>0001-01-01T00:00:00Z</time>
				</trkpt>
				<trkpt lat="55.64957" lon="-3.06150">
					<ele>189</ele>
					<time>0001-01-01T00:00:00Z</time>
				</trkpt>
				<trkpt lat="55.65005" lon="-3.06095">
					<ele>189</ele>
					<time>0001-01-01T00:00:00Z</time>
				</trkpt>
				<trkpt lat="55.65126" lon="-3.06074">
					<ele>190</ele>
					<time>0001-01-01T00:00:00Z</time>
				</trkpt>
				<trkpt lat="55.65161" lon="-3.06075">
					<ele>190</ele>
					<time>0001-01-01T00:00:00Z</time>
				</trkpt>
				<trkpt lat="55.65261" lon="-3.06068">
					<ele>192</ele>
					<time>0001-01-01T00:00:00Z</time>
				</trkpt>
				<trkpt lat="55.65416" lon="-3.06043">
					<ele>195</ele>
					<time>0001-01-01T00:00:00Z</time>
				</trkpt>
				<trkpt lat="55.65565" lon="-3.06011">
					<ele>197</ele>
					<time>0001-01-01T00:00:00Z</time>
				</trkpt>
				<trkpt lat="55.65644" lon="-3.05992">
					<ele>198</ele>
					<time>0001-01-01T00:00:00Z</time>
				</trkpt>
				<trkpt lat="55.65673" lon="-3.05996">
					<ele>198</ele>
					<time>0001-01-01T00:00:00Z</time>
				</trkpt>
				<trkpt lat="55.65822" lon="-3.06130">
					<ele>199</ele>
					<time>0001-01-01T00:00:00Z</time>
				</trkpt>
				<trkpt lat="55.65970" lon="-3.06244">
					<ele>202</ele>
					<time>0001-01-01T00:00:00Z</time>
				</trkpt>
				<trkpt lat="55.66103" lon="-3.06284">
					<ele>204</ele>
					<time>0001-01-01T00:00:00Z</time>
				</trkpt>
				<trkpt lat="55.66220" lon="-3.06291">
					<ele>206</ele>
					<time>0001-01-01T00:00:00Z</time>
				</trkpt>
				<trkpt lat="55.66368" lon="-3.06326">
					<ele>207</ele>
					<time>0001-01-01T00:00:00Z</time>
				</trkpt>
				<trkpt lat="55.66522" lon="-3.06389">
					<ele>209</ele>
					<time>0001-01-01T00:00:00Z</time>
				</trkpt>
				<trkpt lat="55.66623" lon="-3.06460">
					<ele>210</ele>
					<time>0001-01-01T00:00:00Z</time>
				</trkpt>
				<trkpt lat="55.66745" lon="-3.06600">
					<ele>211</ele>
					<time>0001-01-01T00:00:00Z</time>
				</trkpt>
				<trkpt lat="55.66876" lon="-3.06756">
					<ele>214</ele>
					<time>0001-01-01T00:00:00Z</time>
				</trkpt>
				<trkpt lat="55.66984" lon="-3.06846">
					<ele>215</ele>
					<time>0001-01-01T00:00:00Z</time>
				</trkpt>
				<trkpt lat="55.67078" lon="-3.06830">
					<ele>219</ele>
					<time>0001-01-01T00:00:00Z</time>
				</trkpt>
				<trkpt lat="55.67201" lon="-3.06838">
					<ele>223</ele>
					<time>0001-01-01T00:00:00Z</time>
				</trkpt>
				<trkpt lat="55.67253" lon="-3.06867">
					<ele>225</ele>
					<time>0001-01-01T00:00:00Z</time>
				</trkpt>
				<trkpt lat="55.67343" lon="-3.06808">
					<ele>226</ele>
					<time>0001-01-01T00:00:00Z</time>
				</trkpt>
				<trkpt lat="55.67402" lon="-3.06669">
					<ele>229</ele>
					<time>0001-01-01T00:00:00Z</time>
				</trkpt>
				<trkpt lat="55.67427" lon="-3.06461">
					<ele>236</ele>
					<time>0001-01-01T00:00:00Z</time>
				</trkpt>
				<trkpt lat="55.67438" lon="-3.06186">
					<ele>243</ele>
					<time>0001-01-01T00:00:00Z</time>
				</trkpt>
				<trkpt lat="55.67466" lon="-3.05884">
					<ele>247</ele>
					<time>0001-01-01T00:00:00Z</time>
				</trkpt>
				<trkpt lat="55.67495" lon="-3.05680">
					<ele>247</ele>
					<time>0001-01-01T00:00:00Z</time>
				</trkpt>
				<trkpt lat="55.67542" lon="-3.05535">
					<ele>250</ele>
					<time>0001-01-01T00:00:00Z</time>
				</trkpt>
				<trkpt lat="55.67624" lon="-3.05361">
					<ele>253</ele>
					<time>0001-01-01T00:00:00Z</time>
				</trkpt>
				<trkpt lat="55.67734" lon="-3.05258">
					<ele>255</ele>
					<time>0001-01-01T00:00:00Z</time>
				</trkpt>
				<trkpt lat="55.67838" lon="-3.05262">
					<ele>256</ele>
					<time>0001-01-01T00:00:00Z</time>
				</trkpt>
				<trkpt lat="55.67960" lon="-3.05236">
					<ele>259</ele>
					<time>0001-01-01T00:00:00Z</time>
				</trkpt>
				<trkpt lat="55.68032" lon="-3.05118">
					<ele>263</ele>
					<time>0001-01-01T00:00:00Z</time>
				</trkpt>
				<trkpt lat="55.68102" lon="-3.04937">
					<ele>267</ele>
					<time>0001-01-01T00:00:00Z</time>
				</trkpt>
				<trkpt lat="55.68203" lon="-3.04731">
					<ele>272</ele>
					<time>0001-01-01T00:00:00Z</time>
				</trkpt>
				<trkpt lat="55.68283" lon="-3.04647">
					<ele>276</ele>
					<time>0001-01-01T00:00:00Z</time>
				</trkpt>
				<trkpt lat="55.68406" lon="-3.04568">
					<ele>282</ele>
					<time>0001-01-01T00:00:00Z</time>
				</trkpt>
				<trkpt lat="55.68540" lon="-3.04476">
					<ele>284</ele>
					<time>0001-01-01T00:00:00Z</time>
				</trkpt>
				<trkpt lat="55.68670" lon="-3.04402">
					<ele>288</ele>
					<time>0001-01-01T00:00:00Z</time>
				</trkpt>
				<trkpt lat="55.68814" lon="-3.04397">
					<ele>294</ele>
					<time>0001-01-01T00:00:00Z</time>
				</trkpt>
				<trkpt lat="55.68970" lon="-3.04385">
					<ele>301</ele>
					<time>0001-01-01T00:00:00Z</time>
				</trkpt>
				<trkpt lat="55.69074" lon="-3.04363">
					<ele>303</ele>
					<time>0001-01-01T00:00:00Z</time>
				</trkpt>
				<trkpt lat="55.69191" lon="-3.04344">
					<ele>307</ele>
					<time>0001-01-01T00:00:00Z</time>
				</trkpt>
				<trkpt lat="55.69319" lon="-3.04299">
					<ele>312</ele>
					<time>0001-01-01T00:00:00Z</time>
				</trkpt>
				<trkpt lat="55.69471" lon="-3.04244">
					<ele>316</ele>
					<time>0001-01-01T00:00:00Z</time>
				</trkpt>
				<trkpt lat="55.69571" lon="-3.04208">
					<ele>320</ele>
					<time>0001-01-01T00:00:00Z</time>
				</trkpt>
				<trkpt lat="55.69676" lon="-3.04186">
					<ele>325</ele>
					<time>0001-01-01T00:00:00Z</time>
				</trkpt>
				<trkpt lat="55.69776" lon="-3.04178">
					<ele>329</ele>
					<time>0001-01-01T00:00:00Z</time>
				</trkpt>
				<trkpt lat="55.69884" lon="-3.04131">
					<ele>333</ele>
					<time>0001-01-01T00:00:00Z</time>
				</trkpt>
				<trkpt lat="55.69981" lon="-3.04077">
					<ele>336</ele>
					<time>0001-01-01T00:00:00Z</time>
				</trkpt>
				<trkpt lat="55.70093" lon="-3.04057">
					<ele>339</ele>
					<time>0001-01-01T00:00:00Z</time>
				</trkpt>
				<trkpt lat="55.70193" lon="-3.04036">
					<ele>344</ele>
					<time>0001-01-01T00:00:00Z</time>
				</trkpt>
				<trkpt lat="55.70317" lon="-3.03997">
					<ele>351</ele>
					<time>0001-01-01T00:00:00Z</time>
				</trkpt>
				<trkpt lat="55.70423" lon="-3.03979">
					<ele>357</ele>
					<time>0001-01-01T00:00:00Z</time>
				</trkpt>
				<trkpt lat="55.70535" lon="-3.03977">
					<ele>360</ele>
					<time>0001-01-01T00:00:00Z</time>
				</trkpt>
				<trkpt lat="55.70667" lon="-3.03997">
					<ele>363</ele>
					<time>0001-01-01T00:00:00Z</time>
				</trkpt>
				<trkpt lat="55.70751" lon="-3.03958">
					<ele>365</ele>
					<time>0001-01-01T00:00:00Z</time>
				</trkpt>
				<trkpt lat="55.70855" lon="-3.03865">
					<ele>366</ele>
					<time>0001-01-01T00:00:00Z</time>
				</trkpt>
				<trkpt lat="55.70992" lon="-3.03783">
					<ele>367</ele>
					<time>0001-01-01T00:00:00Z</time>
				</trkpt>
				<trkpt lat="55.71141" lon="-3.03797">
					<ele>363</ele>
					<time>0001-01-01T00:00:00Z</time>
				</trkpt>
				<trkpt lat="55.71333" lon="-3.03809">
					<ele>355</ele>
					<time>0001-01-01T00:00:00Z</time>
				</trkpt>
				<trkpt lat="55.71505" lon="-3.03853">
					<ele>351</ele>
					<time>0001-01-01T00:00:00Z</time>
				</trkpt>
				<trkpt lat="55.71791" lon="-3.03817">
					<ele>339</ele>
					<time>0001-01-01T00:00:00Z</time>
				</trkpt>
				<trkpt lat="55.72079" lon="-3.03781">
					<ele>334</ele>
					<time>0001-01-01T00:00:00Z</time>
				</trkpt>
				<trkpt lat="55.72355" lon="-3.03754">
					<ele>327</ele>
					<time>0001-01-01T00:00:00Z</time>
				</trkpt>
				<trkpt lat="55.72629" lon="-3.03727">
					<ele>321</ele>
					<time>0001-01-01T00:00:00Z</time>
				</trkpt>
				<trkpt lat="55.72876" lon="-3.03714">
					<ele>316</ele>
					<time>0001-01-01T00:00:00Z</time>
				</trkpt>
				<trkpt lat="55.73137" lon="-3.03696">
					<ele>310</ele>
					<time>0001-01-01T00:00:00Z</time>
				</trkpt>
				<trkpt lat="55.73413" lon="-3.03629">
					<ele>306</ele>
					<time>0001-01-01T00:00:00Z</time>
				</trkpt>
				<trkpt lat="55.73665" lon="-3.03565">
					<ele>299</ele>
					<time>0001-01-01T00:00:00Z</time>
				</trkpt>
				<trkpt lat="55.73867" lon="-3.03489">
					<ele>297</ele>
					<time>0001-01-01T00:00:00Z</time>
				</trkpt>
				<trkpt lat="55.74006" lon="-3.03342">
					<ele>297</ele>
					<time>0001-01-01T00:00:00Z</time>
				</trkpt>
				<trkpt lat="55.74143" lon="-3.03056">
					<ele>293</ele>
					<time>0001-01-01T00:00:00Z</time>
				</trkpt>
				<trkpt lat="55.74265" lon="-3.02815">
					<ele>296</ele>
					<time>0001-01-01T00:00:00Z</time>
				</trkpt>
				<trkpt lat="55.74400" lon="-3.02780">
					<ele>296</ele>
					<time>0001-01-01T00:00:00Z</time>
				</trkpt>
				<trkpt lat="55.74515" lon="-3.02757">
					<ele>297</ele>
					<time>0001-01-01T00:00:00Z</time>
				</trkpt>
				<trkpt lat="55.74609" lon="-3.02826">
					<ele>300</ele>
					<time>0001-01-01T00:00:00Z</time>
				</trkpt>
				<trkpt lat="55.74759" lon="-3.02959">
					<ele>304</ele>
					<time>0001-01-01T00:00:00Z</time>
				</trkpt>
				<trkpt lat="55.74867" lon="-3.03030">
					<ele>309</ele>
					<time>0001-01-01T00:00:00Z</time>
				</trkpt>
				<trkpt lat="55.74988" lon="-3.03098">
					<ele>311</ele>
					<time>0001-01-01T00:00:00Z</time>
				</trkpt>
				<trkpt lat="55.75082" lon="-3.03173">
					<ele>317</ele>
					<time>0001-01-01T00:00:00Z</time>
				</trkpt>
				<trkpt lat="55.75162" lon="-3.03260">
					<ele>322</ele>
					<time>0001-01-01T00:00:00Z</time>
				</trkpt>
				<trkpt lat="55.75236" lon="-3.03330">
					<ele>326</ele>
					<time>0001-01-01T00:00:00Z</time>
				</trkpt>
				<trkpt lat="55.75337" lon="-3.03358">
					<ele>329</ele>
					<time>0001-01-01T00:00:00Z</time>
				</trkpt>
				<trkpt lat="55.75436" lon="-3.03406">
					<ele>333</ele>
					<time>0001-01-01T00:00:00Z</time>
				</trkpt>
				<trkpt lat="55.75539" lon="-3.03443">
					<ele>338</ele>
					<time>0001-01-01T00:00:00Z</time>
				</trkpt>
				<trkpt lat="55.75665" lon="-3.03480">
					<ele>344</ele>
					<time>0001-01-01T00:00:00Z</time>
				</trkpt>
				<trkpt lat="55.75714" lon="-3.03493">
					<ele>346</ele>
					<time>0001-01-01T00:00:00Z</time>
				</trkpt>
				<trkpt lat="55.75823" lon="-3.03578">
					<ele>351</ele>
					<time>0001-01-01T00:00:00Z</time>
				</trkpt>
				<trkpt lat="55.75882" lon="-3.03708">
					<ele>355</ele>
					<time>0001-01-01T00:00:00Z</time>
				</trkpt>
				<trkpt lat="55.75967" lon="-3.03892">
					<ele>360</ele>
					<time>0001-01-01T00:00:00Z</time>
				</trkpt>
				<trkpt lat="55.76050" lon="-3.03974">
					<ele>364</ele>
					<time>0001-01-01T00:00:00Z</time>
				</trkpt>
				<trkpt lat="55.76161" lon="-3.04073">
					<ele>368</ele>
					<time>0001-01-01T00:00:00Z</time>
				</trkpt>
				<trkpt lat="55.76276" lon="-3.04196">
					<ele>374</ele>
					<time>0001-01-01T00:00:00Z</time>
				</trkpt>
				<trkpt lat="55.76388" lon="-3.04299">
					<ele>379</ele>
					<time>0001-01-01T00:00:00Z</time>
				</trkpt>
				<trkpt lat="55.76488" lon="-3.04271">
					<ele>385</ele>
					<time>0001-01-01T00:00:00Z</time>
				</trkpt>
				<trkpt lat="55.76605" lon="-3.04268">
					<ele>390</ele>
					<time>0001-01-01T00:00:00Z</time>
				</trkpt>
				<trkpt lat="55.76662" lon="-3.04300">
					<ele>394</ele>
					<time>0001-01-01T00:00:00Z</time>
				</trkpt>
				<trkpt lat="55.76691" lon="-3.04287">
					<ele>395</ele>
					<time>0001-01-01T00:00:00Z</time>
				</trkpt>
				<trkpt lat="55.76794" lon="-3.04182">
					<ele>398</ele>
					<time>0001-01-01T00:00:00Z</time>
				</trkpt>
				<trkpt lat="55.76888" lon="-3.04084">
					<ele>397</ele>
					<time>0001-01-01T00:00:00Z</time>
				</trkpt>
				<trkpt lat="55.76982" lon="-3.03987">
					<ele>401</ele>
					<time>0001-01-01T00:00:00Z</time>
				</trkpt>
				<trkpt lat="55.77099" lon="-3.03868">
					<ele>401</ele>
					<time>0001-01-01T00:00:00Z</time>
				</trkpt>
				<trkpt lat="55.77252" lon="-3.03724">
					<ele>401</ele>
					<time>0001-01-01T00:00:00Z</time>
				</trkpt>
				<trkpt lat="55.77354" lon="-3.03738">
					<ele>400</ele>
					<time>0001-01-01T00:00:00Z</time>
				</trkpt>
				<trkpt lat="55.77513" lon="-3.03791">
					<ele>401</ele>
					<time>0001-01-01T00:00:00Z</time>
				</trkpt>
				<trkpt lat="55.77673" lon="-3.03863">
					<ele>399</ele>
					<time>0001-01-01T00:00:00Z</time>
				</trkpt>
				<trkpt lat="55.77763" lon="-3.03981">
					<ele>395</ele>
					<time>0001-01-01T00:00:00Z</time>
				</trkpt>
				<trkpt lat="55.77819" lon="-3.03969">
					<ele>392</ele>
					<time>0001-01-01T00:00:00Z</time>
				</trkpt>
				<trkpt lat="55.77959" lon="-3.03708">
					<ele>382</ele>
					<time>0001-01-01T00:00:00Z</time>
				</trkpt>
				<trkpt lat="55.78111" lon="-3.03525">
					<ele>374</ele>
					<time>0001-01-01T00:00:00Z</time>
				</trkpt>
				<trkpt lat="55.78254" lon="-3.03302">
					<ele>366</ele>
					<time>0001-01-01T00:00:00Z</time>
				</trkpt>
				<trkpt lat="55.78369" lon="-3.03095">
					<ele>357</ele>
					<time>0001-01-01T00:00:00Z</time>
				</trkpt>
				<trkpt lat="55.78490" lon="-3.02881">
					<ele>350</ele>
					<time>0001-01-01T00:00:00Z</time>
				</trkpt>
				<trkpt lat="55.78636" lon="-3.02547">
					<ele>339</ele>
					<time>0001-01-01T00:00:00Z</time>
				</trkpt>
				<trkpt lat="55.78840" lon="-3.02102">
					<ele>325</ele>
					<time>0001-01-01T00:00:00Z</time>
				</trkpt>
				<trkpt lat="55.79034" lon="-3.01690">
					<ele>314</ele>
					<time>0001-01-01T00:00:00Z</time>
				</trkpt>
				<trkpt lat="55.79181" lon="-3.01314">
					<ele>301</ele>
					<time>0001-01-01T00:00:00Z</time>
				</trkpt>
				<trkpt lat="55.79300" lon="-3.00980">
					<ele>293</ele>
					<time>0001-01-01T00:00:00Z</time>
				</trkpt>
				<trkpt lat="55.79420" lon="-3.00603">
					<ele>285</ele>
					<time>0001-01-01T00:00:00Z</time>
				</trkpt>
				<trkpt lat="55.79504" lon="-3.00531">
					<ele>282</ele>
					<time>0001-01-01T00:00:00Z</time>
				</trkpt>
				<trkpt lat="55.79516" lon="-3.00529">
					<ele>281</ele>
					<time>0001-01-01T00:00:00Z</time>
				</trkpt>
				<trkpt lat="55.79764" lon="-3.00499">
					<ele>273</ele>
					<time>0001-01-01T00:00:00Z</time>
				</trkpt>
				<trkpt lat="55.79991" lon="-3.00473">
					<ele>264</ele>
					<time>0001-01-01T00:00:00Z</time>
				</trkpt>
				<trkpt lat="55.80171" lon="-3.00455">
					<ele>262</ele>
					<time>0001-01-01T00:00:00Z</time>
				</trkpt>
				<trkpt lat="55.80345" lon="-3.00436">
					<ele>258</ele>
					<time>0001-01-01T00:00:00Z</time>
				</trkpt>
				<trkpt lat="55.80569" lon="-3.00412">
					<ele>251</ele>
					<time>0001-01-01T00:00:00Z</time>
				</trkpt>
				<trkpt lat="55.80820" lon="-3.00384">
					<ele>244</ele>
					<time>0001-01-01T00:00:00Z</time>
				</trkpt>
				<trkpt lat="55.81016" lon="-3.00364">
					<ele>240</ele>
					<time>0001-01-01T00:00:00Z</time>
				</trkpt>
				<trkpt lat="55.81222" lon="-3.00339">
					<ele>238</ele>
					<time>0001-01-01T00:00:00Z</time>
				</trkpt>
				<trkpt lat="55.81432" lon="-3.00307">
					<ele>237</ele>
					<time>0001-01-01T00:00:00Z</time>
				</trkpt>
				<trkpt lat="55.81523" lon="-3.00279">
					<ele>238</ele>
					<time>0001-01-01T00:00:00Z</time>
				</trkpt>
				<trkpt lat="55.81530" lon="-3.00301">
					<ele>238</ele>
					<time>0001-01-01T00:00:00Z</time>
				</trkpt>
				<trkpt lat="55.81538" lon="-3.00529">
					<ele>236</ele>
					<time>0001-01-01T00:00:00Z</time>
				</trkpt>
				<trkpt lat="55.81563" lon="-3.00829">
					<ele>236</ele>
					<time>0001-01-01T00:00:00Z</time>
				</trkpt>
				<trkpt lat="55.81587" lon="-3.01133">
					<ele>232</ele>
					<time>0001-01-01T00:00:00Z</time>
				</trkpt>
				<trkpt lat="55.81619" lon="-3.01513">
					<ele>231</ele>
					<time>0001-01-01T00:00:00Z</time>
				</trkpt>
				<trkpt lat="55.81651" lon="-3.01891">
					<ele>228</ele>
					<time>0001-01-01T00:00:00Z</time>
				</trkpt>
				<trkpt lat="55.81684" lon="-3.02236">
					<ele>218</ele>
					<time>0001-01-01T00:00:00Z</time>
				</trkpt>
				<trkpt lat="55.81772" lon="-3.02572">
					<ele>209</ele>
					<time>0001-01-01T00:00:00Z</time>
				</trkpt>
				<trkpt lat="55.81901" lon="-3.02830">
					<ele>208</ele>
					<time>0001-01-01T00:00:00Z</time>
				</trkpt>
				<trkpt lat="55.82044" lon="-3.03056">
					<ele>205</ele>
					<time>0001-01-01T00:00:00Z</time>
				</trkpt>
				<trkpt lat="55.82187" lon="-3.03262">
					<ele>201</ele>
					<time>0001-01-01T00:00:00Z</time>
				</trkpt>
				<trkpt lat="55.82366" lon="-3.03488">
					<ele>189</ele>
					<time>0001-01-01T00:00:00Z</time>
				</trkpt>
				<trkpt lat="55.82601" lon="-3.03728">
					<ele>177</ele>
					<time>0001-01-01T00:00:00Z</time>
				</trkpt>
				<trkpt lat="55.82771" lon="-3.03898">
					<ele>171</ele>
					<time>0001-01-01T00:00:00Z</time>
				</trkpt>
				<trkpt lat="55.82920" lon="-3.04169">
					<ele>163</ele>
					<time>0001-01-01T00:00:00Z</time>
				</trkpt>
				<trkpt lat="55.83055" lon="-3.04369">
					<ele>163</ele>
					<time>0001-01-01T00:00:00Z</time>
				</trkpt>
				<trkpt lat="55.83168" lon="-3.04495">
					<ele>165</ele>
					<time>0001-01-01T00:00:00Z</time>
				</trkpt>
				<trkpt lat="55.83314" lon="-3.04658">
					<ele>162</ele>
					<time>0001-01-01T00:00:00Z</time>
				</trkpt>
				<trkpt lat="55.83450" lon="-3.04812">
					<ele>158</ele>
					<time>0001-01-01T00:00:00Z</time>
				</trkpt>
				<trkpt lat="55.83551" lon="-3.04985">
					<ele>155</ele>
					<time>0001-01-01T00:00:00Z</time>
				</trkpt>
				<trkpt lat="55.83696" lon="-3.05249">
					<ele>151</ele>
					<time>0001-01-01T00:00:00Z</time>
				</trkpt>
				<trkpt lat="55.83809" lon="-3.05534">
					<ele>142</ele>
					<time>0001-01-01T00:00:00Z</time>
				</trkpt>
				<trkpt lat="55.83918" lon="-3.05838">
					<ele>129</ele>
					<time>0001-01-01T00:00:00Z</time>
				</trkpt>
				<trkpt lat="55.84037" lon="-3.05977">
					<ele>126</ele>
					<time>0001-01-01T00:00:00Z</time>
				</trkpt>
				<trkpt lat="55.84213" lon="-3.06107">
					<ele>123</ele>
					<time>0001-01-01T00:00:00Z</time>
				</trkpt>
				<trkpt lat="55.84370" lon="-3.06217">
					<ele>125</ele>
					<time>0001-01-01T00:00:00Z</time>
				</trkpt>
				<trkpt lat="55.84397" lon="-3.06236">
					<ele>126</ele>
					<time>0001-01-01T00:00:00Z</time>
				</trkpt>
				<trkpt lat="55.84519" lon="-3.06313">
					<ele>131</ele>
					<time>0001-01-01T00:00:00Z</time>
				</trkpt>
				<trkpt lat="55.84664" lon="-3.06376">
					<ele>135</ele>
					<time>0001-01-01T00:00:00Z</time>
				</trkpt>
				<trkpt lat="55.84852" lon="-3.06440">
					<ele>130</ele>
					<time>0001-01-01T00:00:00Z</time>
				</trkpt>
				<trkpt lat="55.85009" lon="-3.06483">
					<ele>127</ele>
					<time>0001-01-01T00:00:00Z</time>
				</trkpt>
				<trkpt lat="55.85207" lon="-3.06512">
					<ele>122</ele>
					<time>0001-01-01T00:00:00Z</time>
				</trkpt>
				<trkpt lat="55.85410" lon="-3.06531">
					<ele>118</ele>
					<time>0001-01-01T00:00:00Z</time>
				</trkpt>
				<trkpt lat="55.85590" lon="-3.06550">
					<ele>114</ele>
					<time>0001-01-01T00:00:00Z</time>
				</trkpt>
				<trkpt lat="55.85659" lon="-3.06544">
					<ele>112</ele>
					<time>0001-01-01T00:00:00Z</time>
				</trkpt>
				<trkpt lat="55.85719" lon="-3.06536">
					<ele>113</ele>
					<time>0001-01-01T00:00:00Z</time>
				</trkpt>
				<trkpt lat="55.85808" lon="-3.06527">
					<ele>112</ele>
					<time>0001-01-01T00:00:00Z</time>
				</trkpt>
				<trkpt lat="55.85942" lon="-3.06516">
					<ele>109</ele>
					<time>0001-01-01T00:00:00Z</time>
				</trkpt>
				<trkpt lat="55.86114" lon="-3.06508">
					<ele>106</ele>
					<time>0001-01-01T00:00:00Z</time>
				</trkpt>
				<trkpt lat="55.86395" lon="-3.06633">
					<ele>98</ele>
					<time>0001-01-01T00:00:00Z</time>
				</trkpt>
				<trkpt lat="55.86511" lon="-3.06842">
					<ele>97</ele>
					<time>0001-01-01T00:00:00Z</time>
				</trkpt>
				<trkpt lat="55.86606" lon="-3.07013">
					<ele>95</ele>
					<time>0001-01-01T00:00:00Z</time>
				</trkpt>
				<trkpt lat="55.86741" lon="-3.07245">
					<ele>92</ele>
					<time>0001-01-01T00:00:00Z</time>
				</trkpt>
				<trkpt lat="55.86769" lon="-3.07329">
					<ele>89</ele>
					<time>0001-01-01T00:00:00Z</time>
				</trkpt>
				<trkpt lat="55.86794" lon="-3.07408">
					<ele>87</ele>
					<time>0001-01-01T00:00:00Z</time>
				</trkpt>
				<trkpt lat="55.86875" lon="-3.07456">
					<ele>82</ele>
					<time>0001-01-01T00:00:00Z</time>
				</trkpt>
				<trkpt lat="55.87060" lon="-3.07491">
					<ele>75</ele>
					<time>0001-01-01T00:00:00Z</time>
				</trkpt>
				<trkpt lat="55.87142" lon="-3.07516">
					<ele>73</ele>
					<time>0001-01-01T00:00:00Z</time>
				</trkpt>
				<trkpt lat="55.87200" lon="-3.07619">
					<ele>70</ele>
					<time>0001-01-01T00:00:00Z</time>
				</trkpt>
				<trkpt lat="55.87275" lon="-3.07834">
					<ele>65</ele>
					<time>0001-01-01T00:00:00Z</time>
				</trkpt>
				<trkpt lat="55.87419" lon="-3.07977">
					<ele>65</ele>
					<time>0001-01-01T00:00:00Z</time>
				</trkpt>
				<trkpt lat="55.87509" lon="-3.08101">
					<ele>67</ele>
					<time>0001-01-01T00:00:00Z</time>
				</trkpt>
				<trkpt lat="55.87613" lon="-3.08222">
					<ele>67</ele>
					<time>0001-01-01T00:00:00Z</time>
				</trkpt>
				<trkpt lat="55.87623" lon="-3.08250">
					<ele>67</ele>
					<time>0001-01-01T00:00:00Z</time>
				</trkpt>
				<trkpt lat="55.87627" lon="-3.08271">
					<ele>67</ele>
					<time>0001-01-01T00:00:00Z</time>
				</trkpt>
				<trkpt lat="55.87659" lon="-3.08261">
					<ele>65</ele>
					<time>0001-01-01T00:00:00Z</time>
				</trkpt>
				<trkpt lat="55.87806" lon="-3.08084">
					<ele>68</ele>
					<time>0001-01-01T00:00:00Z</time>
				</trkpt>
				<trkpt lat="55.87912" lon="-3.07994">
					<ele>77</ele>
					<time>0001-01-01T00:00:00Z</time>
				</trkpt>
				<trkpt lat="55.88009" lon="-3.07906">
					<ele>80</ele>
					<time>0001-01-01T00:00:00Z</time>
				</trkpt>
				<trkpt lat="55.88127" lon="-3.07799">
					<ele>81</ele>
					<time>0001-01-01T00:00:00Z</time>
				</trkpt>
				<trkpt lat="55.88216" lon="-3.07786">
					<ele>78</ele>
					<time>0001-01-01T00:00:00Z</time>
				</trkpt>
				<trkpt lat="55.88313" lon="-3.07876">
					<ele>76</ele>
					<time>0001-01-01T00:00:00Z</time>
				</trkpt>
				<trkpt lat="55.88462" lon="-3.08036">
					<ele>69</ele>
					<time>0001-01-01T00:00:00Z</time>
				</trkpt>
				<trkpt lat="55.88529" lon="-3.08090">
					<ele>68</ele>
					<time>0001-01-01T00:00:00Z</time>
				</trkpt>
				<trkpt lat="55.88642" lon="-3.08085">
					<ele>70</ele>
					<time>0001-01-01T00:00:00Z</time>
				</trkpt>
				<trkpt lat="55.88800" lon="-3.08061">
					<ele>70</ele>
					<time>0001-01-01T00:00:00Z</time>
				</trkpt>
				<trkpt lat="55.88831" lon="-3.08055">
					<ele>70</ele>
					<time>0001-01-01T00:00:00Z</time>
				</trkpt>
				<trkpt lat="55.88847" lon="-3.08064">
					<ele>70</ele>
					<time>0001-01-01T00:00:00Z</time>
				</trkpt>
				<trkpt lat="55.88874" lon="-3.08034">
					<ele>70</ele>
					<time>0001-01-01T00:00:00Z</time>
				</trkpt>
				<trkpt lat="55.88883" lon="-3.08017">
					<ele>69</ele>
					<time>0001-01-01T00:00:00Z</time>
				</trkpt>
				<trkpt lat="55.88989" lon="-3.07860">
					<ele>69</ele>
					<time>0001-01-01T00:00:00Z</time>
				</trkpt>
				<trkpt lat="55.89075" lon="-3.07682">
					<ele>66</ele>
					<time>0001-01-01T00:00:00Z</time>
				</trkpt>
				<trkpt lat="55.89122" lon="-3.07549">
					<ele>63</ele>
					<time>0001-01-01T00:00:00Z</time>
				</trkpt>
				<trkpt lat="55.89131" lon="-3.07562">
					<ele>62</ele>
					<time>0001-01-01T00:00:00Z</time>
				</trkpt>
				<trkpt lat="55.89141" lon="-3.07576">
					<ele>65</ele>
					<time>0001-01-01T00:00:00Z</time>
				</trkpt>
				<trkpt lat="55.89148" lon="-3.07567">
					<ele>71</ele>
					<time>0001-01-01T00:00:00Z</time>
				</trkpt>
				<trkpt lat="55.89147" lon="-3.07569">
					<ele>73</ele>
					<time>0001-01-01T00:00:00Z</time>
				</trkpt>
				<trkpt lat="55.89164" lon="-3.07661">
					<ele>22</ele>
					<time>0001-01-01T00:00:00Z</time>
				</trkpt>
				<trkpt lat="55.89161" lon="-3.07641">
					<ele>35</ele>
					<time>0001-01-01T00:00:00Z</time>
				</trkpt>
				<trkpt lat="55.89151" lon="-3.07617">
					<ele>37</ele>
					<time>0001-01-01T00:00:00Z</time>
				</trkpt>
				<trkpt lat="55.89139" lon="-3.07606">
					<ele>41</ele>
					<time>0001-01-01T00:00:00Z</time>
				</trkpt>
				<trkpt lat="55.89114" lon="-3.07613">
					<ele>42</ele>
					<time>0001-01-01T00:00:00Z</time>
				</trkpt>
				<trkpt lat="55.89078" lon="-3.07704">
					<ele>46</ele>
					<time>0001-01-01T00:00:00Z</time>
				</trkpt>
				<trkpt lat="55.89018" lon="-3.07819">
					<ele>60</ele>
					<time>0001-01-01T00:00:00Z</time>
				</trkpt>
				<trkpt lat="55.88979" lon="-3.07880">
					<ele>65</ele>
					<time>0001-01-01T00:00:00Z</time>
				</trkpt>
				<trkpt lat="55.88876" lon="-3.08019">
					<ele>73</ele>
					<time>0001-01-01T00:00:00Z</time>
				</trkpt>
				<trkpt lat="55.88865" lon="-3.08032">
					<ele>74</ele>
					<time>0001-01-01T00:00:00Z</time>
				</trkpt>
				<trkpt lat="55.88844" lon="-3.08046">
					<ele>75</ele>
					<time>0001-01-01T00:00:00Z</time>
				</trkpt>
				<trkpt lat="55.88717" lon="-3.08072">
					<ele>78</ele>
					<time>0001-01-01T00:00:00Z</time>
				</trkpt>
				<trkpt lat="55.88578" lon="-3.08089">
					<ele>78</ele>
					<time>0001-01-01T00:00:00Z</time>
				</trkpt>
				<trkpt lat="55.88485" lon="-3.08067">
					<ele>77</ele>
					<time>0001-01-01T00:00:00Z</time>
				</trkpt>
				<trkpt lat="55.88384" lon="-3.07956">
					<ele>78</ele>
					<time>0001-01-01T00:00:00Z</time>
				</trkpt>
				<trkpt lat="55.88297" lon="-3.07852">
					<ele>81</ele>
					<time>0001-01-01T00:00:00Z</time>
				</trkpt>
				<trkpt lat="55.88211" lon="-3.07775">
					<ele>83</ele>
					<time>0001-01-01T00:00:00Z</time>
				</trkpt>
				<trkpt lat="55.88118" lon="-3.07797">
					<ele>81</ele>
					<time>0001-01-01T00:00:00Z</time>
				</trkpt>
				<trkpt lat="55.87977" lon="-3.07933">
					<ele>79</ele>
					<time>0001-01-01T00:00:00Z</time>
				</trkpt>
				<trkpt lat="55.87811" lon="-3.08075">
					<ele>78</ele>
					<time>0001-01-01T00:00:00Z</time>
				</trkpt>
				<trkpt lat="55.87689" lon="-3.08181">
					<ele>73</ele>
					<time>0001-01-01T00:00:00Z</time>
				</trkpt>
				<trkpt lat="55.87655" lon="-3.08223">
					<ele>72</ele>
					<time>0001-01-01T00:00:00Z</time>
				</trkpt>
				<trkpt lat="55.87613" lon="-3.08226">
					<ele>70</ele>
					<time>0001-01-01T00:00:00Z</time>
				</trkpt>
				<trkpt lat="55.87482" lon="-3.08068">
					<ele>68</ele>
					<time>0001-01-01T00:00:00Z</time>
				</trkpt>
				<trkpt lat="55.87411" lon="-3.07972">
					<ele>69</ele>
					<time>0001-01-01T00:00:00Z</time>
				</trkpt>
				<trkpt lat="55.87397" lon="-3.07961">
					<ele>70</ele>
					<time>0001-01-01T00:00:00Z</time>
				</trkpt>
				<trkpt lat="55.87311" lon="-3.07924">
					<ele>65</ele>
					<time>0001-01-01T00:00:00Z</time>
				</trkpt>
				<trkpt lat="55.87293" lon="-3.07890">
					<ele>66</ele>
					<time>0001-01-01T00:00:00Z</time>
				</trkpt>
				<trkpt lat="55.87208" lon="-3.07656">
					<ele>69</ele>
					<time>0001-01-01T00:00:00Z</time>
				</trkpt>
				<trkpt lat="55.87145" lon="-3.07518">
					<ele>75</ele>
					<time>0001-01-01T00:00:00Z</time>
				</trkpt>
				<trkpt lat="55.87048" lon="-3.07487">
					<ele>78</ele>
					<time>0001-01-01T00:00:00Z</time>
				</trkpt>
				<trkpt lat="55.86916" lon="-3.07462">
					<ele>83</ele>
					<time>0001-01-01T00:00:00Z</time>
				</trkpt>
				<trkpt lat="55.86807" lon="-3.07418">
					<ele>87</ele>
					<time>0001-01-01T00:00:00Z</time>
				</trkpt>
				<trkpt lat="55.86801" lon="-3.07409">
					<ele>87</ele>
					<time>0001-01-01T00:00:00Z</time>
				</trkpt>
				<trkpt lat="55.86791" lon="-3.07371">
					<ele>88</ele>
					<time>0001-01-01T00:00:00Z</time>
				</trkpt>
				<trkpt lat="55.86781" lon="-3.07356">
					<ele>89</ele>
					<time>0001-01-01T00:00:00Z</time>
				</trkpt>
				<trkpt lat="55.86770" lon="-3.07330">
					<ele>89</ele>
					<time>0001-01-01T00:00:00Z</time>
				</trkpt>
				<trkpt lat="55.86702" lon="-3.07177">
					<ele>93</ele>
					<time>0001-01-01T00:00:00Z</time>
				</trkpt>
				<trkpt lat="55.86619" lon="-3.07034">
					<ele>96</ele>
					<time>0001-01-01T00:00:00Z</time>
				</trkpt>
				<trkpt lat="55.86526" lon="-3.06872">
					<ele>100</ele>
					<time>0001-01-01T00:00:00Z</time>
				</trkpt>
				<trkpt lat="55.86435" lon="-3.06710">
					<ele>100</ele>
					<time>0001-01-01T00:00:00Z</time>
				</trkpt>
				<trkpt lat="55.86390" lon="-3.06628">
					<ele>102</ele>
					<time>0001-01-01T00:00:00Z</time>
				</trkpt>
				<trkpt lat="55.86280" lon="-3.06562">
					<ele>106</ele>
					<time>0001-01-01T00:00:00Z</time>
				</trkpt>
				<trkpt lat="55.86140" lon="-3.06511">
					<ele>112</ele>
					<time>0001-01-01T00:00:00Z</time>
				</trkpt>
				<trkpt lat="55.85999" lon="-3.06492">
					<ele>115</ele>
					<time>0001-01-01T00:00:00Z</time>
				</trkpt>
				<trkpt lat="55.85848" lon="-3.06512">
					<ele>116</ele>
					<time>0001-01-01T00:00:00Z</time>
				</trkpt>
				<trkpt lat="55.85677" lon="-3.06532">
					<ele>119</ele>
					<time>0001-01-01T00:00:00Z</time>
				</trkpt>
				<trkpt lat="55.85531" lon="-3.06543">
					<ele>120</ele>
					<time>0001-01-01T00:00:00Z</time>
				</trkpt>
				<trkpt lat="55.85390" lon="-3.06519">
					<ele>122</ele>
					<time>0001-01-01T00:00:00Z</time>
				</trkpt>
				<trkpt lat="55.85223" lon="-3.06507">
					<ele>123</ele>
					<time>0001-01-01T00:00:00Z</time>
				</trkpt>
				<trkpt lat="55.85056" lon="-3.06488">
					<ele>125</ele>
					<time>0001-01-01T00:00:00Z</time>
				</trkpt>
				<trkpt lat="55.84866" lon="-3.06440">
					<ele>127</ele>
					<time>0001-01-01T00:00:00Z</time>
				</trkpt>
				<trkpt lat="55.84705" lon="-3.06391">
					<ele>130</ele>
					<time>0001-01-01T00:00:00Z</time>
				</trkpt>
				<trkpt lat="55.84543" lon="-3.06320">
					<ele>137</ele>
					<time>0001-01-01T00:00:00Z</time>
				</trkpt>
				<trkpt lat="55.84374" lon="-3.06218">
					<ele>136</ele>
					<time>0001-01-01T00:00:00Z</time>
				</trkpt>
				<trkpt lat="55.84192" lon="-3.06088">
					<ele>131</ele>
					<time>0001-01-01T00:00:00Z</time>
				</trkpt>
				<trkpt lat="55.84025" lon="-3.05965">
					<ele>130</ele>
					<time>0001-01-01T00:00:00Z</time>
				</trkpt>
				<trkpt lat="55.83911" lon="-3.05816">
					<ele>133</ele>
					<time>0001-01-01T00:00:00Z</time>
				</trkpt>
				<trkpt lat="55.83859" lon="-3.05684">
					<ele>139</ele>
					<time>0001-01-01T00:00:00Z</time>
				</trkpt>
				<trkpt lat="55.83809" lon="-3.05526">
					<ele>142</ele>
					<time>0001-01-01T00:00:00Z</time>
				</trkpt>
				<trkpt lat="55.83764" lon="-3.05390">
					<ele>147</ele>
					<time>0001-01-01T00:00:00Z</time>
				</trkpt>
				<trkpt lat="55.83703" lon="-3.05252">
					<ele>150</ele>
					<time>0001-01-01T00:00:00Z</time>
				</trkpt>
				<trkpt lat="55.83613" lon="-3.05089">
					<ele>152</ele>
					<time>0001-01-01T00:00:00Z</time>
				</trkpt>
				<trkpt lat="55.83517" lon="-3.04918">
					<ele>153</ele>
					<time>0001-01-01T00:00:00Z</time>
				</trkpt>
				<trkpt lat="55.83419" lon="-3.04770">
					<ele>157</ele>
					<time>0001-01-01T00:00:00Z</time>
				</trkpt>
				<trkpt lat="55.83296" lon="-3.04632">
					<ele>160</ele>
					<time>0001-01-01T00:00:00Z</time>
				</trkpt>
				<trkpt lat="55.83183" lon="-3.04506">
					<ele>162</ele>
					<time>0001-01-01T00:00:00Z</time>
				</trkpt>
				<trkpt lat="55.83050" lon="-3.04357">
					<ele>158</ele>
					<time>0001-01-01T00:00:00Z</time>
				</trkpt>
				<trkpt lat="55.82931" lon="-3.04184">
					<ele>158</ele>
					<time>0001-01-01T00:00:00Z</time>
				</trkpt>
				<trkpt lat="55.82858" lon="-3.04042">
					<ele>165</ele>
					<time>0001-01-01T00:00:00Z</time>
				</trkpt>
				<trkpt lat="55.82782" lon="-3.03906">
					<ele>169</ele>
					<time>0001-01-01T00:00:00Z</time>
				</trkpt>
				<trkpt lat="55.82715" lon="-3.03820">
					<ele>171</ele>
					<time>0001-01-01T00:00:00Z</time>
				</trkpt>
				<trkpt lat="55.82608" lon="-3.03724">
					<ele>177</ele>
					<time>0001-01-01T00:00:00Z</time>
				</trkpt>
				<trkpt lat="55.82514" lon="-3.03639">
					<ele>182</ele>
					<time>0001-01-01T00:00:00Z</time>
				</trkpt>
				<trkpt lat="55.82415" lon="-3.03530">
					<ele>187</ele>
					<time>0001-01-01T00:00:00Z</time>
				</trkpt>
				<trkpt lat="55.82328" lon="-3.03427">
					<ele>192</ele>
					<time>0001-01-01T00:00:00Z</time>
				</trkpt>
				<trkpt lat="55.82224" lon="-3.03296">
					<ele>199</ele>
					<time>0001-01-01T00:00:00Z</time>
				</trkpt>
				<trkpt lat="55.82125" lon="-3.03161">
					<ele>203</ele>
					<time>0001-01-01T00:00:00Z</time>
				</trkpt>
				<trkpt lat="55.82032" lon="-3.03025">
					<ele>205</ele>
					<time>0001-01-01T00:00:00Z</time>
				</trkpt>
				<trkpt lat="55.81920" lon="-3.02847">
					<ele>206</ele>
					<time>0001-01-01T00:00:00Z</time>
				</trkpt>
				<trkpt lat="55.81826" lon="-3.02683">
					<ele>206</ele>
					<time>0001-01-01T00:00:00Z</time>
				</trkpt>
				<trkpt lat="55.81753" lon="-3.02505">
					<ele>208</ele>
					<time>0001-01-01T00:00:00Z</time>
				</trkpt>
				<trkpt lat="55.81711" lon="-3.02351">
					<ele>214</ele>
					<time>0001-01-01T00:00:00Z</time>
				</trkpt>
				<trkpt lat="55.81683" lon="-3.02195">
					<ele>218</ele>
					<time>0001-01-01T00:00:00Z</time>
				</trkpt>
				<trkpt lat="55.81664" lon="-3.02006">
					<ele>223</ele>
					<time>0001-01-01T00:00:00Z</time>
				</trkpt>
				<trkpt lat="55.81646" lon="-3.01781">
					<ele>227</ele>
					<time>0001-01-01T00:00:00Z</time>
				</trkpt>
				<trkpt lat="55.81627" lon="-3.01548">
					<ele>228</ele>
					<time>0001-01-01T00:00:00Z</time>
				</trkpt>
				<trkpt lat="55.81604" lon="-3.01291">
					<ele>229</ele>
					<time>0001-01-01T00:00:00Z</time>
				</trkpt>
				<trkpt lat="55.81578" lon="-3.00986">
					<ele>230</ele>
					<time>0001-01-01T00:00:00Z</time>
				</trkpt>
				<trkpt lat="55.81559" lon="-3.00752">
					<ele>233</ele>
					<time>0001-01-01T00:00:00Z</time>
				</trkpt>
				<trkpt lat="55.81539" lon="-3.00509">
					<ele>237</ele>
					<time>0001-01-01T00:00:00Z</time>
				</trkpt>
				<trkpt lat="55.81519" lon="-3.00285">
					<ele>239</ele>
					<time>0001-01-01T00:00:00Z</time>
				</trkpt>
				<trkpt lat="55.81512" lon="-3.00212">
					<ele>241</ele>
					<time>0001-01-01T00:00:00Z</time>
				</trkpt>
				<trkpt lat="55.81510" lon="-3.00235">
					<ele>240</ele>
					<time>0001-01-01T00:00:00Z</time>
				</trkpt>
				<trkpt lat="55.81512" lon="-3.00255">
					<ele>239</ele>
					<time>0001-01-01T00:00:00Z</time>
				</trkpt>
				<trkpt lat="55.81500" lon="-3.00280">
					<ele>239</ele>
					<time>0001-01-01T00:00:00Z</time>
				</trkpt>
				<trkpt lat="55.81366" lon="-3.00320">
					<ele>240</ele>
					<time>0001-01-01T00:00:00Z</time>
				</trkpt>
				<trkpt lat="55.81218" lon="-3.00336">
					<ele>243</ele>
					<time>0001-01-01T00:00:00Z</time>
				</trkpt>
				<trkpt lat="55.81070" lon="-3.00352">
					<ele>243</ele>
					<time>0001-01-01T00:00:00Z</time>
				</trkpt>
				<trkpt lat="55.80869" lon="-3.00372">
					<ele>247</ele>
					<time>0001-01-01T00:00:00Z</time>
				</trkpt>
				<trkpt lat="55.80685" lon="-3.00390">
					<ele>250</ele>
					<time>0001-01-01T00:00:00Z</time>
				</trkpt>
				<trkpt lat="55.80514" lon="-3.00410">
					<ele>254</ele>
					<time>0001-01-01T00:00:00Z</time>
				</trkpt>
				<trkpt lat="55.80348" lon="-3.00428">
					<ele>260</ele>
					<time>0001-01-01T00:00:00Z</time>
				</trkpt>
				<trkpt lat="55.80169" lon="-3.00447">
					<ele>264</ele>
					<time>0001-01-01T00:00:00Z</time>
				</trkpt>
				<trkpt lat="55.80005" lon="-3.00465">
					<ele>267</ele>
					<time>0001-01-01T00:00:00Z</time>
				</trkpt>
				<trkpt lat="55.79875" lon="-3.00481">
					<ele>271</ele>
					<time>0001-01-01T00:00:00Z</time>
				</trkpt>
				<trkpt lat="55.79750" lon="-3.00496">
					<ele>275</ele>
					<time>0001-01-01T00:00:00Z</time>
				</trkpt>
				<trkpt lat="55.79611" lon="-3.00512">
					<ele>280</ele>
					<time>0001-01-01T00:00:00Z</time>
				</trkpt>
				<trkpt lat="55.79473" lon="-3.00534">
					<ele>285</ele>
					<time>0001-01-01T00:00:00Z</time>
				</trkpt>
				<trkpt lat="55.79407" lon="-3.00625">
					<ele>289</ele>
					<time>0001-01-01T00:00:00Z</time>
				</trkpt>
				<trkpt lat="55.79349" lon="-3.00814">
					<ele>293</ele>
					<time>0001-01-01T00:00:00Z</time>
				</trkpt>
				<trkpt lat="55.79282" lon="-3.01027">
					<ele>297</ele>
					<time>0001-01-01T00:00:00Z</time>
				</trkpt>
				<trkpt lat="55.79227" lon="-3.01200">
					<ele>302</ele>
					<time>0001-01-01T00:00:00Z</time>
				</trkpt>
				<trkpt lat="55.79161" lon="-3.01350">
					<ele>306</ele>
					<time>0001-01-01T00:00:00Z</time>
				</trkpt>
				<trkpt lat="55.79095" lon="-3.01523">
					<ele>311</ele>
					<time>0001-01-01T00:00:00Z</time>
				</trkpt>
				<trkpt lat="55.79038" lon="-3.01673">
					<ele>316</ele>
					<time>0001-01-01T00:00:00Z</time>
				</trkpt>
				<trkpt lat="55.78962" lon="-3.01847">
					<ele>321</ele>
					<time>0001-01-01T00:00:00Z</time>
				</trkpt>
				<trkpt lat="55.78898" lon="-3.01987">
					<ele>326</ele>
					<time>0001-01-01T00:00:00Z</time>
				</trkpt>
				<trkpt lat="55.78820" lon="-3.02133">
					<ele>331</ele>
					<time>0001-01-01T00:00:00Z</time>
				</trkpt>
				<trkpt lat="55.78744" lon="-3.02277">
					<ele>335</ele>
					<time>0001-01-01T00:00:00Z</time>
				</trkpt>
				<trkpt lat="55.78675" lon="-3.02441">
					<ele>340</ele>
					<time>0001-01-01T00:00:00Z</time>
				</trkpt>
				<trkpt lat="55.78619" lon="-3.02577">
					<ele>344</ele>
					<time>0001-01-01T00:00:00Z</time>
				</trkpt>
				<trkpt lat="55.78541" lon="-3.02769">
					<ele>349</ele>
					<time>0001-01-01T00:00:00Z</time>
				</trkpt>
				<trkpt lat="55.78477" lon="-3.02897">
					<ele>353</ele>
					<time>0001-01-01T00:00:00Z</time>
				</trkpt>
				<trkpt lat="55.78400" lon="-3.03038">
					<ele>358</ele>
					<time>0001-01-01T00:00:00Z</time>
				</trkpt>
				<trkpt lat="55.78326" lon="-3.03145">
					<ele>363</ele>
					<time>0001-01-01T00:00:00Z</time>
				</trkpt>
				<trkpt lat="55.78264" lon="-3.03271">
					<ele>366</ele>
					<time>0001-01-01T00:00:00Z</time>
				</trkpt>
				<trkpt lat="55.78202" lon="-3.03405">
					<ele>370</ele>
					<time>0001-01-01T00:00:00Z</time>
				</trkpt>
				<trkpt lat="55.78110" lon="-3.03519">
					<ele>376</ele>
					<time>0001-01-01T00:00:00Z</time>
				</trkpt>
				<trkpt lat="55.78032" lon="-3.03602">
					<ele>380</ele>
					<time>0001-01-01T00:00:00Z</time>
				</trkpt>
				<trkpt lat="55.77952" lon="-3.03713">
					<ele>384</ele>
					<time>0001-01-01T00:00:00Z</time>
				</trkpt>
				<trkpt lat="55.77880" lon="-3.03848">
					<ele>388</ele>
					<time>0001-01-01T00:00:00Z</time>
				</trkpt>
				<trkpt lat="55.77798" lon="-3.03989">
					<ele>394</ele>
					<time>0001-01-01T00:00:00Z</time>
				</trkpt>
				<trkpt lat="55.77756" lon="-3.03961">
					<ele>396</ele>
					<time>0001-01-01T00:00:00Z</time>
				</trkpt>
				<trkpt lat="55.77675" lon="-3.03858">
					<ele>401</ele>
					<time>0001-01-01T00:00:00Z</time>
				</trkpt>
				<trkpt lat="55.77580" lon="-3.03808">
					<ele>403</ele>
					<time>0001-01-01T00:00:00Z</time>
				</trkpt>
				<trkpt lat="55.77449" lon="-3.03761">
					<ele>405</ele>
					<time>0001-01-01T00:00:00Z</time>
				</trkpt>
				<trkpt lat="55.77351" lon="-3.03729">
					<ele>405</ele>
					<time>0001-01-01T00:00:00Z</time>
				</trkpt>
				<trkpt lat="55.77227" lon="-3.03735">
					<ele>406</ele>
					<time>0001-01-01T00:00:00Z</time>
				</trkpt>
				<trkpt lat="55.77137" lon="-3.03824">
					<ele>406</ele>
					<time>0001-01-01T00:00:00Z</time>
				</trkpt>
				<trkpt lat="55.77045" lon="-3.03916">
					<ele>406</ele>
					<time>0001-01-01T00:00:00Z</time>
				</trkpt>
				<trkpt lat="55.76952" lon="-3.04011">
					<ele>407</ele>
					<time>0001-01-01T00:00:00Z</time>
				</trkpt>
				<trkpt lat="55.76839" lon="-3.04129">
					<ele>403</ele>
					<time>0001-01-01T00:00:00Z</time>
				</trkpt>
				<trkpt lat="55.76697" lon="-3.04276">
					<ele>397</ele>
					<time>0001-01-01T00:00:00Z</time>
				</trkpt>
				<trkpt lat="55.76689" lon="-3.04283">
					<ele>397</ele>
					<time>0001-01-01T00:00:00Z</time>
				</trkpt>
				<trkpt lat="55.76643" lon="-3.04283">
					<ele>395</ele>
					<time>0001-01-01T00:00:00Z</time>
				</trkpt>
				<trkpt lat="55.76503" lon="-3.04258">
					<ele>388</ele>
					<time>0001-01-01T00:00:00Z</time>
				</trkpt>
				<trkpt lat="55.76374" lon="-3.04287">
					<ele>383</ele>
					<time>0001-01-01T00:00:00Z</time>
				</trkpt>
				<trkpt lat="55.76254" lon="-3.04161">
					<ele>377</ele>
					<time>0001-01-01T00:00:00Z</time>
				</trkpt>
				<trkpt lat="55.76052" lon="-3.03971">
					<ele>369</ele>
					<time>0001-01-01T00:00:00Z</time>
				</trkpt>
				<trkpt lat="55.75978" lon="-3.03900">
					<ele>366</ele>
					<time>0001-01-01T00:00:00Z</time>
				</trkpt>
				<trkpt lat="55.75947" lon="-3.03849">
					<ele>364</ele>
					<time>0001-01-01T00:00:00Z</time>
				</trkpt>
				<trkpt lat="55.75795" lon="-3.03539">
					<ele>354</ele>
					<time>0001-01-01T00:00:00Z</time>
				</trkpt>
				<trkpt lat="55.75668" lon="-3.03474">
					<ele>349</ele>
					<time>0001-01-01T00:00:00Z</time>
				</trkpt>
				<trkpt lat="55.75460" lon="-3.03411">
					<ele>339</ele>
					<time>0001-01-01T00:00:00Z</time>
				</trkpt>
				<trkpt lat="55.75285" lon="-3.03342">
					<ele>332</ele>
					<time>0001-01-01T00:00:00Z</time>
				</trkpt>
				<trkpt lat="55.75160" lon="-3.03258">
					<ele>326</ele>
					<time>0001-01-01T00:00:00Z</time>
				</trkpt>
				<trkpt lat="55.75127" lon="-3.03211">
					<ele>324</ele>
					<time>0001-01-01T00:00:00Z</time>
				</trkpt>
				<trkpt lat="55.74936" lon="-3.03064">
					<ele>316</ele>
					<time>0001-01-01T00:00:00Z</time>
				</trkpt>
				<trkpt lat="55.74700" lon="-3.02906">
					<ele>307</ele>
					<time>0001-01-01T00:00:00Z</time>
				</trkpt>
				<trkpt lat="55.74542" lon="-3.02766">
					<ele>304</ele>
					<time>0001-01-01T00:00:00Z</time>
				</trkpt>
				<trkpt lat="55.74494" lon="-3.02760">
					<ele>303</ele>
					<time>0001-01-01T00:00:00Z</time>
				</trkpt>
				<trkpt lat="55.74321" lon="-3.02799">
					<ele>303</ele>
					<time>0001-01-01T00:00:00Z</time>
				</trkpt>
				<trkpt lat="55.74281" lon="-3.02808">
					<ele>305</ele>
					<time>0001-01-01T00:00:00Z</time>
				</trkpt>
				<trkpt lat="55.74242" lon="-3.02854">
					<ele>305</ele>
					<time>0001-01-01T00:00:00Z</time>
				</trkpt>
				<trkpt lat="55.74108" lon="-3.03131">
					<ele>302</ele>
					<time>0001-01-01T00:00:00Z</time>
				</trkpt>
				<trkpt lat="55.74030" lon="-3.03293">
					<ele>302</ele>
					<time>0001-01-01T00:00:00Z</time>
				</trkpt>
				<trkpt lat="55.73942" lon="-3.03422">
					<ele>304</ele>
					<time>0001-01-01T00:00:00Z</time>
				</trkpt>
				<trkpt lat="55.73799" lon="-3.03525">
					<ele>303</ele>
					<time>0001-01-01T00:00:00Z</time>
				</trkpt>
				<trkpt lat="55.73660" lon="-3.03562">
					<ele>304</ele>
					<time>0001-01-01T00:00:00Z</time>
				</trkpt>
				<trkpt lat="55.73526" lon="-3.03595">
					<ele>306</ele>
					<time>0001-01-01T00:00:00Z</time>
				</trkpt>
				<trkpt lat="55.73402" lon="-3.03625">
					<ele>307</ele>
					<time>0001-01-01T00:00:00Z</time>
				</trkpt>
				<trkpt lat="55.73286" lon="-3.03655">
					<ele>309</ele>
					<time>0001-01-01T00:00:00Z</time>
				</trkpt>
				<trkpt lat="55.73169" lon="-3.03685">
					<ele>312</ele>
					<time>0001-01-01T00:00:00Z</time>
				</trkpt>
				<trkpt lat="55.73058" lon="-3.03702">
					<ele>314</ele>
					<time>0001-01-01T00:00:00Z</time>
				</trkpt>
				<trkpt lat="55.72931" lon="-3.03709">
					<ele>317</ele>
					<time>0001-01-01T00:00:00Z</time>
				</trkpt>
				<trkpt lat="55.72790" lon="-3.03715">
					<ele>319</ele>
					<time>0001-01-01T00:00:00Z</time>
				</trkpt>
				<trkpt lat="55.72657" lon="-3.03721">
					<ele>322</ele>
					<time>0001-01-01T00:00:00Z</time>
				</trkpt>
				<trkpt lat="55.72548" lon="-3.03730">
					<ele>323</ele>
					<time>0001-01-01T00:00:00Z</time>
				</trkpt>
				<trkpt lat="55.72420" lon="-3.03743">
					<ele>325</ele>
					<time>0001-01-01T00:00:00Z</time>
				</trkpt>
				<trkpt lat="55.72321" lon="-3.03752">
					<ele>326</ele>
					<time>0001-01-01T00:00:00Z</time>
				</trkpt>
				<trkpt lat="55.72201" lon="-3.03762">
					<ele>329</ele>
					<time>0001-01-01T00:00:00Z</time>
				</trkpt>
				<trkpt lat="55.72089" lon="-3.03773">
					<ele>332</ele>
					<time>0001-01-01T00:00:00Z</time>
				</trkpt>
				<trkpt lat="55.71977" lon="-3.03787">
					<ele>335</ele>
					<time>0001-01-01T00:00:00Z</time>
				</trkpt>
				<trkpt lat="55.71871" lon="-3.03800">
					<ele>338</ele>
					<time>0001-01-01T00:00:00Z</time>
				</trkpt>
				<trkpt lat="55.71754" lon="-3.03814">
					<ele>341</ele>
					<time>0001-01-01T00:00:00Z</time>
				</trkpt>
				<trkpt lat="55.71640" lon="-3.03828">
					<ele>344</ele>
					<time>0001-01-01T00:00:00Z</time>
				</trkpt>
				<trkpt lat="55.71542" lon="-3.03840">
					<ele>350</ele>
					<time>0001-01-01T00:00:00Z</time>
				</trkpt>
				<trkpt lat="55.71439" lon="-3.03836">
					<ele>355</ele>
					<time>0001-01-01T00:00:00Z</time>
				</trkpt>
				<trkpt lat="55.71346" lon="-3.03807">
					<ele>358</ele>
					<time>0001-01-01T00:00:00Z</time>
				</trkpt>
				<trkpt lat="55.71268" lon="-3.03798">
					<ele>362</ele>
					<time>0001-01-01T00:00:00Z</time>
				</trkpt>
				<trkpt lat="55.71159" lon="-3.03792">
					<ele>367</ele>
					<time>0001-01-01T00:00:00Z</time>
				</trkpt>
				<trkpt lat="55.71053" lon="-3.03784">
					<ele>370</ele>
					<time>0001-01-01T00:00:00Z</time>
				</trkpt>
				<trkpt lat="55.70945" lon="-3.03787">
					<ele>370</ele>
					<time>0001-01-01T00:00:00Z</time>
				</trkpt>
				<trkpt lat="55.70821" lon="-3.03887">
					<ele>369</ele>
					<time>0001-01-01T00:00:00Z</time>
				</trkpt>
				<trkpt lat="55.70688" lon="-3.03986">
					<ele>367</ele>
					<time>0001-01-01T00:00:00Z</time>
				</trkpt>
				<trkpt lat="55.70569" lon="-3.03981">
					<ele>365</ele>
					<time>0001-01-01T00:00:00Z</time>
				</trkpt>
				<trkpt lat="55.70411" lon="-3.03977">
					<ele>361</ele>
					<time>0001-01-01T00:00:00Z</time>
				</trkpt>
				<trkpt lat="55.70249" lon="-3.04019">
					<ele>352</ele>
					<time>0001-01-01T00:00:00Z</time>
				</trkpt>
				<trkpt lat="55.70029" lon="-3.04058">
					<ele>343</ele>
					<time>0001-01-01T00:00:00Z</time>
				</trkpt>
				<trkpt lat="55.69906" lon="-3.04114">
					<ele>337</ele>
					<time>0001-01-01T00:00:00Z</time>
				</trkpt>
				<trkpt lat="55.69765" lon="-3.04176">
					<ele>333</ele>
					<time>0001-01-01T00:00:00Z</time>
				</trkpt>
				<trkpt lat="55.69579" lon="-3.04205">
					<ele>326</ele>
					<time>0001-01-01T00:00:00Z</time>
				</trkpt>
				<trkpt lat="55.69329" lon="-3.04295">
					<ele>314</ele>
					<time>0001-01-01T00:00:00Z</time>
				</trkpt>
				<trkpt lat="55.69102" lon="-3.04356">
					<ele>307</ele>
					<time>0001-01-01T00:00:00Z</time>
				</trkpt>
				<trkpt lat="55.68826" lon="-3.04393">
					<ele>296</ele>
					<time>0001-01-01T00:00:00Z</time>
				</trkpt>
				<trkpt lat="55.68609" lon="-3.04423">
					<ele>289</ele>
					<time>0001-01-01T00:00:00Z</time>
				</trkpt>
				<trkpt lat="55.68397" lon="-3.04571">
					<ele>286</ele>
					<time>0001-01-01T00:00:00Z</time>
				</trkpt>
				<trkpt lat="55.68207" lon="-3.04717">
					<ele>282</ele>
					<time>0001-01-01T00:00:00Z</time>
				</trkpt>
				<trkpt lat="55.68085" lon="-3.04959">
					<ele>273</ele>
					<time>0001-01-01T00:00:00Z</time>
				</trkpt>
				<trkpt lat="55.68046" lon="-3.05046">
					<ele>269</ele>
					<time>0001-01-01T00:00:00Z</time>
				</trkpt>
				<trkpt lat="55.68002" lon="-3.05173">
					<ele>266</ele>
					<time>0001-01-01T00:00:00Z</time>
				</trkpt>
				<trkpt lat="55.67952" lon="-3.05236">
					<ele>264</ele>
					<time>0001-01-01T00:00:00Z</time>
				</trkpt>
				<trkpt lat="55.67933" lon="-3.05247">
					<ele>264</ele>
					<time>0001-01-01T00:00:00Z</time>
				</trkpt>
				<trkpt lat="55.67779" lon="-3.05254">
					<ele>261</ele>
					<time>0001-01-01T00:00:00Z</time>
				</trkpt>
				<trkpt lat="55.67682" lon="-3.05287">
					<ele>260</ele>
					<time>0001-01-01T00:00:00Z</time>
				</trkpt>
				<trkpt lat="55.67588" lon="-3.05409">
					<ele>256</ele>
					<time>0001-01-01T00:00:00Z</time>
				</trkpt>
				<trkpt lat="55.67493" lon="-3.05662">
					<ele>252</ele>
					<time>0001-01-01T00:00:00Z</time>
				</trkpt>
				<trkpt lat="55.67442" lon="-3.05992">
					<ele>246</ele>
					<time>0001-01-01T00:00:00Z</time>
				</trkpt>
				<trkpt lat="55.67428" lon="-3.06324">
					<ele>238</ele>
					<time>0001-01-01T00:00:00Z</time>
				</trkpt>
				<trkpt lat="55.67396" lon="-3.06677">
					<ele>230</ele>
					<time>0001-01-01T00:00:00Z</time>
				</trkpt>
				<trkpt lat="55.67325" lon="-3.06824">
					<ele>228</ele>
					<time>0001-01-01T00:00:00Z</time>
				</trkpt>
				<trkpt lat="55.67298" lon="-3.06846">
					<ele>227</ele>
					<time>0001-01-01T00:00:00Z</time>
				</trkpt>
				<trkpt lat="55.67260" lon="-3.06860">
					<ele>227</ele>
					<time>0001-01-01T00:00:00Z</time>
				</trkpt>
				<trkpt lat="55.67222" lon="-3.06850">
					<ele>226</ele>
					<time>0001-01-01T00:00:00Z</time>
				</trkpt>
				<trkpt lat="55.67145" lon="-3.06813">
					<ele>226</ele>
					<time>0001-01-01T00:00:00Z</time>
				</trkpt>
				<trkpt lat="55.66961" lon="-3.06832">
					<ele>220</ele>
					<time>0001-01-01T00:00:00Z</time>
				</trkpt>
				<trkpt lat="55.66748" lon="-3.06599">
					<ele>221</ele>
					<time>0001-01-01T00:00:00Z</time>
				</trkpt>
				<trkpt lat="55.66591" lon="-3.06438">
					<ele>218</ele>
					<time>0001-01-01T00:00:00Z</time>
				</trkpt>
				<trkpt lat="55.66404" lon="-3.06341">
					<ele>214</ele>
					<time>0001-01-01T00:00:00Z</time>
				</trkpt>
				<trkpt lat="55.66215" lon="-3.06293">
					<ele>210</ele>
					<time>0001-01-01T00:00:00Z</time>
				</trkpt>
				<trkpt lat="55.66052" lon="-3.06289">
					<ele>206</ele>
					<time>0001-01-01T00:00:00Z</time>
				</trkpt>
				<trkpt lat="55.66042" lon="-3.06287">
					<ele>206</ele>
					<time>0001-01-01T00:00:00Z</time>
				</trkpt>
				<trkpt lat="55.65858" lon="-3.06164">
					<ele>204</ele>
					<time>0001-01-01T00:00:00Z</time>
				</trkpt>
				<trkpt lat="55.65678" lon="-3.06003">
					<ele>203</ele>
					<time>0001-01-01T00:00:00Z</time>
				</trkpt>
				<trkpt lat="55.65632" lon="-3.05995">
					<ele>204</ele>
					<time>0001-01-01T00:00:00Z</time>
				</trkpt>
				<trkpt lat="55.65420" lon="-3.06043">
					<ele>198</ele>
					<time>0001-01-01T00:00:00Z</time>
				</trkpt>
				<trkpt lat="55.65147" lon="-3.06076">
					<ele>190</ele>
					<time>0001-01-01T00:00:00Z</time>
				</trkpt>
				<trkpt lat="55.64990" lon="-3.06111">
					<ele>188</ele>
					<time>0001-01-01T00:00:00Z</time>
				</trkpt>
				<trkpt lat="55.64959" lon="-3.06143">
					<ele>188</ele>
					<time>0001-01-01T00:00:00Z</time>
				</trkpt>
				<trkpt lat="55.64848" lon="-3.06223">
					<ele>186</ele>
					<time>0001-01-01T00:00:00Z</time>
				</trkpt>
				<trkpt lat="55.64656" lon="-3.06272">
					<ele>183</ele>
					<time>0001-01-01T00:00:00Z</time>
				</trkpt>
				<trkpt lat="55.64639" lon="-3.06262">
					<ele>183</ele>
					<time>0001-01-01T00:00:00Z</time>
				</trkpt>
				<trkpt lat="55.64608" lon="-3.06222">
					<ele>184</ele>
					<time>0001-01-01T00:00:00Z</time>
				</trkpt>
				<trkpt lat="55.64498" lon="-3.06044">
					<ele>181</ele>
					<time>0001-01-01T00:00:00Z</time>
				</trkpt>
				<trkpt lat="55.64350" lon="-3.05880">
					<ele>179</ele>
					<time>0001-01-01T00:00:00Z</time>
				</trkpt>
				<trkpt lat="55.64193" lon="-3.05735">
					<ele>177</ele>
					<time>0001-01-01T00:00:00Z</time>
				</trkpt>
				<trkpt lat="55.64022" lon="-3.05653">
					<ele>175</ele>
					<time>0001-01-01T00:00:00Z</time>
				</trkpt>
				<trkpt lat="55.63848" lon="-3.05573">
					<ele>172</ele>
					<time>0001-01-01T00:00:00Z</time>
				</trkpt>
				<trkpt lat="55.63772" lon="-3.05631">
					<ele>172</ele>
					<time>0001-01-01T00:00:00Z</time>
				</trkpt>
				<trkpt lat="55.63743" lon="-3.05694">
					<ele>173</ele>
					<time>0001-01-01T00:00:00Z</time>
				</trkpt>
				<trkpt lat="55.63711" lon="-3.05705">
					<ele>173</ele>
					<time>0001-01-01T00:00:00Z</time>
				</trkpt>
				<trkpt lat="55.63599" lon="-3.05626">
					<ele>170</ele>
					<time>0001-01-01T00:00:00Z</time>
				</trkpt>
				<trkpt lat="55.63427" lon="-3.05554">
					<ele>169</ele>
					<time>0001-01-01T00:00:00Z</time>
				</trkpt>
				<trkpt lat="55.63385" lon="-3.05538">
					<ele>168</ele>
					<time>0001-01-01T00:00:00Z</time>
				</trkpt>
				<trkpt lat="55.63348" lon="-3.05539">
					<ele>167</ele>
					<time>0001-01-01T00:00:00Z</time>
				</trkpt>
				<trkpt lat="55.63129" lon="-3.05644">
					<ele>165</ele>
					<time>0001-01-01T00:00:00Z</time>
				</trkpt>
				<trkpt lat="55.62942" lon="-3.05749">
					<ele>161</ele>
					<time>0001-01-01T00:00:00Z</time>
				</trkpt>
				<trkpt lat="55.62783" lon="-3.05795">
					<ele>156</ele>
					<time>0001-01-01T00:00:00Z</time>
				</trkpt>
				<trkpt lat="55.62546" lon="-3.05917">
					<ele>154</ele>
					<time>0001-01-01T00:00:00Z</time>
				</trkpt>
				<trkpt lat="55.62370" lon="-3.06069">
					<ele>150</ele>
					<time>0001-01-01T00:00:00Z</time>
				</trkpt>
				<trkpt lat="55.62206" lon="-3.06162">
					<ele>148</ele>
					<time>0001-01-01T00:00:00Z</time>
				</trkpt>
				<trkpt lat="55.62053" lon="-3.06165">
					<ele>144</ele>
					<time>0001-01-01T00:00:00Z</time>
				</trkpt>
				<trkpt lat="55.61984" lon="-3.06168">
					<ele>142</ele>
					<time>0001-01-01T00:00:00Z</time>
				</trkpt>
				<trkpt lat="55.61979" lon="-3.06177">
					<ele>142</ele>
					<time>0001-01-01T00:00:00Z</time>
				</trkpt>
				<trkpt lat="55.61924" lon="-3.06313">
					<ele>144</ele>
					<time>0001-01-01T00:00:00Z</time>
				</trkpt>
				<trkpt lat="55.61851" lon="-3.06488">
					<ele>144</ele>
					<time>0001-01-01T00:00:00Z</time>
				</trkpt>
				<trkpt lat="55.61818" lon="-3.06567">
					<ele>143</ele>
					<time>0001-01-01T00:00:00Z</time>
				</trkpt>
				<trkpt lat="55.61786" lon="-3.06573">
					<ele>142</ele>
					<time>0001-01-01T00:00:00Z</time>
				</trkpt>
				<trkpt lat="55.61734" lon="-3.06566">
					<ele>140</ele>
					<time>0001-01-01T00:00:00Z</time>
				</trkpt>
				<trkpt lat="55.61659" lon="-3.06467">
					<ele>141</ele>
					<time>0001-01-01T00:00:00Z</time>
				</trkpt>
				<trkpt lat="55.61530" lon="-3.06280">
					<ele>140</ele>
					<time>0001-01-01T00:00:00Z</time>
				</trkpt>
				<trkpt lat="55.61383" lon="-3.06066">
					<ele>141</ele>
					<time>0001-01-01T00:00:00Z</time>
				</trkpt>
				<trkpt lat="55.61256" lon="-3.05909">
					<ele>142</ele>
					<time>0001-01-01T00:00:00Z</time>
				</trkpt>
				<trkpt lat="55.61128" lon="-3.05760">
					<ele>140</ele>
					<time>0001-01-01T00:00:00Z</time>
				</trkpt>
				<trkpt lat="55.61020" lon="-3.05652">
					<ele>142</ele>
					<time>0001-01-01T00:00:00Z</time>
				</trkpt>
				<trkpt lat="55.61006" lon="-3.05652">
					<ele>142</ele>
					<time>0001-01-01T00:00:00Z</time>
				</trkpt>
				<trkpt lat="55.60950" lon="-3.05734">
					<ele>148</ele>
					<time>0001-01-01T00:00:00Z</time>
				</trkpt>
				<trkpt lat="55.60920" lon="-3.05794">
					<ele>149</ele>
					<time>0001-01-01T00:00:00Z</time>
				</trkpt>
				<trkpt lat="55.60820" lon="-3.05948">
					<ele>148</ele>
					<time>0001-01-01T00:00:00Z</time>
				</trkpt>
				<trkpt lat="55.60691" lon="-3.06089">
					<ele>147</ele>
					<time>0001-01-01T00:00:00Z</time>
				</trkpt>
				<trkpt lat="55.60585" lon="-3.06134">
					<ele>149</ele>
					<time>0001-01-01T00:00:00Z</time>
				</trkpt>
				<trkpt lat="55.60426" lon="-3.06178">
					<ele>152</ele>
					<time>0001-01-01T00:00:00Z</time>
				</trkpt>
				<trkpt lat="55.60314" lon="-3.06208">
					<ele>155</ele>
					<time>0001-01-01T00:00:00Z</time>
				</trkpt>
				<trkpt lat="55.60251" lon="-3.06226">
					<ele>154</ele>
					<time>0001-01-01T00:00:00Z</time>
				</trkpt>
				<trkpt lat="55.60131" lon="-3.06350">
					<ele>154</ele>
					<time>0001-01-01T00:00:00Z</time>
				</trkpt>
				<trkpt lat="55.60110" lon="-3.06372">
					<ele>154</ele>
					<time>0001-01-01T00:00:00Z</time>
				</trkpt>
				<trkpt lat="55.60027" lon="-3.06431">
					<ele>157</ele>
					<time>0001-01-01T00:00:00Z</time>
				</trkpt>
				<trkpt lat="55.59935" lon="-3.06468">
					<ele>158</ele>
					<time>0001-01-01T00:00:00Z</time>
				</trkpt>
				<trkpt lat="55.59795" lon="-3.06568">
					<ele>158</ele>
					<time>0001-01-01T00:00:00Z</time>
				</trkpt>
				<trkpt lat="55.59768" lon="-3.06609">
					<ele>159</ele>
					<time>0001-01-01T00:00:00Z</time>
				</trkpt>
				<trkpt lat="55.59735" lon="-3.06728">
					<ele>161</ele>
					<time>0001-01-01T00:00:00Z</time>
				</trkpt>
				<trkpt lat="55.59735" lon="-3.06729">
					<ele>163</ele>
					<time>0001-01-01T00:00:00Z</time>
				</trkpt>
				<trkpt lat="55.59736" lon="-3.06729">
					<ele>162</ele>
					<time>0001-01-01T00:00:00Z</time>
				</trkpt>
				<trkpt lat="55.59736" lon="-3.06729">
					<ele>163</ele>
					<time>0001-01-01T00:00:00Z</time>
				</trkpt>
				<trkpt lat="55.59737" lon="-3.06738">
					<ele>160</ele>
					<time>0001-01-01T00:00:00Z</time>
				</trkpt>
				<trkpt lat="55.59736" lon="-3.06782">
					<ele>161</ele>
					<time>0001-01-01T00:00:00Z</time>
				</trkpt>
				<trkpt lat="55.59737" lon="-3.06888">
					<ele>162</ele>
					<time>0001-01-01T00:00:00Z</time>
				</trkpt>
				<trkpt lat="55.59730" lon="-3.06998">
					<ele>160</ele>
					<time>0001-01-01T00:00:00Z</time>
				</trkpt>
				<trkpt lat="55.59713" lon="-3.07044">
					<ele>159</ele>
					<time>0001-01-01T00:00:00Z</time>
				</trkpt>
				<trkpt lat="55.59637" lon="-3.07163">
					<ele>161</ele>
					<time>0001-01-01T00:00:00Z</time>
				</trkpt>
				<trkpt lat="55.59556" lon="-3.07296">
					<ele>163</ele>
					<time>0001-01-01T00:00:00Z</time>
				</trkpt>
				<trkpt lat="55.59431" lon="-3.07437">
					<ele>163</ele>
					<time>0001-01-01T00:00:00Z</time>
				</trkpt>
				<trkpt lat="55.59377" lon="-3.07553">
					<ele>166</ele>
					<time>0001-01-01T00:00:00Z</time>
				</trkpt>
				<trkpt lat="55.59359" lon="-3.07581">
					<ele>167</ele>
					<time>0001-01-01T00:00:00Z</time>
				</trkpt>
				<trkpt lat="55.59249" lon="-3.07679">
					<ele>170</ele>
					<time>0001-01-01T00:00:00Z</time>
				</trkpt>
				<trkpt lat="55.59166" lon="-3.07771">
					<ele>174</ele>
					<time>0001-01-01T00:00:00Z</time>
				</trkpt>
				<trkpt lat="55.59104" lon="-3.07861">
					<ele>177</ele>
					<time>0001-01-01T00:00:00Z</time>
				</trkpt>
				<trkpt lat="55.59044" lon="-3.07905">
					<ele>181</ele>
					<time>0001-01-01T00:00:00Z</time>
				</trkpt>
				<trkpt lat="55.58965" lon="-3.08008">
					<ele>183</ele>
					<time>0001-01-01T00:00:00Z</time>
				</trkpt>
				<trkpt lat="55.58917" lon="-3.08096">
					<ele>184</ele>
					<time>0001-01-01T00:00:00Z</time>
				</trkpt>
				<trkpt lat="55.58834" lon="-3.08163">
					<ele>183</ele>
					<time>0001-01-01T00:00:00Z</time>
				</trkpt>
				<trkpt lat="55.58726" lon="-3.08241">
					<ele>185</ele>
					<time>0001-01-01T00:00:00Z</time>
				</trkpt>
				<trkpt lat="55.58708" lon="-3.08254">
					<ele>185</ele>
					<time>0001-01-01T00:00:00Z</time>
				</trkpt>
				<trkpt lat="55.58681" lon="-3.08260">
					<ele>185</ele>
					<time>0001-01-01T00:00:00Z</time>
				</trkpt>
				<trkpt lat="55.58569" lon="-3.08301">
					<ele>187</ele>
					<time>0001-01-01T00:00:00Z</time>
				</trkpt>
				<trkpt lat="55.58442" lon="-3.08373">
					<ele>190</ele>
					<time>0001-01-01T00:00:00Z</time>
				</trkpt>
				<trkpt lat="55.58325" lon="-3.08441">
					<ele>192</ele>
					<time>0001-01-01T00:00:00Z</time>
				</trkpt>
				<trkpt lat="55.58229" lon="-3.08517">
					<ele>194</ele>
					<time>0001-01-01T00:00:00Z</time>
				</trkpt>
				<trkpt lat="55.58161" lon="-3.08572">
					<ele>197</ele>
					<time>0001-01-01T00:00:00Z</time>
				</trkpt>
				<trkpt lat="55.58127" lon="-3.08594">
					<ele>198</ele>
					<time>0001-01-01T00:00:00Z</time>
				</trkpt>
				<trkpt lat="55.58001" lon="-3.08627">
					<ele>201</ele>
					<time>0001-01-01T00:00:00Z</time>
				</trkpt>
				<trkpt lat="55.57869" lon="-3.08658">
					<ele>204</ele>
					<time>0001-01-01T00:00:00Z</time>
				</trkpt>
				<trkpt lat="55.57740" lon="-3.08687">
					<ele>209</ele>
					<time>0001-01-01T00:00:00Z</time>
				</trkpt>
				<trkpt lat="55.57650" lon="-3.08689">
					<ele>210</ele>
					<time>0001-01-01T00:00:00Z</time>
				</trkpt>
				<trkpt lat="55.57561" lon="-3.08684">
					<ele>212</ele>
					<time>0001-01-01T00:00:00Z</time>
				</trkpt>
				<trkpt lat="55.57480" lon="-3.08688">
					<ele>214</ele>
					<time>0001-01-01T00:00:00Z</time>
				</trkpt>
				<trkpt lat="55.57387" lon="-3.08714">
					<ele>217</ele>
					<time>0001-01-01T00:00:00Z</time>
				</trkpt>
				<trkpt lat="55.57356" lon="-3.08705">
					<ele>218</ele>
					<time>0001-01-01T00:00:00Z</time>
				</trkpt>
				<trkpt lat="55.57332" lon="-3.08709">
					<ele>219</ele>
					<time>0001-01-01T00:00:00Z</time>
				</trkpt>
				<trkpt lat="55.57257" lon="-3.08749">
					<ele>222</ele>
					<time>0001-01-01T00:00:00Z</time>
				</trkpt>
				<trkpt lat="55.57162" lon="-3.08796">
					<ele>227</ele>
					<time>0001-01-01T00:00:00Z</time>
				</trkpt>
				<trkpt lat="55.57082" lon="-3.08845">
					<ele>229</ele>
					<time>0001-01-01T00:00:00Z</time>
				</trkpt>
				<trkpt lat="55.57022" lon="-3.08862">
					<ele>232</ele>
					<time>0001-01-01T00:00:00Z</time>
				</trkpt>
				<trkpt lat="55.56992" lon="-3.08852">
					<ele>233</ele>
					<time>0001-01-01T00:00:00Z</time>
				</trkpt>
				<trkpt lat="55.56930" lon="-3.08789">
					<ele>234</ele>
					<time>0001-01-01T00:00:00Z</time>
				</trkpt>
				<trkpt lat="55.56912" lon="-3.08786">
					<ele>234</ele>
					<time>0001-01-01T00:00:00Z</time>
				</trkpt>
				<trkpt lat="55.56900" lon="-3.08793">
					<ele>235</ele>
					<time>0001-01-01T00:00:00Z</time>
				</trkpt>
				<trkpt lat="55.56803" lon="-3.08874">
					<ele>239</ele>
					<time>0001-01-01T00:00:00Z</time>
				</trkpt>
				<trkpt lat="55.56711" lon="-3.08914">
					<ele>245</ele>
					<time>0001-01-01T00:00:00Z</time>
				</trkpt>
				<trkpt lat="55.56652" lon="-3.08917">
					<ele>247</ele>
					<time>0001-01-01T00:00:00Z</time>
				</trkpt>
				<trkpt lat="55.56560" lon="-3.08922">
					<ele>251</ele>
					<time>0001-01-01T00:00:00Z</time>
				</trkpt>
				<trkpt lat="55.56442" lon="-3.08979">
					<ele>256</ele>
					<time>0001-01-01T00:00:00Z</time>
				</trkpt>
				<trkpt lat="55.56337" lon="-3.09026">
					<ele>261</ele>
					<time>0001-01-01T00:00:00Z</time>
				</trkpt>
				<trkpt lat="55.56230" lon="-3.09073">
					<ele>264</ele>
					<time>0001-01-01T00:00:00Z</time>
				</trkpt>
				<trkpt lat="55.56153" lon="-3.09080">
					<ele>269</ele>
					<time>0001-01-01T00:00:00Z</time>
				</trkpt>
				<trkpt lat="55.56092" lon="-3.09117">
					<ele>274</ele>
					<time>0001-01-01T00:00:00Z</time>
				</trkpt>
				<trkpt lat="55.56033" lon="-3.09147">
					<ele>278</ele>
					<time>0001-01-01T00:00:00Z</time>
				</trkpt>
				<trkpt lat="55.55957" lon="-3.09169">
					<ele>285</ele>
					<time>0001-01-01T00:00:00Z</time>
				</trkpt>
				<trkpt lat="55.55875" lon="-3.09191">
					<ele>294</ele>
					<time>0001-01-01T00:00:00Z</time>
				</trkpt>
				<trkpt lat="55.55786" lon="-3.09195">
					<ele>296</ele>
					<time>0001-01-01T00:00:00Z</time>
				</trkpt>
				<trkpt lat="55.55708" lon="-3.09204">
					<ele>302</ele>
					<time>0001-01-01T00:00:00Z</time>
				</trkpt>
				<trkpt lat="55.55631" lon="-3.09219">
					<ele>307</ele>
					<time>0001-01-01T00:00:00Z</time>
				</trkpt>
				<trkpt lat="55.55542" lon="-3.09223">
					<ele>312</ele>
					<time>0001-01-01T00:00:00Z</time>
				</trkpt>
				<trkpt lat="55.55453" lon="-3.09207">
					<ele>317</ele>
					<time>0001-01-01T00:00:00Z</time>
				</trkpt>
				<trkpt lat="55.55364" lon="-3.09168">
					<ele>320</ele>
					<time>0001-01-01T00:00:00Z</time>
				</trkpt>
				<trkpt lat="55.55294" lon="-3.09132">
					<ele>323</ele>
					<time>0001-01-01T00:00:00Z</time>
				</trkpt>
				<trkpt lat="55.55209" lon="-3.09087">
					<ele>327</ele>
					<time>0001-01-01T00:00:00Z</time>
				</trkpt>
				<trkpt lat="55.55135" lon="-3.09033">
					<ele>331</ele>
					<time>0001-01-01T00:00:00Z</time>
				</trkpt>
				<trkpt lat="55.55063" lon="-3.09018">
					<ele>335</ele>
					<time>0001-01-01T00:00:00Z</time>
				</trkpt>
				<trkpt lat="55.54988" lon="-3.08974">
					<ele>339</ele>
					<time>0001-01-01T00:00:00Z</time>
				</trkpt>
				<trkpt lat="55.54915" lon="-3.08966">
					<ele>342</ele>
					<time>0001-01-01T00:00:00Z</time>
				</trkpt>
				<trkpt lat="55.54872" lon="-3.08945">
					<ele>343</ele>
					<time>0001-01-01T00:00:00Z</time>
				</trkpt>
				<trkpt lat="55.54776" lon="-3.08969">
					<ele>347</ele>
					<time>0001-01-01T00:00:00Z</time>
				</trkpt>
				<trkpt lat="55.54715" lon="-3.08972">
					<ele>349</ele>
					<time>0001-01-01T00:00:00Z</time>
				</trkpt>
				<trkpt lat="55.54613" lon="-3.09033">
					<ele>353</ele>
					<time>0001-01-01T00:00:00Z</time>
				</trkpt>
				<trkpt lat="55.54539" lon="-3.09132">
					<ele>352</ele>
					<time>0001-01-01T00:00:00Z</time>
				</trkpt>
				<trkpt lat="55.54484" lon="-3.09282">
					<ele>350</ele>
					<time>0001-01-01T00:00:00Z</time>
				</trkpt>
				<trkpt lat="55.54393" lon="-3.09490">
					<ele>346</ele>
					<time>0001-01-01T00:00:00Z</time>
				</trkpt>
				<trkpt lat="55.54331" lon="-3.09667">
					<ele>343</ele>
					<time>0001-01-01T00:00:00Z</time>
				</trkpt>
				<trkpt lat="55.54247" lon="-3.09833">
					<ele>339</ele>
					<time>0001-01-01T00:00:00Z</time>
				</trkpt>
				<trkpt lat="55.54101" lon="-3.10005">
					<ele>333</ele>
					<time>0001-01-01T00:00:00Z</time>
				</trkpt>
				<trkpt lat="55.54022" lon="-3.10131">
					<ele>329</ele>
					<time>0001-01-01T00:00:00Z</time>
				</trkpt>
				<trkpt lat="55.53891" lon="-3.10307">
					<ele>325</ele>
					<time>0001-01-01T00:00:00Z</time>
				</trkpt>
				<trkpt lat="55.53793" lon="-3.10380">
					<ele>322</ele>
					<time>0001-01-01T00:00:00Z</time>
				</trkpt>
				<trkpt lat="55.53659" lon="-3.10399">
					<ele>320</ele>
					<time>0001-01-01T00:00:00Z</time>
				</trkpt>
				<trkpt lat="55.53527" lon="-3.10322">
					<ele>316</ele>
					<time>0001-01-01T00:00:00Z</time>
				</trkpt>
				<trkpt lat="55.53446" lon="-3.10233">
					<ele>313</ele>
					<time>0001-01-01T00:00:00Z</time>
				</trkpt>
				<trkpt lat="55.53409" lon="-3.10215">
					<ele>311</ele>
					<time>0001-01-01T00:00:00Z</time>
				</trkpt>
				<trkpt lat="55.53378" lon="-3.10166">
					<ele>310</ele>
					<time>0001-01-01T00:00:00Z</time>
				</trkpt>
				<trkpt lat="55.53363" lon="-3.10128">
					<ele>309</ele>
					<time>0001-01-01T00:00:00Z</time>
				</trkpt>
				<trkpt lat="55.53326" lon="-3.10087">
					<ele>308</ele>
					<time>0001-01-01T00:00:00Z</time>
				</trkpt>
				<trkpt lat="55.53189" lon="-3.09984">
					<ele>301</ele>
					<time>0001-01-01T00:00:00Z</time>
				</trkpt>
				<trkpt lat="55.53067" lon="-3.09830">
					<ele>298</ele>
					<time>0001-01-01T00:00:00Z</time>
				</trkpt>
				<trkpt lat="55.52954" lon="-3.09764">
					<ele>294</ele>
					<time>0001-01-01T00:00:00Z</time>
				</trkpt>
				<trkpt lat="55.52799" lon="-3.09680">
					<ele>286</ele>
					<time>0001-01-01T00:00:00Z</time>
				</trkpt>
				<trkpt lat="55.52750" lon="-3.09660">
					<ele>285</ele>
					<time>0001-01-01T00:00:00Z</time>
				</trkpt>
				<trkpt lat="55.52620" lon="-3.09700">
					<ele>282</ele>
					<time>0001-01-01T00:00:00Z</time>
				</trkpt>
				<trkpt lat="55.52511" lon="-3.09669">
					<ele>276</ele>
					<time>0001-01-01T00:00:00Z</time>
				</trkpt>
				<trkpt lat="55.52501" lon="-3.09667">
					<ele>275</ele>
					<time>0001-01-01T00:00:00Z</time>
				</trkpt>
				<trkpt lat="55.52482" lon="-3.09666">
					<ele>275</ele>
					<time>0001-01-01T00:00:00Z</time>
				</trkpt>
				<trkpt lat="55.52378" lon="-3.09598">
					<ele>274</ele>
					<time>0001-01-01T00:00:00Z</time>
				</trkpt>
				<trkpt lat="55.52283" lon="-3.09483">
					<ele>275</ele>
					<time>0001-01-01T00:00:00Z</time>
				</trkpt>
				<trkpt lat="55.52207" lon="-3.09323">
					<ele>275</ele>
					<time>0001-01-01T00:00:00Z</time>
				</trkpt>
				<trkpt lat="55.52124" lon="-3.09060">
					<ele>272</ele>
					<time>0001-01-01T00:00:00Z</time>
				</trkpt>
				<trkpt lat="55.52109" lon="-3.08978">
					<ele>270</ele>
					<time>0001-01-01T00:00:00Z</time>
				</trkpt>
				<trkpt lat="55.52052" lon="-3.08911">
					<ele>266</ele>
					<time>0001-01-01T00:00:00Z</time>
				</trkpt>
				<trkpt lat="55.51997" lon="-3.08978">
					<ele>262</ele>
					<time>0001-01-01T00:00:00Z</time>
				</trkpt>
				<trkpt lat="55.51951" lon="-3.09110">
					<ele>258</ele>
					<time>0001-01-01T00:00:00Z</time>
				</trkpt>
				<trkpt lat="55.51919" lon="-3.09152">
					<ele>256</ele>
					<time>0001-01-01T00:00:00Z</time>
				</trkpt>
				<trkpt lat="55.51809" lon="-3.09309">
					<ele>249</ele>
					<time>0001-01-01T00:00:00Z</time>
				</trkpt>
				<trkpt lat="55.51699" lon="-3.09451">
					<ele>242</ele>
					<time>0001-01-01T00:00:00Z</time>
				</trkpt>
				<trkpt lat="55.51668" lon="-3.09498">
					<ele>241</ele>
					<time>0001-01-01T00:00:00Z</time>
				</trkpt>
				<trkpt lat="55.51610" lon="-3.09562">
					<ele>239</ele>
					<time>0001-01-01T00:00:00Z</time>
				</trkpt>
				<trkpt lat="55.51599" lon="-3.09589">
					<ele>239</ele>
					<time>0001-01-01T00:00:00Z</time>
				</trkpt>
				<trkpt lat="55.51584" lon="-3.09635">
					<ele>238</ele>
					<time>0001-01-01T00:00:00Z</time>
				</trkpt>
				<trkpt lat="55.51558" lon="-3.09686">
					<ele>238</ele>
					<time>0001-01-01T00:00:00Z</time>
				</trkpt>
				<trkpt lat="55.51423" lon="-3.09761">
					<ele>230</ele>
					<time>0001-01-01T00:00:00Z</time>
				</trkpt>
				<trkpt lat="55.51320" lon="-3.09728">
					<ele>228</ele>
					<time>0001-01-01T00:00:00Z</time>
				</trkpt>
				<trkpt lat="55.51243" lon="-3.09701">
					<ele>227</ele>
					<time>0001-01-01T00:00:00Z</time>
				</trkpt>
				<trkpt lat="55.51136" lon="-3.09659">
					<ele>230</ele>
					<time>0001-01-01T00:00:00Z</time>
				</trkpt>
				<trkpt lat="55.51083" lon="-3.09677">
					<ele>229</ele>
					<time>0001-01-01T00:00:00Z</time>
				</trkpt>
				<trkpt lat="55.51019" lon="-3.09907">
					<ele>233</ele>
					<time>0001-01-01T00:00:00Z</time>
				</trkpt>
				<trkpt lat="55.50931" lon="-3.10095">
					<ele>235</ele>
					<time>0001-01-01T00:00:00Z</time>
				</trkpt>
				<trkpt lat="55.50835" lon="-3.10274">
					<ele>239</ele>
					<time>0001-01-01T00:00:00Z</time>
				</trkpt>
				<trkpt lat="55.50763" lon="-3.10420">
					<ele>244</ele>
					<time>0001-01-01T00:00:00Z</time>
				</trkpt>
				<trkpt lat="55.50719" lon="-3.10559">
					<ele>245</ele>
					<time>0001-01-01T00:00:00Z</time>
				</trkpt>
				<trkpt lat="55.50645" lon="-3.10734">
					<ele>248</ele>
					<time>0001-01-01T00:00:00Z</time>
				</trkpt>
				<trkpt lat="55.50639" lon="-3.10746">
					<ele>249</ele>
					<time>0001-01-01T00:00:00Z</time>
				</trkpt>
				<trkpt lat="55.50575" lon="-3.10877">
					<ele>252</ele>
					<time>0001-01-01T00:00:00Z</time>
				</trkpt>
				<trkpt lat="55.50493" lon="-3.11019">
					<ele>251</ele>
					<time>0001-01-01T00:00:00Z</time>
				</trkpt>
				<trkpt lat="55.50409" lon="-3.11142">
					<ele>252</ele>
					<time>0001-01-01T00:00:00Z</time>
				</trkpt>
				<trkpt lat="55.50325" lon="-3.11265">
					<ele>255</ele>
					<time>0001-01-01T00:00:00Z</time>
				</trkpt>
				<trkpt lat="55.50236" lon="-3.11316">
					<ele>260</ele>
					<time>0001-01-01T00:00:00Z</time>
				</trkpt>
				<trkpt lat="55.50133" lon="-3.11389">
					<ele>265</ele>
					<time>0001-01-01T00:00:00Z</time>
				</trkpt>
				<trkpt lat="55.50037" lon="-3.11481">
					<ele>270</ele>
					<time>0001-01-01T00:00:00Z</time>
				</trkpt>
				<trkpt lat="55.49988" lon="-3.11608">
					<ele>274</ele>
					<time>0001-01-01T00:00:00Z</time>
				</trkpt>
				<trkpt lat="55.49978" lon="-3.11632">
					<ele>274</ele>
					<time>0001-01-01T00:00:00Z</time>
				</trkpt>
				<trkpt lat="55.49908" lon="-3.11704">
					<ele>276</ele>
					<time>0001-01-01T00:00:00Z</time>
				</trkpt>
				<trkpt lat="55.49810" lon="-3.11764">
					<ele>279</ele>
					<time>0001-01-01T00:00:00Z</time>
				</trkpt>
				<trkpt lat="55.49726" lon="-3.11821">
					<ele>283</ele>
					<time>0001-01-01T00:00:00Z</time>
				</trkpt>
				<trkpt lat="55.49703" lon="-3.11836">
					<ele>283</ele>
					<time>0001-01-01T00:00:00Z</time>
				</trkpt>
				<trkpt lat="55.49629" lon="-3.11889">
					<ele>286</ele>
					<time>0001-01-01T00:00:00Z</time>
				</trkpt>
				<trkpt lat="55.49553" lon="-3.11926">
					<ele>289</ele>
					<time>0001-01-01T00:00:00Z</time>
				</trkpt>
				<trkpt lat="55.49476" lon="-3.11962">
					<ele>291</ele>
					<time>0001-01-01T00:00:00Z</time>
				</trkpt>
				<trkpt lat="55.49449" lon="-3.11976">
					<ele>292</ele>
					<time>0001-01-01T00:00:00Z</time>
				</trkpt>
				<trkpt lat="55.49361" lon="-3.12010">
					<ele>295</ele>
					<time>0001-01-01T00:00:00Z</time>
				</trkpt>
				<trkpt lat="55.49340" lon="-3.12017">
					<ele>296</ele>
					<time>0001-01-01T00:00:00Z</time>
				</trkpt>
				<trkpt lat="55.49324" lon="-3.12031">
					<ele>296</ele>
					<time>0001-01-01T00:00:00Z</time>
				</trkpt>
				<trkpt lat="55.49238" lon="-3.12142">
					<ele>300</ele>
					<time>0001-01-01T00:00:00Z</time>
				</trkpt>
				<trkpt lat="55.49174" lon="-3.12232">
					<ele>301</ele>
					<time>0001-01-01T00:00:00Z</time>
				</trkpt>
				<trkpt lat="55.49092" lon="-3.12370">
					<ele>301</ele>
					<time>0001-01-01T00:00:00Z</time>
				</trkpt>
				<trkpt lat="55.48993" lon="-3.12538">
					<ele>300</ele>
					<time>0001-01-01T00:00:00Z</time>
				</trkpt>
				<trkpt lat="55.48901" lon="-3.12655">
					<ele>301</ele>
					<time>0001-01-01T00:00:00Z</time>
				</trkpt>
				<trkpt lat="55.48809" lon="-3.12779">
					<ele>302</ele>
					<time>0001-01-01T00:00:00Z</time>
				</trkpt>
				<trkpt lat="55.48708" lon="-3.12912">
					<ele>302</ele>
					<time>0001-01-01T00:00:00Z</time>
				</trkpt>
				<trkpt lat="55.48605" lon="-3.13033">
					<ele>301</ele>
					<time>0001-01-01T00:00:00Z</time>
				</trkpt>
				<trkpt lat="55.48482" lon="-3.13162">
					<ele>301</ele>
					<time>0001-01-01T00:00:00Z</time>
				</trkpt>
				<trkpt lat="55.48397" lon="-3.13228">
					<ele>305</ele>
					<time>0001-01-01T00:00:00Z</time>
				</trkpt>
				<trkpt lat="55.48310" lon="-3.13290">
					<ele>310</ele>
					<time>0001-01-01T00:00:00Z</time>
				</trkpt>
				<trkpt lat="55.48214" lon="-3.13364">
					<ele>313</ele>
					<time>0001-01-01T00:00:00Z</time>
				</trkpt>
				<trkpt lat="55.48108" lon="-3.13411">
					<ele>316</ele>
					<time>0001-01-01T00:00:00Z</time>
				</trkpt>
				<trkpt lat="55.48043" lon="-3.13479">
					<ele>320</ele>
					<time>0001-01-01T00:00:00Z</time>
				</trkpt>
				<trkpt lat="55.47983" lon="-3.13570">
					<ele>323</ele>
					<time>0001-01-01T00:00:00Z</time>
				</trkpt>
				<trkpt lat="55.47905" lon="-3.13677">
					<ele>327</ele>
					<time>0001-01-01T00:00:00Z</time>
				</trkpt>
				<trkpt lat="55.47822" lon="-3.13762">
					<ele>330</ele>
					<time>0001-01-01T00:00:00Z</time>
				</trkpt>
				<trkpt lat="55.47750" lon="-3.13791">
					<ele>333</ele>
					<time>0001-01-01T00:00:00Z</time>
				</trkpt>
				<trkpt lat="55.47680" lon="-3.13877">
					<ele>335</ele>
					<time>0001-01-01T00:00:00Z</time>
				</trkpt>
				<trkpt lat="55.47622" lon="-3.13988">
					<ele>338</ele>
					<time>0001-01-01T00:00:00Z</time>
				</trkpt>
				<trkpt lat="55.47555" lon="-3.14098">
					<ele>345</ele>
					<time>0001-01-01T00:00:00Z</time>
				</trkpt>
				<trkpt lat="55.47475" lon="-3.14203">
					<ele>344</ele>
					<time>0001-01-01T00:00:00Z</time>
				</trkpt>
				<trkpt lat="55.47365" lon="-3.14321">
					<ele>347</ele>
					<time>0001-01-01T00:00:00Z</time>
				</trkpt>
				<trkpt lat="55.47275" lon="-3.14407">
					<ele>350</ele>
					<time>0001-01-01T00:00:00Z</time>
				</trkpt>
				<trkpt lat="55.47202" lon="-3.14486">
					<ele>354</ele>
					<time>0001-01-01T00:00:00Z</time>
				</trkpt>
				<trkpt lat="55.47131" lon="-3.14580">
					<ele>359</ele>
					<time>0001-01-01T00:00:00Z</time>
				</trkpt>
				<trkpt lat="55.47053" lon="-3.14671">
					<ele>363</ele>
					<time>0001-01-01T00:00:00Z</time>
				</trkpt>
				<trkpt lat="55.46978" lon="-3.14761">
					<ele>370</ele>
					<time>0001-01-01T00:00:00Z</time>
				</trkpt>
				<trkpt lat="55.46961" lon="-3.14769">
					<ele>371</ele>
					<time>0001-01-01T00:00:00Z</time>
				</trkpt>
				<trkpt lat="55.46945" lon="-3.14763">
					<ele>371</ele>
					<time>0001-01-01T00:00:00Z</time>
				</trkpt>
				<trkpt lat="55.46924" lon="-3.14734">
					<ele>371</ele>
					<time>0001-01-01T00:00:00Z</time>
				</trkpt>
				<trkpt lat="55.46916" lon="-3.14710">
					<ele>372</ele>
					<time>0001-01-01T00:00:00Z</time>
				</trkpt>
				<trkpt lat="55.46885" lon="-3.14517">
					<ele>367</ele>
					<time>0001-01-01T00:00:00Z</time>
				</trkpt>
				<trkpt lat="55.46860" lon="-3.14240">
					<ele>359</ele>
					<time>0001-01-01T00:00:00Z</time>
				</trkpt>
				<trkpt lat="55.46852" lon="-3.14186">
					<ele>358</ele>
					<time>0001-01-01T00:00:00Z</time>
				</trkpt>
				<trkpt lat="55.46851" lon="-3.14089">
					<ele>354</ele>
					<time>0001-01-01T00:00:00Z</time>
				</trkpt>
				<trkpt lat="55.46825" lon="-3.13941">
					<ele>350</ele>
					<time>0001-01-01T00:00:00Z</time>
				</trkpt>
				<trkpt lat="55.46799" lon="-3.13880">
					<ele>348</ele>
					<time>0001-01-01T00:00:00Z</time>
				</trkpt>
				<trkpt lat="55.46700" lon="-3.13731">
					<ele>342</ele>
					<time>0001-01-01T00:00:00Z</time>
				</trkpt>
				<trkpt lat="55.46657" lon="-3.13585">
					<ele>337</ele>
					<time>0001-01-01T00:00:00Z</time>
				</trkpt>
				<trkpt lat="55.46610" lon="-3.13339">
					<ele>328</ele>
					<time>0001-01-01T00:00:00Z</time>
				</trkpt>
				<trkpt lat="55.46590" lon="-3.13244">
					<ele>325</ele>
					<time>0001-01-01T00:00:00Z</time>
				</trkpt>
				<trkpt lat="55.46581" lon="-3.12982">
					<ele>320</ele>
					<time>0001-01-01T00:00:00Z</time>
				</trkpt>
				<trkpt lat="55.46581" lon="-3.12897">
					<ele>319</ele>
					<time>0001-01-01T00:00:00Z</time>
				</trkpt>
				<trkpt lat="55.46546" lon="-3.12809">
					<ele>317</ele>
					<time>0001-01-01T00:00:00Z</time>
				</trkpt>
				<trkpt lat="55.46422" lon="-3.12642">
					<ele>312</ele>
					<time>0001-01-01T00:00:00Z</time>
				</trkpt>
				<trkpt lat="55.46415" lon="-3.12628">
					<ele>312</ele>
					<time>0001-01-01T00:00:00Z</time>
				</trkpt>
				<trkpt lat="55.46394" lon="-3.12563">
					<ele>310</ele>
					<time>0001-01-01T00:00:00Z</time>
				</trkpt>
				<trkpt lat="55.46360" lon="-3.12493">
					<ele>306</ele>
					<time>0001-01-01T00:00:00Z</time>
				</trkpt>
				<trkpt lat="55.46321" lon="-3.12453">
					<ele>303</ele>
					<time>0001-01-01T00:00:00Z</time>
				</trkpt>
				<trkpt lat="55.46295" lon="-3.12388">
					<ele>300</ele>
					<time>0001-01-01T00:00:00Z</time>
				</trkpt>
				<trkpt lat="55.46216" lon="-3.12191">
					<ele>293</ele>
					<time>0001-01-01T00:00:00Z</time>
				</trkpt>
				<trkpt lat="55.46165" lon="-3.12054">
					<ele>289</ele>
					<time>0001-01-01T00:00:00Z</time>
				</trkpt>
				<trkpt lat="55.46114" lon="-3.11836">
					<ele>282</ele>
					<time>0001-01-01T00:00:00Z</time>
				</trkpt>
				<trkpt lat="55.46083" lon="-3.11719">
					<ele>276</ele>
					<time>0001-01-01T00:00:00Z</time>
				</trkpt>
				<trkpt lat="55.45993" lon="-3.11537">
					<ele>273</ele>
					<time>0001-01-01T00:00:00Z</time>
				</trkpt>
				<trkpt lat="55.45971" lon="-3.11490">
					<ele>272</ele>
					<time>0001-01-01T00:00:00Z</time>
				</trkpt>
				<trkpt lat="55.45933" lon="-3.11444">
					<ele>269</ele>
					<time>0001-01-01T00:00:00Z</time>
				</trkpt>
				<trkpt lat="55.45912" lon="-3.11427">
					<ele>268</ele>
					<time>0001-01-01T00:00:00Z</time>
				</trkpt>
				<trkpt lat="55.45811" lon="-3.11379">
					<ele>263</ele>
					<time>0001-01-01T00:00:00Z</time>
				</trkpt>
				<trkpt lat="55.45713" lon="-3.11263">
					<ele>256</ele>
					<time>0001-01-01T00:00:00Z</time>
				</trkpt>
				<trkpt lat="55.45586" lon="-3.11095">
					<ele>249</ele>
					<time>0001-01-01T00:00:00Z</time>
				</trkpt>
				<trkpt lat="55.45506" lon="-3.10925">
					<ele>248</ele>
					<time>0001-01-01T00:00:00Z</time>
				</trkpt>
				<trkpt lat="55.45467" lon="-3.10788">
					<ele>248</ele>
					<time>0001-01-01T00:00:00Z</time>
				</trkpt>
				<trkpt lat="55.45466" lon="-3.10721">
					<ele>247</ele>
					<time>0001-01-01T00:00:00Z</time>
				</trkpt>
				<trkpt lat="55.45487" lon="-3.10420">
					<ele>237</ele>
					<time>0001-01-01T00:00:00Z</time>
				</trkpt>
				<trkpt lat="55.45526" lon="-3.10286">
					<ele>233</ele>
					<time>0001-01-01T00:00:00Z</time>
				</trkpt>
				<trkpt lat="55.45540" lon="-3.10154">
					<ele>230</ele>
					<time>0001-01-01T00:00:00Z</time>
				</trkpt>
				<trkpt lat="55.45519" lon="-3.10058">
					<ele>231</ele>
					<time>0001-01-01T00:00:00Z</time>
				</trkpt>
				<trkpt lat="55.45495" lon="-3.10014">
					<ele>231</ele>
					<time>0001-01-01T00:00:00Z</time>
				</trkpt>
				<trkpt lat="55.45472" lon="-3.10013">
					<ele>231</ele>
					<time>0001-01-01T00:00:00Z</time>
				</trkpt>
				<trkpt lat="55.45434" lon="-3.10055">
					<ele>233</ele>
					<time>0001-01-01T00:00:00Z</time>
				</trkpt>
				<trkpt lat="55.45345" lon="-3.10110">
					<ele>233</ele>
					<time>0001-01-01T00:00:00Z</time>
				</trkpt>
				<trkpt lat="55.45223" lon="-3.10195">
					<ele>234</ele>
					<time>0001-01-01T00:00:00Z</time>
				</trkpt>
				<trkpt lat="55.45087" lon="-3.10283">
					<ele>236</ele>
					<time>0001-01-01T00:00:00Z</time>
				</trkpt>
				<trkpt lat="55.44963" lon="-3.10322">
					<ele>232</ele>
					<time>0001-01-01T00:00:00Z</time>
				</trkpt>
				<trkpt lat="55.44916" lon="-3.10304">
					<ele>230</ele>
					<time>0001-01-01T00:00:00Z</time>
				</trkpt>
				<trkpt lat="55.44877" lon="-3.10323">
					<ele>228</ele>
					<time>0001-01-01T00:00:00Z</time>
				</trkpt>
				<trkpt lat="55.44862" lon="-3.10341">
					<ele>227</ele>
					<time>0001-01-01T00:00:00Z</time>
				</trkpt>
				<trkpt lat="55.44826" lon="-3.10358">
					<ele>226</ele>
					<time>0001-01-01T00:00:00Z</time>
				</trkpt>
				<trkpt lat="55.44717" lon="-3.10429">
					<ele>222</ele>
					<time>0001-01-01T00:00:00Z</time>
				</trkpt>
				<trkpt lat="55.44597" lon="-3.10475">
					<ele>224</ele>
					<time>0001-01-01T00:00:00Z</time>
				</trkpt>
				<trkpt lat="55.44490" lon="-3.10454">
					<ele>227</ele>
					<time>0001-01-01T00:00:00Z</time>
				</trkpt>
				<trkpt lat="55.44435" lon="-3.10437">
					<ele>229</ele>
					<time>0001-01-01T00:00:00Z</time>
				</trkpt>
				<trkpt lat="55.44420" lon="-3.10436">
					<ele>229</ele>
					<time>0001-01-01T00:00:00Z</time>
				</trkpt>
				<trkpt lat="55.44348" lon="-3.10492">
					<ele>232</ele>
					<time>0001-01-01T00:00:00Z</time>
				</trkpt>
				<trkpt lat="55.44255" lon="-3.10610">
					<ele>237</ele>
					<time>0001-01-01T00:00:00Z</time>
				</trkpt>
				<trkpt lat="55.44049" lon="-3.10775">
					<ele>234</ele>
					<time>0001-01-01T00:00:00Z</time>
				</trkpt>
				<trkpt lat="55.43982" lon="-3.10914">
					<ele>231</ele>
					<time>0001-01-01T00:00:00Z</time>
				</trkpt>
				<trkpt lat="55.43900" lon="-3.11081">
					<ele>229</ele>
					<time>0001-01-01T00:00:00Z</time>
				</trkpt>
				<trkpt lat="55.43821" lon="-3.11255">
					<ele>227</ele>
					<time>0001-01-01T00:00:00Z</time>
				</trkpt>
				<trkpt lat="55.43734" lon="-3.11457">
					<ele>228</ele>
					<time>0001-01-01T00:00:00Z</time>
				</trkpt>
				<trkpt lat="55.43666" lon="-3.11617">
					<ele>231</ele>
					<time>0001-01-01T00:00:00Z</time>
				</trkpt>
				<trkpt lat="55.43611" lon="-3.11734">
					<ele>229</ele>
					<time>0001-01-01T00:00:00Z</time>
				</trkpt>
				<trkpt lat="55.43534" lon="-3.11875">
					<ele>231</ele>
					<time>0001-01-01T00:00:00Z</time>
				</trkpt>
				<trkpt lat="55.43467" lon="-3.12051">
					<ele>233</ele>
					<time>0001-01-01T00:00:00Z</time>
				</trkpt>
				<trkpt lat="55.43297" lon="-3.12353">
					<ele>236</ele>
					<time>0001-01-01T00:00:00Z</time>
				</trkpt>
				<trkpt lat="55.43287" lon="-3.12370">
					<ele>236</ele>
					<time>0001-01-01T00:00:00Z</time>
				</trkpt>
				<trkpt lat="55.43169" lon="-3.12669">
					<ele>235</ele>
					<time>0001-01-01T00:00:00Z</time>
				</trkpt>
				<trkpt lat="55.43098" lon="-3.12818">
					<ele>235</ele>
					<time>0001-01-01T00:00:00Z</time>
				</trkpt>
				<trkpt lat="55.42935" lon="-3.13023">
					<ele>235</ele>
					<time>0001-01-01T00:00:00Z</time>
				</trkpt>
				<trkpt lat="55.42915" lon="-3.13042">
					<ele>234</ele>
					<time>0001-01-01T00:00:00Z</time>
				</trkpt>
				<trkpt lat="55.42826" lon="-3.13190">
					<ele>233</ele>
					<time>0001-01-01T00:00:00Z</time>
				</trkpt>
				<trkpt lat="55.42509" lon="-3.13538">
					<ele>230</ele>
					<time>0001-01-01T00:00:00Z</time>
				</trkpt>
				<trkpt lat="55.42464" lon="-3.13589">
					<ele>230</ele>
					<time>0001-01-01T00:00:00Z</time>
				</trkpt>
				<trkpt lat="55.42444" lon="-3.13620">
					<ele>230</ele>
					<time>0001-01-01T00:00:00Z</time>
				</trkpt>
				<trkpt lat="55.42240" lon="-3.13990">
					<ele>230</ele>
					<time>0001-01-01T00:00:00Z</time>
				</trkpt>
				<trkpt lat="55.42143" lon="-3.14125">
					<ele>232</ele>
					<time>0001-01-01T00:00:00Z</time>
				</trkpt>
				<trkpt lat="55.42098" lon="-3.14284">
					<ele>232</ele>
					<time>0001-01-01T00:00:00Z</time>
				</trkpt>
				<trkpt lat="55.42037" lon="-3.14482">
					<ele>235</ele>
					<time>0001-01-01T00:00:00Z</time>
				</trkpt>
				<trkpt lat="55.41922" lon="-3.14898">
					<ele>237</ele>
					<time>0001-01-01T00:00:00Z</time>
				</trkpt>
				<trkpt lat="55.41887" lon="-3.15021">
					<ele>236</ele>
					<time>0001-01-01T00:00:00Z</time>
				</trkpt>
				<trkpt lat="55.41859" lon="-3.15046">
					<ele>233</ele>
					<time>0001-01-01T00:00:00Z</time>
				</trkpt>
				<trkpt lat="55.41756" lon="-3.15003">
					<ele>231</ele>
					<time>0001-01-01T00:00:00Z</time>
				</trkpt>
				<trkpt lat="55.41724" lon="-3.14962">
					<ele>231</ele>
					<time>0001-01-01T00:00:00Z</time>
				</trkpt>
				<trkpt lat="55.41643" lon="-3.14782">
					<ele>232</ele>
					<time>0001-01-01T00:00:00Z</time>
				</trkpt>
				<trkpt lat="55.41538" lon="-3.14631">
					<ele>230</ele>
					<time>0001-01-01T00:00:00Z</time>
				</trkpt>
				<trkpt lat="55.41449" lon="-3.14458">
					<ele>233</ele>
					<time>0001-01-01T00:00:00Z</time>
				</trkpt>
				<trkpt lat="55.41371" lon="-3.14282">
					<ele>236</ele>
					<time>0001-01-01T00:00:00Z</time>
				</trkpt>
				<trkpt lat="55.41273" lon="-3.14229">
					<ele>236</ele>
					<time>0001-01-01T00:00:00Z</time>
				</trkpt>
				<trkpt lat="55.41165" lon="-3.14186">
					<ele>235</ele>
					<time>0001-01-01T00:00:00Z</time>
				</trkpt>
				<trkpt lat="55.41069" lon="-3.14130">
					<ele>236</ele>
					<time>0001-01-01T00:00:00Z</time>
				</trkpt>
				<trkpt lat="55.40952" lon="-3.14074">
					<ele>236</ele>
					<time>0001-01-01T00:00:00Z</time>
				</trkpt>
				<trkpt lat="55.40816" lon="-3.14021">
					<ele>238</ele>
					<time>0001-01-01T00:00:00Z</time>
				</trkpt>
				<trkpt lat="55.40731" lon="-3.13977">
					<ele>238</ele>
					<time>0001-01-01T00:00:00Z</time>
				</trkpt>
				<trkpt lat="55.40672" lon="-3.13927">
					<ele>237</ele>
					<time>0001-01-01T00:00:00Z</time>
				</trkpt>
				<trkpt lat="55.40556" lon="-3.13889">
					<ele>238</ele>
					<time>0001-01-01T00:00:00Z</time>
				</trkpt>
				<trkpt lat="55.40450" lon="-3.13843">
					<ele>240</ele>
					<time>0001-01-01T00:00:00Z</time>
				</trkpt>
				<trkpt lat="55.40392" lon="-3.13794">
					<ele>240</ele>
					<time>0001-01-01T00:00:00Z</time>
				</trkpt>
				<trkpt lat="55.40391" lon="-3.13791">
					<ele>244</ele>
					<time>0001-01-01T00:00:00Z</time>
				</trkpt>
				<trkpt lat="55.40367" lon="-3.13772">
					<ele>244</ele>
					<time>0001-01-01T00:00:00Z</time>
				</trkpt>
				<trkpt lat="55.40308" lon="-3.13731">
					<ele>245</ele>
					<time>0001-01-01T00:00:00Z</time>
				</trkpt>
				<trkpt lat="55.40225" lon="-3.13670">
					<ele>246</ele>
					<time>0001-01-01T00:00:00Z</time>
				</trkpt>
				<trkpt lat="55.40132" lon="-3.13505">
					<ele>248</ele>
					<time>0001-01-01T00:00:00Z</time>
				</trkpt>
				<trkpt lat="55.40039" lon="-3.13387">
					<ele>250</ele>
					<time>0001-01-01T00:00:00Z</time>
				</trkpt>
				<trkpt lat="55.39949" lon="-3.13383">
					<ele>250</ele>
					<time>0001-01-01T00:00:00Z</time>
				</trkpt>
				<trkpt lat="55.39801" lon="-3.13396">
					<ele>254</ele>
					<time>0001-01-01T00:00:00Z</time>
				</trkpt>
				<trkpt lat="55.39685" lon="-3.13416">
					<ele>256</ele>
					<time>0001-01-01T00:00:00Z</time>
				</trkpt>
				<trkpt lat="55.39578" lon="-3.13525">
					<ele>259</ele>
					<time>0001-01-01T00:00:00Z</time>
				</trkpt>
				<trkpt lat="55.39569" lon="-3.13538">
					<ele>259</ele>
					<time>0001-01-01T00:00:00Z</time>
				</trkpt>
				<trkpt lat="55.39558" lon="-3.13560">
					<ele>260</ele>
					<time>0001-01-01T00:00:00Z</time>
				</trkpt>
				<trkpt lat="55.39528" lon="-3.13738">
					<ele>261</ele>
					<time>0001-01-01T00:00:00Z</time>
				</trkpt>
				<trkpt lat="55.39511" lon="-3.13807">
					<ele>261</ele>
					<time>0001-01-01T00:00:00Z</time>
				</trkpt>
				<trkpt lat="55.39440" lon="-3.13953">
					<ele>263</ele>
					<time>0001-01-01T00:00:00Z</time>
				</trkpt>
				<trkpt lat="55.39360" lon="-3.14032">
					<ele>264</ele>
					<time>0001-01-01T00:00:00Z</time>
				</trkpt>
				<trkpt lat="55.39250" lon="-3.14121">
					<ele>265</ele>
					<time>0001-01-01T00:00:00Z</time>
				</trkpt>
				<trkpt lat="55.39144" lon="-3.14124">
					<ele>266</ele>
					<time>0001-01-01T00:00:00Z</time>
				</trkpt>
				<trkpt lat="55.39014" lon="-3.14074">
					<ele>266</ele>
					<time>0001-01-01T00:00:00Z</time>
				</trkpt>
				<trkpt lat="55.38987" lon="-3.14059">
					<ele>267</ele>
					<time>0001-01-01T00:00:00Z</time>
				</trkpt>
				<trkpt lat="55.38911" lon="-3.13953">
					<ele>271</ele>
					<time>0001-01-01T00:00:00Z</time>
				</trkpt>
				<trkpt lat="55.38818" lon="-3.13836">
					<ele>272</ele>
					<time>0001-01-01T00:00:00Z</time>
				</trkpt>
				<trkpt lat="55.38773" lon="-3.13796">
					<ele>272</ele>
					<time>0001-01-01T00:00:00Z</time>
				</trkpt>
				<trkpt lat="55.38754" lon="-3.13761">
					<ele>272</ele>
					<time>0001-01-01T00:00:00Z</time>
				</trkpt>
				<trkpt lat="55.38668" lon="-3.13561">
					<ele>275</ele>
					<time>0001-01-01T00:00:00Z</time>
				</trkpt>
				<trkpt lat="55.38570" lon="-3.13467">
					<ele>276</ele>
					<time>0001-01-01T00:00:00Z</time>
				</trkpt>
				<trkpt lat="55.38430" lon="-3.13424">
					<ele>276</ele>
					<time>0001-01-01T00:00:00Z</time>
				</trkpt>
				<trkpt lat="55.38290" lon="-3.13387">
					<ele>279</ele>
					<time>0001-01-01T00:00:00Z</time>
				</trkpt>
				<trkpt lat="55.38227" lon="-3.13389">
					<ele>281</ele>
					<time>0001-01-01T00:00:00Z</time>
				</trkpt>
				<trkpt lat="55.38150" lon="-3.13454">
					<ele>280</ele>
					<time>0001-01-01T00:00:00Z</time>
				</trkpt>
				<trkpt lat="55.38121" lon="-3.13529">
					<ele>278</ele>
					<time>0001-01-01T00:00:00Z</time>
				</trkpt>
				<trkpt lat="55.38108" lon="-3.13583">
					<ele>278</ele>
					<time>0001-01-01T00:00:00Z</time>
				</trkpt>
				<trkpt lat="55.38036" lon="-3.13671">
					<ele>279</ele>
					<time>0001-01-01T00:00:00Z</time>
				</trkpt>
				<trkpt lat="55.37948" lon="-3.13759">
					<ele>284</ele>
					<time>0001-01-01T00:00:00Z</time>
				</trkpt>
				<trkpt lat="55.37876" lon="-3.13860">
					<ele>285</ele>
					<time>0001-01-01T00:00:00Z</time>
				</trkpt>
				<trkpt lat="55.37800" lon="-3.13988">
					<ele>287</ele>
					<time>0001-01-01T00:00:00Z</time>
				</trkpt>
				<trkpt lat="55.37723" lon="-3.14161">
					<ele>286</ele>
					<time>0001-01-01T00:00:00Z</time>
				</trkpt>
				<trkpt lat="55.37676" lon="-3.14273">
					<ele>286</ele>
					<time>0001-01-01T00:00:00Z</time>
				</trkpt>
				<trkpt lat="55.37640" lon="-3.14312">
					<ele>287</ele>
					<time>0001-01-01T00:00:00Z</time>
				</trkpt>
				<trkpt lat="55.37539" lon="-3.14345">
					<ele>288</ele>
					<time>0001-01-01T00:00:00Z</time>
				</trkpt>
				<trkpt lat="55.37534" lon="-3.14349">
					<ele>289</ele>
					<time>0001-01-01T00:00:00Z</time>
				</trkpt>
				<trkpt lat="55.37438" lon="-3.14495">
					<ele>293</ele>
					<time>0001-01-01T00:00:00Z</time>
				</trkpt>
				<trkpt lat="55.37360" lon="-3.14610">
					<ele>293</ele>
					<time>0001-01-01T00:00:00Z</time>
				</trkpt>
				<trkpt lat="55.37324" lon="-3.14653">
					<ele>294</ele>
					<time>0001-01-01T00:00:00Z</time>
				</trkpt>
				<trkpt lat="55.37301" lon="-3.14682">
					<ele>296</ele>
					<time>0001-01-01T00:00:00Z</time>
				</trkpt>
				<trkpt lat="55.37289" lon="-3.14693">
					<ele>296</ele>
					<time>0001-01-01T00:00:00Z</time>
				</trkpt>
				<trkpt lat="55.37289" lon="-3.14692">
					<ele>306</ele>
					<time>0001-01-01T00:00:00Z</time>
				</trkpt>
				<trkpt lat="55.37289" lon="-3.14697">
					<ele>293</ele>
					<time>0001-01-01T00:00:00Z</time>
				</trkpt>
				<trkpt lat="55.37295" lon="-3.14690">
					<ele>292</ele>
					<time>0001-01-01T00:00:00Z</time>
				</trkpt>
				<trkpt lat="55.37318" lon="-3.14664">
					<ele>293</ele>
					<time>0001-01-01T00:00:00Z</time>
				</trkpt>
				<trkpt lat="55.37343" lon="-3.14635">
					<ele>292</ele>
					<time>0001-01-01T00:00:00Z</time>
				</trkpt>
				<trkpt lat="55.37342" lon="-3.14632">
					<ele>292</ele>
					<time>0001-01-01T00:00:00Z</time>
				</trkpt>
				<trkpt lat="55.37342" lon="-3.14632">
					<ele>293</ele>
					<time>0001-01-01T00:00:00Z</time>
				</trkpt>
				<trkpt lat="55.37301" lon="-3.14683">
					<ele>294</ele>
					<time>0001-01-01T00:00:00Z</time>
				</trkpt>
				<trkpt lat="55.37269" lon="-3.14710">
					<ele>295</ele>
					<time>0001-01-01T00:00:00Z</time>
				</trkpt>
				<trkpt lat="55.37186" lon="-3.14777">
					<ele>296</ele>
					<time>0001-01-01T00:00:00Z</time>
				</trkpt>
				<trkpt lat="55.37081" lon="-3.14862">
					<ele>299</ele>
					<time>0001-01-01T00:00:00Z</time>
				</trkpt>
				<trkpt lat="55.36984" lon="-3.14963">
					<ele>303</ele>
					<time>0001-01-01T00:00:00Z</time>
				</trkpt>
				<trkpt lat="55.36902" lon="-3.15047">
					<ele>304</ele>
					<time>0001-01-01T00:00:00Z</time>
				</trkpt>
				<trkpt lat="55.36823" lon="-3.15165">
					<ele>307</ele>
					<time>0001-01-01T00:00:00Z</time>
				</trkpt>
				<trkpt lat="55.36783" lon="-3.15341">
					<ele>306</ele>
					<time>0001-01-01T00:00:00Z</time>
				</trkpt>
				<trkpt lat="55.36724" lon="-3.15518">
					<ele>309</ele>
					<time>0001-01-01T00:00:00Z</time>
				</trkpt>
				<trkpt lat="55.36661" lon="-3.15651">
					<ele>313</ele>
					<time>0001-01-01T00:00:00Z</time>
				</trkpt>
				<trkpt lat="55.36624" lon="-3.15793">
					<ele>315</ele>
					<time>0001-01-01T00:00:00Z</time>
				</trkpt>
				<trkpt lat="55.36532" lon="-3.15993">
					<ele>313</ele>
					<time>0001-01-01T00:00:00Z</time>
				</trkpt>
				<trkpt lat="55.36454" lon="-3.16169">
					<ele>311</ele>
					<time>0001-01-01T00:00:00Z</time>
				</trkpt>
				<trkpt lat="55.36384" lon="-3.16322">
					<ele>316</ele>
					<time>0001-01-01T00:00:00Z</time>
				</trkpt>
				<trkpt lat="55.36310" lon="-3.16513">
					<ele>320</ele>
					<time>0001-01-01T00:00:00Z</time>
				</trkpt>
				<trkpt lat="55.36270" lon="-3.16697">
					<ele>323</ele>
					<time>0001-01-01T00:00:00Z</time>
				</trkpt>
				<trkpt lat="55.36247" lon="-3.16728">
					<ele>322</ele>
					<time>0001-01-01T00:00:00Z</time>
				</trkpt>
				<trkpt lat="55.36142" lon="-3.16804">
					<ele>326</ele>
					<time>0001-01-01T00:00:00Z</time>
				</trkpt>
				<trkpt lat="55.36046" lon="-3.16901">
					<ele>327</ele>
					<time>0001-01-01T00:00:00Z</time>
				</trkpt>
				<trkpt lat="55.35896" lon="-3.17093">
					<ele>331</ele>
					<time>0001-01-01T00:00:00Z</time>
				</trkpt>
				<trkpt lat="55.35782" lon="-3.17215">
					<ele>335</ele>
					<time>0001-01-01T00:00:00Z</time>
				</trkpt>
				<trkpt lat="55.35688" lon="-3.17272">
					<ele>335</ele>
					<time>0001-01-01T00:00:00Z</time>
				</trkpt>
				<trkpt lat="55.35588" lon="-3.17378">
					<ele>340</ele>
					<time>0001-01-01T00:00:00Z</time>
				</trkpt>
				<trkpt lat="55.35509" lon="-3.17527">
					<ele>341</ele>
					<time>0001-01-01T00:00:00Z</time>
				</trkpt>
				<trkpt lat="55.35423" lon="-3.17793">
					<ele>341</ele>
					<time>0001-01-01T00:00:00Z</time>
				</trkpt>
				<trkpt lat="55.35399" lon="-3.17857">
					<ele>341</ele>
					<time>0001-01-01T00:00:00Z</time>
				</trkpt>
				<trkpt lat="55.35382" lon="-3.17876">
					<ele>341</ele>
					<time>0001-01-01T00:00:00Z</time>
				</trkpt>
				<trkpt lat="55.35313" lon="-3.17917">
					<ele>342</ele>
					<time>0001-01-01T00:00:00Z</time>
				</trkpt>
				<trkpt lat="55.35199" lon="-3.17989">
					<ele>338</ele>
					<time>0001-01-01T00:00:00Z</time>
				</trkpt>
				<trkpt lat="55.35171" lon="-3.18024">
					<ele>338</ele>
					<time>0001-01-01T00:00:00Z</time>
				</trkpt>
				<trkpt lat="55.35128" lon="-3.18110">
					<ele>336</ele>
					<time>0001-01-01T00:00:00Z</time>
				</trkpt>
				<trkpt lat="55.35050" lon="-3.18196">
					<ele>332</ele>
					<time>0001-01-01T00:00:00Z</time>
				</trkpt>
				<trkpt lat="55.35031" lon="-3.18298">
					<ele>327</ele>
					<time>0001-01-01T00:00:00Z</time>
				</trkpt>
				<trkpt lat="55.35013" lon="-3.18509">
					<ele>324</ele>
					<time>0001-01-01T00:00:00Z</time>
				</trkpt>
				<trkpt lat="55.34933" lon="-3.18682">
					<ele>323</ele>
					<time>0001-01-01T00:00:00Z</time>
				</trkpt>
				<trkpt lat="55.34836" lon="-3.18823">
					<ele>320</ele>
					<time>0001-01-01T00:00:00Z</time>
				</trkpt>
				<trkpt lat="55.34741" lon="-3.18975">
					<ele>317</ele>
					<time>0001-01-01T00:00:00Z</time>
				</trkpt>
				<trkpt lat="55.34637" lon="-3.19134">
					<ele>313</ele>
					<time>0001-01-01T00:00:00Z</time>
				</trkpt>
				<trkpt lat="55.34603" lon="-3.19197">
					<ele>311</ele>
					<time>0001-01-01T00:00:00Z</time>
				</trkpt>
				<trkpt lat="55.34566" lon="-3.19235">
					<ele>310</ele>
					<time>0001-01-01T00:00:00Z</time>
				</trkpt>
				<trkpt lat="55.34488" lon="-3.19371">
					<ele>306</ele>
					<time>0001-01-01T00:00:00Z</time>
				</trkpt>
				<trkpt lat="55.34460" lon="-3.19425">
					<ele>304</ele>
					<time>0001-01-01T00:00:00Z</time>
				</trkpt>
				<trkpt lat="55.34319" lon="-3.19575">
					<ele>298</ele>
					<time>0001-01-01T00:00:00Z</time>
				</trkpt>
				<trkpt lat="55.34208" lon="-3.19644">
					<ele>294</ele>
					<time>0001-01-01T00:00:00Z</time>
				</trkpt>
				<trkpt lat="55.34080" lon="-3.19698">
					<ele>290</ele>
					<time>0001-01-01T00:00:00Z</time>
				</trkpt>
				<trkpt lat="55.33914" lon="-3.19766">
					<ele>283</ele>
					<time>0001-01-01T00:00:00Z</time>
				</trkpt>
				<trkpt lat="55.33766" lon="-3.19821">
					<ele>277</ele>
					<time>0001-01-01T00:00:00Z</time>
				</trkpt>
				<trkpt lat="55.33611" lon="-3.19874">
					<ele>271</ele>
					<time>0001-01-01T00:00:00Z</time>
				</trkpt>
				<trkpt lat="55.33504" lon="-3.19949">
					<ele>268</ele>
					<time>0001-01-01T00:00:00Z</time>
				</trkpt>
				<trkpt lat="55.33335" lon="-3.20066">
					<ele>263</ele>
					<time>0001-01-01T00:00:00Z</time>
				</trkpt>
				<trkpt lat="55.33245" lon="-3.20089">
					<ele>259</ele>
					<time>0001-01-01T00:00:00Z</time>
				</trkpt>
				<trkpt lat="55.33096" lon="-3.20168">
					<ele>249</ele>
					<time>0001-01-01T00:00:00Z</time>
				</trkpt>
				<trkpt lat="55.32969" lon="-3.20238">
					<ele>244</ele>
					<time>0001-01-01T00:00:00Z</time>
				</trkpt>
				<trkpt lat="55.32943" lon="-3.20253">
					<ele>242</ele>
					<time>0001-01-01T00:00:00Z</time>
				</trkpt>
				<trkpt lat="55.32824" lon="-3.20347">
					<ele>237</ele>
					<time>0001-01-01T00:00:00Z</time>
				</trkpt>
				<trkpt lat="55.32723" lon="-3.20390">
					<ele>230</ele>
					<time>0001-01-01T00:00:00Z</time>
				</trkpt>
				<trkpt lat="55.32652" lon="-3.20362">
					<ele>228</ele>
					<time>0001-01-01T00:00:00Z</time>
				</trkpt>
				<trkpt lat="55.32635" lon="-3.20345">
					<ele>227</ele>
					<time>0001-01-01T00:00:00Z</time>
				</trkpt>
				<trkpt lat="55.32507" lon="-3.20263">
					<ele>226</ele>
					<time>0001-01-01T00:00:00Z</time>
				</trkpt>
				<trkpt lat="55.32404" lon="-3.20168">
					<ele>224</ele>
					<time>0001-01-01T00:00:00Z</time>
				</trkpt>
				<trkpt lat="55.32315" lon="-3.20126">
					<ele>224</ele>
					<time>0001-01-01T00:00:00Z</time>
				</trkpt>
				<trkpt lat="55.32252" lon="-3.20142">
					<ele>225</ele>
					<time>0001-01-01T00:00:00Z</time>
				</trkpt>
				<trkpt lat="55.32230" lon="-3.20158">
					<ele>225</ele>
					<time>0001-01-01T00:00:00Z</time>
				</trkpt>
				<trkpt lat="55.32188" lon="-3.20228">
					<ele>222</ele>
					<time>0001-01-01T00:00:00Z</time>
				</trkpt>
				<trkpt lat="55.32093" lon="-3.20374">
					<ele>218</ele>
					<time>0001-01-01T00:00:00Z</time>
				</trkpt>
				<trkpt lat="55.31967" lon="-3.20388">
					<ele>218</ele>
					<time>0001-01-01T00:00:00Z</time>
				</trkpt>
				<trkpt lat="55.31782" lon="-3.20315">
					<ele>218</ele>
					<time>0001-01-01T00:00:00Z</time>
				</trkpt>
				<trkpt lat="55.31649" lon="-3.20251">
					<ele>219</ele>
					<time>0001-01-01T00:00:00Z</time>
				</trkpt>
				<trkpt lat="55.31533" lon="-3.20243">
					<ele>217</ele>
					<time>0001-01-01T00:00:00Z</time>
				</trkpt>
				<trkpt lat="55.31384" lon="-3.20236">
					<ele>214</ele>
					<time>0001-01-01T00:00:00Z</time>
				</trkpt>
				<trkpt lat="55.31265" lon="-3.20222">
					<ele>213</ele>
					<time>0001-01-01T00:00:00Z</time>
				</trkpt>
				<trkpt lat="55.31150" lon="-3.20196">
					<ele>213</ele>
					<time>0001-01-01T00:00:00Z</time>
				</trkpt>
				<trkpt lat="55.31108" lon="-3.20185">
					<ele>214</ele>
					<time>0001-01-01T00:00:00Z</time>
				</trkpt>
				<trkpt lat="55.31019" lon="-3.20222">
					<ele>217</ele>
					<time>0001-01-01T00:00:00Z</time>
				</trkpt>
				<trkpt lat="55.30914" lon="-3.20272">
					<ele>218</ele>
					<time>0001-01-01T00:00:00Z</time>
				</trkpt>
				<trkpt lat="55.30795" lon="-3.20317">
					<ele>216</ele>
					<time>0001-01-01T00:00:00Z</time>
				</trkpt>
				<trkpt lat="55.30780" lon="-3.20325">
					<ele>216</ele>
					<time>0001-01-01T00:00:00Z</time>
				</trkpt>
				<trkpt lat="55.30750" lon="-3.20325">
					<ele>217</ele>
					<time>0001-01-01T00:00:00Z</time>
				</trkpt>
				<trkpt lat="55.30642" lon="-3.20215">
					<ele>215</ele>
					<time>0001-01-01T00:00:00Z</time>
				</trkpt>
				<trkpt lat="55.30467" lon="-3.20067">
					<ele>212</ele>
					<time>0001-01-01T00:00:00Z</time>
				</trkpt>
				<trkpt lat="55.30397" lon="-3.20077">
					<ele>211</ele>
					<time>0001-01-01T00:00:00Z</time>
				</trkpt>
				<trkpt lat="55.30356" lon="-3.20055">
					<ele>212</ele>
					<time>0001-01-01T00:00:00Z</time>
				</trkpt>
				<trkpt lat="55.30284" lon="-3.19968">
					<ele>212</ele>
					<time>0001-01-01T00:00:00Z</time>
				</trkpt>
				<trkpt lat="55.30258" lon="-3.19961">
					<ele>214</ele>
					<time>0001-01-01T00:00:00Z</time>
				</trkpt>
				<trkpt lat="55.30239" lon="-3.19965">
					<ele>214</ele>
					<time>0001-01-01T00:00:00Z</time>
				</trkpt>
				<trkpt lat="55.30172" lon="-3.19937">
					<ele>212</ele>
					<time>0001-01-01T00:00:00Z</time>
				</trkpt>
				<trkpt lat="55.30059" lon="-3.19811">
					<ele>214</ele>
					<time>0001-01-01T00:00:00Z</time>
				</trkpt>
				<trkpt lat="55.30021" lon="-3.19778">
					<ele>214</ele>
					<time>0001-01-01T00:00:00Z</time>
				</trkpt>
				<trkpt lat="55.29998" lon="-3.19778">
					<ele>214</ele>
					<time>0001-01-01T00:00:00Z</time>
				</trkpt>
				<trkpt lat="55.29891" lon="-3.19774">
					<ele>215</ele>
					<time>0001-01-01T00:00:00Z</time>
				</trkpt>
				<trkpt lat="55.29805" lon="-3.19756">
					<ele>214</ele>
					<time>0001-01-01T00:00:00Z</time>
				</trkpt>
				<trkpt lat="55.29672" lon="-3.19747">
					<ele>213</ele>
					<time>0001-01-01T00:00:00Z</time>
				</trkpt>
				<trkpt lat="55.29575" lon="-3.19703">
					<ele>212</ele>
					<time>0001-01-01T00:00:00Z</time>
				</trkpt>
				<trkpt lat="55.29514" lon="-3.19679">
					<ele>211</ele>
					<time>0001-01-01T00:00:00Z</time>
				</trkpt>
				<trkpt lat="55.29357" lon="-3.19719">
					<ele>208</ele>
					<time>0001-01-01T00:00:00Z</time>
				</trkpt>
				<trkpt lat="55.29340" lon="-3.19723">
					<ele>208</ele>
					<time>0001-01-01T00:00:00Z</time>
				</trkpt>
				<trkpt lat="55.29284" lon="-3.19659">
					<ele>207</ele>
					<time>0001-01-01T00:00:00Z</time>
				</trkpt>
				<trkpt lat="55.29278" lon="-3.19618">
					<ele>207</ele>
					<time>0001-01-01T00:00:00Z</time>
				</trkpt>
				<trkpt lat="55.29267" lon="-3.19548">
					<ele>206</ele>
					<time>0001-01-01T00:00:00Z</time>
				</trkpt>
				<trkpt lat="55.29202" lon="-3.19374">
					<ele>208</ele>
					<time>0001-01-01T00:00:00Z</time>
				</trkpt>
				<trkpt lat="55.29152" lon="-3.19245">
					<ele>212</ele>
					<time>0001-01-01T00:00:00Z</time>
				</trkpt>
				<trkpt lat="55.29148" lon="-3.19237">
					<ele>212</ele>
					<time>0001-01-01T00:00:00Z</time>
				</trkpt>
				<trkpt lat="55.29064" lon="-3.19042">
					<ele>208</ele>
					<time>0001-01-01T00:00:00Z</time>
				</trkpt>
				<trkpt lat="55.28958" lon="-3.18994">
					<ele>205</ele>
					<time>0001-01-01T00:00:00Z</time>
				</trkpt>
				<trkpt lat="55.28814" lon="-3.18954">
					<ele>201</ele>
					<time>0001-01-01T00:00:00Z</time>
				</trkpt>
				<trkpt lat="55.28636" lon="-3.18940">
					<ele>199</ele>
					<time>0001-01-01T00:00:00Z</time>
				</trkpt>
				<trkpt lat="55.28479" lon="-3.18964">
					<ele>200</ele>
					<time>0001-01-01T00:00:00Z</time>
				</trkpt>
				<trkpt lat="55.28365" lon="-3.18966">
					<ele>203</ele>
					<time>0001-01-01T00:00:00Z</time>
				</trkpt>
				<trkpt lat="55.28280" lon="-3.18873">
					<ele>204</ele>
					<time>0001-01-01T00:00:00Z</time>
				</trkpt>
				<trkpt lat="55.28211" lon="-3.18772">
					<ele>205</ele>
					<time>0001-01-01T00:00:00Z</time>
				</trkpt>
				<trkpt lat="55.28100" lon="-3.18703">
					<ele>202</ele>
					<time>0001-01-01T00:00:00Z</time>
				</trkpt>
				<trkpt lat="55.28070" lon="-3.18692">
					<ele>200</ele>
					<time>0001-01-01T00:00:00Z</time>
				</trkpt>
				<trkpt lat="55.28041" lon="-3.18661">
					<ele>200</ele>
					<time>0001-01-01T00:00:00Z</time>
				</trkpt>
				<trkpt lat="55.28030" lon="-3.18641">
					<ele>201</ele>
					<time>0001-01-01T00:00:00Z</time>
				</trkpt>
				<trkpt lat="55.27996" lon="-3.18623">
					<ele>201</ele>
					<time>0001-01-01T00:00:00Z</time>
				</trkpt>
				<trkpt lat="55.27845" lon="-3.18620">
					<ele>196</ele>
					<time>0001-01-01T00:00:00Z</time>
				</trkpt>
				<trkpt lat="55.27762" lon="-3.18548">
					<ele>195</ele>
					<time>0001-01-01T00:00:00Z</time>
				</trkpt>
				<trkpt lat="55.27607" lon="-3.18408">
					<ele>195</ele>
					<time>0001-01-01T00:00:00Z</time>
				</trkpt>
				<trkpt lat="55.27500" lon="-3.18320">
					<ele>193</ele>
					<time>0001-01-01T00:00:00Z</time>
				</trkpt>
				<trkpt lat="55.27414" lon="-3.18196">
					<ele>192</ele>
					<time>0001-01-01T00:00:00Z</time>
				</trkpt>
				<trkpt lat="55.27358" lon="-3.18111">
					<ele>190</ele>
					<time>0001-01-01T00:00:00Z</time>
				</trkpt>
				<trkpt lat="55.27353" lon="-3.18110">
					<ele>191</ele>
					<time>0001-01-01T00:00:00Z</time>
				</trkpt>
				<trkpt lat="55.27347" lon="-3.18135">
					<ele>191</ele>
					<time>0001-01-01T00:00:00Z</time>
				</trkpt>
				<trkpt lat="55.27347" lon="-3.18143">
					<ele>197</ele>
					<time>0001-01-01T00:00:00Z</time>
				</trkpt>
				<trkpt lat="55.27345" lon="-3.18143">
					<ele>208</ele>
					<time>0001-01-01T00:00:00Z</time>
				</trkpt>
				<trkpt lat="55.27346" lon="-3.18134">
					<ele>203</ele>
					<time>0001-01-01T00:00:00Z</time>
				</trkpt>
				<trkpt lat="55.27346" lon="-3.18136">
					<ele>202</ele>
					<time>0001-01-01T00:00:00Z</time>
				</trkpt>
				<trkpt lat="55.27346" lon="-3.18133">
					<ele>209</ele>
					<time>0001-01-01T00:00:00Z</time>
				</trkpt>
				<trkpt lat="55.27350" lon="-3.18115">
					<ele>206</ele>
					<time>0001-01-01T00:00:00Z</time>
				</trkpt>
				<trkpt lat="55.27325" lon="-3.18085">
					<ele>202</ele>
					<time>0001-01-01T00:00:00Z</time>
				</trkpt>
				<trkpt lat="55.27269" lon="-3.18044">
					<ele>199</ele>
					<time>0001-01-01T00:00:00Z</time>
				</trkpt>
				<trkpt lat="55.27176" lon="-3.17967">
					<ele>198</ele>
					<time>0001-01-01T00:00:00Z</time>
				</trkpt>
				<trkpt lat="55.27088" lon="-3.17877">
					<ele>199</ele>
					<time>0001-01-01T00:00:00Z</time>
				</trkpt>
				<trkpt lat="55.27005" lon="-3.17804">
					<ele>198</ele>
					<time>0001-01-01T00:00:00Z</time>
				</trkpt>
				<trkpt lat="55.26917" lon="-3.17724">
					<ele>200</ele>
					<time>0001-01-01T00:00:00Z</time>
				</trkpt>
				<trkpt lat="55.26818" lon="-3.17628">
					<ele>199</ele>
					<time>0001-01-01T00:00:00Z</time>
				</trkpt>
				<trkpt lat="55.26792" lon="-3.17608">
					<ele>198</ele>
					<time>0001-01-01T00:00:00Z</time>
				</trkpt>
				<trkpt lat="55.26792" lon="-3.17559">
					<ele>198</ele>
					<time>0001-01-01T00:00:00Z</time>
				</trkpt>
				<trkpt lat="55.26850" lon="-3.17362">
					<ele>191</ele>
					<time>0001-01-01T00:00:00Z</time>
				</trkpt>
				<trkpt lat="55.26807" lon="-3.17296">
					<ele>192</ele>
					<time>0001-01-01T00:00:00Z</time>
				</trkpt>
				<trkpt lat="55.26707" lon="-3.17241">
					<ele>193</ele>
					<time>0001-01-01T00:00:00Z</time>
				</trkpt>
				<trkpt lat="55.26670" lon="-3.17214">
					<ele>195</ele>
					<time>0001-01-01T00:00:00Z</time>
				</trkpt>
				<trkpt lat="55.26657" lon="-3.17197">
					<ele>195</ele>
					<time>0001-01-01T00:00:00Z</time>
				</trkpt>
				<trkpt lat="55.26572" lon="-3.17054">
					<ele>194</ele>
					<time>0001-01-01T00:00:00Z</time>
				</trkpt>
				<trkpt lat="55.26502" lon="-3.16943">
					<ele>193</ele>
					<time>0001-01-01T00:00:00Z</time>
				</trkpt>
				<trkpt lat="55.26412" lon="-3.16881">
					<ele>192</ele>
					<time>0001-01-01T00:00:00Z</time>
				</trkpt>
				<trkpt lat="55.26339" lon="-3.16831">
					<ele>193</ele>
					<time>0001-01-01T00:00:00Z</time>
				</trkpt>
				<trkpt lat="55.26325" lon="-3.16817">
					<ele>194</ele>
					<time>0001-01-01T00:00:00Z</time>
				</trkpt>
				<trkpt lat="55.26301" lon="-3.16778">
					<ele>194</ele>
					<time>0001-01-01T00:00:00Z</time>
				</trkpt>
				<trkpt lat="55.26279" lon="-3.16766">
					<ele>194</ele>
					<time>0001-01-01T00:00:00Z</time>
				</trkpt>
				<trkpt lat="55.26241" lon="-3.16756">
					<ele>195</ele>
					<time>0001-01-01T00:00:00Z</time>
				</trkpt>
				<trkpt lat="55.26211" lon="-3.16727">
					<ele>194</ele>
					<time>0001-01-01T00:00:00Z</time>
				</trkpt>
				<trkpt lat="55.26116" lon="-3.16676">
					<ele>193</ele>
					<time>0001-01-01T00:00:00Z</time>
				</trkpt>
				<trkpt lat="55.26103" lon="-3.16668">
					<ele>192</ele>
					<time>0001-01-01T00:00:00Z</time>
				</trkpt>
				<trkpt lat="55.26061" lon="-3.16667">
					<ele>192</ele>
					<time>0001-01-01T00:00:00Z</time>
				</trkpt>
				<trkpt lat="55.25940" lon="-3.16674">
					<ele>198</ele>
					<time>0001-01-01T00:00:00Z</time>
				</trkpt>
				<trkpt lat="55.25847" lon="-3.16743">
					<ele>200</ele>
					<time>0001-01-01T00:00:00Z</time>
				</trkpt>
				<trkpt lat="55.25755" lon="-3.16861">
					<ele>201</ele>
					<time>0001-01-01T00:00:00Z</time>
				</trkpt>
				<trkpt lat="55.25712" lon="-3.16917">
					<ele>198</ele>
					<time>0001-01-01T00:00:00Z</time>
				</trkpt>
				<trkpt lat="55.25653" lon="-3.17032">
					<ele>198</ele>
					<time>0001-01-01T00:00:00Z</time>
				</trkpt>
				<trkpt lat="55.25565" lon="-3.17163">
					<ele>202</ele>
					<time>0001-01-01T00:00:00Z</time>
				</trkpt>
				<trkpt lat="55.25465" lon="-3.17252">
					<ele>204</ele>
					<time>0001-01-01T00:00:00Z</time>
				</trkpt>
				<trkpt lat="55.25374" lon="-3.17336">
					<ele>205</ele>
					<time>0001-01-01T00:00:00Z</time>
				</trkpt>
				<trkpt lat="55.25263" lon="-3.17417">
					<ele>203</ele>
					<time>0001-01-01T00:00:00Z</time>
				</trkpt>
				<trkpt lat="55.25147" lon="-3.17388">
					<ele>202</ele>
					<time>0001-01-01T00:00:00Z</time>
				</trkpt>
				<trkpt lat="55.25141" lon="-3.17385">
					<ele>203</ele>
					<time>0001-01-01T00:00:00Z</time>
				</trkpt>
				<trkpt lat="55.25018" lon="-3.17291">
					<ele>205</ele>
					<time>0001-01-01T00:00:00Z</time>
				</trkpt>
				<trkpt lat="55.24910" lon="-3.17215">
					<ele>197</ele>
					<time>0001-01-01T00:00:00Z</time>
				</trkpt>
				<trkpt lat="55.24751" lon="-3.17141">
					<ele>185</ele>
					<time>0001-01-01T00:00:00Z</time>
				</trkpt>
				<trkpt lat="55.24576" lon="-3.17050">
					<ele>178</ele>
					<time>0001-01-01T00:00:00Z</time>
				</trkpt>
				<trkpt lat="55.24502" lon="-3.17100">
					<ele>177</ele>
					<time>0001-01-01T00:00:00Z</time>
				</trkpt>
				<trkpt lat="55.24470" lon="-3.17161">
					<ele>176</ele>
					<time>0001-01-01T00:00:00Z</time>
				</trkpt>
				<trkpt lat="55.24422" lon="-3.17169">
					<ele>178</ele>
					<time>0001-01-01T00:00:00Z</time>
				</trkpt>
				<trkpt lat="55.24409" lon="-3.17162">
					<ele>180</ele>
					<time>0001-01-01T00:00:00Z</time>
				</trkpt>
				<trkpt lat="55.24382" lon="-3.17182">
					<ele>186</ele>
					<time>0001-01-01T00:00:00Z</time>
				</trkpt>
				<trkpt lat="55.24341" lon="-3.17282">
					<ele>190</ele>
					<time>0001-01-01T00:00:00Z</time>
				</trkpt>
				<trkpt lat="55.24293" lon="-3.17365">
					<ele>198</ele>
					<time>0001-01-01T00:00:00Z</time>
				</trkpt>
				<trkpt lat="55.24250" lon="-3.17428">
					<ele>204</ele>
					<time>0001-01-01T00:00:00Z</time>
				</trkpt>
				<trkpt lat="55.24223" lon="-3.17489">
					<ele>209</ele>
					<time>0001-01-01T00:00:00Z</time>
				</trkpt>
				<trkpt lat="55.24184" lon="-3.17543">
					<ele>214</ele>
					<time>0001-01-01T00:00:00Z</time>
				</trkpt>
				<trkpt lat="55.24125" lon="-3.17605">
					<ele>218</ele>
					<time>0001-01-01T00:00:00Z</time>
				</trkpt>
				<trkpt lat="55.24039" lon="-3.17626">
					<ele>218</ele>
					<time>0001-01-01T00:00:00Z</time>
				</trkpt>
				<trkpt lat="55.23993" lon="-3.17606">
					<ele>217</ele>
					<time>0001-01-01T00:00:00Z</time>
				</trkpt>
				<trkpt lat="55.23920" lon="-3.17603">
					<ele>222</ele>
					<time>0001-01-01T00:00:00Z</time>
				</trkpt>
				<trkpt lat="55.23869" lon="-3.17479">
					<ele>230</ele>
					<time>0001-01-01T00:00:00Z</time>
				</trkpt>
				<trkpt lat="55.23864" lon="-3.17364">
					<ele>236</ele>
					<time>0001-01-01T00:00:00Z</time>
				</trkpt>
				<trkpt lat="55.23833" lon="-3.17291">
					<ele>240</ele>
					<time>0001-01-01T00:00:00Z</time>
				</trkpt>
				<trkpt lat="55.23718" lon="-3.17255">
					<ele>241</ele>
					<time>0001-01-01T00:00:00Z</time>
				</trkpt>
				<trkpt lat="55.23653" lon="-3.17164">
					<ele>248</ele>
					<time>0001-01-01T00:00:00Z</time>
				</trkpt>
				<trkpt lat="55.23645" lon="-3.17147">
					<ele>248</ele>
					<time>0001-01-01T00:00:00Z</time>
				</trkpt>
				<trkpt lat="55.23615" lon="-3.17004">
					<ele>252</ele>
					<time>0001-01-01T00:00:00Z</time>
				</trkpt>
				<trkpt lat="55.23599" lon="-3.16868">
					<ele>258</ele>
					<time>0001-01-01T00:00:00Z</time>
				</trkpt>
				<trkpt lat="55.23579" lon="-3.16695">
					<ele>262</ele>
					<time>0001-01-01T00:00:00Z</time>
				</trkpt>
				<trkpt lat="55.23560" lon="-3.16575">
					<ele>264</ele>
					<time>0001-01-01T00:00:00Z</time>
				</trkpt>
				<trkpt lat="55.23539" lon="-3.16497">
					<ele>268</ele>
					<time>0001-01-01T00:00:00Z</time>
				</trkpt>
				<trkpt lat="55.23537" lon="-3.16351">
					<ele>267</ele>
					<time>0001-01-01T00:00:00Z</time>
				</trkpt>
				<trkpt lat="55.23548" lon="-3.16256">
					<ele>264</ele>
					<time>0001-01-01T00:00:00Z</time>
				</trkpt>
				<trkpt lat="55.23543" lon="-3.16185">
					<ele>264</ele>
					<time>0001-01-01T00:00:00Z</time>
				</trkpt>
				<trkpt lat="55.23493" lon="-3.15920">
					<ele>257</ele>
					<time>0001-01-01T00:00:00Z</time>
				</trkpt>
				<trkpt lat="55.23444" lon="-3.15782">
					<ele>258</ele>
					<time>0001-01-01T00:00:00Z</time>
				</trkpt>
				<trkpt lat="55.23327" lon="-3.15567">
					<ele>248</ele>
					<time>0001-01-01T00:00:00Z</time>
				</trkpt>
				<trkpt lat="55.23195" lon="-3.15310">
					<ele>242</ele>
					<time>0001-01-01T00:00:00Z</time>
				</trkpt>
				<trkpt lat="55.23095" lon="-3.15208">
					<ele>237</ele>
					<time>0001-01-01T00:00:00Z</time>
				</trkpt>
				<trkpt lat="55.22893" lon="-3.15129">
					<ele>224</ele>
					<time>0001-01-01T00:00:00Z</time>
				</trkpt>
				<trkpt lat="55.22688" lon="-3.15056">
					<ele>218</ele>
					<time>0001-01-01T00:00:00Z</time>
				</trkpt>
				<trkpt lat="55.22550" lon="-3.14982">
					<ele>214</ele>
					<time>0001-01-01T00:00:00Z</time>
				</trkpt>
				<trkpt lat="55.22319" lon="-3.14739">
					<ele>210</ele>
					<time>0001-01-01T00:00:00Z</time>
				</trkpt>
				<trkpt lat="55.22158" lon="-3.14306">
					<ele>203</ele>
					<time>0001-01-01T00:00:00Z</time>
				</trkpt>
				<trkpt lat="55.22004" lon="-3.14099">
					<ele>187</ele>
					<time>0001-01-01T00:00:00Z</time>
				</trkpt>
				<trkpt lat="55.21846" lon="-3.13871">
					<ele>172</ele>
					<time>0001-01-01T00:00:00Z</time>
				</trkpt>
				<trkpt lat="55.21732" lon="-3.13676">
					<ele>159</ele>
					<time>0001-01-01T00:00:00Z</time>
				</trkpt>
				<trkpt lat="55.21727" lon="-3.13585">
					<ele>154</ele>
					<time>0001-01-01T00:00:00Z</time>
				</trkpt>
				<trkpt lat="55.21732" lon="-3.13525">
					<ele>150</ele>
					<time>0001-01-01T00:00:00Z</time>
				</trkpt>
				<trkpt lat="55.21673" lon="-3.13272">
					<ele>149</ele>
					<time>0001-01-01T00:00:00Z</time>
				</trkpt>
				<trkpt lat="55.21565" lon="-3.13167">
					<ele>145</ele>
					<time>0001-01-01T00:00:00Z</time>
				</trkpt>
				<trkpt lat="55.21441" lon="-3.13096">
					<ele>143</ele>
					<time>0001-01-01T00:00:00Z</time>
				</trkpt>
				<trkpt lat="55.21374" lon="-3.12955">
					<ele>142</ele>
					<time>0001-01-01T00:00:00Z</time>
				</trkpt>
				<trkpt lat="55.21311" lon="-3.12781">
					<ele>136</ele>
					<time>0001-01-01T00:00:00Z</time>
				</trkpt>
				<trkpt lat="55.21192" lon="-3.12539">
					<ele>132</ele>
					<time>0001-01-01T00:00:00Z</time>
				</trkpt>
				<trkpt lat="55.21127" lon="-3.12418">
					<ele>134</ele>
					<time>0001-01-01T00:00:00Z</time>
				</trkpt>
				<trkpt lat="55.21132" lon="-3.12340">
					<ele>134</ele>
					<time>0001-01-01T00:00:00Z</time>
				</trkpt>
				<trkpt lat="55.21187" lon="-3.12243">
					<ele>132</ele>
					<time>0001-01-01T00:00:00Z</time>
				</trkpt>
				<trkpt lat="55.21253" lon="-3.12105">
					<ele>132</ele>
					<time>0001-01-01T00:00:00Z</time>
				</trkpt>
				<trkpt lat="55.21270" lon="-3.12054">
					<ele>134</ele>
					<time>0001-01-01T00:00:00Z</time>
				</trkpt>
				<trkpt lat="55.21273" lon="-3.12036">
					<ele>134</ele>
					<time>0001-01-01T00:00:00Z</time>
				</trkpt>
				<trkpt lat="55.21267" lon="-3.11889">
					<ele>135</ele>
					<time>0001-01-01T00:00:00Z</time>
				</trkpt>
				<trkpt lat="55.21266" lon="-3.11882">
					<ele>135</ele>
					<time>0001-01-01T00:00:00Z</time>
				</trkpt>
				<trkpt lat="55.21262" lon="-3.11867">
					<ele>134</ele>
					<time>0001-01-01T00:00:00Z</time>
				</trkpt>
				<trkpt lat="55.21217" lon="-3.11704">
					<ele>135</ele>
					<time>0001-01-01T00:00:00Z</time>
				</trkpt>
				<trkpt lat="55.21163" lon="-3.11507">
					<ele>137</ele>
					<time>0001-01-01T00:00:00Z</time>
				</trkpt>
				<trkpt lat="55.21090" lon="-3.11323">
					<ele>130</ele>
					<time>0001-01-01T00:00:00Z</time>
				</trkpt>
				<trkpt lat="55.20981" lon="-3.10968">
					<ele>125</ele>
					<time>0001-01-01T00:00:00Z</time>
				</trkpt>
				<trkpt lat="55.20949" lon="-3.10857">
					<ele>132</ele>
					<time>0001-01-01T00:00:00Z</time>
				</trkpt>
				<trkpt lat="55.20895" lon="-3.10727">
					<ele>137</ele>
					<time>0001-01-01T00:00:00Z</time>
				</trkpt>
				<trkpt lat="55.20826" lon="-3.10594">
					<ele>138</ele>
					<time>0001-01-01T00:00:00Z</time>
				</trkpt>
				<trkpt lat="55.20725" lon="-3.10490">
					<ele>134</ele>
					<time>0001-01-01T00:00:00Z</time>
				</trkpt>
				<trkpt lat="55.20607" lon="-3.10389">
					<ele>128</ele>
					<time>0001-01-01T00:00:00Z</time>
				</trkpt>
				<trkpt lat="55.20500" lon="-3.10248">
					<ele>128</ele>
					<time>0001-01-01T00:00:00Z</time>
				</trkpt>
				<trkpt lat="55.20426" lon="-3.10196">
					<ele>131</ele>
					<time>0001-01-01T00:00:00Z</time>
				</trkpt>
				<trkpt lat="55.20331" lon="-3.10155">
					<ele>130</ele>
					<time>0001-01-01T00:00:00Z</time>
				</trkpt>
				<trkpt lat="55.20242" lon="-3.10040">
					<ele>128</ele>
					<time>0001-01-01T00:00:00Z</time>
				</trkpt>
				<trkpt lat="55.20144" lon="-3.09905">
					<ele>131</ele>
					<time>0001-01-01T00:00:00Z</time>
				</trkpt>
				<trkpt lat="55.20069" lon="-3.09753">
					<ele>138</ele>
					<time>0001-01-01T00:00:00Z</time>
				</trkpt>
				<trkpt lat="55.19990" lon="-3.09575">
					<ele>140</ele>
					<time>0001-01-01T00:00:00Z</time>
				</trkpt>
				<trkpt lat="55.19922" lon="-3.09357">
					<ele>134</ele>
					<time>0001-01-01T00:00:00Z</time>
				</trkpt>
				<trkpt lat="55.19917" lon="-3.09326">
					<ele>134</ele>
					<time>0001-01-01T00:00:00Z</time>
				</trkpt>
				<trkpt lat="55.19922" lon="-3.09235">
					<ele>133</ele>
					<time>0001-01-01T00:00:00Z</time>
				</trkpt>
				<trkpt lat="55.19971" lon="-3.08992">
					<ele>125</ele>
					<time>0001-01-01T00:00:00Z</time>
				</trkpt>
				<trkpt lat="55.19986" lon="-3.08813">
					<ele>130</ele>
					<time>0001-01-01T00:00:00Z</time>
				</trkpt>
				<trkpt lat="55.20018" lon="-3.08599">
					<ele>125</ele>
					<time>0001-01-01T00:00:00Z</time>
				</trkpt>
				<trkpt lat="55.20041" lon="-3.08370">
					<ele>121</ele>
					<time>0001-01-01T00:00:00Z</time>
				</trkpt>
				<trkpt lat="55.20000" lon="-3.08190">
					<ele>122</ele>
					<time>0001-01-01T00:00:00Z</time>
				</trkpt>
				<trkpt lat="55.19906" lon="-3.07993">
					<ele>119</ele>
					<time>0001-01-01T00:00:00Z</time>
				</trkpt>
				<trkpt lat="55.19786" lon="-3.07857">
					<ele>118</ele>
					<time>0001-01-01T00:00:00Z</time>
				</trkpt>
				<trkpt lat="55.19640" lon="-3.07732">
					<ele>118</ele>
					<time>0001-01-01T00:00:00Z</time>
				</trkpt>
				<trkpt lat="55.19478" lon="-3.07598">
					<ele>110</ele>
					<time>0001-01-01T00:00:00Z</time>
				</trkpt>
				<trkpt lat="55.19315" lon="-3.07459">
					<ele>109</ele>
					<time>0001-01-01T00:00:00Z</time>
				</trkpt>
				<trkpt lat="55.19183" lon="-3.07367">
					<ele>108</ele>
					<time>0001-01-01T00:00:00Z</time>
				</trkpt>
				<trkpt lat="55.19043" lon="-3.07326">
					<ele>110</ele>
					<time>0001-01-01T00:00:00Z</time>
				</trkpt>
				<trkpt lat="55.18942" lon="-3.07239">
					<ele>111</ele>
					<time>0001-01-01T00:00:00Z</time>
				</trkpt>
				<trkpt lat="55.18938" lon="-3.07231">
					<ele>111</ele>
					<time>0001-01-01T00:00:00Z</time>
				</trkpt>
				<trkpt lat="55.18925" lon="-3.07193">
					<ele>113</ele>
					<time>0001-01-01T00:00:00Z</time>
				</trkpt>
				<trkpt lat="55.18898" lon="-3.07006">
					<ele>114</ele>
					<time>0001-01-01T00:00:00Z</time>
				</trkpt>
				<trkpt lat="55.18851" lon="-3.06874">
					<ele>118</ele>
					<time>0001-01-01T00:00:00Z</time>
				</trkpt>
				<trkpt lat="55.18780" lon="-3.06732">
					<ele>122</ele>
					<time>0001-01-01T00:00:00Z</time>
				</trkpt>
				<trkpt lat="55.18701" lon="-3.06634">
					<ele>120</ele>
					<time>0001-01-01T00:00:00Z</time>
				</trkpt>
				<trkpt lat="55.18636" lon="-3.06340">
					<ele>117</ele>
					<time>0001-01-01T00:00:00Z</time>
				</trkpt>
				<trkpt lat="55.18566" lon="-3.06085">
					<ele>116</ele>
					<time>0001-01-01T00:00:00Z</time>
				</trkpt>
				<trkpt lat="55.18514" lon="-3.06004">
					<ele>116</ele>
					<time>0001-01-01T00:00:00Z</time>
				</trkpt>
				<trkpt lat="55.18449" lon="-3.05828">
					<ele>112</ele>
					<time>0001-01-01T00:00:00Z</time>
				</trkpt>
				<trkpt lat="55.18438" lon="-3.05609">
					<ele>109</ele>
					<time>0001-01-01T00:00:00Z</time>
				</trkpt>
				<trkpt lat="55.18437" lon="-3.05597">
					<ele>109</ele>
					<time>0001-01-01T00:00:00Z</time>
				</trkpt>
				<trkpt lat="55.18375" lon="-3.05455">
					<ele>106</ele>
					<time>0001-01-01T00:00:00Z</time>
				</trkpt>
				<trkpt lat="55.18308" lon="-3.05301">
					<ele>109</ele>
					<time>0001-01-01T00:00:00Z</time>
				</trkpt>
				<trkpt lat="55.18303" lon="-3.05280">
					<ele>109</ele>
					<time>0001-01-01T00:00:00Z</time>
				</trkpt>
				<trkpt lat="55.18302" lon="-3.05086">
					<ele>111</ele>
					<time>0001-01-01T00:00:00Z</time>
				</trkpt>
				<trkpt lat="55.18311" lon="-3.04943">
					<ele>113</ele>
					<time>0001-01-01T00:00:00Z</time>
				</trkpt>
				<trkpt lat="55.18337" lon="-3.04804">
					<ele>115</ele>
					<time>0001-01-01T00:00:00Z</time>
				</trkpt>
				<trkpt lat="55.18369" lon="-3.04642">
					<ele>116</ele>
					<time>0001-01-01T00:00:00Z</time>
				</trkpt>
				<trkpt lat="55.18413" lon="-3.04423">
					<ele>115</ele>
					<time>0001-01-01T00:00:00Z</time>
				</trkpt>
				<trkpt lat="55.18641" lon="-3.04054">
					<ele>118</ele>
					<time>0001-01-01T00:00:00Z</time>
				</trkpt>
				<trkpt lat="55.18650" lon="-3.04034">
					<ele>119</ele>
					<time>0001-01-01T00:00:00Z</time>
				</trkpt>
				<trkpt lat="55.18641" lon="-3.03917">
					<ele>122</ele>
					<time>0001-01-01T00:00:00Z</time>
				</trkpt>
				<trkpt lat="55.18637" lon="-3.03906">
					<ele>122</ele>
					<time>0001-01-01T00:00:00Z</time>
				</trkpt>
				<trkpt lat="55.18585" lon="-3.03811">
					<ele>125</ele>
					<time>0001-01-01T00:00:00Z</time>
				</trkpt>
				<trkpt lat="55.18404" lon="-3.03704">
					<ele>122</ele>
					<time>0001-01-01T00:00:00Z</time>
				</trkpt>
				<trkpt lat="55.18256" lon="-3.03622">
					<ele>117</ele>
					<time>0001-01-01T00:00:00Z</time>
				</trkpt>
				<trkpt lat="55.18113" lon="-3.03570">
					<ele>115</ele>
					<time>0001-01-01T00:00:00Z</time>
				</trkpt>
				<trkpt lat="55.17976" lon="-3.03509">
					<ele>115</ele>
					<time>0001-01-01T00:00:00Z</time>
				</trkpt>
				<trkpt lat="55.17843" lon="-3.03431">
					<ele>116</ele>
					<time>0001-01-01T00:00:00Z</time>
				</trkpt>
				<trkpt lat="55.17741" lon="-3.03377">
					<ele>117</ele>
					<time>0001-01-01T00:00:00Z</time>
				</trkpt>
				<trkpt lat="55.17732" lon="-3.03374">
					<ele>117</ele>
					<time>0001-01-01T00:00:00Z</time>
				</trkpt>
				<trkpt lat="55.17657" lon="-3.03322">
					<ele>123</ele>
					<time>0001-01-01T00:00:00Z</time>
				</trkpt>
				<trkpt lat="55.17571" lon="-3.03302">
					<ele>128</ele>
					<time>0001-01-01T00:00:00Z</time>
				</trkpt>
				<trkpt lat="55.17498" lon="-3.03291">
					<ele>132</ele>
					<time>0001-01-01T00:00:00Z</time>
				</trkpt>
				<trkpt lat="55.17394" lon="-3.03284">
					<ele>140</ele>
					<time>0001-01-01T00:00:00Z</time>
				</trkpt>
				<trkpt lat="55.17299" lon="-3.03287">
					<ele>144</ele>
					<time>0001-01-01T00:00:00Z</time>
				</trkpt>
				<trkpt lat="55.17158" lon="-3.03340">
					<ele>143</ele>
					<time>0001-01-01T00:00:00Z</time>
				</trkpt>
				<trkpt lat="55.17075" lon="-3.03369">
					<ele>146</ele>
					<time>0001-01-01T00:00:00Z</time>
				</trkpt>
				<trkpt lat="55.17027" lon="-3.03369">
					<ele>147</ele>
					<time>0001-01-01T00:00:00Z</time>
				</trkpt>
				<trkpt lat="55.16897" lon="-3.03388">
					<ele>143</ele>
					<time>0001-01-01T00:00:00Z</time>
				</trkpt>
				<trkpt lat="55.16792" lon="-3.03378">
					<ele>146</ele>
					<time>0001-01-01T00:00:00Z</time>
				</trkpt>
				<trkpt lat="55.16741" lon="-3.03363">
					<ele>149</ele>
					<time>0001-01-01T00:00:00Z</time>
				</trkpt>
				<trkpt lat="55.16733" lon="-3.03354">
					<ele>150</ele>
					<time>0001-01-01T00:00:00Z</time>
				</trkpt>
				<trkpt lat="55.16717" lon="-3.03319">
					<ele>151</ele>
					<time>0001-01-01T00:00:00Z</time>
				</trkpt>
				<trkpt lat="55.16651" lon="-3.03136">
					<ele>146</ele>
					<time>0001-01-01T00:00:00Z</time>
				</trkpt>
				<trkpt lat="55.16638" lon="-3.03110">
					<ele>144</ele>
					<time>0001-01-01T00:00:00Z</time>
				</trkpt>
				<trkpt lat="55.16570" lon="-3.03039">
					<ele>141</ele>
					<time>0001-01-01T00:00:00Z</time>
				</trkpt>
				<trkpt lat="55.16546" lon="-3.02997">
					<ele>141</ele>
					<time>0001-01-01T00:00:00Z</time>
				</trkpt>
				<trkpt lat="55.16515" lon="-3.02795">
					<ele>136</ele>
					<time>0001-01-01T00:00:00Z</time>
				</trkpt>
				<trkpt lat="55.16499" lon="-3.02747">
					<ele>133</ele>
					<time>0001-01-01T00:00:00Z</time>
				</trkpt>
				<trkpt lat="55.16437" lon="-3.02503">
					<ele>126</ele>
					<time>0001-01-01T00:00:00Z</time>
				</trkpt>
				<trkpt lat="55.16305" lon="-3.02319">
					<ele>123</ele>
					<time>0001-01-01T00:00:00Z</time>
				</trkpt>
				<trkpt lat="55.15993" lon="-3.02109">
					<ele>122</ele>
					<time>0001-01-01T00:00:00Z</time>
				</trkpt>
				<trkpt lat="55.15914" lon="-3.01966">
					<ele>120</ele>
					<time>0001-01-01T00:00:00Z</time>
				</trkpt>
				<trkpt lat="55.15809" lon="-3.01738">
					<ele>121</ele>
					<time>0001-01-01T00:00:00Z</time>
				</trkpt>
				<trkpt lat="55.15700" lon="-3.01484">
					<ele>120</ele>
					<time>0001-01-01T00:00:00Z</time>
				</trkpt>
				<trkpt lat="55.15469" lon="-3.00881">
					<ele>108</ele>
					<time>0001-01-01T00:00:00Z</time>
				</trkpt>
				<trkpt lat="55.15411" lon="-3.00761">
					<ele>98</ele>
					<time>0001-01-01T00:00:00Z</time>
				</trkpt>
				<trkpt lat="55.15341" lon="-3.00492">
					<ele>87</ele>
					<time>0001-01-01T00:00:00Z</time>
				</trkpt>
				<trkpt lat="55.15274" lon="-3.00214">
					<ele>78</ele>
					<time>0001-01-01T00:00:00Z</time>
				</trkpt>
				<trkpt lat="55.15240" lon="-3.00073">
					<ele>78</ele>
					<time>0001-01-01T00:00:00Z</time>
				</trkpt>
				<trkpt lat="55.15232" lon="-3.00039">
					<ele>78</ele>
					<time>0001-01-01T00:00:00Z</time>
				</trkpt>
				<trkpt lat="55.15099" lon="-2.99889">
					<ele>77</ele>
					<time>0001-01-01T00:00:00Z</time>
				</trkpt>
				<trkpt lat="55.15053" lon="-2.99843">
					<ele>78</ele>
					<time>0001-01-01T00:00:00Z</time>
				</trkpt>
				<trkpt lat="55.15005" lon="-2.99769">
					<ele>78</ele>
					<time>0001-01-01T00:00:00Z</time>
				</trkpt>
				<trkpt lat="55.14923" lon="-2.99620">
					<ele>76</ele>
					<time>0001-01-01T00:00:00Z</time>
				</trkpt>
				<trkpt lat="55.14860" lon="-2.99443">
					<ele>74</ele>
					<time>0001-01-01T00:00:00Z</time>
				</trkpt>
				<trkpt lat="55.14843" lon="-2.99406">
					<ele>73</ele>
					<time>0001-01-01T00:00:00Z</time>
				</trkpt>
				<trkpt lat="55.14643" lon="-2.99274">
					<ele>71</ele>
					<time>0001-01-01T00:00:00Z</time>
				</trkpt>
				<trkpt lat="55.14617" lon="-2.99266">
					<ele>71</ele>
					<time>0001-01-01T00:00:00Z</time>
				</trkpt>
				<trkpt lat="55.14500" lon="-2.99048">
					<ele>76</ele>
					<time>0001-01-01T00:00:00Z</time>
				</trkpt>
				<trkpt lat="55.14224" lon="-2.98852">
					<ele>75</ele>
					<time>0001-01-01T00:00:00Z</time>
				</trkpt>
				<trkpt lat="55.14087" lon="-2.98820">
					<ele>75</ele>
					<time>0001-01-01T00:00:00Z</time>
				</trkpt>
				<trkpt lat="55.14073" lon="-2.98866">
					<ele>73</ele>
					<time>0001-01-01T00:00:00Z</time>
				</trkpt>
				<trkpt lat="55.14072" lon="-2.98901">
					<ele>72</ele>
					<time>0001-01-01T00:00:00Z</time>
				</trkpt>
				<trkpt lat="55.14022" lon="-2.98977">
					<ele>69</ele>
					<time>0001-01-01T00:00:00Z</time>
				</trkpt>
				<trkpt lat="55.13984" lon="-2.98988">
					<ele>69</ele>
					<time>0001-01-01T00:00:00Z</time>
				</trkpt>
				<trkpt lat="55.13162" lon="-2.98368">
					<ele>76</ele>
					<time>0001-01-01T00:00:00Z</time>
				</trkpt>
				<trkpt lat="55.13118" lon="-2.98333">
					<ele>77</ele>
					<time>0001-01-01T00:00:00Z</time>
				</trkpt>
				<trkpt lat="55.13032" lon="-2.98367">
					<ele>73</ele>
					<time>0001-01-01T00:00:00Z</time>
				</trkpt>
				<trkpt lat="55.12961" lon="-2.98440">
					<ele>69</ele>
					<time>0001-01-01T00:00:00Z</time>
				</trkpt>
				<trkpt lat="55.12839" lon="-2.98681">
					<ele>64</ele>
					<time>0001-01-01T00:00:00Z</time>
				</trkpt>
				<trkpt lat="55.12762" lon="-2.98814">
					<ele>65</ele>
					<time>0001-01-01T00:00:00Z</time>
				</trkpt>
				<trkpt lat="55.12708" lon="-2.98888">
					<ele>68</ele>
					<time>0001-01-01T00:00:00Z</time>
				</trkpt>
				<trkpt lat="55.12646" lon="-2.98949">
					<ele>75</ele>
					<time>0001-01-01T00:00:00Z</time>
				</trkpt>
				<trkpt lat="55.12580" lon="-2.98995">
					<ele>83</ele>
					<time>0001-01-01T00:00:00Z</time>
				</trkpt>
				<trkpt lat="55.12482" lon="-2.99030">
					<ele>90</ele>
					<time>0001-01-01T00:00:00Z</time>
				</trkpt>
				<trkpt lat="55.12374" lon="-2.99032">
					<ele>94</ele>
					<time>0001-01-01T00:00:00Z</time>
				</trkpt>
				<trkpt lat="55.12279" lon="-2.99002">
					<ele>96</ele>
					<time>0001-01-01T00:00:00Z</time>
				</trkpt>
				<trkpt lat="55.12149" lon="-2.98954">
					<ele>94</ele>
					<time>0001-01-01T00:00:00Z</time>
				</trkpt>
				<trkpt lat="55.11964" lon="-2.98878">
					<ele>85</ele>
					<time>0001-01-01T00:00:00Z</time>
				</trkpt>
				<trkpt lat="55.11793" lon="-2.98799">
					<ele>79</ele>
					<time>0001-01-01T00:00:00Z</time>
				</trkpt>
				<trkpt lat="55.11551" lon="-2.98675">
					<ele>78</ele>
					<time>0001-01-01T00:00:00Z</time>
				</trkpt>
				<trkpt lat="55.11394" lon="-2.98586">
					<ele>77</ele>
					<time>0001-01-01T00:00:00Z</time>
				</trkpt>
				<trkpt lat="55.11225" lon="-2.98482">
					<ele>75</ele>
					<time>0001-01-01T00:00:00Z</time>
				</trkpt>
				<trkpt lat="55.11027" lon="-2.98350">
					<ele>70</ele>
					<time>0001-01-01T00:00:00Z</time>
				</trkpt>
				<trkpt lat="55.10864" lon="-2.98235">
					<ele>64</ele>
					<time>0001-01-01T00:00:00Z</time>
				</trkpt>
				<trkpt lat="55.10689" lon="-2.98100">
					<ele>59</ele>
					<time>0001-01-01T00:00:00Z</time>
				</trkpt>
				<trkpt lat="55.10497" lon="-2.97972">
					<ele>52</ele>
					<time>0001-01-01T00:00:00Z</time>
				</trkpt>
				<trkpt lat="55.10314" lon="-2.97925">
					<ele>53</ele>
					<time>0001-01-01T00:00:00Z</time>
				</trkpt>
				<trkpt lat="55.10163" lon="-2.97866">
					<ele>54</ele>
					<time>0001-01-01T00:00:00Z</time>
				</trkpt>
				<trkpt lat="55.09990" lon="-2.97743">
					<ele>57</ele>
					<time>0001-01-01T00:00:00Z</time>
				</trkpt>
				<trkpt lat="55.09813" lon="-2.97557">
					<ele>56</ele>
					<time>0001-01-01T00:00:00Z</time>
				</trkpt>
				<trkpt lat="55.09669" lon="-2.97336">
					<ele>57</ele>
					<time>0001-01-01T00:00:00Z</time>
				</trkpt>
				<trkpt lat="55.09531" lon="-2.97102">
					<ele>56</ele>
					<time>0001-01-01T00:00:00Z</time>
				</trkpt>
				<trkpt lat="55.09409" lon="-2.96931">
					<ele>58</ele>
					<time>0001-01-01T00:00:00Z</time>
				</trkpt>
				<trkpt lat="55.09289" lon="-2.96791">
					<ele>61</ele>
					<time>0001-01-01T00:00:00Z</time>
				</trkpt>
				<trkpt lat="55.09180" lon="-2.96685">
					<ele>65</ele>
					<time>0001-01-01T00:00:00Z</time>
				</trkpt>
				<trkpt lat="55.09101" lon="-2.96619">
					<ele>66</ele>
					<time>0001-01-01T00:00:00Z</time>
				</trkpt>
				<trkpt lat="55.09010" lon="-2.96553">
					<ele>68</ele>
					<time>0001-01-01T00:00:00Z</time>
				</trkpt>
				<trkpt lat="55.08875" lon="-2.96477">
					<ele>71</ele>
					<time>0001-01-01T00:00:00Z</time>
				</trkpt>
				<trkpt lat="55.08759" lon="-2.96421">
					<ele>73</ele>
					<time>0001-01-01T00:00:00Z</time>
				</trkpt>
				<trkpt lat="55.08612" lon="-2.96353">
					<ele>73</ele>
					<time>0001-01-01T00:00:00Z</time>
				</trkpt>
				<trkpt lat="55.08500" lon="-2.96300">
					<ele>78</ele>
					<time>0001-01-01T00:00:00Z</time>
				</trkpt>
				<trkpt lat="55.08336" lon="-2.96207">
					<ele>78</ele>
					<time>0001-01-01T00:00:00Z</time>
				</trkpt>
				<trkpt lat="55.08223" lon="-2.96133">
					<ele>78</ele>
					<time>0001-01-01T00:00:00Z</time>
				</trkpt>
				<trkpt lat="55.08063" lon="-2.96020">
					<ele>77</ele>
					<time>0001-01-01T00:00:00Z</time>
				</trkpt>
				<trkpt lat="55.07895" lon="-2.95883">
					<ele>72</ele>
					<time>0001-01-01T00:00:00Z</time>
				</trkpt>
				<trkpt lat="55.07733" lon="-2.95757">
					<ele>69</ele>
					<time>0001-01-01T00:00:00Z</time>
				</trkpt>
				<trkpt lat="55.07543" lon="-2.95665">
					<ele>63</ele>
					<time>0001-01-01T00:00:00Z</time>
				</trkpt>
				<trkpt lat="55.07370" lon="-2.95609">
					<ele>63</ele>
					<time>0001-01-01T00:00:00Z</time>
				</trkpt>
				<trkpt lat="55.07187" lon="-2.95568">
					<ele>63</ele>
					<time>0001-01-01T00:00:00Z</time>
				</trkpt>
				<trkpt lat="55.07027" lon="-2.95531">
					<ele>57</ele>
					<time>0001-01-01T00:00:00Z</time>
				</trkpt>
				<trkpt lat="55.06821" lon="-2.95495">
					<ele>53</ele>
					<time>0001-01-01T00:00:00Z</time>
				</trkpt>
				<trkpt lat="55.06620" lon="-2.95492">
					<ele>49</ele>
					<time>0001-01-01T00:00:00Z</time>
				</trkpt>
				<trkpt lat="55.06434" lon="-2.95521">
					<ele>45</ele>
					<time>0001-01-01T00:00:00Z</time>
				</trkpt>
				<trkpt lat="55.06252" lon="-2.95578">
					<ele>42</ele>
					<time>0001-01-01T00:00:00Z</time>
				</trkpt>
				<trkpt lat="55.06050" lon="-2.95677">
					<ele>38</ele>
					<time>0001-01-01T00:00:00Z</time>
				</trkpt>
				<trkpt lat="55.05862" lon="-2.95792">
					<ele>35</ele>
					<time>0001-01-01T00:00:00Z</time>
				</trkpt>
				<trkpt lat="55.05730" lon="-2.95880">
					<ele>33</ele>
					<time>0001-01-01T00:00:00Z</time>
				</trkpt>
				<trkpt lat="55.05582" lon="-2.95976">
					<ele>33</ele>
					<time>0001-01-01T00:00:00Z</time>
				</trkpt>
				<trkpt lat="55.05384" lon="-2.96075">
					<ele>31</ele>
					<time>0001-01-01T00:00:00Z</time>
				</trkpt>
				<trkpt lat="55.05212" lon="-2.96118">
					<ele>29</ele>
					<time>0001-01-01T00:00:00Z</time>
				</trkpt>
				<trkpt lat="55.05048" lon="-2.96082">
					<ele>27</ele>
					<time>0001-01-01T00:00:00Z</time>
				</trkpt>
				<trkpt lat="55.04901" lon="-2.96060">
					<ele>27</ele>
					<time>0001-01-01T00:00:00Z</time>
				</trkpt>
				<trkpt lat="55.04768" lon="-2.96088">
					<ele>26</ele>
					<time>0001-01-01T00:00:00Z</time>
				</trkpt>
				<trkpt lat="55.04645" lon="-2.96055">
					<ele>27</ele>
					<time>0001-01-01T00:00:00Z</time>
				</trkpt>
				<trkpt lat="55.04473" lon="-2.96055">
					<ele>26</ele>
					<time>0001-01-01T00:00:00Z</time>
				</trkpt>
				<trkpt lat="55.04286" lon="-2.96056">
					<ele>26</ele>
					<time>0001-01-01T00:00:00Z</time>
				</trkpt>
				<trkpt lat="55.04231" lon="-2.96059">
					<ele>27</ele>
					<time>0001-01-01T00:00:00Z</time>
				</trkpt>
				<trkpt lat="55.04096" lon="-2.96138">
					<ele>26</ele>
					<time>0001-01-01T00:00:00Z</time>
				</trkpt>
				<trkpt lat="55.03942" lon="-2.96223">
					<ele>28</ele>
					<time>0001-01-01T00:00:00Z</time>
				</trkpt>
				<trkpt lat="55.03813" lon="-2.96357">
					<ele>28</ele>
					<time>0001-01-01T00:00:00Z</time>
				</trkpt>
				<trkpt lat="55.03666" lon="-2.96525">
					<ele>24</ele>
					<time>0001-01-01T00:00:00Z</time>
				</trkpt>
				<trkpt lat="55.03494" lon="-2.96653">
					<ele>23</ele>
					<time>0001-01-01T00:00:00Z</time>
				</trkpt>
				<trkpt lat="55.03161" lon="-2.96961">
					<ele>19</ele>
					<time>0001-01-01T00:00:00Z</time>
				</trkpt>
				<trkpt lat="55.02999" lon="-2.97206">
					<ele>16</ele>
					<time>0001-01-01T00:00:00Z</time>
				</trkpt>
				<trkpt lat="55.02673" lon="-2.97650">
					<ele>13</ele>
					<time>0001-01-01T00:00:00Z</time>
				</trkpt>
				<trkpt lat="55.02558" lon="-2.97766">
					<ele>13</ele>
					<time>0001-01-01T00:00:00Z</time>
				</trkpt>
				<trkpt lat="55.02442" lon="-2.97916">
					<ele>13</ele>
					<time>0001-01-01T00:00:00Z</time>
				</trkpt>
				<trkpt lat="55.02307" lon="-2.98103">
					<ele>13</ele>
					<time>0001-01-01T00:00:00Z</time>
				</trkpt>
				<trkpt lat="55.02173" lon="-2.98290">
					<ele>13</ele>
					<time>0001-01-01T00:00:00Z</time>
				</trkpt>
				<trkpt lat="55.02069" lon="-2.98434">
					<ele>13</ele>
					<time>0001-01-01T00:00:00Z</time>
				</trkpt>
				<trkpt lat="55.01984" lon="-2.98523">
					<ele>12</ele>
					<time>0001-01-01T00:00:00Z</time>
				</trkpt>
				<trkpt lat="55.01945" lon="-2.98522">
					<ele>13</ele>
					<time>0001-01-01T00:00:00Z</time>
				</trkpt>
				<trkpt lat="55.01790" lon="-2.98440">
					<ele>11</ele>
					<time>0001-01-01T00:00:00Z</time>
				</trkpt>
				<trkpt lat="55.01669" lon="-2.98373">
					<ele>11</ele>
					<time>0001-01-01T00:00:00Z</time>
				</trkpt>
				<trkpt lat="55.01501" lon="-2.98281">
					<ele>11</ele>
					<time>0001-01-01T00:00:00Z</time>
				</trkpt>
				<trkpt lat="55.01358" lon="-2.98203">
					<ele>11</ele>
					<time>0001-01-01T00:00:00Z</time>
				</trkpt>
				<trkpt lat="55.01173" lon="-2.98094">
					<ele>10</ele>
					<time>0001-01-01T00:00:00Z</time>
				</trkpt>
				<trkpt lat="55.01143" lon="-2.98015">
					<ele>11</ele>
					<time>0001-01-01T00:00:00Z</time>
				</trkpt>
				<trkpt lat="55.01119" lon="-2.97742">
					<ele>13</ele>
					<time>0001-01-01T00:00:00Z</time>
				</trkpt>
				<trkpt lat="55.01082" lon="-2.97523">
					<ele>15</ele>
					<time>0001-01-01T00:00:00Z</time>
				</trkpt>
				<trkpt lat="55.01044" lon="-2.97389">
					<ele>15</ele>
					<time>0001-01-01T00:00:00Z</time>
				</trkpt>
				<trkpt lat="55.00954" lon="-2.97273">
					<ele>15</ele>
					<time>0001-01-01T00:00:00Z</time>
				</trkpt>
				<trkpt lat="55.00850" lon="-2.97180">
					<ele>16</ele>
					<time>0001-01-01T00:00:00Z</time>
				</trkpt>
				<trkpt lat="55.00733" lon="-2.97103">
					<ele>15</ele>
					<time>0001-01-01T00:00:00Z</time>
				</trkpt>
				<trkpt lat="55.00709" lon="-2.97086">
					<ele>15</ele>
					<time>0001-01-01T00:00:00Z</time>
				</trkpt>
				<trkpt lat="55.00703" lon="-2.97028">
					<ele>16</ele>
					<time>0001-01-01T00:00:00Z</time>
				</trkpt>
				<trkpt lat="55.00705" lon="-2.97019">
					<ele>16</ele>
					<time>0001-01-01T00:00:00Z</time>
				</trkpt>
				<trkpt lat="55.00741" lon="-2.96852">
					<ele>18</ele>
					<time>0001-01-01T00:00:00Z</time>
				</trkpt>
				<trkpt lat="55.00712" lon="-2.96754">
					<ele>16</ele>
					<time>0001-01-01T00:00:00Z</time>
				</trkpt>
				<trkpt lat="55.00635" lon="-2.96541">
					<ele>15</ele>
					<time>0001-01-01T00:00:00Z</time>
				</trkpt>
				<trkpt lat="55.00541" lon="-2.96293">
					<ele>16</ele>
					<time>0001-01-01T00:00:00Z</time>
				</trkpt>
				<trkpt lat="55.00469" lon="-2.96104">
					<ele>16</ele>
					<time>0001-01-01T00:00:00Z</time>
				</trkpt>
				<trkpt lat="55.00380" lon="-2.95871">
					<ele>16</ele>
					<time>0001-01-01T00:00:00Z</time>
				</trkpt>
				<trkpt lat="55.00292" lon="-2.95627">
					<ele>15</ele>
					<time>0001-01-01T00:00:00Z</time>
				</trkpt>
				<trkpt lat="55.00207" lon="-2.95401">
					<ele>15</ele>
					<time>0001-01-01T00:00:00Z</time>
				</trkpt>
				<trkpt lat="55.00120" lon="-2.95165">
					<ele>15</ele>
					<time>0001-01-01T00:00:00Z</time>
				</trkpt>
				<trkpt lat="55.00029" lon="-2.94914">
					<ele>15</ele>
					<time>0001-01-01T00:00:00Z</time>
				</trkpt>
				<trkpt lat="54.99942" lon="-2.94683">
					<ele>16</ele>
					<time>0001-01-01T00:00:00Z</time>
				</trkpt>
				<trkpt lat="54.99856" lon="-2.94447">
					<ele>15</ele>
					<time>0001-01-01T00:00:00Z</time>
				</trkpt>
				<trkpt lat="54.99765" lon="-2.94208">
					<ele>16</ele>
					<time>0001-01-01T00:00:00Z</time>
				</trkpt>
				<trkpt lat="54.99697" lon="-2.94018">
					<ele>18</ele>
					<time>0001-01-01T00:00:00Z</time>
				</trkpt>
				<trkpt lat="54.99605" lon="-2.93773">
					<ele>19</ele>
					<time>0001-01-01T00:00:00Z</time>
				</trkpt>
				<trkpt lat="54.99509" lon="-2.93526">
					<ele>18</ele>
					<time>0001-01-01T00:00:00Z</time>
				</trkpt>
				<trkpt lat="54.99431" lon="-2.93305">
					<ele>21</ele>
					<time>0001-01-01T00:00:00Z</time>
				</trkpt>
				<trkpt lat="54.99319" lon="-2.93011">
					<ele>18</ele>
					<time>0001-01-01T00:00:00Z</time>
				</trkpt>
				<trkpt lat="54.99214" lon="-2.92724">
					<ele>18</ele>
					<time>0001-01-01T00:00:00Z</time>
				</trkpt>
				<trkpt lat="54.99090" lon="-2.92407">
					<ele>15</ele>
					<time>0001-01-01T00:00:00Z</time>
				</trkpt>
				<trkpt lat="54.99006" lon="-2.92192">
					<ele>15</ele>
					<time>0001-01-01T00:00:00Z</time>
				</trkpt>
				<trkpt lat="54.98886" lon="-2.92013">
					<ele>13</ele>
					<time>0001-01-01T00:00:00Z</time>
				</trkpt>
				<trkpt lat="54.98751" lon="-2.91814">
					<ele>15</ele>
					<time>0001-01-01T00:00:00Z</time>
				</trkpt>
				<trkpt lat="54.98690" lon="-2.91740">
					<ele>16</ele>
					<time>0001-01-01T00:00:00Z</time>
				</trkpt>
				<trkpt lat="54.98661" lon="-2.91709">
					<ele>17</ele>
					<time>0001-01-01T00:00:00Z</time>
				</trkpt>
				<trkpt lat="54.98561" lon="-2.91645">
					<ele>20</ele>
					<time>0001-01-01T00:00:00Z</time>
				</trkpt>
				<trkpt lat="54.98479" lon="-2.91591">
					<ele>19</ele>
					<time>0001-01-01T00:00:00Z</time>
				</trkpt>
				<trkpt lat="54.98456" lon="-2.91557">
					<ele>19</ele>
					<time>0001-01-01T00:00:00Z</time>
				</trkpt>
				<trkpt lat="54.98423" lon="-2.91354">
					<ele>18</ele>
					<time>0001-01-01T00:00:00Z</time>
				</trkpt>
				<trkpt lat="54.98410" lon="-2.91108">
					<ele>19</ele>
					<time>0001-01-01T00:00:00Z</time>
				</trkpt>
				<trkpt lat="54.98415" lon="-2.90858">
					<ele>21</ele>
					<time>0001-01-01T00:00:00Z</time>
				</trkpt>
				<trkpt lat="54.98392" lon="-2.90616">
					<ele>23</ele>
					<time>0001-01-01T00:00:00Z</time>
				</trkpt>
				<trkpt lat="54.98347" lon="-2.90416">
					<ele>25</ele>
					<time>0001-01-01T00:00:00Z</time>
				</trkpt>
				<trkpt lat="54.98299" lon="-2.90176">
					<ele>28</ele>
					<time>0001-01-01T00:00:00Z</time>
				</trkpt>
				<trkpt lat="54.98257" lon="-2.89889">
					<ele>32</ele>
					<time>0001-01-01T00:00:00Z</time>
				</trkpt>
				<trkpt lat="54.98224" lon="-2.89666">
					<ele>34</ele>
					<time>0001-01-01T00:00:00Z</time>
				</trkpt>
				<trkpt lat="54.98185" lon="-2.89402">
					<ele>34</ele>
					<time>0001-01-01T00:00:00Z</time>
				</trkpt>
				<trkpt lat="54.98152" lon="-2.89208">
					<ele>36</ele>
					<time>0001-01-01T00:00:00Z</time>
				</trkpt>
				<trkpt lat="54.98110" lon="-2.88964">
					<ele>38</ele>
					<time>0001-01-01T00:00:00Z</time>
				</trkpt>
				<trkpt lat="54.98035" lon="-2.88664">
					<ele>38</ele>
					<time>0001-01-01T00:00:00Z</time>
				</trkpt>
				<trkpt lat="54.97934" lon="-2.88285">
					<ele>39</ele>
					<time>0001-01-01T00:00:00Z</time>
				</trkpt>
				<trkpt lat="54.97917" lon="-2.88058">
					<ele>41</ele>
					<time>0001-01-01T00:00:00Z</time>
				</trkpt>
				<trkpt lat="54.97917" lon="-2.87977">
					<ele>42</ele>
					<time>0001-01-01T00:00:00Z</time>
				</trkpt>
				<trkpt lat="54.97975" lon="-2.87689">
					<ele>44</ele>
					<time>0001-01-01T00:00:00Z</time>
				</trkpt>
				<trkpt lat="54.97975" lon="-2.87649">
					<ele>44</ele>
					<time>0001-01-01T00:00:00Z</time>
				</trkpt>
				<trkpt lat="54.97938" lon="-2.87310">
					<ele>42</ele>
					<time>0001-01-01T00:00:00Z</time>
				</trkpt>
				<trkpt lat="54.97896" lon="-2.86940">
					<ele>39</ele>
					<time>0001-01-01T00:00:00Z</time>
				</trkpt>
				<trkpt lat="54.97846" lon="-2.86610">
					<ele>38</ele>
					<time>0001-01-01T00:00:00Z</time>
				</trkpt>
				<trkpt lat="54.97747" lon="-2.86389">
					<ele>36</ele>
					<time>0001-01-01T00:00:00Z</time>
				</trkpt>
				<trkpt lat="54.97613" lon="-2.86100">
					<ele>36</ele>
					<time>0001-01-01T00:00:00Z</time>
				</trkpt>
				<trkpt lat="54.97479" lon="-2.85737">
					<ele>39</ele>
					<time>0001-01-01T00:00:00Z</time>
				</trkpt>
				<trkpt lat="54.97447" lon="-2.85498">
					<ele>42</ele>
					<time>0001-01-01T00:00:00Z</time>
				</trkpt>
				<trkpt lat="54.97418" lon="-2.85291">
					<ele>41</ele>
					<time>0001-01-01T00:00:00Z</time>
				</trkpt>
				<trkpt lat="54.97367" lon="-2.84966">
					<ele>42</ele>
					<time>0001-01-01T00:00:00Z</time>
				</trkpt>
				<trkpt lat="54.97314" lon="-2.84699">
					<ele>45</ele>
					<time>0001-01-01T00:00:00Z</time>
				</trkpt>
				<trkpt lat="54.97265" lon="-2.84499">
					<ele>48</ele>
					<time>0001-01-01T00:00:00Z</time>
				</trkpt>
				<trkpt lat="54.97191" lon="-2.84243">
					<ele>45</ele>
					<time>0001-01-01T00:00:00Z</time>
				</trkpt>
				<trkpt lat="54.97112" lon="-2.83970">
					<ele>42</ele>
					<time>0001-01-01T00:00:00Z</time>
				</trkpt>
				<trkpt lat="54.97002" lon="-2.83563">
					<ele>43</ele>
					<time>0001-01-01T00:00:00Z</time>
				</trkpt>
				<trkpt lat="54.96928" lon="-2.83317">
					<ele>42</ele>
					<time>0001-01-01T00:00:00Z</time>
				</trkpt>
				<trkpt lat="54.96841" lon="-2.83037">
					<ele>38</ele>
					<time>0001-01-01T00:00:00Z</time>
				</trkpt>
				<trkpt lat="54.96740" lon="-2.82678">
					<ele>37</ele>
					<time>0001-01-01T00:00:00Z</time>
				</trkpt>
				<trkpt lat="54.96647" lon="-2.82205">
					<ele>35</ele>
					<time>0001-01-01T00:00:00Z</time>
				</trkpt>
				<trkpt lat="54.96583" lon="-2.81912">
					<ele>38</ele>
					<time>0001-01-01T00:00:00Z</time>
				</trkpt>
				<trkpt lat="54.96561" lon="-2.81832">
					<ele>39</ele>
					<time>0001-01-01T00:00:00Z</time>
				</trkpt>
				<trkpt lat="54.96532" lon="-2.81657">
					<ele>41</ele>
					<time>0001-01-01T00:00:00Z</time>
				</trkpt>
				<trkpt lat="54.96504" lon="-2.81452">
					<ele>46</ele>
					<time>0001-01-01T00:00:00Z</time>
				</trkpt>
				<trkpt lat="54.96471" lon="-2.81203">
					<ele>51</ele>
					<time>0001-01-01T00:00:00Z</time>
				</trkpt>
				<trkpt lat="54.96436" lon="-2.80944">
					<ele>55</ele>
					<time>0001-01-01T00:00:00Z</time>
				</trkpt>
				<trkpt lat="54.96404" lon="-2.80702">
					<ele>59</ele>
					<time>0001-01-01T00:00:00Z</time>
				</trkpt>
				<trkpt lat="54.96379" lon="-2.80511">
					<ele>62</ele>
					<time>0001-01-01T00:00:00Z</time>
				</trkpt>
				<trkpt lat="54.96364" lon="-2.80395">
					<ele>63</ele>
					<time>0001-01-01T00:00:00Z</time>
				</trkpt>
				<trkpt lat="54.96345" lon="-2.80257">
					<ele>62</ele>
					<time>0001-01-01T00:00:00Z</time>
				</trkpt>
				<trkpt lat="54.96308" lon="-2.79974">
					<ele>61</ele>
					<time>0001-01-01T00:00:00Z</time>
				</trkpt>
				<trkpt lat="54.96271" lon="-2.79695">
					<ele>65</ele>
					<time>0001-01-01T00:00:00Z</time>
				</trkpt>
				<trkpt lat="54.96222" lon="-2.79454">
					<ele>63</ele>
					<time>0001-01-01T00:00:00Z</time>
				</trkpt>
				<trkpt lat="54.96140" lon="-2.79171">
					<ele>62</ele>
					<time>0001-01-01T00:00:00Z</time>
				</trkpt>
				<trkpt lat="54.96070" lon="-2.78933">
					<ele>61</ele>
					<time>0001-01-01T00:00:00Z</time>
				</trkpt>
				<trkpt lat="54.95980" lon="-2.78618">
					<ele>61</ele>
					<time>0001-01-01T00:00:00Z</time>
				</trkpt>
				<trkpt lat="54.95880" lon="-2.78446">
					<ele>60</ele>
					<time>0001-01-01T00:00:00Z</time>
				</trkpt>
				<trkpt lat="54.95792" lon="-2.78305">
					<ele>62</ele>
					<time>0001-01-01T00:00:00Z</time>
				</trkpt>
				<trkpt lat="54.95720" lon="-2.78115">
					<ele>64</ele>
					<time>0001-01-01T00:00:00Z</time>
				</trkpt>
				<trkpt lat="54.95717" lon="-2.78095">
					<ele>64</ele>
					<time>0001-01-01T00:00:00Z</time>
				</trkpt>
				<trkpt lat="54.95710" lon="-2.77874">
					<ele>58</ele>
					<time>0001-01-01T00:00:00Z</time>
				</trkpt>
				<trkpt lat="54.95704" lon="-2.77514">
					<ele>48</ele>
					<time>0001-01-01T00:00:00Z</time>
				</trkpt>
				<trkpt lat="54.95658" lon="-2.76898">
					<ele>36</ele>
					<time>0001-01-01T00:00:00Z</time>
				</trkpt>
				<trkpt lat="54.95593" lon="-2.76576">
					<ele>33</ele>
					<time>0001-01-01T00:00:00Z</time>
				</trkpt>
				<trkpt lat="54.95552" lon="-2.76517">
					<ele>33</ele>
					<time>0001-01-01T00:00:00Z</time>
				</trkpt>
				<trkpt lat="54.95462" lon="-2.76380">
					<ele>35</ele>
					<time>0001-01-01T00:00:00Z</time>
				</trkpt>
				<trkpt lat="54.95446" lon="-2.76361">
					<ele>34</ele>
					<time>0001-01-01T00:00:00Z</time>
				</trkpt>
				<trkpt lat="54.95421" lon="-2.76348">
					<ele>35</ele>
					<time>0001-01-01T00:00:00Z</time>
				</trkpt>
				<trkpt lat="54.95379" lon="-2.76291">
					<ele>34</ele>
					<time>0001-01-01T00:00:00Z</time>
				</trkpt>
				<trkpt lat="54.95361" lon="-2.76233">
					<ele>34</ele>
					<time>0001-01-01T00:00:00Z</time>
				</trkpt>
				<trkpt lat="54.95328" lon="-2.76219">
					<ele>37</ele>
					<time>0001-01-01T00:00:00Z</time>
				</trkpt>
				<trkpt lat="54.95295" lon="-2.76232">
					<ele>36</ele>
					<time>0001-01-01T00:00:00Z</time>
				</trkpt>
				<trkpt lat="54.95272" lon="-2.76222">
					<ele>35</ele>
					<time>0001-01-01T00:00:00Z</time>
				</trkpt>
				<trkpt lat="54.95244" lon="-2.76185">
					<ele>35</ele>
					<time>0001-01-01T00:00:00Z</time>
				</trkpt>
				<trkpt lat="54.95213" lon="-2.76101">
					<ele>34</ele>
					<time>0001-01-01T00:00:00Z</time>
				</trkpt>
				<trkpt lat="54.95198" lon="-2.76077">
					<ele>34</ele>
					<time>0001-01-01T00:00:00Z</time>
				</trkpt>
				<trkpt lat="54.95194" lon="-2.76074">
					<ele>33</ele>
					<time>0001-01-01T00:00:00Z</time>
				</trkpt>
				<trkpt lat="54.95194" lon="-2.76075">
					<ele>33</ele>
					<time>0001-01-01T00:00:00Z</time>
				</trkpt>
				<trkpt lat="54.95194" lon="-2.76074">
					<ele>33</ele>
					<time>0001-01-01T00:00:00Z</time>
				</trkpt>
				<trkpt lat="54.95196" lon="-2.76067">
					<ele>33</ele>
					<time>0001-01-01T00:00:00Z</time>
				</trkpt>
				<trkpt lat="54.95212" lon="-2.75986">
					<ele>32</ele>
					<time>0001-01-01T00:00:00Z</time>
				</trkpt>
				<trkpt lat="54.95249" lon="-2.75801">
					<ele>34</ele>
					<time>0001-01-01T00:00:00Z</time>
				</trkpt>
				<trkpt lat="54.95242" lon="-2.75751">
					<ele>35</ele>
					<time>0001-01-01T00:00:00Z</time>
				</trkpt>
				<trkpt lat="54.95179" lon="-2.75504">
					<ele>36</ele>
					<time>0001-01-01T00:00:00Z</time>
				</trkpt>
				<trkpt lat="54.95148" lon="-2.75125">
					<ele>38</ele>
					<time>0001-01-01T00:00:00Z</time>
				</trkpt>
				<trkpt lat="54.95113" lon="-2.74932">
					<ele>40</ele>
					<time>0001-01-01T00:00:00Z</time>
				</trkpt>
				<trkpt lat="54.95051" lon="-2.74783">
					<ele>41</ele>
					<time>0001-01-01T00:00:00Z</time>
				</trkpt>
				<trkpt lat="54.94986" lon="-2.74639">
					<ele>46</ele>
					<time>0001-01-01T00:00:00Z</time>
				</trkpt>
				<trkpt lat="54.94916" lon="-2.74496">
					<ele>53</ele>
					<time>0001-01-01T00:00:00Z</time>
				</trkpt>
				<trkpt lat="54.94827" lon="-2.74413">
					<ele>56</ele>
					<time>0001-01-01T00:00:00Z</time>
				</trkpt>
				<trkpt lat="54.94713" lon="-2.74354">
					<ele>62</ele>
					<time>0001-01-01T00:00:00Z</time>
				</trkpt>
				<trkpt lat="54.94597" lon="-2.74267">
					<ele>62</ele>
					<time>0001-01-01T00:00:00Z</time>
				</trkpt>
				<trkpt lat="54.94484" lon="-2.74159">
					<ele>65</ele>
					<time>0001-01-01T00:00:00Z</time>
				</trkpt>
				<trkpt lat="54.94431" lon="-2.74129">
					<ele>68</ele>
					<time>0001-01-01T00:00:00Z</time>
				</trkpt>
				<trkpt lat="54.94334" lon="-2.74085">
					<ele>69</ele>
					<time>0001-01-01T00:00:00Z</time>
				</trkpt>
				<trkpt lat="54.94262" lon="-2.74040">
					<ele>64</ele>
					<time>0001-01-01T00:00:00Z</time>
				</trkpt>
				<trkpt lat="54.94203" lon="-2.73952">
					<ele>63</ele>
					<time>0001-01-01T00:00:00Z</time>
				</trkpt>
				<trkpt lat="54.94193" lon="-2.73886">
					<ele>64</ele>
					<time>0001-01-01T00:00:00Z</time>
				</trkpt>
				<trkpt lat="54.94197" lon="-2.73862">
					<ele>63</ele>
					<time>0001-01-01T00:00:00Z</time>
				</trkpt>
				<trkpt lat="54.94204" lon="-2.73836">
					<ele>63</ele>
					<time>0001-01-01T00:00:00Z</time>
				</trkpt>
				<trkpt lat="54.94266" lon="-2.73628">
					<ele>65</ele>
					<time>0001-01-01T00:00:00Z</time>
				</trkpt>
				<trkpt lat="54.94308" lon="-2.73447">
					<ele>67</ele>
					<time>0001-01-01T00:00:00Z</time>
				</trkpt>
				<trkpt lat="54.94312" lon="-2.73222">
					<ele>70</ele>
					<time>0001-01-01T00:00:00Z</time>
				</trkpt>
				<trkpt lat="54.94310" lon="-2.73103">
					<ele>75</ele>
					<time>0001-01-01T00:00:00Z</time>
				</trkpt>
				<trkpt lat="54.94297" lon="-2.72961">
					<ele>76</ele>
					<time>0001-01-01T00:00:00Z</time>
				</trkpt>
				<trkpt lat="54.94306" lon="-2.72822">
					<ele>75</ele>
					<time>0001-01-01T00:00:00Z</time>
				</trkpt>
				<trkpt lat="54.94281" lon="-2.72615">
					<ele>78</ele>
					<time>0001-01-01T00:00:00Z</time>
				</trkpt>
				<trkpt lat="54.94246" lon="-2.72418">
					<ele>82</ele>
					<time>0001-01-01T00:00:00Z</time>
				</trkpt>
				<trkpt lat="54.94225" lon="-2.72345">
					<ele>84</ele>
					<time>0001-01-01T00:00:00Z</time>
				</trkpt>
				<trkpt lat="54.94215" lon="-2.72238">
					<ele>87</ele>
					<time>0001-01-01T00:00:00Z</time>
				</trkpt>
				<trkpt lat="54.94206" lon="-2.72209">
					<ele>87</ele>
					<time>0001-01-01T00:00:00Z</time>
				</trkpt>
				<trkpt lat="54.94174" lon="-2.71999">
					<ele>93</ele>
					<time>0001-01-01T00:00:00Z</time>
				</trkpt>
				<trkpt lat="54.94153" lon="-2.71829">
					<ele>96</ele>
					<time>0001-01-01T00:00:00Z</time>
				</trkpt>
				<trkpt lat="54.94135" lon="-2.71652">
					<ele>94</ele>
					<time>0001-01-01T00:00:00Z</time>
				</trkpt>
				<trkpt lat="54.94135" lon="-2.71638">
					<ele>95</ele>
					<time>0001-01-01T00:00:00Z</time>
				</trkpt>
				<trkpt lat="54.94125" lon="-2.71548">
					<ele>95</ele>
					<time>0001-01-01T00:00:00Z</time>
				</trkpt>
				<trkpt lat="54.94148" lon="-2.71523">
					<ele>95</ele>
					<time>0001-01-01T00:00:00Z</time>
				</trkpt>
				<trkpt lat="54.94151" lon="-2.71469">
					<ele>99</ele>
					<time>0001-01-01T00:00:00Z</time>
				</trkpt>
				<trkpt lat="54.94156" lon="-2.71448">
					<ele>100</ele>
					<time>0001-01-01T00:00:00Z</time>
				</trkpt>
				<trkpt lat="54.94156" lon="-2.71444">
					<ele>100</ele>
					<time>0001-01-01T00:00:00Z</time>
				</trkpt>
				<trkpt lat="54.94110" lon="-2.71321">
					<ele>97</ele>
					<time>0001-01-01T00:00:00Z</time>
				</trkpt>
				<trkpt lat="54.94045" lon="-2.71229">
					<ele>106</ele>
					<time>0001-01-01T00:00:00Z</time>
				</trkpt>
				<trkpt lat="54.94031" lon="-2.71233">
					<ele>109</ele>
					<time>0001-01-01T00:00:00Z</time>
				</trkpt>
				<trkpt lat="54.94000" lon="-2.71191">
					<ele>114</ele>
					<time>0001-01-01T00:00:00Z</time>
				</trkpt>
				<trkpt lat="54.93996" lon="-2.71123">
					<ele>118</ele>
					<time>0001-01-01T00:00:00Z</time>
				</trkpt>
				<trkpt lat="54.93958" lon="-2.70948">
					<ele>119</ele>
					<time>0001-01-01T00:00:00Z</time>
				</trkpt>
				<trkpt lat="54.93877" lon="-2.70797">
					<ele>115</ele>
					<time>0001-01-01T00:00:00Z</time>
				</trkpt>
				<trkpt lat="54.93797" lon="-2.70623">
					<ele>119</ele>
					<time>0001-01-01T00:00:00Z</time>
				</trkpt>
				<trkpt lat="54.93786" lon="-2.70525">
					<ele>123</ele>
					<time>0001-01-01T00:00:00Z</time>
				</trkpt>
				<trkpt lat="54.93745" lon="-2.70345">
					<ele>125</ele>
					<time>0001-01-01T00:00:00Z</time>
				</trkpt>
				<trkpt lat="54.93737" lon="-2.70320">
					<ele>126</ele>
					<time>0001-01-01T00:00:00Z</time>
				</trkpt>
				<trkpt lat="54.93715" lon="-2.70142">
					<ele>125</ele>
					<time>0001-01-01T00:00:00Z</time>
				</trkpt>
				<trkpt lat="54.93714" lon="-2.70104">
					<ele>124</ele>
					<time>0001-01-01T00:00:00Z</time>
				</trkpt>
				<trkpt lat="54.93713" lon="-2.70052">
					<ele>124</ele>
					<time>0001-01-01T00:00:00Z</time>
				</trkpt>
				<trkpt lat="54.93698" lon="-2.69900">
					<ele>124</ele>
					<time>0001-01-01T00:00:00Z</time>
				</trkpt>
				<trkpt lat="54.93736" lon="-2.69670">
					<ele>125</ele>
					<time>0001-01-01T00:00:00Z</time>
				</trkpt>
				<trkpt lat="54.93781" lon="-2.69531">
					<ele>129</ele>
					<time>0001-01-01T00:00:00Z</time>
				</trkpt>
				<trkpt lat="54.93777" lon="-2.69511">
					<ele>128</ele>
					<time>0001-01-01T00:00:00Z</time>
				</trkpt>
				<trkpt lat="54.93748" lon="-2.69372">
					<ele>131</ele>
					<time>0001-01-01T00:00:00Z</time>
				</trkpt>
				<trkpt lat="54.93713" lon="-2.69233">
					<ele>135</ele>
					<time>0001-01-01T00:00:00Z</time>
				</trkpt>
				<trkpt lat="54.93660" lon="-2.69004">
					<ele>134</ele>
					<time>0001-01-01T00:00:00Z</time>
				</trkpt>
				<trkpt lat="54.93607" lon="-2.68760">
					<ele>136</ele>
					<time>0001-01-01T00:00:00Z</time>
				</trkpt>
				<trkpt lat="54.93555" lon="-2.68532">
					<ele>140</ele>
					<time>0001-01-01T00:00:00Z</time>
				</trkpt>
				<trkpt lat="54.93517" lon="-2.68353">
					<ele>147</ele>
					<time>0001-01-01T00:00:00Z</time>
				</trkpt>
				<trkpt lat="54.93503" lon="-2.68168">
					<ele>147</ele>
					<time>0001-01-01T00:00:00Z</time>
				</trkpt>
				<trkpt lat="54.93492" lon="-2.68012">
					<ele>142</ele>
					<time>0001-01-01T00:00:00Z</time>
				</trkpt>
				<trkpt lat="54.93513" lon="-2.67939">
					<ele>144</ele>
					<time>0001-01-01T00:00:00Z</time>
				</trkpt>
				<trkpt lat="54.93572" lon="-2.67746">
					<ele>149</ele>
					<time>0001-01-01T00:00:00Z</time>
				</trkpt>
				<trkpt lat="54.93575" lon="-2.67692">
					<ele>151</ele>
					<time>0001-01-01T00:00:00Z</time>
				</trkpt>
				<trkpt lat="54.93549" lon="-2.67653">
					<ele>150</ele>
					<time>0001-01-01T00:00:00Z</time>
				</trkpt>
				<trkpt lat="54.93527" lon="-2.67648">
					<ele>149</ele>
					<time>0001-01-01T00:00:00Z</time>
				</trkpt>
				<trkpt lat="54.93500" lon="-2.67623">
					<ele>149</ele>
					<time>0001-01-01T00:00:00Z</time>
				</trkpt>
				<trkpt lat="54.93420" lon="-2.67493">
					<ele>153</ele>
					<time>0001-01-01T00:00:00Z</time>
				</trkpt>
				<trkpt lat="54.93356" lon="-2.67353">
					<ele>155</ele>
					<time>0001-01-01T00:00:00Z</time>
				</trkpt>
				<trkpt lat="54.93331" lon="-2.67294">
					<ele>156</ele>
					<time>0001-01-01T00:00:00Z</time>
				</trkpt>
				<trkpt lat="54.93313" lon="-2.67224">
					<ele>157</ele>
					<time>0001-01-01T00:00:00Z</time>
				</trkpt>
				<trkpt lat="54.93273" lon="-2.67079">
					<ele>157</ele>
					<time>0001-01-01T00:00:00Z</time>
				</trkpt>
				<trkpt lat="54.93258" lon="-2.66968">
					<ele>163</ele>
					<time>0001-01-01T00:00:00Z</time>
				</trkpt>
				<trkpt lat="54.93251" lon="-2.66847">
					<ele>165</ele>
					<time>0001-01-01T00:00:00Z</time>
				</trkpt>
				<trkpt lat="54.93251" lon="-2.66778">
					<ele>165</ele>
					<time>0001-01-01T00:00:00Z</time>
				</trkpt>
				<trkpt lat="54.93242" lon="-2.66745">
					<ele>165</ele>
					<time>0001-01-01T00:00:00Z</time>
				</trkpt>
				<trkpt lat="54.93165" lon="-2.66643">
					<ele>173</ele>
					<time>0001-01-01T00:00:00Z</time>
				</trkpt>
				<trkpt lat="54.93108" lon="-2.66584">
					<ele>173</ele>
					<time>0001-01-01T00:00:00Z</time>
				</trkpt>
				<trkpt lat="54.93111" lon="-2.66445">
					<ele>175</ele>
					<time>0001-01-01T00:00:00Z</time>
				</trkpt>
				<trkpt lat="54.93089" lon="-2.66314">
					<ele>179</ele>
					<time>0001-01-01T00:00:00Z</time>
				</trkpt>
				<trkpt lat="54.93088" lon="-2.66176">
					<ele>193</ele>
					<time>0001-01-01T00:00:00Z</time>
				</trkpt>
				<trkpt lat="54.92999" lon="-2.65814">
					<ele>202</ele>
					<time>0001-01-01T00:00:00Z</time>
				</trkpt>
				<trkpt lat="54.92971" lon="-2.65753">
					<ele>204</ele>
					<time>0001-01-01T00:00:00Z</time>
				</trkpt>
				<trkpt lat="54.92962" lon="-2.65729">
					<ele>203</ele>
					<time>0001-01-01T00:00:00Z</time>
				</trkpt>
				<trkpt lat="54.92926" lon="-2.65543">
					<ele>201</ele>
					<time>0001-01-01T00:00:00Z</time>
				</trkpt>
				<trkpt lat="54.92943" lon="-2.65359">
					<ele>203</ele>
					<time>0001-01-01T00:00:00Z</time>
				</trkpt>
				<trkpt lat="54.92975" lon="-2.65192">
					<ele>204</ele>
					<time>0001-01-01T00:00:00Z</time>
				</trkpt>
				<trkpt lat="54.93007" lon="-2.64954">
					<ele>204</ele>
					<time>0001-01-01T00:00:00Z</time>
				</trkpt>
				<trkpt lat="54.93062" lon="-2.64705">
					<ele>204</ele>
					<time>0001-01-01T00:00:00Z</time>
				</trkpt>
				<trkpt lat="54.93151" lon="-2.64370">
					<ele>204</ele>
					<time>0001-01-01T00:00:00Z</time>
				</trkpt>
				<trkpt lat="54.93193" lon="-2.64202">
					<ele>208</ele>
					<time>0001-01-01T00:00:00Z</time>
				</trkpt>
				<trkpt lat="54.93207" lon="-2.64120">
					<ele>209</ele>
					<time>0001-01-01T00:00:00Z</time>
				</trkpt>
				<trkpt lat="54.93238" lon="-2.63919">
					<ele>212</ele>
					<time>0001-01-01T00:00:00Z</time>
				</trkpt>
				<trkpt lat="54.93274" lon="-2.63754">
					<ele>210</ele>
					<time>0001-01-01T00:00:00Z</time>
				</trkpt>
				<trkpt lat="54.93314" lon="-2.63514">
					<ele>214</ele>
					<time>0001-01-01T00:00:00Z</time>
				</trkpt>
				<trkpt lat="54.93326" lon="-2.63261">
					<ele>211</ele>
					<time>0001-01-01T00:00:00Z</time>
				</trkpt>
				<trkpt lat="54.93311" lon="-2.63142">
					<ele>211</ele>
					<time>0001-01-01T00:00:00Z</time>
				</trkpt>
				<trkpt lat="54.93312" lon="-2.63101">
					<ele>210</ele>
					<time>0001-01-01T00:00:00Z</time>
				</trkpt>
				<trkpt lat="54.93352" lon="-2.62781">
					<ele>213</ele>
					<time>0001-01-01T00:00:00Z</time>
				</trkpt>
				<trkpt lat="54.93354" lon="-2.62667">
					<ele>214</ele>
					<time>0001-01-01T00:00:00Z</time>
				</trkpt>
				<trkpt lat="54.93320" lon="-2.62382">
					<ele>208</ele>
					<time>0001-01-01T00:00:00Z</time>
				</trkpt>
				<trkpt lat="54.93330" lon="-2.62088">
					<ele>209</ele>
					<time>0001-01-01T00:00:00Z</time>
				</trkpt>
				<trkpt lat="54.93379" lon="-2.61821">
					<ele>208</ele>
					<time>0001-01-01T00:00:00Z</time>
				</trkpt>
				<trkpt lat="54.93435" lon="-2.61493">
					<ele>206</ele>
					<time>0001-01-01T00:00:00Z</time>
				</trkpt>
				<trkpt lat="54.93470" lon="-2.61230">
					<ele>204</ele>
					<time>0001-01-01T00:00:00Z</time>
				</trkpt>
				<trkpt lat="54.93464" lon="-2.61166">
					<ele>203</ele>
					<time>0001-01-01T00:00:00Z</time>
				</trkpt>
				<trkpt lat="54.93387" lon="-2.60891">
					<ele>197</ele>
					<time>0001-01-01T00:00:00Z</time>
				</trkpt>
				<trkpt lat="54.93293" lon="-2.60762">
					<ele>196</ele>
					<time>0001-01-01T00:00:00Z</time>
				</trkpt>
				<trkpt lat="54.93180" lon="-2.60699">
					<ele>197</ele>
					<time>0001-01-01T00:00:00Z</time>
				</trkpt>
				<trkpt lat="54.93097" lon="-2.60534">
					<ele>196</ele>
					<time>0001-01-01T00:00:00Z</time>
				</trkpt>
				<trkpt lat="54.93058" lon="-2.60346">
					<ele>194</ele>
					<time>0001-01-01T00:00:00Z</time>
				</trkpt>
				<trkpt lat="54.93077" lon="-2.60212">
					<ele>194</ele>
					<time>0001-01-01T00:00:00Z</time>
				</trkpt>
				<trkpt lat="54.93079" lon="-2.59946">
					<ele>195</ele>
					<time>0001-01-01T00:00:00Z</time>
				</trkpt>
				<trkpt lat="54.93064" lon="-2.59680">
					<ele>196</ele>
					<time>0001-01-01T00:00:00Z</time>
				</trkpt>
				<trkpt lat="54.93042" lon="-2.59414">
					<ele>195</ele>
					<time>0001-01-01T00:00:00Z</time>
				</trkpt>
				<trkpt lat="54.93014" lon="-2.59290">
					<ele>195</ele>
					<time>0001-01-01T00:00:00Z</time>
				</trkpt>
				<trkpt lat="54.92970" lon="-2.59237">
					<ele>195</ele>
					<time>0001-01-01T00:00:00Z</time>
				</trkpt>
				<trkpt lat="54.92826" lon="-2.59175">
					<ele>195</ele>
					<time>0001-01-01T00:00:00Z</time>
				</trkpt>
				<trkpt lat="54.92806" lon="-2.59160">
					<ele>195</ele>
					<time>0001-01-01T00:00:00Z</time>
				</trkpt>
				<trkpt lat="54.92779" lon="-2.59046">
					<ele>193</ele>
					<time>0001-01-01T00:00:00Z</time>
				</trkpt>
				<trkpt lat="54.92783" lon="-2.59017">
					<ele>193</ele>
					<time>0001-01-01T00:00:00Z</time>
				</trkpt>
				<trkpt lat="54.92797" lon="-2.58931">
					<ele>194</ele>
					<time>0001-01-01T00:00:00Z</time>
				</trkpt>
				<trkpt lat="54.92788" lon="-2.58854">
					<ele>193</ele>
					<time>0001-01-01T00:00:00Z</time>
				</trkpt>
				<trkpt lat="54.92769" lon="-2.58779">
					<ele>192</ele>
					<time>0001-01-01T00:00:00Z</time>
				</trkpt>
				<trkpt lat="54.92760" lon="-2.58665">
					<ele>194</ele>
					<time>0001-01-01T00:00:00Z</time>
				</trkpt>
				<trkpt lat="54.92735" lon="-2.58600">
					<ele>195</ele>
					<time>0001-01-01T00:00:00Z</time>
				</trkpt>
				<trkpt lat="54.92709" lon="-2.58569">
					<ele>197</ele>
					<time>0001-01-01T00:00:00Z</time>
				</trkpt>
				<trkpt lat="54.92699" lon="-2.58549">
					<ele>197</ele>
					<time>0001-01-01T00:00:00Z</time>
				</trkpt>
				<trkpt lat="54.92689" lon="-2.58507">
					<ele>197</ele>
					<time>0001-01-01T00:00:00Z</time>
				</trkpt>
				<trkpt lat="54.92696" lon="-2.58378">
					<ele>200</ele>
					<time>0001-01-01T00:00:00Z</time>
				</trkpt>
				<trkpt lat="54.92710" lon="-2.58207">
					<ele>203</ele>
					<time>0001-01-01T00:00:00Z</time>
				</trkpt>
				<trkpt lat="54.92716" lon="-2.58029">
					<ele>208</ele>
					<time>0001-01-01T00:00:00Z</time>
				</trkpt>
				<trkpt lat="54.92737" lon="-2.57882">
					<ele>211</ele>
					<time>0001-01-01T00:00:00Z</time>
				</trkpt>
				<trkpt lat="54.92729" lon="-2.57775">
					<ele>214</ele>
					<time>0001-01-01T00:00:00Z</time>
				</trkpt>
				<trkpt lat="54.92675" lon="-2.57623">
					<ele>219</ele>
					<time>0001-01-01T00:00:00Z</time>
				</trkpt>
				<trkpt lat="54.92621" lon="-2.57418">
					<ele>225</ele>
					<time>0001-01-01T00:00:00Z</time>
				</trkpt>
				<trkpt lat="54.92565" lon="-2.57251">
					<ele>222</ele>
					<time>0001-01-01T00:00:00Z</time>
				</trkpt>
				<trkpt lat="54.92553" lon="-2.57202">
					<ele>221</ele>
					<time>0001-01-01T00:00:00Z</time>
				</trkpt>
				<trkpt lat="54.92527" lon="-2.57142">
					<ele>220</ele>
					<time>0001-01-01T00:00:00Z</time>
				</trkpt>
				<trkpt lat="54.92430" lon="-2.57030">
					<ele>221</ele>
					<time>0001-01-01T00:00:00Z</time>
				</trkpt>
				<trkpt lat="54.92411" lon="-2.56956">
					<ele>220</ele>
					<time>0001-01-01T00:00:00Z</time>
				</trkpt>
				<trkpt lat="54.92419" lon="-2.56653">
					<ele>211</ele>
					<time>0001-01-01T00:00:00Z</time>
				</trkpt>
				<trkpt lat="54.92401" lon="-2.56428">
					<ele>203</ele>
					<time>0001-01-01T00:00:00Z</time>
				</trkpt>
				<trkpt lat="54.92347" lon="-2.56189">
					<ele>203</ele>
					<time>0001-01-01T00:00:00Z</time>
				</trkpt>
				<trkpt lat="54.92308" lon="-2.55953">
					<ele>203</ele>
					<time>0001-01-01T00:00:00Z</time>
				</trkpt>
				<trkpt lat="54.92292" lon="-2.55759">
					<ele>206</ele>
					<time>0001-01-01T00:00:00Z</time>
				</trkpt>
				<trkpt lat="54.92280" lon="-2.55575">
					<ele>208</ele>
					<time>0001-01-01T00:00:00Z</time>
				</trkpt>
				<trkpt lat="54.92286" lon="-2.55353">
					<ele>209</ele>
					<time>0001-01-01T00:00:00Z</time>
				</trkpt>
				<trkpt lat="54.92290" lon="-2.55239">
					<ele>210</ele>
					<time>0001-01-01T00:00:00Z</time>
				</trkpt>
				<trkpt lat="54.92278" lon="-2.55185">
					<ele>210</ele>
					<time>0001-01-01T00:00:00Z</time>
				</trkpt>
				<trkpt lat="54.92209" lon="-2.55046">
					<ele>212</ele>
					<time>0001-01-01T00:00:00Z</time>
				</trkpt>
				<trkpt lat="54.92194" lon="-2.55004">
					<ele>211</ele>
					<time>0001-01-01T00:00:00Z</time>
				</trkpt>
				<trkpt lat="54.92164" lon="-2.54774">
					<ele>208</ele>
					<time>0001-01-01T00:00:00Z</time>
				</trkpt>
				<trkpt lat="54.92099" lon="-2.54499">
					<ele>206</ele>
					<time>0001-01-01T00:00:00Z</time>
				</trkpt>
				<trkpt lat="54.91998" lon="-2.54212">
					<ele>210</ele>
					<time>0001-01-01T00:00:00Z</time>
				</trkpt>
				<trkpt lat="54.91980" lon="-2.54040">
					<ele>211</ele>
					<time>0001-01-01T00:00:00Z</time>
				</trkpt>
				<trkpt lat="54.91986" lon="-2.53723">
					<ele>204</ele>
					<time>0001-01-01T00:00:00Z</time>
				</trkpt>
				<trkpt lat="54.92004" lon="-2.53566">
					<ele>203</ele>
					<time>0001-01-01T00:00:00Z</time>
				</trkpt>
				<trkpt lat="54.92007" lon="-2.53525">
					<ele>202</ele>
					<time>0001-01-01T00:00:00Z</time>
				</trkpt>
				<trkpt lat="54.92014" lon="-2.53284">
					<ele>202</ele>
					<time>0001-01-01T00:00:00Z</time>
				</trkpt>
				<trkpt lat="54.92056" lon="-2.53059">
					<ele>204</ele>
					<time>0001-01-01T00:00:00Z</time>
				</trkpt>
				<trkpt lat="54.92102" lon="-2.52749">
					<ele>205</ele>
					<time>0001-01-01T00:00:00Z</time>
				</trkpt>
				<trkpt lat="54.92113" lon="-2.52529">
					<ele>209</ele>
					<time>0001-01-01T00:00:00Z</time>
				</trkpt>
				<trkpt lat="54.92086" lon="-2.52295">
					<ele>214</ele>
					<time>0001-01-01T00:00:00Z</time>
				</trkpt>
				<trkpt lat="54.92053" lon="-2.52064">
					<ele>217</ele>
					<time>0001-01-01T00:00:00Z</time>
				</trkpt>
				<trkpt lat="54.92035" lon="-2.51798">
					<ele>221</ele>
					<time>0001-01-01T00:00:00Z</time>
				</trkpt>
				<trkpt lat="54.92007" lon="-2.51588">
					<ele>218</ele>
					<time>0001-01-01T00:00:00Z</time>
				</trkpt>
				<trkpt lat="54.91959" lon="-2.51406">
					<ele>220</ele>
					<time>0001-01-01T00:00:00Z</time>
				</trkpt>
				<trkpt lat="54.91939" lon="-2.51378">
					<ele>222</ele>
					<time>0001-01-01T00:00:00Z</time>
				</trkpt>
				<trkpt lat="54.91921" lon="-2.51366">
					<ele>223</ele>
					<time>0001-01-01T00:00:00Z</time>
				</trkpt>
				<trkpt lat="54.91902" lon="-2.51364">
					<ele>223</ele>
					<time>0001-01-01T00:00:00Z</time>
				</trkpt>
				<trkpt lat="54.91793" lon="-2.51418">
					<ele>226</ele>
					<time>0001-01-01T00:00:00Z</time>
				</trkpt>
				<trkpt lat="54.91703" lon="-2.51386">
					<ele>228</ele>
					<time>0001-01-01T00:00:00Z</time>
				</trkpt>
				<trkpt lat="54.91596" lon="-2.51285">
					<ele>230</ele>
					<time>0001-01-01T00:00:00Z</time>
				</trkpt>
				<trkpt lat="54.91593" lon="-2.51279">
					<ele>230</ele>
					<time>0001-01-01T00:00:00Z</time>
				</trkpt>
				<trkpt lat="54.91529" lon="-2.51153">
					<ele>233</ele>
					<time>0001-01-01T00:00:00Z</time>
				</trkpt>
				<trkpt lat="54.91430" lon="-2.51059">
					<ele>237</ele>
					<time>0001-01-01T00:00:00Z</time>
				</trkpt>
				<trkpt lat="54.91325" lon="-2.50992">
					<ele>238</ele>
					<time>0001-01-01T00:00:00Z</time>
				</trkpt>
				<trkpt lat="54.91211" lon="-2.50956">
					<ele>238</ele>
					<time>0001-01-01T00:00:00Z</time>
				</trkpt>
				<trkpt lat="54.91092" lon="-2.50935">
					<ele>239</ele>
					<time>0001-01-01T00:00:00Z</time>
				</trkpt>
				<trkpt lat="54.91000" lon="-2.50953">
					<ele>241</ele>
					<time>0001-01-01T00:00:00Z</time>
				</trkpt>
				<trkpt lat="54.90867" lon="-2.50986">
					<ele>242</ele>
					<time>0001-01-01T00:00:00Z</time>
				</trkpt>
				<trkpt lat="54.90764" lon="-2.50997">
					<ele>243</ele>
					<time>0001-01-01T00:00:00Z</time>
				</trkpt>
				<trkpt lat="54.90632" lon="-2.51003">
					<ele>244</ele>
					<time>0001-01-01T00:00:00Z</time>
				</trkpt>
				<trkpt lat="54.90505" lon="-2.51031">
					<ele>243</ele>
					<time>0001-01-01T00:00:00Z</time>
				</trkpt>
				<trkpt lat="54.90406" lon="-2.51090">
					<ele>243</ele>
					<time>0001-01-01T00:00:00Z</time>
				</trkpt>
				<trkpt lat="54.90290" lon="-2.51215">
					<ele>244</ele>
					<time>0001-01-01T00:00:00Z</time>
				</trkpt>
				<trkpt lat="54.90191" lon="-2.51321">
					<ele>243</ele>
					<time>0001-01-01T00:00:00Z</time>
				</trkpt>
				<trkpt lat="54.90168" lon="-2.51343">
					<ele>243</ele>
					<time>0001-01-01T00:00:00Z</time>
				</trkpt>
				<trkpt lat="54.90074" lon="-2.51437">
					<ele>239</ele>
					<time>0001-01-01T00:00:00Z</time>
				</trkpt>
				<trkpt lat="54.90065" lon="-2.51405">
					<ele>240</ele>
					<time>0001-01-01T00:00:00Z</time>
				</trkpt>
				<trkpt lat="54.90066" lon="-2.51310">
					<ele>241</ele>
					<time>0001-01-01T00:00:00Z</time>
				</trkpt>
				<trkpt lat="54.90032" lon="-2.51149">
					<ele>238</ele>
					<time>0001-01-01T00:00:00Z</time>
				</trkpt>
				<trkpt lat="54.89956" lon="-2.50992">
					<ele>241</ele>
					<time>0001-01-01T00:00:00Z</time>
				</trkpt>
				<trkpt lat="54.89864" lon="-2.50942">
					<ele>241</ele>
					<time>0001-01-01T00:00:00Z</time>
				</trkpt>
				<trkpt lat="54.89717" lon="-2.50880">
					<ele>241</ele>
					<time>0001-01-01T00:00:00Z</time>
				</trkpt>
				<trkpt lat="54.89588" lon="-2.50834">
					<ele>242</ele>
					<time>0001-01-01T00:00:00Z</time>
				</trkpt>
				<trkpt lat="54.89446" lon="-2.50788">
					<ele>238</ele>
					<time>0001-01-01T00:00:00Z</time>
				</trkpt>
				<trkpt lat="54.89293" lon="-2.50748">
					<ele>234</ele>
					<time>0001-01-01T00:00:00Z</time>
				</trkpt>
				<trkpt lat="54.89230" lon="-2.50734">
					<ele>232</ele>
					<time>0001-01-01T00:00:00Z</time>
				</trkpt>
				<trkpt lat="54.89070" lon="-2.50629">
					<ele>228</ele>
					<time>0001-01-01T00:00:00Z</time>
				</trkpt>
				<trkpt lat="54.88925" lon="-2.50572">
					<ele>228</ele>
					<time>0001-01-01T00:00:00Z</time>
				</trkpt>
				<trkpt lat="54.88780" lon="-2.50574">
					<ele>224</ele>
					<time>0001-01-01T00:00:00Z</time>
				</trkpt>
				<trkpt lat="54.88618" lon="-2.50635">
					<ele>222</ele>
					<time>0001-01-01T00:00:00Z</time>
				</trkpt>
				<trkpt lat="54.88469" lon="-2.50700">
					<ele>224</ele>
					<time>0001-01-01T00:00:00Z</time>
				</trkpt>
				<trkpt lat="54.88372" lon="-2.50751">
					<ele>222</ele>
					<time>0001-01-01T00:00:00Z</time>
				</trkpt>
				<trkpt lat="54.88335" lon="-2.50769">
					<ele>221</ele>
					<time>0001-01-01T00:00:00Z</time>
				</trkpt>
				<trkpt lat="54.88296" lon="-2.50754">
					<ele>221</ele>
					<time>0001-01-01T00:00:00Z</time>
				</trkpt>
				<trkpt lat="54.88171" lon="-2.50603">
					<ele>220</ele>
					<time>0001-01-01T00:00:00Z</time>
				</trkpt>
				<trkpt lat="54.88050" lon="-2.50483">
					<ele>217</ele>
					<time>0001-01-01T00:00:00Z</time>
				</trkpt>
				<trkpt lat="54.87911" lon="-2.50408">
					<ele>213</ele>
					<time>0001-01-01T00:00:00Z</time>
				</trkpt>
				<trkpt lat="54.87821" lon="-2.50361">
					<ele>214</ele>
					<time>0001-01-01T00:00:00Z</time>
				</trkpt>
				<trkpt lat="54.87791" lon="-2.50371">
					<ele>215</ele>
					<time>0001-01-01T00:00:00Z</time>
				</trkpt>
				<trkpt lat="54.87675" lon="-2.50442">
					<ele>214</ele>
					<time>0001-01-01T00:00:00Z</time>
				</trkpt>
				<trkpt lat="54.87567" lon="-2.50446">
					<ele>212</ele>
					<time>0001-01-01T00:00:00Z</time>
				</trkpt>
				<trkpt lat="54.87443" lon="-2.50401">
					<ele>208</ele>
					<time>0001-01-01T00:00:00Z</time>
				</trkpt>
				<trkpt lat="54.87256" lon="-2.50362">
					<ele>206</ele>
					<time>0001-01-01T00:00:00Z</time>
				</trkpt>
				<trkpt lat="54.87224" lon="-2.50356">
					<ele>207</ele>
					<time>0001-01-01T00:00:00Z</time>
				</trkpt>
				<trkpt lat="54.86888" lon="-2.50355">
					<ele>213</ele>
					<time>0001-01-01T00:00:00Z</time>
				</trkpt>
				<trkpt lat="54.86749" lon="-2.50340">
					<ele>216</ele>
					<time>0001-01-01T00:00:00Z</time>
				</trkpt>
				<trkpt lat="54.86636" lon="-2.50335">
					<ele>218</ele>
					<time>0001-01-01T00:00:00Z</time>
				</trkpt>
				<trkpt lat="54.86603" lon="-2.50328">
					<ele>218</ele>
					<time>0001-01-01T00:00:00Z</time>
				</trkpt>
				<trkpt lat="54.86532" lon="-2.50227">
					<ele>214</ele>
					<time>0001-01-01T00:00:00Z</time>
				</trkpt>
				<trkpt lat="54.86421" lon="-2.50091">
					<ele>211</ele>
					<time>0001-01-01T00:00:00Z</time>
				</trkpt>
				<trkpt lat="54.86383" lon="-2.50081">
					<ele>212</ele>
					<time>0001-01-01T00:00:00Z</time>
				</trkpt>
				<trkpt lat="54.86374" lon="-2.50080">
					<ele>212</ele>
					<time>0001-01-01T00:00:00Z</time>
				</trkpt>
				<trkpt lat="54.86358" lon="-2.50077">
					<ele>214</ele>
					<time>0001-01-01T00:00:00Z</time>
				</trkpt>
				<trkpt lat="54.86265" lon="-2.49989">
					<ele>214</ele>
					<time>0001-01-01T00:00:00Z</time>
				</trkpt>
				<trkpt lat="54.86136" lon="-2.49894">
					<ele>212</ele>
					<time>0001-01-01T00:00:00Z</time>
				</trkpt>
				<trkpt lat="54.86027" lon="-2.49862">
					<ele>217</ele>
					<time>0001-01-01T00:00:00Z</time>
				</trkpt>
				<trkpt lat="54.85925" lon="-2.49799">
					<ele>223</ele>
					<time>0001-01-01T00:00:00Z</time>
				</trkpt>
				<trkpt lat="54.85845" lon="-2.49718">
					<ele>229</ele>
					<time>0001-01-01T00:00:00Z</time>
				</trkpt>
				<trkpt lat="54.85770" lon="-2.49655">
					<ele>233</ele>
					<time>0001-01-01T00:00:00Z</time>
				</trkpt>
				<trkpt lat="54.85682" lon="-2.49585">
					<ele>239</ele>
					<time>0001-01-01T00:00:00Z</time>
				</trkpt>
				<trkpt lat="54.85625" lon="-2.49535">
					<ele>243</ele>
					<time>0001-01-01T00:00:00Z</time>
				</trkpt>
				<trkpt lat="54.85609" lon="-2.49505">
					<ele>245</ele>
					<time>0001-01-01T00:00:00Z</time>
				</trkpt>
				<trkpt lat="54.85553" lon="-2.49351">
					<ele>248</ele>
					<time>0001-01-01T00:00:00Z</time>
				</trkpt>
				<trkpt lat="54.85498" lon="-2.49297">
					<ele>250</ele>
					<time>0001-01-01T00:00:00Z</time>
				</trkpt>
				<trkpt lat="54.85404" lon="-2.49175">
					<ele>244</ele>
					<time>0001-01-01T00:00:00Z</time>
				</trkpt>
				<trkpt lat="54.85328" lon="-2.49067">
					<ele>244</ele>
					<time>0001-01-01T00:00:00Z</time>
				</trkpt>
				<trkpt lat="54.85309" lon="-2.49052">
					<ele>243</ele>
					<time>0001-01-01T00:00:00Z</time>
				</trkpt>
				<trkpt lat="54.85265" lon="-2.49086">
					<ele>245</ele>
					<time>0001-01-01T00:00:00Z</time>
				</trkpt>
				<trkpt lat="54.85210" lon="-2.49157">
					<ele>251</ele>
					<time>0001-01-01T00:00:00Z</time>
				</trkpt>
				<trkpt lat="54.85188" lon="-2.49120">
					<ele>253</ele>
					<time>0001-01-01T00:00:00Z</time>
				</trkpt>
				<trkpt lat="54.85163" lon="-2.49043">
					<ele>260</ele>
					<time>0001-01-01T00:00:00Z</time>
				</trkpt>
				<trkpt lat="54.85131" lon="-2.48964">
					<ele>268</ele>
					<time>0001-01-01T00:00:00Z</time>
				</trkpt>
				<trkpt lat="54.85078" lon="-2.48906">
					<ele>274</ele>
					<time>0001-01-01T00:00:00Z</time>
				</trkpt>
				<trkpt lat="54.85023" lon="-2.48826">
					<ele>282</ele>
					<time>0001-01-01T00:00:00Z</time>
				</trkpt>
				<trkpt lat="54.84970" lon="-2.48744">
					<ele>280</ele>
					<time>0001-01-01T00:00:00Z</time>
				</trkpt>
				<trkpt lat="54.84873" lon="-2.48624">
					<ele>280</ele>
					<time>0001-01-01T00:00:00Z</time>
				</trkpt>
				<trkpt lat="54.84773" lon="-2.48525">
					<ele>280</ele>
					<time>0001-01-01T00:00:00Z</time>
				</trkpt>
				<trkpt lat="54.84656" lon="-2.48455">
					<ele>281</ele>
					<time>0001-01-01T00:00:00Z</time>
				</trkpt>
				<trkpt lat="54.84509" lon="-2.48361">
					<ele>278</ele>
					<time>0001-01-01T00:00:00Z</time>
				</trkpt>
				<trkpt lat="54.84410" lon="-2.48290">
					<ele>281</ele>
					<time>0001-01-01T00:00:00Z</time>
				</trkpt>
				<trkpt lat="54.84400" lon="-2.48286">
					<ele>280</ele>
					<time>0001-01-01T00:00:00Z</time>
				</trkpt>
				<trkpt lat="54.84363" lon="-2.48272">
					<ele>281</ele>
					<time>0001-01-01T00:00:00Z</time>
				</trkpt>
				<trkpt lat="54.84282" lon="-2.48240">
					<ele>284</ele>
					<time>0001-01-01T00:00:00Z</time>
				</trkpt>
				<trkpt lat="54.84213" lon="-2.48204">
					<ele>287</ele>
					<time>0001-01-01T00:00:00Z</time>
				</trkpt>
				<trkpt lat="54.84130" lon="-2.48132">
					<ele>293</ele>
					<time>0001-01-01T00:00:00Z</time>
				</trkpt>
				<trkpt lat="54.84044" lon="-2.48054">
					<ele>296</ele>
					<time>0001-01-01T00:00:00Z</time>
				</trkpt>
				<trkpt lat="54.83923" lon="-2.47951">
					<ele>291</ele>
					<time>0001-01-01T00:00:00Z</time>
				</trkpt>
				<trkpt lat="54.83833" lon="-2.47877">
					<ele>300</ele>
					<time>0001-01-01T00:00:00Z</time>
				</trkpt>
				<trkpt lat="54.83745" lon="-2.47806">
					<ele>303</ele>
					<time>0001-01-01T00:00:00Z</time>
				</trkpt>
				<trkpt lat="54.83628" lon="-2.47688">
					<ele>305</ele>
					<time>0001-01-01T00:00:00Z</time>
				</trkpt>
				<trkpt lat="54.83545" lon="-2.47522">
					<ele>303</ele>
					<time>0001-01-01T00:00:00Z</time>
				</trkpt>
				<trkpt lat="54.83410" lon="-2.47268">
					<ele>290</ele>
					<time>0001-01-01T00:00:00Z</time>
				</trkpt>
				<trkpt lat="54.83266" lon="-2.46971">
					<ele>280</ele>
					<time>0001-01-01T00:00:00Z</time>
				</trkpt>
				<trkpt lat="54.83254" lon="-2.46942">
					<ele>279</ele>
					<time>0001-01-01T00:00:00Z</time>
				</trkpt>
				<trkpt lat="54.83239" lon="-2.46875">
					<ele>278</ele>
					<time>0001-01-01T00:00:00Z</time>
				</trkpt>
				<trkpt lat="54.83187" lon="-2.46615">
					<ele>275</ele>
					<time>0001-01-01T00:00:00Z</time>
				</trkpt>
				<trkpt lat="54.83136" lon="-2.46564">
					<ele>272</ele>
					<time>0001-01-01T00:00:00Z</time>
				</trkpt>
				<trkpt lat="54.83005" lon="-2.46563">
					<ele>269</ele>
					<time>0001-01-01T00:00:00Z</time>
				</trkpt>
				<trkpt lat="54.82958" lon="-2.46525">
					<ele>268</ele>
					<time>0001-01-01T00:00:00Z</time>
				</trkpt>
				<trkpt lat="54.82889" lon="-2.46412">
					<ele>271</ele>
					<time>0001-01-01T00:00:00Z</time>
				</trkpt>
				<trkpt lat="54.82851" lon="-2.46316">
					<ele>276</ele>
					<time>0001-01-01T00:00:00Z</time>
				</trkpt>
				<trkpt lat="54.82818" lon="-2.46249">
					<ele>278</ele>
					<time>0001-01-01T00:00:00Z</time>
				</trkpt>
				<trkpt lat="54.82786" lon="-2.46218">
					<ele>283</ele>
					<time>0001-01-01T00:00:00Z</time>
				</trkpt>
				<trkpt lat="54.82750" lon="-2.46183">
					<ele>287</ele>
					<time>0001-01-01T00:00:00Z</time>
				</trkpt>
				<trkpt lat="54.82705" lon="-2.46141">
					<ele>292</ele>
					<time>0001-01-01T00:00:00Z</time>
				</trkpt>
				<trkpt lat="54.82645" lon="-2.46082">
					<ele>295</ele>
					<time>0001-01-01T00:00:00Z</time>
				</trkpt>
				<trkpt lat="54.82590" lon="-2.46029">
					<ele>297</ele>
					<time>0001-01-01T00:00:00Z</time>
				</trkpt>
				<trkpt lat="54.82501" lon="-2.45949">
					<ele>296</ele>
					<time>0001-01-01T00:00:00Z</time>
				</trkpt>
				<trkpt lat="54.82407" lon="-2.45864">
					<ele>298</ele>
					<time>0001-01-01T00:00:00Z</time>
				</trkpt>
				<trkpt lat="54.82308" lon="-2.45777">
					<ele>300</ele>
					<time>0001-01-01T00:00:00Z</time>
				</trkpt>
				<trkpt lat="54.82185" lon="-2.45671">
					<ele>294</ele>
					<time>0001-01-01T00:00:00Z</time>
				</trkpt>
				<trkpt lat="54.82077" lon="-2.45578">
					<ele>294</ele>
					<time>0001-01-01T00:00:00Z</time>
				</trkpt>
				<trkpt lat="54.81982" lon="-2.45500">
					<ele>297</ele>
					<time>0001-01-01T00:00:00Z</time>
				</trkpt>
				<trkpt lat="54.81888" lon="-2.45416">
					<ele>304</ele>
					<time>0001-01-01T00:00:00Z</time>
				</trkpt>
				<trkpt lat="54.81773" lon="-2.45321">
					<ele>304</ele>
					<time>0001-01-01T00:00:00Z</time>
				</trkpt>
				<trkpt lat="54.81644" lon="-2.45223">
					<ele>299</ele>
					<time>0001-01-01T00:00:00Z</time>
				</trkpt>
				<trkpt lat="54.81528" lon="-2.45132">
					<ele>296</ele>
					<time>0001-01-01T00:00:00Z</time>
				</trkpt>
				<trkpt lat="54.81405" lon="-2.45035">
					<ele>298</ele>
					<time>0001-01-01T00:00:00Z</time>
				</trkpt>
				<trkpt lat="54.81302" lon="-2.44972">
					<ele>296</ele>
					<time>0001-01-01T00:00:00Z</time>
				</trkpt>
				<trkpt lat="54.81055" lon="-2.44776">
					<ele>294</ele>
					<time>0001-01-01T00:00:00Z</time>
				</trkpt>
				<trkpt lat="54.80980" lon="-2.44521">
					<ele>290</ele>
					<time>0001-01-01T00:00:00Z</time>
				</trkpt>
				<trkpt lat="54.80957" lon="-2.44475">
					<ele>289</ele>
					<time>0001-01-01T00:00:00Z</time>
				</trkpt>
				<trkpt lat="54.80908" lon="-2.44404">
					<ele>289</ele>
					<time>0001-01-01T00:00:00Z</time>
				</trkpt>
				<trkpt lat="54.80907" lon="-2.44366">
					<ele>287</ele>
					<time>0001-01-01T00:00:00Z</time>
				</trkpt>
				<trkpt lat="54.80927" lon="-2.44340">
					<ele>287</ele>
					<time>0001-01-01T00:00:00Z</time>
				</trkpt>
				<trkpt lat="54.80944" lon="-2.44265">
					<ele>284</ele>
					<time>0001-01-01T00:00:00Z</time>
				</trkpt>
				<trkpt lat="54.81042" lon="-2.44208">
					<ele>284</ele>
					<time>0001-01-01T00:00:00Z</time>
				</trkpt>
				<trkpt lat="54.81146" lon="-2.44179">
					<ele>286</ele>
					<time>0001-01-01T00:00:00Z</time>
				</trkpt>
				<trkpt lat="54.81236" lon="-2.44146">
					<ele>286</ele>
					<time>0001-01-01T00:00:00Z</time>
				</trkpt>
				<trkpt lat="54.81250" lon="-2.44100">
					<ele>287</ele>
					<time>0001-01-01T00:00:00Z</time>
				</trkpt>
				<trkpt lat="54.81248" lon="-2.44064">
					<ele>289</ele>
					<time>0001-01-01T00:00:00Z</time>
				</trkpt>
				<trkpt lat="54.81250" lon="-2.44044">
					<ele>289</ele>
					<time>0001-01-01T00:00:00Z</time>
				</trkpt>
				<trkpt lat="54.81247" lon="-2.43985">
					<ele>294</ele>
					<time>0001-01-01T00:00:00Z</time>
				</trkpt>
				<trkpt lat="54.81241" lon="-2.43929">
					<ele>293</ele>
					<time>0001-01-01T00:00:00Z</time>
				</trkpt>
				<trkpt lat="54.81232" lon="-2.43882">
					<ele>300</ele>
					<time>0001-01-01T00:00:00Z</time>
				</trkpt>
				<trkpt lat="54.81205" lon="-2.43863">
					<ele>301</ele>
					<time>0001-01-01T00:00:00Z</time>
				</trkpt>
				<trkpt lat="54.81189" lon="-2.43834">
					<ele>307</ele>
					<time>0001-01-01T00:00:00Z</time>
				</trkpt>
				<trkpt lat="54.81187" lon="-2.43833">
					<ele>307</ele>
					<time>0001-01-01T00:00:00Z</time>
				</trkpt>
				<trkpt lat="54.81151" lon="-2.43795">
					<ele>309</ele>
					<time>0001-01-01T00:00:00Z</time>
				</trkpt>
				<trkpt lat="54.81099" lon="-2.43730">
					<ele>315</ele>
					<time>0001-01-01T00:00:00Z</time>
				</trkpt>
				<trkpt lat="54.81041" lon="-2.43671">
					<ele>323</ele>
					<time>0001-01-01T00:00:00Z</time>
				</trkpt>
				<trkpt lat="54.80984" lon="-2.43594">
					<ele>322</ele>
					<time>0001-01-01T00:00:00Z</time>
				</trkpt>
				<trkpt lat="54.80926" lon="-2.43489">
					<ele>323</ele>
					<time>0001-01-01T00:00:00Z</time>
				</trkpt>
				<trkpt lat="54.80895" lon="-2.43448">
					<ele>326</ele>
					<time>0001-01-01T00:00:00Z</time>
				</trkpt>
				<trkpt lat="54.80866" lon="-2.43423">
					<ele>328</ele>
					<time>0001-01-01T00:00:00Z</time>
				</trkpt>
				<trkpt lat="54.80833" lon="-2.43403">
					<ele>333</ele>
					<time>0001-01-01T00:00:00Z</time>
				</trkpt>
				<trkpt lat="54.80796" lon="-2.43383">
					<ele>337</ele>
					<time>0001-01-01T00:00:00Z</time>
				</trkpt>
				<trkpt lat="54.80729" lon="-2.43350">
					<ele>341</ele>
					<time>0001-01-01T00:00:00Z</time>
				</trkpt>
				<trkpt lat="54.80642" lon="-2.43316">
					<ele>345</ele>
					<time>0001-01-01T00:00:00Z</time>
				</trkpt>
				<trkpt lat="54.80591" lon="-2.43289">
					<ele>350</ele>
					<time>0001-01-01T00:00:00Z</time>
				</trkpt>
				<trkpt lat="54.80538" lon="-2.43259">
					<ele>352</ele>
					<time>0001-01-01T00:00:00Z</time>
				</trkpt>
				<trkpt lat="54.80466" lon="-2.43204">
					<ele>356</ele>
					<time>0001-01-01T00:00:00Z</time>
				</trkpt>
				<trkpt lat="54.80373" lon="-2.43131">
					<ele>360</ele>
					<time>0001-01-01T00:00:00Z</time>
				</trkpt>
				<trkpt lat="54.80293" lon="-2.43067">
					<ele>362</ele>
					<time>0001-01-01T00:00:00Z</time>
				</trkpt>
				<trkpt lat="54.80203" lon="-2.42990">
					<ele>366</ele>
					<time>0001-01-01T00:00:00Z</time>
				</trkpt>
				<trkpt lat="54.80138" lon="-2.42936">
					<ele>371</ele>
					<time>0001-01-01T00:00:00Z</time>
				</trkpt>
				<trkpt lat="54.80086" lon="-2.42884">
					<ele>376</ele>
					<time>0001-01-01T00:00:00Z</time>
				</trkpt>
				<trkpt lat="54.80023" lon="-2.42813">
					<ele>379</ele>
					<time>0001-01-01T00:00:00Z</time>
				</trkpt>
				<trkpt lat="54.79943" lon="-2.42700">
					<ele>380</ele>
					<time>0001-01-01T00:00:00Z</time>
				</trkpt>
				<trkpt lat="54.79823" lon="-2.42530">
					<ele>378</ele>
					<time>0001-01-01T00:00:00Z</time>
				</trkpt>
				<trkpt lat="54.79789" lon="-2.42507">
					<ele>379</ele>
					<time>0001-01-01T00:00:00Z</time>
				</trkpt>
				<trkpt lat="54.79725" lon="-2.42499">
					<ele>383</ele>
					<time>0001-01-01T00:00:00Z</time>
				</trkpt>
				<trkpt lat="54.79634" lon="-2.42487">
					<ele>384</ele>
					<time>0001-01-01T00:00:00Z</time>
				</trkpt>
				<trkpt lat="54.79545" lon="-2.42475">
					<ele>388</ele>
					<time>0001-01-01T00:00:00Z</time>
				</trkpt>
				<trkpt lat="54.79458" lon="-2.42463">
					<ele>393</ele>
					<time>0001-01-01T00:00:00Z</time>
				</trkpt>
				<trkpt lat="54.79358" lon="-2.42451">
					<ele>397</ele>
					<time>0001-01-01T00:00:00Z</time>
				</trkpt>
				<trkpt lat="54.79263" lon="-2.42441">
					<ele>402</ele>
					<time>0001-01-01T00:00:00Z</time>
				</trkpt>
				<trkpt lat="54.79169" lon="-2.42429">
					<ele>406</ele>
					<time>0001-01-01T00:00:00Z</time>
				</trkpt>
				<trkpt lat="54.79085" lon="-2.42417">
					<ele>410</ele>
					<time>0001-01-01T00:00:00Z</time>
				</trkpt>
				<trkpt lat="54.79004" lon="-2.42407">
					<ele>413</ele>
					<time>0001-01-01T00:00:00Z</time>
				</trkpt>
				<trkpt lat="54.78915" lon="-2.42395">
					<ele>417</ele>
					<time>0001-01-01T00:00:00Z</time>
				</trkpt>
				<trkpt lat="54.78815" lon="-2.42359">
					<ele>419</ele>
					<time>0001-01-01T00:00:00Z</time>
				</trkpt>
				<trkpt lat="54.78710" lon="-2.42294">
					<ele>419</ele>
					<time>0001-01-01T00:00:00Z</time>
				</trkpt>
				<trkpt lat="54.78631" lon="-2.42310">
					<ele>420</ele>
					<time>0001-01-01T00:00:00Z</time>
				</trkpt>
				<trkpt lat="54.78628" lon="-2.42366">
					<ele>417</ele>
					<time>0001-01-01T00:00:00Z</time>
				</trkpt>
				<trkpt lat="54.78622" lon="-2.42539">
					<ele>416</ele>
					<time>0001-01-01T00:00:00Z</time>
				</trkpt>
				<trkpt lat="54.78607" lon="-2.42671">
					<ele>413</ele>
					<time>0001-01-01T00:00:00Z</time>
				</trkpt>
				<trkpt lat="54.78602" lon="-2.42686">
					<ele>413</ele>
					<time>0001-01-01T00:00:00Z</time>
				</trkpt>
				<trkpt lat="54.78591" lon="-2.42682">
					<ele>414</ele>
					<time>0001-01-01T00:00:00Z</time>
				</trkpt>
				<trkpt lat="54.78577" lon="-2.42679">
					<ele>417</ele>
					<time>0001-01-01T00:00:00Z</time>
				</trkpt>
				<trkpt lat="54.78580" lon="-2.42687">
					<ele>425</ele>
					<time>0001-01-01T00:00:00Z</time>
				</trkpt>
				<trkpt lat="54.78577" lon="-2.42681">
					<ele>414</ele>
					<time>0001-01-01T00:00:00Z</time>
				</trkpt>
				<trkpt lat="54.78583" lon="-2.42662">
					<ele>445</ele>
					<time>0001-01-01T00:00:00Z</time>
				</trkpt>
				<trkpt lat="54.78583" lon="-2.42657">
					<ele>437</ele>
					<time>0001-01-01T00:00:00Z</time>
				</trkpt>
				<trkpt lat="54.78582" lon="-2.42657">
					<ele>437</ele>
					<time>0001-01-01T00:00:00Z</time>
				</trkpt>
				<trkpt lat="54.78605" lon="-2.42669">
					<ele>428</ele>
					<time>0001-01-01T00:00:00Z</time>
				</trkpt>
				<trkpt lat="54.78605" lon="-2.42677">
					<ele>422</ele>
					<time>0001-01-01T00:00:00Z</time>
				</trkpt>
				<trkpt lat="54.78613" lon="-2.42634">
					<ele>419</ele>
					<time>0001-01-01T00:00:00Z</time>
				</trkpt>
				<trkpt lat="54.78623" lon="-2.42552">
					<ele>418</ele>
					<time>0001-01-01T00:00:00Z</time>
				</trkpt>
				<trkpt lat="54.78626" lon="-2.42426">
					<ele>415</ele>
					<time>0001-01-01T00:00:00Z</time>
				</trkpt>
				<trkpt lat="54.78631" lon="-2.42308">
					<ele>417</ele>
					<time>0001-01-01T00:00:00Z</time>
				</trkpt>
				<trkpt lat="54.78618" lon="-2.42296">
					<ele>418</ele>
					<time>0001-01-01T00:00:00Z</time>
				</trkpt>
				<trkpt lat="54.78554" lon="-2.42295">
					<ele>421</ele>
					<time>0001-01-01T00:00:00Z</time>
				</trkpt>
				<trkpt lat="54.78469" lon="-2.42270">
					<ele>421</ele>
					<time>0001-01-01T00:00:00Z</time>
				</trkpt>
				<trkpt lat="54.78428" lon="-2.42209">
					<ele>426</ele>
					<time>0001-01-01T00:00:00Z</time>
				</trkpt>
				<trkpt lat="54.78400" lon="-2.42091">
					<ele>429</ele>
					<time>0001-01-01T00:00:00Z</time>
				</trkpt>
				<trkpt lat="54.78376" lon="-2.41961">
					<ele>437</ele>
					<time>0001-01-01T00:00:00Z</time>
				</trkpt>
				<trkpt lat="54.78350" lon="-2.41838">
					<ele>438</ele>
					<time>0001-01-01T00:00:00Z</time>
				</trkpt>
				<trkpt lat="54.78303" lon="-2.41606">
					<ele>438</ele>
					<time>0001-01-01T00:00:00Z</time>
				</trkpt>
				<trkpt lat="54.78261" lon="-2.41392">
					<ele>440</ele>
					<time>0001-01-01T00:00:00Z</time>
				</trkpt>
				<trkpt lat="54.78223" lon="-2.41204">
					<ele>443</ele>
					<time>0001-01-01T00:00:00Z</time>
				</trkpt>
				<trkpt lat="54.78191" lon="-2.41048">
					<ele>448</ele>
					<time>0001-01-01T00:00:00Z</time>
				</trkpt>
				<trkpt lat="54.78142" lon="-2.40910">
					<ele>450</ele>
					<time>0001-01-01T00:00:00Z</time>
				</trkpt>
				<trkpt lat="54.78076" lon="-2.40737">
					<ele>452</ele>
					<time>0001-01-01T00:00:00Z</time>
				</trkpt>
				<trkpt lat="54.78016" lon="-2.40549">
					<ele>453</ele>
					<time>0001-01-01T00:00:00Z</time>
				</trkpt>
				<trkpt lat="54.77931" lon="-2.40381">
					<ele>453</ele>
					<time>0001-01-01T00:00:00Z</time>
				</trkpt>
				<trkpt lat="54.77885" lon="-2.40261">
					<ele>457</ele>
					<time>0001-01-01T00:00:00Z</time>
				</trkpt>
				<trkpt lat="54.77831" lon="-2.40093">
					<ele>460</ele>
					<time>0001-01-01T00:00:00Z</time>
				</trkpt>
				<trkpt lat="54.77777" lon="-2.39930">
					<ele>459</ele>
					<time>0001-01-01T00:00:00Z</time>
				</trkpt>
				<trkpt lat="54.77718" lon="-2.39681">
					<ele>452</ele>
					<time>0001-01-01T00:00:00Z</time>
				</trkpt>
				<trkpt lat="54.77694" lon="-2.39467">
					<ele>445</ele>
					<time>0001-01-01T00:00:00Z</time>
				</trkpt>
				<trkpt lat="54.77678" lon="-2.39244">
					<ele>442</ele>
					<time>0001-01-01T00:00:00Z</time>
				</trkpt>
				<trkpt lat="54.77641" lon="-2.39002">
					<ele>431</ele>
					<time>0001-01-01T00:00:00Z</time>
				</trkpt>
				<trkpt lat="54.77594" lon="-2.38974">
					<ele>431</ele>
					<time>0001-01-01T00:00:00Z</time>
				</trkpt>
				<trkpt lat="54.77581" lon="-2.38988">
					<ele>431</ele>
					<time>0001-01-01T00:00:00Z</time>
				</trkpt>
				<trkpt lat="54.77494" lon="-2.39082">
					<ele>435</ele>
					<time>0001-01-01T00:00:00Z</time>
				</trkpt>
				<trkpt lat="54.77383" lon="-2.39122">
					<ele>435</ele>
					<time>0001-01-01T00:00:00Z</time>
				</trkpt>
				<trkpt lat="54.77364" lon="-2.39128">
					<ele>434</ele>
					<time>0001-01-01T00:00:00Z</time>
				</trkpt>
				<trkpt lat="54.77339" lon="-2.39123">
					<ele>434</ele>
					<time>0001-01-01T00:00:00Z</time>
				</trkpt>
				<trkpt lat="54.77225" lon="-2.39053">
					<ele>436</ele>
					<time>0001-01-01T00:00:00Z</time>
				</trkpt>
				<trkpt lat="54.77074" lon="-2.38945">
					<ele>435</ele>
					<time>0001-01-01T00:00:00Z</time>
				</trkpt>
				<trkpt lat="54.76943" lon="-2.38884">
					<ele>436</ele>
					<time>0001-01-01T00:00:00Z</time>
				</trkpt>
				<trkpt lat="54.76815" lon="-2.38824">
					<ele>438</ele>
					<time>0001-01-01T00:00:00Z</time>
				</trkpt>
				<trkpt lat="54.76691" lon="-2.38741">
					<ele>431</ele>
					<time>0001-01-01T00:00:00Z</time>
				</trkpt>
				<trkpt lat="54.76555" lon="-2.38656">
					<ele>428</ele>
					<time>0001-01-01T00:00:00Z</time>
				</trkpt>
				<trkpt lat="54.76487" lon="-2.38562">
					<ele>430</ele>
					<time>0001-01-01T00:00:00Z</time>
				</trkpt>
				<trkpt lat="54.76405" lon="-2.38439">
					<ele>431</ele>
					<time>0001-01-01T00:00:00Z</time>
				</trkpt>
				<trkpt lat="54.76280" lon="-2.38254">
					<ele>432</ele>
					<time>0001-01-01T00:00:00Z</time>
				</trkpt>
				<trkpt lat="54.76152" lon="-2.38065">
					<ele>434</ele>
					<time>0001-01-01T00:00:00Z</time>
				</trkpt>
				<trkpt lat="54.76048" lon="-2.37909">
					<ele>434</ele>
					<time>0001-01-01T00:00:00Z</time>
				</trkpt>
				<trkpt lat="54.76024" lon="-2.37874">
					<ele>434</ele>
					<time>0001-01-01T00:00:00Z</time>
				</trkpt>
				<trkpt lat="54.75936" lon="-2.37754">
					<ele>429</ele>
					<time>0001-01-01T00:00:00Z</time>
				</trkpt>
				<trkpt lat="54.75903" lon="-2.37641">
					<ele>425</ele>
					<time>0001-01-01T00:00:00Z</time>
				</trkpt>
				<trkpt lat="54.75867" lon="-2.37604">
					<ele>423</ele>
					<time>0001-01-01T00:00:00Z</time>
				</trkpt>
				<trkpt lat="54.75795" lon="-2.37599">
					<ele>426</ele>
					<time>0001-01-01T00:00:00Z</time>
				</trkpt>
				<trkpt lat="54.75710" lon="-2.37527">
					<ele>434</ele>
					<time>0001-01-01T00:00:00Z</time>
				</trkpt>
				<trkpt lat="54.75614" lon="-2.37474">
					<ele>438</ele>
					<time>0001-01-01T00:00:00Z</time>
				</trkpt>
				<trkpt lat="54.75503" lon="-2.37385">
					<ele>439</ele>
					<time>0001-01-01T00:00:00Z</time>
				</trkpt>
				<trkpt lat="54.75398" lon="-2.37305">
					<ele>442</ele>
					<time>0001-01-01T00:00:00Z</time>
				</trkpt>
				<trkpt lat="54.75302" lon="-2.37229">
					<ele>449</ele>
					<time>0001-01-01T00:00:00Z</time>
				</trkpt>
				<trkpt lat="54.75211" lon="-2.37138">
					<ele>451</ele>
					<time>0001-01-01T00:00:00Z</time>
				</trkpt>
				<trkpt lat="54.75125" lon="-2.37067">
					<ele>454</ele>
					<time>0001-01-01T00:00:00Z</time>
				</trkpt>
				<trkpt lat="54.75046" lon="-2.37021">
					<ele>458</ele>
					<time>0001-01-01T00:00:00Z</time>
				</trkpt>
				<trkpt lat="54.74957" lon="-2.36965">
					<ele>463</ele>
					<time>0001-01-01T00:00:00Z</time>
				</trkpt>
				<trkpt lat="54.74866" lon="-2.36907">
					<ele>467</ele>
					<time>0001-01-01T00:00:00Z</time>
				</trkpt>
				<trkpt lat="54.74794" lon="-2.36859">
					<ele>471</ele>
					<time>0001-01-01T00:00:00Z</time>
				</trkpt>
				<trkpt lat="54.74698" lon="-2.36797">
					<ele>475</ele>
					<time>0001-01-01T00:00:00Z</time>
				</trkpt>
				<trkpt lat="54.74632" lon="-2.36744">
					<ele>477</ele>
					<time>0001-01-01T00:00:00Z</time>
				</trkpt>
				<trkpt lat="54.74545" lon="-2.36679">
					<ele>481</ele>
					<time>0001-01-01T00:00:00Z</time>
				</trkpt>
				<trkpt lat="54.74461" lon="-2.36615">
					<ele>484</ele>
					<time>0001-01-01T00:00:00Z</time>
				</trkpt>
				<trkpt lat="54.74372" lon="-2.36558">
					<ele>487</ele>
					<time>0001-01-01T00:00:00Z</time>
				</trkpt>
				<trkpt lat="54.74279" lon="-2.36483">
					<ele>491</ele>
					<time>0001-01-01T00:00:00Z</time>
				</trkpt>
				<trkpt lat="54.74212" lon="-2.36423">
					<ele>495</ele>
					<time>0001-01-01T00:00:00Z</time>
				</trkpt>
				<trkpt lat="54.74115" lon="-2.36358">
					<ele>500</ele>
					<time>0001-01-01T00:00:00Z</time>
				</trkpt>
				<trkpt lat="54.74035" lon="-2.36320">
					<ele>505</ele>
					<time>0001-01-01T00:00:00Z</time>
				</trkpt>
				<trkpt lat="54.73944" lon="-2.36273">
					<ele>511</ele>
					<time>0001-01-01T00:00:00Z</time>
				</trkpt>
				<trkpt lat="54.73865" lon="-2.36222">
					<ele>516</ele>
					<time>0001-01-01T00:00:00Z</time>
				</trkpt>
				<trkpt lat="54.73781" lon="-2.36144">
					<ele>519</ele>
					<time>0001-01-01T00:00:00Z</time>
				</trkpt>
				<trkpt lat="54.73701" lon="-2.36052">
					<ele>525</ele>
					<time>0001-01-01T00:00:00Z</time>
				</trkpt>
				<trkpt lat="54.73632" lon="-2.35945">
					<ele>530</ele>
					<time>0001-01-01T00:00:00Z</time>
				</trkpt>
				<trkpt lat="54.73559" lon="-2.35843">
					<ele>534</ele>
					<time>0001-01-01T00:00:00Z</time>
				</trkpt>
				<trkpt lat="54.73489" lon="-2.35768">
					<ele>537</ele>
					<time>0001-01-01T00:00:00Z</time>
				</trkpt>
				<trkpt lat="54.73403" lon="-2.35692">
					<ele>541</ele>
					<time>0001-01-01T00:00:00Z</time>
				</trkpt>
				<trkpt lat="54.73339" lon="-2.35635">
					<ele>545</ele>
					<time>0001-01-01T00:00:00Z</time>
				</trkpt>
				<trkpt lat="54.73266" lon="-2.35570">
					<ele>552</ele>
					<time>0001-01-01T00:00:00Z</time>
				</trkpt>
				<trkpt lat="54.73202" lon="-2.35526">
					<ele>556</ele>
					<time>0001-01-01T00:00:00Z</time>
				</trkpt>
				<trkpt lat="54.73150" lon="-2.35492">
					<ele>559</ele>
					<time>0001-01-01T00:00:00Z</time>
				</trkpt>
				<trkpt lat="54.73098" lon="-2.35456">
					<ele>563</ele>
					<time>0001-01-01T00:00:00Z</time>
				</trkpt>
				<trkpt lat="54.73033" lon="-2.35395">
					<ele>568</ele>
					<time>0001-01-01T00:00:00Z</time>
				</trkpt>
				<trkpt lat="54.72986" lon="-2.35346">
					<ele>572</ele>
					<time>0001-01-01T00:00:00Z</time>
				</trkpt>
				<trkpt lat="54.72920" lon="-2.35273">
					<ele>575</ele>
					<time>0001-01-01T00:00:00Z</time>
				</trkpt>
				<trkpt lat="54.72869" lon="-2.35206">
					<ele>578</ele>
					<time>0001-01-01T00:00:00Z</time>
				</trkpt>
				<trkpt lat="54.72848" lon="-2.35168">
					<ele>580</ele>
					<time>0001-01-01T00:00:00Z</time>
				</trkpt>
				<trkpt lat="54.72822" lon="-2.35165">
					<ele>581</ele>
					<time>0001-01-01T00:00:00Z</time>
				</trkpt>
				<trkpt lat="54.72758" lon="-2.35221">
					<ele>586</ele>
					<time>0001-01-01T00:00:00Z</time>
				</trkpt>
				<trkpt lat="54.72686" lon="-2.35249">
					<ele>587</ele>
					<time>0001-01-01T00:00:00Z</time>
				</trkpt>
				<trkpt lat="54.72621" lon="-2.35244">
					<ele>591</ele>
					<time>0001-01-01T00:00:00Z</time>
				</trkpt>
				<trkpt lat="54.72551" lon="-2.35238">
					<ele>593</ele>
					<time>0001-01-01T00:00:00Z</time>
				</trkpt>
				<trkpt lat="54.72450" lon="-2.35216">
					<ele>595</ele>
					<time>0001-01-01T00:00:00Z</time>
				</trkpt>
				<trkpt lat="54.72335" lon="-2.35187">
					<ele>597</ele>
					<time>0001-01-01T00:00:00Z</time>
				</trkpt>
				<trkpt lat="54.72239" lon="-2.35149">
					<ele>598</ele>
					<time>0001-01-01T00:00:00Z</time>
				</trkpt>
				<trkpt lat="54.72231" lon="-2.35143">
					<ele>597</ele>
					<time>0001-01-01T00:00:00Z</time>
				</trkpt>
				<trkpt lat="54.72215" lon="-2.35126">
					<ele>597</ele>
					<time>0001-01-01T00:00:00Z</time>
				</trkpt>
				<trkpt lat="54.72143" lon="-2.34996">
					<ele>600</ele>
					<time>0001-01-01T00:00:00Z</time>
				</trkpt>
				<trkpt lat="54.72065" lon="-2.34843">
					<ele>598</ele>
					<time>0001-01-01T00:00:00Z</time>
				</trkpt>
				<trkpt lat="54.71974" lon="-2.34771">
					<ele>597</ele>
					<time>0001-01-01T00:00:00Z</time>
				</trkpt>
				<trkpt lat="54.71903" lon="-2.34671">
					<ele>597</ele>
					<time>0001-01-01T00:00:00Z</time>
				</trkpt>
				<trkpt lat="54.71847" lon="-2.34465">
					<ele>594</ele>
					<time>0001-01-01T00:00:00Z</time>
				</trkpt>
				<trkpt lat="54.71783" lon="-2.34314">
					<ele>593</ele>
					<time>0001-01-01T00:00:00Z</time>
				</trkpt>
				<trkpt lat="54.71688" lon="-2.34146">
					<ele>591</ele>
					<time>0001-01-01T00:00:00Z</time>
				</trkpt>
				<trkpt lat="54.71637" lon="-2.34123">
					<ele>590</ele>
					<time>0001-01-01T00:00:00Z</time>
				</trkpt>
				<trkpt lat="54.71593" lon="-2.34124">
					<ele>590</ele>
					<time>0001-01-01T00:00:00Z</time>
				</trkpt>
				<trkpt lat="54.71491" lon="-2.34055">
					<ele>590</ele>
					<time>0001-01-01T00:00:00Z</time>
				</trkpt>
				<trkpt lat="54.71380" lon="-2.34023">
					<ele>589</ele>
					<time>0001-01-01T00:00:00Z</time>
				</trkpt>
				<trkpt lat="54.71375" lon="-2.34020">
					<ele>589</ele>
					<time>0001-01-01T00:00:00Z</time>
				</trkpt>
				<trkpt lat="54.71357" lon="-2.34000">
					<ele>590</ele>
					<time>0001-01-01T00:00:00Z</time>
				</trkpt>
				<trkpt lat="54.71302" lon="-2.33844">
					<ele>592</ele>
					<time>0001-01-01T00:00:00Z</time>
				</trkpt>
				<trkpt lat="54.71289" lon="-2.33730">
					<ele>592</ele>
					<time>0001-01-01T00:00:00Z</time>
				</trkpt>
				<trkpt lat="54.71269" lon="-2.33685">
					<ele>593</ele>
					<time>0001-01-01T00:00:00Z</time>
				</trkpt>
				<trkpt lat="54.71241" lon="-2.33640">
					<ele>593</ele>
					<time>0001-01-01T00:00:00Z</time>
				</trkpt>
				<trkpt lat="54.71179" lon="-2.33446">
					<ele>592</ele>
					<time>0001-01-01T00:00:00Z</time>
				</trkpt>
				<trkpt lat="54.71124" lon="-2.33243">
					<ele>592</ele>
					<time>0001-01-01T00:00:00Z</time>
				</trkpt>
				<trkpt lat="54.71087" lon="-2.32981">
					<ele>591</ele>
					<time>0001-01-01T00:00:00Z</time>
				</trkpt>
				<trkpt lat="54.71066" lon="-2.32831">
					<ele>591</ele>
					<time>0001-01-01T00:00:00Z</time>
				</trkpt>
				<trkpt lat="54.71014" lon="-2.32595">
					<ele>582</ele>
					<time>0001-01-01T00:00:00Z</time>
				</trkpt>
				<trkpt lat="54.70975" lon="-2.32274">
					<ele>574</ele>
					<time>0001-01-01T00:00:00Z</time>
				</trkpt>
				<trkpt lat="54.70978" lon="-2.32061">
					<ele>573</ele>
					<time>0001-01-01T00:00:00Z</time>
				</trkpt>
				<trkpt lat="54.70997" lon="-2.32003">
					<ele>573</ele>
					<time>0001-01-01T00:00:00Z</time>
				</trkpt>
				<trkpt lat="54.71047" lon="-2.31932">
					<ele>573</ele>
					<time>0001-01-01T00:00:00Z</time>
				</trkpt>
				<trkpt lat="54.71111" lon="-2.31753">
					<ele>573</ele>
					<time>0001-01-01T00:00:00Z</time>
				</trkpt>
				<trkpt lat="54.71194" lon="-2.31579">
					<ele>573</ele>
					<time>0001-01-01T00:00:00Z</time>
				</trkpt>
				<trkpt lat="54.71201" lon="-2.31568">
					<ele>573</ele>
					<time>0001-01-01T00:00:00Z</time>
				</trkpt>
				<trkpt lat="54.71228" lon="-2.31487">
					<ele>573</ele>
					<time>0001-01-01T00:00:00Z</time>
				</trkpt>
				<trkpt lat="54.71233" lon="-2.31427">
					<ele>573</ele>
					<time>0001-01-01T00:00:00Z</time>
				</trkpt>
				<trkpt lat="54.71215" lon="-2.31244">
					<ele>573</ele>
					<time>0001-01-01T00:00:00Z</time>
				</trkpt>
				<trkpt lat="54.71204" lon="-2.30885">
					<ele>571</ele>
					<time>0001-01-01T00:00:00Z</time>
				</trkpt>
				<trkpt lat="54.71204" lon="-2.30839">
					<ele>571</ele>
					<time>0001-01-01T00:00:00Z</time>
				</trkpt>
				<trkpt lat="54.71216" lon="-2.30779">
					<ele>570</ele>
					<time>0001-01-01T00:00:00Z</time>
				</trkpt>
				<trkpt lat="54.71238" lon="-2.30709">
					<ele>569</ele>
					<time>0001-01-01T00:00:00Z</time>
				</trkpt>
				<trkpt lat="54.71243" lon="-2.30615">
					<ele>568</ele>
					<time>0001-01-01T00:00:00Z</time>
				</trkpt>
				<trkpt lat="54.71240" lon="-2.30471">
					<ele>566</ele>
					<time>0001-01-01T00:00:00Z</time>
				</trkpt>
				<trkpt lat="54.71266" lon="-2.30315">
					<ele>564</ele>
					<time>0001-01-01T00:00:00Z</time>
				</trkpt>
				<trkpt lat="54.71357" lon="-2.30100">
					<ele>556</ele>
					<time>0001-01-01T00:00:00Z</time>
				</trkpt>
				<trkpt lat="54.71377" lon="-2.30045">
					<ele>554</ele>
					<time>0001-01-01T00:00:00Z</time>
				</trkpt>
				<trkpt lat="54.71386" lon="-2.29963">
					<ele>552</ele>
					<time>0001-01-01T00:00:00Z</time>
				</trkpt>
				<trkpt lat="54.71383" lon="-2.29923">
					<ele>551</ele>
					<time>0001-01-01T00:00:00Z</time>
				</trkpt>
				<trkpt lat="54.71355" lon="-2.29833">
					<ele>553</ele>
					<time>0001-01-01T00:00:00Z</time>
				</trkpt>
				<trkpt lat="54.71247" lon="-2.29684">
					<ele>555</ele>
					<time>0001-01-01T00:00:00Z</time>
				</trkpt>
				<trkpt lat="54.71167" lon="-2.29525">
					<ele>556</ele>
					<time>0001-01-01T00:00:00Z</time>
				</trkpt>
				<trkpt lat="54.71131" lon="-2.29326">
					<ele>558</ele>
					<time>0001-01-01T00:00:00Z</time>
				</trkpt>
				<trkpt lat="54.71075" lon="-2.29168">
					<ele>558</ele>
					<time>0001-01-01T00:00:00Z</time>
				</trkpt>
				<trkpt lat="54.70981" lon="-2.29054">
					<ele>562</ele>
					<time>0001-01-01T00:00:00Z</time>
				</trkpt>
				<trkpt lat="54.70878" lon="-2.28965">
					<ele>559</ele>
					<time>0001-01-01T00:00:00Z</time>
				</trkpt>
				<trkpt lat="54.70749" lon="-2.28895">
					<ele>553</ele>
					<time>0001-01-01T00:00:00Z</time>
				</trkpt>
				<trkpt lat="54.70674" lon="-2.28798">
					<ele>548</ele>
					<time>0001-01-01T00:00:00Z</time>
				</trkpt>
				<trkpt lat="54.70590" lon="-2.28740">
					<ele>544</ele>
					<time>0001-01-01T00:00:00Z</time>
				</trkpt>
				<trkpt lat="54.70504" lon="-2.28570">
					<ele>537</ele>
					<time>0001-01-01T00:00:00Z</time>
				</trkpt>
				<trkpt lat="54.70415" lon="-2.28358">
					<ele>530</ele>
					<time>0001-01-01T00:00:00Z</time>
				</trkpt>
				<trkpt lat="54.70378" lon="-2.28206">
					<ele>525</ele>
					<time>0001-01-01T00:00:00Z</time>
				</trkpt>
				<trkpt lat="54.70345" lon="-2.28156">
					<ele>524</ele>
					<time>0001-01-01T00:00:00Z</time>
				</trkpt>
				<trkpt lat="54.70301" lon="-2.28103">
					<ele>522</ele>
					<time>0001-01-01T00:00:00Z</time>
				</trkpt>
				<trkpt lat="54.70287" lon="-2.27969">
					<ele>517</ele>
					<time>0001-01-01T00:00:00Z</time>
				</trkpt>
				<trkpt lat="54.70286" lon="-2.27838">
					<ele>514</ele>
					<time>0001-01-01T00:00:00Z</time>
				</trkpt>
				<trkpt lat="54.70268" lon="-2.27770">
					<ele>512</ele>
					<time>0001-01-01T00:00:00Z</time>
				</trkpt>
				<trkpt lat="54.70227" lon="-2.27715">
					<ele>510</ele>
					<time>0001-01-01T00:00:00Z</time>
				</trkpt>
				<trkpt lat="54.70061" lon="-2.27613">
					<ele>503</ele>
					<time>0001-01-01T00:00:00Z</time>
				</trkpt>
				<trkpt lat="54.69960" lon="-2.27557">
					<ele>500</ele>
					<time>0001-01-01T00:00:00Z</time>
				</trkpt>
				<trkpt lat="54.69901" lon="-2.27502">
					<ele>498</ele>
					<time>0001-01-01T00:00:00Z</time>
				</trkpt>
				<trkpt lat="54.69756" lon="-2.27332">
					<ele>494</ele>
					<time>0001-01-01T00:00:00Z</time>
				</trkpt>
				<trkpt lat="54.69611" lon="-2.27208">
					<ele>488</ele>
					<time>0001-01-01T00:00:00Z</time>
				</trkpt>
				<trkpt lat="54.69440" lon="-2.27004">
					<ele>482</ele>
					<time>0001-01-01T00:00:00Z</time>
				</trkpt>
				<trkpt lat="54.69303" lon="-2.26733">
					<ele>478</ele>
					<time>0001-01-01T00:00:00Z</time>
				</trkpt>
				<trkpt lat="54.69176" lon="-2.26554">
					<ele>475</ele>
					<time>0001-01-01T00:00:00Z</time>
				</trkpt>
				<trkpt lat="54.69046" lon="-2.26340">
					<ele>472</ele>
					<time>0001-01-01T00:00:00Z</time>
				</trkpt>
				<trkpt lat="54.68931" lon="-2.26176">
					<ele>470</ele>
					<time>0001-01-01T00:00:00Z</time>
				</trkpt>
				<trkpt lat="54.68853" lon="-2.26006">
					<ele>467</ele>
					<time>0001-01-01T00:00:00Z</time>
				</trkpt>
				<trkpt lat="54.68727" lon="-2.25795">
					<ele>465</ele>
					<time>0001-01-01T00:00:00Z</time>
				</trkpt>
				<trkpt lat="54.68572" lon="-2.25565">
					<ele>461</ele>
					<time>0001-01-01T00:00:00Z</time>
				</trkpt>
				<trkpt lat="54.68517" lon="-2.25510">
					<ele>459</ele>
					<time>0001-01-01T00:00:00Z</time>
				</trkpt>
				<trkpt lat="54.68439" lon="-2.25336">
					<ele>457</ele>
					<time>0001-01-01T00:00:00Z</time>
				</trkpt>
				<trkpt lat="54.68375" lon="-2.25230">
					<ele>454</ele>
					<time>0001-01-01T00:00:00Z</time>
				</trkpt>
				<trkpt lat="54.68290" lon="-2.25039">
					<ele>451</ele>
					<time>0001-01-01T00:00:00Z</time>
				</trkpt>
				<trkpt lat="54.68242" lon="-2.24846">
					<ele>449</ele>
					<time>0001-01-01T00:00:00Z</time>
				</trkpt>
				<trkpt lat="54.68207" lon="-2.24589">
					<ele>450</ele>
					<time>0001-01-01T00:00:00Z</time>
				</trkpt>
				<trkpt lat="54.68179" lon="-2.24346">
					<ele>452</ele>
					<time>0001-01-01T00:00:00Z</time>
				</trkpt>
				<trkpt lat="54.68140" lon="-2.24128">
					<ele>453</ele>
					<time>0001-01-01T00:00:00Z</time>
				</trkpt>
				<trkpt lat="54.68078" lon="-2.23920">
					<ele>446</ele>
					<time>0001-01-01T00:00:00Z</time>
				</trkpt>
				<trkpt lat="54.68016" lon="-2.23668">
					<ele>433</ele>
					<time>0001-01-01T00:00:00Z</time>
				</trkpt>
				<trkpt lat="54.67938" lon="-2.23373">
					<ele>425</ele>
					<time>0001-01-01T00:00:00Z</time>
				</trkpt>
				<trkpt lat="54.67850" lon="-2.23142">
					<ele>412</ele>
					<time>0001-01-01T00:00:00Z</time>
				</trkpt>
				<trkpt lat="54.67809" lon="-2.23090">
					<ele>408</ele>
					<time>0001-01-01T00:00:00Z</time>
				</trkpt>
				<trkpt lat="54.67727" lon="-2.22892">
					<ele>399</ele>
					<time>0001-01-01T00:00:00Z</time>
				</trkpt>
				<trkpt lat="54.67719" lon="-2.22879">
					<ele>398</ele>
					<time>0001-01-01T00:00:00Z</time>
				</trkpt>
				<trkpt lat="54.67643" lon="-2.22887">
					<ele>391</ele>
					<time>0001-01-01T00:00:00Z</time>
				</trkpt>
				<trkpt lat="54.67586" lon="-2.22894">
					<ele>388</ele>
					<time>0001-01-01T00:00:00Z</time>
				</trkpt>
				<trkpt lat="54.67544" lon="-2.22836">
					<ele>389</ele>
					<time>0001-01-01T00:00:00Z</time>
				</trkpt>
				<trkpt lat="54.67538" lon="-2.22834">
					<ele>389</ele>
					<time>0001-01-01T00:00:00Z</time>
				</trkpt>
				<trkpt lat="54.67442" lon="-2.22810">
					<ele>390</ele>
					<time>0001-01-01T00:00:00Z</time>
				</trkpt>
				<trkpt lat="54.67363" lon="-2.22741">
					<ele>390</ele>
					<time>0001-01-01T00:00:00Z</time>
				</trkpt>
				<trkpt lat="54.67277" lon="-2.22579">
					<ele>388</ele>
					<time>0001-01-01T00:00:00Z</time>
				</trkpt>
				<trkpt lat="54.67200" lon="-2.22433">
					<ele>386</ele>
					<time>0001-01-01T00:00:00Z</time>
				</trkpt>
				<trkpt lat="54.67170" lon="-2.22302">
					<ele>383</ele>
					<time>0001-01-01T00:00:00Z</time>
				</trkpt>
				<trkpt lat="54.67098" lon="-2.22210">
					<ele>382</ele>
					<time>0001-01-01T00:00:00Z</time>
				</trkpt>
				<trkpt lat="54.67016" lon="-2.22040">
					<ele>381</ele>
					<time>0001-01-01T00:00:00Z</time>
				</trkpt>
				<trkpt lat="54.66992" lon="-2.21999">
					<ele>381</ele>
					<time>0001-01-01T00:00:00Z</time>
				</trkpt>
				<trkpt lat="54.66884" lon="-2.21886">
					<ele>382</ele>
					<time>0001-01-01T00:00:00Z</time>
				</trkpt>
				<trkpt lat="54.66789" lon="-2.21790">
					<ele>383</ele>
					<time>0001-01-01T00:00:00Z</time>
				</trkpt>
				<trkpt lat="54.66672" lon="-2.21661">
					<ele>383</ele>
					<time>0001-01-01T00:00:00Z</time>
				</trkpt>
				<trkpt lat="54.66552" lon="-2.21466">
					<ele>378</ele>
					<time>0001-01-01T00:00:00Z</time>
				</trkpt>
				<trkpt lat="54.66498" lon="-2.21300">
					<ele>377</ele>
					<time>0001-01-01T00:00:00Z</time>
				</trkpt>
				<trkpt lat="54.66410" lon="-2.21054">
					<ele>377</ele>
					<time>0001-01-01T00:00:00Z</time>
				</trkpt>
				<trkpt lat="54.66342" lon="-2.20816">
					<ele>377</ele>
					<time>0001-01-01T00:00:00Z</time>
				</trkpt>
				<trkpt lat="54.66226" lon="-2.20584">
					<ele>376</ele>
					<time>0001-01-01T00:00:00Z</time>
				</trkpt>
				<trkpt lat="54.66137" lon="-2.20355">
					<ele>376</ele>
					<time>0001-01-01T00:00:00Z</time>
				</trkpt>
				<trkpt lat="54.66060" lon="-2.20184">
					<ele>376</ele>
					<time>0001-01-01T00:00:00Z</time>
				</trkpt>
				<trkpt lat="54.65928" lon="-2.19922">
					<ele>374</ele>
					<time>0001-01-01T00:00:00Z</time>
				</trkpt>
				<trkpt lat="54.65844" lon="-2.19843">
					<ele>372</ele>
					<time>0001-01-01T00:00:00Z</time>
				</trkpt>
				<trkpt lat="54.65754" lon="-2.19720">
					<ele>367</ele>
					<time>0001-01-01T00:00:00Z</time>
				</trkpt>
				<trkpt lat="54.65700" lon="-2.19481">
					<ele>360</ele>
					<time>0001-01-01T00:00:00Z</time>
				</trkpt>
				<trkpt lat="54.65686" lon="-2.19382">
					<ele>357</ele>
					<time>0001-01-01T00:00:00Z</time>
				</trkpt>
				<trkpt lat="54.65660" lon="-2.19284">
					<ele>353</ele>
					<time>0001-01-01T00:00:00Z</time>
				</trkpt>
				<trkpt lat="54.65610" lon="-2.19182">
					<ele>347</ele>
					<time>0001-01-01T00:00:00Z</time>
				</trkpt>
				<trkpt lat="54.65600" lon="-2.19079">
					<ele>346</ele>
					<time>0001-01-01T00:00:00Z</time>
				</trkpt>
				<trkpt lat="54.65515" lon="-2.18815">
					<ele>341</ele>
					<time>0001-01-01T00:00:00Z</time>
				</trkpt>
				<trkpt lat="54.65464" lon="-2.18551">
					<ele>336</ele>
					<time>0001-01-01T00:00:00Z</time>
				</trkpt>
				<trkpt lat="54.65457" lon="-2.18450">
					<ele>336</ele>
					<time>0001-01-01T00:00:00Z</time>
				</trkpt>
				<trkpt lat="54.65397" lon="-2.18251">
					<ele>335</ele>
					<time>0001-01-01T00:00:00Z</time>
				</trkpt>
				<trkpt lat="54.65172" lon="-2.17680">
					<ele>320</ele>
					<time>0001-01-01T00:00:00Z</time>
				</trkpt>
				<trkpt lat="54.65081" lon="-2.17361">
					<ele>312</ele>
					<time>0001-01-01T00:00:00Z</time>
				</trkpt>
				<trkpt lat="54.65073" lon="-2.17332">
					<ele>310</ele>
					<time>0001-01-01T00:00:00Z</time>
				</trkpt>
				<trkpt lat="54.65081" lon="-2.17215">
					<ele>308</ele>
					<time>0001-01-01T00:00:00Z</time>
				</trkpt>
				<trkpt lat="54.65082" lon="-2.16974">
					<ele>302</ele>
					<time>0001-01-01T00:00:00Z</time>
				</trkpt>
				<trkpt lat="54.65073" lon="-2.16645">
					<ele>300</ele>
					<time>0001-01-01T00:00:00Z</time>
				</trkpt>
				<trkpt lat="54.65008" lon="-2.16390">
					<ele>294</ele>
					<time>0001-01-01T00:00:00Z</time>
				</trkpt>
				<trkpt lat="54.65005" lon="-2.16360">
					<ele>294</ele>
					<time>0001-01-01T00:00:00Z</time>
				</trkpt>
				<trkpt lat="54.65013" lon="-2.16175">
					<ele>296</ele>
					<time>0001-01-01T00:00:00Z</time>
				</trkpt>
				<trkpt lat="54.64999" lon="-2.16148">
					<ele>295</ele>
					<time>0001-01-01T00:00:00Z</time>
				</trkpt>
				<trkpt lat="54.64963" lon="-2.15935">
					<ele>292</ele>
					<time>0001-01-01T00:00:00Z</time>
				</trkpt>
				<trkpt lat="54.64950" lon="-2.15839">
					<ele>290</ele>
					<time>0001-01-01T00:00:00Z</time>
				</trkpt>
				<trkpt lat="54.64942" lon="-2.15471">
					<ele>287</ele>
					<time>0001-01-01T00:00:00Z</time>
				</trkpt>
				<trkpt lat="54.64861" lon="-2.15283">
					<ele>284</ele>
					<time>0001-01-01T00:00:00Z</time>
				</trkpt>
				<trkpt lat="54.64806" lon="-2.15138">
					<ele>283</ele>
					<time>0001-01-01T00:00:00Z</time>
				</trkpt>
				<trkpt lat="54.64794" lon="-2.15041">
					<ele>281</ele>
					<time>0001-01-01T00:00:00Z</time>
				</trkpt>
				<trkpt lat="54.64801" lon="-2.14818">
					<ele>276</ele>
					<time>0001-01-01T00:00:00Z</time>
				</trkpt>
				<trkpt lat="54.64746" lon="-2.14519">
					<ele>274</ele>
					<time>0001-01-01T00:00:00Z</time>
				</trkpt>
				<trkpt lat="54.64683" lon="-2.14206">
					<ele>273</ele>
					<time>0001-01-01T00:00:00Z</time>
				</trkpt>
				<trkpt lat="54.64594" lon="-2.13976">
					<ele>269</ele>
					<time>0001-01-01T00:00:00Z</time>
				</trkpt>
				<trkpt lat="54.64474" lon="-2.13736">
					<ele>269</ele>
					<time>0001-01-01T00:00:00Z</time>
				</trkpt>
				<trkpt lat="54.64375" lon="-2.13529">
					<ele>265</ele>
					<time>0001-01-01T00:00:00Z</time>
				</trkpt>
				<trkpt lat="54.64330" lon="-2.13428">
					<ele>264</ele>
					<time>0001-01-01T00:00:00Z</time>
				</trkpt>
				<trkpt lat="54.64300" lon="-2.13312">
					<ele>262</ele>
					<time>0001-01-01T00:00:00Z</time>
				</trkpt>
				<trkpt lat="54.64201" lon="-2.13103">
					<ele>255</ele>
					<time>0001-01-01T00:00:00Z</time>
				</trkpt>
				<trkpt lat="54.64120" lon="-2.13053">
					<ele>252</ele>
					<time>0001-01-01T00:00:00Z</time>
				</trkpt>
				<trkpt lat="54.64041" lon="-2.12964">
					<ele>252</ele>
					<time>0001-01-01T00:00:00Z</time>
				</trkpt>
				<trkpt lat="54.63937" lon="-2.12753">
					<ele>248</ele>
					<time>0001-01-01T00:00:00Z</time>
				</trkpt>
				<trkpt lat="54.63837" lon="-2.12535">
					<ele>247</ele>
					<time>0001-01-01T00:00:00Z</time>
				</trkpt>
				<trkpt lat="54.63740" lon="-2.12370">
					<ele>245</ele>
					<time>0001-01-01T00:00:00Z</time>
				</trkpt>
				<trkpt lat="54.63651" lon="-2.12156">
					<ele>242</ele>
					<time>0001-01-01T00:00:00Z</time>
				</trkpt>
				<trkpt lat="54.63598" lon="-2.11971">
					<ele>240</ele>
					<time>0001-01-01T00:00:00Z</time>
				</trkpt>
				<trkpt lat="54.63511" lon="-2.11754">
					<ele>238</ele>
					<time>0001-01-01T00:00:00Z</time>
				</trkpt>
				<trkpt lat="54.63471" lon="-2.11510">
					<ele>240</ele>
					<time>0001-01-01T00:00:00Z</time>
				</trkpt>
				<trkpt lat="54.63349" lon="-2.11192">
					<ele>243</ele>
					<time>0001-01-01T00:00:00Z</time>
				</trkpt>
				<trkpt lat="54.63327" lon="-2.11166">
					<ele>244</ele>
					<time>0001-01-01T00:00:00Z</time>
				</trkpt>
				<trkpt lat="54.63320" lon="-2.11153">
					<ele>245</ele>
					<time>0001-01-01T00:00:00Z</time>
				</trkpt>
				<trkpt lat="54.63240" lon="-2.10927">
					<ele>246</ele>
					<time>0001-01-01T00:00:00Z</time>
				</trkpt>
				<trkpt lat="54.63142" lon="-2.10737">
					<ele>247</ele>
					<time>0001-01-01T00:00:00Z</time>
				</trkpt>
				<trkpt lat="54.63035" lon="-2.10565">
					<ele>244</ele>
					<time>0001-01-01T00:00:00Z</time>
				</trkpt>
				<trkpt lat="54.62941" lon="-2.10350">
					<ele>243</ele>
					<time>0001-01-01T00:00:00Z</time>
				</trkpt>
				<trkpt lat="54.62849" lon="-2.10155">
					<ele>243</ele>
					<time>0001-01-01T00:00:00Z</time>
				</trkpt>
				<trkpt lat="54.62762" lon="-2.09928">
					<ele>245</ele>
					<time>0001-01-01T00:00:00Z</time>
				</trkpt>
				<trkpt lat="54.62685" lon="-2.09706">
					<ele>248</ele>
					<time>0001-01-01T00:00:00Z</time>
				</trkpt>
				<trkpt lat="54.62627" lon="-2.09500">
					<ele>249</ele>
					<time>0001-01-01T00:00:00Z</time>
				</trkpt>
				<trkpt lat="54.62605" lon="-2.09278">
					<ele>246</ele>
					<time>0001-01-01T00:00:00Z</time>
				</trkpt>
				<trkpt lat="54.62610" lon="-2.09046">
					<ele>241</ele>
					<time>0001-01-01T00:00:00Z</time>
				</trkpt>
				<trkpt lat="54.62575" lon="-2.08747">
					<ele>237</ele>
					<time>0001-01-01T00:00:00Z</time>
				</trkpt>
				<trkpt lat="54.62553" lon="-2.08533">
					<ele>234</ele>
					<time>0001-01-01T00:00:00Z</time>
				</trkpt>
				<trkpt lat="54.62581" lon="-2.08477">
					<ele>232</ele>
					<time>0001-01-01T00:00:00Z</time>
				</trkpt>
				<trkpt lat="54.62614" lon="-2.08438">
					<ele>231</ele>
					<time>0001-01-01T00:00:00Z</time>
				</trkpt>
				<trkpt lat="54.62623" lon="-2.08424">
					<ele>230</ele>
					<time>0001-01-01T00:00:00Z</time>
				</trkpt>
				<trkpt lat="54.62603" lon="-2.08380">
					<ele>229</ele>
					<time>0001-01-01T00:00:00Z</time>
				</trkpt>
				<trkpt lat="54.62596" lon="-2.08379">
					<ele>229</ele>
					<time>0001-01-01T00:00:00Z</time>
				</trkpt>
				<trkpt lat="54.62490" lon="-2.08360">
					<ele>232</ele>
					<time>0001-01-01T00:00:00Z</time>
				</trkpt>
				<trkpt lat="54.62429" lon="-2.08334">
					<ele>231</ele>
					<time>0001-01-01T00:00:00Z</time>
				</trkpt>
				<trkpt lat="54.62395" lon="-2.08310">
					<ele>231</ele>
					<time>0001-01-01T00:00:00Z</time>
				</trkpt>
				<trkpt lat="54.62391" lon="-2.08314">
					<ele>231</ele>
					<time>0001-01-01T00:00:00Z</time>
				</trkpt>
				<trkpt lat="54.62352" lon="-2.08338">
					<ele>231</ele>
					<time>0001-01-01T00:00:00Z</time>
				</trkpt>
				<trkpt lat="54.62347" lon="-2.08343">
					<ele>235</ele>
					<time>0001-01-01T00:00:00Z</time>
				</trkpt>
				<trkpt lat="54.62294" lon="-2.08373">
					<ele>230</ele>
					<time>0001-01-01T00:00:00Z</time>
				</trkpt>
				<trkpt lat="54.62266" lon="-2.08392">
					<ele>229</ele>
					<time>0001-01-01T00:00:00Z</time>
				</trkpt>
				<trkpt lat="54.62221" lon="-2.08469">
					<ele>226</ele>
					<time>0001-01-01T00:00:00Z</time>
				</trkpt>
				<trkpt lat="54.62198" lon="-2.08497">
					<ele>225</ele>
					<time>0001-01-01T00:00:00Z</time>
				</trkpt>
				<trkpt lat="54.62086" lon="-2.08509">
					<ele>224</ele>
					<time>0001-01-01T00:00:00Z</time>
				</trkpt>
				<trkpt lat="54.62018" lon="-2.08508">
					<ele>227</ele>
					<time>0001-01-01T00:00:00Z</time>
				</trkpt>
				<trkpt lat="54.61938" lon="-2.08510">
					<ele>234</ele>
					<time>0001-01-01T00:00:00Z</time>
				</trkpt>
				<trkpt lat="54.61880" lon="-2.08507">
					<ele>240</ele>
					<time>0001-01-01T00:00:00Z</time>
				</trkpt>
				<trkpt lat="54.61830" lon="-2.08436">
					<ele>240</ele>
					<time>0001-01-01T00:00:00Z</time>
				</trkpt>
				<trkpt lat="54.61688" lon="-2.08136">
					<ele>240</ele>
					<time>0001-01-01T00:00:00Z</time>
				</trkpt>
				<trkpt lat="54.61641" lon="-2.07929">
					<ele>239</ele>
					<time>0001-01-01T00:00:00Z</time>
				</trkpt>
				<trkpt lat="54.61584" lon="-2.07690">
					<ele>235</ele>
					<time>0001-01-01T00:00:00Z</time>
				</trkpt>
				<trkpt lat="54.61581" lon="-2.07663">
					<ele>235</ele>
					<time>0001-01-01T00:00:00Z</time>
				</trkpt>
				<trkpt lat="54.61589" lon="-2.07564">
					<ele>235</ele>
					<time>0001-01-01T00:00:00Z</time>
				</trkpt>
				<trkpt lat="54.61576" lon="-2.07449">
					<ele>234</ele>
					<time>0001-01-01T00:00:00Z</time>
				</trkpt>
				<trkpt lat="54.61577" lon="-2.07411">
					<ele>233</ele>
					<time>0001-01-01T00:00:00Z</time>
				</trkpt>
				<trkpt lat="54.61625" lon="-2.07187">
					<ele>231</ele>
					<time>0001-01-01T00:00:00Z</time>
				</trkpt>
				<trkpt lat="54.61632" lon="-2.07167">
					<ele>231</ele>
					<time>0001-01-01T00:00:00Z</time>
				</trkpt>
				<trkpt lat="54.61619" lon="-2.07057">
					<ele>229</ele>
					<time>0001-01-01T00:00:00Z</time>
				</trkpt>
				<trkpt lat="54.61606" lon="-2.07045">
					<ele>229</ele>
					<time>0001-01-01T00:00:00Z</time>
				</trkpt>
				<trkpt lat="54.61518" lon="-2.06933">
					<ele>231</ele>
					<time>0001-01-01T00:00:00Z</time>
				</trkpt>
				<trkpt lat="54.61455" lon="-2.06842">
					<ele>232</ele>
					<time>0001-01-01T00:00:00Z</time>
				</trkpt>
				<trkpt lat="54.61393" lon="-2.06757">
					<ele>234</ele>
					<time>0001-01-01T00:00:00Z</time>
				</trkpt>
				<trkpt lat="54.61328" lon="-2.06667">
					<ele>237</ele>
					<time>0001-01-01T00:00:00Z</time>
				</trkpt>
				<trkpt lat="54.61258" lon="-2.06581">
					<ele>235</ele>
					<time>0001-01-01T00:00:00Z</time>
				</trkpt>
				<trkpt lat="54.61158" lon="-2.06504">
					<ele>231</ele>
					<time>0001-01-01T00:00:00Z</time>
				</trkpt>
				<trkpt lat="54.61109" lon="-2.06319">
					<ele>230</ele>
					<time>0001-01-01T00:00:00Z</time>
				</trkpt>
				<trkpt lat="54.61092" lon="-2.06207">
					<ele>232</ele>
					<time>0001-01-01T00:00:00Z</time>
				</trkpt>
				<trkpt lat="54.61026" lon="-2.06067">
					<ele>236</ele>
					<time>0001-01-01T00:00:00Z</time>
				</trkpt>
				<trkpt lat="54.60968" lon="-2.05962">
					<ele>233</ele>
					<time>0001-01-01T00:00:00Z</time>
				</trkpt>
				<trkpt lat="54.60958" lon="-2.05906">
					<ele>233</ele>
					<time>0001-01-01T00:00:00Z</time>
				</trkpt>
				<trkpt lat="54.60930" lon="-2.05736">
					<ele>234</ele>
					<time>0001-01-01T00:00:00Z</time>
				</trkpt>
				<trkpt lat="54.60884" lon="-2.05600">
					<ele>235</ele>
					<time>0001-01-01T00:00:00Z</time>
				</trkpt>
				<trkpt lat="54.60878" lon="-2.05524">
					<ele>236</ele>
					<time>0001-01-01T00:00:00Z</time>
				</trkpt>
				<trkpt lat="54.60876" lon="-2.05310">
					<ele>236</ele>
					<time>0001-01-01T00:00:00Z</time>
				</trkpt>
				<trkpt lat="54.60872" lon="-2.05065">
					<ele>235</ele>
					<time>0001-01-01T00:00:00Z</time>
				</trkpt>
				<trkpt lat="54.60853" lon="-2.04842">
					<ele>235</ele>
					<time>0001-01-01T00:00:00Z</time>
				</trkpt>
				<trkpt lat="54.60829" lon="-2.04711">
					<ele>233</ele>
					<time>0001-01-01T00:00:00Z</time>
				</trkpt>
				<trkpt lat="54.60820" lon="-2.04543">
					<ele>231</ele>
					<time>0001-01-01T00:00:00Z</time>
				</trkpt>
				<trkpt lat="54.60773" lon="-2.04318">
					<ele>231</ele>
					<time>0001-01-01T00:00:00Z</time>
				</trkpt>
				<trkpt lat="54.60723" lon="-2.04060">
					<ele>231</ele>
					<time>0001-01-01T00:00:00Z</time>
				</trkpt>
				<trkpt lat="54.60696" lon="-2.04055">
					<ele>232</ele>
					<time>0001-01-01T00:00:00Z</time>
				</trkpt>
				<trkpt lat="54.60560" lon="-2.03876">
					<ele>229</ele>
					<time>0001-01-01T00:00:00Z</time>
				</trkpt>
				<trkpt lat="54.60400" lon="-2.03427">
					<ele>228</ele>
					<time>0001-01-01T00:00:00Z</time>
				</trkpt>
				<trkpt lat="54.60349" lon="-2.03253">
					<ele>230</ele>
					<time>0001-01-01T00:00:00Z</time>
				</trkpt>
				<trkpt lat="54.60305" lon="-2.03098">
					<ele>230</ele>
					<time>0001-01-01T00:00:00Z</time>
				</trkpt>
				<trkpt lat="54.60230" lon="-2.02855">
					<ele>227</ele>
					<time>0001-01-01T00:00:00Z</time>
				</trkpt>
				<trkpt lat="54.60173" lon="-2.02567">
					<ele>224</ele>
					<time>0001-01-01T00:00:00Z</time>
				</trkpt>
				<trkpt lat="54.60094" lon="-2.02281">
					<ele>222</ele>
					<time>0001-01-01T00:00:00Z</time>
				</trkpt>
				<trkpt lat="54.60019" lon="-2.02045">
					<ele>226</ele>
					<time>0001-01-01T00:00:00Z</time>
				</trkpt>
				<trkpt lat="54.59942" lon="-2.01873">
					<ele>227</ele>
					<time>0001-01-01T00:00:00Z</time>
				</trkpt>
				<trkpt lat="54.59876" lon="-2.01728">
					<ele>224</ele>
					<time>0001-01-01T00:00:00Z</time>
				</trkpt>
				<trkpt lat="54.59798" lon="-2.01557">
					<ele>224</ele>
					<time>0001-01-01T00:00:00Z</time>
				</trkpt>
				<trkpt lat="54.59714" lon="-2.01357">
					<ele>220</ele>
					<time>0001-01-01T00:00:00Z</time>
				</trkpt>
				<trkpt lat="54.59650" lon="-2.01204">
					<ele>222</ele>
					<time>0001-01-01T00:00:00Z</time>
				</trkpt>
				<trkpt lat="54.59622" lon="-2.01101">
					<ele>224</ele>
					<time>0001-01-01T00:00:00Z</time>
				</trkpt>
				<trkpt lat="54.59603" lon="-2.01064">
					<ele>223</ele>
					<time>0001-01-01T00:00:00Z</time>
				</trkpt>
				<trkpt lat="54.59561" lon="-2.01069">
					<ele>223</ele>
					<time>0001-01-01T00:00:00Z</time>
				</trkpt>
				<trkpt lat="54.59544" lon="-2.01080">
					<ele>222</ele>
					<time>0001-01-01T00:00:00Z</time>
				</trkpt>
				<trkpt lat="54.59473" lon="-2.01084">
					<ele>226</ele>
					<time>0001-01-01T00:00:00Z</time>
				</trkpt>
				<trkpt lat="54.59468" lon="-2.01086">
					<ele>227</ele>
					<time>0001-01-01T00:00:00Z</time>
				</trkpt>
				<trkpt lat="54.59452" lon="-2.01084">
					<ele>229</ele>
					<time>0001-01-01T00:00:00Z</time>
				</trkpt>
				<trkpt lat="54.59440" lon="-2.01081">
					<ele>229</ele>
					<time>0001-01-01T00:00:00Z</time>
				</trkpt>
				<trkpt lat="54.59423" lon="-2.01077">
					<ele>229</ele>
					<time>0001-01-01T00:00:00Z</time>
				</trkpt>
				<trkpt lat="54.59421" lon="-2.01079">
					<ele>228</ele>
					<time>0001-01-01T00:00:00Z</time>
				</trkpt>
				<trkpt lat="54.59393" lon="-2.01080">
					<ele>228</ele>
					<time>0001-01-01T00:00:00Z</time>
				</trkpt>
				<trkpt lat="54.59349" lon="-2.01050">
					<ele>226</ele>
					<time>0001-01-01T00:00:00Z</time>
				</trkpt>
				<trkpt lat="54.59295" lon="-2.01053">
					<ele>227</ele>
					<time>0001-01-01T00:00:00Z</time>
				</trkpt>
				<trkpt lat="54.59235" lon="-2.01066">
					<ele>227</ele>
					<time>0001-01-01T00:00:00Z</time>
				</trkpt>
				<trkpt lat="54.59138" lon="-2.01010">
					<ele>227</ele>
					<time>0001-01-01T00:00:00Z</time>
				</trkpt>
				<trkpt lat="54.59092" lon="-2.00963">
					<ele>230</ele>
					<time>0001-01-01T00:00:00Z</time>
				</trkpt>
				<trkpt lat="54.59032" lon="-2.00898">
					<ele>231</ele>
					<time>0001-01-01T00:00:00Z</time>
				</trkpt>
				<trkpt lat="54.58972" lon="-2.00761">
					<ele>228</ele>
					<time>0001-01-01T00:00:00Z</time>
				</trkpt>
				<trkpt lat="54.58933" lon="-2.00628">
					<ele>229</ele>
					<time>0001-01-01T00:00:00Z</time>
				</trkpt>
				<trkpt lat="54.58852" lon="-2.00536">
					<ele>226</ele>
					<time>0001-01-01T00:00:00Z</time>
				</trkpt>
				<trkpt lat="54.58742" lon="-2.00447">
					<ele>221</ele>
					<time>0001-01-01T00:00:00Z</time>
				</trkpt>
				<trkpt lat="54.58716" lon="-2.00433">
					<ele>221</ele>
					<time>0001-01-01T00:00:00Z</time>
				</trkpt>
				<trkpt lat="54.58677" lon="-2.00394">
					<ele>220</ele>
					<time>0001-01-01T00:00:00Z</time>
				</trkpt>
				<trkpt lat="54.58635" lon="-2.00334">
					<ele>218</ele>
					<time>0001-01-01T00:00:00Z</time>
				</trkpt>
				<trkpt lat="54.58561" lon="-2.00135">
					<ele>210</ele>
					<time>0001-01-01T00:00:00Z</time>
				</trkpt>
				<trkpt lat="54.58516" lon="-2.00083">
					<ele>211</ele>
					<time>0001-01-01T00:00:00Z</time>
				</trkpt>
				<trkpt lat="54.58426" lon="-2.00038">
					<ele>215</ele>
					<time>0001-01-01T00:00:00Z</time>
				</trkpt>
				<trkpt lat="54.58337" lon="-2.00002">
					<ele>206</ele>
					<time>0001-01-01T00:00:00Z</time>
				</trkpt>
				<trkpt lat="54.58249" lon="-2.00002">
					<ele>202</ele>
					<time>0001-01-01T00:00:00Z</time>
				</trkpt>
				<trkpt lat="54.58198" lon="-1.99932">
					<ele>200</ele>
					<time>0001-01-01T00:00:00Z</time>
				</trkpt>
				<trkpt lat="54.58131" lon="-1.99662">
					<ele>195</ele>
					<time>0001-01-01T00:00:00Z</time>
				</trkpt>
				<trkpt lat="54.58128" lon="-1.99645">
					<ele>195</ele>
					<time>0001-01-01T00:00:00Z</time>
				</trkpt>
				<trkpt lat="54.58104" lon="-1.99591">
					<ele>191</ele>
					<time>0001-01-01T00:00:00Z</time>
				</trkpt>
				<trkpt lat="54.58008" lon="-1.99480">
					<ele>190</ele>
					<time>0001-01-01T00:00:00Z</time>
				</trkpt>
				<trkpt lat="54.57911" lon="-1.99307">
					<ele>189</ele>
					<time>0001-01-01T00:00:00Z</time>
				</trkpt>
				<trkpt lat="54.57817" lon="-1.99100">
					<ele>189</ele>
					<time>0001-01-01T00:00:00Z</time>
				</trkpt>
				<trkpt lat="54.57771" lon="-1.98970">
					<ele>189</ele>
					<time>0001-01-01T00:00:00Z</time>
				</trkpt>
				<trkpt lat="54.57612" lon="-1.98762">
					<ele>177</ele>
					<time>0001-01-01T00:00:00Z</time>
				</trkpt>
				<trkpt lat="54.57602" lon="-1.98755">
					<ele>176</ele>
					<time>0001-01-01T00:00:00Z</time>
				</trkpt>
				<trkpt lat="54.57549" lon="-1.98736">
					<ele>174</ele>
					<time>0001-01-01T00:00:00Z</time>
				</trkpt>
				<trkpt lat="54.57516" lon="-1.98690">
					<ele>176</ele>
					<time>0001-01-01T00:00:00Z</time>
				</trkpt>
				<trkpt lat="54.57484" lon="-1.98630">
					<ele>179</ele>
					<time>0001-01-01T00:00:00Z</time>
				</trkpt>
				<trkpt lat="54.57439" lon="-1.98577">
					<ele>177</ele>
					<time>0001-01-01T00:00:00Z</time>
				</trkpt>
				<trkpt lat="54.57433" lon="-1.98566">
					<ele>177</ele>
					<time>0001-01-01T00:00:00Z</time>
				</trkpt>
				<trkpt lat="54.57355" lon="-1.98473">
					<ele>179</ele>
					<time>0001-01-01T00:00:00Z</time>
				</trkpt>
				<trkpt lat="54.57293" lon="-1.98362">
					<ele>182</ele>
					<time>0001-01-01T00:00:00Z</time>
				</trkpt>
				<trkpt lat="54.57198" lon="-1.98242">
					<ele>180</ele>
					<time>0001-01-01T00:00:00Z</time>
				</trkpt>
				<trkpt lat="54.57138" lon="-1.98112">
					<ele>182</ele>
					<time>0001-01-01T00:00:00Z</time>
				</trkpt>
				<trkpt lat="54.57090" lon="-1.98101">
					<ele>182</ele>
					<time>0001-01-01T00:00:00Z</time>
				</trkpt>
				<trkpt lat="54.57000" lon="-1.98145">
					<ele>186</ele>
					<time>0001-01-01T00:00:00Z</time>
				</trkpt>
				<trkpt lat="54.56974" lon="-1.98134">
					<ele>186</ele>
					<time>0001-01-01T00:00:00Z</time>
				</trkpt>
				<trkpt lat="54.56935" lon="-1.98096">
					<ele>189</ele>
					<time>0001-01-01T00:00:00Z</time>
				</trkpt>
				<trkpt lat="54.56835" lon="-1.98061">
					<ele>190</ele>
					<time>0001-01-01T00:00:00Z</time>
				</trkpt>
				<trkpt lat="54.56728" lon="-1.98060">
					<ele>193</ele>
					<time>0001-01-01T00:00:00Z</time>
				</trkpt>
				<trkpt lat="54.56653" lon="-1.98065">
					<ele>196</ele>
					<time>0001-01-01T00:00:00Z</time>
				</trkpt>
				<trkpt lat="54.56549" lon="-1.98088">
					<ele>198</ele>
					<time>0001-01-01T00:00:00Z</time>
				</trkpt>
				<trkpt lat="54.56480" lon="-1.98087">
					<ele>199</ele>
					<time>0001-01-01T00:00:00Z</time>
				</trkpt>
				<trkpt lat="54.56408" lon="-1.98088">
					<ele>207</ele>
					<time>0001-01-01T00:00:00Z</time>
				</trkpt>
				<trkpt lat="54.56324" lon="-1.98104">
					<ele>211</ele>
					<time>0001-01-01T00:00:00Z</time>
				</trkpt>
				<trkpt lat="54.56259" lon="-1.98105">
					<ele>209</ele>
					<time>0001-01-01T00:00:00Z</time>
				</trkpt>
				<trkpt lat="54.56172" lon="-1.98100">
					<ele>210</ele>
					<time>0001-01-01T00:00:00Z</time>
				</trkpt>
				<trkpt lat="54.56086" lon="-1.98131">
					<ele>213</ele>
					<time>0001-01-01T00:00:00Z</time>
				</trkpt>
				<trkpt lat="54.55995" lon="-1.98155">
					<ele>218</ele>
					<time>0001-01-01T00:00:00Z</time>
				</trkpt>
				<trkpt lat="54.55910" lon="-1.98159">
					<ele>221</ele>
					<time>0001-01-01T00:00:00Z</time>
				</trkpt>
				<trkpt lat="54.55797" lon="-1.98130">
					<ele>223</ele>
					<time>0001-01-01T00:00:00Z</time>
				</trkpt>
				<trkpt lat="54.55638" lon="-1.97907">
					<ele>221</ele>
					<time>0001-01-01T00:00:00Z</time>
				</trkpt>
				<trkpt lat="54.55550" lon="-1.97721">
					<ele>218</ele>
					<time>0001-01-01T00:00:00Z</time>
				</trkpt>
				<trkpt lat="54.55544" lon="-1.97710">
					<ele>218</ele>
					<time>0001-01-01T00:00:00Z</time>
				</trkpt>
				<trkpt lat="54.55532" lon="-1.97695">
					<ele>218</ele>
					<time>0001-01-01T00:00:00Z</time>
				</trkpt>
				<trkpt lat="54.55488" lon="-1.97680">
					<ele>217</ele>
					<time>0001-01-01T00:00:00Z</time>
				</trkpt>
				<trkpt lat="54.55455" lon="-1.97602">
					<ele>218</ele>
					<time>0001-01-01T00:00:00Z</time>
				</trkpt>
				<trkpt lat="54.55452" lon="-1.97560">
					<ele>219</ele>
					<time>0001-01-01T00:00:00Z</time>
				</trkpt>
				<trkpt lat="54.55477" lon="-1.97362">
					<ele>215</ele>
					<time>0001-01-01T00:00:00Z</time>
				</trkpt>
				<trkpt lat="54.55500" lon="-1.97144">
					<ele>216</ele>
					<time>0001-01-01T00:00:00Z</time>
				</trkpt>
				<trkpt lat="54.55471" lon="-1.96966">
					<ele>215</ele>
					<time>0001-01-01T00:00:00Z</time>
				</trkpt>
				<trkpt lat="54.55418" lon="-1.96937">
					<ele>216</ele>
					<time>0001-01-01T00:00:00Z</time>
				</trkpt>
				<trkpt lat="54.55373" lon="-1.96930">
					<ele>216</ele>
					<time>0001-01-01T00:00:00Z</time>
				</trkpt>
				<trkpt lat="54.55301" lon="-1.96913">
					<ele>217</ele>
					<time>0001-01-01T00:00:00Z</time>
				</trkpt>
				<trkpt lat="54.55217" lon="-1.96838">
					<ele>214</ele>
					<time>0001-01-01T00:00:00Z</time>
				</trkpt>
				<trkpt lat="54.55185" lon="-1.96771">
					<ele>211</ele>
					<time>0001-01-01T00:00:00Z</time>
				</trkpt>
				<trkpt lat="54.55172" lon="-1.96733">
					<ele>210</ele>
					<time>0001-01-01T00:00:00Z</time>
				</trkpt>
				<trkpt lat="54.55153" lon="-1.96591">
					<ele>206</ele>
					<time>0001-01-01T00:00:00Z</time>
				</trkpt>
				<trkpt lat="54.55156" lon="-1.96531">
					<ele>204</ele>
					<time>0001-01-01T00:00:00Z</time>
				</trkpt>
				<trkpt lat="54.55197" lon="-1.96326">
					<ele>200</ele>
					<time>0001-01-01T00:00:00Z</time>
				</trkpt>
				<trkpt lat="54.55203" lon="-1.96150">
					<ele>196</ele>
					<time>0001-01-01T00:00:00Z</time>
				</trkpt>
				<trkpt lat="54.55153" lon="-1.95886">
					<ele>193</ele>
					<time>0001-01-01T00:00:00Z</time>
				</trkpt>
				<trkpt lat="54.55057" lon="-1.95557">
					<ele>190</ele>
					<time>0001-01-01T00:00:00Z</time>
				</trkpt>
				<trkpt lat="54.54957" lon="-1.95222">
					<ele>188</ele>
					<time>0001-01-01T00:00:00Z</time>
				</trkpt>
				<trkpt lat="54.54844" lon="-1.94829">
					<ele>187</ele>
					<time>0001-01-01T00:00:00Z</time>
				</trkpt>
				<trkpt lat="54.54756" lon="-1.94536">
					<ele>187</ele>
					<time>0001-01-01T00:00:00Z</time>
				</trkpt>
				<trkpt lat="54.54673" lon="-1.94232">
					<ele>182</ele>
					<time>0001-01-01T00:00:00Z</time>
				</trkpt>
				<trkpt lat="54.54607" lon="-1.93834">
					<ele>171</ele>
					<time>0001-01-01T00:00:00Z</time>
				</trkpt>
				<trkpt lat="54.54561" lon="-1.93425">
					<ele>159</ele>
					<time>0001-01-01T00:00:00Z</time>
				</trkpt>
				<trkpt lat="54.54557" lon="-1.93147">
					<ele>145</ele>
					<time>0001-01-01T00:00:00Z</time>
				</trkpt>
				<trkpt lat="54.54523" lon="-1.93074">
					<ele>143</ele>
					<time>0001-01-01T00:00:00Z</time>
				</trkpt>
				<trkpt lat="54.54436" lon="-1.93004">
					<ele>141</ele>
					<time>0001-01-01T00:00:00Z</time>
				</trkpt>
				<trkpt lat="54.54345" lon="-1.92872">
					<ele>138</ele>
					<time>0001-01-01T00:00:00Z</time>
				</trkpt>
				<trkpt lat="54.54326" lon="-1.92813">
					<ele>136</ele>
					<time>0001-01-01T00:00:00Z</time>
				</trkpt>
				<trkpt lat="54.54302" lon="-1.92786">
					<ele>135</ele>
					<time>0001-01-01T00:00:00Z</time>
				</trkpt>
				<trkpt lat="54.54276" lon="-1.92775">
					<ele>137</ele>
					<time>0001-01-01T00:00:00Z</time>
				</trkpt>
				<trkpt lat="54.54270" lon="-1.92752">
					<ele>139</ele>
					<time>0001-01-01T00:00:00Z</time>
				</trkpt>
				<trkpt lat="54.54273" lon="-1.92712">
					<ele>140</ele>
					<time>0001-01-01T00:00:00Z</time>
				</trkpt>
				<trkpt lat="54.54248" lon="-1.92676">
					<ele>139</ele>
					<time>0001-01-01T00:00:00Z</time>
				</trkpt>
				<trkpt lat="54.54141" lon="-1.92619">
					<ele>139</ele>
					<time>0001-01-01T00:00:00Z</time>
				</trkpt>
				<trkpt lat="54.54072" lon="-1.92546">
					<ele>140</ele>
					<time>0001-01-01T00:00:00Z</time>
				</trkpt>
				<trkpt lat="54.54064" lon="-1.92461">
					<ele>142</ele>
					<time>0001-01-01T00:00:00Z</time>
				</trkpt>
				<trkpt lat="54.54111" lon="-1.92423">
					<ele>146</ele>
					<time>0001-01-01T00:00:00Z</time>
				</trkpt>
				<trkpt lat="54.54153" lon="-1.92405">
					<ele>152</ele>
					<time>0001-01-01T00:00:00Z</time>
				</trkpt>
				<trkpt lat="54.54233" lon="-1.92378">
					<ele>159</ele>
					<time>0001-01-01T00:00:00Z</time>
				</trkpt>
				<trkpt lat="54.54213" lon="-1.92318">
					<ele>162</ele>
					<time>0001-01-01T00:00:00Z</time>
				</trkpt>
				<trkpt lat="54.54160" lon="-1.92070">
					<ele>166</ele>
					<time>0001-01-01T00:00:00Z</time>
				</trkpt>
				<trkpt lat="54.54123" lon="-1.91865">
					<ele>165</ele>
					<time>0001-01-01T00:00:00Z</time>
				</trkpt>
				<trkpt lat="54.54019" lon="-1.91280">
					<ele>158</ele>
					<time>0001-01-01T00:00:00Z</time>
				</trkpt>
				<trkpt lat="54.53951" lon="-1.90987">
					<ele>158</ele>
					<time>0001-01-01T00:00:00Z</time>
				</trkpt>
				<trkpt lat="54.53941" lon="-1.90957">
					<ele>159</ele>
					<time>0001-01-01T00:00:00Z</time>
				</trkpt>
				<trkpt lat="54.53851" lon="-1.90780">
					<ele>158</ele>
					<time>0001-01-01T00:00:00Z</time>
				</trkpt>
				<trkpt lat="54.53767" lon="-1.90595">
					<ele>158</ele>
					<time>0001-01-01T00:00:00Z</time>
				</trkpt>
				<trkpt lat="54.53696" lon="-1.90404">
					<ele>158</ele>
					<time>0001-01-01T00:00:00Z</time>
				</trkpt>
				<trkpt lat="54.53624" lon="-1.90202">
					<ele>158</ele>
					<time>0001-01-01T00:00:00Z</time>
				</trkpt>
				<trkpt lat="54.53572" lon="-1.90010">
					<ele>159</ele>
					<time>0001-01-01T00:00:00Z</time>
				</trkpt>
				<trkpt lat="54.53530" lon="-1.89786">
					<ele>157</ele>
					<time>0001-01-01T00:00:00Z</time>
				</trkpt>
				<trkpt lat="54.53516" lon="-1.89574">
					<ele>156</ele>
					<time>0001-01-01T00:00:00Z</time>
				</trkpt>
				<trkpt lat="54.53498" lon="-1.89355">
					<ele>157</ele>
					<time>0001-01-01T00:00:00Z</time>
				</trkpt>
				<trkpt lat="54.53494" lon="-1.89320">
					<ele>157</ele>
					<time>0001-01-01T00:00:00Z</time>
				</trkpt>
				<trkpt lat="54.53466" lon="-1.89070">
					<ele>158</ele>
					<time>0001-01-01T00:00:00Z</time>
				</trkpt>
				<trkpt lat="54.53441" lon="-1.88861">
					<ele>161</ele>
					<time>0001-01-01T00:00:00Z</time>
				</trkpt>
				<trkpt lat="54.53419" lon="-1.88624">
					<ele>160</ele>
					<time>0001-01-01T00:00:00Z</time>
				</trkpt>
				<trkpt lat="54.53376" lon="-1.88249">
					<ele>158</ele>
					<time>0001-01-01T00:00:00Z</time>
				</trkpt>
				<trkpt lat="54.53331" lon="-1.88039">
					<ele>156</ele>
					<time>0001-01-01T00:00:00Z</time>
				</trkpt>
				<trkpt lat="54.53309" lon="-1.87767">
					<ele>153</ele>
					<time>0001-01-01T00:00:00Z</time>
				</trkpt>
				<trkpt lat="54.53277" lon="-1.87489">
					<ele>151</ele>
					<time>0001-01-01T00:00:00Z</time>
				</trkpt>
				<trkpt lat="54.53243" lon="-1.87213">
					<ele>148</ele>
					<time>0001-01-01T00:00:00Z</time>
				</trkpt>
				<trkpt lat="54.53211" lon="-1.86899">
					<ele>147</ele>
					<time>0001-01-01T00:00:00Z</time>
				</trkpt>
				<trkpt lat="54.53201" lon="-1.86513">
					<ele>143</ele>
					<time>0001-01-01T00:00:00Z</time>
				</trkpt>
				<trkpt lat="54.53204" lon="-1.86286">
					<ele>143</ele>
					<time>0001-01-01T00:00:00Z</time>
				</trkpt>
				<trkpt lat="54.53247" lon="-1.86167">
					<ele>143</ele>
					<time>0001-01-01T00:00:00Z</time>
				</trkpt>
				<trkpt lat="54.53267" lon="-1.86101">
					<ele>142</ele>
					<time>0001-01-01T00:00:00Z</time>
				</trkpt>
				<trkpt lat="54.53270" lon="-1.86071">
					<ele>142</ele>
					<time>0001-01-01T00:00:00Z</time>
				</trkpt>
				<trkpt lat="54.53227" lon="-1.85735">
					<ele>142</ele>
					<time>0001-01-01T00:00:00Z</time>
				</trkpt>
				<trkpt lat="54.53188" lon="-1.85467">
					<ele>143</ele>
					<time>0001-01-01T00:00:00Z</time>
				</trkpt>
				<trkpt lat="54.53177" lon="-1.85288">
					<ele>143</ele>
					<time>0001-01-01T00:00:00Z</time>
				</trkpt>
				<trkpt lat="54.53151" lon="-1.85095">
					<ele>142</ele>
					<time>0001-01-01T00:00:00Z</time>
				</trkpt>
				<trkpt lat="54.53109" lon="-1.84834">
					<ele>141</ele>
					<time>0001-01-01T00:00:00Z</time>
				</trkpt>
				<trkpt lat="54.53101" lon="-1.84758">
					<ele>141</ele>
					<time>0001-01-01T00:00:00Z</time>
				</trkpt>
				<trkpt lat="54.53085" lon="-1.84634">
					<ele>143</ele>
					<time>0001-01-01T00:00:00Z</time>
				</trkpt>
				<trkpt lat="54.53045" lon="-1.84320">
					<ele>141</ele>
					<time>0001-01-01T00:00:00Z</time>
				</trkpt>
				<trkpt lat="54.53028" lon="-1.83833">
					<ele>137</ele>
					<time>0001-01-01T00:00:00Z</time>
				</trkpt>
				<trkpt lat="54.53015" lon="-1.83822">
					<ele>137</ele>
					<time>0001-01-01T00:00:00Z</time>
				</trkpt>
				<trkpt lat="54.52892" lon="-1.83824">
					<ele>135</ele>
					<time>0001-01-01T00:00:00Z</time>
				</trkpt>
				<trkpt lat="54.52784" lon="-1.83823">
					<ele>133</ele>
					<time>0001-01-01T00:00:00Z</time>
				</trkpt>
				<trkpt lat="54.52757" lon="-1.83814">
					<ele>133</ele>
					<time>0001-01-01T00:00:00Z</time>
				</trkpt>
				<trkpt lat="54.52736" lon="-1.83802">
					<ele>134</ele>
					<time>0001-01-01T00:00:00Z</time>
				</trkpt>
				<trkpt lat="54.52663" lon="-1.83510">
					<ele>134</ele>
					<time>0001-01-01T00:00:00Z</time>
				</trkpt>
				<trkpt lat="54.52660" lon="-1.83633">
					<ele>128</ele>
					<time>0001-01-01T00:00:00Z</time>
				</trkpt>
				<trkpt lat="54.52652" lon="-1.83673">
					<ele>125</ele>
					<time>0001-01-01T00:00:00Z</time>
				</trkpt>
				<trkpt lat="54.52563" lon="-1.83695">
					<ele>121</ele>
					<time>0001-01-01T00:00:00Z</time>
				</trkpt>
				<trkpt lat="54.52495" lon="-1.83719">
					<ele>121</ele>
					<time>0001-01-01T00:00:00Z</time>
				</trkpt>
				<trkpt lat="54.52437" lon="-1.83734">
					<ele>123</ele>
					<time>0001-01-01T00:00:00Z</time>
				</trkpt>
				<trkpt lat="54.52368" lon="-1.83746">
					<ele>126</ele>
					<time>0001-01-01T00:00:00Z</time>
				</trkpt>
				<trkpt lat="54.52333" lon="-1.83758">
					<ele>128</ele>
					<time>0001-01-01T00:00:00Z</time>
				</trkpt>
				<trkpt lat="54.52295" lon="-1.83762">
					<ele>131</ele>
					<time>0001-01-01T00:00:00Z</time>
				</trkpt>
				<trkpt lat="54.52290" lon="-1.83706">
					<ele>131</ele>
					<time>0001-01-01T00:00:00Z</time>
				</trkpt>
				<trkpt lat="54.52292" lon="-1.83506">
					<ele>131</ele>
					<time>0001-01-01T00:00:00Z</time>
				</trkpt>
				<trkpt lat="54.52294" lon="-1.83241">
					<ele>126</ele>
					<time>0001-01-01T00:00:00Z</time>
				</trkpt>
				<trkpt lat="54.52280" lon="-1.82893">
					<ele>122</ele>
					<time>0001-01-01T00:00:00Z</time>
				</trkpt>
				<trkpt lat="54.52277" lon="-1.82691">
					<ele>122</ele>
					<time>0001-01-01T00:00:00Z</time>
				</trkpt>
				<trkpt lat="54.52277" lon="-1.82622">
					<ele>122</ele>
					<time>0001-01-01T00:00:00Z</time>
				</trkpt>
				<trkpt lat="54.52245" lon="-1.82478">
					<ele>125</ele>
					<time>0001-01-01T00:00:00Z</time>
				</trkpt>
				<trkpt lat="54.52232" lon="-1.82437">
					<ele>127</ele>
					<time>0001-01-01T00:00:00Z</time>
				</trkpt>
				<trkpt lat="54.52182" lon="-1.82285">
					<ele>128</ele>
					<time>0001-01-01T00:00:00Z</time>
				</trkpt>
				<trkpt lat="54.52111" lon="-1.82004">
					<ele>124</ele>
					<time>0001-01-01T00:00:00Z</time>
				</trkpt>
				<trkpt lat="54.52095" lon="-1.81875">
					<ele>123</ele>
					<time>0001-01-01T00:00:00Z</time>
				</trkpt>
				<trkpt lat="54.52113" lon="-1.81655">
					<ele>125</ele>
					<time>0001-01-01T00:00:00Z</time>
				</trkpt>
				<trkpt lat="54.52131" lon="-1.81453">
					<ele>125</ele>
					<time>0001-01-01T00:00:00Z</time>
				</trkpt>
				<trkpt lat="54.52153" lon="-1.81179">
					<ele>126</ele>
					<time>0001-01-01T00:00:00Z</time>
				</trkpt>
				<trkpt lat="54.52164" lon="-1.81086">
					<ele>127</ele>
					<time>0001-01-01T00:00:00Z</time>
				</trkpt>
				<trkpt lat="54.52163" lon="-1.80960">
					<ele>127</ele>
					<time>0001-01-01T00:00:00Z</time>
				</trkpt>
				<trkpt lat="54.52148" lon="-1.80700">
					<ele>127</ele>
					<time>0001-01-01T00:00:00Z</time>
				</trkpt>
				<trkpt lat="54.52139" lon="-1.80469">
					<ele>126</ele>
					<time>0001-01-01T00:00:00Z</time>
				</trkpt>
				<trkpt lat="54.52114" lon="-1.80092">
					<ele>126</ele>
					<time>0001-01-01T00:00:00Z</time>
				</trkpt>
				<trkpt lat="54.52102" lon="-1.80030">
					<ele>126</ele>
					<time>0001-01-01T00:00:00Z</time>
				</trkpt>
				<trkpt lat="54.52080" lon="-1.80014">
					<ele>126</ele>
					<time>0001-01-01T00:00:00Z</time>
				</trkpt>
				<trkpt lat="54.51979" lon="-1.79984">
					<ele>128</ele>
					<time>0001-01-01T00:00:00Z</time>
				</trkpt>
				<trkpt lat="54.51910" lon="-1.79973">
					<ele>136</ele>
					<time>0001-01-01T00:00:00Z</time>
				</trkpt>
				<trkpt lat="54.51825" lon="-1.79961">
					<ele>140</ele>
					<time>0001-01-01T00:00:00Z</time>
				</trkpt>
				<trkpt lat="54.51734" lon="-1.79947">
					<ele>136</ele>
					<time>0001-01-01T00:00:00Z</time>
				</trkpt>
				<trkpt lat="54.51596" lon="-1.79939">
					<ele>135</ele>
					<time>0001-01-01T00:00:00Z</time>
				</trkpt>
				<trkpt lat="54.51479" lon="-1.79967">
					<ele>136</ele>
					<time>0001-01-01T00:00:00Z</time>
				</trkpt>
				<trkpt lat="54.51467" lon="-1.79968">
					<ele>136</ele>
					<time>0001-01-01T00:00:00Z</time>
				</trkpt>
				<trkpt lat="54.51438" lon="-1.79948">
					<ele>136</ele>
					<time>0001-01-01T00:00:00Z</time>
				</trkpt>
				<trkpt lat="54.51430" lon="-1.79715">
					<ele>136</ele>
					<time>0001-01-01T00:00:00Z</time>
				</trkpt>
				<trkpt lat="54.51417" lon="-1.79494">
					<ele>138</ele>
					<time>0001-01-01T00:00:00Z</time>
				</trkpt>
				<trkpt lat="54.51419" lon="-1.79251">
					<ele>140</ele>
					<time>0001-01-01T00:00:00Z</time>
				</trkpt>
				<trkpt lat="54.51446" lon="-1.79004">
					<ele>139</ele>
					<time>0001-01-01T00:00:00Z</time>
				</trkpt>
				<trkpt lat="54.51470" lon="-1.78793">
					<ele>141</ele>
					<time>0001-01-01T00:00:00Z</time>
				</trkpt>
				<trkpt lat="54.51493" lon="-1.78512">
					<ele>144</ele>
					<time>0001-01-01T00:00:00Z</time>
				</trkpt>
				<trkpt lat="54.51500" lon="-1.78432">
					<ele>144</ele>
					<time>0001-01-01T00:00:00Z</time>
				</trkpt>
				<trkpt lat="54.51569" lon="-1.78143">
					<ele>142</ele>
					<time>0001-01-01T00:00:00Z</time>
				</trkpt>
				<trkpt lat="54.51610" lon="-1.77889">
					<ele>141</ele>
					<time>0001-01-01T00:00:00Z</time>
				</trkpt>
				<trkpt lat="54.51604" lon="-1.77642">
					<ele>141</ele>
					<time>0001-01-01T00:00:00Z</time>
				</trkpt>
				<trkpt lat="54.51568" lon="-1.77309">
					<ele>144</ele>
					<time>0001-01-01T00:00:00Z</time>
				</trkpt>
				<trkpt lat="54.51567" lon="-1.77279">
					<ele>143</ele>
					<time>0001-01-01T00:00:00Z</time>
				</trkpt>
				<trkpt lat="54.51593" lon="-1.76949">
					<ele>145</ele>
					<time>0001-01-01T00:00:00Z</time>
				</trkpt>
				<trkpt lat="54.51642" lon="-1.76562">
					<ele>145</ele>
					<time>0001-01-01T00:00:00Z</time>
				</trkpt>
				<trkpt lat="54.51668" lon="-1.76294">
					<ele>146</ele>
					<time>0001-01-01T00:00:00Z</time>
				</trkpt>
				<trkpt lat="54.51692" lon="-1.76086">
					<ele>145</ele>
					<time>0001-01-01T00:00:00Z</time>
				</trkpt>
				<trkpt lat="54.51661" lon="-1.75857">
					<ele>142</ele>
					<time>0001-01-01T00:00:00Z</time>
				</trkpt>
				<trkpt lat="54.51649" lon="-1.75700">
					<ele>140</ele>
					<time>0001-01-01T00:00:00Z</time>
				</trkpt>
				<trkpt lat="54.51672" lon="-1.75496">
					<ele>136</ele>
					<time>0001-01-01T00:00:00Z</time>
				</trkpt>
				<trkpt lat="54.51675" lon="-1.75425">
					<ele>134</ele>
					<time>0001-01-01T00:00:00Z</time>
				</trkpt>
				<trkpt lat="54.51658" lon="-1.75388">
					<ele>135</ele>
					<time>0001-01-01T00:00:00Z</time>
				</trkpt>
				<trkpt lat="54.51611" lon="-1.75319">
					<ele>134</ele>
					<time>0001-01-01T00:00:00Z</time>
				</trkpt>
				<trkpt lat="54.51516" lon="-1.75040">
					<ele>130</ele>
					<time>0001-01-01T00:00:00Z</time>
				</trkpt>
				<trkpt lat="54.51504" lon="-1.75015">
					<ele>130</ele>
					<time>0001-01-01T00:00:00Z</time>
				</trkpt>
				<trkpt lat="54.51464" lon="-1.74997">
					<ele>127</ele>
					<time>0001-01-01T00:00:00Z</time>
				</trkpt>
				<trkpt lat="54.51263" lon="-1.74961">
					<ele>121</ele>
					<time>0001-01-01T00:00:00Z</time>
				</trkpt>
				<trkpt lat="54.51181" lon="-1.74948">
					<ele>120</ele>
					<time>0001-01-01T00:00:00Z</time>
				</trkpt>
				<trkpt lat="54.51134" lon="-1.74929">
					<ele>121</ele>
					<time>0001-01-01T00:00:00Z</time>
				</trkpt>
				<trkpt lat="54.51105" lon="-1.74878">
					<ele>120</ele>
					<time>0001-01-01T00:00:00Z</time>
				</trkpt>
				<trkpt lat="54.51050" lon="-1.74715">
					<ele>123</ele>
					<time>0001-01-01T00:00:00Z</time>
				</trkpt>
				<trkpt lat="54.50964" lon="-1.74505">
					<ele>122</ele>
					<time>0001-01-01T00:00:00Z</time>
				</trkpt>
				<trkpt lat="54.50887" lon="-1.74308">
					<ele>123</ele>
					<time>0001-01-01T00:00:00Z</time>
				</trkpt>
				<trkpt lat="54.50826" lon="-1.74095">
					<ele>121</ele>
					<time>0001-01-01T00:00:00Z</time>
				</trkpt>
				<trkpt lat="54.50814" lon="-1.74062">
					<ele>121</ele>
					<time>0001-01-01T00:00:00Z</time>
				</trkpt>
				<trkpt lat="54.50841" lon="-1.73973">
					<ele>121</ele>
					<time>0001-01-01T00:00:00Z</time>
				</trkpt>
				<trkpt lat="54.50915" lon="-1.73669">
					<ele>121</ele>
					<time>0001-01-01T00:00:00Z</time>
				</trkpt>
				<trkpt lat="54.50926" lon="-1.73346">
					<ele>119</ele>
					<time>0001-01-01T00:00:00Z</time>
				</trkpt>
				<trkpt lat="54.50897" lon="-1.73276">
					<ele>117</ele>
					<time>0001-01-01T00:00:00Z</time>
				</trkpt>
				<trkpt lat="54.50739" lon="-1.73122">
					<ele>114</ele>
					<time>0001-01-01T00:00:00Z</time>
				</trkpt>
				<trkpt lat="54.50616" lon="-1.73022">
					<ele>108</ele>
					<time>0001-01-01T00:00:00Z</time>
				</trkpt>
				<trkpt lat="54.50519" lon="-1.72976">
					<ele>108</ele>
					<time>0001-01-01T00:00:00Z</time>
				</trkpt>
				<trkpt lat="54.50489" lon="-1.72961">
					<ele>108</ele>
					<time>0001-01-01T00:00:00Z</time>
				</trkpt>
				<trkpt lat="54.50445" lon="-1.72950">
					<ele>108</ele>
					<time>0001-01-01T00:00:00Z</time>
				</trkpt>
				<trkpt lat="54.50295" lon="-1.72987">
					<ele>105</ele>
					<time>0001-01-01T00:00:00Z</time>
				</trkpt>
				<trkpt lat="54.50228" lon="-1.72993">
					<ele>103</ele>
					<time>0001-01-01T00:00:00Z</time>
				</trkpt>
				<trkpt lat="54.50093" lon="-1.73034">
					<ele>103</ele>
					<time>0001-01-01T00:00:00Z</time>
				</trkpt>
				<trkpt lat="54.49994" lon="-1.73069">
					<ele>107</ele>
					<time>0001-01-01T00:00:00Z</time>
				</trkpt>
				<trkpt lat="54.49897" lon="-1.73093">
					<ele>112</ele>
					<time>0001-01-01T00:00:00Z</time>
				</trkpt>
				<trkpt lat="54.49767" lon="-1.73072">
					<ele>113</ele>
					<time>0001-01-01T00:00:00Z</time>
				</trkpt>
				<trkpt lat="54.49638" lon="-1.73061">
					<ele>115</ele>
					<time>0001-01-01T00:00:00Z</time>
				</trkpt>
				<trkpt lat="54.49535" lon="-1.73067">
					<ele>115</ele>
					<time>0001-01-01T00:00:00Z</time>
				</trkpt>
				<trkpt lat="54.49435" lon="-1.73073">
					<ele>118</ele>
					<time>0001-01-01T00:00:00Z</time>
				</trkpt>
				<trkpt lat="54.49342" lon="-1.73039">
					<ele>125</ele>
					<time>0001-01-01T00:00:00Z</time>
				</trkpt>
				<trkpt lat="54.49259" lon="-1.73014">
					<ele>128</ele>
					<time>0001-01-01T00:00:00Z</time>
				</trkpt>
				<trkpt lat="54.49158" lon="-1.72981">
					<ele>133</ele>
					<time>0001-01-01T00:00:00Z</time>
				</trkpt>
				<trkpt lat="54.49055" lon="-1.72968">
					<ele>137</ele>
					<time>0001-01-01T00:00:00Z</time>
				</trkpt>
				<trkpt lat="54.48953" lon="-1.72956">
					<ele>138</ele>
					<time>0001-01-01T00:00:00Z</time>
				</trkpt>
				<trkpt lat="54.48943" lon="-1.72957">
					<ele>137</ele>
					<time>0001-01-01T00:00:00Z</time>
				</trkpt>
				<trkpt lat="54.48832" lon="-1.73018">
					<ele>135</ele>
					<time>0001-01-01T00:00:00Z</time>
				</trkpt>
				<trkpt lat="54.48703" lon="-1.73060">
					<ele>138</ele>
					<time>0001-01-01T00:00:00Z</time>
				</trkpt>
				<trkpt lat="54.48595" lon="-1.73077">
					<ele>140</ele>
					<time>0001-01-01T00:00:00Z</time>
				</trkpt>
				<trkpt lat="54.48528" lon="-1.73094">
					<ele>144</ele>
					<time>0001-01-01T00:00:00Z</time>
				</trkpt>
				<trkpt lat="54.48454" lon="-1.73122">
					<ele>147</ele>
					<time>0001-01-01T00:00:00Z</time>
				</trkpt>
				<trkpt lat="54.48379" lon="-1.73147">
					<ele>149</ele>
					<time>0001-01-01T00:00:00Z</time>
				</trkpt>
				<trkpt lat="54.48277" lon="-1.73175">
					<ele>155</ele>
					<time>0001-01-01T00:00:00Z</time>
				</trkpt>
				<trkpt lat="54.48212" lon="-1.73183">
					<ele>156</ele>
					<time>0001-01-01T00:00:00Z</time>
				</trkpt>
				<trkpt lat="54.48145" lon="-1.73254">
					<ele>159</ele>
					<time>0001-01-01T00:00:00Z</time>
				</trkpt>
				<trkpt lat="54.48103" lon="-1.73300">
					<ele>161</ele>
					<time>0001-01-01T00:00:00Z</time>
				</trkpt>
				<trkpt lat="54.48077" lon="-1.73302">
					<ele>162</ele>
					<time>0001-01-01T00:00:00Z</time>
				</trkpt>
				<trkpt lat="54.48069" lon="-1.73299">
					<ele>163</ele>
					<time>0001-01-01T00:00:00Z</time>
				</trkpt>
				<trkpt lat="54.47984" lon="-1.73200">
					<ele>165</ele>
					<time>0001-01-01T00:00:00Z</time>
				</trkpt>
				<trkpt lat="54.47868" lon="-1.73056">
					<ele>167</ele>
					<time>0001-01-01T00:00:00Z</time>
				</trkpt>
				<trkpt lat="54.47790" lon="-1.72959">
					<ele>172</ele>
					<time>0001-01-01T00:00:00Z</time>
				</trkpt>
				<trkpt lat="54.47734" lon="-1.72893">
					<ele>175</ele>
					<time>0001-01-01T00:00:00Z</time>
				</trkpt>
				<trkpt lat="54.47728" lon="-1.72841">
					<ele>174</ele>
					<time>0001-01-01T00:00:00Z</time>
				</trkpt>
				<trkpt lat="54.47748" lon="-1.72751">
					<ele>173</ele>
					<time>0001-01-01T00:00:00Z</time>
				</trkpt>
				<trkpt lat="54.47756" lon="-1.72604">
					<ele>173</ele>
					<time>0001-01-01T00:00:00Z</time>
				</trkpt>
				<trkpt lat="54.47703" lon="-1.72424">
					<ele>172</ele>
					<time>0001-01-01T00:00:00Z</time>
				</trkpt>
				<trkpt lat="54.47635" lon="-1.72230">
					<ele>175</ele>
					<time>0001-01-01T00:00:00Z</time>
				</trkpt>
				<trkpt lat="54.47583" lon="-1.72085">
					<ele>178</ele>
					<time>0001-01-01T00:00:00Z</time>
				</trkpt>
				<trkpt lat="54.47533" lon="-1.71927">
					<ele>179</ele>
					<time>0001-01-01T00:00:00Z</time>
				</trkpt>
				<trkpt lat="54.47480" lon="-1.71743">
					<ele>179</ele>
					<time>0001-01-01T00:00:00Z</time>
				</trkpt>
				<trkpt lat="54.47409" lon="-1.71555">
					<ele>175</ele>
					<time>0001-01-01T00:00:00Z</time>
				</trkpt>
				<trkpt lat="54.47351" lon="-1.71321">
					<ele>169</ele>
					<time>0001-01-01T00:00:00Z</time>
				</trkpt>
				<trkpt lat="54.47271" lon="-1.70991">
					<ele>158</ele>
					<time>0001-01-01T00:00:00Z</time>
				</trkpt>
				<trkpt lat="54.47235" lon="-1.70768">
					<ele>153</ele>
					<time>0001-01-01T00:00:00Z</time>
				</trkpt>
				<trkpt lat="54.47191" lon="-1.70559">
					<ele>150</ele>
					<time>0001-01-01T00:00:00Z</time>
				</trkpt>
				<trkpt lat="54.47187" lon="-1.70422">
					<ele>150</ele>
					<time>0001-01-01T00:00:00Z</time>
				</trkpt>
				<trkpt lat="54.47199" lon="-1.70158">
					<ele>146</ele>
					<time>0001-01-01T00:00:00Z</time>
				</trkpt>
				<trkpt lat="54.47183" lon="-1.69861">
					<ele>142</ele>
					<time>0001-01-01T00:00:00Z</time>
				</trkpt>
				<trkpt lat="54.47179" lon="-1.69848">
					<ele>142</ele>
					<time>0001-01-01T00:00:00Z</time>
				</trkpt>
				<trkpt lat="54.47169" lon="-1.69827">
					<ele>143</ele>
					<time>0001-01-01T00:00:00Z</time>
				</trkpt>
				<trkpt lat="54.47101" lon="-1.69597">
					<ele>137</ele>
					<time>0001-01-01T00:00:00Z</time>
				</trkpt>
				<trkpt lat="54.47079" lon="-1.69499">
					<ele>138</ele>
					<time>0001-01-01T00:00:00Z</time>
				</trkpt>
				<trkpt lat="54.47079" lon="-1.69404">
					<ele>138</ele>
					<time>0001-01-01T00:00:00Z</time>
				</trkpt>
				<trkpt lat="54.47059" lon="-1.69346">
					<ele>138</ele>
					<time>0001-01-01T00:00:00Z</time>
				</trkpt>
				<trkpt lat="54.47043" lon="-1.69315">
					<ele>138</ele>
					<time>0001-01-01T00:00:00Z</time>
				</trkpt>
				<trkpt lat="54.47017" lon="-1.69193">
					<ele>139</ele>
					<time>0001-01-01T00:00:00Z</time>
				</trkpt>
				<trkpt lat="54.47012" lon="-1.69001">
					<ele>137</ele>
					<time>0001-01-01T00:00:00Z</time>
				</trkpt>
				<trkpt lat="54.47001" lon="-1.68781">
					<ele>137</ele>
					<time>0001-01-01T00:00:00Z</time>
				</trkpt>
				<trkpt lat="54.47027" lon="-1.68634">
					<ele>137</ele>
					<time>0001-01-01T00:00:00Z</time>
				</trkpt>
				<trkpt lat="54.47033" lon="-1.68604">
					<ele>137</ele>
					<time>0001-01-01T00:00:00Z</time>
				</trkpt>
				<trkpt lat="54.47026" lon="-1.68438">
					<ele>135</ele>
					<time>0001-01-01T00:00:00Z</time>
				</trkpt>
				<trkpt lat="54.47008" lon="-1.68198">
					<ele>133</ele>
					<time>0001-01-01T00:00:00Z</time>
				</trkpt>
				<trkpt lat="54.47019" lon="-1.67904">
					<ele>130</ele>
					<time>0001-01-01T00:00:00Z</time>
				</trkpt>
				<trkpt lat="54.47035" lon="-1.67650">
					<ele>121</ele>
					<time>0001-01-01T00:00:00Z</time>
				</trkpt>
				<trkpt lat="54.47049" lon="-1.67516">
					<ele>115</ele>
					<time>0001-01-01T00:00:00Z</time>
				</trkpt>
				<trkpt lat="54.47010" lon="-1.67260">
					<ele>112</ele>
					<time>0001-01-01T00:00:00Z</time>
				</trkpt>
				<trkpt lat="54.47002" lon="-1.67194">
					<ele>110</ele>
					<time>0001-01-01T00:00:00Z</time>
				</trkpt>
				<trkpt lat="54.47016" lon="-1.66995">
					<ele>104</ele>
					<time>0001-01-01T00:00:00Z</time>
				</trkpt>
				<trkpt lat="54.47019" lon="-1.66969">
					<ele>103</ele>
					<time>0001-01-01T00:00:00Z</time>
				</trkpt>
				<trkpt lat="54.47001" lon="-1.66933">
					<ele>102</ele>
					<time>0001-01-01T00:00:00Z</time>
				</trkpt>
				<trkpt lat="54.46902" lon="-1.66812">
					<ele>97</ele>
					<time>0001-01-01T00:00:00Z</time>
				</trkpt>
				<trkpt lat="54.46868" lon="-1.66749">
					<ele>94</ele>
					<time>0001-01-01T00:00:00Z</time>
				</trkpt>
				<trkpt lat="54.46863" lon="-1.66703">
					<ele>92</ele>
					<time>0001-01-01T00:00:00Z</time>
				</trkpt>
				<trkpt lat="54.46864" lon="-1.66664">
					<ele>92</ele>
					<time>0001-01-01T00:00:00Z</time>
				</trkpt>
				<trkpt lat="54.46852" lon="-1.66560">
					<ele>91</ele>
					<time>0001-01-01T00:00:00Z</time>
				</trkpt>
				<trkpt lat="54.46817" lon="-1.66508">
					<ele>90</ele>
					<time>0001-01-01T00:00:00Z</time>
				</trkpt>
				<trkpt lat="54.46777" lon="-1.66439">
					<ele>90</ele>
					<time>0001-01-01T00:00:00Z</time>
				</trkpt>
				<trkpt lat="54.46707" lon="-1.66146">
					<ele>88</ele>
					<time>0001-01-01T00:00:00Z</time>
				</trkpt>
				<trkpt lat="54.46702" lon="-1.66100">
					<ele>87</ele>
					<time>0001-01-01T00:00:00Z</time>
				</trkpt>
				<trkpt lat="54.46710" lon="-1.65938">
					<ele>86</ele>
					<time>0001-01-01T00:00:00Z</time>
				</trkpt>
				<trkpt lat="54.46692" lon="-1.65892">
					<ele>87</ele>
					<time>0001-01-01T00:00:00Z</time>
				</trkpt>
				<trkpt lat="54.46642" lon="-1.65865">
					<ele>90</ele>
					<time>0001-01-01T00:00:00Z</time>
				</trkpt>
				<trkpt lat="54.46614" lon="-1.65873">
					<ele>92</ele>
					<time>0001-01-01T00:00:00Z</time>
				</trkpt>
				<trkpt lat="54.46494" lon="-1.65996">
					<ele>92</ele>
					<time>0001-01-01T00:00:00Z</time>
				</trkpt>
				<trkpt lat="54.46391" lon="-1.66105">
					<ele>93</ele>
					<time>0001-01-01T00:00:00Z</time>
				</trkpt>
				<trkpt lat="54.46296" lon="-1.66205">
					<ele>98</ele>
					<time>0001-01-01T00:00:00Z</time>
				</trkpt>
				<trkpt lat="54.46224" lon="-1.66285">
					<ele>101</ele>
					<time>0001-01-01T00:00:00Z</time>
				</trkpt>
				<trkpt lat="54.46156" lon="-1.66371">
					<ele>101</ele>
					<time>0001-01-01T00:00:00Z</time>
				</trkpt>
				<trkpt lat="54.46043" lon="-1.66513">
					<ele>102</ele>
					<time>0001-01-01T00:00:00Z</time>
				</trkpt>
				<trkpt lat="54.45945" lon="-1.66628">
					<ele>109</ele>
					<time>0001-01-01T00:00:00Z</time>
				</trkpt>
				<trkpt lat="54.45847" lon="-1.66720">
					<ele>116</ele>
					<time>0001-01-01T00:00:00Z</time>
				</trkpt>
				<trkpt lat="54.45762" lon="-1.66783">
					<ele>121</ele>
					<time>0001-01-01T00:00:00Z</time>
				</trkpt>
				<trkpt lat="54.45741" lon="-1.66795">
					<ele>121</ele>
					<time>0001-01-01T00:00:00Z</time>
				</trkpt>
				<trkpt lat="54.45716" lon="-1.66798">
					<ele>122</ele>
					<time>0001-01-01T00:00:00Z</time>
				</trkpt>
				<trkpt lat="54.45706" lon="-1.66795">
					<ele>123</ele>
					<time>0001-01-01T00:00:00Z</time>
				</trkpt>
				<trkpt lat="54.45683" lon="-1.66778">
					<ele>123</ele>
					<time>0001-01-01T00:00:00Z</time>
				</trkpt>
				<trkpt lat="54.45658" lon="-1.66735">
					<ele>125</ele>
					<time>0001-01-01T00:00:00Z</time>
				</trkpt>
				<trkpt lat="54.45639" lon="-1.66662">
					<ele>125</ele>
					<time>0001-01-01T00:00:00Z</time>
				</trkpt>
				<trkpt lat="54.45566" lon="-1.66419">
					<ele>121</ele>
					<time>0001-01-01T00:00:00Z</time>
				</trkpt>
				<trkpt lat="54.45456" lon="-1.66135">
					<ele>119</ele>
					<time>0001-01-01T00:00:00Z</time>
				</trkpt>
				<trkpt lat="54.45074" lon="-1.65543">
					<ele>114</ele>
					<time>0001-01-01T00:00:00Z</time>
				</trkpt>
				<trkpt lat="54.44993" lon="-1.65441">
					<ele>112</ele>
					<time>0001-01-01T00:00:00Z</time>
				</trkpt>
				<trkpt lat="54.44922" lon="-1.65322">
					<ele>108</ele>
					<time>0001-01-01T00:00:00Z</time>
				</trkpt>
				<trkpt lat="54.44923" lon="-1.65300">
					<ele>109</ele>
					<time>0001-01-01T00:00:00Z</time>
				</trkpt>
				<trkpt lat="54.44933" lon="-1.65272">
					<ele>108</ele>
					<time>0001-01-01T00:00:00Z</time>
				</trkpt>
				<trkpt lat="54.44957" lon="-1.65265">
					<ele>106</ele>
					<time>0001-01-01T00:00:00Z</time>
				</trkpt>
				<trkpt lat="54.44961" lon="-1.65258">
					<ele>106</ele>
					<time>0001-01-01T00:00:00Z</time>
				</trkpt>
				<trkpt lat="54.44956" lon="-1.65248">
					<ele>107</ele>
					<time>0001-01-01T00:00:00Z</time>
				</trkpt>
				<trkpt lat="54.44944" lon="-1.65235">
					<ele>107</ele>
					<time>0001-01-01T00:00:00Z</time>
				</trkpt>
				<trkpt lat="54.44939" lon="-1.65231">
					<ele>111</ele>
					<time>0001-01-01T00:00:00Z</time>
				</trkpt>
				<trkpt lat="54.44941" lon="-1.65212">
					<ele>119</ele>
					<time>0001-01-01T00:00:00Z</time>
				</trkpt>
				<trkpt lat="54.44936" lon="-1.65229">
					<ele>105</ele>
					<time>0001-01-01T00:00:00Z</time>
				</trkpt>
				<trkpt lat="54.44936" lon="-1.65229">
					<ele>105</ele>
					<time>0001-01-01T00:00:00Z</time>
				</trkpt>
				<trkpt lat="54.44959" lon="-1.65249">
					<ele>106</ele>
					<time>0001-01-01T00:00:00Z</time>
				</trkpt>
				<trkpt lat="54.44957" lon="-1.65265">
					<ele>105</ele>
					<time>0001-01-01T00:00:00Z</time>
				</trkpt>
				<trkpt lat="54.44948" lon="-1.65268">
					<ele>106</ele>
					<time>0001-01-01T00:00:00Z</time>
				</trkpt>
				<trkpt lat="54.44943" lon="-1.65279">
					<ele>108</ele>
					<time>0001-01-01T00:00:00Z</time>
				</trkpt>
				<trkpt lat="54.44942" lon="-1.65272">
					<ele>105</ele>
					<time>0001-01-01T00:00:00Z</time>
				</trkpt>
				<trkpt lat="54.44933" lon="-1.65283">
					<ele>104</ele>
					<time>0001-01-01T00:00:00Z</time>
				</trkpt>
				<trkpt lat="54.44918" lon="-1.65314">
					<ele>104</ele>
					<time>0001-01-01T00:00:00Z</time>
				</trkpt>
				<trkpt lat="54.44918" lon="-1.65313">
					<ele>104</ele>
					<time>0001-01-01T00:00:00Z</time>
				</trkpt>
				<trkpt lat="54.44904" lon="-1.65296">
					<ele>105</ele>
					<time>0001-01-01T00:00:00Z</time>
				</trkpt>
				<trkpt lat="54.44836" lon="-1.65209">
					<ele>103</ele>
					<time>0001-01-01T00:00:00Z</time>
				</trkpt>
				<trkpt lat="54.44821" lon="-1.65192">
					<ele>103</ele>
					<time>0001-01-01T00:00:00Z</time>
				</trkpt>
				<trkpt lat="54.44828" lon="-1.65180">
					<ele>102</ele>
					<time>0001-01-01T00:00:00Z</time>
				</trkpt>
				<trkpt lat="54.44830" lon="-1.65164">
					<ele>102</ele>
					<time>0001-01-01T00:00:00Z</time>
				</trkpt>
				<trkpt lat="54.44820" lon="-1.65125">
					<ele>100</ele>
					<time>0001-01-01T00:00:00Z</time>
				</trkpt>
				<trkpt lat="54.44791" lon="-1.64994">
					<ele>98</ele>
					<time>0001-01-01T00:00:00Z</time>
				</trkpt>
				<trkpt lat="54.44805" lon="-1.64945">
					<ele>99</ele>
					<time>0001-01-01T00:00:00Z</time>
				</trkpt>
				<trkpt lat="54.44810" lon="-1.64930">
					<ele>99</ele>
					<time>0001-01-01T00:00:00Z</time>
				</trkpt>
				<trkpt lat="54.44836" lon="-1.64862">
					<ele>98</ele>
					<time>0001-01-01T00:00:00Z</time>
				</trkpt>
				<trkpt lat="54.44858" lon="-1.64732">
					<ele>88</ele>
					<time>0001-01-01T00:00:00Z</time>
				</trkpt>
				<trkpt lat="54.44833" lon="-1.64690">
					<ele>85</ele>
					<time>0001-01-01T00:00:00Z</time>
				</trkpt>
				<trkpt lat="54.44818" lon="-1.64682">
					<ele>85</ele>
					<time>0001-01-01T00:00:00Z</time>
				</trkpt>
				<trkpt lat="54.44776" lon="-1.64674">
					<ele>88</ele>
					<time>0001-01-01T00:00:00Z</time>
				</trkpt>
				<trkpt lat="54.44742" lon="-1.64686">
					<ele>87</ele>
					<time>0001-01-01T00:00:00Z</time>
				</trkpt>
				<trkpt lat="54.44724" lon="-1.64606">
					<ele>84</ele>
					<time>0001-01-01T00:00:00Z</time>
				</trkpt>
				<trkpt lat="54.44730" lon="-1.64519">
					<ele>83</ele>
					<time>0001-01-01T00:00:00Z</time>
				</trkpt>
				<trkpt lat="54.44715" lon="-1.64481">
					<ele>84</ele>
					<time>0001-01-01T00:00:00Z</time>
				</trkpt>
				<trkpt lat="54.44565" lon="-1.64383">
					<ele>86</ele>
					<time>0001-01-01T00:00:00Z</time>
				</trkpt>
				<trkpt lat="54.44495" lon="-1.64368">
					<ele>85</ele>
					<time>0001-01-01T00:00:00Z</time>
				</trkpt>
				<trkpt lat="54.44416" lon="-1.64243">
					<ele>83</ele>
					<time>0001-01-01T00:00:00Z</time>
				</trkpt>
				<trkpt lat="54.44281" lon="-1.64127">
					<ele>82</ele>
					<time>0001-01-01T00:00:00Z</time>
				</trkpt>
				<trkpt lat="54.44115" lon="-1.64009">
					<ele>82</ele>
					<time>0001-01-01T00:00:00Z</time>
				</trkpt>
				<trkpt lat="54.44089" lon="-1.63998">
					<ele>81</ele>
					<time>0001-01-01T00:00:00Z</time>
				</trkpt>
				<trkpt lat="54.43891" lon="-1.63953">
					<ele>77</ele>
					<time>0001-01-01T00:00:00Z</time>
				</trkpt>
				<trkpt lat="54.43831" lon="-1.63917">
					<ele>77</ele>
					<time>0001-01-01T00:00:00Z</time>
				</trkpt>
				<trkpt lat="54.43790" lon="-1.63918">
					<ele>77</ele>
					<time>0001-01-01T00:00:00Z</time>
				</trkpt>
				<trkpt lat="54.43637" lon="-1.63943">
					<ele>77</ele>
					<time>0001-01-01T00:00:00Z</time>
				</trkpt>
				<trkpt lat="54.43477" lon="-1.63887">
					<ele>76</ele>
					<time>0001-01-01T00:00:00Z</time>
				</trkpt>
				<trkpt lat="54.43381" lon="-1.63803">
					<ele>77</ele>
					<time>0001-01-01T00:00:00Z</time>
				</trkpt>
				<trkpt lat="54.43268" lon="-1.63779">
					<ele>77</ele>
					<time>0001-01-01T00:00:00Z</time>
				</trkpt>
				<trkpt lat="54.43166" lon="-1.63799">
					<ele>72</ele>
					<time>0001-01-01T00:00:00Z</time>
				</trkpt>
				<trkpt lat="54.43121" lon="-1.63778">
					<ele>70</ele>
					<time>0001-01-01T00:00:00Z</time>
				</trkpt>
				<trkpt lat="54.43049" lon="-1.63699">
					<ele>71</ele>
					<time>0001-01-01T00:00:00Z</time>
				</trkpt>
				<trkpt lat="54.43011" lon="-1.63687">
					<ele>71</ele>
					<time>0001-01-01T00:00:00Z</time>
				</trkpt>
				<trkpt lat="54.42983" lon="-1.63702">
					<ele>70</ele>
					<time>0001-01-01T00:00:00Z</time>
				</trkpt>
				<trkpt lat="54.42901" lon="-1.63671">
					<ele>69</ele>
					<time>0001-01-01T00:00:00Z</time>
				</trkpt>
				<trkpt lat="54.42867" lon="-1.63647">
					<ele>69</ele>
					<time>0001-01-01T00:00:00Z</time>
				</trkpt>
				<trkpt lat="54.42831" lon="-1.63647">
					<ele>68</ele>
					<time>0001-01-01T00:00:00Z</time>
				</trkpt>
				<trkpt lat="54.42816" lon="-1.63651">
					<ele>68</ele>
					<time>0001-01-01T00:00:00Z</time>
				</trkpt>
				<trkpt lat="54.42795" lon="-1.63644">
					<ele>67</ele>
					<time>0001-01-01T00:00:00Z</time>
				</trkpt>
				<trkpt lat="54.42713" lon="-1.63503">
					<ele>67</ele>
					<time>0001-01-01T00:00:00Z</time>
				</trkpt>
				<trkpt lat="54.42585" lon="-1.63311">
					<ele>65</ele>
					<time>0001-01-01T00:00:00Z</time>
				</trkpt>
				<trkpt lat="54.42456" lon="-1.63160">
					<ele>67</ele>
					<time>0001-01-01T00:00:00Z</time>
				</trkpt>
				<trkpt lat="54.42276" lon="-1.63025">
					<ele>65</ele>
					<time>0001-01-01T00:00:00Z</time>
				</trkpt>
				<trkpt lat="54.42130" lon="-1.62900">
					<ele>63</ele>
					<time>0001-01-01T00:00:00Z</time>
				</trkpt>
				<trkpt lat="54.41975" lon="-1.62751">
					<ele>60</ele>
					<time>0001-01-01T00:00:00Z</time>
				</trkpt>
				<trkpt lat="54.41829" lon="-1.62603">
					<ele>58</ele>
					<time>0001-01-01T00:00:00Z</time>
				</trkpt>
				<trkpt lat="54.41701" lon="-1.62430">
					<ele>58</ele>
					<time>0001-01-01T00:00:00Z</time>
				</trkpt>
				<trkpt lat="54.41550" lon="-1.62270">
					<ele>57</ele>
					<time>0001-01-01T00:00:00Z</time>
				</trkpt>
				<trkpt lat="54.41418" lon="-1.62167">
					<ele>57</ele>
					<time>0001-01-01T00:00:00Z</time>
				</trkpt>
				<trkpt lat="54.41232" lon="-1.62000">
					<ele>57</ele>
					<time>0001-01-01T00:00:00Z</time>
				</trkpt>
				<trkpt lat="54.41082" lon="-1.61838">
					<ele>56</ele>
					<time>0001-01-01T00:00:00Z</time>
				</trkpt>
				<trkpt lat="54.40920" lon="-1.61712">
					<ele>56</ele>
					<time>0001-01-01T00:00:00Z</time>
				</trkpt>
				<trkpt lat="54.40798" lon="-1.61637">
					<ele>57</ele>
					<time>0001-01-01T00:00:00Z</time>
				</trkpt>
				<trkpt lat="54.40663" lon="-1.61632">
					<ele>56</ele>
					<time>0001-01-01T00:00:00Z</time>
				</trkpt>
				<trkpt lat="54.40485" lon="-1.61625">
					<ele>57</ele>
					<time>0001-01-01T00:00:00Z</time>
				</trkpt>
				<trkpt lat="54.40266" lon="-1.61612">
					<ele>56</ele>
					<time>0001-01-01T00:00:00Z</time>
				</trkpt>
				<trkpt lat="54.40092" lon="-1.61598">
					<ele>55</ele>
					<time>0001-01-01T00:00:00Z</time>
				</trkpt>
				<trkpt lat="54.39945" lon="-1.61648">
					<ele>56</ele>
					<time>0001-01-01T00:00:00Z</time>
				</trkpt>
				<trkpt lat="54.39754" lon="-1.61680">
					<ele>57</ele>
					<time>0001-01-01T00:00:00Z</time>
				</trkpt>
				<trkpt lat="54.39671" lon="-1.61663">
					<ele>56</ele>
					<time>0001-01-01T00:00:00Z</time>
				</trkpt>
				<trkpt lat="54.39645" lon="-1.61576">
					<ele>56</ele>
					<time>0001-01-01T00:00:00Z</time>
				</trkpt>
				<trkpt lat="54.39646" lon="-1.61520">
					<ele>55</ele>
					<time>0001-01-01T00:00:00Z</time>
				</trkpt>
				<trkpt lat="54.39648" lon="-1.61498">
					<ele>55</ele>
					<time>0001-01-01T00:00:00Z</time>
				</trkpt>
				<trkpt lat="54.39616" lon="-1.61448">
					<ele>55</ele>
					<time>0001-01-01T00:00:00Z</time>
				</trkpt>
				<trkpt lat="54.39593" lon="-1.61468">
					<ele>56</ele>
					<time>0001-01-01T00:00:00Z</time>
				</trkpt>
				<trkpt lat="54.39525" lon="-1.61604">
					<ele>56</ele>
					<time>0001-01-01T00:00:00Z</time>
				</trkpt>
				<trkpt lat="54.39513" lon="-1.61616">
					<ele>56</ele>
					<time>0001-01-01T00:00:00Z</time>
				</trkpt>
				<trkpt lat="54.39458" lon="-1.61652">
					<ele>57</ele>
					<time>0001-01-01T00:00:00Z</time>
				</trkpt>
				<trkpt lat="54.39407" lon="-1.61655">
					<ele>56</ele>
					<time>0001-01-01T00:00:00Z</time>
				</trkpt>
				<trkpt lat="54.39377" lon="-1.61634">
					<ele>56</ele>
					<time>0001-01-01T00:00:00Z</time>
				</trkpt>
				<trkpt lat="54.39267" lon="-1.61573">
					<ele>55</ele>
					<time>0001-01-01T00:00:00Z</time>
				</trkpt>
				<trkpt lat="54.39107" lon="-1.61526">
					<ele>54</ele>
					<time>0001-01-01T00:00:00Z</time>
				</trkpt>
				<trkpt lat="54.38945" lon="-1.61541">
					<ele>52</ele>
					<time>0001-01-01T00:00:00Z</time>
				</trkpt>
				<trkpt lat="54.38819" lon="-1.61507">
					<ele>52</ele>
					<time>0001-01-01T00:00:00Z</time>
				</trkpt>
				<trkpt lat="54.38702" lon="-1.61410">
					<ele>49</ele>
					<time>0001-01-01T00:00:00Z</time>
				</trkpt>
				<trkpt lat="54.38513" lon="-1.61300">
					<ele>50</ele>
					<time>0001-01-01T00:00:00Z</time>
				</trkpt>
				<trkpt lat="54.38391" lon="-1.61175">
					<ele>50</ele>
					<time>0001-01-01T00:00:00Z</time>
				</trkpt>
				<trkpt lat="54.38267" lon="-1.61120">
					<ele>51</ele>
					<time>0001-01-01T00:00:00Z</time>
				</trkpt>
				<trkpt lat="54.38154" lon="-1.61071">
					<ele>50</ele>
					<time>0001-01-01T00:00:00Z</time>
				</trkpt>
				<trkpt lat="54.38129" lon="-1.61031">
					<ele>50</ele>
					<time>0001-01-01T00:00:00Z</time>
				</trkpt>
				<trkpt lat="54.38086" lon="-1.60811">
					<ele>48</ele>
					<time>0001-01-01T00:00:00Z</time>
				</trkpt>
				<trkpt lat="54.38014" lon="-1.60557">
					<ele>47</ele>
					<time>0001-01-01T00:00:00Z</time>
				</trkpt>
				<trkpt lat="54.37893" lon="-1.60337">
					<ele>46</ele>
					<time>0001-01-01T00:00:00Z</time>
				</trkpt>
				<trkpt lat="54.37774" lon="-1.60170">
					<ele>46</ele>
					<time>0001-01-01T00:00:00Z</time>
				</trkpt>
				<trkpt lat="54.37668" lon="-1.59981">
					<ele>44</ele>
					<time>0001-01-01T00:00:00Z</time>
				</trkpt>
				<trkpt lat="54.37576" lon="-1.59700">
					<ele>42</ele>
					<time>0001-01-01T00:00:00Z</time>
				</trkpt>
				<trkpt lat="54.37536" lon="-1.59424">
					<ele>41</ele>
					<time>0001-01-01T00:00:00Z</time>
				</trkpt>
				<trkpt lat="54.37524" lon="-1.59156">
					<ele>40</ele>
					<time>0001-01-01T00:00:00Z</time>
				</trkpt>
				<trkpt lat="54.37534" lon="-1.58831">
					<ele>40</ele>
					<time>0001-01-01T00:00:00Z</time>
				</trkpt>
				<trkpt lat="54.37531" lon="-1.58547">
					<ele>40</ele>
					<time>0001-01-01T00:00:00Z</time>
				</trkpt>
				<trkpt lat="54.37447" lon="-1.58124">
					<ele>40</ele>
					<time>0001-01-01T00:00:00Z</time>
				</trkpt>
				<trkpt lat="54.37450" lon="-1.57870">
					<ele>39</ele>
					<time>0001-01-01T00:00:00Z</time>
				</trkpt>
				<trkpt lat="54.37442" lon="-1.57590">
					<ele>41</ele>
					<time>0001-01-01T00:00:00Z</time>
				</trkpt>
				<trkpt lat="54.37444" lon="-1.57503">
					<ele>42</ele>
					<time>0001-01-01T00:00:00Z</time>
				</trkpt>
				<trkpt lat="54.37463" lon="-1.57286">
					<ele>41</ele>
					<time>0001-01-01T00:00:00Z</time>
				</trkpt>
				<trkpt lat="54.37462" lon="-1.57239">
					<ele>41</ele>
					<time>0001-01-01T00:00:00Z</time>
				</trkpt>
				<trkpt lat="54.37422" lon="-1.57156">
					<ele>41</ele>
					<time>0001-01-01T00:00:00Z</time>
				</trkpt>
				<trkpt lat="54.37261" lon="-1.57030">
					<ele>40</ele>
					<time>0001-01-01T00:00:00Z</time>
				</trkpt>
				<trkpt lat="54.37085" lon="-1.56898">
					<ele>40</ele>
					<time>0001-01-01T00:00:00Z</time>
				</trkpt>
				<trkpt lat="54.36929" lon="-1.56787">
					<ele>35</ele>
					<time>0001-01-01T00:00:00Z</time>
				</trkpt>
				<trkpt lat="54.36895" lon="-1.56740">
					<ele>35</ele>
					<time>0001-01-01T00:00:00Z</time>
				</trkpt>
				<trkpt lat="54.36827" lon="-1.56580">
					<ele>35</ele>
					<time>0001-01-01T00:00:00Z</time>
				</trkpt>
				<trkpt lat="54.36820" lon="-1.56569">
					<ele>35</ele>
					<time>0001-01-01T00:00:00Z</time>
				</trkpt>
				<trkpt lat="54.36739" lon="-1.56521">
					<ele>35</ele>
					<time>0001-01-01T00:00:00Z</time>
				</trkpt>
				<trkpt lat="54.36709" lon="-1.56433">
					<ele>35</ele>
					<time>0001-01-01T00:00:00Z</time>
				</trkpt>
				<trkpt lat="54.36701" lon="-1.56149">
					<ele>32</ele>
					<time>0001-01-01T00:00:00Z</time>
				</trkpt>
				<trkpt lat="54.36699" lon="-1.56105">
					<ele>31</ele>
					<time>0001-01-01T00:00:00Z</time>
				</trkpt>
				<trkpt lat="54.36650" lon="-1.55920">
					<ele>30</ele>
					<time>0001-01-01T00:00:00Z</time>
				</trkpt>
				<trkpt lat="54.36645" lon="-1.55822">
					<ele>30</ele>
					<time>0001-01-01T00:00:00Z</time>
				</trkpt>
				<trkpt lat="54.36637" lon="-1.55775">
					<ele>31</ele>
					<time>0001-01-01T00:00:00Z</time>
				</trkpt>
				<trkpt lat="54.36572" lon="-1.55631">
					<ele>32</ele>
					<time>0001-01-01T00:00:00Z</time>
				</trkpt>
				<trkpt lat="54.36550" lon="-1.55606">
					<ele>32</ele>
					<time>0001-01-01T00:00:00Z</time>
				</trkpt>
				<trkpt lat="54.36516" lon="-1.55600">
					<ele>33</ele>
					<time>0001-01-01T00:00:00Z</time>
				</trkpt>
				<trkpt lat="54.36473" lon="-1.55613">
					<ele>33</ele>
					<time>0001-01-01T00:00:00Z</time>
				</trkpt>
				<trkpt lat="54.36434" lon="-1.55616">
					<ele>33</ele>
					<time>0001-01-01T00:00:00Z</time>
				</trkpt>
				<trkpt lat="54.36411" lon="-1.55600">
					<ele>33</ele>
					<time>0001-01-01T00:00:00Z</time>
				</trkpt>
				<trkpt lat="54.36317" lon="-1.55405">
					<ele>33</ele>
					<time>0001-01-01T00:00:00Z</time>
				</trkpt>
				<trkpt lat="54.36278" lon="-1.55247">
					<ele>33</ele>
					<time>0001-01-01T00:00:00Z</time>
				</trkpt>
				<trkpt lat="54.36269" lon="-1.55119">
					<ele>34</ele>
					<time>0001-01-01T00:00:00Z</time>
				</trkpt>
				<trkpt lat="54.36235" lon="-1.54982">
					<ele>33</ele>
					<time>0001-01-01T00:00:00Z</time>
				</trkpt>
				<trkpt lat="54.36227" lon="-1.54803">
					<ele>32</ele>
					<time>0001-01-01T00:00:00Z</time>
				</trkpt>
				<trkpt lat="54.36249" lon="-1.54698">
					<ele>33</ele>
					<time>0001-01-01T00:00:00Z</time>
				</trkpt>
				<trkpt lat="54.36263" lon="-1.54641">
					<ele>33</ele>
					<time>0001-01-01T00:00:00Z</time>
				</trkpt>
				<trkpt lat="54.36290" lon="-1.54589">
					<ele>32</ele>
					<time>0001-01-01T00:00:00Z</time>
				</trkpt>
				<trkpt lat="54.36341" lon="-1.54596">
					<ele>33</ele>
					<time>0001-01-01T00:00:00Z</time>
				</trkpt>
				<trkpt lat="54.36393" lon="-1.54573">
					<ele>34</ele>
					<time>0001-01-01T00:00:00Z</time>
				</trkpt>
				<trkpt lat="54.36441" lon="-1.54493">
					<ele>39</ele>
					<time>0001-01-01T00:00:00Z</time>
				</trkpt>
				<trkpt lat="54.36541" lon="-1.54452">
					<ele>37</ele>
					<time>0001-01-01T00:00:00Z</time>
				</trkpt>
				<trkpt lat="54.36609" lon="-1.54438">
					<ele>35</ele>
					<time>0001-01-01T00:00:00Z</time>
				</trkpt>
				<trkpt lat="54.36654" lon="-1.54353">
					<ele>34</ele>
					<time>0001-01-01T00:00:00Z</time>
				</trkpt>
				<trkpt lat="54.36707" lon="-1.54079">
					<ele>29</ele>
					<time>0001-01-01T00:00:00Z</time>
				</trkpt>
				<trkpt lat="54.36799" lon="-1.53899">
					<ele>28</ele>
					<time>0001-01-01T00:00:00Z</time>
				</trkpt>
				<trkpt lat="54.36932" lon="-1.53687">
					<ele>34</ele>
					<time>0001-01-01T00:00:00Z</time>
				</trkpt>
				<trkpt lat="54.36977" lon="-1.53612">
					<ele>40</ele>
					<time>0001-01-01T00:00:00Z</time>
				</trkpt>
				<trkpt lat="54.36986" lon="-1.53567">
					<ele>41</ele>
					<time>0001-01-01T00:00:00Z</time>
				</trkpt>
				<trkpt lat="54.36987" lon="-1.53512">
					<ele>42</ele>
					<time>0001-01-01T00:00:00Z</time>
				</trkpt>
				<trkpt lat="54.36949" lon="-1.53286">
					<ele>40</ele>
					<time>0001-01-01T00:00:00Z</time>
				</trkpt>
				<trkpt lat="54.36930" lon="-1.53068">
					<ele>42</ele>
					<time>0001-01-01T00:00:00Z</time>
				</trkpt>
				<trkpt lat="54.36904" lon="-1.52775">
					<ele>41</ele>
					<time>0001-01-01T00:00:00Z</time>
				</trkpt>
				<trkpt lat="54.36903" lon="-1.52543">
					<ele>43</ele>
					<time>0001-01-01T00:00:00Z</time>
				</trkpt>
				<trkpt lat="54.36910" lon="-1.52254">
					<ele>43</ele>
					<time>0001-01-01T00:00:00Z</time>
				</trkpt>
				<trkpt lat="54.36916" lon="-1.51999">
					<ele>42</ele>
					<time>0001-01-01T00:00:00Z</time>
				</trkpt>
				<trkpt lat="54.36903" lon="-1.51793">
					<ele>42</ele>
					<time>0001-01-01T00:00:00Z</time>
				</trkpt>
				<trkpt lat="54.36882" lon="-1.51543">
					<ele>41</ele>
					<time>0001-01-01T00:00:00Z</time>
				</trkpt>
				<trkpt lat="54.36851" lon="-1.51367">
					<ele>40</ele>
					<time>0001-01-01T00:00:00Z</time>
				</trkpt>
				<trkpt lat="54.36798" lon="-1.51320">
					<ele>41</ele>
					<time>0001-01-01T00:00:00Z</time>
				</trkpt>
				<trkpt lat="54.36683" lon="-1.51325">
					<ele>46</ele>
					<time>0001-01-01T00:00:00Z</time>
				</trkpt>
				<trkpt lat="54.36595" lon="-1.51338">
					<ele>49</ele>
					<time>0001-01-01T00:00:00Z</time>
				</trkpt>
				<trkpt lat="54.36501" lon="-1.51370">
					<ele>48</ele>
					<time>0001-01-01T00:00:00Z</time>
				</trkpt>
				<trkpt lat="54.36460" lon="-1.51327">
					<ele>48</ele>
					<time>0001-01-01T00:00:00Z</time>
				</trkpt>
				<trkpt lat="54.36393" lon="-1.51111">
					<ele>40</ele>
					<time>0001-01-01T00:00:00Z</time>
				</trkpt>
				<trkpt lat="54.36366" lon="-1.51033">
					<ele>39</ele>
					<time>0001-01-01T00:00:00Z</time>
				</trkpt>
				<trkpt lat="54.36344" lon="-1.50994">
					<ele>38</ele>
					<time>0001-01-01T00:00:00Z</time>
				</trkpt>
				<trkpt lat="54.36302" lon="-1.50895">
					<ele>36</ele>
					<time>0001-01-01T00:00:00Z</time>
				</trkpt>
				<trkpt lat="54.36261" lon="-1.50846">
					<ele>34</ele>
					<time>0001-01-01T00:00:00Z</time>
				</trkpt>
				<trkpt lat="54.36162" lon="-1.50744">
					<ele>37</ele>
					<time>0001-01-01T00:00:00Z</time>
				</trkpt>
				<trkpt lat="54.36074" lon="-1.50572">
					<ele>39</ele>
					<time>0001-01-01T00:00:00Z</time>
				</trkpt>
				<trkpt lat="54.36062" lon="-1.50529">
					<ele>39</ele>
					<time>0001-01-01T00:00:00Z</time>
				</trkpt>
				<trkpt lat="54.36013" lon="-1.50327">
					<ele>42</ele>
					<time>0001-01-01T00:00:00Z</time>
				</trkpt>
				<trkpt lat="54.35942" lon="-1.50063">
					<ele>48</ele>
					<time>0001-01-01T00:00:00Z</time>
				</trkpt>
				<trkpt lat="54.35892" lon="-1.49907">
					<ele>52</ele>
					<time>0001-01-01T00:00:00Z</time>
				</trkpt>
				<trkpt lat="54.35795" lon="-1.49715">
					<ele>51</ele>
					<time>0001-01-01T00:00:00Z</time>
				</trkpt>
				<trkpt lat="54.35644" lon="-1.49411">
					<ele>53</ele>
					<time>0001-01-01T00:00:00Z</time>
				</trkpt>
				<trkpt lat="54.35540" lon="-1.49205">
					<ele>56</ele>
					<time>0001-01-01T00:00:00Z</time>
				</trkpt>
				<trkpt lat="54.35432" lon="-1.48989">
					<ele>59</ele>
					<time>0001-01-01T00:00:00Z</time>
				</trkpt>
				<trkpt lat="54.35314" lon="-1.48757">
					<ele>59</ele>
					<time>0001-01-01T00:00:00Z</time>
				</trkpt>
				<trkpt lat="54.35208" lon="-1.48572">
					<ele>55</ele>
					<time>0001-01-01T00:00:00Z</time>
				</trkpt>
				<trkpt lat="54.35064" lon="-1.48380">
					<ele>54</ele>
					<time>0001-01-01T00:00:00Z</time>
				</trkpt>
				<trkpt lat="54.34990" lon="-1.48260">
					<ele>53</ele>
					<time>0001-01-01T00:00:00Z</time>
				</trkpt>
				<trkpt lat="54.34786" lon="-1.48123">
					<ele>49</ele>
					<time>0001-01-01T00:00:00Z</time>
				</trkpt>
				<trkpt lat="54.34627" lon="-1.47918">
					<ele>48</ele>
					<time>0001-01-01T00:00:00Z</time>
				</trkpt>
				<trkpt lat="54.34586" lon="-1.47855">
					<ele>46</ele>
					<time>0001-01-01T00:00:00Z</time>
				</trkpt>
				<trkpt lat="54.34570" lon="-1.47817">
					<ele>46</ele>
					<time>0001-01-01T00:00:00Z</time>
				</trkpt>
				<trkpt lat="54.34563" lon="-1.47684">
					<ele>44</ele>
					<time>0001-01-01T00:00:00Z</time>
				</trkpt>
				<trkpt lat="54.34604" lon="-1.47482">
					<ele>40</ele>
					<time>0001-01-01T00:00:00Z</time>
				</trkpt>
				<trkpt lat="54.34573" lon="-1.47369">
					<ele>36</ele>
					<time>0001-01-01T00:00:00Z</time>
				</trkpt>
				<trkpt lat="54.34470" lon="-1.47241">
					<ele>34</ele>
					<time>0001-01-01T00:00:00Z</time>
				</trkpt>
				<trkpt lat="54.34454" lon="-1.47229">
					<ele>33</ele>
					<time>0001-01-01T00:00:00Z</time>
				</trkpt>
				<trkpt lat="54.34443" lon="-1.47174">
					<ele>33</ele>
					<time>0001-01-01T00:00:00Z</time>
				</trkpt>
				<trkpt lat="54.34446" lon="-1.46978">
					<ele>31</ele>
					<time>0001-01-01T00:00:00Z</time>
				</trkpt>
				<trkpt lat="54.34445" lon="-1.46950">
					<ele>31</ele>
					<time>0001-01-01T00:00:00Z</time>
				</trkpt>
				<trkpt lat="54.34443" lon="-1.46956">
					<ele>31</ele>
					<time>0001-01-01T00:00:00Z</time>
				</trkpt>
				<trkpt lat="54.34449" lon="-1.47055">
					<ele>30</ele>
					<time>0001-01-01T00:00:00Z</time>
				</trkpt>
				<trkpt lat="54.34449" lon="-1.47197">
					<ele>31</ele>
					<time>0001-01-01T00:00:00Z</time>
				</trkpt>
				<trkpt lat="54.34462" lon="-1.47243">
					<ele>30</ele>
					<time>0001-01-01T00:00:00Z</time>
				</trkpt>
				<trkpt lat="54.34486" lon="-1.47256">
					<ele>32</ele>
					<time>0001-01-01T00:00:00Z</time>
				</trkpt>
				<trkpt lat="54.34488" lon="-1.47258">
					<ele>36</ele>
					<time>0001-01-01T00:00:00Z</time>
				</trkpt>
				<trkpt lat="54.34514" lon="-1.47281">
					<ele>33</ele>
					<time>0001-01-01T00:00:00Z</time>
				</trkpt>
				<trkpt lat="54.34517" lon="-1.47285">
					<ele>33</ele>
					<time>0001-01-01T00:00:00Z</time>
				</trkpt>
				<trkpt lat="54.34552" lon="-1.47344">
					<ele>33</ele>
					<time>0001-01-01T00:00:00Z</time>
				</trkpt>
				<trkpt lat="54.34541" lon="-1.47372">
					<ele>33</ele>
					<time>0001-01-01T00:00:00Z</time>
				</trkpt>
				<trkpt lat="54.34499" lon="-1.47383">
					<ele>36</ele>
					<time>0001-01-01T00:00:00Z</time>
				</trkpt>
				<trkpt lat="54.34385" lon="-1.47360">
					<ele>36</ele>
					<time>0001-01-01T00:00:00Z</time>
				</trkpt>
				<trkpt lat="54.34378" lon="-1.47360">
					<ele>36</ele>
					<time>0001-01-01T00:00:00Z</time>
				</trkpt>
				<trkpt lat="54.34360" lon="-1.47372">
					<ele>36</ele>
					<time>0001-01-01T00:00:00Z</time>
				</trkpt>
				<trkpt lat="54.34245" lon="-1.47423">
					<ele>38</ele>
					<time>0001-01-01T00:00:00Z</time>
				</trkpt>
				<trkpt lat="54.34158" lon="-1.47492">
					<ele>39</ele>
					<time>0001-01-01T00:00:00Z</time>
				</trkpt>
				<trkpt lat="54.34055" lon="-1.47512">
					<ele>39</ele>
					<time>0001-01-01T00:00:00Z</time>
				</trkpt>
				<trkpt lat="54.33928" lon="-1.47464">
					<ele>40</ele>
					<time>0001-01-01T00:00:00Z</time>
				</trkpt>
				<trkpt lat="54.33805" lon="-1.47445">
					<ele>39</ele>
					<time>0001-01-01T00:00:00Z</time>
				</trkpt>
				<trkpt lat="54.33685" lon="-1.47396">
					<ele>39</ele>
					<time>0001-01-01T00:00:00Z</time>
				</trkpt>
				<trkpt lat="54.33643" lon="-1.47371">
					<ele>40</ele>
					<time>0001-01-01T00:00:00Z</time>
				</trkpt>
				<trkpt lat="54.33608" lon="-1.47361">
					<ele>42</ele>
					<time>0001-01-01T00:00:00Z</time>
				</trkpt>
				<trkpt lat="54.33579" lon="-1.47358">
					<ele>44</ele>
					<time>0001-01-01T00:00:00Z</time>
				</trkpt>
				<trkpt lat="54.33463" lon="-1.47325">
					<ele>45</ele>
					<time>0001-01-01T00:00:00Z</time>
				</trkpt>
				<trkpt lat="54.33337" lon="-1.47221">
					<ele>40</ele>
					<time>0001-01-01T00:00:00Z</time>
				</trkpt>
				<trkpt lat="54.33173" lon="-1.47125">
					<ele>38</ele>
					<time>0001-01-01T00:00:00Z</time>
				</trkpt>
				<trkpt lat="54.33065" lon="-1.47035">
					<ele>35</ele>
					<time>0001-01-01T00:00:00Z</time>
				</trkpt>
				<trkpt lat="54.32972" lon="-1.46968">
					<ele>32</ele>
					<time>0001-01-01T00:00:00Z</time>
				</trkpt>
				<trkpt lat="54.32827" lon="-1.46903">
					<ele>32</ele>
					<time>0001-01-01T00:00:00Z</time>
				</trkpt>
				<trkpt lat="54.32713" lon="-1.46800">
					<ele>36</ele>
					<time>0001-01-01T00:00:00Z</time>
				</trkpt>
				<trkpt lat="54.32646" lon="-1.46733">
					<ele>40</ele>
					<time>0001-01-01T00:00:00Z</time>
				</trkpt>
				<trkpt lat="54.32574" lon="-1.46677">
					<ele>39</ele>
					<time>0001-01-01T00:00:00Z</time>
				</trkpt>
				<trkpt lat="54.32451" lon="-1.46611">
					<ele>39</ele>
					<time>0001-01-01T00:00:00Z</time>
				</trkpt>
				<trkpt lat="54.32359" lon="-1.46557">
					<ele>38</ele>
					<time>0001-01-01T00:00:00Z</time>
				</trkpt>
				<trkpt lat="54.32305" lon="-1.46571">
					<ele>38</ele>
					<time>0001-01-01T00:00:00Z</time>
				</trkpt>
				<trkpt lat="54.32269" lon="-1.46582">
					<ele>37</ele>
					<time>0001-01-01T00:00:00Z</time>
				</trkpt>
				<trkpt lat="54.32160" lon="-1.46542">
					<ele>30</ele>
					<time>0001-01-01T00:00:00Z</time>
				</trkpt>
				<trkpt lat="54.31992" lon="-1.46460">
					<ele>28</ele>
					<time>0001-01-01T00:00:00Z</time>
				</trkpt>
				<trkpt lat="54.31872" lon="-1.46481">
					<ele>29</ele>
					<time>0001-01-01T00:00:00Z</time>
				</trkpt>
				<trkpt lat="54.31727" lon="-1.46418">
					<ele>29</ele>
					<time>0001-01-01T00:00:00Z</time>
				</trkpt>
				<trkpt lat="54.31583" lon="-1.46362">
					<ele>30</ele>
					<time>0001-01-01T00:00:00Z</time>
				</trkpt>
				<trkpt lat="54.31349" lon="-1.46174">
					<ele>33</ele>
					<time>0001-01-01T00:00:00Z</time>
				</trkpt>
				<trkpt lat="54.31207" lon="-1.46067">
					<ele>34</ele>
					<time>0001-01-01T00:00:00Z</time>
				</trkpt>
				<trkpt lat="54.31075" lon="-1.45985">
					<ele>34</ele>
					<time>0001-01-01T00:00:00Z</time>
				</trkpt>
				<trkpt lat="54.30943" lon="-1.45886">
					<ele>32</ele>
					<time>0001-01-01T00:00:00Z</time>
				</trkpt>
				<trkpt lat="54.30837" lon="-1.45813">
					<ele>33</ele>
					<time>0001-01-01T00:00:00Z</time>
				</trkpt>
				<trkpt lat="54.30730" lon="-1.45803">
					<ele>34</ele>
					<time>0001-01-01T00:00:00Z</time>
				</trkpt>
				<trkpt lat="54.30610" lon="-1.45750">
					<ele>35</ele>
					<time>0001-01-01T00:00:00Z</time>
				</trkpt>
				<trkpt lat="54.30453" lon="-1.45648">
					<ele>36</ele>
					<time>0001-01-01T00:00:00Z</time>
				</trkpt>
				<trkpt lat="54.30319" lon="-1.45538">
					<ele>33</ele>
					<time>0001-01-01T00:00:00Z</time>
				</trkpt>
				<trkpt lat="54.30173" lon="-1.45422">
					<ele>31</ele>
					<time>0001-01-01T00:00:00Z</time>
				</trkpt>
				<trkpt lat="54.30057" lon="-1.45369">
					<ele>34</ele>
					<time>0001-01-01T00:00:00Z</time>
				</trkpt>
				<trkpt lat="54.29908" lon="-1.45317">
					<ele>35</ele>
					<time>0001-01-01T00:00:00Z</time>
				</trkpt>
				<trkpt lat="54.29780" lon="-1.45265">
					<ele>36</ele>
					<time>0001-01-01T00:00:00Z</time>
				</trkpt>
				<trkpt lat="54.29643" lon="-1.45163">
					<ele>35</ele>
					<time>0001-01-01T00:00:00Z</time>
				</trkpt>
				<trkpt lat="54.29499" lon="-1.45029">
					<ele>33</ele>
					<time>0001-01-01T00:00:00Z</time>
				</trkpt>
				<trkpt lat="54.29378" lon="-1.44913">
					<ele>24</ele>
					<time>0001-01-01T00:00:00Z</time>
				</trkpt>
				<trkpt lat="54.29288" lon="-1.44737">
					<ele>26</ele>
					<time>0001-01-01T00:00:00Z</time>
				</trkpt>
				<trkpt lat="54.29188" lon="-1.44526">
					<ele>26</ele>
					<time>0001-01-01T00:00:00Z</time>
				</trkpt>
				<trkpt lat="54.29124" lon="-1.44404">
					<ele>25</ele>
					<time>0001-01-01T00:00:00Z</time>
				</trkpt>
				<trkpt lat="54.29093" lon="-1.44381">
					<ele>26</ele>
					<time>0001-01-01T00:00:00Z</time>
				</trkpt>
				<trkpt lat="54.28932" lon="-1.44231">
					<ele>31</ele>
					<time>0001-01-01T00:00:00Z</time>
				</trkpt>
				<trkpt lat="54.28839" lon="-1.44107">
					<ele>30</ele>
					<time>0001-01-01T00:00:00Z</time>
				</trkpt>
				<trkpt lat="54.28718" lon="-1.43988">
					<ele>29</ele>
					<time>0001-01-01T00:00:00Z</time>
				</trkpt>
				<trkpt lat="54.28639" lon="-1.43902">
					<ele>29</ele>
					<time>0001-01-01T00:00:00Z</time>
				</trkpt>
				<trkpt lat="54.28499" lon="-1.43805">
					<ele>29</ele>
					<time>0001-01-01T00:00:00Z</time>
				</trkpt>
				<trkpt lat="54.28366" lon="-1.43706">
					<ele>32</ele>
					<time>0001-01-01T00:00:00Z</time>
				</trkpt>
				<trkpt lat="54.28229" lon="-1.43601">
					<ele>31</ele>
					<time>0001-01-01T00:00:00Z</time>
				</trkpt>
				<trkpt lat="54.28205" lon="-1.43585">
					<ele>31</ele>
					<time>0001-01-01T00:00:00Z</time>
				</trkpt>
				<trkpt lat="54.28198" lon="-1.43536">
					<ele>30</ele>
					<time>0001-01-01T00:00:00Z</time>
				</trkpt>
				<trkpt lat="54.28215" lon="-1.43405">
					<ele>24</ele>
					<time>0001-01-01T00:00:00Z</time>
				</trkpt>
				<trkpt lat="54.28209" lon="-1.43285">
					<ele>23</ele>
					<time>0001-01-01T00:00:00Z</time>
				</trkpt>
				<trkpt lat="54.28198" lon="-1.43237">
					<ele>24</ele>
					<time>0001-01-01T00:00:00Z</time>
				</trkpt>
				<trkpt lat="54.28199" lon="-1.43237">
					<ele>26</ele>
					<time>0001-01-01T00:00:00Z</time>
				</trkpt>
				<trkpt lat="54.28200" lon="-1.43239">
					<ele>27</ele>
					<time>0001-01-01T00:00:00Z</time>
				</trkpt>
				<trkpt lat="54.28198" lon="-1.43238">
					<ele>28</ele>
					<time>0001-01-01T00:00:00Z</time>
				</trkpt>
				<trkpt lat="54.28192" lon="-1.43232">
					<ele>29</ele>
					<time>0001-01-01T00:00:00Z</time>
				</trkpt>
				<trkpt lat="54.28184" lon="-1.43160">
					<ele>28</ele>
					<time>0001-01-01T00:00:00Z</time>
				</trkpt>
				<trkpt lat="54.28194" lon="-1.43022">
					<ele>28</ele>
					<time>0001-01-01T00:00:00Z</time>
				</trkpt>
				<trkpt lat="54.28226" lon="-1.42797">
					<ele>27</ele>
					<time>0001-01-01T00:00:00Z</time>
				</trkpt>
				<trkpt lat="54.28234" lon="-1.42728">
					<ele>28</ele>
					<time>0001-01-01T00:00:00Z</time>
				</trkpt>
				<trkpt lat="54.28224" lon="-1.42711">
					<ele>28</ele>
					<time>0001-01-01T00:00:00Z</time>
				</trkpt>
				<trkpt lat="54.28150" lon="-1.42609">
					<ele>30</ele>
					<time>0001-01-01T00:00:00Z</time>
				</trkpt>
				<trkpt lat="54.28037" lon="-1.42490">
					<ele>31</ele>
					<time>0001-01-01T00:00:00Z</time>
				</trkpt>
				<trkpt lat="54.27936" lon="-1.42349">
					<ele>34</ele>
					<time>0001-01-01T00:00:00Z</time>
				</trkpt>
				<trkpt lat="54.27841" lon="-1.42216">
					<ele>34</ele>
					<time>0001-01-01T00:00:00Z</time>
				</trkpt>
				<trkpt lat="54.27728" lon="-1.42113">
					<ele>33</ele>
					<time>0001-01-01T00:00:00Z</time>
				</trkpt>
				<trkpt lat="54.27578" lon="-1.42022">
					<ele>34</ele>
					<time>0001-01-01T00:00:00Z</time>
				</trkpt>
				<trkpt lat="54.27440" lon="-1.41936">
					<ele>34</ele>
					<time>0001-01-01T00:00:00Z</time>
				</trkpt>
				<trkpt lat="54.27303" lon="-1.41840">
					<ele>32</ele>
					<time>0001-01-01T00:00:00Z</time>
				</trkpt>
				<trkpt lat="54.27170" lon="-1.41817">
					<ele>30</ele>
					<time>0001-01-01T00:00:00Z</time>
				</trkpt>
				<trkpt lat="54.27014" lon="-1.41857">
					<ele>29</ele>
					<time>0001-01-01T00:00:00Z</time>
				</trkpt>
				<trkpt lat="54.27006" lon="-1.41857">
					<ele>29</ele>
					<time>0001-01-01T00:00:00Z</time>
				</trkpt>
				<trkpt lat="54.26830" lon="-1.41787">
					<ele>29</ele>
					<time>0001-01-01T00:00:00Z</time>
				</trkpt>
				<trkpt lat="54.26742" lon="-1.41752">
					<ele>28</ele>
					<time>0001-01-01T00:00:00Z</time>
				</trkpt>
				<trkpt lat="54.26626" lon="-1.41790">
					<ele>28</ele>
					<time>0001-01-01T00:00:00Z</time>
				</trkpt>
				<trkpt lat="54.26500" lon="-1.41893">
					<ele>31</ele>
					<time>0001-01-01T00:00:00Z</time>
				</trkpt>
				<trkpt lat="54.26416" lon="-1.41932">
					<ele>33</ele>
					<time>0001-01-01T00:00:00Z</time>
				</trkpt>
				<trkpt lat="54.26269" lon="-1.41963">
					<ele>35</ele>
					<time>0001-01-01T00:00:00Z</time>
				</trkpt>
				<trkpt lat="54.26199" lon="-1.41964">
					<ele>33</ele>
					<time>0001-01-01T00:00:00Z</time>
				</trkpt>
				<trkpt lat="54.26054" lon="-1.41916">
					<ele>32</ele>
					<time>0001-01-01T00:00:00Z</time>
				</trkpt>
				<trkpt lat="54.25895" lon="-1.41931">
					<ele>35</ele>
					<time>0001-01-01T00:00:00Z</time>
				</trkpt>
				<trkpt lat="54.25769" lon="-1.41936">
					<ele>37</ele>
					<time>0001-01-01T00:00:00Z</time>
				</trkpt>
				<trkpt lat="54.25733" lon="-1.41900">
					<ele>35</ele>
					<time>0001-01-01T00:00:00Z</time>
				</trkpt>
				<trkpt lat="54.25644" lon="-1.41756">
					<ele>32</ele>
					<time>0001-01-01T00:00:00Z</time>
				</trkpt>
				<trkpt lat="54.25522" lon="-1.41671">
					<ele>33</ele>
					<time>0001-01-01T00:00:00Z</time>
				</trkpt>
				<trkpt lat="54.25377" lon="-1.41606">
					<ele>35</ele>
					<time>0001-01-01T00:00:00Z</time>
				</trkpt>
				<trkpt lat="54.25228" lon="-1.41541">
					<ele>31</ele>
					<time>0001-01-01T00:00:00Z</time>
				</trkpt>
				<trkpt lat="54.25186" lon="-1.41515">
					<ele>30</ele>
					<time>0001-01-01T00:00:00Z</time>
				</trkpt>
				<trkpt lat="54.25181" lon="-1.41475">
					<ele>31</ele>
					<time>0001-01-01T00:00:00Z</time>
				</trkpt>
				<trkpt lat="54.25217" lon="-1.41385">
					<ele>35</ele>
					<time>0001-01-01T00:00:00Z</time>
				</trkpt>
				<trkpt lat="54.25231" lon="-1.41346">
					<ele>35</ele>
					<time>0001-01-01T00:00:00Z</time>
				</trkpt>
				<trkpt lat="54.25233" lon="-1.41292">
					<ele>36</ele>
					<time>0001-01-01T00:00:00Z</time>
				</trkpt>
				<trkpt lat="54.25259" lon="-1.41098">
					<ele>34</ele>
					<time>0001-01-01T00:00:00Z</time>
				</trkpt>
				<trkpt lat="54.25409" lon="-1.40597">
					<ele>32</ele>
					<time>0001-01-01T00:00:00Z</time>
				</trkpt>
				<trkpt lat="54.25476" lon="-1.40276">
					<ele>38</ele>
					<time>0001-01-01T00:00:00Z</time>
				</trkpt>
				<trkpt lat="54.25481" lon="-1.40179">
					<ele>39</ele>
					<time>0001-01-01T00:00:00Z</time>
				</trkpt>
				<trkpt lat="54.25477" lon="-1.39979">
					<ele>38</ele>
					<time>0001-01-01T00:00:00Z</time>
				</trkpt>
				<trkpt lat="54.25476" lon="-1.39917">
					<ele>36</ele>
					<time>0001-01-01T00:00:00Z</time>
				</trkpt>
				<trkpt lat="54.25468" lon="-1.39837">
					<ele>37</ele>
					<time>0001-01-01T00:00:00Z</time>
				</trkpt>
				<trkpt lat="54.25463" lon="-1.39807">
					<ele>37</ele>
					<time>0001-01-01T00:00:00Z</time>
				</trkpt>
				<trkpt lat="54.25440" lon="-1.39739">
					<ele>38</ele>
					<time>0001-01-01T00:00:00Z</time>
				</trkpt>
				<trkpt lat="54.25362" lon="-1.39550">
					<ele>37</ele>
					<time>0001-01-01T00:00:00Z</time>
				</trkpt>
				<trkpt lat="54.25347" lon="-1.39477">
					<ele>37</ele>
					<time>0001-01-01T00:00:00Z</time>
				</trkpt>
				<trkpt lat="54.25266" lon="-1.39325">
					<ele>38</ele>
					<time>0001-01-01T00:00:00Z</time>
				</trkpt>
				<trkpt lat="54.25159" lon="-1.39186">
					<ele>40</ele>
					<time>0001-01-01T00:00:00Z</time>
				</trkpt>
				<trkpt lat="54.25024" lon="-1.39040">
					<ele>40</ele>
					<time>0001-01-01T00:00:00Z</time>
				</trkpt>
				<trkpt lat="54.25006" lon="-1.39001">
					<ele>40</ele>
					<time>0001-01-01T00:00:00Z</time>
				</trkpt>
				<trkpt lat="54.24948" lon="-1.38723">
					<ele>40</ele>
					<time>0001-01-01T00:00:00Z</time>
				</trkpt>
				<trkpt lat="54.24882" lon="-1.38507">
					<ele>41</ele>
					<time>0001-01-01T00:00:00Z</time>
				</trkpt>
				<trkpt lat="54.24788" lon="-1.38360">
					<ele>40</ele>
					<time>0001-01-01T00:00:00Z</time>
				</trkpt>
				<trkpt lat="54.24691" lon="-1.38185">
					<ele>40</ele>
					<time>0001-01-01T00:00:00Z</time>
				</trkpt>
				<trkpt lat="54.24600" lon="-1.37957">
					<ele>39</ele>
					<time>0001-01-01T00:00:00Z</time>
				</trkpt>
				<trkpt lat="54.24507" lon="-1.37727">
					<ele>39</ele>
					<time>0001-01-01T00:00:00Z</time>
				</trkpt>
				<trkpt lat="54.24449" lon="-1.37550">
					<ele>40</ele>
					<time>0001-01-01T00:00:00Z</time>
				</trkpt>
				<trkpt lat="54.24358" lon="-1.37332">
					<ele>40</ele>
					<time>0001-01-01T00:00:00Z</time>
				</trkpt>
				<trkpt lat="54.24252" lon="-1.37156">
					<ele>40</ele>
					<time>0001-01-01T00:00:00Z</time>
				</trkpt>
				<trkpt lat="54.24151" lon="-1.36962">
					<ele>38</ele>
					<time>0001-01-01T00:00:00Z</time>
				</trkpt>
				<trkpt lat="54.24063" lon="-1.36800">
					<ele>38</ele>
					<time>0001-01-01T00:00:00Z</time>
				</trkpt>
				<trkpt lat="54.23949" lon="-1.36567">
					<ele>37</ele>
					<time>0001-01-01T00:00:00Z</time>
				</trkpt>
				<trkpt lat="54.23869" lon="-1.36348">
					<ele>39</ele>
					<time>0001-01-01T00:00:00Z</time>
				</trkpt>
				<trkpt lat="54.23770" lon="-1.36114">
					<ele>40</ele>
					<time>0001-01-01T00:00:00Z</time>
				</trkpt>
				<trkpt lat="54.23695" lon="-1.35948">
					<ele>40</ele>
					<time>0001-01-01T00:00:00Z</time>
				</trkpt>
				<trkpt lat="54.23622" lon="-1.35746">
					<ele>39</ele>
					<time>0001-01-01T00:00:00Z</time>
				</trkpt>
				<trkpt lat="54.23525" lon="-1.35500">
					<ele>40</ele>
					<time>0001-01-01T00:00:00Z</time>
				</trkpt>
				<trkpt lat="54.23452" lon="-1.35298">
					<ele>42</ele>
					<time>0001-01-01T00:00:00Z</time>
				</trkpt>
				<trkpt lat="54.23196" lon="-1.34752">
					<ele>44</ele>
					<time>0001-01-01T00:00:00Z</time>
				</trkpt>
				<trkpt lat="54.23173" lon="-1.34708">
					<ele>44</ele>
					<time>0001-01-01T00:00:00Z</time>
				</trkpt>
				<trkpt lat="54.23149" lon="-1.34676">
					<ele>43</ele>
					<time>0001-01-01T00:00:00Z</time>
				</trkpt>
				<trkpt lat="54.23144" lon="-1.34664">
					<ele>43</ele>
					<time>0001-01-01T00:00:00Z</time>
				</trkpt>
				<trkpt lat="54.23086" lon="-1.34568">
					<ele>43</ele>
					<time>0001-01-01T00:00:00Z</time>
				</trkpt>
				<trkpt lat="54.23057" lon="-1.34547">
					<ele>42</ele>
					<time>0001-01-01T00:00:00Z</time>
				</trkpt>
				<trkpt lat="54.23054" lon="-1.34542">
					<ele>42</ele>
					<time>0001-01-01T00:00:00Z</time>
				</trkpt>
				<trkpt lat="54.23025" lon="-1.34477">
					<ele>41</ele>
					<time>0001-01-01T00:00:00Z</time>
				</trkpt>
				<trkpt lat="54.22906" lon="-1.34309">
					<ele>43</ele>
					<time>0001-01-01T00:00:00Z</time>
				</trkpt>
				<trkpt lat="54.22801" lon="-1.34201">
					<ele>41</ele>
					<time>0001-01-01T00:00:00Z</time>
				</trkpt>
				<trkpt lat="54.22687" lon="-1.34124">
					<ele>41</ele>
					<time>0001-01-01T00:00:00Z</time>
				</trkpt>
				<trkpt lat="54.22551" lon="-1.34000">
					<ele>40</ele>
					<time>0001-01-01T00:00:00Z</time>
				</trkpt>
				<trkpt lat="54.22397" lon="-1.33861">
					<ele>40</ele>
					<time>0001-01-01T00:00:00Z</time>
				</trkpt>
				<trkpt lat="54.22217" lon="-1.33718">
					<ele>39</ele>
					<time>0001-01-01T00:00:00Z</time>
				</trkpt>
				<trkpt lat="54.22163" lon="-1.33658">
					<ele>40</ele>
					<time>0001-01-01T00:00:00Z</time>
				</trkpt>
				<trkpt lat="54.22063" lon="-1.33450">
					<ele>34</ele>
					<time>0001-01-01T00:00:00Z</time>
				</trkpt>
				<trkpt lat="54.21992" lon="-1.33286">
					<ele>33</ele>
					<time>0001-01-01T00:00:00Z</time>
				</trkpt>
				<trkpt lat="54.21919" lon="-1.33071">
					<ele>35</ele>
					<time>0001-01-01T00:00:00Z</time>
				</trkpt>
				<trkpt lat="54.21843" lon="-1.32983">
					<ele>36</ele>
					<time>0001-01-01T00:00:00Z</time>
				</trkpt>
				<trkpt lat="54.21805" lon="-1.32969">
					<ele>37</ele>
					<time>0001-01-01T00:00:00Z</time>
				</trkpt>
				<trkpt lat="54.21680" lon="-1.32941">
					<ele>37</ele>
					<time>0001-01-01T00:00:00Z</time>
				</trkpt>
				<trkpt lat="54.21505" lon="-1.32840">
					<ele>37</ele>
					<time>0001-01-01T00:00:00Z</time>
				</trkpt>
				<trkpt lat="54.21373" lon="-1.32744">
					<ele>36</ele>
					<time>0001-01-01T00:00:00Z</time>
				</trkpt>
				<trkpt lat="54.21362" lon="-1.32730">
					<ele>36</ele>
					<time>0001-01-01T00:00:00Z</time>
				</trkpt>
				<trkpt lat="54.21320" lon="-1.32633">
					<ele>36</ele>
					<time>0001-01-01T00:00:00Z</time>
				</trkpt>
				<trkpt lat="54.21196" lon="-1.32456">
					<ele>35</ele>
					<time>0001-01-01T00:00:00Z</time>
				</trkpt>
				<trkpt lat="54.21065" lon="-1.32317">
					<ele>35</ele>
					<time>0001-01-01T00:00:00Z</time>
				</trkpt>
				<trkpt lat="54.20978" lon="-1.32136">
					<ele>38</ele>
					<time>0001-01-01T00:00:00Z</time>
				</trkpt>
				<trkpt lat="54.20905" lon="-1.31822">
					<ele>43</ele>
					<time>0001-01-01T00:00:00Z</time>
				</trkpt>
				<trkpt lat="54.20812" lon="-1.31554">
					<ele>42</ele>
					<time>0001-01-01T00:00:00Z</time>
				</trkpt>
				<trkpt lat="54.20721" lon="-1.31288">
					<ele>40</ele>
					<time>0001-01-01T00:00:00Z</time>
				</trkpt>
				<trkpt lat="54.20699" lon="-1.31223">
					<ele>39</ele>
					<time>0001-01-01T00:00:00Z</time>
				</trkpt>
				<trkpt lat="54.20662" lon="-1.31188">
					<ele>39</ele>
					<time>0001-01-01T00:00:00Z</time>
				</trkpt>
				<trkpt lat="54.20480" lon="-1.31141">
					<ele>37</ele>
					<time>0001-01-01T00:00:00Z</time>
				</trkpt>
				<trkpt lat="54.20453" lon="-1.31133">
					<ele>37</ele>
					<time>0001-01-01T00:00:00Z</time>
				</trkpt>
				<trkpt lat="54.20453" lon="-1.31100">
					<ele>37</ele>
					<time>0001-01-01T00:00:00Z</time>
				</trkpt>
				<trkpt lat="54.20513" lon="-1.30953">
					<ele>39</ele>
					<time>0001-01-01T00:00:00Z</time>
				</trkpt>
				<trkpt lat="54.20592" lon="-1.30753">
					<ele>41</ele>
					<time>0001-01-01T00:00:00Z</time>
				</trkpt>
				<trkpt lat="54.20690" lon="-1.30506">
					<ele>40</ele>
					<time>0001-01-01T00:00:00Z</time>
				</trkpt>
				<trkpt lat="54.20784" lon="-1.30280">
					<ele>38</ele>
					<time>0001-01-01T00:00:00Z</time>
				</trkpt>
				<trkpt lat="54.20860" lon="-1.30084">
					<ele>39</ele>
					<time>0001-01-01T00:00:00Z</time>
				</trkpt>
				<trkpt lat="54.20866" lon="-1.30065">
					<ele>40</ele>
					<time>0001-01-01T00:00:00Z</time>
				</trkpt>
				<trkpt lat="54.20847" lon="-1.30023">
					<ele>39</ele>
					<time>0001-01-01T00:00:00Z</time>
				</trkpt>
				<trkpt lat="54.20709" lon="-1.29854">
					<ele>40</ele>
					<time>0001-01-01T00:00:00Z</time>
				</trkpt>
				<trkpt lat="54.20588" lon="-1.29693">
					<ele>41</ele>
					<time>0001-01-01T00:00:00Z</time>
				</trkpt>
				<trkpt lat="54.20483" lon="-1.29493">
					<ele>42</ele>
					<time>0001-01-01T00:00:00Z</time>
				</trkpt>
				<trkpt lat="54.20390" lon="-1.29284">
					<ele>43</ele>
					<time>0001-01-01T00:00:00Z</time>
				</trkpt>
				<trkpt lat="54.20316" lon="-1.29082">
					<ele>41</ele>
					<time>0001-01-01T00:00:00Z</time>
				</trkpt>
				<trkpt lat="54.20304" lon="-1.28888">
					<ele>42</ele>
					<time>0001-01-01T00:00:00Z</time>
				</trkpt>
				<trkpt lat="54.20294" lon="-1.28816">
					<ele>42</ele>
					<time>0001-01-01T00:00:00Z</time>
				</trkpt>
				<trkpt lat="54.20288" lon="-1.28793">
					<ele>43</ele>
					<time>0001-01-01T00:00:00Z</time>
				</trkpt>
				<trkpt lat="54.20202" lon="-1.28632">
					<ele>45</ele>
					<time>0001-01-01T00:00:00Z</time>
				</trkpt>
				<trkpt lat="54.20116" lon="-1.28399">
					<ele>42</ele>
					<time>0001-01-01T00:00:00Z</time>
				</trkpt>
				<trkpt lat="54.20053" lon="-1.28150">
					<ele>42</ele>
					<time>0001-01-01T00:00:00Z</time>
				</trkpt>
				<trkpt lat="54.19983" lon="-1.27956">
					<ele>43</ele>
					<time>0001-01-01T00:00:00Z</time>
				</trkpt>
				<trkpt lat="54.19932" lon="-1.27795">
					<ele>43</ele>
					<time>0001-01-01T00:00:00Z</time>
				</trkpt>
				<trkpt lat="54.19897" lon="-1.27571">
					<ele>46</ele>
					<time>0001-01-01T00:00:00Z</time>
				</trkpt>
				<trkpt lat="54.19878" lon="-1.27370">
					<ele>44</ele>
					<time>0001-01-01T00:00:00Z</time>
				</trkpt>
				<trkpt lat="54.19876" lon="-1.27346">
					<ele>43</ele>
					<time>0001-01-01T00:00:00Z</time>
				</trkpt>
				<trkpt lat="54.19848" lon="-1.27275">
					<ele>44</ele>
					<time>0001-01-01T00:00:00Z</time>
				</trkpt>
				<trkpt lat="54.19837" lon="-1.27260">
					<ele>44</ele>
					<time>0001-01-01T00:00:00Z</time>
				</trkpt>
				<trkpt lat="54.19823" lon="-1.27240">
					<ele>45</ele>
					<time>0001-01-01T00:00:00Z</time>
				</trkpt>
				<trkpt lat="54.19724" lon="-1.27145">
					<ele>44</ele>
					<time>0001-01-01T00:00:00Z</time>
				</trkpt>
				<trkpt lat="54.19631" lon="-1.27024">
					<ele>46</ele>
					<time>0001-01-01T00:00:00Z</time>
				</trkpt>
				<trkpt lat="54.19554" lon="-1.26903">
					<ele>49</ele>
					<time>0001-01-01T00:00:00Z</time>
				</trkpt>
				<trkpt lat="54.19533" lon="-1.26817">
					<ele>51</ele>
					<time>0001-01-01T00:00:00Z</time>
				</trkpt>
				<trkpt lat="54.19514" lon="-1.26739">
					<ele>52</ele>
					<time>0001-01-01T00:00:00Z</time>
				</trkpt>
				<trkpt lat="54.19434" lon="-1.26598">
					<ele>55</ele>
					<time>0001-01-01T00:00:00Z</time>
				</trkpt>
				<trkpt lat="54.19424" lon="-1.26578">
					<ele>55</ele>
					<time>0001-01-01T00:00:00Z</time>
				</trkpt>
				<trkpt lat="54.19385" lon="-1.26424">
					<ele>56</ele>
					<time>0001-01-01T00:00:00Z</time>
				</trkpt>
				<trkpt lat="54.19314" lon="-1.26240">
					<ele>52</ele>
					<time>0001-01-01T00:00:00Z</time>
				</trkpt>
				<trkpt lat="54.19250" lon="-1.25994">
					<ele>48</ele>
					<time>0001-01-01T00:00:00Z</time>
				</trkpt>
				<trkpt lat="54.19206" lon="-1.25720">
					<ele>45</ele>
					<time>0001-01-01T00:00:00Z</time>
				</trkpt>
				<trkpt lat="54.19141" lon="-1.25488">
					<ele>41</ele>
					<time>0001-01-01T00:00:00Z</time>
				</trkpt>
				<trkpt lat="54.19073" lon="-1.25243">
					<ele>40</ele>
					<time>0001-01-01T00:00:00Z</time>
				</trkpt>
				<trkpt lat="54.19073" lon="-1.25088">
					<ele>40</ele>
					<time>0001-01-01T00:00:00Z</time>
				</trkpt>
				<trkpt lat="54.19031" lon="-1.24875">
					<ele>41</ele>
					<time>0001-01-01T00:00:00Z</time>
				</trkpt>
				<trkpt lat="54.19022" lon="-1.24845">
					<ele>41</ele>
					<time>0001-01-01T00:00:00Z</time>
				</trkpt>
				<trkpt lat="54.19026" lon="-1.24747">
					<ele>43</ele>
					<time>0001-01-01T00:00:00Z</time>
				</trkpt>
				<trkpt lat="54.19084" lon="-1.24558">
					<ele>45</ele>
					<time>0001-01-01T00:00:00Z</time>
				</trkpt>
				<trkpt lat="54.19118" lon="-1.24443">
					<ele>45</ele>
					<time>0001-01-01T00:00:00Z</time>
				</trkpt>
				<trkpt lat="54.19122" lon="-1.24392">
					<ele>46</ele>
					<time>0001-01-01T00:00:00Z</time>
				</trkpt>
				<trkpt lat="54.19119" lon="-1.24203">
					<ele>47</ele>
					<time>0001-01-01T00:00:00Z</time>
				</trkpt>
				<trkpt lat="54.19109" lon="-1.24105">
					<ele>49</ele>
					<time>0001-01-01T00:00:00Z</time>
				</trkpt>
				<trkpt lat="54.19114" lon="-1.23906">
					<ele>49</ele>
					<time>0001-01-01T00:00:00Z</time>
				</trkpt>
				<trkpt lat="54.19115" lon="-1.23633">
					<ele>51</ele>
					<time>0001-01-01T00:00:00Z</time>
				</trkpt>
				<trkpt lat="54.19114" lon="-1.23416">
					<ele>54</ele>
					<time>0001-01-01T00:00:00Z</time>
				</trkpt>
				<trkpt lat="54.19122" lon="-1.23192">
					<ele>56</ele>
					<time>0001-01-01T00:00:00Z</time>
				</trkpt>
				<trkpt lat="54.19114" lon="-1.23001">
					<ele>59</ele>
					<time>0001-01-01T00:00:00Z</time>
				</trkpt>
				<trkpt lat="54.19097" lon="-1.22780">
					<ele>59</ele>
					<time>0001-01-01T00:00:00Z</time>
				</trkpt>
				<trkpt lat="54.19088" lon="-1.22539">
					<ele>61</ele>
					<time>0001-01-01T00:00:00Z</time>
				</trkpt>
				<trkpt lat="54.19060" lon="-1.22306">
					<ele>60</ele>
					<time>0001-01-01T00:00:00Z</time>
				</trkpt>
				<trkpt lat="54.19023" lon="-1.22036">
					<ele>63</ele>
					<time>0001-01-01T00:00:00Z</time>
				</trkpt>
				<trkpt lat="54.19017" lon="-1.21806">
					<ele>65</ele>
					<time>0001-01-01T00:00:00Z</time>
				</trkpt>
				<trkpt lat="54.18968" lon="-1.21611">
					<ele>66</ele>
					<time>0001-01-01T00:00:00Z</time>
				</trkpt>
				<trkpt lat="54.18951" lon="-1.21508">
					<ele>66</ele>
					<time>0001-01-01T00:00:00Z</time>
				</trkpt>
				<trkpt lat="54.18894" lon="-1.21213">
					<ele>67</ele>
					<time>0001-01-01T00:00:00Z</time>
				</trkpt>
				<trkpt lat="54.18835" lon="-1.20976">
					<ele>60</ele>
					<time>0001-01-01T00:00:00Z</time>
				</trkpt>
				<trkpt lat="54.18839" lon="-1.20943">
					<ele>60</ele>
					<time>0001-01-01T00:00:00Z</time>
				</trkpt>
				<trkpt lat="54.18878" lon="-1.20722">
					<ele>62</ele>
					<time>0001-01-01T00:00:00Z</time>
				</trkpt>
				<trkpt lat="54.18897" lon="-1.20491">
					<ele>67</ele>
					<time>0001-01-01T00:00:00Z</time>
				</trkpt>
				<trkpt lat="54.18904" lon="-1.20250">
					<ele>68</ele>
					<time>0001-01-01T00:00:00Z</time>
				</trkpt>
				<trkpt lat="54.18921" lon="-1.20027">
					<ele>69</ele>
					<time>0001-01-01T00:00:00Z</time>
				</trkpt>
				<trkpt lat="54.18926" lon="-1.19770">
					<ele>74</ele>
					<time>0001-01-01T00:00:00Z</time>
				</trkpt>
				<trkpt lat="54.18942" lon="-1.19589">
					<ele>79</ele>
					<time>0001-01-01T00:00:00Z</time>
				</trkpt>
				<trkpt lat="54.18933" lon="-1.19485">
					<ele>84</ele>
					<time>0001-01-01T00:00:00Z</time>
				</trkpt>
				<trkpt lat="54.18934" lon="-1.19416">
					<ele>88</ele>
					<time>0001-01-01T00:00:00Z</time>
				</trkpt>
				<trkpt lat="54.18953" lon="-1.19335">
					<ele>94</ele>
					<time>0001-01-01T00:00:00Z</time>
				</trkpt>
				<trkpt lat="54.18954" lon="-1.19255">
					<ele>95</ele>
					<time>0001-01-01T00:00:00Z</time>
				</trkpt>
				<trkpt lat="54.18922" lon="-1.19045">
					<ele>93</ele>
					<time>0001-01-01T00:00:00Z</time>
				</trkpt>
				<trkpt lat="54.18870" lon="-1.18810">
					<ele>91</ele>
					<time>0001-01-01T00:00:00Z</time>
				</trkpt>
				<trkpt lat="54.18805" lon="-1.18476">
					<ele>88</ele>
					<time>0001-01-01T00:00:00Z</time>
				</trkpt>
				<trkpt lat="54.18759" lon="-1.18285">
					<ele>80</ele>
					<time>0001-01-01T00:00:00Z</time>
				</trkpt>
				<trkpt lat="54.18732" lon="-1.18135">
					<ele>71</ele>
					<time>0001-01-01T00:00:00Z</time>
				</trkpt>
				<trkpt lat="54.18748" lon="-1.18102">
					<ele>69</ele>
					<time>0001-01-01T00:00:00Z</time>
				</trkpt>
				<trkpt lat="54.18865" lon="-1.18041">
					<ele>68</ele>
					<time>0001-01-01T00:00:00Z</time>
				</trkpt>
				<trkpt lat="54.18880" lon="-1.18035">
					<ele>67</ele>
					<time>0001-01-01T00:00:00Z</time>
				</trkpt>
				<trkpt lat="54.18884" lon="-1.17992">
					<ele>66</ele>
					<time>0001-01-01T00:00:00Z</time>
				</trkpt>
				<trkpt lat="54.18873" lon="-1.17998">
					<ele>66</ele>
					<time>0001-01-01T00:00:00Z</time>
				</trkpt>
				<trkpt lat="54.18875" lon="-1.17984">
					<ele>74</ele>
					<time>0001-01-01T00:00:00Z</time>
				</trkpt>
				<trkpt lat="54.18870" lon="-1.17995">
					<ele>65</ele>
					<time>0001-01-01T00:00:00Z</time>
				</trkpt>
				<trkpt lat="54.18874" lon="-1.17993">
					<ele>73</ele>
					<time>0001-01-01T00:00:00Z</time>
				</trkpt>
				<trkpt lat="54.18875" lon="-1.17993">
					<ele>74</ele>
					<time>0001-01-01T00:00:00Z</time>
				</trkpt>
				<trkpt lat="54.18880" lon="-1.17989">
					<ele>73</ele>
					<time>0001-01-01T00:00:00Z</time>
				</trkpt>
				<trkpt lat="54.18883" lon="-1.17988">
					<ele>72</ele>
					<time>0001-01-01T00:00:00Z</time>
				</trkpt>
				<trkpt lat="54.18892" lon="-1.17999">
					<ele>71</ele>
					<time>0001-01-01T00:00:00Z</time>
				</trkpt>
				<trkpt lat="54.18891" lon="-1.18016">
					<ele>70</ele>
					<time>0001-01-01T00:00:00Z</time>
				</trkpt>
				<trkpt lat="54.18884" lon="-1.18026">
					<ele>69</ele>
					<time>0001-01-01T00:00:00Z</time>
				</trkpt>
				<trkpt lat="54.18818" lon="-1.18050">
					<ele>66</ele>
					<time>0001-01-01T00:00:00Z</time>
				</trkpt>
				<trkpt lat="54.18739" lon="-1.18101">
					<ele>64</ele>
					<time>0001-01-01T00:00:00Z</time>
				</trkpt>
				<trkpt lat="54.18736" lon="-1.18100">
					<ele>64</ele>
					<time>0001-01-01T00:00:00Z</time>
				</trkpt>
				<trkpt lat="54.18730" lon="-1.18068">
					<ele>64</ele>
					<time>0001-01-01T00:00:00Z</time>
				</trkpt>
				<trkpt lat="54.18727" lon="-1.18031">
					<ele>64</ele>
					<time>0001-01-01T00:00:00Z</time>
				</trkpt>
				<trkpt lat="54.18727" lon="-1.17997">
					<ele>64</ele>
					<time>0001-01-01T00:00:00Z</time>
				</trkpt>
				<trkpt lat="54.18712" lon="-1.17836">
					<ele>65</ele>
					<time>0001-01-01T00:00:00Z</time>
				</trkpt>
				<trkpt lat="54.18689" lon="-1.17712">
					<ele>68</ele>
					<time>0001-01-01T00:00:00Z</time>
				</trkpt>
				<trkpt lat="54.18630" lon="-1.17606">
					<ele>71</ele>
					<time>0001-01-01T00:00:00Z</time>
				</trkpt>
				<trkpt lat="54.18541" lon="-1.17475">
					<ele>70</ele>
					<time>0001-01-01T00:00:00Z</time>
				</trkpt>
				<trkpt lat="54.18465" lon="-1.17355">
					<ele>65</ele>
					<time>0001-01-01T00:00:00Z</time>
				</trkpt>
				<trkpt lat="54.18431" lon="-1.17330">
					<ele>65</ele>
					<time>0001-01-01T00:00:00Z</time>
				</trkpt>
				<trkpt lat="54.18273" lon="-1.17300">
					<ele>66</ele>
					<time>0001-01-01T00:00:00Z</time>
				</trkpt>
				<trkpt lat="54.18148" lon="-1.17277">
					<ele>67</ele>
					<time>0001-01-01T00:00:00Z</time>
				</trkpt>
				<trkpt lat="54.17941" lon="-1.17240">
					<ele>72</ele>
					<time>0001-01-01T00:00:00Z</time>
				</trkpt>
				<trkpt lat="54.17872" lon="-1.17169">
					<ele>75</ele>
					<time>0001-01-01T00:00:00Z</time>
				</trkpt>
				<trkpt lat="54.17829" lon="-1.17098">
					<ele>78</ele>
					<time>0001-01-01T00:00:00Z</time>
				</trkpt>
				<trkpt lat="54.17788" lon="-1.17015">
					<ele>82</ele>
					<time>0001-01-01T00:00:00Z</time>
				</trkpt>
				<trkpt lat="54.17772" lon="-1.16987">
					<ele>81</ele>
					<time>0001-01-01T00:00:00Z</time>
				</trkpt>
				<trkpt lat="54.17771" lon="-1.16966">
					<ele>81</ele>
					<time>0001-01-01T00:00:00Z</time>
				</trkpt>
				<trkpt lat="54.17768" lon="-1.16864">
					<ele>82</ele>
					<time>0001-01-01T00:00:00Z</time>
				</trkpt>
				<trkpt lat="54.17718" lon="-1.16804">
					<ele>92</ele>
					<time>0001-01-01T00:00:00Z</time>
				</trkpt>
				<trkpt lat="54.17644" lon="-1.16745">
					<ele>102</ele>
					<time>0001-01-01T00:00:00Z</time>
				</trkpt>
				<trkpt lat="54.17576" lon="-1.16690">
					<ele>112</ele>
					<time>0001-01-01T00:00:00Z</time>
				</trkpt>
				<trkpt lat="54.17485" lon="-1.16611">
					<ele>117</ele>
					<time>0001-01-01T00:00:00Z</time>
				</trkpt>
				<trkpt lat="54.17423" lon="-1.16557">
					<ele>122</ele>
					<time>0001-01-01T00:00:00Z</time>
				</trkpt>
				<trkpt lat="54.17388" lon="-1.16522">
					<ele>125</ele>
					<time>0001-01-01T00:00:00Z</time>
				</trkpt>
				<trkpt lat="54.17322" lon="-1.16470">
					<ele>128</ele>
					<time>0001-01-01T00:00:00Z</time>
				</trkpt>
				<trkpt lat="54.17244" lon="-1.16412">
					<ele>130</ele>
					<time>0001-01-01T00:00:00Z</time>
				</trkpt>
				<trkpt lat="54.17042" lon="-1.16255">
					<ele>136</ele>
					<time>0001-01-01T00:00:00Z</time>
				</trkpt>
				<trkpt lat="54.16943" lon="-1.16194">
					<ele>140</ele>
					<time>0001-01-01T00:00:00Z</time>
				</trkpt>
				<trkpt lat="54.16931" lon="-1.16189">
					<ele>141</ele>
					<time>0001-01-01T00:00:00Z</time>
				</trkpt>
				<trkpt lat="54.16823" lon="-1.16135">
					<ele>143</ele>
					<time>0001-01-01T00:00:00Z</time>
				</trkpt>
				<trkpt lat="54.16688" lon="-1.16069">
					<ele>136</ele>
					<time>0001-01-01T00:00:00Z</time>
				</trkpt>
				<trkpt lat="54.16655" lon="-1.16055">
					<ele>134</ele>
					<time>0001-01-01T00:00:00Z</time>
				</trkpt>
				<trkpt lat="54.16600" lon="-1.16090">
					<ele>130</ele>
					<time>0001-01-01T00:00:00Z</time>
				</trkpt>
				<trkpt lat="54.16541" lon="-1.16286">
					<ele>129</ele>
					<time>0001-01-01T00:00:00Z</time>
				</trkpt>
				<trkpt lat="54.16531" lon="-1.16330">
					<ele>130</ele>
					<time>0001-01-01T00:00:00Z</time>
				</trkpt>
				<trkpt lat="54.16485" lon="-1.16367">
					<ele>129</ele>
					<time>0001-01-01T00:00:00Z</time>
				</trkpt>
				<trkpt lat="54.16332" lon="-1.16336">
					<ele>126</ele>
					<time>0001-01-01T00:00:00Z</time>
				</trkpt>
				<trkpt lat="54.16259" lon="-1.16360">
					<ele>125</ele>
					<time>0001-01-01T00:00:00Z</time>
				</trkpt>
				<trkpt lat="54.16199" lon="-1.16366">
					<ele>120</ele>
					<time>0001-01-01T00:00:00Z</time>
				</trkpt>
				<trkpt lat="54.16040" lon="-1.16288">
					<ele>99</ele>
					<time>0001-01-01T00:00:00Z</time>
				</trkpt>
				<trkpt lat="54.15957" lon="-1.16278">
					<ele>94</ele>
					<time>0001-01-01T00:00:00Z</time>
				</trkpt>
				<trkpt lat="54.15858" lon="-1.16220">
					<ele>89</ele>
					<time>0001-01-01T00:00:00Z</time>
				</trkpt>
				<trkpt lat="54.15662" lon="-1.16131">
					<ele>90</ele>
					<time>0001-01-01T00:00:00Z</time>
				</trkpt>
				<trkpt lat="54.15593" lon="-1.16115">
					<ele>88</ele>
					<time>0001-01-01T00:00:00Z</time>
				</trkpt>
				<trkpt lat="54.15546" lon="-1.16034">
					<ele>86</ele>
					<time>0001-01-01T00:00:00Z</time>
				</trkpt>
				<trkpt lat="54.15537" lon="-1.15995">
					<ele>85</ele>
					<time>0001-01-01T00:00:00Z</time>
				</trkpt>
				<trkpt lat="54.15516" lon="-1.15949">
					<ele>84</ele>
					<time>0001-01-01T00:00:00Z</time>
				</trkpt>
				<trkpt lat="54.15496" lon="-1.15922">
					<ele>83</ele>
					<time>0001-01-01T00:00:00Z</time>
				</trkpt>
				<trkpt lat="54.15464" lon="-1.15909">
					<ele>84</ele>
					<time>0001-01-01T00:00:00Z</time>
				</trkpt>
				<trkpt lat="54.15356" lon="-1.15915">
					<ele>84</ele>
					<time>0001-01-01T00:00:00Z</time>
				</trkpt>
				<trkpt lat="54.15288" lon="-1.15907">
					<ele>82</ele>
					<time>0001-01-01T00:00:00Z</time>
				</trkpt>
				<trkpt lat="54.15168" lon="-1.15811">
					<ele>82</ele>
					<time>0001-01-01T00:00:00Z</time>
				</trkpt>
				<trkpt lat="54.15038" lon="-1.15711">
					<ele>80</ele>
					<time>0001-01-01T00:00:00Z</time>
				</trkpt>
				<trkpt lat="54.14917" lon="-1.15682">
					<ele>78</ele>
					<time>0001-01-01T00:00:00Z</time>
				</trkpt>
				<trkpt lat="54.14846" lon="-1.15690">
					<ele>77</ele>
					<time>0001-01-01T00:00:00Z</time>
				</trkpt>
				<trkpt lat="54.14679" lon="-1.15715">
					<ele>80</ele>
					<time>0001-01-01T00:00:00Z</time>
				</trkpt>
				<trkpt lat="54.14592" lon="-1.15754">
					<ele>82</ele>
					<time>0001-01-01T00:00:00Z</time>
				</trkpt>
				<trkpt lat="54.14490" lon="-1.15798">
					<ele>80</ele>
					<time>0001-01-01T00:00:00Z</time>
				</trkpt>
				<trkpt lat="54.14375" lon="-1.15760">
					<ele>80</ele>
					<time>0001-01-01T00:00:00Z</time>
				</trkpt>
				<trkpt lat="54.14176" lon="-1.15706">
					<ele>77</ele>
					<time>0001-01-01T00:00:00Z</time>
				</trkpt>
				<trkpt lat="54.14009" lon="-1.15686">
					<ele>74</ele>
					<time>0001-01-01T00:00:00Z</time>
				</trkpt>
				<trkpt lat="54.13827" lon="-1.15668">
					<ele>69</ele>
					<time>0001-01-01T00:00:00Z</time>
				</trkpt>
				<trkpt lat="54.13761" lon="-1.15657">
					<ele>70</ele>
					<time>0001-01-01T00:00:00Z</time>
				</trkpt>
				<trkpt lat="54.13722" lon="-1.15620">
					<ele>72</ele>
					<time>0001-01-01T00:00:00Z</time>
				</trkpt>
				<trkpt lat="54.13640" lon="-1.15522">
					<ele>74</ele>
					<time>0001-01-01T00:00:00Z</time>
				</trkpt>
				<trkpt lat="54.13537" lon="-1.15377">
					<ele>75</ele>
					<time>0001-01-01T00:00:00Z</time>
				</trkpt>
				<trkpt lat="54.13447" lon="-1.15236">
					<ele>80</ele>
					<time>0001-01-01T00:00:00Z</time>
				</trkpt>
				<trkpt lat="54.13396" lon="-1.15175">
					<ele>83</ele>
					<time>0001-01-01T00:00:00Z</time>
				</trkpt>
				<trkpt lat="54.13349" lon="-1.15102">
					<ele>87</ele>
					<time>0001-01-01T00:00:00Z</time>
				</trkpt>
				<trkpt lat="54.13302" lon="-1.15040">
					<ele>93</ele>
					<time>0001-01-01T00:00:00Z</time>
				</trkpt>
				<trkpt lat="54.13244" lon="-1.14996">
					<ele>98</ele>
					<time>0001-01-01T00:00:00Z</time>
				</trkpt>
				<trkpt lat="54.13207" lon="-1.14965">
					<ele>100</ele>
					<time>0001-01-01T00:00:00Z</time>
				</trkpt>
				<trkpt lat="54.13112" lon="-1.14868">
					<ele>99</ele>
					<time>0001-01-01T00:00:00Z</time>
				</trkpt>
				<trkpt lat="54.13002" lon="-1.14740">
					<ele>97</ele>
					<time>0001-01-01T00:00:00Z</time>
				</trkpt>
				<trkpt lat="54.12881" lon="-1.14658">
					<ele>100</ele>
					<time>0001-01-01T00:00:00Z</time>
				</trkpt>
				<trkpt lat="54.12859" lon="-1.14581">
					<ele>101</ele>
					<time>0001-01-01T00:00:00Z</time>
				</trkpt>
				<trkpt lat="54.12858" lon="-1.14477">
					<ele>101</ele>
					<time>0001-01-01T00:00:00Z</time>
				</trkpt>
				<trkpt lat="54.12835" lon="-1.14428">
					<ele>104</ele>
					<time>0001-01-01T00:00:00Z</time>
				</trkpt>
				<trkpt lat="54.12816" lon="-1.14397">
					<ele>103</ele>
					<time>0001-01-01T00:00:00Z</time>
				</trkpt>
				<trkpt lat="54.12749" lon="-1.14238">
					<ele>89</ele>
					<time>0001-01-01T00:00:00Z</time>
				</trkpt>
				<trkpt lat="54.12738" lon="-1.14216">
					<ele>88</ele>
					<time>0001-01-01T00:00:00Z</time>
				</trkpt>
				<trkpt lat="54.12717" lon="-1.14230">
					<ele>87</ele>
					<time>0001-01-01T00:00:00Z</time>
				</trkpt>
				<trkpt lat="54.12700" lon="-1.14253">
					<ele>86</ele>
					<time>0001-01-01T00:00:00Z</time>
				</trkpt>
				<trkpt lat="54.12649" lon="-1.14364">
					<ele>77</ele>
					<time>0001-01-01T00:00:00Z</time>
				</trkpt>
				<trkpt lat="54.12604" lon="-1.14368">
					<ele>73</ele>
					<time>0001-01-01T00:00:00Z</time>
				</trkpt>
				<trkpt lat="54.12484" lon="-1.14247">
					<ele>66</ele>
					<time>0001-01-01T00:00:00Z</time>
				</trkpt>
				<trkpt lat="54.12339" lon="-1.14136">
					<ele>63</ele>
					<time>0001-01-01T00:00:00Z</time>
				</trkpt>
				<trkpt lat="54.12252" lon="-1.14101">
					<ele>62</ele>
					<time>0001-01-01T00:00:00Z</time>
				</trkpt>
				<trkpt lat="54.12104" lon="-1.14148">
					<ele>62</ele>
					<time>0001-01-01T00:00:00Z</time>
				</trkpt>
				<trkpt lat="54.11935" lon="-1.14197">
					<ele>53</ele>
					<time>0001-01-01T00:00:00Z</time>
				</trkpt>
				<trkpt lat="54.11761" lon="-1.14246">
					<ele>48</ele>
					<time>0001-01-01T00:00:00Z</time>
				</trkpt>
				<trkpt lat="54.11585" lon="-1.14285">
					<ele>44</ele>
					<time>0001-01-01T00:00:00Z</time>
				</trkpt>
				<trkpt lat="54.11388" lon="-1.14318">
					<ele>40</ele>
					<time>0001-01-01T00:00:00Z</time>
				</trkpt>
				<trkpt lat="54.11222" lon="-1.14317">
					<ele>36</ele>
					<time>0001-01-01T00:00:00Z</time>
				</trkpt>
				<trkpt lat="54.11146" lon="-1.14337">
					<ele>36</ele>
					<time>0001-01-01T00:00:00Z</time>
				</trkpt>
				<trkpt lat="54.11028" lon="-1.14308">
					<ele>34</ele>
					<time>0001-01-01T00:00:00Z</time>
				</trkpt>
				<trkpt lat="54.10939" lon="-1.14338">
					<ele>33</ele>
					<time>0001-01-01T00:00:00Z</time>
				</trkpt>
				<trkpt lat="54.10917" lon="-1.14314">
					<ele>33</ele>
					<time>0001-01-01T00:00:00Z</time>
				</trkpt>
				<trkpt lat="54.10867" lon="-1.14161">
					<ele>34</ele>
					<time>0001-01-01T00:00:00Z</time>
				</trkpt>
				<trkpt lat="54.10775" lon="-1.13902">
					<ele>33</ele>
					<time>0001-01-01T00:00:00Z</time>
				</trkpt>
				<trkpt lat="54.10704" lon="-1.13670">
					<ele>33</ele>
					<time>0001-01-01T00:00:00Z</time>
				</trkpt>
				<trkpt lat="54.10661" lon="-1.13414">
					<ele>35</ele>
					<time>0001-01-01T00:00:00Z</time>
				</trkpt>
				<trkpt lat="54.10630" lon="-1.13185">
					<ele>36</ele>
					<time>0001-01-01T00:00:00Z</time>
				</trkpt>
				<trkpt lat="54.10599" lon="-1.12950">
					<ele>39</ele>
					<time>0001-01-01T00:00:00Z</time>
				</trkpt>
				<trkpt lat="54.10571" lon="-1.12705">
					<ele>39</ele>
					<time>0001-01-01T00:00:00Z</time>
				</trkpt>
				<trkpt lat="54.10531" lon="-1.12487">
					<ele>39</ele>
					<time>0001-01-01T00:00:00Z</time>
				</trkpt>
				<trkpt lat="54.10465" lon="-1.12254">
					<ele>38</ele>
					<time>0001-01-01T00:00:00Z</time>
				</trkpt>
				<trkpt lat="54.10450" lon="-1.12038">
					<ele>38</ele>
					<time>0001-01-01T00:00:00Z</time>
				</trkpt>
				<trkpt lat="54.10432" lon="-1.11828">
					<ele>41</ele>
					<time>0001-01-01T00:00:00Z</time>
				</trkpt>
				<trkpt lat="54.10426" lon="-1.11779">
					<ele>41</ele>
					<time>0001-01-01T00:00:00Z</time>
				</trkpt>
				<trkpt lat="54.10384" lon="-1.11592">
					<ele>43</ele>
					<time>0001-01-01T00:00:00Z</time>
				</trkpt>
				<trkpt lat="54.10331" lon="-1.11396">
					<ele>45</ele>
					<time>0001-01-01T00:00:00Z</time>
				</trkpt>
				<trkpt lat="54.10296" lon="-1.11199">
					<ele>40</ele>
					<time>0001-01-01T00:00:00Z</time>
				</trkpt>
				<trkpt lat="54.10288" lon="-1.11089">
					<ele>39</ele>
					<time>0001-01-01T00:00:00Z</time>
				</trkpt>
				<trkpt lat="54.10262" lon="-1.11068">
					<ele>37</ele>
					<time>0001-01-01T00:00:00Z</time>
				</trkpt>
				<trkpt lat="54.10108" lon="-1.11069">
					<ele>35</ele>
					<time>0001-01-01T00:00:00Z</time>
				</trkpt>
				<trkpt lat="54.09942" lon="-1.11055">
					<ele>34</ele>
					<time>0001-01-01T00:00:00Z</time>
				</trkpt>
				<trkpt lat="54.09794" lon="-1.11052">
					<ele>32</ele>
					<time>0001-01-01T00:00:00Z</time>
				</trkpt>
				<trkpt lat="54.09682" lon="-1.11072">
					<ele>29</ele>
					<time>0001-01-01T00:00:00Z</time>
				</trkpt>
				<trkpt lat="54.09564" lon="-1.11009">
					<ele>29</ele>
					<time>0001-01-01T00:00:00Z</time>
				</trkpt>
				<trkpt lat="54.09547" lon="-1.11004">
					<ele>28</ele>
					<time>0001-01-01T00:00:00Z</time>
				</trkpt>
				<trkpt lat="54.09499" lon="-1.11031">
					<ele>28</ele>
					<time>0001-01-01T00:00:00Z</time>
				</trkpt>
				<trkpt lat="54.09374" lon="-1.11129">
					<ele>25</ele>
					<time>0001-01-01T00:00:00Z</time>
				</trkpt>
				<trkpt lat="54.09342" lon="-1.11127">
					<ele>25</ele>
					<time>0001-01-01T00:00:00Z</time>
				</trkpt>
				<trkpt lat="54.09201" lon="-1.11070">
					<ele>27</ele>
					<time>0001-01-01T00:00:00Z</time>
				</trkpt>
				<trkpt lat="54.09045" lon="-1.11037">
					<ele>22</ele>
					<time>0001-01-01T00:00:00Z</time>
				</trkpt>
				<trkpt lat="54.08869" lon="-1.11009">
					<ele>18</ele>
					<time>0001-01-01T00:00:00Z</time>
				</trkpt>
				<trkpt lat="54.08832" lon="-1.11019">
					<ele>18</ele>
					<time>0001-01-01T00:00:00Z</time>
				</trkpt>
				<trkpt lat="54.08795" lon="-1.11055">
					<ele>17</ele>
					<time>0001-01-01T00:00:00Z</time>
				</trkpt>
				<trkpt lat="54.08754" lon="-1.11068">
					<ele>18</ele>
					<time>0001-01-01T00:00:00Z</time>
				</trkpt>
				<trkpt lat="54.08553" lon="-1.11057">
					<ele>21</ele>
					<time>0001-01-01T00:00:00Z</time>
				</trkpt>
				<trkpt lat="54.08371" lon="-1.11020">
					<ele>23</ele>
					<time>0001-01-01T00:00:00Z</time>
				</trkpt>
				<trkpt lat="54.08212" lon="-1.10928">
					<ele>24</ele>
					<time>0001-01-01T00:00:00Z</time>
				</trkpt>
				<trkpt lat="54.08094" lon="-1.10755">
					<ele>24</ele>
					<time>0001-01-01T00:00:00Z</time>
				</trkpt>
				<trkpt lat="54.07980" lon="-1.10666">
					<ele>25</ele>
					<time>0001-01-01T00:00:00Z</time>
				</trkpt>
				<trkpt lat="54.07861" lon="-1.10539">
					<ele>27</ele>
					<time>0001-01-01T00:00:00Z</time>
				</trkpt>
				<trkpt lat="54.07725" lon="-1.10358">
					<ele>28</ele>
					<time>0001-01-01T00:00:00Z</time>
				</trkpt>
				<trkpt lat="54.07587" lon="-1.10227">
					<ele>26</ele>
					<time>0001-01-01T00:00:00Z</time>
				</trkpt>
				<trkpt lat="54.07473" lon="-1.10115">
					<ele>25</ele>
					<time>0001-01-01T00:00:00Z</time>
				</trkpt>
				<trkpt lat="54.07305" lon="-1.09961">
					<ele>25</ele>
					<time>0001-01-01T00:00:00Z</time>
				</trkpt>
				<trkpt lat="54.07105" lon="-1.09762">
					<ele>21</ele>
					<time>0001-01-01T00:00:00Z</time>
				</trkpt>
				<trkpt lat="54.06905" lon="-1.09574">
					<ele>19</ele>
					<time>0001-01-01T00:00:00Z</time>
				</trkpt>
				<trkpt lat="54.06724" lon="-1.09427">
					<ele>20</ele>
					<time>0001-01-01T00:00:00Z</time>
				</trkpt>
				<trkpt lat="54.06531" lon="-1.09289">
					<ele>20</ele>
					<time>0001-01-01T00:00:00Z</time>
				</trkpt>
				<trkpt lat="54.06333" lon="-1.09157">
					<ele>18</ele>
					<time>0001-01-01T00:00:00Z</time>
				</trkpt>
				<trkpt lat="54.06236" lon="-1.09112">
					<ele>19</ele>
					<time>0001-01-01T00:00:00Z</time>
				</trkpt>
				<trkpt lat="54.06222" lon="-1.09060">
					<ele>19</ele>
					<time>0001-01-01T00:00:00Z</time>
				</trkpt>
				<trkpt lat="54.06275" lon="-1.08882">
					<ele>18</ele>
					<time>0001-01-01T00:00:00Z</time>
				</trkpt>
				<trkpt lat="54.06280" lon="-1.08841">
					<ele>19</ele>
					<time>0001-01-01T00:00:00Z</time>
				</trkpt>
				<trkpt lat="54.06193" lon="-1.08783">
					<ele>21</ele>
					<time>0001-01-01T00:00:00Z</time>
				</trkpt>
				<trkpt lat="54.06034" lon="-1.08678">
					<ele>20</ele>
					<time>0001-01-01T00:00:00Z</time>
				</trkpt>
				<trkpt lat="54.05880" lon="-1.08576">
					<ele>20</ele>
					<time>0001-01-01T00:00:00Z</time>
				</trkpt>
				<trkpt lat="54.05722" lon="-1.08471">
					<ele>20</ele>
					<time>0001-01-01T00:00:00Z</time>
				</trkpt>
				<trkpt lat="54.05708" lon="-1.08406">
					<ele>20</ele>
					<time>0001-01-01T00:00:00Z</time>
				</trkpt>
				<trkpt lat="54.05748" lon="-1.08115">
					<ele>19</ele>
					<time>0001-01-01T00:00:00Z</time>
				</trkpt>
				<trkpt lat="54.05795" lon="-1.07775">
					<ele>21</ele>
					<time>0001-01-01T00:00:00Z</time>
				</trkpt>
				<trkpt lat="54.05841" lon="-1.07429">
					<ele>20</ele>
					<time>0001-01-01T00:00:00Z</time>
				</trkpt>
				<trkpt lat="54.05894" lon="-1.07069">
					<ele>21</ele>
					<time>0001-01-01T00:00:00Z</time>
				</trkpt>
				<trkpt lat="54.05904" lon="-1.06984">
					<ele>22</ele>
					<time>0001-01-01T00:00:00Z</time>
				</trkpt>
				<trkpt lat="54.05900" lon="-1.06941">
					<ele>23</ele>
					<time>0001-01-01T00:00:00Z</time>
				</trkpt>
				<trkpt lat="54.05833" lon="-1.06702">
					<ele>23</ele>
					<time>0001-01-01T00:00:00Z</time>
				</trkpt>
				<trkpt lat="54.05741" lon="-1.06396">
					<ele>24</ele>
					<time>0001-01-01T00:00:00Z</time>
				</trkpt>
				<trkpt lat="54.05730" lon="-1.06361">
					<ele>24</ele>
					<time>0001-01-01T00:00:00Z</time>
				</trkpt>
				<trkpt lat="54.05681" lon="-1.06101">
					<ele>22</ele>
					<time>0001-01-01T00:00:00Z</time>
				</trkpt>
				<trkpt lat="54.05660" lon="-1.05978">
					<ele>21</ele>
					<time>0001-01-01T00:00:00Z</time>
				</trkpt>
				<trkpt lat="54.05633" lon="-1.05941">
					<ele>21</ele>
					<time>0001-01-01T00:00:00Z</time>
				</trkpt>
				<trkpt lat="54.05453" lon="-1.05905">
					<ele>19</ele>
					<time>0001-01-01T00:00:00Z</time>
				</trkpt>
				<trkpt lat="54.05306" lon="-1.05856">
					<ele>23</ele>
					<time>0001-01-01T00:00:00Z</time>
				</trkpt>
				<trkpt lat="54.05224" lon="-1.05819">
					<ele>23</ele>
					<time>0001-01-01T00:00:00Z</time>
				</trkpt>
				<trkpt lat="54.05193" lon="-1.05765">
					<ele>22</ele>
					<time>0001-01-01T00:00:00Z</time>
				</trkpt>
				<trkpt lat="54.05105" lon="-1.05432">
					<ele>20</ele>
					<time>0001-01-01T00:00:00Z</time>
				</trkpt>
				<trkpt lat="54.05050" lon="-1.05127">
					<ele>20</ele>
					<time>0001-01-01T00:00:00Z</time>
				</trkpt>
				<trkpt lat="54.05004" lon="-1.04832">
					<ele>20</ele>
					<time>0001-01-01T00:00:00Z</time>
				</trkpt>
				<trkpt lat="54.04952" lon="-1.04489">
					<ele>20</ele>
					<time>0001-01-01T00:00:00Z</time>
				</trkpt>
				<trkpt lat="54.04928" lon="-1.04162">
					<ele>20</ele>
					<time>0001-01-01T00:00:00Z</time>
				</trkpt>
				<trkpt lat="54.04915" lon="-1.03910">
					<ele>19</ele>
					<time>0001-01-01T00:00:00Z</time>
				</trkpt>
				<trkpt lat="54.04901" lon="-1.03663">
					<ele>18</ele>
					<time>0001-01-01T00:00:00Z</time>
				</trkpt>
				<trkpt lat="54.04900" lon="-1.03641">
					<ele>18</ele>
					<time>0001-01-01T00:00:00Z</time>
				</trkpt>
				<trkpt lat="54.04882" lon="-1.03615">
					<ele>18</ele>
					<time>0001-01-01T00:00:00Z</time>
				</trkpt>
				<trkpt lat="54.04776" lon="-1.03559">
					<ele>19</ele>
					<time>0001-01-01T00:00:00Z</time>
				</trkpt>
				<trkpt lat="54.04623" lon="-1.03525">
					<ele>20</ele>
					<time>0001-01-01T00:00:00Z</time>
				</trkpt>
				<trkpt lat="54.04485" lon="-1.03523">
					<ele>21</ele>
					<time>0001-01-01T00:00:00Z</time>
				</trkpt>
				<trkpt lat="54.04382" lon="-1.03512">
					<ele>20</ele>
					<time>0001-01-01T00:00:00Z</time>
				</trkpt>
				<trkpt lat="54.04352" lon="-1.03510">
					<ele>20</ele>
					<time>0001-01-01T00:00:00Z</time>
				</trkpt>
				<trkpt lat="54.04329" lon="-1.03514">
					<ele>20</ele>
					<time>0001-01-01T00:00:00Z</time>
				</trkpt>
				<trkpt lat="54.04214" lon="-1.03522">
					<ele>21</ele>
					<time>0001-01-01T00:00:00Z</time>
				</trkpt>
				<trkpt lat="54.04115" lon="-1.03538">
					<ele>20</ele>
					<time>0001-01-01T00:00:00Z</time>
				</trkpt>
				<trkpt lat="54.04037" lon="-1.03524">
					<ele>17</ele>
					<time>0001-01-01T00:00:00Z</time>
				</trkpt>
				<trkpt lat="54.04012" lon="-1.03520">
					<ele>16</ele>
					<time>0001-01-01T00:00:00Z</time>
				</trkpt>
				<trkpt lat="54.04008" lon="-1.03520">
					<ele>17</ele>
					<time>0001-01-01T00:00:00Z</time>
				</trkpt>
				<trkpt lat="54.03997" lon="-1.03543">
					<ele>17</ele>
					<time>0001-01-01T00:00:00Z</time>
				</trkpt>
				<trkpt lat="54.03961" lon="-1.03674">
					<ele>15</ele>
					<time>0001-01-01T00:00:00Z</time>
				</trkpt>
				<trkpt lat="54.03947" lon="-1.03722">
					<ele>15</ele>
					<time>0001-01-01T00:00:00Z</time>
				</trkpt>
				<trkpt lat="54.03909" lon="-1.03744">
					<ele>15</ele>
					<time>0001-01-01T00:00:00Z</time>
				</trkpt>
				<trkpt lat="54.03868" lon="-1.03735">
					<ele>17</ele>
					<time>0001-01-01T00:00:00Z</time>
				</trkpt>
				<trkpt lat="54.03791" lon="-1.03798">
					<ele>18</ele>
					<time>0001-01-01T00:00:00Z</time>
				</trkpt>
				<trkpt lat="54.03765" lon="-1.03824">
					<ele>18</ele>
					<time>0001-01-01T00:00:00Z</time>
				</trkpt>
				<trkpt lat="54.03734" lon="-1.03878">
					<ele>19</ele>
					<time>0001-01-01T00:00:00Z</time>
				</trkpt>
				<trkpt lat="54.03721" lon="-1.03890">
					<ele>19</ele>
					<time>0001-01-01T00:00:00Z</time>
				</trkpt>
				<trkpt lat="54.03547" lon="-1.03844">
					<ele>17</ele>
					<time>0001-01-01T00:00:00Z</time>
				</trkpt>
				<trkpt lat="54.03422" lon="-1.03846">
					<ele>17</ele>
					<time>0001-01-01T00:00:00Z</time>
				</trkpt>
				<trkpt lat="54.03257" lon="-1.03891">
					<ele>20</ele>
					<time>0001-01-01T00:00:00Z</time>
				</trkpt>
				<trkpt lat="54.03095" lon="-1.03979">
					<ele>18</ele>
					<time>0001-01-01T00:00:00Z</time>
				</trkpt>
				<trkpt lat="54.02941" lon="-1.04039">
					<ele>21</ele>
					<time>0001-01-01T00:00:00Z</time>
				</trkpt>
				<trkpt lat="54.02850" lon="-1.04041">
					<ele>20</ele>
					<time>0001-01-01T00:00:00Z</time>
				</trkpt>
				<trkpt lat="54.02821" lon="-1.04015">
					<ele>20</ele>
					<time>0001-01-01T00:00:00Z</time>
				</trkpt>
				<trkpt lat="54.02769" lon="-1.04057">
					<ele>19</ele>
					<time>0001-01-01T00:00:00Z</time>
				</trkpt>
				<trkpt lat="54.02659" lon="-1.04171">
					<ele>17</ele>
					<time>0001-01-01T00:00:00Z</time>
				</trkpt>
				<trkpt lat="54.02518" lon="-1.04285">
					<ele>15</ele>
					<time>0001-01-01T00:00:00Z</time>
				</trkpt>
				<trkpt lat="54.02355" lon="-1.04405">
					<ele>17</ele>
					<time>0001-01-01T00:00:00Z</time>
				</trkpt>
				<trkpt lat="54.02242" lon="-1.04458">
					<ele>18</ele>
					<time>0001-01-01T00:00:00Z</time>
				</trkpt>
				<trkpt lat="54.02118" lon="-1.04491">
					<ele>19</ele>
					<time>0001-01-01T00:00:00Z</time>
				</trkpt>
				<trkpt lat="54.02045" lon="-1.04513">
					<ele>19</ele>
					<time>0001-01-01T00:00:00Z</time>
				</trkpt>
				<trkpt lat="54.01991" lon="-1.04553">
					<ele>18</ele>
					<time>0001-01-01T00:00:00Z</time>
				</trkpt>
				<trkpt lat="54.01964" lon="-1.04515">
					<ele>19</ele>
					<time>0001-01-01T00:00:00Z</time>
				</trkpt>
				<trkpt lat="54.01944" lon="-1.04350">
					<ele>20</ele>
					<time>0001-01-01T00:00:00Z</time>
				</trkpt>
				<trkpt lat="54.01926" lon="-1.04202">
					<ele>20</ele>
					<time>0001-01-01T00:00:00Z</time>
				</trkpt>
				<trkpt lat="54.01899" lon="-1.03943">
					<ele>24</ele>
					<time>0001-01-01T00:00:00Z</time>
				</trkpt>
				<trkpt lat="54.01876" lon="-1.03636">
					<ele>19</ele>
					<time>0001-01-01T00:00:00Z</time>
				</trkpt>
				<trkpt lat="54.01851" lon="-1.03360">
					<ele>18</ele>
					<time>0001-01-01T00:00:00Z</time>
				</trkpt>
				<trkpt lat="54.01837" lon="-1.03129">
					<ele>21</ele>
					<time>0001-01-01T00:00:00Z</time>
				</trkpt>
				<trkpt lat="54.01817" lon="-1.02846">
					<ele>20</ele>
					<time>0001-01-01T00:00:00Z</time>
				</trkpt>
				<trkpt lat="54.01799" lon="-1.02549">
					<ele>20</ele>
					<time>0001-01-01T00:00:00Z</time>
				</trkpt>
				<trkpt lat="54.01790" lon="-1.02253">
					<ele>21</ele>
					<time>0001-01-01T00:00:00Z</time>
				</trkpt>
				<trkpt lat="54.01816" lon="-1.01969">
					<ele>17</ele>
					<time>0001-01-01T00:00:00Z</time>
				</trkpt>
				<trkpt lat="54.01848" lon="-1.01663">
					<ele>17</ele>
					<time>0001-01-01T00:00:00Z</time>
				</trkpt>
				<trkpt lat="54.01878" lon="-1.01344">
					<ele>19</ele>
					<time>0001-01-01T00:00:00Z</time>
				</trkpt>
				<trkpt lat="54.01910" lon="-1.01022">
					<ele>18</ele>
					<time>0001-01-01T00:00:00Z</time>
				</trkpt>
				<trkpt lat="54.01928" lon="-1.00826">
					<ele>19</ele>
					<time>0001-01-01T00:00:00Z</time>
				</trkpt>
				<trkpt lat="54.01927" lon="-1.00759">
					<ele>17</ele>
					<time>0001-01-01T00:00:00Z</time>
				</trkpt>
				<trkpt lat="54.01918" lon="-1.00703">
					<ele>17</ele>
					<time>0001-01-01T00:00:00Z</time>
				</trkpt>
				<trkpt lat="54.01803" lon="-1.00450">
					<ele>18</ele>
					<time>0001-01-01T00:00:00Z</time>
				</trkpt>
				<trkpt lat="54.01593" lon="-0.99943">
					<ele>20</ele>
					<time>0001-01-01T00:00:00Z</time>
				</trkpt>
				<trkpt lat="54.01508" lon="-0.99680">
					<ele>20</ele>
					<time>0001-01-01T00:00:00Z</time>
				</trkpt>
				<trkpt lat="54.01433" lon="-0.99456">
					<ele>18</ele>
					<time>0001-01-01T00:00:00Z</time>
				</trkpt>
				<trkpt lat="54.01336" lon="-0.99163">
					<ele>17</ele>
					<time>0001-01-01T00:00:00Z</time>
				</trkpt>
				<trkpt lat="54.01298" lon="-0.99044">
					<ele>20</ele>
					<time>0001-01-01T00:00:00Z</time>
				</trkpt>
				<trkpt lat="54.01295" lon="-0.99039">
					<ele>21</ele>
					<time>0001-01-01T00:00:00Z</time>
				</trkpt>
				<trkpt lat="54.01294" lon="-0.99030">
					<ele>21</ele>
					<time>0001-01-01T00:00:00Z</time>
				</trkpt>
				<trkpt lat="54.01252" lon="-0.98987">
					<ele>21</ele>
					<time>0001-01-01T00:00:00Z</time>
				</trkpt>
				<trkpt lat="54.01129" lon="-0.98839">
					<ele>20</ele>
					<time>0001-01-01T00:00:00Z</time>
				</trkpt>
				<trkpt lat="54.00995" lon="-0.98676">
					<ele>20</ele>
					<time>0001-01-01T00:00:00Z</time>
				</trkpt>
				<trkpt lat="54.00892" lon="-0.98553">
					<ele>19</ele>
					<time>0001-01-01T00:00:00Z</time>
				</trkpt>
				<trkpt lat="54.00756" lon="-0.98387">
					<ele>19</ele>
					<time>0001-01-01T00:00:00Z</time>
				</trkpt>
				<trkpt lat="54.00668" lon="-0.98276">
					<ele>19</ele>
					<time>0001-01-01T00:00:00Z</time>
				</trkpt>
				<trkpt lat="54.00550" lon="-0.97715">
					<ele>17</ele>
					<time>0001-01-01T00:00:00Z</time>
				</trkpt>
				<trkpt lat="54.00487" lon="-0.97421">
					<ele>17</ele>
					<time>0001-01-01T00:00:00Z</time>
				</trkpt>
				<trkpt lat="54.00476" lon="-0.97391">
					<ele>17</ele>
					<time>0001-01-01T00:00:00Z</time>
				</trkpt>
				<trkpt lat="54.00441" lon="-0.97338">
					<ele>17</ele>
					<time>0001-01-01T00:00:00Z</time>
				</trkpt>
				<trkpt lat="54.00299" lon="-0.97229">
					<ele>19</ele>
					<time>0001-01-01T00:00:00Z</time>
				</trkpt>
				<trkpt lat="54.00209" lon="-0.97159">
					<ele>23</ele>
					<time>0001-01-01T00:00:00Z</time>
				</trkpt>
				<trkpt lat="54.00077" lon="-0.97057">
					<ele>24</ele>
					<time>0001-01-01T00:00:00Z</time>
				</trkpt>
				<trkpt lat="53.99948" lon="-0.96994">
					<ele>25</ele>
					<time>0001-01-01T00:00:00Z</time>
				</trkpt>
				<trkpt lat="53.99792" lon="-0.97009">
					<ele>25</ele>
					<time>0001-01-01T00:00:00Z</time>
				</trkpt>
				<trkpt lat="53.99647" lon="-0.97067">
					<ele>24</ele>
					<time>0001-01-01T00:00:00Z</time>
				</trkpt>
				<trkpt lat="53.99522" lon="-0.97126">
					<ele>25</ele>
					<time>0001-01-01T00:00:00Z</time>
				</trkpt>
				<trkpt lat="53.99396" lon="-0.97189">
					<ele>24</ele>
					<time>0001-01-01T00:00:00Z</time>
				</trkpt>
				<trkpt lat="53.99238" lon="-0.97260">
					<ele>21</ele>
					<time>0001-01-01T00:00:00Z</time>
				</trkpt>
				<trkpt lat="53.99195" lon="-0.97264">
					<ele>22</ele>
					<time>0001-01-01T00:00:00Z</time>
				</trkpt>
				<trkpt lat="53.99028" lon="-0.97193">
					<ele>21</ele>
					<time>0001-01-01T00:00:00Z</time>
				</trkpt>
				<trkpt lat="53.98882" lon="-0.97149">
					<ele>22</ele>
					<time>0001-01-01T00:00:00Z</time>
				</trkpt>
				<trkpt lat="53.98857" lon="-0.97158">
					<ele>22</ele>
					<time>0001-01-01T00:00:00Z</time>
				</trkpt>
				<trkpt lat="53.98822" lon="-0.97199">
					<ele>22</ele>
					<time>0001-01-01T00:00:00Z</time>
				</trkpt>
				<trkpt lat="53.98803" lon="-0.97211">
					<ele>22</ele>
					<time>0001-01-01T00:00:00Z</time>
				</trkpt>
				<trkpt lat="53.98781" lon="-0.97249">
					<ele>22</ele>
					<time>0001-01-01T00:00:00Z</time>
				</trkpt>
				<trkpt lat="53.98738" lon="-0.97292">
					<ele>23</ele>
					<time>0001-01-01T00:00:00Z</time>
				</trkpt>
				<trkpt lat="53.98616" lon="-0.97229">
					<ele>22</ele>
					<time>0001-01-01T00:00:00Z</time>
				</trkpt>
				<trkpt lat="53.98463" lon="-0.97088">
					<ele>22</ele>
					<time>0001-01-01T00:00:00Z</time>
				</trkpt>
				<trkpt lat="53.98424" lon="-0.97072">
					<ele>22</ele>
					<time>0001-01-01T00:00:00Z</time>
				</trkpt>
				<trkpt lat="53.98398" lon="-0.97082">
					<ele>24</ele>
					<time>0001-01-01T00:00:00Z</time>
				</trkpt>
				<trkpt lat="53.98276" lon="-0.97202">
					<ele>27</ele>
					<time>0001-01-01T00:00:00Z</time>
				</trkpt>
				<trkpt lat="53.98159" lon="-0.97304">
					<ele>24</ele>
					<time>0001-01-01T00:00:00Z</time>
				</trkpt>
				<trkpt lat="53.98062" lon="-0.97372">
					<ele>26</ele>
					<time>0001-01-01T00:00:00Z</time>
				</trkpt>
				<trkpt lat="53.98030" lon="-0.97361">
					<ele>26</ele>
					<time>0001-01-01T00:00:00Z</time>
				</trkpt>
				<trkpt lat="53.97974" lon="-0.97286">
					<ele>27</ele>
					<time>0001-01-01T00:00:00Z</time>
				</trkpt>
				<trkpt lat="53.97929" lon="-0.97265">
					<ele>25</ele>
					<time>0001-01-01T00:00:00Z</time>
				</trkpt>
				<trkpt lat="53.97826" lon="-0.97269">
					<ele>23</ele>
					<time>0001-01-01T00:00:00Z</time>
				</trkpt>
				<trkpt lat="53.97735" lon="-0.97246">
					<ele>26</ele>
					<time>0001-01-01T00:00:00Z</time>
				</trkpt>
				<trkpt lat="53.97600" lon="-0.97278">
					<ele>29</ele>
					<time>0001-01-01T00:00:00Z</time>
				</trkpt>
				<trkpt lat="53.97518" lon="-0.97291">
					<ele>33</ele>
					<time>0001-01-01T00:00:00Z</time>
				</trkpt>
				<trkpt lat="53.97510" lon="-0.97260">
					<ele>34</ele>
					<time>0001-01-01T00:00:00Z</time>
				</trkpt>
				<trkpt lat="53.97589" lon="-0.97118">
					<ele>34</ele>
					<time>0001-01-01T00:00:00Z</time>
				</trkpt>
				<trkpt lat="53.97715" lon="-0.96884">
					<ele>33</ele>
					<time>0001-01-01T00:00:00Z</time>
				</trkpt>
				<trkpt lat="53.97727" lon="-0.96858">
					<ele>33</ele>
					<time>0001-01-01T00:00:00Z</time>
				</trkpt>
				<trkpt lat="53.97721" lon="-0.96814">
					<ele>32</ele>
					<time>0001-01-01T00:00:00Z</time>
				</trkpt>
				<trkpt lat="53.97640" lon="-0.96638">
					<ele>23</ele>
					<time>0001-01-01T00:00:00Z</time>
				</trkpt>
				<trkpt lat="53.97613" lon="-0.96579">
					<ele>22</ele>
					<time>0001-01-01T00:00:00Z</time>
				</trkpt>
				<trkpt lat="53.97583" lon="-0.96578">
					<ele>21</ele>
					<time>0001-01-01T00:00:00Z</time>
				</trkpt>
				<trkpt lat="53.97445" lon="-0.96705">
					<ele>21</ele>
					<time>0001-01-01T00:00:00Z</time>
				</trkpt>
				<trkpt lat="53.97345" lon="-0.96816">
					<ele>24</ele>
					<time>0001-01-01T00:00:00Z</time>
				</trkpt>
				<trkpt lat="53.97205" lon="-0.96999">
					<ele>23</ele>
					<time>0001-01-01T00:00:00Z</time>
				</trkpt>
				<trkpt lat="53.97124" lon="-0.97182">
					<ele>24</ele>
					<time>0001-01-01T00:00:00Z</time>
				</trkpt>
				<trkpt lat="53.97021" lon="-0.97400">
					<ele>23</ele>
					<time>0001-01-01T00:00:00Z</time>
				</trkpt>
				<trkpt lat="53.96936" lon="-0.97637">
					<ele>22</ele>
					<time>0001-01-01T00:00:00Z</time>
				</trkpt>
				<trkpt lat="53.96885" lon="-0.97753">
					<ele>21</ele>
					<time>0001-01-01T00:00:00Z</time>
				</trkpt>
				<trkpt lat="53.96854" lon="-0.97810">
					<ele>20</ele>
					<time>0001-01-01T00:00:00Z</time>
				</trkpt>
				<trkpt lat="53.96840" lon="-0.97804">
					<ele>18</ele>
					<time>0001-01-01T00:00:00Z</time>
				</trkpt>
				<trkpt lat="53.96819" lon="-0.97787">
					<ele>17</ele>
					<time>0001-01-01T00:00:00Z</time>
				</trkpt>
				<trkpt lat="53.96725" lon="-0.97678">
					<ele>13</ele>
					<time>0001-01-01T00:00:00Z</time>
				</trkpt>
				<trkpt lat="53.96706" lon="-0.97652">
					<ele>12</ele>
					<time>0001-01-01T00:00:00Z</time>
				</trkpt>
				<trkpt lat="53.96683" lon="-0.97665">
					<ele>12</ele>
					<time>0001-01-01T00:00:00Z</time>
				</trkpt>
				<trkpt lat="53.96583" lon="-0.97837">
					<ele>13</ele>
					<time>0001-01-01T00:00:00Z</time>
				</trkpt>
				<trkpt lat="53.96560" lon="-0.97869">
					<ele>13</ele>
					<time>0001-01-01T00:00:00Z</time>
				</trkpt>
				<trkpt lat="53.96521" lon="-0.97959">
					<ele>11</ele>
					<time>0001-01-01T00:00:00Z</time>
				</trkpt>
				<trkpt lat="53.96510" lon="-0.97949">
					<ele>11</ele>
					<time>0001-01-01T00:00:00Z</time>
				</trkpt>
				<trkpt lat="53.96498" lon="-0.97927">
					<ele>10</ele>
					<time>0001-01-01T00:00:00Z</time>
				</trkpt>
				<trkpt lat="53.96401" lon="-0.97817">
					<ele>10</ele>
					<time>0001-01-01T00:00:00Z</time>
				</trkpt>
				<trkpt lat="53.96275" lon="-0.97639">
					<ele>11</ele>
					<time>0001-01-01T00:00:00Z</time>
				</trkpt>
				<trkpt lat="53.96189" lon="-0.97561">
					<ele>11</ele>
					<time>0001-01-01T00:00:00Z</time>
				</trkpt>
				<trkpt lat="53.96094" lon="-0.97496">
					<ele>10</ele>
					<time>0001-01-01T00:00:00Z</time>
				</trkpt>
				<trkpt lat="53.95941" lon="-0.97412">
					<ele>9</ele>
					<time>0001-01-01T00:00:00Z</time>
				</trkpt>
				<trkpt lat="53.95804" lon="-0.97340">
					<ele>9</ele>
					<time>0001-01-01T00:00:00Z</time>
				</trkpt>
				<trkpt lat="53.95666" lon="-0.97269">
					<ele>8</ele>
					<time>0001-01-01T00:00:00Z</time>
				</trkpt>
				<trkpt lat="53.95539" lon="-0.97205">
					<ele>9</ele>
					<time>0001-01-01T00:00:00Z</time>
				</trkpt>
				<trkpt lat="53.95481" lon="-0.97176">
					<ele>8</ele>
					<time>0001-01-01T00:00:00Z</time>
				</trkpt>
				<trkpt lat="53.95471" lon="-0.97170">
					<ele>10</ele>
					<time>0001-01-01T00:00:00Z</time>
				</trkpt>
				<trkpt lat="53.95464" lon="-0.97194">
					<ele>11</ele>
					<time>0001-01-01T00:00:00Z</time>
				</trkpt>
				<trkpt lat="53.95472" lon="-0.97249">
					<ele>12</ele>
					<time>0001-01-01T00:00:00Z</time>
				</trkpt>
				<trkpt lat="53.95456" lon="-0.97260">
					<ele>11</ele>
					<time>0001-01-01T00:00:00Z</time>
				</trkpt>
				<trkpt lat="53.95367" lon="-0.97207">
					<ele>11</ele>
					<time>0001-01-01T00:00:00Z</time>
				</trkpt>
				<trkpt lat="53.95255" lon="-0.97235">
					<ele>10</ele>
					<time>0001-01-01T00:00:00Z</time>
				</trkpt>
				<trkpt lat="53.95110" lon="-0.97279">
					<ele>9</ele>
					<time>0001-01-01T00:00:00Z</time>
				</trkpt>
				<trkpt lat="53.94947" lon="-0.97330">
					<ele>9</ele>
					<time>0001-01-01T00:00:00Z</time>
				</trkpt>
				<trkpt lat="53.94780" lon="-0.97382">
					<ele>9</ele>
					<time>0001-01-01T00:00:00Z</time>
				</trkpt>
				<trkpt lat="53.94636" lon="-0.97425">
					<ele>11</ele>
					<time>0001-01-01T00:00:00Z</time>
				</trkpt>
				<trkpt lat="53.94495" lon="-0.97469">
					<ele>12</ele>
					<time>0001-01-01T00:00:00Z</time>
				</trkpt>
				<trkpt lat="53.94488" lon="-0.97472">
					<ele>12</ele>
					<time>0001-01-01T00:00:00Z</time>
				</trkpt>
				<trkpt lat="53.94461" lon="-0.97498">
					<ele>12</ele>
					<time>0001-01-01T00:00:00Z</time>
				</trkpt>
				<trkpt lat="53.94351" lon="-0.97729">
					<ele>12</ele>
					<time>0001-01-01T00:00:00Z</time>
				</trkpt>
				<trkpt lat="53.94246" lon="-0.97947">
					<ele>12</ele>
					<time>0001-01-01T00:00:00Z</time>
				</trkpt>
				<trkpt lat="53.94145" lon="-0.98138">
					<ele>10</ele>
					<time>0001-01-01T00:00:00Z</time>
				</trkpt>
				<trkpt lat="53.94025" lon="-0.98238">
					<ele>10</ele>
					<time>0001-01-01T00:00:00Z</time>
				</trkpt>
				<trkpt lat="53.93866" lon="-0.98357">
					<ele>10</ele>
					<time>0001-01-01T00:00:00Z</time>
				</trkpt>
				<trkpt lat="53.93835" lon="-0.98376">
					<ele>10</ele>
					<time>0001-01-01T00:00:00Z</time>
				</trkpt>
				<trkpt lat="53.93745" lon="-0.98229">
					<ele>10</ele>
					<time>0001-01-01T00:00:00Z</time>
				</trkpt>
				<trkpt lat="53.93622" lon="-0.98047">
					<ele>8</ele>
					<time>0001-01-01T00:00:00Z</time>
				</trkpt>
				<trkpt lat="53.93470" lon="-0.97772">
					<ele>6</ele>
					<time>0001-01-01T00:00:00Z</time>
				</trkpt>
				<trkpt lat="53.93356" lon="-0.97560">
					<ele>9</ele>
					<time>0001-01-01T00:00:00Z</time>
				</trkpt>
				<trkpt lat="53.93258" lon="-0.97386">
					<ele>11</ele>
					<time>0001-01-01T00:00:00Z</time>
				</trkpt>
				<trkpt lat="53.93176" lon="-0.97195">
					<ele>11</ele>
					<time>0001-01-01T00:00:00Z</time>
				</trkpt>
				<trkpt lat="53.93097" lon="-0.96893">
					<ele>11</ele>
					<time>0001-01-01T00:00:00Z</time>
				</trkpt>
				<trkpt lat="53.93020" lon="-0.96696">
					<ele>11</ele>
					<time>0001-01-01T00:00:00Z</time>
				</trkpt>
				<trkpt lat="53.92910" lon="-0.96488">
					<ele>9</ele>
					<time>0001-01-01T00:00:00Z</time>
				</trkpt>
				<trkpt lat="53.92814" lon="-0.96302">
					<ele>10</ele>
					<time>0001-01-01T00:00:00Z</time>
				</trkpt>
				<trkpt lat="53.92671" lon="-0.96053">
					<ele>10</ele>
					<time>0001-01-01T00:00:00Z</time>
				</trkpt>
				<trkpt lat="53.92645" lon="-0.96006">
					<ele>10</ele>
					<time>0001-01-01T00:00:00Z</time>
				</trkpt>
				<trkpt lat="53.92589" lon="-0.95746">
					<ele>14</ele>
					<time>0001-01-01T00:00:00Z</time>
				</trkpt>
				<trkpt lat="53.92539" lon="-0.95387">
					<ele>15</ele>
					<time>0001-01-01T00:00:00Z</time>
				</trkpt>
				<trkpt lat="53.92497" lon="-0.95078">
					<ele>11</ele>
					<time>0001-01-01T00:00:00Z</time>
				</trkpt>
				<trkpt lat="53.92480" lon="-0.94811">
					<ele>9</ele>
					<time>0001-01-01T00:00:00Z</time>
				</trkpt>
				<trkpt lat="53.92436" lon="-0.94542">
					<ele>7</ele>
					<time>0001-01-01T00:00:00Z</time>
				</trkpt>
				<trkpt lat="53.92388" lon="-0.94215">
					<ele>8</ele>
					<time>0001-01-01T00:00:00Z</time>
				</trkpt>
				<trkpt lat="53.92359" lon="-0.94055">
					<ele>6</ele>
					<time>0001-01-01T00:00:00Z</time>
				</trkpt>
				<trkpt lat="53.92329" lon="-0.93993">
					<ele>5</ele>
					<time>0001-01-01T00:00:00Z</time>
				</trkpt>
				<trkpt lat="53.92247" lon="-0.93892">
					<ele>5</ele>
					<time>0001-01-01T00:00:00Z</time>
				</trkpt>
				<trkpt lat="53.92173" lon="-0.93845">
					<ele>4</ele>
					<time>0001-01-01T00:00:00Z</time>
				</trkpt>
				<trkpt lat="53.92145" lon="-0.93813">
					<ele>3</ele>
					<time>0001-01-01T00:00:00Z</time>
				</trkpt>
				<trkpt lat="53.92060" lon="-0.93587">
					<ele>2</ele>
					<time>0001-01-01T00:00:00Z</time>
				</trkpt>
				<trkpt lat="53.92020" lon="-0.93408">
					<ele>2</ele>
					<time>0001-01-01T00:00:00Z</time>
				</trkpt>
				<trkpt lat="53.92019" lon="-0.93199">
					<ele>5</ele>
					<time>0001-01-01T00:00:00Z</time>
				</trkpt>
				<trkpt lat="53.92012" lon="-0.93055">
					<ele>3</ele>
					<time>0001-01-01T00:00:00Z</time>
				</trkpt>
				<trkpt lat="53.92034" lon="-0.92908">
					<ele>4</ele>
					<time>0001-01-01T00:00:00Z</time>
				</trkpt>
				<trkpt lat="53.92030" lon="-0.92822">
					<ele>4</ele>
					<time>0001-01-01T00:00:00Z</time>
				</trkpt>
				<trkpt lat="53.91993" lon="-0.92776">
					<ele>3</ele>
					<time>0001-01-01T00:00:00Z</time>
				</trkpt>
				<trkpt lat="53.91873" lon="-0.92722">
					<ele>3</ele>
					<time>0001-01-01T00:00:00Z</time>
				</trkpt>
				<trkpt lat="53.91760" lon="-0.92669">
					<ele>4</ele>
					<time>0001-01-01T00:00:00Z</time>
				</trkpt>
				<trkpt lat="53.91753" lon="-0.92667">
					<ele>4</ele>
					<time>0001-01-01T00:00:00Z</time>
				</trkpt>
				<trkpt lat="53.91738" lon="-0.92646">
					<ele>5</ele>
					<time>0001-01-01T00:00:00Z</time>
				</trkpt>
				<trkpt lat="53.91727" lon="-0.92611">
					<ele>5</ele>
					<time>0001-01-01T00:00:00Z</time>
				</trkpt>
				<trkpt lat="53.91716" lon="-0.92517">
					<ele>8</ele>
					<time>0001-01-01T00:00:00Z</time>
				</trkpt>
				<trkpt lat="53.91684" lon="-0.92440">
					<ele>5</ele>
					<time>0001-01-01T00:00:00Z</time>
				</trkpt>
				<trkpt lat="53.91616" lon="-0.92418">
					<ele>4</ele>
					<time>0001-01-01T00:00:00Z</time>
				</trkpt>
				<trkpt lat="53.91595" lon="-0.92388">
					<ele>4</ele>
					<time>0001-01-01T00:00:00Z</time>
				</trkpt>
				<trkpt lat="53.91539" lon="-0.92364">
					<ele>5</ele>
					<time>0001-01-01T00:00:00Z</time>
				</trkpt>
				<trkpt lat="53.91364" lon="-0.92422">
					<ele>6</ele>
					<time>0001-01-01T00:00:00Z</time>
				</trkpt>
				<trkpt lat="53.91250" lon="-0.92440">
					<ele>6</ele>
					<time>0001-01-01T00:00:00Z</time>
				</trkpt>
				<trkpt lat="53.91117" lon="-0.92463">
					<ele>6</ele>
					<time>0001-01-01T00:00:00Z</time>
				</trkpt>
				<trkpt lat="53.90979" lon="-0.92518">
					<ele>7</ele>
					<time>0001-01-01T00:00:00Z</time>
				</trkpt>
				<trkpt lat="53.90871" lon="-0.92568">
					<ele>8</ele>
					<time>0001-01-01T00:00:00Z</time>
				</trkpt>
				<trkpt lat="53.90746" lon="-0.92667">
					<ele>8</ele>
					<time>0001-01-01T00:00:00Z</time>
				</trkpt>
				<trkpt lat="53.90630" lon="-0.92756">
					<ele>9</ele>
					<time>0001-01-01T00:00:00Z</time>
				</trkpt>
				<trkpt lat="53.90532" lon="-0.92832">
					<ele>9</ele>
					<time>0001-01-01T00:00:00Z</time>
				</trkpt>
				<trkpt lat="53.90490" lon="-0.92821">
					<ele>10</ele>
					<time>0001-01-01T00:00:00Z</time>
				</trkpt>
				<trkpt lat="53.90424" lon="-0.92680">
					<ele>11</ele>
					<time>0001-01-01T00:00:00Z</time>
				</trkpt>
				<trkpt lat="53.90360" lon="-0.92450">
					<ele>8</ele>
					<time>0001-01-01T00:00:00Z</time>
				</trkpt>
				<trkpt lat="53.90322" lon="-0.92353">
					<ele>8</ele>
					<time>0001-01-01T00:00:00Z</time>
				</trkpt>
				<trkpt lat="53.90320" lon="-0.92347">
					<ele>7</ele>
					<time>0001-01-01T00:00:00Z</time>
				</trkpt>
				<trkpt lat="53.90312" lon="-0.92326">
					<ele>8</ele>
					<time>0001-01-01T00:00:00Z</time>
				</trkpt>
				<trkpt lat="53.90271" lon="-0.92229">
					<ele>8</ele>
					<time>0001-01-01T00:00:00Z</time>
				</trkpt>
				<trkpt lat="53.90205" lon="-0.92071">
					<ele>7</ele>
					<time>0001-01-01T00:00:00Z</time>
				</trkpt>
				<trkpt lat="53.90107" lon="-0.91830">
					<ele>6</ele>
					<time>0001-01-01T00:00:00Z</time>
				</trkpt>
				<trkpt lat="53.89998" lon="-0.91570">
					<ele>5</ele>
					<time>0001-01-01T00:00:00Z</time>
				</trkpt>
				<trkpt lat="53.89890" lon="-0.91316">
					<ele>5</ele>
					<time>0001-01-01T00:00:00Z</time>
				</trkpt>
				<trkpt lat="53.89790" lon="-0.91123">
					<ele>3</ele>
					<time>0001-01-01T00:00:00Z</time>
				</trkpt>
				<trkpt lat="53.89731" lon="-0.90985">
					<ele>4</ele>
					<time>0001-01-01T00:00:00Z</time>
				</trkpt>
				<trkpt lat="53.89698" lon="-0.90779">
					<ele>4</ele>
					<time>0001-01-01T00:00:00Z</time>
				</trkpt>
				<trkpt lat="53.89658" lon="-0.90491">
					<ele>5</ele>
					<time>0001-01-01T00:00:00Z</time>
				</trkpt>
				<trkpt lat="53.89645" lon="-0.90269">
					<ele>6</ele>
					<time>0001-01-01T00:00:00Z</time>
				</trkpt>
				<trkpt lat="53.89662" lon="-0.90157">
					<ele>6</ele>
					<time>0001-01-01T00:00:00Z</time>
				</trkpt>
				<trkpt lat="53.89645" lon="-0.90081">
					<ele>6</ele>
					<time>0001-01-01T00:00:00Z</time>
				</trkpt>
				<trkpt lat="53.89638" lon="-0.90076">
					<ele>6</ele>
					<time>0001-01-01T00:00:00Z</time>
				</trkpt>
				<trkpt lat="53.89488" lon="-0.89997">
					<ele>5</ele>
					<time>0001-01-01T00:00:00Z</time>
				</trkpt>
				<trkpt lat="53.89466" lon="-0.89945">
					<ele>6</ele>
					<time>0001-01-01T00:00:00Z</time>
				</trkpt>
				<trkpt lat="53.89477" lon="-0.89696">
					<ele>6</ele>
					<time>0001-01-01T00:00:00Z</time>
				</trkpt>
				<trkpt lat="53.89470" lon="-0.89481">
					<ele>7</ele>
					<time>0001-01-01T00:00:00Z</time>
				</trkpt>
				<trkpt lat="53.89468" lon="-0.89408">
					<ele>7</ele>
					<time>0001-01-01T00:00:00Z</time>
				</trkpt>
				<trkpt lat="53.89437" lon="-0.89366">
					<ele>7</ele>
					<time>0001-01-01T00:00:00Z</time>
				</trkpt>
				<trkpt lat="53.89286" lon="-0.89350">
					<ele>7</ele>
					<time>0001-01-01T00:00:00Z</time>
				</trkpt>
				<trkpt lat="53.89111" lon="-0.89320">
					<ele>6</ele>
					<time>0001-01-01T00:00:00Z</time>
				</trkpt>
				<trkpt lat="53.88965" lon="-0.89308">
					<ele>6</ele>
					<time>0001-01-01T00:00:00Z</time>
				</trkpt>
				<trkpt lat="53.88780" lon="-0.89299">
					<ele>10</ele>
					<time>0001-01-01T00:00:00Z</time>
				</trkpt>
				<trkpt lat="53.88596" lon="-0.89269">
					<ele>7</ele>
					<time>0001-01-01T00:00:00Z</time>
				</trkpt>
				<trkpt lat="53.88369" lon="-0.89242">
					<ele>6</ele>
					<time>0001-01-01T00:00:00Z</time>
				</trkpt>
				<trkpt lat="53.88172" lon="-0.89219">
					<ele>4</ele>
					<time>0001-01-01T00:00:00Z</time>
				</trkpt>
				<trkpt lat="53.87902" lon="-0.89191">
					<ele>3</ele>
					<time>0001-01-01T00:00:00Z</time>
				</trkpt>
				<trkpt lat="53.87767" lon="-0.89179">
					<ele>4</ele>
					<time>0001-01-01T00:00:00Z</time>
				</trkpt>
				<trkpt lat="53.87604" lon="-0.89167">
					<ele>5</ele>
					<time>0001-01-01T00:00:00Z</time>
				</trkpt>
				<trkpt lat="53.87468" lon="-0.89146">
					<ele>4</ele>
					<time>0001-01-01T00:00:00Z</time>
				</trkpt>
				<trkpt lat="53.87290" lon="-0.89143">
					<ele>4</ele>
					<time>0001-01-01T00:00:00Z</time>
				</trkpt>
				<trkpt lat="53.87207" lon="-0.89210">
					<ele>5</ele>
					<time>0001-01-01T00:00:00Z</time>
				</trkpt>
				<trkpt lat="53.87103" lon="-0.89369">
					<ele>5</ele>
					<time>0001-01-01T00:00:00Z</time>
				</trkpt>
				<trkpt lat="53.87024" lon="-0.89497">
					<ele>7</ele>
					<time>0001-01-01T00:00:00Z</time>
				</trkpt>
				<trkpt lat="53.87018" lon="-0.89505">
					<ele>8</ele>
					<time>0001-01-01T00:00:00Z</time>
				</trkpt>
				<trkpt lat="53.87019" lon="-0.89504">
					<ele>7</ele>
					<time>0001-01-01T00:00:00Z</time>
				</trkpt>
				<trkpt lat="53.87018" lon="-0.89505">
					<ele>8</ele>
					<time>0001-01-01T00:00:00Z</time>
				</trkpt>
				<trkpt lat="53.87018" lon="-0.89505">
					<ele>7</ele>
					<time>0001-01-01T00:00:00Z</time>
				</trkpt>
				<trkpt lat="53.87014" lon="-0.89513">
					<ele>7</ele>
					<time>0001-01-01T00:00:00Z</time>
				</trkpt>
				<trkpt lat="53.86971" lon="-0.89571">
					<ele>7</ele>
					<time>0001-01-01T00:00:00Z</time>
				</trkpt>
				<trkpt lat="53.86888" lon="-0.89664">
					<ele>8</ele>
					<time>0001-01-01T00:00:00Z</time>
				</trkpt>
				<trkpt lat="53.86761" lon="-0.89804">
					<ele>9</ele>
					<time>0001-01-01T00:00:00Z</time>
				</trkpt>
				<trkpt lat="53.86613" lon="-0.89971">
					<ele>9</ele>
					<time>0001-01-01T00:00:00Z</time>
				</trkpt>
				<trkpt lat="53.86450" lon="-0.90162">
					<ele>8</ele>
					<time>0001-01-01T00:00:00Z</time>
				</trkpt>
				<trkpt lat="53.86403" lon="-0.90223">
					<ele>8</ele>
					<time>0001-01-01T00:00:00Z</time>
				</trkpt>
				<trkpt lat="53.86389" lon="-0.90262">
					<ele>7</ele>
					<time>0001-01-01T00:00:00Z</time>
				</trkpt>
				<trkpt lat="53.86296" lon="-0.90590">
					<ele>6</ele>
					<time>0001-01-01T00:00:00Z</time>
				</trkpt>
				<trkpt lat="53.86201" lon="-0.90921">
					<ele>5</ele>
					<time>0001-01-01T00:00:00Z</time>
				</trkpt>
				<trkpt lat="53.86105" lon="-0.91155">
					<ele>5</ele>
					<time>0001-01-01T00:00:00Z</time>
				</trkpt>
				<trkpt lat="53.86001" lon="-0.91367">
					<ele>5</ele>
					<time>0001-01-01T00:00:00Z</time>
				</trkpt>
				<trkpt lat="53.85894" lon="-0.91583">
					<ele>5</ele>
					<time>0001-01-01T00:00:00Z</time>
				</trkpt>
				<trkpt lat="53.85792" lon="-0.91752">
					<ele>6</ele>
					<time>0001-01-01T00:00:00Z</time>
				</trkpt>
				<trkpt lat="53.85625" lon="-0.91915">
					<ele>7</ele>
					<time>0001-01-01T00:00:00Z</time>
				</trkpt>
				<trkpt lat="53.85577" lon="-0.91903">
					<ele>7</ele>
					<time>0001-01-01T00:00:00Z</time>
				</trkpt>
				<trkpt lat="53.85418" lon="-0.91730">
					<ele>8</ele>
					<time>0001-01-01T00:00:00Z</time>
				</trkpt>
				<trkpt lat="53.85230" lon="-0.91547">
					<ele>8</ele>
					<time>0001-01-01T00:00:00Z</time>
				</trkpt>
				<trkpt lat="53.85041" lon="-0.91358">
					<ele>5</ele>
					<time>0001-01-01T00:00:00Z</time>
				</trkpt>
				<trkpt lat="53.84878" lon="-0.91191">
					<ele>7</ele>
					<time>0001-01-01T00:00:00Z</time>
				</trkpt>
				<trkpt lat="53.84860" lon="-0.91172">
					<ele>6</ele>
					<time>0001-01-01T00:00:00Z</time>
				</trkpt>
				<trkpt lat="53.84842" lon="-0.91134">
					<ele>6</ele>
					<time>0001-01-01T00:00:00Z</time>
				</trkpt>
				<trkpt lat="53.84745" lon="-0.90878">
					<ele>6</ele>
					<time>0001-01-01T00:00:00Z</time>
				</trkpt>
				<trkpt lat="53.84594" lon="-0.90664">
					<ele>5</ele>
					<time>0001-01-01T00:00:00Z</time>
				</trkpt>
				<trkpt lat="53.84557" lon="-0.90653">
					<ele>5</ele>
					<time>0001-01-01T00:00:00Z</time>
				</trkpt>
				<trkpt lat="53.84395" lon="-0.90717">
					<ele>3</ele>
					<time>0001-01-01T00:00:00Z</time>
				</trkpt>
				<trkpt lat="53.84335" lon="-0.90746">
					<ele>3</ele>
					<time>0001-01-01T00:00:00Z</time>
				</trkpt>
				<trkpt lat="53.84316" lon="-0.90759">
					<ele>2</ele>
					<time>0001-01-01T00:00:00Z</time>
				</trkpt>
				<trkpt lat="53.84282" lon="-0.90829">
					<ele>2</ele>
					<time>0001-01-01T00:00:00Z</time>
				</trkpt>
				<trkpt lat="53.84277" lon="-0.90850">
					<ele>2</ele>
					<time>0001-01-01T00:00:00Z</time>
				</trkpt>
				<trkpt lat="53.84255" lon="-0.90894">
					<ele>1</ele>
					<time>0001-01-01T00:00:00Z</time>
				</trkpt>
				<trkpt lat="53.84129" lon="-0.91031">
					<ele>0</ele>
					<time>0001-01-01T00:00:00Z</time>
				</trkpt>
				<trkpt lat="53.84122" lon="-0.91036">
					<ele>0</ele>
					<time>0001-01-01T00:00:00Z</time>
				</trkpt>
				<trkpt lat="53.84088" lon="-0.91035">
					<ele>2</ele>
					<time>0001-01-01T00:00:00Z</time>
				</trkpt>
				<trkpt lat="53.84006" lon="-0.90968">
					<ele>3</ele>
					<time>0001-01-01T00:00:00Z</time>
				</trkpt>
				<trkpt lat="53.83869" lon="-0.90975">
					<ele>2</ele>
					<time>0001-01-01T00:00:00Z</time>
				</trkpt>
				<trkpt lat="53.83669" lon="-0.91040">
					<ele>3</ele>
					<time>0001-01-01T00:00:00Z</time>
				</trkpt>
				<trkpt lat="53.83484" lon="-0.91100">
					<ele>4</ele>
					<time>0001-01-01T00:00:00Z</time>
				</trkpt>
				<trkpt lat="53.83281" lon="-0.91151">
					<ele>5</ele>
					<time>0001-01-01T00:00:00Z</time>
				</trkpt>
				<trkpt lat="53.83128" lon="-0.91060">
					<ele>4</ele>
					<time>0001-01-01T00:00:00Z</time>
				</trkpt>
				<trkpt lat="53.82993" lon="-0.90962">
					<ele>3</ele>
					<time>0001-01-01T00:00:00Z</time>
				</trkpt>
				<trkpt lat="53.82826" lon="-0.90837">
					<ele>1</ele>
					<time>0001-01-01T00:00:00Z</time>
				</trkpt>
				<trkpt lat="53.82687" lon="-0.90643">
					<ele>1</ele>
					<time>0001-01-01T00:00:00Z</time>
				</trkpt>
				<trkpt lat="53.82676" lon="-0.90628">
					<ele>1</ele>
					<time>0001-01-01T00:00:00Z</time>
				</trkpt>
				<trkpt lat="53.82548" lon="-0.90542">
					<ele>1</ele>
					<time>0001-01-01T00:00:00Z</time>
				</trkpt>
				<trkpt lat="53.82408" lon="-0.90519">
					<ele>1</ele>
					<time>0001-01-01T00:00:00Z</time>
				</trkpt>
				<trkpt lat="53.82317" lon="-0.90488">
					<ele>3</ele>
					<time>0001-01-01T00:00:00Z</time>
				</trkpt>
				<trkpt lat="53.82225" lon="-0.90366">
					<ele>5</ele>
					<time>0001-01-01T00:00:00Z</time>
				</trkpt>
				<trkpt lat="53.82096" lon="-0.90296">
					<ele>5</ele>
					<time>0001-01-01T00:00:00Z</time>
				</trkpt>
				<trkpt lat="53.81997" lon="-0.90231">
					<ele>5</ele>
					<time>0001-01-01T00:00:00Z</time>
				</trkpt>
				<trkpt lat="53.81910" lon="-0.90152">
					<ele>4</ele>
					<time>0001-01-01T00:00:00Z</time>
				</trkpt>
				<trkpt lat="53.81866" lon="-0.90091">
					<ele>2</ele>
					<time>0001-01-01T00:00:00Z</time>
				</trkpt>
				<trkpt lat="53.81782" lon="-0.89944">
					<ele>4</ele>
					<time>0001-01-01T00:00:00Z</time>
				</trkpt>
				<trkpt lat="53.81692" lon="-0.89730">
					<ele>2</ele>
					<time>0001-01-01T00:00:00Z</time>
				</trkpt>
				<trkpt lat="53.81589" lon="-0.89473">
					<ele>3</ele>
					<time>0001-01-01T00:00:00Z</time>
				</trkpt>
				<trkpt lat="53.81501" lon="-0.89317">
					<ele>4</ele>
					<time>0001-01-01T00:00:00Z</time>
				</trkpt>
				<trkpt lat="53.81496" lon="-0.89309">
					<ele>4</ele>
					<time>0001-01-01T00:00:00Z</time>
				</trkpt>
				<trkpt lat="53.81483" lon="-0.89293">
					<ele>4</ele>
					<time>0001-01-01T00:00:00Z</time>
				</trkpt>
				<trkpt lat="53.81355" lon="-0.89239">
					<ele>5</ele>
					<time>0001-01-01T00:00:00Z</time>
				</trkpt>
				<trkpt lat="53.81197" lon="-0.89186">
					<ele>7</ele>
					<time>0001-01-01T00:00:00Z</time>
				</trkpt>
				<trkpt lat="53.81031" lon="-0.89175">
					<ele>6</ele>
					<time>0001-01-01T00:00:00Z</time>
				</trkpt>
				<trkpt lat="53.80902" lon="-0.89229">
					<ele>6</ele>
					<time>0001-01-01T00:00:00Z</time>
				</trkpt>
				<trkpt lat="53.80840" lon="-0.89260">
					<ele>6</ele>
					<time>0001-01-01T00:00:00Z</time>
				</trkpt>
				<trkpt lat="53.80811" lon="-0.89254">
					<ele>6</ele>
					<time>0001-01-01T00:00:00Z</time>
				</trkpt>
				<trkpt lat="53.80672" lon="-0.89187">
					<ele>5</ele>
					<time>0001-01-01T00:00:00Z</time>
				</trkpt>
				<trkpt lat="53.80485" lon="-0.89129">
					<ele>5</ele>
					<time>0001-01-01T00:00:00Z</time>
				</trkpt>
				<trkpt lat="53.80342" lon="-0.89085">
					<ele>3</ele>
					<time>0001-01-01T00:00:00Z</time>
				</trkpt>
				<trkpt lat="53.80191" lon="-0.89040">
					<ele>3</ele>
					<time>0001-01-01T00:00:00Z</time>
				</trkpt>
				<trkpt lat="53.80044" lon="-0.88992">
					<ele>3</ele>
					<time>0001-01-01T00:00:00Z</time>
				</trkpt>
				<trkpt lat="53.79866" lon="-0.88956">
					<ele>4</ele>
					<time>0001-01-01T00:00:00Z</time>
				</trkpt>
				<trkpt lat="53.79720" lon="-0.88940">
					<ele>4</ele>
					<time>0001-01-01T00:00:00Z</time>
				</trkpt>
				<trkpt lat="53.79563" lon="-0.88921">
					<ele>4</ele>
					<time>0001-01-01T00:00:00Z</time>
				</trkpt>
				<trkpt lat="53.79537" lon="-0.88898">
					<ele>4</ele>
					<time>0001-01-01T00:00:00Z</time>
				</trkpt>
				<trkpt lat="53.79440" lon="-0.88815">
					<ele>4</ele>
					<time>0001-01-01T00:00:00Z</time>
				</trkpt>
				<trkpt lat="53.79299" lon="-0.88771">
					<ele>4</ele>
					<time>0001-01-01T00:00:00Z</time>
				</trkpt>
				<trkpt lat="53.79277" lon="-0.88768">
					<ele>4</ele>
					<time>0001-01-01T00:00:00Z</time>
				</trkpt>
				<trkpt lat="53.79237" lon="-0.88719">
					<ele>4</ele>
					<time>0001-01-01T00:00:00Z</time>
				</trkpt>
				<trkpt lat="53.79181" lon="-0.88462">
					<ele>3</ele>
					<time>0001-01-01T00:00:00Z</time>
				</trkpt>
				<trkpt lat="53.79161" lon="-0.88395">
					<ele>3</ele>
					<time>0001-01-01T00:00:00Z</time>
				</trkpt>
				<trkpt lat="53.79071" lon="-0.88287">
					<ele>5</ele>
					<time>0001-01-01T00:00:00Z</time>
				</trkpt>
				<trkpt lat="53.78955" lon="-0.88141">
					<ele>3</ele>
					<time>0001-01-01T00:00:00Z</time>
				</trkpt>
				<trkpt lat="53.78817" lon="-0.87994">
					<ele>3</ele>
					<time>0001-01-01T00:00:00Z</time>
				</trkpt>
				<trkpt lat="53.78672" lon="-0.87878">
					<ele>3</ele>
					<time>0001-01-01T00:00:00Z</time>
				</trkpt>
				<trkpt lat="53.78548" lon="-0.87773">
					<ele>3</ele>
					<time>0001-01-01T00:00:00Z</time>
				</trkpt>
				<trkpt lat="53.78425" lon="-0.87707">
					<ele>3</ele>
					<time>0001-01-01T00:00:00Z</time>
				</trkpt>
				<trkpt lat="53.78345" lon="-0.87586">
					<ele>3</ele>
					<time>0001-01-01T00:00:00Z</time>
				</trkpt>
				<trkpt lat="53.78218" lon="-0.87364">
					<ele>4</ele>
					<time>0001-01-01T00:00:00Z</time>
				</trkpt>
				<trkpt lat="53.78087" lon="-0.87128">
					<ele>5</ele>
					<time>0001-01-01T00:00:00Z</time>
				</trkpt>
				<trkpt lat="53.77943" lon="-0.86870">
					<ele>5</ele>
					<time>0001-01-01T00:00:00Z</time>
				</trkpt>
				<trkpt lat="53.77813" lon="-0.86639">
					<ele>3</ele>
					<time>0001-01-01T00:00:00Z</time>
				</trkpt>
				<trkpt lat="53.77692" lon="-0.86425">
					<ele>2</ele>
					<time>0001-01-01T00:00:00Z</time>
				</trkpt>
				<trkpt lat="53.77611" lon="-0.86291">
					<ele>2</ele>
					<time>0001-01-01T00:00:00Z</time>
				</trkpt>
				<trkpt lat="53.77574" lon="-0.86258">
					<ele>1</ele>
					<time>0001-01-01T00:00:00Z</time>
				</trkpt>
				<trkpt lat="53.77436" lon="-0.86195">
					<ele>2</ele>
					<time>0001-01-01T00:00:00Z</time>
				</trkpt>
				<trkpt lat="53.77287" lon="-0.86117">
					<ele>2</ele>
					<time>0001-01-01T00:00:00Z</time>
				</trkpt>
				<trkpt lat="53.77134" lon="-0.86068">
					<ele>1</ele>
					<time>0001-01-01T00:00:00Z</time>
				</trkpt>
				<trkpt lat="53.76936" lon="-0.86054">
					<ele>-3</ele>
					<time>0001-01-01T00:00:00Z</time>
				</trkpt>
				<trkpt lat="53.76740" lon="-0.86054">
					<ele>-1</ele>
					<time>0001-01-01T00:00:00Z</time>
				</trkpt>
				<trkpt lat="53.76547" lon="-0.86053">
					<ele>0</ele>
					<time>0001-01-01T00:00:00Z</time>
				</trkpt>
				<trkpt lat="53.76402" lon="-0.86051">
					<ele>-2</ele>
					<time>0001-01-01T00:00:00Z</time>
				</trkpt>
				<trkpt lat="53.76241" lon="-0.86062">
					<ele>-7</ele>
					<time>0001-01-01T00:00:00Z</time>
				</trkpt>
				<trkpt lat="53.76100" lon="-0.86081">
					<ele>-3</ele>
					<time>0001-01-01T00:00:00Z</time>
				</trkpt>
				<trkpt lat="53.75931" lon="-0.86097">
					<ele>-2</ele>
					<time>0001-01-01T00:00:00Z</time>
				</trkpt>
				<trkpt lat="53.75811" lon="-0.86115">
					<ele>-1</ele>
					<time>0001-01-01T00:00:00Z</time>
				</trkpt>
				<trkpt lat="53.75646" lon="-0.86159">
					<ele>-1</ele>
					<time>0001-01-01T00:00:00Z</time>
				</trkpt>
				<trkpt lat="53.75487" lon="-0.86226">
					<ele>-3</ele>
					<time>0001-01-01T00:00:00Z</time>
				</trkpt>
				<trkpt lat="53.75356" lon="-0.86243">
					<ele>-3</ele>
					<time>0001-01-01T00:00:00Z</time>
				</trkpt>
				<trkpt lat="53.75170" lon="-0.86234">
					<ele>-1</ele>
					<time>0001-01-01T00:00:00Z</time>
				</trkpt>
				<trkpt lat="53.75006" lon="-0.86306">
					<ele>0</ele>
					<time>0001-01-01T00:00:00Z</time>
				</trkpt>
				<trkpt lat="53.74892" lon="-0.86343">
					<ele>3</ele>
					<time>0001-01-01T00:00:00Z</time>
				</trkpt>
				<trkpt lat="53.74757" lon="-0.86342">
					<ele>4</ele>
					<time>0001-01-01T00:00:00Z</time>
				</trkpt>
				<trkpt lat="53.74723" lon="-0.86378">
					<ele>3</ele>
					<time>0001-01-01T00:00:00Z</time>
				</trkpt>
				<trkpt lat="53.74718" lon="-0.86405">
					<ele>2</ele>
					<time>0001-01-01T00:00:00Z</time>
				</trkpt>
				<trkpt lat="53.74707" lon="-0.86467">
					<ele>3</ele>
					<time>0001-01-01T00:00:00Z</time>
				</trkpt>
				<trkpt lat="53.74643" lon="-0.86597">
					<ele>3</ele>
					<time>0001-01-01T00:00:00Z</time>
				</trkpt>
				<trkpt lat="53.74617" lon="-0.86713">
					<ele>4</ele>
					<time>0001-01-01T00:00:00Z</time>
				</trkpt>
				<trkpt lat="53.74608" lon="-0.86739">
					<ele>5</ele>
					<time>0001-01-01T00:00:00Z</time>
				</trkpt>
				<trkpt lat="53.74566" lon="-0.86887">
					<ele>4</ele>
					<time>0001-01-01T00:00:00Z</time>
				</trkpt>
				<trkpt lat="53.74573" lon="-0.86924">
					<ele>3</ele>
					<time>0001-01-01T00:00:00Z</time>
				</trkpt>
				<trkpt lat="53.74529" lon="-0.87011">
					<ele>3</ele>
					<time>0001-01-01T00:00:00Z</time>
				</trkpt>
				<trkpt lat="53.74337" lon="-0.87033">
					<ele>3</ele>
					<time>0001-01-01T00:00:00Z</time>
				</trkpt>
				<trkpt lat="53.74289" lon="-0.87068">
					<ele>2</ele>
					<time>0001-01-01T00:00:00Z</time>
				</trkpt>
				<trkpt lat="53.74252" lon="-0.87090">
					<ele>1</ele>
					<time>0001-01-01T00:00:00Z</time>
				</trkpt>
				<trkpt lat="53.74171" lon="-0.87183">
					<ele>0</ele>
					<time>0001-01-01T00:00:00Z</time>
				</trkpt>
				<trkpt lat="53.74048" lon="-0.87327">
					<ele>0</ele>
					<time>0001-01-01T00:00:00Z</time>
				</trkpt>
				<trkpt lat="53.73998" lon="-0.87371">
					<ele>0</ele>
					<time>0001-01-01T00:00:00Z</time>
				</trkpt>
				<trkpt lat="53.73961" lon="-0.87452">
					<ele>0</ele>
					<time>0001-01-01T00:00:00Z</time>
				</trkpt>
				<trkpt lat="53.73971" lon="-0.87510">
					<ele>0</ele>
					<time>0001-01-01T00:00:00Z</time>
				</trkpt>
				<trkpt lat="53.73952" lon="-0.87561">
					<ele>0</ele>
					<time>0001-01-01T00:00:00Z</time>
				</trkpt>
				<trkpt lat="53.73821" lon="-0.87600">
					<ele>2</ele>
					<time>0001-01-01T00:00:00Z</time>
				</trkpt>
				<trkpt lat="53.73695" lon="-0.87651">
					<ele>2</ele>
					<time>0001-01-01T00:00:00Z</time>
				</trkpt>
				<trkpt lat="53.73676" lon="-0.87652">
					<ele>2</ele>
					<time>0001-01-01T00:00:00Z</time>
				</trkpt>
				<trkpt lat="53.73629" lon="-0.87764">
					<ele>2</ele>
					<time>0001-01-01T00:00:00Z</time>
				</trkpt>
				<trkpt lat="53.73510" lon="-0.88002">
					<ele>1</ele>
					<time>0001-01-01T00:00:00Z</time>
				</trkpt>
				<trkpt lat="53.73374" lon="-0.88212">
					<ele>-1</ele>
					<time>0001-01-01T00:00:00Z</time>
				</trkpt>
				<trkpt lat="53.73235" lon="-0.88389">
					<ele>0</ele>
					<time>0001-01-01T00:00:00Z</time>
				</trkpt>
				<trkpt lat="53.73066" lon="-0.88555">
					<ele>0</ele>
					<time>0001-01-01T00:00:00Z</time>
				</trkpt>
				<trkpt lat="53.72943" lon="-0.88682">
					<ele>1</ele>
					<time>0001-01-01T00:00:00Z</time>
				</trkpt>
				<trkpt lat="53.72908" lon="-0.88765">
					<ele>1</ele>
					<time>0001-01-01T00:00:00Z</time>
				</trkpt>
				<trkpt lat="53.72882" lon="-0.88922">
					<ele>3</ele>
					<time>0001-01-01T00:00:00Z</time>
				</trkpt>
				<trkpt lat="53.72871" lon="-0.88996">
					<ele>5</ele>
					<time>0001-01-01T00:00:00Z</time>
				</trkpt>
				<trkpt lat="53.72828" lon="-0.89047">
					<ele>7</ele>
					<time>0001-01-01T00:00:00Z</time>
				</trkpt>
				<trkpt lat="53.72781" lon="-0.89027">
					<ele>8</ele>
					<time>0001-01-01T00:00:00Z</time>
				</trkpt>
				<trkpt lat="53.72646" lon="-0.89023">
					<ele>8</ele>
					<time>0001-01-01T00:00:00Z</time>
				</trkpt>
				<trkpt lat="53.72627" lon="-0.89023">
					<ele>8</ele>
					<time>0001-01-01T00:00:00Z</time>
				</trkpt>
				<trkpt lat="53.72510" lon="-0.89095">
					<ele>7</ele>
					<time>0001-01-01T00:00:00Z</time>
				</trkpt>
				<trkpt lat="53.72468" lon="-0.89144">
					<ele>4</ele>
					<time>0001-01-01T00:00:00Z</time>
				</trkpt>
				<trkpt lat="53.72446" lon="-0.89224">
					<ele>3</ele>
					<time>0001-01-01T00:00:00Z</time>
				</trkpt>
				<trkpt lat="53.72444" lon="-0.89257">
					<ele>3</ele>
					<time>0001-01-01T00:00:00Z</time>
				</trkpt>
				<trkpt lat="53.72386" lon="-0.89456">
					<ele>0</ele>
					<time>0001-01-01T00:00:00Z</time>
				</trkpt>
				<trkpt lat="53.72316" lon="-0.89692">
					<ele>2</ele>
					<time>0001-01-01T00:00:00Z</time>
				</trkpt>
				<trkpt lat="53.72216" lon="-0.89981">
					<ele>0</ele>
					<time>0001-01-01T00:00:00Z</time>
				</trkpt>
				<trkpt lat="53.72156" lon="-0.90138">
					<ele>0</ele>
					<time>0001-01-01T00:00:00Z</time>
				</trkpt>
				<trkpt lat="53.72114" lon="-0.90287">
					<ele>0</ele>
					<time>0001-01-01T00:00:00Z</time>
				</trkpt>
				<trkpt lat="53.72104" lon="-0.90297">
					<ele>0</ele>
					<time>0001-01-01T00:00:00Z</time>
				</trkpt>
				<trkpt lat="53.72003" lon="-0.90296">
					<ele>2</ele>
					<time>0001-01-01T00:00:00Z</time>
				</trkpt>
				<trkpt lat="53.71950" lon="-0.90288">
					<ele>3</ele>
					<time>0001-01-01T00:00:00Z</time>
				</trkpt>
				<trkpt lat="53.71795" lon="-0.90340">
					<ele>3</ele>
					<time>0001-01-01T00:00:00Z</time>
				</trkpt>
				<trkpt lat="53.71676" lon="-0.90459">
					<ele>1</ele>
					<time>0001-01-01T00:00:00Z</time>
				</trkpt>
				<trkpt lat="53.71597" lon="-0.90669">
					<ele>3</ele>
					<time>0001-01-01T00:00:00Z</time>
				</trkpt>
				<trkpt lat="53.71568" lon="-0.90802">
					<ele>0</ele>
					<time>0001-01-01T00:00:00Z</time>
				</trkpt>
				<trkpt lat="53.71486" lon="-0.90987">
					<ele>2</ele>
					<time>0001-01-01T00:00:00Z</time>
				</trkpt>
				<trkpt lat="53.71390" lon="-0.91189">
					<ele>1</ele>
					<time>0001-01-01T00:00:00Z</time>
				</trkpt>
				<trkpt lat="53.71343" lon="-0.91286">
					<ele>2</ele>
					<time>0001-01-01T00:00:00Z</time>
				</trkpt>
				<trkpt lat="53.71244" lon="-0.91354">
					<ele>2</ele>
					<time>0001-01-01T00:00:00Z</time>
				</trkpt>
				<trkpt lat="53.71118" lon="-0.91420">
					<ele>3</ele>
					<time>0001-01-01T00:00:00Z</time>
				</trkpt>
				<trkpt lat="53.71016" lon="-0.91467">
					<ele>3</ele>
					<time>0001-01-01T00:00:00Z</time>
				</trkpt>
				<trkpt lat="53.70900" lon="-0.91518">
					<ele>2</ele>
					<time>0001-01-01T00:00:00Z</time>
				</trkpt>
				<trkpt lat="53.70758" lon="-0.91544">
					<ele>0</ele>
					<time>0001-01-01T00:00:00Z</time>
				</trkpt>
				<trkpt lat="53.70647" lon="-0.91544">
					<ele>0</ele>
					<time>0001-01-01T00:00:00Z</time>
				</trkpt>
				<trkpt lat="53.70638" lon="-0.91543">
					<ele>0</ele>
					<time>0001-01-01T00:00:00Z</time>
				</trkpt>
				<trkpt lat="53.70627" lon="-0.91572">
					<ele>0</ele>
					<time>0001-01-01T00:00:00Z</time>
				</trkpt>
				<trkpt lat="53.70622" lon="-0.91751">
					<ele>1</ele>
					<time>0001-01-01T00:00:00Z</time>
				</trkpt>
				<trkpt lat="53.70666" lon="-0.91990">
					<ele>0</ele>
					<time>0001-01-01T00:00:00Z</time>
				</trkpt>
				<trkpt lat="53.70694" lon="-0.92209">
					<ele>0</ele>
					<time>0001-01-01T00:00:00Z</time>
				</trkpt>
				<trkpt lat="53.70705" lon="-0.92473">
					<ele>2</ele>
					<time>0001-01-01T00:00:00Z</time>
				</trkpt>
				<trkpt lat="53.70699" lon="-0.92716">
					<ele>3</ele>
					<time>0001-01-01T00:00:00Z</time>
				</trkpt>
				<trkpt lat="53.70663" lon="-0.93061">
					<ele>2</ele>
					<time>0001-01-01T00:00:00Z</time>
				</trkpt>
				<trkpt lat="53.70633" lon="-0.93334">
					<ele>3</ele>
					<time>0001-01-01T00:00:00Z</time>
				</trkpt>
				<trkpt lat="53.70623" lon="-0.93535">
					<ele>4</ele>
					<time>0001-01-01T00:00:00Z</time>
				</trkpt>
				<trkpt lat="53.70612" lon="-0.93584">
					<ele>5</ele>
					<time>0001-01-01T00:00:00Z</time>
				</trkpt>
				<trkpt lat="53.70555" lon="-0.93810">
					<ele>5</ele>
					<time>0001-01-01T00:00:00Z</time>
				</trkpt>
				<trkpt lat="53.70559" lon="-0.94043">
					<ele>3</ele>
					<time>0001-01-01T00:00:00Z</time>
				</trkpt>
				<trkpt lat="53.70559" lon="-0.94259">
					<ele>4</ele>
					<time>0001-01-01T00:00:00Z</time>
				</trkpt>
				<trkpt lat="53.70611" lon="-0.94395">
					<ele>3</ele>
					<time>0001-01-01T00:00:00Z</time>
				</trkpt>
				<trkpt lat="53.70687" lon="-0.94517">
					<ele>3</ele>
					<time>0001-01-01T00:00:00Z</time>
				</trkpt>
				<trkpt lat="53.70721" lon="-0.94684">
					<ele>4</ele>
					<time>0001-01-01T00:00:00Z</time>
				</trkpt>
				<trkpt lat="53.70736" lon="-0.94938">
					<ele>5</ele>
					<time>0001-01-01T00:00:00Z</time>
				</trkpt>
				<trkpt lat="53.70731" lon="-0.95079">
					<ele>6</ele>
					<time>0001-01-01T00:00:00Z</time>
				</trkpt>
				<trkpt lat="53.70690" lon="-0.95302">
					<ele>7</ele>
					<time>0001-01-01T00:00:00Z</time>
				</trkpt>
				<trkpt lat="53.70651" lon="-0.95535">
					<ele>6</ele>
					<time>0001-01-01T00:00:00Z</time>
				</trkpt>
				<trkpt lat="53.70567" lon="-0.95647">
					<ele>3</ele>
					<time>0001-01-01T00:00:00Z</time>
				</trkpt>
				<trkpt lat="53.70434" lon="-0.95750">
					<ele>3</ele>
					<time>0001-01-01T00:00:00Z</time>
				</trkpt>
				<trkpt lat="53.70303" lon="-0.95885">
					<ele>3</ele>
					<time>0001-01-01T00:00:00Z</time>
				</trkpt>
				<trkpt lat="53.70153" lon="-0.96036">
					<ele>3</ele>
					<time>0001-01-01T00:00:00Z</time>
				</trkpt>
				<trkpt lat="53.70012" lon="-0.96180">
					<ele>4</ele>
					<time>0001-01-01T00:00:00Z</time>
				</trkpt>
				<trkpt lat="53.69962" lon="-0.96231">
					<ele>5</ele>
					<time>0001-01-01T00:00:00Z</time>
				</trkpt>
				<trkpt lat="53.69954" lon="-0.96246">
					<ele>5</ele>
					<time>0001-01-01T00:00:00Z</time>
				</trkpt>
				<trkpt lat="53.69919" lon="-0.96328">
					<ele>9</ele>
					<time>0001-01-01T00:00:00Z</time>
				</trkpt>
				<trkpt lat="53.69910" lon="-0.96355">
					<ele>9</ele>
					<time>0001-01-01T00:00:00Z</time>
				</trkpt>
				<trkpt lat="53.69888" lon="-0.96364">
					<ele>7</ele>
					<time>0001-01-01T00:00:00Z</time>
				</trkpt>
				<trkpt lat="53.69860" lon="-0.96233">
					<ele>4</ele>
					<time>0001-01-01T00:00:00Z</time>
				</trkpt>
				<trkpt lat="53.69858" lon="-0.96225">
					<ele>4</ele>
					<time>0001-01-01T00:00:00Z</time>
				</trkpt>
				<trkpt lat="53.69840" lon="-0.96209">
					<ele>4</ele>
					<time>0001-01-01T00:00:00Z</time>
				</trkpt>
				<trkpt lat="53.69769" lon="-0.96176">
					<ele>4</ele>
					<time>0001-01-01T00:00:00Z</time>
				</trkpt>
				<trkpt lat="53.69755" lon="-0.96123">
					<ele>3</ele>
					<time>0001-01-01T00:00:00Z</time>
				</trkpt>
				<trkpt lat="53.69748" lon="-0.95956">
					<ele>3</ele>
					<time>0001-01-01T00:00:00Z</time>
				</trkpt>
				<trkpt lat="53.69700" lon="-0.95902">
					<ele>3</ele>
					<time>0001-01-01T00:00:00Z</time>
				</trkpt>
				<trkpt lat="53.69579" lon="-0.95903">
					<ele>7</ele>
					<time>0001-01-01T00:00:00Z</time>
				</trkpt>
				<trkpt lat="53.69441" lon="-0.95955">
					<ele>8</ele>
					<time>0001-01-01T00:00:00Z</time>
				</trkpt>
				<trkpt lat="53.69334" lon="-0.96009">
					<ele>6</ele>
					<time>0001-01-01T00:00:00Z</time>
				</trkpt>
				<trkpt lat="53.69173" lon="-0.96048">
					<ele>5</ele>
					<time>0001-01-01T00:00:00Z</time>
				</trkpt>
				<trkpt lat="53.69028" lon="-0.96081">
					<ele>4</ele>
					<time>0001-01-01T00:00:00Z</time>
				</trkpt>
				<trkpt lat="53.68947" lon="-0.96095">
					<ele>4</ele>
					<time>0001-01-01T00:00:00Z</time>
				</trkpt>
				<trkpt lat="53.68907" lon="-0.96063">
					<ele>6</ele>
					<time>0001-01-01T00:00:00Z</time>
				</trkpt>
				<trkpt lat="53.68892" lon="-0.96050">
					<ele>6</ele>
					<time>0001-01-01T00:00:00Z</time>
				</trkpt>
				<trkpt lat="53.68711" lon="-0.95848">
					<ele>6</ele>
					<time>0001-01-01T00:00:00Z</time>
				</trkpt>
				<trkpt lat="53.68639" lon="-0.95690">
					<ele>5</ele>
					<time>0001-01-01T00:00:00Z</time>
				</trkpt>
				<trkpt lat="53.68578" lon="-0.95489">
					<ele>3</ele>
					<time>0001-01-01T00:00:00Z</time>
				</trkpt>
				<trkpt lat="53.68541" lon="-0.95321">
					<ele>3</ele>
					<time>0001-01-01T00:00:00Z</time>
				</trkpt>
				<trkpt lat="53.68481" lon="-0.95069">
					<ele>3</ele>
					<time>0001-01-01T00:00:00Z</time>
				</trkpt>
				<trkpt lat="53.68416" lon="-0.94807">
					<ele>3</ele>
					<time>0001-01-01T00:00:00Z</time>
				</trkpt>
				<trkpt lat="53.68330" lon="-0.94527">
					<ele>3</ele>
					<time>0001-01-01T00:00:00Z</time>
				</trkpt>
				<trkpt lat="53.68253" lon="-0.94277">
					<ele>4</ele>
					<time>0001-01-01T00:00:00Z</time>
				</trkpt>
				<trkpt lat="53.68210" lon="-0.94145">
					<ele>7</ele>
					<time>0001-01-01T00:00:00Z</time>
				</trkpt>
				<trkpt lat="53.68198" lon="-0.94113">
					<ele>7</ele>
					<time>0001-01-01T00:00:00Z</time>
				</trkpt>
				<trkpt lat="53.68147" lon="-0.93994">
					<ele>3</ele>
					<time>0001-01-01T00:00:00Z</time>
				</trkpt>
				<trkpt lat="53.68136" lon="-0.93982">
					<ele>4</ele>
					<time>0001-01-01T00:00:00Z</time>
				</trkpt>
				<trkpt lat="53.68087" lon="-0.93945">
					<ele>4</ele>
					<time>0001-01-01T00:00:00Z</time>
				</trkpt>
				<trkpt lat="53.68047" lon="-0.93993">
					<ele>2</ele>
					<time>0001-01-01T00:00:00Z</time>
				</trkpt>
				<trkpt lat="53.67977" lon="-0.94292">
					<ele>3</ele>
					<time>0001-01-01T00:00:00Z</time>
				</trkpt>
				<trkpt lat="53.67941" lon="-0.94503">
					<ele>4</ele>
					<time>0001-01-01T00:00:00Z</time>
				</trkpt>
				<trkpt lat="53.67897" lon="-0.94735">
					<ele>3</ele>
					<time>0001-01-01T00:00:00Z</time>
				</trkpt>
				<trkpt lat="53.67866" lon="-0.95004">
					<ele>4</ele>
					<time>0001-01-01T00:00:00Z</time>
				</trkpt>
				<trkpt lat="53.67856" lon="-0.95077">
					<ele>4</ele>
					<time>0001-01-01T00:00:00Z</time>
				</trkpt>
				<trkpt lat="53.67828" lon="-0.95107">
					<ele>4</ele>
					<time>0001-01-01T00:00:00Z</time>
				</trkpt>
				<trkpt lat="53.67653" lon="-0.95165">
					<ele>5</ele>
					<time>0001-01-01T00:00:00Z</time>
				</trkpt>
				<trkpt lat="53.67457" lon="-0.95231">
					<ele>3</ele>
					<time>0001-01-01T00:00:00Z</time>
				</trkpt>
				<trkpt lat="53.67307" lon="-0.95281">
					<ele>2</ele>
					<time>0001-01-01T00:00:00Z</time>
				</trkpt>
				<trkpt lat="53.67178" lon="-0.95323">
					<ele>2</ele>
					<time>0001-01-01T00:00:00Z</time>
				</trkpt>
				<trkpt lat="53.67048" lon="-0.95365">
					<ele>1</ele>
					<time>0001-01-01T00:00:00Z</time>
				</trkpt>
				<trkpt lat="53.66902" lon="-0.95413">
					<ele>2</ele>
					<time>0001-01-01T00:00:00Z</time>
				</trkpt>
				<trkpt lat="53.66685" lon="-0.95485">
					<ele>3</ele>
					<time>0001-01-01T00:00:00Z</time>
				</trkpt>
				<trkpt lat="53.66489" lon="-0.95549">
					<ele>4</ele>
					<time>0001-01-01T00:00:00Z</time>
				</trkpt>
				<trkpt lat="53.66306" lon="-0.95609">
					<ele>4</ele>
					<time>0001-01-01T00:00:00Z</time>
				</trkpt>
				<trkpt lat="53.66094" lon="-0.95680">
					<ele>4</ele>
					<time>0001-01-01T00:00:00Z</time>
				</trkpt>
				<trkpt lat="53.65969" lon="-0.95712">
					<ele>4</ele>
					<time>0001-01-01T00:00:00Z</time>
				</trkpt>
				<trkpt lat="53.65815" lon="-0.95741">
					<ele>4</ele>
					<time>0001-01-01T00:00:00Z</time>
				</trkpt>
				<trkpt lat="53.65672" lon="-0.95808">
					<ele>4</ele>
					<time>0001-01-01T00:00:00Z</time>
				</trkpt>
				<trkpt lat="53.65509" lon="-0.95804">
					<ele>5</ele>
					<time>0001-01-01T00:00:00Z</time>
				</trkpt>
				<trkpt lat="53.65356" lon="-0.95793">
					<ele>6</ele>
					<time>0001-01-01T00:00:00Z</time>
				</trkpt>
				<trkpt lat="53.65176" lon="-0.95785">
					<ele>5</ele>
					<time>0001-01-01T00:00:00Z</time>
				</trkpt>
				<trkpt lat="53.65018" lon="-0.95762">
					<ele>6</ele>
					<time>0001-01-01T00:00:00Z</time>
				</trkpt>
				<trkpt lat="53.64880" lon="-0.95734">
					<ele>6</ele>
					<time>0001-01-01T00:00:00Z</time>
				</trkpt>
				<trkpt lat="53.64706" lon="-0.95672">
					<ele>7</ele>
					<time>0001-01-01T00:00:00Z</time>
				</trkpt>
				<trkpt lat="53.64539" lon="-0.95611">
					<ele>8</ele>
					<time>0001-01-01T00:00:00Z</time>
				</trkpt>
				<trkpt lat="53.64333" lon="-0.95536">
					<ele>11</ele>
					<time>0001-01-01T00:00:00Z</time>
				</trkpt>
				<trkpt lat="53.64152" lon="-0.95470">
					<ele>11</ele>
					<time>0001-01-01T00:00:00Z</time>
				</trkpt>
				<trkpt lat="53.64063" lon="-0.95437">
					<ele>11</ele>
					<time>0001-01-01T00:00:00Z</time>
				</trkpt>
				<trkpt lat="53.63892" lon="-0.95375">
					<ele>7</ele>
					<time>0001-01-01T00:00:00Z</time>
				</trkpt>
				<trkpt lat="53.63717" lon="-0.95309">
					<ele>7</ele>
					<time>0001-01-01T00:00:00Z</time>
				</trkpt>
				<trkpt lat="53.63620" lon="-0.95272">
					<ele>8</ele>
					<time>0001-01-01T00:00:00Z</time>
				</trkpt>
				<trkpt lat="53.63447" lon="-0.95211">
					<ele>6</ele>
					<time>0001-01-01T00:00:00Z</time>
				</trkpt>
				<trkpt lat="53.63256" lon="-0.95149">
					<ele>8</ele>
					<time>0001-01-01T00:00:00Z</time>
				</trkpt>
				<trkpt lat="53.63048" lon="-0.95132">
					<ele>7</ele>
					<time>0001-01-01T00:00:00Z</time>
				</trkpt>
				<trkpt lat="53.62875" lon="-0.95152">
					<ele>7</ele>
					<time>0001-01-01T00:00:00Z</time>
				</trkpt>
				<trkpt lat="53.62704" lon="-0.95176">
					<ele>4</ele>
					<time>0001-01-01T00:00:00Z</time>
				</trkpt>
				<trkpt lat="53.62525" lon="-0.95205">
					<ele>6</ele>
					<time>0001-01-01T00:00:00Z</time>
				</trkpt>
				<trkpt lat="53.62347" lon="-0.95232">
					<ele>6</ele>
					<time>0001-01-01T00:00:00Z</time>
				</trkpt>
				<trkpt lat="53.62185" lon="-0.95257">
					<ele>7</ele>
					<time>0001-01-01T00:00:00Z</time>
				</trkpt>
				<trkpt lat="53.62070" lon="-0.95321">
					<ele>8</ele>
					<time>0001-01-01T00:00:00Z</time>
				</trkpt>
				<trkpt lat="53.62013" lon="-0.95410">
					<ele>7</ele>
					<time>0001-01-01T00:00:00Z</time>
				</trkpt>
				<trkpt lat="53.61960" lon="-0.95495">
					<ele>7</ele>
					<time>0001-01-01T00:00:00Z</time>
				</trkpt>
				<trkpt lat="53.61941" lon="-0.95526">
					<ele>7</ele>
					<time>0001-01-01T00:00:00Z</time>
				</trkpt>
				<trkpt lat="53.61877" lon="-0.95622">
					<ele>6</ele>
					<time>0001-01-01T00:00:00Z</time>
				</trkpt>
				<trkpt lat="53.61871" lon="-0.95632">
					<ele>5</ele>
					<time>0001-01-01T00:00:00Z</time>
				</trkpt>
				<trkpt lat="53.61871" lon="-0.95633">
					<ele>7</ele>
					<time>0001-01-01T00:00:00Z</time>
				</trkpt>
				<trkpt lat="53.61875" lon="-0.95636">
					<ele>7</ele>
					<time>0001-01-01T00:00:00Z</time>
				</trkpt>
				<trkpt lat="53.61921" lon="-0.95565">
					<ele>6</ele>
					<time>0001-01-01T00:00:00Z</time>
				</trkpt>
				<trkpt lat="53.61984" lon="-0.95461">
					<ele>6</ele>
					<time>0001-01-01T00:00:00Z</time>
				</trkpt>
				<trkpt lat="53.62070" lon="-0.95325">
					<ele>4</ele>
					<time>0001-01-01T00:00:00Z</time>
				</trkpt>
				<trkpt lat="53.62091" lon="-0.95298">
					<ele>4</ele>
					<time>0001-01-01T00:00:00Z</time>
				</trkpt>
				<trkpt lat="53.62081" lon="-0.95261">
					<ele>4</ele>
					<time>0001-01-01T00:00:00Z</time>
				</trkpt>
				<trkpt lat="53.61980" lon="-0.95223">
					<ele>5</ele>
					<time>0001-01-01T00:00:00Z</time>
				</trkpt>
				<trkpt lat="53.61871" lon="-0.95184">
					<ele>5</ele>
					<time>0001-01-01T00:00:00Z</time>
				</trkpt>
				<trkpt lat="53.61752" lon="-0.95142">
					<ele>5</ele>
					<time>0001-01-01T00:00:00Z</time>
				</trkpt>
				<trkpt lat="53.61606" lon="-0.95090">
					<ele>5</ele>
					<time>0001-01-01T00:00:00Z</time>
				</trkpt>
				<trkpt lat="53.61534" lon="-0.95065">
					<ele>5</ele>
					<time>0001-01-01T00:00:00Z</time>
				</trkpt>
				<trkpt lat="53.61467" lon="-0.95043">
					<ele>4</ele>
					<time>0001-01-01T00:00:00Z</time>
				</trkpt>
				<trkpt lat="53.61368" lon="-0.95009">
					<ele>4</ele>
					<time>0001-01-01T00:00:00Z</time>
				</trkpt>
				<trkpt lat="53.61337" lon="-0.95000">
					<ele>4</ele>
					<time>0001-01-01T00:00:00Z</time>
				</trkpt>
				<trkpt lat="53.61336" lon="-0.95016">
					<ele>4</ele>
					<time>0001-01-01T00:00:00Z</time>
				</trkpt>
				<trkpt lat="53.61312" lon="-0.95113">
					<ele>4</ele>
					<time>0001-01-01T00:00:00Z</time>
				</trkpt>
				<trkpt lat="53.61335" lon="-0.95146">
					<ele>3</ele>
					<time>0001-01-01T00:00:00Z</time>
				</trkpt>
				<trkpt lat="53.61379" lon="-0.95173">
					<ele>4</ele>
					<time>0001-01-01T00:00:00Z</time>
				</trkpt>
				<trkpt lat="53.61382" lon="-0.95166">
					<ele>4</ele>
					<time>0001-01-01T00:00:00Z</time>
				</trkpt>
				<trkpt lat="53.61383" lon="-0.95161">
					<ele>4</ele>
					<time>0001-01-01T00:00:00Z</time>
				</trkpt>
				<trkpt lat="53.61408" lon="-0.95173">
					<ele>0</ele>
					<time>0001-01-01T00:00:00Z</time>
				</trkpt>
				<trkpt lat="53.61409" lon="-0.95173">
					<ele>0</ele>
					<time>0001-01-01T00:00:00Z</time>
				</trkpt>
				<trkpt lat="53.61406" lon="-0.95168">
					<ele>5</ele>
					<time>0001-01-01T00:00:00Z</time>
				</trkpt>
				<trkpt lat="53.61408" lon="-0.95170">
					<ele>6</ele>
					<time>0001-01-01T00:00:00Z</time>
				</trkpt>
				<trkpt lat="53.61407" lon="-0.95174">
					<ele>10</ele>
					<time>0001-01-01T00:00:00Z</time>
				</trkpt>
				<trkpt lat="53.61408" lon="-0.95179">
					<ele>8</ele>
					<time>0001-01-01T00:00:00Z</time>
				</trkpt>
				<trkpt lat="53.61405" lon="-0.95173">
					<ele>5</ele>
					<time>0001-01-01T00:00:00Z</time>
				</trkpt>
				<trkpt lat="53.61388" lon="-0.95164">
					<ele>5</ele>
					<time>0001-01-01T00:00:00Z</time>
				</trkpt>
				<trkpt lat="53.61379" lon="-0.95177">
					<ele>5</ele>
					<time>0001-01-01T00:00:00Z</time>
				</trkpt>
				<trkpt lat="53.61379" lon="-0.95175">
					<ele>7</ele>
					<time>0001-01-01T00:00:00Z</time>
				</trkpt>
				<trkpt lat="53.61348" lon="-0.95158">
					<ele>8</ele>
					<time>0001-01-01T00:00:00Z</time>
				</trkpt>
				<trkpt lat="53.61324" lon="-0.95145">
					<ele>6</ele>
					<time>0001-01-01T00:00:00Z</time>
				</trkpt>
				<trkpt lat="53.61309" lon="-0.95139">
					<ele>4</ele>
					<time>0001-01-01T00:00:00Z</time>
				</trkpt>
				<trkpt lat="53.61318" lon="-0.95090">
					<ele>5</ele>
					<time>0001-01-01T00:00:00Z</time>
				</trkpt>
				<trkpt lat="53.61330" lon="-0.95032">
					<ele>6</ele>
					<time>0001-01-01T00:00:00Z</time>
				</trkpt>
				<trkpt lat="53.61339" lon="-0.94983">
					<ele>6</ele>
					<time>0001-01-01T00:00:00Z</time>
				</trkpt>
				<trkpt lat="53.61348" lon="-0.94937">
					<ele>6</ele>
					<time>0001-01-01T00:00:00Z</time>
				</trkpt>
				<trkpt lat="53.61382" lon="-0.94780">
					<ele>7</ele>
					<time>0001-01-01T00:00:00Z</time>
				</trkpt>
				<trkpt lat="53.61397" lon="-0.94716">
					<ele>7</ele>
					<time>0001-01-01T00:00:00Z</time>
				</trkpt>
				<trkpt lat="53.61385" lon="-0.94654">
					<ele>6</ele>
					<time>0001-01-01T00:00:00Z</time>
				</trkpt>
				<trkpt lat="53.61362" lon="-0.94616">
					<ele>5</ele>
					<time>0001-01-01T00:00:00Z</time>
				</trkpt>
				<trkpt lat="53.61347" lon="-0.94577">
					<ele>5</ele>
					<time>0001-01-01T00:00:00Z</time>
				</trkpt>
				<trkpt lat="53.61331" lon="-0.94540">
					<ele>5</ele>
					<time>0001-01-01T00:00:00Z</time>
				</trkpt>
				<trkpt lat="53.61206" lon="-0.94429">
					<ele>4</ele>
					<time>0001-01-01T00:00:00Z</time>
				</trkpt>
				<trkpt lat="53.61104" lon="-0.94334">
					<ele>3</ele>
					<time>0001-01-01T00:00:00Z</time>
				</trkpt>
				<trkpt lat="53.60999" lon="-0.94232">
					<ele>3</ele>
					<time>0001-01-01T00:00:00Z</time>
				</trkpt>
				<trkpt lat="53.60848" lon="-0.94089">
					<ele>5</ele>
					<time>0001-01-01T00:00:00Z</time>
				</trkpt>
				<trkpt lat="53.60726" lon="-0.93993">
					<ele>5</ele>
					<time>0001-01-01T00:00:00Z</time>
				</trkpt>
				<trkpt lat="53.60661" lon="-0.93936">
					<ele>4</ele>
					<time>0001-01-01T00:00:00Z</time>
				</trkpt>
				<trkpt lat="53.60543" lon="-0.93744">
					<ele>3</ele>
					<time>0001-01-01T00:00:00Z</time>
				</trkpt>
				<trkpt lat="53.60403" lon="-0.93507">
					<ele>4</ele>
					<time>0001-01-01T00:00:00Z</time>
				</trkpt>
				<trkpt lat="53.60356" lon="-0.93427">
					<ele>5</ele>
					<time>0001-01-01T00:00:00Z</time>
				</trkpt>
				<trkpt lat="53.60265" lon="-0.93272">
					<ele>5</ele>
					<time>0001-01-01T00:00:00Z</time>
				</trkpt>
				<trkpt lat="53.60157" lon="-0.93043">
					<ele>4</ele>
					<time>0001-01-01T00:00:00Z</time>
				</trkpt>
				<trkpt lat="53.60088" lon="-0.92848">
					<ele>3</ele>
					<time>0001-01-01T00:00:00Z</time>
				</trkpt>
				<trkpt lat="53.60042" lon="-0.92663">
					<ele>3</ele>
					<time>0001-01-01T00:00:00Z</time>
				</trkpt>
				<trkpt lat="53.60022" lon="-0.92530">
					<ele>3</ele>
					<time>0001-01-01T00:00:00Z</time>
				</trkpt>
				<trkpt lat="53.60022" lon="-0.92496">
					<ele>3</ele>
					<time>0001-01-01T00:00:00Z</time>
				</trkpt>
				<trkpt lat="53.60050" lon="-0.92338">
					<ele>4</ele>
					<time>0001-01-01T00:00:00Z</time>
				</trkpt>
				<trkpt lat="53.60092" lon="-0.92127">
					<ele>5</ele>
					<time>0001-01-01T00:00:00Z</time>
				</trkpt>
				<trkpt lat="53.60152" lon="-0.91819">
					<ele>6</ele>
					<time>0001-01-01T00:00:00Z</time>
				</trkpt>
				<trkpt lat="53.60185" lon="-0.91652">
					<ele>5</ele>
					<time>0001-01-01T00:00:00Z</time>
				</trkpt>
				<trkpt lat="53.60171" lon="-0.91639">
					<ele>5</ele>
					<time>0001-01-01T00:00:00Z</time>
				</trkpt>
				<trkpt lat="53.60120" lon="-0.91611">
					<ele>4</ele>
					<time>0001-01-01T00:00:00Z</time>
				</trkpt>
				<trkpt lat="53.60115" lon="-0.91607">
					<ele>4</ele>
					<time>0001-01-01T00:00:00Z</time>
				</trkpt>
				<trkpt lat="53.60080" lon="-0.91566">
					<ele>4</ele>
					<time>0001-01-01T00:00:00Z</time>
				</trkpt>
				<trkpt lat="53.60050" lon="-0.91560">
					<ele>4</ele>
					<time>0001-01-01T00:00:00Z</time>
				</trkpt>
				<trkpt lat="53.59884" lon="-0.91621">
					<ele>3</ele>
					<time>0001-01-01T00:00:00Z</time>
				</trkpt>
				<trkpt lat="53.59737" lon="-0.91676">
					<ele>3</ele>
					<time>0001-01-01T00:00:00Z</time>
				</trkpt>
				<trkpt lat="53.59582" lon="-0.91735">
					<ele>3</ele>
					<time>0001-01-01T00:00:00Z</time>
				</trkpt>
				<trkpt lat="53.59427" lon="-0.91794">
					<ele>4</ele>
					<time>0001-01-01T00:00:00Z</time>
				</trkpt>
				<trkpt lat="53.59241" lon="-0.91865">
					<ele>4</ele>
					<time>0001-01-01T00:00:00Z</time>
				</trkpt>
				<trkpt lat="53.59082" lon="-0.91926">
					<ele>3</ele>
					<time>0001-01-01T00:00:00Z</time>
				</trkpt>
				<trkpt lat="53.58966" lon="-0.91970">
					<ele>3</ele>
					<time>0001-01-01T00:00:00Z</time>
				</trkpt>
				<trkpt lat="53.58834" lon="-0.92020">
					<ele>3</ele>
					<time>0001-01-01T00:00:00Z</time>
				</trkpt>
				<trkpt lat="53.58807" lon="-0.92023">
					<ele>3</ele>
					<time>0001-01-01T00:00:00Z</time>
				</trkpt>
				<trkpt lat="53.58779" lon="-0.91915">
					<ele>3</ele>
					<time>0001-01-01T00:00:00Z</time>
				</trkpt>
				<trkpt lat="53.58761" lon="-0.91825">
					<ele>5</ele>
					<time>0001-01-01T00:00:00Z</time>
				</trkpt>
				<trkpt lat="53.58757" lon="-0.91815">
					<ele>5</ele>
					<time>0001-01-01T00:00:00Z</time>
				</trkpt>
				<trkpt lat="53.58734" lon="-0.91817">
					<ele>5</ele>
					<time>0001-01-01T00:00:00Z</time>
				</trkpt>
				<trkpt lat="53.58671" lon="-0.91837">
					<ele>5</ele>
					<time>0001-01-01T00:00:00Z</time>
				</trkpt>
				<trkpt lat="53.58539" lon="-0.91882">
					<ele>4</ele>
					<time>0001-01-01T00:00:00Z</time>
				</trkpt>
				<trkpt lat="53.58356" lon="-0.91945">
					<ele>4</ele>
					<time>0001-01-01T00:00:00Z</time>
				</trkpt>
				<trkpt lat="53.58151" lon="-0.92013">
					<ele>4</ele>
					<time>0001-01-01T00:00:00Z</time>
				</trkpt>
				<trkpt lat="53.57962" lon="-0.92074">
					<ele>2</ele>
					<time>0001-01-01T00:00:00Z</time>
				</trkpt>
				<trkpt lat="53.57775" lon="-0.92139">
					<ele>1</ele>
					<time>0001-01-01T00:00:00Z</time>
				</trkpt>
				<trkpt lat="53.57672" lon="-0.92173">
					<ele>6</ele>
					<time>0001-01-01T00:00:00Z</time>
				</trkpt>
				<trkpt lat="53.57571" lon="-0.92208">
					<ele>8</ele>
					<time>0001-01-01T00:00:00Z</time>
				</trkpt>
				<trkpt lat="53.57452" lon="-0.92250">
					<ele>4</ele>
					<time>0001-01-01T00:00:00Z</time>
				</trkpt>
				<trkpt lat="53.57347" lon="-0.92287">
					<ele>3</ele>
					<time>0001-01-01T00:00:00Z</time>
				</trkpt>
				<trkpt lat="53.57342" lon="-0.92289">
					<ele>3</ele>
					<time>0001-01-01T00:00:00Z</time>
				</trkpt>
				<trkpt lat="53.57326" lon="-0.92261">
					<ele>3</ele>
					<time>0001-01-01T00:00:00Z</time>
				</trkpt>
				<trkpt lat="53.57280" lon="-0.92042">
					<ele>2</ele>
					<time>0001-01-01T00:00:00Z</time>
				</trkpt>
				<trkpt lat="53.57220" lon="-0.91759">
					<ele>2</ele>
					<time>0001-01-01T00:00:00Z</time>
				</trkpt>
				<trkpt lat="53.57157" lon="-0.91466">
					<ele>3</ele>
					<time>0001-01-01T00:00:00Z</time>
				</trkpt>
				<trkpt lat="53.57099" lon="-0.91195">
					<ele>2</ele>
					<time>0001-01-01T00:00:00Z</time>
				</trkpt>
				<trkpt lat="53.57049" lon="-0.90956">
					<ele>3</ele>
					<time>0001-01-01T00:00:00Z</time>
				</trkpt>
				<trkpt lat="53.56995" lon="-0.90689">
					<ele>5</ele>
					<time>0001-01-01T00:00:00Z</time>
				</trkpt>
				<trkpt lat="53.56937" lon="-0.90429">
					<ele>4</ele>
					<time>0001-01-01T00:00:00Z</time>
				</trkpt>
				<trkpt lat="53.56869" lon="-0.90120">
					<ele>7</ele>
					<time>0001-01-01T00:00:00Z</time>
				</trkpt>
				<trkpt lat="53.56812" lon="-0.89849">
					<ele>6</ele>
					<time>0001-01-01T00:00:00Z</time>
				</trkpt>
				<trkpt lat="53.56759" lon="-0.89603">
					<ele>4</ele>
					<time>0001-01-01T00:00:00Z</time>
				</trkpt>
				<trkpt lat="53.56717" lon="-0.89410">
					<ele>4</ele>
					<time>0001-01-01T00:00:00Z</time>
				</trkpt>
				<trkpt lat="53.56681" lon="-0.89243">
					<ele>4</ele>
					<time>0001-01-01T00:00:00Z</time>
				</trkpt>
				<trkpt lat="53.56650" lon="-0.89099">
					<ele>4</ele>
					<time>0001-01-01T00:00:00Z</time>
				</trkpt>
				<trkpt lat="53.56638" lon="-0.88888">
					<ele>3</ele>
					<time>0001-01-01T00:00:00Z</time>
				</trkpt>
				<trkpt lat="53.56646" lon="-0.88637">
					<ele>3</ele>
					<time>0001-01-01T00:00:00Z</time>
				</trkpt>
				<trkpt lat="53.56606" lon="-0.88466">
					<ele>3</ele>
					<time>0001-01-01T00:00:00Z</time>
				</trkpt>
				<trkpt lat="53.56492" lon="-0.88306">
					<ele>3</ele>
					<time>0001-01-01T00:00:00Z</time>
				</trkpt>
				<trkpt lat="53.56450" lon="-0.88151">
					<ele>3</ele>
					<time>0001-01-01T00:00:00Z</time>
				</trkpt>
				<trkpt lat="53.56424" lon="-0.88038">
					<ele>4</ele>
					<time>0001-01-01T00:00:00Z</time>
				</trkpt>
				<trkpt lat="53.56418" lon="-0.88007">
					<ele>3</ele>
					<time>0001-01-01T00:00:00Z</time>
				</trkpt>
				<trkpt lat="53.56419" lon="-0.88002">
					<ele>6</ele>
					<time>0001-01-01T00:00:00Z</time>
				</trkpt>
				<trkpt lat="53.56417" lon="-0.88000">
					<ele>7</ele>
					<time>0001-01-01T00:00:00Z</time>
				</trkpt>
				<trkpt lat="53.56412" lon="-0.88042">
					<ele>-40</ele>
					<time>0001-01-01T00:00:00Z</time>
				</trkpt>
				<trkpt lat="53.56413" lon="-0.88018">
					<ele>-17</ele>
					<time>0001-01-01T00:00:00Z</time>
				</trkpt>
				<trkpt lat="53.56397" lon="-0.87946">
					<ele>-9</ele>
					<time>0001-01-01T00:00:00Z</time>
				</trkpt>
				<trkpt lat="53.56391" lon="-0.87913">
					<ele>-6</ele>
					<time>0001-01-01T00:00:00Z</time>
				</trkpt>
				<trkpt lat="53.56382" lon="-0.87902">
					<ele>-5</ele>
					<time>0001-01-01T00:00:00Z</time>
				</trkpt>
				<trkpt lat="53.56359" lon="-0.87922">
					<ele>-2</ele>
					<time>0001-01-01T00:00:00Z</time>
				</trkpt>
				<trkpt lat="53.56355" lon="-0.87924">
					<ele>-2</ele>
					<time>0001-01-01T00:00:00Z</time>
				</trkpt>
				<trkpt lat="53.56257" lon="-0.87958">
					<ele>0</ele>
					<time>0001-01-01T00:00:00Z</time>
				</trkpt>
				<trkpt lat="53.56099" lon="-0.88012">
					<ele>4</ele>
					<time>0001-01-01T00:00:00Z</time>
				</trkpt>
				<trkpt lat="53.55931" lon="-0.88070">
					<ele>6</ele>
					<time>0001-01-01T00:00:00Z</time>
				</trkpt>
				<trkpt lat="53.55742" lon="-0.88136">
					<ele>5</ele>
					<time>0001-01-01T00:00:00Z</time>
				</trkpt>
				<trkpt lat="53.55581" lon="-0.88198">
					<ele>4</ele>
					<time>0001-01-01T00:00:00Z</time>
				</trkpt>
				<trkpt lat="53.55388" lon="-0.88254">
					<ele>3</ele>
					<time>0001-01-01T00:00:00Z</time>
				</trkpt>
				<trkpt lat="53.55221" lon="-0.88317">
					<ele>3</ele>
					<time>0001-01-01T00:00:00Z</time>
				</trkpt>
				<trkpt lat="53.55044" lon="-0.88380">
					<ele>3</ele>
					<time>0001-01-01T00:00:00Z</time>
				</trkpt>
				<trkpt lat="53.54891" lon="-0.88433">
					<ele>3</ele>
					<time>0001-01-01T00:00:00Z</time>
				</trkpt>
				<trkpt lat="53.54708" lon="-0.88498">
					<ele>5</ele>
					<time>0001-01-01T00:00:00Z</time>
				</trkpt>
				<trkpt lat="53.54535" lon="-0.88560">
					<ele>4</ele>
					<time>0001-01-01T00:00:00Z</time>
				</trkpt>
				<trkpt lat="53.54337" lon="-0.88628">
					<ele>3</ele>
					<time>0001-01-01T00:00:00Z</time>
				</trkpt>
				<trkpt lat="53.54191" lon="-0.88678">
					<ele>3</ele>
					<time>0001-01-01T00:00:00Z</time>
				</trkpt>
				<trkpt lat="53.54046" lon="-0.88730">
					<ele>3</ele>
					<time>0001-01-01T00:00:00Z</time>
				</trkpt>
				<trkpt lat="53.53899" lon="-0.88782">
					<ele>3</ele>
					<time>0001-01-01T00:00:00Z</time>
				</trkpt>
				<trkpt lat="53.53717" lon="-0.88845">
					<ele>3</ele>
					<time>0001-01-01T00:00:00Z</time>
				</trkpt>
				<trkpt lat="53.53552" lon="-0.88902">
					<ele>3</ele>
					<time>0001-01-01T00:00:00Z</time>
				</trkpt>
				<trkpt lat="53.53418" lon="-0.88947">
					<ele>3</ele>
					<time>0001-01-01T00:00:00Z</time>
				</trkpt>
				<trkpt lat="53.53264" lon="-0.89002">
					<ele>3</ele>
					<time>0001-01-01T00:00:00Z</time>
				</trkpt>
				<trkpt lat="53.53115" lon="-0.89054">
					<ele>3</ele>
					<time>0001-01-01T00:00:00Z</time>
				</trkpt>
				<trkpt lat="53.52961" lon="-0.89109">
					<ele>3</ele>
					<time>0001-01-01T00:00:00Z</time>
				</trkpt>
				<trkpt lat="53.52855" lon="-0.89147">
					<ele>3</ele>
					<time>0001-01-01T00:00:00Z</time>
				</trkpt>
				<trkpt lat="53.52753" lon="-0.89184">
					<ele>3</ele>
					<time>0001-01-01T00:00:00Z</time>
				</trkpt>
				<trkpt lat="53.52603" lon="-0.89236">
					<ele>3</ele>
					<time>0001-01-01T00:00:00Z</time>
				</trkpt>
				<trkpt lat="53.52436" lon="-0.89297">
					<ele>4</ele>
					<time>0001-01-01T00:00:00Z</time>
				</trkpt>
				<trkpt lat="53.52319" lon="-0.89337">
					<ele>3</ele>
					<time>0001-01-01T00:00:00Z</time>
				</trkpt>
				<trkpt lat="53.52149" lon="-0.89397">
					<ele>3</ele>
					<time>0001-01-01T00:00:00Z</time>
				</trkpt>
				<trkpt lat="53.51999" lon="-0.89451">
					<ele>3</ele>
					<time>0001-01-01T00:00:00Z</time>
				</trkpt>
				<trkpt lat="53.51874" lon="-0.89494">
					<ele>3</ele>
					<time>0001-01-01T00:00:00Z</time>
				</trkpt>
				<trkpt lat="53.51753" lon="-0.89536">
					<ele>2</ele>
					<time>0001-01-01T00:00:00Z</time>
				</trkpt>
				<trkpt lat="53.51602" lon="-0.89590">
					<ele>2</ele>
					<time>0001-01-01T00:00:00Z</time>
				</trkpt>
				<trkpt lat="53.51479" lon="-0.89634">
					<ele>2</ele>
					<time>0001-01-01T00:00:00Z</time>
				</trkpt>
				<trkpt lat="53.51327" lon="-0.89688">
					<ele>2</ele>
					<time>0001-01-01T00:00:00Z</time>
				</trkpt>
				<trkpt lat="53.51217" lon="-0.89727">
					<ele>2</ele>
					<time>0001-01-01T00:00:00Z</time>
				</trkpt>
				<trkpt lat="53.51062" lon="-0.89782">
					<ele>3</ele>
					<time>0001-01-01T00:00:00Z</time>
				</trkpt>
				<trkpt lat="53.50907" lon="-0.89839">
					<ele>3</ele>
					<time>0001-01-01T00:00:00Z</time>
				</trkpt>
				<trkpt lat="53.50744" lon="-0.89893">
					<ele>3</ele>
					<time>0001-01-01T00:00:00Z</time>
				</trkpt>
				<trkpt lat="53.50715" lon="-0.89904">
					<ele>2</ele>
					<time>0001-01-01T00:00:00Z</time>
				</trkpt>
				<trkpt lat="53.50585" lon="-0.89949">
					<ele>3</ele>
					<time>0001-01-01T00:00:00Z</time>
				</trkpt>
				<trkpt lat="53.50435" lon="-0.90002">
					<ele>3</ele>
					<time>0001-01-01T00:00:00Z</time>
				</trkpt>
				<trkpt lat="53.50302" lon="-0.90051">
					<ele>4</ele>
					<time>0001-01-01T00:00:00Z</time>
				</trkpt>
				<trkpt lat="53.50168" lon="-0.90101">
					<ele>3</ele>
					<time>0001-01-01T00:00:00Z</time>
				</trkpt>
				<trkpt lat="53.50009" lon="-0.90157">
					<ele>4</ele>
					<time>0001-01-01T00:00:00Z</time>
				</trkpt>
				<trkpt lat="53.49875" lon="-0.90205">
					<ele>3</ele>
					<time>0001-01-01T00:00:00Z</time>
				</trkpt>
				<trkpt lat="53.49746" lon="-0.90250">
					<ele>3</ele>
					<time>0001-01-01T00:00:00Z</time>
				</trkpt>
				<trkpt lat="53.49603" lon="-0.90299">
					<ele>3</ele>
					<time>0001-01-01T00:00:00Z</time>
				</trkpt>
				<trkpt lat="53.49475" lon="-0.90343">
					<ele>3</ele>
					<time>0001-01-01T00:00:00Z</time>
				</trkpt>
				<trkpt lat="53.49337" lon="-0.90394">
					<ele>4</ele>
					<time>0001-01-01T00:00:00Z</time>
				</trkpt>
				<trkpt lat="53.49195" lon="-0.90445">
					<ele>3</ele>
					<time>0001-01-01T00:00:00Z</time>
				</trkpt>
				<trkpt lat="53.49100" lon="-0.90478">
					<ele>3</ele>
					<time>0001-01-01T00:00:00Z</time>
				</trkpt>
				<trkpt lat="53.48975" lon="-0.90523">
					<ele>3</ele>
					<time>0001-01-01T00:00:00Z</time>
				</trkpt>
				<trkpt lat="53.48864" lon="-0.90562">
					<ele>3</ele>
					<time>0001-01-01T00:00:00Z</time>
				</trkpt>
				<trkpt lat="53.48702" lon="-0.90620">
					<ele>3</ele>
					<time>0001-01-01T00:00:00Z</time>
				</trkpt>
				<trkpt lat="53.48554" lon="-0.90673">
					<ele>3</ele>
					<time>0001-01-01T00:00:00Z</time>
				</trkpt>
				<trkpt lat="53.48517" lon="-0.90683">
					<ele>3</ele>
					<time>0001-01-01T00:00:00Z</time>
				</trkpt>
				<trkpt lat="53.48499" lon="-0.90690">
					<ele>3</ele>
					<time>0001-01-01T00:00:00Z</time>
				</trkpt>
				<trkpt lat="53.48429" lon="-0.90716">
					<ele>3</ele>
					<time>0001-01-01T00:00:00Z</time>
				</trkpt>
				<trkpt lat="53.48301" lon="-0.90762">
					<ele>3</ele>
					<time>0001-01-01T00:00:00Z</time>
				</trkpt>
				<trkpt lat="53.48176" lon="-0.90806">
					<ele>3</ele>
					<time>0001-01-01T00:00:00Z</time>
				</trkpt>
				<trkpt lat="53.48039" lon="-0.90856">
					<ele>4</ele>
					<time>0001-01-01T00:00:00Z</time>
				</trkpt>
				<trkpt lat="53.47962" lon="-0.90878">
					<ele>6</ele>
					<time>0001-01-01T00:00:00Z</time>
				</trkpt>
				<trkpt lat="53.47881" lon="-0.90910">
					<ele>4</ele>
					<time>0001-01-01T00:00:00Z</time>
				</trkpt>
				<trkpt lat="53.47726" lon="-0.90966">
					<ele>3</ele>
					<time>0001-01-01T00:00:00Z</time>
				</trkpt>
				<trkpt lat="53.47549" lon="-0.91027">
					<ele>0</ele>
					<time>0001-01-01T00:00:00Z</time>
				</trkpt>
				<trkpt lat="53.47375" lon="-0.91087">
					<ele>-5</ele>
					<time>0001-01-01T00:00:00Z</time>
				</trkpt>
				<trkpt lat="53.47191" lon="-0.91153">
					<ele>-6</ele>
					<time>0001-01-01T00:00:00Z</time>
				</trkpt>
				<trkpt lat="53.47144" lon="-0.91170">
					<ele>-5</ele>
					<time>0001-01-01T00:00:00Z</time>
				</trkpt>
				<trkpt lat="53.47123" lon="-0.91136">
					<ele>-3</ele>
					<time>0001-01-01T00:00:00Z</time>
				</trkpt>
				<trkpt lat="53.47095" lon="-0.90904">
					<ele>-1</ele>
					<time>0001-01-01T00:00:00Z</time>
				</trkpt>
				<trkpt lat="53.47060" lon="-0.90611">
					<ele>-1</ele>
					<time>0001-01-01T00:00:00Z</time>
				</trkpt>
				<trkpt lat="53.47021" lon="-0.90298">
					<ele>0</ele>
					<time>0001-01-01T00:00:00Z</time>
				</trkpt>
				<trkpt lat="53.46980" lon="-0.89965">
					<ele>0</ele>
					<time>0001-01-01T00:00:00Z</time>
				</trkpt>
				<trkpt lat="53.46945" lon="-0.89681">
					<ele>0</ele>
					<time>0001-01-01T00:00:00Z</time>
				</trkpt>
				<trkpt lat="53.46913" lon="-0.89419">
					<ele>2</ele>
					<time>0001-01-01T00:00:00Z</time>
				</trkpt>
				<trkpt lat="53.46874" lon="-0.89123">
					<ele>3</ele>
					<time>0001-01-01T00:00:00Z</time>
				</trkpt>
				<trkpt lat="53.46847" lon="-0.88850">
					<ele>0</ele>
					<time>0001-01-01T00:00:00Z</time>
				</trkpt>
				<trkpt lat="53.46805" lon="-0.88531">
					<ele>0</ele>
					<time>0001-01-01T00:00:00Z</time>
				</trkpt>
				<trkpt lat="53.46770" lon="-0.88237">
					<ele>0</ele>
					<time>0001-01-01T00:00:00Z</time>
				</trkpt>
				<trkpt lat="53.46736" lon="-0.87974">
					<ele>0</ele>
					<time>0001-01-01T00:00:00Z</time>
				</trkpt>
				<trkpt lat="53.46698" lon="-0.87675">
					<ele>0</ele>
					<time>0001-01-01T00:00:00Z</time>
				</trkpt>
				<trkpt lat="53.46655" lon="-0.87342">
					<ele>1</ele>
					<time>0001-01-01T00:00:00Z</time>
				</trkpt>
				<trkpt lat="53.46604" lon="-0.86950">
					<ele>1</ele>
					<time>0001-01-01T00:00:00Z</time>
				</trkpt>
				<trkpt lat="53.46564" lon="-0.86644">
					<ele>0</ele>
					<time>0001-01-01T00:00:00Z</time>
				</trkpt>
				<trkpt lat="53.46544" lon="-0.86478">
					<ele>0</ele>
					<time>0001-01-01T00:00:00Z</time>
				</trkpt>
				<trkpt lat="53.46515" lon="-0.86257">
					<ele>0</ele>
					<time>0001-01-01T00:00:00Z</time>
				</trkpt>
				<trkpt lat="53.46478" lon="-0.85957">
					<ele>1</ele>
					<time>0001-01-01T00:00:00Z</time>
				</trkpt>
				<trkpt lat="53.46447" lon="-0.85725">
					<ele>3</ele>
					<time>0001-01-01T00:00:00Z</time>
				</trkpt>
				<trkpt lat="53.46411" lon="-0.85456">
					<ele>2</ele>
					<time>0001-01-01T00:00:00Z</time>
				</trkpt>
				<trkpt lat="53.46382" lon="-0.85224">
					<ele>2</ele>
					<time>0001-01-01T00:00:00Z</time>
				</trkpt>
				<trkpt lat="53.46359" lon="-0.85039">
					<ele>1</ele>
					<time>0001-01-01T00:00:00Z</time>
				</trkpt>
				<trkpt lat="53.46331" lon="-0.84813">
					<ele>2</ele>
					<time>0001-01-01T00:00:00Z</time>
				</trkpt>
				<trkpt lat="53.46294" lon="-0.84525">
					<ele>2</ele>
					<time>0001-01-01T00:00:00Z</time>
				</trkpt>
				<trkpt lat="53.46270" lon="-0.84346">
					<ele>2</ele>
					<time>0001-01-01T00:00:00Z</time>
				</trkpt>
				<trkpt lat="53.46252" lon="-0.84350">
					<ele>2</ele>
					<time>0001-01-01T00:00:00Z</time>
				</trkpt>
				<trkpt lat="53.46156" lon="-0.84457">
					<ele>2</ele>
					<time>0001-01-01T00:00:00Z</time>
				</trkpt>
				<trkpt lat="53.46020" lon="-0.84611">
					<ele>2</ele>
					<time>0001-01-01T00:00:00Z</time>
				</trkpt>
				<trkpt lat="53.45919" lon="-0.84726">
					<ele>0</ele>
					<time>0001-01-01T00:00:00Z</time>
				</trkpt>
				<trkpt lat="53.45811" lon="-0.84842">
					<ele>1</ele>
					<time>0001-01-01T00:00:00Z</time>
				</trkpt>
				<trkpt lat="53.45718" lon="-0.84879">
					<ele>4</ele>
					<time>0001-01-01T00:00:00Z</time>
				</trkpt>
				<trkpt lat="53.45611" lon="-0.84918">
					<ele>4</ele>
					<time>0001-01-01T00:00:00Z</time>
				</trkpt>
				<trkpt lat="53.45495" lon="-0.84923">
					<ele>3</ele>
					<time>0001-01-01T00:00:00Z</time>
				</trkpt>
				<trkpt lat="53.45367" lon="-0.84889">
					<ele>5</ele>
					<time>0001-01-01T00:00:00Z</time>
				</trkpt>
				<trkpt lat="53.45250" lon="-0.84885">
					<ele>7</ele>
					<time>0001-01-01T00:00:00Z</time>
				</trkpt>
				<trkpt lat="53.45112" lon="-0.84918">
					<ele>6</ele>
					<time>0001-01-01T00:00:00Z</time>
				</trkpt>
				<trkpt lat="53.44954" lon="-0.84948">
					<ele>2</ele>
					<time>0001-01-01T00:00:00Z</time>
				</trkpt>
				<trkpt lat="53.44825" lon="-0.84957">
					<ele>3</ele>
					<time>0001-01-01T00:00:00Z</time>
				</trkpt>
				<trkpt lat="53.44728" lon="-0.85031">
					<ele>6</ele>
					<time>0001-01-01T00:00:00Z</time>
				</trkpt>
				<trkpt lat="53.44686" lon="-0.85031">
					<ele>8</ele>
					<time>0001-01-01T00:00:00Z</time>
				</trkpt>
				<trkpt lat="53.44570" lon="-0.84951">
					<ele>9</ele>
					<time>0001-01-01T00:00:00Z</time>
				</trkpt>
				<trkpt lat="53.44533" lon="-0.84931">
					<ele>8</ele>
					<time>0001-01-01T00:00:00Z</time>
				</trkpt>
				<trkpt lat="53.44515" lon="-0.84928">
					<ele>8</ele>
					<time>0001-01-01T00:00:00Z</time>
				</trkpt>
				<trkpt lat="53.44496" lon="-0.84929">
					<ele>8</ele>
					<time>0001-01-01T00:00:00Z</time>
				</trkpt>
				<trkpt lat="53.44448" lon="-0.84952">
					<ele>7</ele>
					<time>0001-01-01T00:00:00Z</time>
				</trkpt>
				<trkpt lat="53.44412" lon="-0.84921">
					<ele>8</ele>
					<time>0001-01-01T00:00:00Z</time>
				</trkpt>
				<trkpt lat="53.44389" lon="-0.84810">
					<ele>9</ele>
					<time>0001-01-01T00:00:00Z</time>
				</trkpt>
				<trkpt lat="53.44399" lon="-0.84696">
					<ele>9</ele>
					<time>0001-01-01T00:00:00Z</time>
				</trkpt>
				<trkpt lat="53.44377" lon="-0.84641">
					<ele>9</ele>
					<time>0001-01-01T00:00:00Z</time>
				</trkpt>
				<trkpt lat="53.44274" lon="-0.84510">
					<ele>11</ele>
					<time>0001-01-01T00:00:00Z</time>
				</trkpt>
				<trkpt lat="53.44276" lon="-0.84426">
					<ele>11</ele>
					<time>0001-01-01T00:00:00Z</time>
				</trkpt>
				<trkpt lat="53.44333" lon="-0.84252">
					<ele>9</ele>
					<time>0001-01-01T00:00:00Z</time>
				</trkpt>
				<trkpt lat="53.44338" lon="-0.84243">
					<ele>9</ele>
					<time>0001-01-01T00:00:00Z</time>
				</trkpt>
				<trkpt lat="53.44396" lon="-0.84044">
					<ele>7</ele>
					<time>0001-01-01T00:00:00Z</time>
				</trkpt>
				<trkpt lat="53.44407" lon="-0.83918">
					<ele>6</ele>
					<time>0001-01-01T00:00:00Z</time>
				</trkpt>
				<trkpt lat="53.44400" lon="-0.83874">
					<ele>6</ele>
					<time>0001-01-01T00:00:00Z</time>
				</trkpt>
				<trkpt lat="53.44330" lon="-0.83683">
					<ele>7</ele>
					<time>0001-01-01T00:00:00Z</time>
				</trkpt>
				<trkpt lat="53.44296" lon="-0.83611">
					<ele>9</ele>
					<time>0001-01-01T00:00:00Z</time>
				</trkpt>
				<trkpt lat="53.44181" lon="-0.83477">
					<ele>6</ele>
					<time>0001-01-01T00:00:00Z</time>
				</trkpt>
				<trkpt lat="53.44067" lon="-0.83323">
					<ele>2</ele>
					<time>0001-01-01T00:00:00Z</time>
				</trkpt>
				<trkpt lat="53.44038" lon="-0.83265">
					<ele>1</ele>
					<time>0001-01-01T00:00:00Z</time>
				</trkpt>
				<trkpt lat="53.44012" lon="-0.83243">
					<ele>2</ele>
					<time>0001-01-01T00:00:00Z</time>
				</trkpt>
				<trkpt lat="53.43832" lon="-0.83150">
					<ele>0</ele>
					<time>0001-01-01T00:00:00Z</time>
				</trkpt>
				<trkpt lat="53.43725" lon="-0.83108">
					<ele>0</ele>
					<time>0001-01-01T00:00:00Z</time>
				</trkpt>
				<trkpt lat="53.43714" lon="-0.83097">
					<ele>0</ele>
					<time>0001-01-01T00:00:00Z</time>
				</trkpt>
				<trkpt lat="53.43657" lon="-0.82984">
					<ele>1</ele>
					<time>0001-01-01T00:00:00Z</time>
				</trkpt>
				<trkpt lat="53.43650" lon="-0.82939">
					<ele>1</ele>
					<time>0001-01-01T00:00:00Z</time>
				</trkpt>
				<trkpt lat="53.43650" lon="-0.82908">
					<ele>1</ele>
					<time>0001-01-01T00:00:00Z</time>
				</trkpt>
				<trkpt lat="53.43637" lon="-0.82886">
					<ele>2</ele>
					<time>0001-01-01T00:00:00Z</time>
				</trkpt>
				<trkpt lat="53.43612" lon="-0.82876">
					<ele>2</ele>
					<time>0001-01-01T00:00:00Z</time>
				</trkpt>
				<trkpt lat="53.43517" lon="-0.82864">
					<ele>4</ele>
					<time>0001-01-01T00:00:00Z</time>
				</trkpt>
				<trkpt lat="53.43419" lon="-0.82903">
					<ele>5</ele>
					<time>0001-01-01T00:00:00Z</time>
				</trkpt>
				<trkpt lat="53.43293" lon="-0.82976">
					<ele>5</ele>
					<time>0001-01-01T00:00:00Z</time>
				</trkpt>
				<trkpt lat="53.43163" lon="-0.83077">
					<ele>8</ele>
					<time>0001-01-01T00:00:00Z</time>
				</trkpt>
				<trkpt lat="53.43035" lon="-0.83079">
					<ele>7</ele>
					<time>0001-01-01T00:00:00Z</time>
				</trkpt>
				<trkpt lat="53.42937" lon="-0.83104">
					<ele>7</ele>
					<time>0001-01-01T00:00:00Z</time>
				</trkpt>
				<trkpt lat="53.42900" lon="-0.83127">
					<ele>8</ele>
					<time>0001-01-01T00:00:00Z</time>
				</trkpt>
				<trkpt lat="53.42850" lon="-0.83230">
					<ele>9</ele>
					<time>0001-01-01T00:00:00Z</time>
				</trkpt>
				<trkpt lat="53.42810" lon="-0.83391">
					<ele>13</ele>
					<time>0001-01-01T00:00:00Z</time>
				</trkpt>
				<trkpt lat="53.42761" lon="-0.83563">
					<ele>16</ele>
					<time>0001-01-01T00:00:00Z</time>
				</trkpt>
				<trkpt lat="53.42670" lon="-0.83646">
					<ele>15</ele>
					<time>0001-01-01T00:00:00Z</time>
				</trkpt>
				<trkpt lat="53.42549" lon="-0.83742">
					<ele>15</ele>
					<time>0001-01-01T00:00:00Z</time>
				</trkpt>
				<trkpt lat="53.42492" lon="-0.83861">
					<ele>15</ele>
					<time>0001-01-01T00:00:00Z</time>
				</trkpt>
				<trkpt lat="53.42424" lon="-0.84024">
					<ele>13</ele>
					<time>0001-01-01T00:00:00Z</time>
				</trkpt>
				<trkpt lat="53.42398" lon="-0.84046">
					<ele>13</ele>
					<time>0001-01-01T00:00:00Z</time>
				</trkpt>
				<trkpt lat="53.42294" lon="-0.84056">
					<ele>13</ele>
					<time>0001-01-01T00:00:00Z</time>
				</trkpt>
				<trkpt lat="53.42225" lon="-0.84096">
					<ele>12</ele>
					<time>0001-01-01T00:00:00Z</time>
				</trkpt>
				<trkpt lat="53.42198" lon="-0.84092">
					<ele>13</ele>
					<time>0001-01-01T00:00:00Z</time>
				</trkpt>
				<trkpt lat="53.42100" lon="-0.84016">
					<ele>7</ele>
					<time>0001-01-01T00:00:00Z</time>
				</trkpt>
				<trkpt lat="53.41995" lon="-0.83943">
					<ele>7</ele>
					<time>0001-01-01T00:00:00Z</time>
				</trkpt>
				<trkpt lat="53.41910" lon="-0.83889">
					<ele>8</ele>
					<time>0001-01-01T00:00:00Z</time>
				</trkpt>
				<trkpt lat="53.41809" lon="-0.83842">
					<ele>9</ele>
					<time>0001-01-01T00:00:00Z</time>
				</trkpt>
				<trkpt lat="53.41675" lon="-0.83742">
					<ele>9</ele>
					<time>0001-01-01T00:00:00Z</time>
				</trkpt>
				<trkpt lat="53.41554" lon="-0.83643">
					<ele>10</ele>
					<time>0001-01-01T00:00:00Z</time>
				</trkpt>
				<trkpt lat="53.41432" lon="-0.83559">
					<ele>11</ele>
					<time>0001-01-01T00:00:00Z</time>
				</trkpt>
				<trkpt lat="53.41338" lon="-0.83459">
					<ele>11</ele>
					<time>0001-01-01T00:00:00Z</time>
				</trkpt>
				<trkpt lat="53.41253" lon="-0.83378">
					<ele>11</ele>
					<time>0001-01-01T00:00:00Z</time>
				</trkpt>
				<trkpt lat="53.41145" lon="-0.83315">
					<ele>11</ele>
					<time>0001-01-01T00:00:00Z</time>
				</trkpt>
				<trkpt lat="53.41028" lon="-0.83288">
					<ele>12</ele>
					<time>0001-01-01T00:00:00Z</time>
				</trkpt>
				<trkpt lat="53.41025" lon="-0.83288">
					<ele>12</ele>
					<time>0001-01-01T00:00:00Z</time>
				</trkpt>
				<trkpt lat="53.41036" lon="-0.83288">
					<ele>12</ele>
					<time>0001-01-01T00:00:00Z</time>
				</trkpt>
				<trkpt lat="53.41041" lon="-0.83267">
					<ele>11</ele>
					<time>0001-01-01T00:00:00Z</time>
				</trkpt>
				<trkpt lat="53.41046" lon="-0.83142">
					<ele>10</ele>
					<time>0001-01-01T00:00:00Z</time>
				</trkpt>
				<trkpt lat="53.41023" lon="-0.83099">
					<ele>10</ele>
					<time>0001-01-01T00:00:00Z</time>
				</trkpt>
				<trkpt lat="53.40929" lon="-0.83054">
					<ele>9</ele>
					<time>0001-01-01T00:00:00Z</time>
				</trkpt>
				<trkpt lat="53.40813" lon="-0.82984">
					<ele>9</ele>
					<time>0001-01-01T00:00:00Z</time>
				</trkpt>
				<trkpt lat="53.40688" lon="-0.82910">
					<ele>10</ele>
					<time>0001-01-01T00:00:00Z</time>
				</trkpt>
				<trkpt lat="53.40573" lon="-0.82859">
					<ele>9</ele>
					<time>0001-01-01T00:00:00Z</time>
				</trkpt>
				<trkpt lat="53.40360" lon="-0.82734">
					<ele>13</ele>
					<time>0001-01-01T00:00:00Z</time>
				</trkpt>
				<trkpt lat="53.40223" lon="-0.82653">
					<ele>11</ele>
					<time>0001-01-01T00:00:00Z</time>
				</trkpt>
				<trkpt lat="53.40062" lon="-0.82577">
					<ele>11</ele>
					<time>0001-01-01T00:00:00Z</time>
				</trkpt>
				<trkpt lat="53.39905" lon="-0.82469">
					<ele>11</ele>
					<time>0001-01-01T00:00:00Z</time>
				</trkpt>
				<trkpt lat="53.39780" lon="-0.82323">
					<ele>11</ele>
					<time>0001-01-01T00:00:00Z</time>
				</trkpt>
				<trkpt lat="53.39775" lon="-0.82318">
					<ele>11</ele>
					<time>0001-01-01T00:00:00Z</time>
				</trkpt>
				<trkpt lat="53.39748" lon="-0.82302">
					<ele>12</ele>
					<time>0001-01-01T00:00:00Z</time>
				</trkpt>
				<trkpt lat="53.39735" lon="-0.82302">
					<ele>13</ele>
					<time>0001-01-01T00:00:00Z</time>
				</trkpt>
				<trkpt lat="53.39656" lon="-0.82309">
					<ele>12</ele>
					<time>0001-01-01T00:00:00Z</time>
				</trkpt>
				<trkpt lat="53.39620" lon="-0.82287">
					<ele>12</ele>
					<time>0001-01-01T00:00:00Z</time>
				</trkpt>
				<trkpt lat="53.39594" lon="-0.82239">
					<ele>11</ele>
					<time>0001-01-01T00:00:00Z</time>
				</trkpt>
				<trkpt lat="53.39519" lon="-0.81984">
					<ele>12</ele>
					<time>0001-01-01T00:00:00Z</time>
				</trkpt>
				<trkpt lat="53.39470" lon="-0.81784">
					<ele>13</ele>
					<time>0001-01-01T00:00:00Z</time>
				</trkpt>
				<trkpt lat="53.39423" lon="-0.81541">
					<ele>12</ele>
					<time>0001-01-01T00:00:00Z</time>
				</trkpt>
				<trkpt lat="53.39394" lon="-0.81332">
					<ele>8</ele>
					<time>0001-01-01T00:00:00Z</time>
				</trkpt>
				<trkpt lat="53.39365" lon="-0.81008">
					<ele>7</ele>
					<time>0001-01-01T00:00:00Z</time>
				</trkpt>
				<trkpt lat="53.39357" lon="-0.80771">
					<ele>6</ele>
					<time>0001-01-01T00:00:00Z</time>
				</trkpt>
				<trkpt lat="53.39360" lon="-0.80478">
					<ele>3</ele>
					<time>0001-01-01T00:00:00Z</time>
				</trkpt>
				<trkpt lat="53.39368" lon="-0.80157">
					<ele>0</ele>
					<time>0001-01-01T00:00:00Z</time>
				</trkpt>
				<trkpt lat="53.39380" lon="-0.79888">
					<ele>1</ele>
					<time>0001-01-01T00:00:00Z</time>
				</trkpt>
				<trkpt lat="53.39386" lon="-0.79712">
					<ele>3</ele>
					<time>0001-01-01T00:00:00Z</time>
				</trkpt>
				<trkpt lat="53.39395" lon="-0.79536">
					<ele>3</ele>
					<time>0001-01-01T00:00:00Z</time>
				</trkpt>
				<trkpt lat="53.39406" lon="-0.79300">
					<ele>3</ele>
					<time>0001-01-01T00:00:00Z</time>
				</trkpt>
				<trkpt lat="53.39422" lon="-0.79019">
					<ele>4</ele>
					<time>0001-01-01T00:00:00Z</time>
				</trkpt>
				<trkpt lat="53.39440" lon="-0.78758">
					<ele>6</ele>
					<time>0001-01-01T00:00:00Z</time>
				</trkpt>
				<trkpt lat="53.39458" lon="-0.78561">
					<ele>3</ele>
					<time>0001-01-01T00:00:00Z</time>
				</trkpt>
				<trkpt lat="53.39480" lon="-0.78273">
					<ele>4</ele>
					<time>0001-01-01T00:00:00Z</time>
				</trkpt>
				<trkpt lat="53.39455" lon="-0.78117">
					<ele>5</ele>
					<time>0001-01-01T00:00:00Z</time>
				</trkpt>
				<trkpt lat="53.39425" lon="-0.78057">
					<ele>5</ele>
					<time>0001-01-01T00:00:00Z</time>
				</trkpt>
				<trkpt lat="53.39292" lon="-0.77901">
					<ele>5</ele>
					<time>0001-01-01T00:00:00Z</time>
				</trkpt>
				<trkpt lat="53.39220" lon="-0.77784">
					<ele>6</ele>
					<time>0001-01-01T00:00:00Z</time>
				</trkpt>
				<trkpt lat="53.39217" lon="-0.77769">
					<ele>6</ele>
					<time>0001-01-01T00:00:00Z</time>
				</trkpt>
				<trkpt lat="53.39216" lon="-0.77732">
					<ele>8</ele>
					<time>0001-01-01T00:00:00Z</time>
				</trkpt>
				<trkpt lat="53.39234" lon="-0.77616">
					<ele>9</ele>
					<time>0001-01-01T00:00:00Z</time>
				</trkpt>
				<trkpt lat="53.39239" lon="-0.77581">
					<ele>8</ele>
					<time>0001-01-01T00:00:00Z</time>
				</trkpt>
				<trkpt lat="53.39247" lon="-0.77544">
					<ele>6</ele>
					<time>0001-01-01T00:00:00Z</time>
				</trkpt>
				<trkpt lat="53.39254" lon="-0.77553">
					<ele>5</ele>
					<time>0001-01-01T00:00:00Z</time>
				</trkpt>
				<trkpt lat="53.39249" lon="-0.77547">
					<ele>6</ele>
					<time>0001-01-01T00:00:00Z</time>
				</trkpt>
				<trkpt lat="53.39198" lon="-0.77523">
					<ele>6</ele>
					<time>0001-01-01T00:00:00Z</time>
				</trkpt>
				<trkpt lat="53.39176" lon="-0.77516">
					<ele>7</ele>
					<time>0001-01-01T00:00:00Z</time>
				</trkpt>
				<trkpt lat="53.39069" lon="-0.77471">
					<ele>8</ele>
					<time>0001-01-01T00:00:00Z</time>
				</trkpt>
				<trkpt lat="53.39013" lon="-0.77444">
					<ele>8</ele>
					<time>0001-01-01T00:00:00Z</time>
				</trkpt>
				<trkpt lat="53.38993" lon="-0.77427">
					<ele>8</ele>
					<time>0001-01-01T00:00:00Z</time>
				</trkpt>
				<trkpt lat="53.38985" lon="-0.77417">
					<ele>8</ele>
					<time>0001-01-01T00:00:00Z</time>
				</trkpt>
				<trkpt lat="53.38922" lon="-0.77279">
					<ele>6</ele>
					<time>0001-01-01T00:00:00Z</time>
				</trkpt>
				<trkpt lat="53.38835" lon="-0.77111">
					<ele>8</ele>
					<time>0001-01-01T00:00:00Z</time>
				</trkpt>
				<trkpt lat="53.38733" lon="-0.76989">
					<ele>8</ele>
					<time>0001-01-01T00:00:00Z</time>
				</trkpt>
				<trkpt lat="53.38706" lon="-0.76959">
					<ele>7</ele>
					<time>0001-01-01T00:00:00Z</time>
				</trkpt>
				<trkpt lat="53.38707" lon="-0.76967">
					<ele>7</ele>
					<time>0001-01-01T00:00:00Z</time>
				</trkpt>
				<trkpt lat="53.38737" lon="-0.76981">
					<ele>8</ele>
					<time>0001-01-01T00:00:00Z</time>
				</trkpt>
				<trkpt lat="53.38755" lon="-0.76888">
					<ele>9</ele>
					<time>0001-01-01T00:00:00Z</time>
				</trkpt>
				<trkpt lat="53.38738" lon="-0.76807">
					<ele>16</ele>
					<time>0001-01-01T00:00:00Z</time>
				</trkpt>
				<trkpt lat="53.38724" lon="-0.76750">
					<ele>20</ele>
					<time>0001-01-01T00:00:00Z</time>
				</trkpt>
				<trkpt lat="53.38717" lon="-0.76668">
					<ele>26</ele>
					<time>0001-01-01T00:00:00Z</time>
				</trkpt>
				<trkpt lat="53.38713" lon="-0.76596">
					<ele>31</ele>
					<time>0001-01-01T00:00:00Z</time>
				</trkpt>
				<trkpt lat="53.38718" lon="-0.76502">
					<ele>34</ele>
					<time>0001-01-01T00:00:00Z</time>
				</trkpt>
				<trkpt lat="53.38730" lon="-0.76337">
					<ele>37</ele>
					<time>0001-01-01T00:00:00Z</time>
				</trkpt>
				<trkpt lat="53.38745" lon="-0.76114">
					<ele>33</ele>
					<time>0001-01-01T00:00:00Z</time>
				</trkpt>
				<trkpt lat="53.38765" lon="-0.75832">
					<ele>28</ele>
					<time>0001-01-01T00:00:00Z</time>
				</trkpt>
				<trkpt lat="53.38783" lon="-0.75596">
					<ele>26</ele>
					<time>0001-01-01T00:00:00Z</time>
				</trkpt>
				<trkpt lat="53.38804" lon="-0.75323">
					<ele>23</ele>
					<time>0001-01-01T00:00:00Z</time>
				</trkpt>
				<trkpt lat="53.38836" lon="-0.75085">
					<ele>22</ele>
					<time>0001-01-01T00:00:00Z</time>
				</trkpt>
				<trkpt lat="53.38904" lon="-0.74875">
					<ele>23</ele>
					<time>0001-01-01T00:00:00Z</time>
				</trkpt>
				<trkpt lat="53.39002" lon="-0.74649">
					<ele>23</ele>
					<time>0001-01-01T00:00:00Z</time>
				</trkpt>
				<trkpt lat="53.39038" lon="-0.74560">
					<ele>21</ele>
					<time>0001-01-01T00:00:00Z</time>
				</trkpt>
				<trkpt lat="53.39080" lon="-0.74539">
					<ele>21</ele>
					<time>0001-01-01T00:00:00Z</time>
				</trkpt>
				<trkpt lat="53.39086" lon="-0.74535">
					<ele>22</ele>
					<time>0001-01-01T00:00:00Z</time>
				</trkpt>
				<trkpt lat="53.39092" lon="-0.74440">
					<ele>20</ele>
					<time>0001-01-01T00:00:00Z</time>
				</trkpt>
				<trkpt lat="53.39095" lon="-0.74422">
					<ele>21</ele>
					<time>0001-01-01T00:00:00Z</time>
				</trkpt>
				<trkpt lat="53.39100" lon="-0.74405">
					<ele>21</ele>
					<time>0001-01-01T00:00:00Z</time>
				</trkpt>
				<trkpt lat="53.39168" lon="-0.74239">
					<ele>21</ele>
					<time>0001-01-01T00:00:00Z</time>
				</trkpt>
				<trkpt lat="53.39223" lon="-0.74092">
					<ele>24</ele>
					<time>0001-01-01T00:00:00Z</time>
				</trkpt>
				<trkpt lat="53.39262" lon="-0.73976">
					<ele>29</ele>
					<time>0001-01-01T00:00:00Z</time>
				</trkpt>
				<trkpt lat="53.39293" lon="-0.73872">
					<ele>30</ele>
					<time>0001-01-01T00:00:00Z</time>
				</trkpt>
				<trkpt lat="53.39275" lon="-0.73791">
					<ele>29</ele>
					<time>0001-01-01T00:00:00Z</time>
				</trkpt>
				<trkpt lat="53.39210" lon="-0.73696">
					<ele>28</ele>
					<time>0001-01-01T00:00:00Z</time>
				</trkpt>
				<trkpt lat="53.39200" lon="-0.73633">
					<ele>27</ele>
					<time>0001-01-01T00:00:00Z</time>
				</trkpt>
				<trkpt lat="53.39220" lon="-0.73458">
					<ele>23</ele>
					<time>0001-01-01T00:00:00Z</time>
				</trkpt>
				<trkpt lat="53.39234" lon="-0.73251">
					<ele>22</ele>
					<time>0001-01-01T00:00:00Z</time>
				</trkpt>
				<trkpt lat="53.39209" lon="-0.73173">
					<ele>23</ele>
					<time>0001-01-01T00:00:00Z</time>
				</trkpt>
				<trkpt lat="53.39104" lon="-0.73028">
					<ele>18</ele>
					<time>0001-01-01T00:00:00Z</time>
				</trkpt>
				<trkpt lat="53.39009" lon="-0.72931">
					<ele>20</ele>
					<time>0001-01-01T00:00:00Z</time>
				</trkpt>
				<trkpt lat="53.38992" lon="-0.72851">
					<ele>19</ele>
					<time>0001-01-01T00:00:00Z</time>
				</trkpt>
				<trkpt lat="53.39006" lon="-0.72736">
					<ele>18</ele>
					<time>0001-01-01T00:00:00Z</time>
				</trkpt>
				<trkpt lat="53.38974" lon="-0.72669">
					<ele>18</ele>
					<time>0001-01-01T00:00:00Z</time>
				</trkpt>
				<trkpt lat="53.38846" lon="-0.72606">
					<ele>19</ele>
					<time>0001-01-01T00:00:00Z</time>
				</trkpt>
				<trkpt lat="53.38755" lon="-0.72560">
					<ele>24</ele>
					<time>0001-01-01T00:00:00Z</time>
				</trkpt>
				<trkpt lat="53.38664" lon="-0.72513">
					<ele>27</ele>
					<time>0001-01-01T00:00:00Z</time>
				</trkpt>
				<trkpt lat="53.38557" lon="-0.72491">
					<ele>26</ele>
					<time>0001-01-01T00:00:00Z</time>
				</trkpt>
				<trkpt lat="53.38423" lon="-0.72426">
					<ele>28</ele>
					<time>0001-01-01T00:00:00Z</time>
				</trkpt>
				<trkpt lat="53.38300" lon="-0.72339">
					<ele>28</ele>
					<time>0001-01-01T00:00:00Z</time>
				</trkpt>
				<trkpt lat="53.38272" lon="-0.72244">
					<ele>28</ele>
					<time>0001-01-01T00:00:00Z</time>
				</trkpt>
				<trkpt lat="53.38305" lon="-0.72015">
					<ele>28</ele>
					<time>0001-01-01T00:00:00Z</time>
				</trkpt>
				<trkpt lat="53.38343" lon="-0.71796">
					<ele>28</ele>
					<time>0001-01-01T00:00:00Z</time>
				</trkpt>
				<trkpt lat="53.38351" lon="-0.71765">
					<ele>28</ele>
					<time>0001-01-01T00:00:00Z</time>
				</trkpt>
				<trkpt lat="53.38352" lon="-0.71754">
					<ele>28</ele>
					<time>0001-01-01T00:00:00Z</time>
				</trkpt>
				<trkpt lat="53.38351" lon="-0.71764">
					<ele>27</ele>
					<time>0001-01-01T00:00:00Z</time>
				</trkpt>
				<trkpt lat="53.38330" lon="-0.71855">
					<ele>26</ele>
					<time>0001-01-01T00:00:00Z</time>
				</trkpt>
				<trkpt lat="53.38324" lon="-0.71885">
					<ele>27</ele>
					<time>0001-01-01T00:00:00Z</time>
				</trkpt>
				<trkpt lat="53.38296" lon="-0.71878">
					<ele>28</ele>
					<time>0001-01-01T00:00:00Z</time>
				</trkpt>
				<trkpt lat="53.38214" lon="-0.71775">
					<ele>28</ele>
					<time>0001-01-01T00:00:00Z</time>
				</trkpt>
				<trkpt lat="53.38075" lon="-0.71602">
					<ele>25</ele>
					<time>0001-01-01T00:00:00Z</time>
				</trkpt>
				<trkpt lat="53.37925" lon="-0.71418">
					<ele>23</ele>
					<time>0001-01-01T00:00:00Z</time>
				</trkpt>
				<trkpt lat="53.37794" lon="-0.71256">
					<ele>24</ele>
					<time>0001-01-01T00:00:00Z</time>
				</trkpt>
				<trkpt lat="53.37677" lon="-0.71110">
					<ele>24</ele>
					<time>0001-01-01T00:00:00Z</time>
				</trkpt>
				<trkpt lat="53.37557" lon="-0.70962">
					<ele>21</ele>
					<time>0001-01-01T00:00:00Z</time>
				</trkpt>
				<trkpt lat="53.37413" lon="-0.70785">
					<ele>20</ele>
					<time>0001-01-01T00:00:00Z</time>
				</trkpt>
				<trkpt lat="53.37259" lon="-0.70594">
					<ele>21</ele>
					<time>0001-01-01T00:00:00Z</time>
				</trkpt>
				<trkpt lat="53.37126" lon="-0.70428">
					<ele>20</ele>
					<time>0001-01-01T00:00:00Z</time>
				</trkpt>
				<trkpt lat="53.37029" lon="-0.70308">
					<ele>21</ele>
					<time>0001-01-01T00:00:00Z</time>
				</trkpt>
				<trkpt lat="53.37011" lon="-0.70286">
					<ele>22</ele>
					<time>0001-01-01T00:00:00Z</time>
				</trkpt>
				<trkpt lat="53.37003" lon="-0.70238">
					<ele>21</ele>
					<time>0001-01-01T00:00:00Z</time>
				</trkpt>
				<trkpt lat="53.37041" lon="-0.70020">
					<ele>23</ele>
					<time>0001-01-01T00:00:00Z</time>
				</trkpt>
				<trkpt lat="53.37086" lon="-0.69774">
					<ele>26</ele>
					<time>0001-01-01T00:00:00Z</time>
				</trkpt>
				<trkpt lat="53.37104" lon="-0.69653">
					<ele>26</ele>
					<time>0001-01-01T00:00:00Z</time>
				</trkpt>
				<trkpt lat="53.37092" lon="-0.69641">
					<ele>25</ele>
					<time>0001-01-01T00:00:00Z</time>
				</trkpt>
				<trkpt lat="53.37036" lon="-0.69639">
					<ele>25</ele>
					<time>0001-01-01T00:00:00Z</time>
				</trkpt>
				<trkpt lat="53.37010" lon="-0.69636">
					<ele>25</ele>
					<time>0001-01-01T00:00:00Z</time>
				</trkpt>
				<trkpt lat="53.36947" lon="-0.69654">
					<ele>23</ele>
					<time>0001-01-01T00:00:00Z</time>
				</trkpt>
				<trkpt lat="53.36823" lon="-0.69607">
					<ele>21</ele>
					<time>0001-01-01T00:00:00Z</time>
				</trkpt>
				<trkpt lat="53.36715" lon="-0.69519">
					<ele>22</ele>
					<time>0001-01-01T00:00:00Z</time>
				</trkpt>
				<trkpt lat="53.36584" lon="-0.69400">
					<ele>23</ele>
					<time>0001-01-01T00:00:00Z</time>
				</trkpt>
				<trkpt lat="53.36444" lon="-0.69372">
					<ele>24</ele>
					<time>0001-01-01T00:00:00Z</time>
				</trkpt>
				<trkpt lat="53.36367" lon="-0.69353">
					<ele>22</ele>
					<time>0001-01-01T00:00:00Z</time>
				</trkpt>
				<trkpt lat="53.36262" lon="-0.69268">
					<ele>19</ele>
					<time>0001-01-01T00:00:00Z</time>
				</trkpt>
				<trkpt lat="53.36173" lon="-0.69237">
					<ele>18</ele>
					<time>0001-01-01T00:00:00Z</time>
				</trkpt>
				<trkpt lat="53.36153" lon="-0.69240">
					<ele>18</ele>
					<time>0001-01-01T00:00:00Z</time>
				</trkpt>
				<trkpt lat="53.36144" lon="-0.69248">
					<ele>17</ele>
					<time>0001-01-01T00:00:00Z</time>
				</trkpt>
				<trkpt lat="53.36141" lon="-0.69250">
					<ele>17</ele>
					<time>0001-01-01T00:00:00Z</time>
				</trkpt>
				<trkpt lat="53.36142" lon="-0.69244">
					<ele>17</ele>
					<time>0001-01-01T00:00:00Z</time>
				</trkpt>
				<trkpt lat="53.36129" lon="-0.69218">
					<ele>17</ele>
					<time>0001-01-01T00:00:00Z</time>
				</trkpt>
				<trkpt lat="53.36046" lon="-0.69175">
					<ele>16</ele>
					<time>0001-01-01T00:00:00Z</time>
				</trkpt>
				<trkpt lat="53.35947" lon="-0.69123">
					<ele>16</ele>
					<time>0001-01-01T00:00:00Z</time>
				</trkpt>
				<trkpt lat="53.35842" lon="-0.69065">
					<ele>19</ele>
					<time>0001-01-01T00:00:00Z</time>
				</trkpt>
				<trkpt lat="53.35769" lon="-0.69024">
					<ele>21</ele>
					<time>0001-01-01T00:00:00Z</time>
				</trkpt>
				<trkpt lat="53.35717" lon="-0.68998">
					<ele>21</ele>
					<time>0001-01-01T00:00:00Z</time>
				</trkpt>
				<trkpt lat="53.35697" lon="-0.69001">
					<ele>20</ele>
					<time>0001-01-01T00:00:00Z</time>
				</trkpt>
				<trkpt lat="53.35607" lon="-0.69075">
					<ele>19</ele>
					<time>0001-01-01T00:00:00Z</time>
				</trkpt>
				<trkpt lat="53.35458" lon="-0.69108">
					<ele>18</ele>
					<time>0001-01-01T00:00:00Z</time>
				</trkpt>
				<trkpt lat="53.35309" lon="-0.69124">
					<ele>17</ele>
					<time>0001-01-01T00:00:00Z</time>
				</trkpt>
				<trkpt lat="53.35171" lon="-0.69107">
					<ele>18</ele>
					<time>0001-01-01T00:00:00Z</time>
				</trkpt>
				<trkpt lat="53.35032" lon="-0.69050">
					<ele>17</ele>
					<time>0001-01-01T00:00:00Z</time>
				</trkpt>
				<trkpt lat="53.35019" lon="-0.68984">
					<ele>17</ele>
					<time>0001-01-01T00:00:00Z</time>
				</trkpt>
				<trkpt lat="53.35053" lon="-0.68807">
					<ele>20</ele>
					<time>0001-01-01T00:00:00Z</time>
				</trkpt>
				<trkpt lat="53.35031" lon="-0.68758">
					<ele>18</ele>
					<time>0001-01-01T00:00:00Z</time>
				</trkpt>
				<trkpt lat="53.34972" lon="-0.68685">
					<ele>17</ele>
					<time>0001-01-01T00:00:00Z</time>
				</trkpt>
				<trkpt lat="53.34948" lon="-0.68669">
					<ele>17</ele>
					<time>0001-01-01T00:00:00Z</time>
				</trkpt>
				<trkpt lat="53.34784" lon="-0.68577">
					<ele>16</ele>
					<time>0001-01-01T00:00:00Z</time>
				</trkpt>
				<trkpt lat="53.34618" lon="-0.68479">
					<ele>12</ele>
					<time>0001-01-01T00:00:00Z</time>
				</trkpt>
				<trkpt lat="53.34509" lon="-0.68411">
					<ele>13</ele>
					<time>0001-01-01T00:00:00Z</time>
				</trkpt>
				<trkpt lat="53.34356" lon="-0.68313">
					<ele>13</ele>
					<time>0001-01-01T00:00:00Z</time>
				</trkpt>
				<trkpt lat="53.34221" lon="-0.68204">
					<ele>10</ele>
					<time>0001-01-01T00:00:00Z</time>
				</trkpt>
				<trkpt lat="53.34069" lon="-0.68080">
					<ele>11</ele>
					<time>0001-01-01T00:00:00Z</time>
				</trkpt>
				<trkpt lat="53.33947" lon="-0.67979">
					<ele>8</ele>
					<time>0001-01-01T00:00:00Z</time>
				</trkpt>
				<trkpt lat="53.33864" lon="-0.67897">
					<ele>7</ele>
					<time>0001-01-01T00:00:00Z</time>
				</trkpt>
				<trkpt lat="53.33846" lon="-0.67856">
					<ele>8</ele>
					<time>0001-01-01T00:00:00Z</time>
				</trkpt>
				<trkpt lat="53.33791" lon="-0.67733">
					<ele>12</ele>
					<time>0001-01-01T00:00:00Z</time>
				</trkpt>
				<trkpt lat="53.33766" lon="-0.67694">
					<ele>13</ele>
					<time>0001-01-01T00:00:00Z</time>
				</trkpt>
				<trkpt lat="53.33761" lon="-0.67695">
					<ele>14</ele>
					<time>0001-01-01T00:00:00Z</time>
				</trkpt>
				<trkpt lat="53.33763" lon="-0.67691">
					<ele>13</ele>
					<time>0001-01-01T00:00:00Z</time>
				</trkpt>
				<trkpt lat="53.33758" lon="-0.67688">
					<ele>14</ele>
					<time>0001-01-01T00:00:00Z</time>
				</trkpt>
				<trkpt lat="53.33758" lon="-0.67689">
					<ele>14</ele>
					<time>0001-01-01T00:00:00Z</time>
				</trkpt>
				<trkpt lat="53.33759" lon="-0.67688">
					<ele>16</ele>
					<time>0001-01-01T00:00:00Z</time>
				</trkpt>
				<trkpt lat="53.33759" lon="-0.67688">
					<ele>13</ele>
					<time>0001-01-01T00:00:00Z</time>
				</trkpt>
				<trkpt lat="53.33711" lon="-0.67662">
					<ele>12</ele>
					<time>0001-01-01T00:00:00Z</time>
				</trkpt>
				<trkpt lat="53.33577" lon="-0.67621">
					<ele>12</ele>
					<time>0001-01-01T00:00:00Z</time>
				</trkpt>
				<trkpt lat="53.33472" lon="-0.67607">
					<ele>13</ele>
					<time>0001-01-01T00:00:00Z</time>
				</trkpt>
				<trkpt lat="53.33357" lon="-0.67575">
					<ele>13</ele>
					<time>0001-01-01T00:00:00Z</time>
				</trkpt>
				<trkpt lat="53.33235" lon="-0.67560">
					<ele>12</ele>
					<time>0001-01-01T00:00:00Z</time>
				</trkpt>
				<trkpt lat="53.33211" lon="-0.67586">
					<ele>11</ele>
					<time>0001-01-01T00:00:00Z</time>
				</trkpt>
				<trkpt lat="53.33187" lon="-0.67619">
					<ele>10</ele>
					<time>0001-01-01T00:00:00Z</time>
				</trkpt>
				<trkpt lat="53.33138" lon="-0.67628">
					<ele>9</ele>
					<time>0001-01-01T00:00:00Z</time>
				</trkpt>
				<trkpt lat="53.33065" lon="-0.67586">
					<ele>9</ele>
					<time>0001-01-01T00:00:00Z</time>
				</trkpt>
				<trkpt lat="53.33029" lon="-0.67592">
					<ele>9</ele>
					<time>0001-01-01T00:00:00Z</time>
				</trkpt>
				<trkpt lat="53.33005" lon="-0.67604">
					<ele>9</ele>
					<time>0001-01-01T00:00:00Z</time>
				</trkpt>
				<trkpt lat="53.32967" lon="-0.67595">
					<ele>10</ele>
					<time>0001-01-01T00:00:00Z</time>
				</trkpt>
				<trkpt lat="53.32863" lon="-0.67521">
					<ele>11</ele>
					<time>0001-01-01T00:00:00Z</time>
				</trkpt>
				<trkpt lat="53.32832" lon="-0.67554">
					<ele>11</ele>
					<time>0001-01-01T00:00:00Z</time>
				</trkpt>
				<trkpt lat="53.32831" lon="-0.67562">
					<ele>11</ele>
					<time>0001-01-01T00:00:00Z</time>
				</trkpt>
				<trkpt lat="53.32830" lon="-0.67599">
					<ele>10</ele>
					<time>0001-01-01T00:00:00Z</time>
				</trkpt>
				<trkpt lat="53.32827" lon="-0.67620">
					<ele>11</ele>
					<time>0001-01-01T00:00:00Z</time>
				</trkpt>
				<trkpt lat="53.32795" lon="-0.67654">
					<ele>12</ele>
					<time>0001-01-01T00:00:00Z</time>
				</trkpt>
				<trkpt lat="53.32758" lon="-0.67638">
					<ele>13</ele>
					<time>0001-01-01T00:00:00Z</time>
				</trkpt>
				<trkpt lat="53.32679" lon="-0.67628">
					<ele>16</ele>
					<time>0001-01-01T00:00:00Z</time>
				</trkpt>
				<trkpt lat="53.32560" lon="-0.67567">
					<ele>16</ele>
					<time>0001-01-01T00:00:00Z</time>
				</trkpt>
				<trkpt lat="53.32457" lon="-0.67525">
					<ele>16</ele>
					<time>0001-01-01T00:00:00Z</time>
				</trkpt>
				<trkpt lat="53.32315" lon="-0.67420">
					<ele>17</ele>
					<time>0001-01-01T00:00:00Z</time>
				</trkpt>
				<trkpt lat="53.32206" lon="-0.67305">
					<ele>16</ele>
					<time>0001-01-01T00:00:00Z</time>
				</trkpt>
				<trkpt lat="53.32202" lon="-0.67298">
					<ele>16</ele>
					<time>0001-01-01T00:00:00Z</time>
				</trkpt>
				<trkpt lat="53.32140" lon="-0.67105">
					<ele>14</ele>
					<time>0001-01-01T00:00:00Z</time>
				</trkpt>
				<trkpt lat="53.32063" lon="-0.66891">
					<ele>15</ele>
					<time>0001-01-01T00:00:00Z</time>
				</trkpt>
				<trkpt lat="53.31932" lon="-0.66723">
					<ele>11</ele>
					<time>0001-01-01T00:00:00Z</time>
				</trkpt>
				<trkpt lat="53.31805" lon="-0.66671">
					<ele>9</ele>
					<time>0001-01-01T00:00:00Z</time>
				</trkpt>
				<trkpt lat="53.31719" lon="-0.66683">
					<ele>9</ele>
					<time>0001-01-01T00:00:00Z</time>
				</trkpt>
				<trkpt lat="53.31684" lon="-0.66661">
					<ele>9</ele>
					<time>0001-01-01T00:00:00Z</time>
				</trkpt>
				<trkpt lat="53.31577" lon="-0.66550">
					<ele>8</ele>
					<time>0001-01-01T00:00:00Z</time>
				</trkpt>
				<trkpt lat="53.31464" lon="-0.66548">
					<ele>8</ele>
					<time>0001-01-01T00:00:00Z</time>
				</trkpt>
				<trkpt lat="53.31339" lon="-0.66569">
					<ele>10</ele>
					<time>0001-01-01T00:00:00Z</time>
				</trkpt>
				<trkpt lat="53.31280" lon="-0.66567">
					<ele>10</ele>
					<time>0001-01-01T00:00:00Z</time>
				</trkpt>
				<trkpt lat="53.31250" lon="-0.66471">
					<ele>13</ele>
					<time>0001-01-01T00:00:00Z</time>
				</trkpt>
				<trkpt lat="53.31216" lon="-0.66314">
					<ele>14</ele>
					<time>0001-01-01T00:00:00Z</time>
				</trkpt>
				<trkpt lat="53.31173" lon="-0.66090">
					<ele>10</ele>
					<time>0001-01-01T00:00:00Z</time>
				</trkpt>
				<trkpt lat="53.31109" lon="-0.65779">
					<ele>9</ele>
					<time>0001-01-01T00:00:00Z</time>
				</trkpt>
				<trkpt lat="53.31056" lon="-0.65531">
					<ele>10</ele>
					<time>0001-01-01T00:00:00Z</time>
				</trkpt>
				<trkpt lat="53.30991" lon="-0.65224">
					<ele>7</ele>
					<time>0001-01-01T00:00:00Z</time>
				</trkpt>
				<trkpt lat="53.30933" lon="-0.64960">
					<ele>5</ele>
					<time>0001-01-01T00:00:00Z</time>
				</trkpt>
				<trkpt lat="53.30880" lon="-0.64719">
					<ele>6</ele>
					<time>0001-01-01T00:00:00Z</time>
				</trkpt>
				<trkpt lat="53.30827" lon="-0.64474">
					<ele>5</ele>
					<time>0001-01-01T00:00:00Z</time>
				</trkpt>
				<trkpt lat="53.30780" lon="-0.64253">
					<ele>4</ele>
					<time>0001-01-01T00:00:00Z</time>
				</trkpt>
				<trkpt lat="53.30724" lon="-0.64001">
					<ele>4</ele>
					<time>0001-01-01T00:00:00Z</time>
				</trkpt>
				<trkpt lat="53.30679" lon="-0.63791">
					<ele>4</ele>
					<time>0001-01-01T00:00:00Z</time>
				</trkpt>
				<trkpt lat="53.30615" lon="-0.63542">
					<ele>4</ele>
					<time>0001-01-01T00:00:00Z</time>
				</trkpt>
				<trkpt lat="53.30567" lon="-0.63310">
					<ele>2</ele>
					<time>0001-01-01T00:00:00Z</time>
				</trkpt>
				<trkpt lat="53.30522" lon="-0.63116">
					<ele>2</ele>
					<time>0001-01-01T00:00:00Z</time>
				</trkpt>
				<trkpt lat="53.30481" lon="-0.62942">
					<ele>1</ele>
					<time>0001-01-01T00:00:00Z</time>
				</trkpt>
				<trkpt lat="53.30443" lon="-0.62780">
					<ele>1</ele>
					<time>0001-01-01T00:00:00Z</time>
				</trkpt>
				<trkpt lat="53.30398" lon="-0.62540">
					<ele>1</ele>
					<time>0001-01-01T00:00:00Z</time>
				</trkpt>
				<trkpt lat="53.30335" lon="-0.62225">
					<ele>3</ele>
					<time>0001-01-01T00:00:00Z</time>
				</trkpt>
				<trkpt lat="53.30262" lon="-0.61893">
					<ele>3</ele>
					<time>0001-01-01T00:00:00Z</time>
				</trkpt>
				<trkpt lat="53.30201" lon="-0.61613">
					<ele>4</ele>
					<time>0001-01-01T00:00:00Z</time>
				</trkpt>
				<trkpt lat="53.30144" lon="-0.61356">
					<ele>5</ele>
					<time>0001-01-01T00:00:00Z</time>
				</trkpt>
				<trkpt lat="53.30084" lon="-0.61093">
					<ele>5</ele>
					<time>0001-01-01T00:00:00Z</time>
				</trkpt>
				<trkpt lat="53.30046" lon="-0.60911">
					<ele>5</ele>
					<time>0001-01-01T00:00:00Z</time>
				</trkpt>
				<trkpt lat="53.29977" lon="-0.60601">
					<ele>6</ele>
					<time>0001-01-01T00:00:00Z</time>
				</trkpt>
				<trkpt lat="53.29921" lon="-0.60353">
					<ele>6</ele>
					<time>0001-01-01T00:00:00Z</time>
				</trkpt>
				<trkpt lat="53.29863" lon="-0.60094">
					<ele>6</ele>
					<time>0001-01-01T00:00:00Z</time>
				</trkpt>
				<trkpt lat="53.29803" lon="-0.59824">
					<ele>7</ele>
					<time>0001-01-01T00:00:00Z</time>
				</trkpt>
				<trkpt lat="53.29743" lon="-0.59550">
					<ele>8</ele>
					<time>0001-01-01T00:00:00Z</time>
				</trkpt>
				<trkpt lat="53.29695" lon="-0.59327">
					<ele>10</ele>
					<time>0001-01-01T00:00:00Z</time>
				</trkpt>
				<trkpt lat="53.29654" lon="-0.59143">
					<ele>14</ele>
					<time>0001-01-01T00:00:00Z</time>
				</trkpt>
				<trkpt lat="53.29610" lon="-0.58939">
					<ele>16</ele>
					<time>0001-01-01T00:00:00Z</time>
				</trkpt>
				<trkpt lat="53.29556" lon="-0.58697">
					<ele>16</ele>
					<time>0001-01-01T00:00:00Z</time>
				</trkpt>
				<trkpt lat="53.29500" lon="-0.58457">
					<ele>16</ele>
					<time>0001-01-01T00:00:00Z</time>
				</trkpt>
				<trkpt lat="53.29474" lon="-0.58328">
					<ele>16</ele>
					<time>0001-01-01T00:00:00Z</time>
				</trkpt>
				<trkpt lat="53.29438" lon="-0.58083">
					<ele>17</ele>
					<time>0001-01-01T00:00:00Z</time>
				</trkpt>
				<trkpt lat="53.29412" lon="-0.57853">
					<ele>21</ele>
					<time>0001-01-01T00:00:00Z</time>
				</trkpt>
				<trkpt lat="53.29387" lon="-0.57600">
					<ele>25</ele>
					<time>0001-01-01T00:00:00Z</time>
				</trkpt>
				<trkpt lat="53.29368" lon="-0.57397">
					<ele>30</ele>
					<time>0001-01-01T00:00:00Z</time>
				</trkpt>
				<trkpt lat="53.29359" lon="-0.57281">
					<ele>34</ele>
					<time>0001-01-01T00:00:00Z</time>
				</trkpt>
				<trkpt lat="53.29353" lon="-0.57189">
					<ele>40</ele>
					<time>0001-01-01T00:00:00Z</time>
				</trkpt>
				<trkpt lat="53.29345" lon="-0.57091">
					<ele>45</ele>
					<time>0001-01-01T00:00:00Z</time>
				</trkpt>
				<trkpt lat="53.29336" lon="-0.57059">
					<ele>46</ele>
					<time>0001-01-01T00:00:00Z</time>
				</trkpt>
				<trkpt lat="53.29321" lon="-0.57067">
					<ele>47</ele>
					<time>0001-01-01T00:00:00Z</time>
				</trkpt>
				<trkpt lat="53.29264" lon="-0.57114">
					<ele>51</ele>
					<time>0001-01-01T00:00:00Z</time>
				</trkpt>
				<trkpt lat="53.29171" lon="-0.57148">
					<ele>52</ele>
					<time>0001-01-01T00:00:00Z</time>
				</trkpt>
				<trkpt lat="53.29166" lon="-0.57151">
					<ele>52</ele>
					<time>0001-01-01T00:00:00Z</time>
				</trkpt>
				<trkpt lat="53.29106" lon="-0.57250">
					<ele>53</ele>
					<time>0001-01-01T00:00:00Z</time>
				</trkpt>
				<trkpt lat="53.29065" lon="-0.57316">
					<ele>54</ele>
					<time>0001-01-01T00:00:00Z</time>
				</trkpt>
				<trkpt lat="53.28973" lon="-0.57365">
					<ele>55</ele>
					<time>0001-01-01T00:00:00Z</time>
				</trkpt>
				<trkpt lat="53.28842" lon="-0.57372">
					<ele>56</ele>
					<time>0001-01-01T00:00:00Z</time>
				</trkpt>
				<trkpt lat="53.28738" lon="-0.57389">
					<ele>56</ele>
					<time>0001-01-01T00:00:00Z</time>
				</trkpt>
				<trkpt lat="53.28634" lon="-0.57415">
					<ele>55</ele>
					<time>0001-01-01T00:00:00Z</time>
				</trkpt>
				<trkpt lat="53.28536" lon="-0.57387">
					<ele>55</ele>
					<time>0001-01-01T00:00:00Z</time>
				</trkpt>
				<trkpt lat="53.28438" lon="-0.57317">
					<ele>57</ele>
					<time>0001-01-01T00:00:00Z</time>
				</trkpt>
				<trkpt lat="53.28339" lon="-0.57189">
					<ele>61</ele>
					<time>0001-01-01T00:00:00Z</time>
				</trkpt>
				<trkpt lat="53.28243" lon="-0.57109">
					<ele>60</ele>
					<time>0001-01-01T00:00:00Z</time>
				</trkpt>
				<trkpt lat="53.28091" lon="-0.57023">
					<ele>62</ele>
					<time>0001-01-01T00:00:00Z</time>
				</trkpt>
				<trkpt lat="53.27966" lon="-0.56932">
					<ele>62</ele>
					<time>0001-01-01T00:00:00Z</time>
				</trkpt>
				<trkpt lat="53.27876" lon="-0.56879">
					<ele>62</ele>
					<time>0001-01-01T00:00:00Z</time>
				</trkpt>
				<trkpt lat="53.27782" lon="-0.56829">
					<ele>62</ele>
					<time>0001-01-01T00:00:00Z</time>
				</trkpt>
				<trkpt lat="53.27663" lon="-0.56755">
					<ele>63</ele>
					<time>0001-01-01T00:00:00Z</time>
				</trkpt>
				<trkpt lat="53.27546" lon="-0.56679">
					<ele>65</ele>
					<time>0001-01-01T00:00:00Z</time>
				</trkpt>
				<trkpt lat="53.27427" lon="-0.56598">
					<ele>65</ele>
					<time>0001-01-01T00:00:00Z</time>
				</trkpt>
				<trkpt lat="53.27314" lon="-0.56546">
					<ele>66</ele>
					<time>0001-01-01T00:00:00Z</time>
				</trkpt>
				<trkpt lat="53.27176" lon="-0.56489">
					<ele>67</ele>
					<time>0001-01-01T00:00:00Z</time>
				</trkpt>
				<trkpt lat="53.27047" lon="-0.56450">
					<ele>68</ele>
					<time>0001-01-01T00:00:00Z</time>
				</trkpt>
				<trkpt lat="53.26941" lon="-0.56425">
					<ele>68</ele>
					<time>0001-01-01T00:00:00Z</time>
				</trkpt>
				<trkpt lat="53.26855" lon="-0.56407">
					<ele>68</ele>
					<time>0001-01-01T00:00:00Z</time>
				</trkpt>
				<trkpt lat="53.26803" lon="-0.56384">
					<ele>68</ele>
					<time>0001-01-01T00:00:00Z</time>
				</trkpt>
				<trkpt lat="53.26726" lon="-0.56335">
					<ele>67</ele>
					<time>0001-01-01T00:00:00Z</time>
				</trkpt>
				<trkpt lat="53.26628" lon="-0.56268">
					<ele>65</ele>
					<time>0001-01-01T00:00:00Z</time>
				</trkpt>
				<trkpt lat="53.26479" lon="-0.56165">
					<ele>66</ele>
					<time>0001-01-01T00:00:00Z</time>
				</trkpt>
				<trkpt lat="53.26337" lon="-0.56056">
					<ele>65</ele>
					<time>0001-01-01T00:00:00Z</time>
				</trkpt>
				<trkpt lat="53.26187" lon="-0.55953">
					<ele>63</ele>
					<time>0001-01-01T00:00:00Z</time>
				</trkpt>
				<trkpt lat="53.26047" lon="-0.55860">
					<ele>63</ele>
					<time>0001-01-01T00:00:00Z</time>
				</trkpt>
				<trkpt lat="53.25941" lon="-0.55798">
					<ele>65</ele>
					<time>0001-01-01T00:00:00Z</time>
				</trkpt>
				<trkpt lat="53.25766" lon="-0.55710">
					<ele>68</ele>
					<time>0001-01-01T00:00:00Z</time>
				</trkpt>
				<trkpt lat="53.25619" lon="-0.55641">
					<ele>65</ele>
					<time>0001-01-01T00:00:00Z</time>
				</trkpt>
				<trkpt lat="53.25466" lon="-0.55580">
					<ele>66</ele>
					<time>0001-01-01T00:00:00Z</time>
				</trkpt>
				<trkpt lat="53.25361" lon="-0.55535">
					<ele>65</ele>
					<time>0001-01-01T00:00:00Z</time>
				</trkpt>
				<trkpt lat="53.25211" lon="-0.55464">
					<ele>65</ele>
					<time>0001-01-01T00:00:00Z</time>
				</trkpt>
				<trkpt lat="53.25060" lon="-0.55364">
					<ele>65</ele>
					<time>0001-01-01T00:00:00Z</time>
				</trkpt>
				<trkpt lat="53.24925" lon="-0.55260">
					<ele>65</ele>
					<time>0001-01-01T00:00:00Z</time>
				</trkpt>
				<trkpt lat="53.24784" lon="-0.55154">
					<ele>63</ele>
					<time>0001-01-01T00:00:00Z</time>
				</trkpt>
				<trkpt lat="53.24640" lon="-0.55048">
					<ele>65</ele>
					<time>0001-01-01T00:00:00Z</time>
				</trkpt>
				<trkpt lat="53.24508" lon="-0.54947">
					<ele>65</ele>
					<time>0001-01-01T00:00:00Z</time>
				</trkpt>
				<trkpt lat="53.24363" lon="-0.54836">
					<ele>64</ele>
					<time>0001-01-01T00:00:00Z</time>
				</trkpt>
				<trkpt lat="53.24255" lon="-0.54754">
					<ele>62</ele>
					<time>0001-01-01T00:00:00Z</time>
				</trkpt>
				<trkpt lat="53.24218" lon="-0.54726">
					<ele>61</ele>
					<time>0001-01-01T00:00:00Z</time>
				</trkpt>
				<trkpt lat="53.24203" lon="-0.54700">
					<ele>60</ele>
					<time>0001-01-01T00:00:00Z</time>
				</trkpt>
				<trkpt lat="53.24200" lon="-0.54685">
					<ele>60</ele>
					<time>0001-01-01T00:00:00Z</time>
				</trkpt>
				<trkpt lat="53.24175" lon="-0.54685">
					<ele>59</ele>
					<time>0001-01-01T00:00:00Z</time>
				</trkpt>
				<trkpt lat="53.24171" lon="-0.54692">
					<ele>60</ele>
					<time>0001-01-01T00:00:00Z</time>
				</trkpt>
				<trkpt lat="53.24108" lon="-0.54738">
					<ele>56</ele>
					<time>0001-01-01T00:00:00Z</time>
				</trkpt>
				<trkpt lat="53.24030" lon="-0.54812">
					<ele>53</ele>
					<time>0001-01-01T00:00:00Z</time>
				</trkpt>
				<trkpt lat="53.23906" lon="-0.54835">
					<ele>47</ele>
					<time>0001-01-01T00:00:00Z</time>
				</trkpt>
				<trkpt lat="53.23770" lon="-0.54847">
					<ele>40</ele>
					<time>0001-01-01T00:00:00Z</time>
				</trkpt>
				<trkpt lat="53.23581" lon="-0.54877">
					<ele>31</ele>
					<time>0001-01-01T00:00:00Z</time>
				</trkpt>
				<trkpt lat="53.23475" lon="-0.54807">
					<ele>29</ele>
					<time>0001-01-01T00:00:00Z</time>
				</trkpt>
				<trkpt lat="53.23473" lon="-0.54803">
					<ele>29</ele>
					<time>0001-01-01T00:00:00Z</time>
				</trkpt>
				<trkpt lat="53.23374" lon="-0.54634">
					<ele>29</ele>
					<time>0001-01-01T00:00:00Z</time>
				</trkpt>
				<trkpt lat="53.23348" lon="-0.54600">
					<ele>29</ele>
					<time>0001-01-01T00:00:00Z</time>
				</trkpt>
				<trkpt lat="53.23330" lon="-0.54582">
					<ele>29</ele>
					<time>0001-01-01T00:00:00Z</time>
				</trkpt>
				<trkpt lat="53.23303" lon="-0.54567">
					<ele>29</ele>
					<time>0001-01-01T00:00:00Z</time>
				</trkpt>
				<trkpt lat="53.23226" lon="-0.54494">
					<ele>29</ele>
					<time>0001-01-01T00:00:00Z</time>
				</trkpt>
				<trkpt lat="53.23210" lon="-0.54469">
					<ele>29</ele>
					<time>0001-01-01T00:00:00Z</time>
				</trkpt>
				<trkpt lat="53.23187" lon="-0.54318">
					<ele>29</ele>
					<time>0001-01-01T00:00:00Z</time>
				</trkpt>
				<trkpt lat="53.23176" lon="-0.54280">
					<ele>29</ele>
					<time>0001-01-01T00:00:00Z</time>
				</trkpt>
				<trkpt lat="53.23160" lon="-0.54241">
					<ele>29</ele>
					<time>0001-01-01T00:00:00Z</time>
				</trkpt>
				<trkpt lat="53.23141" lon="-0.54213">
					<ele>29</ele>
					<time>0001-01-01T00:00:00Z</time>
				</trkpt>
				<trkpt lat="53.23130" lon="-0.54217">
					<ele>29</ele>
					<time>0001-01-01T00:00:00Z</time>
				</trkpt>
				<trkpt lat="53.23061" lon="-0.54210">
					<ele>29</ele>
					<time>0001-01-01T00:00:00Z</time>
				</trkpt>
				<trkpt lat="53.23034" lon="-0.54226">
					<ele>29</ele>
					<time>0001-01-01T00:00:00Z</time>
				</trkpt>
				<trkpt lat="53.22948" lon="-0.54277">
					<ele>29</ele>
					<time>0001-01-01T00:00:00Z</time>
				</trkpt>
				<trkpt lat="53.22941" lon="-0.54218">
					<ele>29</ele>
					<time>0001-01-01T00:00:00Z</time>
				</trkpt>
				<trkpt lat="53.22961" lon="-0.54151">
					<ele>29</ele>
					<time>0001-01-01T00:00:00Z</time>
				</trkpt>
				<trkpt lat="53.22965" lon="-0.54113">
					<ele>29</ele>
					<time>0001-01-01T00:00:00Z</time>
				</trkpt>
				<trkpt lat="53.22957" lon="-0.54061">
					<ele>29</ele>
					<time>0001-01-01T00:00:00Z</time>
				</trkpt>
				<trkpt lat="53.22951" lon="-0.54012">
					<ele>29</ele>
					<time>0001-01-01T00:00:00Z</time>
				</trkpt>
				<trkpt lat="53.22966" lon="-0.53929">
					<ele>29</ele>
					<time>0001-01-01T00:00:00Z</time>
				</trkpt>
				<trkpt lat="53.22984" lon="-0.53873">
					<ele>29</ele>
					<time>0001-01-01T00:00:00Z</time>
				</trkpt>
				<trkpt lat="53.23029" lon="-0.53762">
					<ele>29</ele>
					<time>0001-01-01T00:00:00Z</time>
				</trkpt>
				<trkpt lat="53.23056" lon="-0.53655">
					<ele>29</ele>
					<time>0001-01-01T00:00:00Z</time>
				</trkpt>
				<trkpt lat="53.23076" lon="-0.53636">
					<ele>29</ele>
					<time>0001-01-01T00:00:00Z</time>
				</trkpt>
				<trkpt lat="53.23076" lon="-0.53622">
					<ele>29</ele>
					<time>0001-01-01T00:00:00Z</time>
				</trkpt>
				<trkpt lat="53.23006" lon="-0.53629">
					<ele>29</ele>
					<time>0001-01-01T00:00:00Z</time>
				</trkpt>
				<trkpt lat="53.22932" lon="-0.53647">
					<ele>29</ele>
					<time>0001-01-01T00:00:00Z</time>
				</trkpt>
				<trkpt lat="53.22811" lon="-0.53658">
					<ele>29</ele>
					<time>0001-01-01T00:00:00Z</time>
				</trkpt>
				<trkpt lat="53.22698" lon="-0.53656">
					<ele>29</ele>
					<time>0001-01-01T00:00:00Z</time>
				</trkpt>
				<trkpt lat="53.22616" lon="-0.53664">
					<ele>29</ele>
					<time>0001-01-01T00:00:00Z</time>
				</trkpt>
				<trkpt lat="53.22559" lon="-0.53656">
					<ele>29</ele>
					<time>0001-01-01T00:00:00Z</time>
				</trkpt>
				<trkpt lat="53.22501" lon="-0.53640">
					<ele>29</ele>
					<time>0001-01-01T00:00:00Z</time>
				</trkpt>
				<trkpt lat="53.22445" lon="-0.53614">
					<ele>29</ele>
					<time>0001-01-01T00:00:00Z</time>
				</trkpt>
				<trkpt lat="53.22314" lon="-0.53515">
					<ele>29</ele>
					<time>0001-01-01T00:00:00Z</time>
				</trkpt>
				<trkpt lat="53.22158" lon="-0.53439">
					<ele>29</ele>
					<time>0001-01-01T00:00:00Z</time>
				</trkpt>
				<trkpt lat="53.21997" lon="-0.53375">
					<ele>29</ele>
					<time>0001-01-01T00:00:00Z</time>
				</trkpt>
				<trkpt lat="53.21956" lon="-0.53352">
					<ele>29</ele>
					<time>0001-01-01T00:00:00Z</time>
				</trkpt>
				<trkpt lat="53.21924" lon="-0.53330">
					<ele>29</ele>
					<time>0001-01-01T00:00:00Z</time>
				</trkpt>
				<trkpt lat="53.21900" lon="-0.53321">
					<ele>29</ele>
					<time>0001-01-01T00:00:00Z</time>
				</trkpt>
				<trkpt lat="53.21884" lon="-0.53304">
					<ele>29</ele>
					<time>0001-01-01T00:00:00Z</time>
				</trkpt>
				<trkpt lat="53.21838" lon="-0.53238">
					<ele>29</ele>
					<time>0001-01-01T00:00:00Z</time>
				</trkpt>
				<trkpt lat="53.21757" lon="-0.53097">
					<ele>29</ele>
					<time>0001-01-01T00:00:00Z</time>
				</trkpt>
				<trkpt lat="53.21815" lon="-0.52793">
					<ele>29</ele>
					<time>0001-01-01T00:00:00Z</time>
				</trkpt>
				<trkpt lat="53.21822" lon="-0.52772">
					<ele>29</ele>
					<time>0001-01-01T00:00:00Z</time>
				</trkpt>
				<trkpt lat="53.21867" lon="-0.52720">
					<ele>29</ele>
					<time>0001-01-01T00:00:00Z</time>
				</trkpt>
				<trkpt lat="53.21877" lon="-0.52700">
					<ele>29</ele>
					<time>0001-01-01T00:00:00Z</time>
				</trkpt>
				<trkpt lat="53.21895" lon="-0.52613">
					<ele>29</ele>
					<time>0001-01-01T00:00:00Z</time>
				</trkpt>
				<trkpt lat="53.21917" lon="-0.52443">
					<ele>29</ele>
					<time>0001-01-01T00:00:00Z</time>
				</trkpt>
				<trkpt lat="53.21951" lon="-0.52269">
					<ele>29</ele>
					<time>0001-01-01T00:00:00Z</time>
				</trkpt>
				<trkpt lat="53.21968" lon="-0.52106">
					<ele>29</ele>
					<time>0001-01-01T00:00:00Z</time>
				</trkpt>
				<trkpt lat="53.21983" lon="-0.51921">
					<ele>29</ele>
					<time>0001-01-01T00:00:00Z</time>
				</trkpt>
				<trkpt lat="53.22004" lon="-0.51592">
					<ele>29</ele>
					<time>0001-01-01T00:00:00Z</time>
				</trkpt>
				<trkpt lat="53.22031" lon="-0.51357">
					<ele>29</ele>
					<time>0001-01-01T00:00:00Z</time>
				</trkpt>
				<trkpt lat="53.22046" lon="-0.51122">
					<ele>29</ele>
					<time>0001-01-01T00:00:00Z</time>
				</trkpt>
				<trkpt lat="53.22051" lon="-0.50916">
					<ele>29</ele>
					<time>0001-01-01T00:00:00Z</time>
				</trkpt>
				<trkpt lat="53.22057" lon="-0.50859">
					<ele>29</ele>
					<time>0001-01-01T00:00:00Z</time>
				</trkpt>
				<trkpt lat="53.22108" lon="-0.50634">
					<ele>29</ele>
					<time>0001-01-01T00:00:00Z</time>
				</trkpt>
				<trkpt lat="53.22126" lon="-0.50536">
					<ele>29</ele>
					<time>0001-01-01T00:00:00Z</time>
				</trkpt>
				<trkpt lat="53.22149" lon="-0.50138">
					<ele>29</ele>
					<time>0001-01-01T00:00:00Z</time>
				</trkpt>
				<trkpt lat="53.22210" lon="-0.49734">
					<ele>29</ele>
					<time>0001-01-01T00:00:00Z</time>
				</trkpt>
				<trkpt lat="53.22260" lon="-0.49493">
					<ele>29</ele>
					<time>0001-01-01T00:00:00Z</time>
				</trkpt>
				<trkpt lat="53.22274" lon="-0.49464">
					<ele>29</ele>
					<time>0001-01-01T00:00:00Z</time>
				</trkpt>
				<trkpt lat="53.22288" lon="-0.49401">
					<ele>29</ele>
					<time>0001-01-01T00:00:00Z</time>
				</trkpt>
				<trkpt lat="53.22324" lon="-0.49100">
					<ele>29</ele>
					<time>0001-01-01T00:00:00Z</time>
				</trkpt>
				<trkpt lat="53.22348" lon="-0.48936">
					<ele>29</ele>
					<time>0001-01-01T00:00:00Z</time>
				</trkpt>
				<trkpt lat="53.22352" lon="-0.48864">
					<ele>29</ele>
					<time>0001-01-01T00:00:00Z</time>
				</trkpt>
				<trkpt lat="53.22396" lon="-0.48443">
					<ele>29</ele>
					<time>0001-01-01T00:00:00Z</time>
				</trkpt>
				<trkpt lat="53.22411" lon="-0.47812">
					<ele>29</ele>
					<time>0001-01-01T00:00:00Z</time>
				</trkpt>
				<trkpt lat="53.22417" lon="-0.47702">
					<ele>29</ele>
					<time>0001-01-01T00:00:00Z</time>
				</trkpt>
				<trkpt lat="53.22429" lon="-0.47581">
					<ele>29</ele>
					<time>0001-01-01T00:00:00Z</time>
				</trkpt>
				<trkpt lat="53.22428" lon="-0.47480">
					<ele>29</ele>
					<time>0001-01-01T00:00:00Z</time>
				</trkpt>
				<trkpt lat="53.22418" lon="-0.47364">
					<ele>29</ele>
					<time>0001-01-01T00:00:00Z</time>
				</trkpt>
				<trkpt lat="53.22400" lon="-0.47281">
					<ele>29</ele>
					<time>0001-01-01T00:00:00Z</time>
				</trkpt>
				<trkpt lat="53.22389" lon="-0.47068">
					<ele>29</ele>
					<time>0001-01-01T00:00:00Z</time>
				</trkpt>
				<trkpt lat="53.22373" lon="-0.46956">
					<ele>29</ele>
					<time>0001-01-01T00:00:00Z</time>
				</trkpt>
				<trkpt lat="53.22366" lon="-0.46786">
					<ele>29</ele>
					<time>0001-01-01T00:00:00Z</time>
				</trkpt>
				<trkpt lat="53.22344" lon="-0.46672">
					<ele>29</ele>
					<time>0001-01-01T00:00:00Z</time>
				</trkpt>
				<trkpt lat="53.22340" lon="-0.46636">
					<ele>29</ele>
					<time>0001-01-01T00:00:00Z</time>
				</trkpt>
				<trkpt lat="53.22395" lon="-0.46565">
					<ele>28</ele>
					<time>0001-01-01T00:00:00Z</time>
				</trkpt>
				<trkpt lat="53.22342" lon="-0.46560">
					<ele>8</ele>
					<time>0001-01-01T00:00:00Z</time>
				</trkpt>
				<trkpt lat="53.22339" lon="-0.46558">
					<ele>8</ele>
					<time>0001-01-01T00:00:00Z</time>
				</trkpt>
				<trkpt lat="53.22324" lon="-0.46465">
					<ele>6</ele>
					<time>0001-01-01T00:00:00Z</time>
				</trkpt>
				<trkpt lat="53.22309" lon="-0.46328">
					<ele>5</ele>
					<time>0001-01-01T00:00:00Z</time>
				</trkpt>
				<trkpt lat="53.22297" lon="-0.46225">
					<ele>3</ele>
					<time>0001-01-01T00:00:00Z</time>
				</trkpt>
				<trkpt lat="53.22292" lon="-0.46198">
					<ele>3</ele>
					<time>0001-01-01T00:00:00Z</time>
				</trkpt>
				<trkpt lat="53.22299" lon="-0.46256">
					<ele>2</ele>
					<time>0001-01-01T00:00:00Z</time>
				</trkpt>
				<trkpt lat="53.22317" lon="-0.46400">
					<ele>2</ele>
					<time>0001-01-01T00:00:00Z</time>
				</trkpt>
				<trkpt lat="53.22331" lon="-0.46557">
					<ele>2</ele>
					<time>0001-01-01T00:00:00Z</time>
				</trkpt>
				<trkpt lat="53.22352" lon="-0.46746">
					<ele>2</ele>
					<time>0001-01-01T00:00:00Z</time>
				</trkpt>
				<trkpt lat="53.22363" lon="-0.46810">
					<ele>1</ele>
					<time>0001-01-01T00:00:00Z</time>
				</trkpt>
				<trkpt lat="53.22345" lon="-0.46837">
					<ele>1</ele>
					<time>0001-01-01T00:00:00Z</time>
				</trkpt>
				<trkpt lat="53.22257" lon="-0.46799">
					<ele>3</ele>
					<time>0001-01-01T00:00:00Z</time>
				</trkpt>
				<trkpt lat="53.22176" lon="-0.46786">
					<ele>3</ele>
					<time>0001-01-01T00:00:00Z</time>
				</trkpt>
				<trkpt lat="53.22157" lon="-0.46798">
					<ele>3</ele>
					<time>0001-01-01T00:00:00Z</time>
				</trkpt>
				<trkpt lat="53.22070" lon="-0.46938">
					<ele>4</ele>
					<time>0001-01-01T00:00:00Z</time>
				</trkpt>
				<trkpt lat="53.22050" lon="-0.46991">
					<ele>6</ele>
					<time>0001-01-01T00:00:00Z</time>
				</trkpt>
				<trkpt lat="53.21999" lon="-0.47152">
					<ele>11</ele>
					<time>0001-01-01T00:00:00Z</time>
				</trkpt>
				<trkpt lat="53.21975" lon="-0.47223">
					<ele>14</ele>
					<time>0001-01-01T00:00:00Z</time>
				</trkpt>
				<trkpt lat="53.21962" lon="-0.47220">
					<ele>14</ele>
					<time>0001-01-01T00:00:00Z</time>
				</trkpt>
				<trkpt lat="53.21875" lon="-0.47169">
					<ele>16</ele>
					<time>0001-01-01T00:00:00Z</time>
				</trkpt>
				<trkpt lat="53.21777" lon="-0.47155">
					<ele>17</ele>
					<time>0001-01-01T00:00:00Z</time>
				</trkpt>
				<trkpt lat="53.21696" lon="-0.47122">
					<ele>18</ele>
					<time>0001-01-01T00:00:00Z</time>
				</trkpt>
				<trkpt lat="53.21603" lon="-0.47076">
					<ele>18</ele>
					<time>0001-01-01T00:00:00Z</time>
				</trkpt>
				<trkpt lat="53.21452" lon="-0.47020">
					<ele>14</ele>
					<time>0001-01-01T00:00:00Z</time>
				</trkpt>
				<trkpt lat="53.21276" lon="-0.46970">
					<ele>9</ele>
					<time>0001-01-01T00:00:00Z</time>
				</trkpt>
				<trkpt lat="53.21244" lon="-0.46906">
					<ele>9</ele>
					<time>0001-01-01T00:00:00Z</time>
				</trkpt>
				<trkpt lat="53.21256" lon="-0.46738">
					<ele>12</ele>
					<time>0001-01-01T00:00:00Z</time>
				</trkpt>
				<trkpt lat="53.21223" lon="-0.46683">
					<ele>13</ele>
					<time>0001-01-01T00:00:00Z</time>
				</trkpt>
				<trkpt lat="53.21109" lon="-0.46649">
					<ele>15</ele>
					<time>0001-01-01T00:00:00Z</time>
				</trkpt>
				<trkpt lat="53.20971" lon="-0.46663">
					<ele>18</ele>
					<time>0001-01-01T00:00:00Z</time>
				</trkpt>
				<trkpt lat="53.20941" lon="-0.46669">
					<ele>19</ele>
					<time>0001-01-01T00:00:00Z</time>
				</trkpt>
				<trkpt lat="53.20892" lon="-0.46684">
					<ele>21</ele>
					<time>0001-01-01T00:00:00Z</time>
				</trkpt>
				<trkpt lat="53.20783" lon="-0.46726">
					<ele>27</ele>
					<time>0001-01-01T00:00:00Z</time>
				</trkpt>
				<trkpt lat="53.20658" lon="-0.46756">
					<ele>28</ele>
					<time>0001-01-01T00:00:00Z</time>
				</trkpt>
				<trkpt lat="53.20500" lon="-0.46770">
					<ele>28</ele>
					<time>0001-01-01T00:00:00Z</time>
				</trkpt>
				<trkpt lat="53.20357" lon="-0.46810">
					<ele>29</ele>
					<time>0001-01-01T00:00:00Z</time>
				</trkpt>
				<trkpt lat="53.20244" lon="-0.46809">
					<ele>30</ele>
					<time>0001-01-01T00:00:00Z</time>
				</trkpt>
				<trkpt lat="53.20067" lon="-0.46771">
					<ele>33</ele>
					<time>0001-01-01T00:00:00Z</time>
				</trkpt>
				<trkpt lat="53.19869" lon="-0.46786">
					<ele>35</ele>
					<time>0001-01-01T00:00:00Z</time>
				</trkpt>
				<trkpt lat="53.19665" lon="-0.46821">
					<ele>38</ele>
					<time>0001-01-01T00:00:00Z</time>
				</trkpt>
				<trkpt lat="53.19499" lon="-0.46869">
					<ele>39</ele>
					<time>0001-01-01T00:00:00Z</time>
				</trkpt>
				<trkpt lat="53.19335" lon="-0.46934">
					<ele>37</ele>
					<time>0001-01-01T00:00:00Z</time>
				</trkpt>
				<trkpt lat="53.19316" lon="-0.46947">
					<ele>37</ele>
					<time>0001-01-01T00:00:00Z</time>
				</trkpt>
				<trkpt lat="53.19307" lon="-0.46930">
					<ele>36</ele>
					<time>0001-01-01T00:00:00Z</time>
				</trkpt>
				<trkpt lat="53.19247" lon="-0.46789">
					<ele>34</ele>
					<time>0001-01-01T00:00:00Z</time>
				</trkpt>
				<trkpt lat="53.19162" lon="-0.46646">
					<ele>38</ele>
					<time>0001-01-01T00:00:00Z</time>
				</trkpt>
				<trkpt lat="53.19131" lon="-0.46618">
					<ele>39</ele>
					<time>0001-01-01T00:00:00Z</time>
				</trkpt>
				<trkpt lat="53.19033" lon="-0.46563">
					<ele>40</ele>
					<time>0001-01-01T00:00:00Z</time>
				</trkpt>
				<trkpt lat="53.18922" lon="-0.46405">
					<ele>41</ele>
					<time>0001-01-01T00:00:00Z</time>
				</trkpt>
				<trkpt lat="53.18794" lon="-0.46218">
					<ele>42</ele>
					<time>0001-01-01T00:00:00Z</time>
				</trkpt>
				<trkpt lat="53.18690" lon="-0.46066">
					<ele>41</ele>
					<time>0001-01-01T00:00:00Z</time>
				</trkpt>
				<trkpt lat="53.18576" lon="-0.45897">
					<ele>41</ele>
					<time>0001-01-01T00:00:00Z</time>
				</trkpt>
				<trkpt lat="53.18473" lon="-0.45741">
					<ele>38</ele>
					<time>0001-01-01T00:00:00Z</time>
				</trkpt>
				<trkpt lat="53.18366" lon="-0.45596">
					<ele>38</ele>
					<time>0001-01-01T00:00:00Z</time>
				</trkpt>
				<trkpt lat="53.18273" lon="-0.45466">
					<ele>40</ele>
					<time>0001-01-01T00:00:00Z</time>
				</trkpt>
				<trkpt lat="53.18171" lon="-0.45275">
					<ele>40</ele>
					<time>0001-01-01T00:00:00Z</time>
				</trkpt>
				<trkpt lat="53.18069" lon="-0.45079">
					<ele>39</ele>
					<time>0001-01-01T00:00:00Z</time>
				</trkpt>
				<trkpt lat="53.17933" lon="-0.44869">
					<ele>35</ele>
					<time>0001-01-01T00:00:00Z</time>
				</trkpt>
				<trkpt lat="53.17753" lon="-0.44656">
					<ele>30</ele>
					<time>0001-01-01T00:00:00Z</time>
				</trkpt>
				<trkpt lat="53.17666" lon="-0.44563">
					<ele>32</ele>
					<time>0001-01-01T00:00:00Z</time>
				</trkpt>
				<trkpt lat="53.17560" lon="-0.44466">
					<ele>34</ele>
					<time>0001-01-01T00:00:00Z</time>
				</trkpt>
				<trkpt lat="53.17435" lon="-0.44339">
					<ele>35</ele>
					<time>0001-01-01T00:00:00Z</time>
				</trkpt>
				<trkpt lat="53.17336" lon="-0.44211">
					<ele>36</ele>
					<time>0001-01-01T00:00:00Z</time>
				</trkpt>
				<trkpt lat="53.17198" lon="-0.44074">
					<ele>37</ele>
					<time>0001-01-01T00:00:00Z</time>
				</trkpt>
				<trkpt lat="53.17044" lon="-0.43981">
					<ele>36</ele>
					<time>0001-01-01T00:00:00Z</time>
				</trkpt>
				<trkpt lat="53.16891" lon="-0.43875">
					<ele>33</ele>
					<time>0001-01-01T00:00:00Z</time>
				</trkpt>
				<trkpt lat="53.16745" lon="-0.43719">
					<ele>30</ele>
					<time>0001-01-01T00:00:00Z</time>
				</trkpt>
				<trkpt lat="53.16668" lon="-0.43643">
					<ele>33</ele>
					<time>0001-01-01T00:00:00Z</time>
				</trkpt>
				<trkpt lat="53.16553" lon="-0.43554">
					<ele>32</ele>
					<time>0001-01-01T00:00:00Z</time>
				</trkpt>
				<trkpt lat="53.16413" lon="-0.43462">
					<ele>31</ele>
					<time>0001-01-01T00:00:00Z</time>
				</trkpt>
				<trkpt lat="53.16291" lon="-0.43401">
					<ele>34</ele>
					<time>0001-01-01T00:00:00Z</time>
				</trkpt>
				<trkpt lat="53.16140" lon="-0.43318">
					<ele>35</ele>
					<time>0001-01-01T00:00:00Z</time>
				</trkpt>
				<trkpt lat="53.15986" lon="-0.43194">
					<ele>36</ele>
					<time>0001-01-01T00:00:00Z</time>
				</trkpt>
				<trkpt lat="53.15890" lon="-0.43035">
					<ele>35</ele>
					<time>0001-01-01T00:00:00Z</time>
				</trkpt>
				<trkpt lat="53.15805" lon="-0.42819">
					<ele>32</ele>
					<time>0001-01-01T00:00:00Z</time>
				</trkpt>
				<trkpt lat="53.15696" lon="-0.42626">
					<ele>29</ele>
					<time>0001-01-01T00:00:00Z</time>
				</trkpt>
				<trkpt lat="53.15567" lon="-0.42431">
					<ele>26</ele>
					<time>0001-01-01T00:00:00Z</time>
				</trkpt>
				<trkpt lat="53.15443" lon="-0.42311">
					<ele>26</ele>
					<time>0001-01-01T00:00:00Z</time>
				</trkpt>
				<trkpt lat="53.15316" lon="-0.42270">
					<ele>28</ele>
					<time>0001-01-01T00:00:00Z</time>
				</trkpt>
				<trkpt lat="53.15168" lon="-0.42236">
					<ele>28</ele>
					<time>0001-01-01T00:00:00Z</time>
				</trkpt>
				<trkpt lat="53.15018" lon="-0.42190">
					<ele>27</ele>
					<time>0001-01-01T00:00:00Z</time>
				</trkpt>
				<trkpt lat="53.14873" lon="-0.42133">
					<ele>25</ele>
					<time>0001-01-01T00:00:00Z</time>
				</trkpt>
				<trkpt lat="53.14782" lon="-0.42010">
					<ele>20</ele>
					<time>0001-01-01T00:00:00Z</time>
				</trkpt>
				<trkpt lat="53.14707" lon="-0.41864">
					<ele>19</ele>
					<time>0001-01-01T00:00:00Z</time>
				</trkpt>
				<trkpt lat="53.14666" lon="-0.41833">
					<ele>21</ele>
					<time>0001-01-01T00:00:00Z</time>
				</trkpt>
				<trkpt lat="53.14574" lon="-0.41805">
					<ele>29</ele>
					<time>0001-01-01T00:00:00Z</time>
				</trkpt>
				<trkpt lat="53.14478" lon="-0.41815">
					<ele>32</ele>
					<time>0001-01-01T00:00:00Z</time>
				</trkpt>
				<trkpt lat="53.14380" lon="-0.41789">
					<ele>35</ele>
					<time>0001-01-01T00:00:00Z</time>
				</trkpt>
				<trkpt lat="53.14273" lon="-0.41724">
					<ele>35</ele>
					<time>0001-01-01T00:00:00Z</time>
				</trkpt>
				<trkpt lat="53.14123" lon="-0.41592">
					<ele>34</ele>
					<time>0001-01-01T00:00:00Z</time>
				</trkpt>
				<trkpt lat="53.13980" lon="-0.41464">
					<ele>33</ele>
					<time>0001-01-01T00:00:00Z</time>
				</trkpt>
				<trkpt lat="53.13835" lon="-0.41334">
					<ele>32</ele>
					<time>0001-01-01T00:00:00Z</time>
				</trkpt>
				<trkpt lat="53.13705" lon="-0.41197">
					<ele>34</ele>
					<time>0001-01-01T00:00:00Z</time>
				</trkpt>
				<trkpt lat="53.13576" lon="-0.41063">
					<ele>31</ele>
					<time>0001-01-01T00:00:00Z</time>
				</trkpt>
				<trkpt lat="53.13275" lon="-0.40877">
					<ele>31</ele>
					<time>0001-01-01T00:00:00Z</time>
				</trkpt>
				<trkpt lat="53.13128" lon="-0.40744">
					<ele>28</ele>
					<time>0001-01-01T00:00:00Z</time>
				</trkpt>
				<trkpt lat="53.12916" lon="-0.40611">
					<ele>20</ele>
					<time>0001-01-01T00:00:00Z</time>
				</trkpt>
				<trkpt lat="53.12786" lon="-0.40587">
					<ele>19</ele>
					<time>0001-01-01T00:00:00Z</time>
				</trkpt>
				<trkpt lat="53.12590" lon="-0.40634">
					<ele>21</ele>
					<time>0001-01-01T00:00:00Z</time>
				</trkpt>
				<trkpt lat="53.12471" lon="-0.40642">
					<ele>25</ele>
					<time>0001-01-01T00:00:00Z</time>
				</trkpt>
				<trkpt lat="53.12364" lon="-0.40617">
					<ele>27</ele>
					<time>0001-01-01T00:00:00Z</time>
				</trkpt>
				<trkpt lat="53.12214" lon="-0.40683">
					<ele>28</ele>
					<time>0001-01-01T00:00:00Z</time>
				</trkpt>
				<trkpt lat="53.12039" lon="-0.40794">
					<ele>30</ele>
					<time>0001-01-01T00:00:00Z</time>
				</trkpt>
				<trkpt lat="53.11861" lon="-0.40839">
					<ele>32</ele>
					<time>0001-01-01T00:00:00Z</time>
				</trkpt>
				<trkpt lat="53.11662" lon="-0.40858">
					<ele>32</ele>
					<time>0001-01-01T00:00:00Z</time>
				</trkpt>
				<trkpt lat="53.11488" lon="-0.40863">
					<ele>32</ele>
					<time>0001-01-01T00:00:00Z</time>
				</trkpt>
				<trkpt lat="53.11292" lon="-0.40815">
					<ele>33</ele>
					<time>0001-01-01T00:00:00Z</time>
				</trkpt>
				<trkpt lat="53.11085" lon="-0.40737">
					<ele>30</ele>
					<time>0001-01-01T00:00:00Z</time>
				</trkpt>
				<trkpt lat="53.10912" lon="-0.40694">
					<ele>21</ele>
					<time>0001-01-01T00:00:00Z</time>
				</trkpt>
				<trkpt lat="53.10742" lon="-0.40625">
					<ele>22</ele>
					<time>0001-01-01T00:00:00Z</time>
				</trkpt>
				<trkpt lat="53.10671" lon="-0.40571">
					<ele>23</ele>
					<time>0001-01-01T00:00:00Z</time>
				</trkpt>
				<trkpt lat="53.10586" lon="-0.40429">
					<ele>24</ele>
					<time>0001-01-01T00:00:00Z</time>
				</trkpt>
				<trkpt lat="53.10468" lon="-0.40344">
					<ele>25</ele>
					<time>0001-01-01T00:00:00Z</time>
				</trkpt>
				<trkpt lat="53.10269" lon="-0.40220">
					<ele>24</ele>
					<time>0001-01-01T00:00:00Z</time>
				</trkpt>
				<trkpt lat="53.10126" lon="-0.40137">
					<ele>26</ele>
					<time>0001-01-01T00:00:00Z</time>
				</trkpt>
				<trkpt lat="53.09994" lon="-0.40055">
					<ele>25</ele>
					<time>0001-01-01T00:00:00Z</time>
				</trkpt>
				<trkpt lat="53.09832" lon="-0.39971">
					<ele>23</ele>
					<time>0001-01-01T00:00:00Z</time>
				</trkpt>
				<trkpt lat="53.09680" lon="-0.39873">
					<ele>24</ele>
					<time>0001-01-01T00:00:00Z</time>
				</trkpt>
				<trkpt lat="53.09532" lon="-0.39820">
					<ele>25</ele>
					<time>0001-01-01T00:00:00Z</time>
				</trkpt>
				<trkpt lat="53.09432" lon="-0.39791">
					<ele>28</ele>
					<time>0001-01-01T00:00:00Z</time>
				</trkpt>
				<trkpt lat="53.09307" lon="-0.39745">
					<ele>26</ele>
					<time>0001-01-01T00:00:00Z</time>
				</trkpt>
				<trkpt lat="53.09281" lon="-0.39718">
					<ele>26</ele>
					<time>0001-01-01T00:00:00Z</time>
				</trkpt>
				<trkpt lat="53.09155" lon="-0.39475">
					<ele>23</ele>
					<time>0001-01-01T00:00:00Z</time>
				</trkpt>
				<trkpt lat="53.09138" lon="-0.39447">
					<ele>23</ele>
					<time>0001-01-01T00:00:00Z</time>
				</trkpt>
				<trkpt lat="53.09108" lon="-0.39426">
					<ele>22</ele>
					<time>0001-01-01T00:00:00Z</time>
				</trkpt>
				<trkpt lat="53.08949" lon="-0.39394">
					<ele>21</ele>
					<time>0001-01-01T00:00:00Z</time>
				</trkpt>
				<trkpt lat="53.08836" lon="-0.39370">
					<ele>24</ele>
					<time>0001-01-01T00:00:00Z</time>
				</trkpt>
				<trkpt lat="53.08685" lon="-0.39313">
					<ele>23</ele>
					<time>0001-01-01T00:00:00Z</time>
				</trkpt>
				<trkpt lat="53.08569" lon="-0.39203">
					<ele>24</ele>
					<time>0001-01-01T00:00:00Z</time>
				</trkpt>
				<trkpt lat="53.08467" lon="-0.39186">
					<ele>23</ele>
					<time>0001-01-01T00:00:00Z</time>
				</trkpt>
				<trkpt lat="53.08350" lon="-0.39211">
					<ele>25</ele>
					<time>0001-01-01T00:00:00Z</time>
				</trkpt>
				<trkpt lat="53.08246" lon="-0.39212">
					<ele>25</ele>
					<time>0001-01-01T00:00:00Z</time>
				</trkpt>
				<trkpt lat="53.08106" lon="-0.39238">
					<ele>25</ele>
					<time>0001-01-01T00:00:00Z</time>
				</trkpt>
				<trkpt lat="53.07958" lon="-0.39274">
					<ele>24</ele>
					<time>0001-01-01T00:00:00Z</time>
				</trkpt>
				<trkpt lat="53.07816" lon="-0.39294">
					<ele>21</ele>
					<time>0001-01-01T00:00:00Z</time>
				</trkpt>
				<trkpt lat="53.07708" lon="-0.39301">
					<ele>18</ele>
					<time>0001-01-01T00:00:00Z</time>
				</trkpt>
				<trkpt lat="53.07618" lon="-0.39313">
					<ele>22</ele>
					<time>0001-01-01T00:00:00Z</time>
				</trkpt>
				<trkpt lat="53.07498" lon="-0.39385">
					<ele>21</ele>
					<time>0001-01-01T00:00:00Z</time>
				</trkpt>
				<trkpt lat="53.07370" lon="-0.39447">
					<ele>22</ele>
					<time>0001-01-01T00:00:00Z</time>
				</trkpt>
				<trkpt lat="53.07264" lon="-0.39505">
					<ele>22</ele>
					<time>0001-01-01T00:00:00Z</time>
				</trkpt>
				<trkpt lat="53.07148" lon="-0.39567">
					<ele>22</ele>
					<time>0001-01-01T00:00:00Z</time>
				</trkpt>
				<trkpt lat="53.07021" lon="-0.39599">
					<ele>23</ele>
					<time>0001-01-01T00:00:00Z</time>
				</trkpt>
				<trkpt lat="53.06954" lon="-0.39617">
					<ele>23</ele>
					<time>0001-01-01T00:00:00Z</time>
				</trkpt>
				<trkpt lat="53.06838" lon="-0.39582">
					<ele>28</ele>
					<time>0001-01-01T00:00:00Z</time>
				</trkpt>
				<trkpt lat="53.06732" lon="-0.39571">
					<ele>30</ele>
					<time>0001-01-01T00:00:00Z</time>
				</trkpt>
				<trkpt lat="53.06687" lon="-0.39566">
					<ele>31</ele>
					<time>0001-01-01T00:00:00Z</time>
				</trkpt>
				<trkpt lat="53.06678" lon="-0.39565">
					<ele>31</ele>
					<time>0001-01-01T00:00:00Z</time>
				</trkpt>
				<trkpt lat="53.06656" lon="-0.39561">
					<ele>31</ele>
					<time>0001-01-01T00:00:00Z</time>
				</trkpt>
				<trkpt lat="53.06633" lon="-0.39554">
					<ele>31</ele>
					<time>0001-01-01T00:00:00Z</time>
				</trkpt>
				<trkpt lat="53.06604" lon="-0.39546">
					<ele>31</ele>
					<time>0001-01-01T00:00:00Z</time>
				</trkpt>
				<trkpt lat="53.06489" lon="-0.39530">
					<ele>30</ele>
					<time>0001-01-01T00:00:00Z</time>
				</trkpt>
				<trkpt lat="53.06330" lon="-0.39525">
					<ele>28</ele>
					<time>0001-01-01T00:00:00Z</time>
				</trkpt>
				<trkpt lat="53.06179" lon="-0.39543">
					<ele>23</ele>
					<time>0001-01-01T00:00:00Z</time>
				</trkpt>
				<trkpt lat="53.06042" lon="-0.39595">
					<ele>22</ele>
					<time>0001-01-01T00:00:00Z</time>
				</trkpt>
				<trkpt lat="53.05928" lon="-0.39602">
					<ele>21</ele>
					<time>0001-01-01T00:00:00Z</time>
				</trkpt>
				<trkpt lat="53.05789" lon="-0.39620">
					<ele>22</ele>
					<time>0001-01-01T00:00:00Z</time>
				</trkpt>
				<trkpt lat="53.05638" lon="-0.39639">
					<ele>20</ele>
					<time>0001-01-01T00:00:00Z</time>
				</trkpt>
				<trkpt lat="53.05480" lon="-0.39652">
					<ele>21</ele>
					<time>0001-01-01T00:00:00Z</time>
				</trkpt>
				<trkpt lat="53.05325" lon="-0.39625">
					<ele>20</ele>
					<time>0001-01-01T00:00:00Z</time>
				</trkpt>
				<trkpt lat="53.05188" lon="-0.39645">
					<ele>21</ele>
					<time>0001-01-01T00:00:00Z</time>
				</trkpt>
				<trkpt lat="53.04993" lon="-0.39632">
					<ele>20</ele>
					<time>0001-01-01T00:00:00Z</time>
				</trkpt>
				<trkpt lat="53.04820" lon="-0.39602">
					<ele>18</ele>
					<time>0001-01-01T00:00:00Z</time>
				</trkpt>
				<trkpt lat="53.04657" lon="-0.39538">
					<ele>18</ele>
					<time>0001-01-01T00:00:00Z</time>
				</trkpt>
				<trkpt lat="53.04529" lon="-0.39500">
					<ele>18</ele>
					<time>0001-01-01T00:00:00Z</time>
				</trkpt>
				<trkpt lat="53.04478" lon="-0.39509">
					<ele>18</ele>
					<time>0001-01-01T00:00:00Z</time>
				</trkpt>
				<trkpt lat="53.04459" lon="-0.39457">
					<ele>18</ele>
					<time>0001-01-01T00:00:00Z</time>
				</trkpt>
				<trkpt lat="53.04468" lon="-0.39218">
					<ele>18</ele>
					<time>0001-01-01T00:00:00Z</time>
				</trkpt>
				<trkpt lat="53.04476" lon="-0.38959">
					<ele>17</ele>
					<time>0001-01-01T00:00:00Z</time>
				</trkpt>
				<trkpt lat="53.04480" lon="-0.38703">
					<ele>17</ele>
					<time>0001-01-01T00:00:00Z</time>
				</trkpt>
				<trkpt lat="53.04467" lon="-0.38610">
					<ele>16</ele>
					<time>0001-01-01T00:00:00Z</time>
				</trkpt>
				<trkpt lat="53.04443" lon="-0.38596">
					<ele>16</ele>
					<time>0001-01-01T00:00:00Z</time>
				</trkpt>
				<trkpt lat="53.04432" lon="-0.38597">
					<ele>16</ele>
					<time>0001-01-01T00:00:00Z</time>
				</trkpt>
				<trkpt lat="53.04284" lon="-0.38587">
					<ele>15</ele>
					<time>0001-01-01T00:00:00Z</time>
				</trkpt>
				<trkpt lat="53.04118" lon="-0.38574">
					<ele>16</ele>
					<time>0001-01-01T00:00:00Z</time>
				</trkpt>
				<trkpt lat="53.03968" lon="-0.38562">
					<ele>15</ele>
					<time>0001-01-01T00:00:00Z</time>
				</trkpt>
				<trkpt lat="53.03805" lon="-0.38549">
					<ele>16</ele>
					<time>0001-01-01T00:00:00Z</time>
				</trkpt>
				<trkpt lat="53.03617" lon="-0.38532">
					<ele>16</ele>
					<time>0001-01-01T00:00:00Z</time>
				</trkpt>
				<trkpt lat="53.03456" lon="-0.38518">
					<ele>16</ele>
					<time>0001-01-01T00:00:00Z</time>
				</trkpt>
				<trkpt lat="53.03288" lon="-0.38499">
					<ele>16</ele>
					<time>0001-01-01T00:00:00Z</time>
				</trkpt>
				<trkpt lat="53.03247" lon="-0.38484">
					<ele>15</ele>
					<time>0001-01-01T00:00:00Z</time>
				</trkpt>
				<trkpt lat="53.03213" lon="-0.38497">
					<ele>15</ele>
					<time>0001-01-01T00:00:00Z</time>
				</trkpt>
				<trkpt lat="53.03063" lon="-0.38483">
					<ele>15</ele>
					<time>0001-01-01T00:00:00Z</time>
				</trkpt>
				<trkpt lat="53.02950" lon="-0.38477">
					<ele>15</ele>
					<time>0001-01-01T00:00:00Z</time>
				</trkpt>
				<trkpt lat="53.02830" lon="-0.38503">
					<ele>15</ele>
					<time>0001-01-01T00:00:00Z</time>
				</trkpt>
				<trkpt lat="53.02695" lon="-0.38559">
					<ele>15</ele>
					<time>0001-01-01T00:00:00Z</time>
				</trkpt>
				<trkpt lat="53.02538" lon="-0.38630">
					<ele>15</ele>
					<time>0001-01-01T00:00:00Z</time>
				</trkpt>
				<trkpt lat="53.02389" lon="-0.38695">
					<ele>15</ele>
					<time>0001-01-01T00:00:00Z</time>
				</trkpt>
				<trkpt lat="53.02260" lon="-0.38753">
					<ele>15</ele>
					<time>0001-01-01T00:00:00Z</time>
				</trkpt>
				<trkpt lat="53.02143" lon="-0.38804">
					<ele>14</ele>
					<time>0001-01-01T00:00:00Z</time>
				</trkpt>
				<trkpt lat="53.01995" lon="-0.38870">
					<ele>15</ele>
					<time>0001-01-01T00:00:00Z</time>
				</trkpt>
				<trkpt lat="53.01868" lon="-0.38927">
					<ele>15</ele>
					<time>0001-01-01T00:00:00Z</time>
				</trkpt>
				<trkpt lat="53.01723" lon="-0.38994">
					<ele>15</ele>
					<time>0001-01-01T00:00:00Z</time>
				</trkpt>
				<trkpt lat="53.01583" lon="-0.39060">
					<ele>15</ele>
					<time>0001-01-01T00:00:00Z</time>
				</trkpt>
				<trkpt lat="53.01442" lon="-0.39125">
					<ele>14</ele>
					<time>0001-01-01T00:00:00Z</time>
				</trkpt>
				<trkpt lat="53.01273" lon="-0.39203">
					<ele>14</ele>
					<time>0001-01-01T00:00:00Z</time>
				</trkpt>
				<trkpt lat="53.01119" lon="-0.39277">
					<ele>15</ele>
					<time>0001-01-01T00:00:00Z</time>
				</trkpt>
				<trkpt lat="53.01107" lon="-0.39280">
					<ele>15</ele>
					<time>0001-01-01T00:00:00Z</time>
				</trkpt>
				<trkpt lat="53.01075" lon="-0.39267">
					<ele>15</ele>
					<time>0001-01-01T00:00:00Z</time>
				</trkpt>
				<trkpt lat="53.01066" lon="-0.39258">
					<ele>15</ele>
					<time>0001-01-01T00:00:00Z</time>
				</trkpt>
				<trkpt lat="53.01018" lon="-0.39281">
					<ele>15</ele>
					<time>0001-01-01T00:00:00Z</time>
				</trkpt>
				<trkpt lat="53.01015" lon="-0.39291">
					<ele>15</ele>
					<time>0001-01-01T00:00:00Z</time>
				</trkpt>
				<trkpt lat="53.01010" lon="-0.39310">
					<ele>15</ele>
					<time>0001-01-01T00:00:00Z</time>
				</trkpt>
				<trkpt lat="53.00986" lon="-0.39342">
					<ele>15</ele>
					<time>0001-01-01T00:00:00Z</time>
				</trkpt>
				<trkpt lat="53.00862" lon="-0.39411">
					<ele>20</ele>
					<time>0001-01-01T00:00:00Z</time>
				</trkpt>
				<trkpt lat="53.00750" lon="-0.39489">
					<ele>21</ele>
					<time>0001-01-01T00:00:00Z</time>
				</trkpt>
				<trkpt lat="53.00731" lon="-0.39503">
					<ele>21</ele>
					<time>0001-01-01T00:00:00Z</time>
				</trkpt>
				<trkpt lat="53.00609" lon="-0.39597">
					<ele>18</ele>
					<time>0001-01-01T00:00:00Z</time>
				</trkpt>
				<trkpt lat="53.00425" lon="-0.39722">
					<ele>18</ele>
					<time>0001-01-01T00:00:00Z</time>
				</trkpt>
				<trkpt lat="53.00301" lon="-0.39864">
					<ele>19</ele>
					<time>0001-01-01T00:00:00Z</time>
				</trkpt>
				<trkpt lat="53.00154" lon="-0.40273">
					<ele>15</ele>
					<time>0001-01-01T00:00:00Z</time>
				</trkpt>
				<trkpt lat="53.00094" lon="-0.40491">
					<ele>16</ele>
					<time>0001-01-01T00:00:00Z</time>
				</trkpt>
				<trkpt lat="53.00067" lon="-0.40531">
					<ele>16</ele>
					<time>0001-01-01T00:00:00Z</time>
				</trkpt>
				<trkpt lat="53.00037" lon="-0.40566">
					<ele>15</ele>
					<time>0001-01-01T00:00:00Z</time>
				</trkpt>
				<trkpt lat="53.00007" lon="-0.40622">
					<ele>15</ele>
					<time>0001-01-01T00:00:00Z</time>
				</trkpt>
				<trkpt lat="52.99996" lon="-0.40678">
					<ele>15</ele>
					<time>0001-01-01T00:00:00Z</time>
				</trkpt>
				<trkpt lat="52.99992" lon="-0.40720">
					<ele>15</ele>
					<time>0001-01-01T00:00:00Z</time>
				</trkpt>
				<trkpt lat="52.99990" lon="-0.40733">
					<ele>14</ele>
					<time>0001-01-01T00:00:00Z</time>
				</trkpt>
				<trkpt lat="52.99945" lon="-0.40885">
					<ele>14</ele>
					<time>0001-01-01T00:00:00Z</time>
				</trkpt>
				<trkpt lat="52.99939" lon="-0.40900">
					<ele>14</ele>
					<time>0001-01-01T00:00:00Z</time>
				</trkpt>
				<trkpt lat="52.99926" lon="-0.40875">
					<ele>14</ele>
					<time>0001-01-01T00:00:00Z</time>
				</trkpt>
				<trkpt lat="52.99833" lon="-0.40811">
					<ele>14</ele>
					<time>0001-01-01T00:00:00Z</time>
				</trkpt>
				<trkpt lat="52.99731" lon="-0.40714">
					<ele>13</ele>
					<time>0001-01-01T00:00:00Z</time>
				</trkpt>
				<trkpt lat="52.99695" lon="-0.40741">
					<ele>13</ele>
					<time>0001-01-01T00:00:00Z</time>
				</trkpt>
				<trkpt lat="52.99664" lon="-0.40863">
					<ele>14</ele>
					<time>0001-01-01T00:00:00Z</time>
				</trkpt>
				<trkpt lat="52.99629" lon="-0.40875">
					<ele>15</ele>
					<time>0001-01-01T00:00:00Z</time>
				</trkpt>
				<trkpt lat="52.99578" lon="-0.40847">
					<ele>16</ele>
					<time>0001-01-01T00:00:00Z</time>
				</trkpt>
				<trkpt lat="52.99567" lon="-0.40843">
					<ele>16</ele>
					<time>0001-01-01T00:00:00Z</time>
				</trkpt>
				<trkpt lat="52.99546" lon="-0.40849">
					<ele>16</ele>
					<time>0001-01-01T00:00:00Z</time>
				</trkpt>
				<trkpt lat="52.99528" lon="-0.40857">
					<ele>16</ele>
					<time>0001-01-01T00:00:00Z</time>
				</trkpt>
				<trkpt lat="52.99516" lon="-0.40801">
					<ele>16</ele>
					<time>0001-01-01T00:00:00Z</time>
				</trkpt>
				<trkpt lat="52.99484" lon="-0.40743">
					<ele>16</ele>
					<time>0001-01-01T00:00:00Z</time>
				</trkpt>
				<trkpt lat="52.99343" lon="-0.40578">
					<ele>17</ele>
					<time>0001-01-01T00:00:00Z</time>
				</trkpt>
				<trkpt lat="52.99204" lon="-0.40417">
					<ele>16</ele>
					<time>0001-01-01T00:00:00Z</time>
				</trkpt>
				<trkpt lat="52.99148" lon="-0.40246">
					<ele>16</ele>
					<time>0001-01-01T00:00:00Z</time>
				</trkpt>
				<trkpt lat="52.99137" lon="-0.40200">
					<ele>15</ele>
					<time>0001-01-01T00:00:00Z</time>
				</trkpt>
				<trkpt lat="52.99105" lon="-0.40172">
					<ele>15</ele>
					<time>0001-01-01T00:00:00Z</time>
				</trkpt>
				<trkpt lat="52.98930" lon="-0.40140">
					<ele>17</ele>
					<time>0001-01-01T00:00:00Z</time>
				</trkpt>
				<trkpt lat="52.98900" lon="-0.40071">
					<ele>18</ele>
					<time>0001-01-01T00:00:00Z</time>
				</trkpt>
				<trkpt lat="52.98895" lon="-0.39788">
					<ele>16</ele>
					<time>0001-01-01T00:00:00Z</time>
				</trkpt>
				<trkpt lat="52.98898" lon="-0.39392">
					<ele>16</ele>
					<time>0001-01-01T00:00:00Z</time>
				</trkpt>
				<trkpt lat="52.98918" lon="-0.39140">
					<ele>15</ele>
					<time>0001-01-01T00:00:00Z</time>
				</trkpt>
				<trkpt lat="52.98883" lon="-0.39058">
					<ele>15</ele>
					<time>0001-01-01T00:00:00Z</time>
				</trkpt>
				<trkpt lat="52.98877" lon="-0.39053">
					<ele>15</ele>
					<time>0001-01-01T00:00:00Z</time>
				</trkpt>
				<trkpt lat="52.98689" lon="-0.38926">
					<ele>14</ele>
					<time>0001-01-01T00:00:00Z</time>
				</trkpt>
				<trkpt lat="52.98527" lon="-0.38821">
					<ele>13</ele>
					<time>0001-01-01T00:00:00Z</time>
				</trkpt>
				<trkpt lat="52.98352" lon="-0.38747">
					<ele>12</ele>
					<time>0001-01-01T00:00:00Z</time>
				</trkpt>
				<trkpt lat="52.98165" lon="-0.38723">
					<ele>11</ele>
					<time>0001-01-01T00:00:00Z</time>
				</trkpt>
				<trkpt lat="52.98024" lon="-0.38705">
					<ele>12</ele>
					<time>0001-01-01T00:00:00Z</time>
				</trkpt>
				<trkpt lat="52.97817" lon="-0.38705">
					<ele>11</ele>
					<time>0001-01-01T00:00:00Z</time>
				</trkpt>
				<trkpt lat="52.97634" lon="-0.38703">
					<ele>10</ele>
					<time>0001-01-01T00:00:00Z</time>
				</trkpt>
				<trkpt lat="52.97468" lon="-0.38701">
					<ele>10</ele>
					<time>0001-01-01T00:00:00Z</time>
				</trkpt>
				<trkpt lat="52.97348" lon="-0.38695">
					<ele>10</ele>
					<time>0001-01-01T00:00:00Z</time>
				</trkpt>
				<trkpt lat="52.97161" lon="-0.38695">
					<ele>10</ele>
					<time>0001-01-01T00:00:00Z</time>
				</trkpt>
				<trkpt lat="52.97023" lon="-0.38704">
					<ele>11</ele>
					<time>0001-01-01T00:00:00Z</time>
				</trkpt>
				<trkpt lat="52.96846" lon="-0.38716">
					<ele>13</ele>
					<time>0001-01-01T00:00:00Z</time>
				</trkpt>
				<trkpt lat="52.96665" lon="-0.38720">
					<ele>13</ele>
					<time>0001-01-01T00:00:00Z</time>
				</trkpt>
				<trkpt lat="52.96503" lon="-0.38733">
					<ele>14</ele>
					<time>0001-01-01T00:00:00Z</time>
				</trkpt>
				<trkpt lat="52.96360" lon="-0.38769">
					<ele>14</ele>
					<time>0001-01-01T00:00:00Z</time>
				</trkpt>
				<trkpt lat="52.96247" lon="-0.38788">
					<ele>14</ele>
					<time>0001-01-01T00:00:00Z</time>
				</trkpt>
				<trkpt lat="52.96106" lon="-0.38773">
					<ele>9</ele>
					<time>0001-01-01T00:00:00Z</time>
				</trkpt>
				<trkpt lat="52.95979" lon="-0.38752">
					<ele>11</ele>
					<time>0001-01-01T00:00:00Z</time>
				</trkpt>
				<trkpt lat="52.95855" lon="-0.38728">
					<ele>11</ele>
					<time>0001-01-01T00:00:00Z</time>
				</trkpt>
				<trkpt lat="52.95707" lon="-0.38698">
					<ele>10</ele>
					<time>0001-01-01T00:00:00Z</time>
				</trkpt>
				<trkpt lat="52.95557" lon="-0.38666">
					<ele>9</ele>
					<time>0001-01-01T00:00:00Z</time>
				</trkpt>
				<trkpt lat="52.95435" lon="-0.38639">
					<ele>10</ele>
					<time>0001-01-01T00:00:00Z</time>
				</trkpt>
				<trkpt lat="52.95285" lon="-0.38602">
					<ele>8</ele>
					<time>0001-01-01T00:00:00Z</time>
				</trkpt>
				<trkpt lat="52.95139" lon="-0.38579">
					<ele>8</ele>
					<time>0001-01-01T00:00:00Z</time>
				</trkpt>
				<trkpt lat="52.95011" lon="-0.38547">
					<ele>9</ele>
					<time>0001-01-01T00:00:00Z</time>
				</trkpt>
				<trkpt lat="52.95005" lon="-0.38545">
					<ele>9</ele>
					<time>0001-01-01T00:00:00Z</time>
				</trkpt>
				<trkpt lat="52.94867" lon="-0.38520">
					<ele>9</ele>
					<time>0001-01-01T00:00:00Z</time>
				</trkpt>
				<trkpt lat="52.94722" lon="-0.38495">
					<ele>9</ele>
					<time>0001-01-01T00:00:00Z</time>
				</trkpt>
				<trkpt lat="52.94597" lon="-0.38469">
					<ele>9</ele>
					<time>0001-01-01T00:00:00Z</time>
				</trkpt>
				<trkpt lat="52.94484" lon="-0.38443">
					<ele>10</ele>
					<time>0001-01-01T00:00:00Z</time>
				</trkpt>
				<trkpt lat="52.94338" lon="-0.38400">
					<ele>10</ele>
					<time>0001-01-01T00:00:00Z</time>
				</trkpt>
				<trkpt lat="52.94192" lon="-0.38353">
					<ele>10</ele>
					<time>0001-01-01T00:00:00Z</time>
				</trkpt>
				<trkpt lat="52.94079" lon="-0.38314">
					<ele>10</ele>
					<time>0001-01-01T00:00:00Z</time>
				</trkpt>
				<trkpt lat="52.93967" lon="-0.38277">
					<ele>11</ele>
					<time>0001-01-01T00:00:00Z</time>
				</trkpt>
				<trkpt lat="52.93829" lon="-0.38228">
					<ele>11</ele>
					<time>0001-01-01T00:00:00Z</time>
				</trkpt>
				<trkpt lat="52.93708" lon="-0.38187">
					<ele>11</ele>
					<time>0001-01-01T00:00:00Z</time>
				</trkpt>
				<trkpt lat="52.93576" lon="-0.38148">
					<ele>11</ele>
					<time>0001-01-01T00:00:00Z</time>
				</trkpt>
				<trkpt lat="52.93469" lon="-0.38113">
					<ele>11</ele>
					<time>0001-01-01T00:00:00Z</time>
				</trkpt>
				<trkpt lat="52.93346" lon="-0.38075">
					<ele>11</ele>
					<time>0001-01-01T00:00:00Z</time>
				</trkpt>
				<trkpt lat="52.93229" lon="-0.38046">
					<ele>11</ele>
					<time>0001-01-01T00:00:00Z</time>
				</trkpt>
				<trkpt lat="52.93079" lon="-0.37999">
					<ele>11</ele>
					<time>0001-01-01T00:00:00Z</time>
				</trkpt>
				<trkpt lat="52.92961" lon="-0.37949">
					<ele>12</ele>
					<time>0001-01-01T00:00:00Z</time>
				</trkpt>
				<trkpt lat="52.92813" lon="-0.37921">
					<ele>15</ele>
					<time>0001-01-01T00:00:00Z</time>
				</trkpt>
				<trkpt lat="52.92674" lon="-0.37920">
					<ele>13</ele>
					<time>0001-01-01T00:00:00Z</time>
				</trkpt>
				<trkpt lat="52.92556" lon="-0.37938">
					<ele>11</ele>
					<time>0001-01-01T00:00:00Z</time>
				</trkpt>
				<trkpt lat="52.92467" lon="-0.37934">
					<ele>10</ele>
					<time>0001-01-01T00:00:00Z</time>
				</trkpt>
				<trkpt lat="52.92358" lon="-0.37907">
					<ele>11</ele>
					<time>0001-01-01T00:00:00Z</time>
				</trkpt>
				<trkpt lat="52.92232" lon="-0.37870">
					<ele>11</ele>
					<time>0001-01-01T00:00:00Z</time>
				</trkpt>
				<trkpt lat="52.92099" lon="-0.37841">
					<ele>13</ele>
					<time>0001-01-01T00:00:00Z</time>
				</trkpt>
				<trkpt lat="52.91964" lon="-0.37827">
					<ele>15</ele>
					<time>0001-01-01T00:00:00Z</time>
				</trkpt>
				<trkpt lat="52.91877" lon="-0.37811">
					<ele>20</ele>
					<time>0001-01-01T00:00:00Z</time>
				</trkpt>
				<trkpt lat="52.91795" lon="-0.37794">
					<ele>25</ele>
					<time>0001-01-01T00:00:00Z</time>
				</trkpt>
				<trkpt lat="52.91724" lon="-0.37790">
					<ele>28</ele>
					<time>0001-01-01T00:00:00Z</time>
				</trkpt>
				<trkpt lat="52.91627" lon="-0.37788">
					<ele>27</ele>
					<time>0001-01-01T00:00:00Z</time>
				</trkpt>
				<trkpt lat="52.91506" lon="-0.37781">
					<ele>27</ele>
					<time>0001-01-01T00:00:00Z</time>
				</trkpt>
				<trkpt lat="52.91429" lon="-0.37751">
					<ele>26</ele>
					<time>0001-01-01T00:00:00Z</time>
				</trkpt>
				<trkpt lat="52.91413" lon="-0.37733">
					<ele>26</ele>
					<time>0001-01-01T00:00:00Z</time>
				</trkpt>
				<trkpt lat="52.91391" lon="-0.37721">
					<ele>26</ele>
					<time>0001-01-01T00:00:00Z</time>
				</trkpt>
				<trkpt lat="52.91368" lon="-0.37705">
					<ele>25</ele>
					<time>0001-01-01T00:00:00Z</time>
				</trkpt>
				<trkpt lat="52.91244" lon="-0.37659">
					<ele>25</ele>
					<time>0001-01-01T00:00:00Z</time>
				</trkpt>
				<trkpt lat="52.91112" lon="-0.37625">
					<ele>25</ele>
					<time>0001-01-01T00:00:00Z</time>
				</trkpt>
				<trkpt lat="52.90935" lon="-0.37593">
					<ele>27</ele>
					<time>0001-01-01T00:00:00Z</time>
				</trkpt>
				<trkpt lat="52.90813" lon="-0.37561">
					<ele>26</ele>
					<time>0001-01-01T00:00:00Z</time>
				</trkpt>
				<trkpt lat="52.90685" lon="-0.37556">
					<ele>25</ele>
					<time>0001-01-01T00:00:00Z</time>
				</trkpt>
				<trkpt lat="52.90565" lon="-0.37560">
					<ele>28</ele>
					<time>0001-01-01T00:00:00Z</time>
				</trkpt>
				<trkpt lat="52.90434" lon="-0.37550">
					<ele>28</ele>
					<time>0001-01-01T00:00:00Z</time>
				</trkpt>
				<trkpt lat="52.90299" lon="-0.37523">
					<ele>28</ele>
					<time>0001-01-01T00:00:00Z</time>
				</trkpt>
				<trkpt lat="52.90193" lon="-0.37514">
					<ele>30</ele>
					<time>0001-01-01T00:00:00Z</time>
				</trkpt>
				<trkpt lat="52.90083" lon="-0.37491">
					<ele>28</ele>
					<time>0001-01-01T00:00:00Z</time>
				</trkpt>
				<trkpt lat="52.89900" lon="-0.37509">
					<ele>21</ele>
					<time>0001-01-01T00:00:00Z</time>
				</trkpt>
				<trkpt lat="52.89744" lon="-0.37543">
					<ele>20</ele>
					<time>0001-01-01T00:00:00Z</time>
				</trkpt>
				<trkpt lat="52.89599" lon="-0.37553">
					<ele>21</ele>
					<time>0001-01-01T00:00:00Z</time>
				</trkpt>
				<trkpt lat="52.89468" lon="-0.37579">
					<ele>22</ele>
					<time>0001-01-01T00:00:00Z</time>
				</trkpt>
				<trkpt lat="52.89344" lon="-0.37600">
					<ele>23</ele>
					<time>0001-01-01T00:00:00Z</time>
				</trkpt>
				<trkpt lat="52.89334" lon="-0.37599">
					<ele>22</ele>
					<time>0001-01-01T00:00:00Z</time>
				</trkpt>
				<trkpt lat="52.89310" lon="-0.37595">
					<ele>22</ele>
					<time>0001-01-01T00:00:00Z</time>
				</trkpt>
				<trkpt lat="52.89251" lon="-0.37558">
					<ele>19</ele>
					<time>0001-01-01T00:00:00Z</time>
				</trkpt>
				<trkpt lat="52.89191" lon="-0.37518">
					<ele>15</ele>
					<time>0001-01-01T00:00:00Z</time>
				</trkpt>
				<trkpt lat="52.89097" lon="-0.37530">
					<ele>15</ele>
					<time>0001-01-01T00:00:00Z</time>
				</trkpt>
				<trkpt lat="52.88967" lon="-0.37586">
					<ele>18</ele>
					<time>0001-01-01T00:00:00Z</time>
				</trkpt>
				<trkpt lat="52.88862" lon="-0.37645">
					<ele>22</ele>
					<time>0001-01-01T00:00:00Z</time>
				</trkpt>
				<trkpt lat="52.88782" lon="-0.37679">
					<ele>24</ele>
					<time>0001-01-01T00:00:00Z</time>
				</trkpt>
				<trkpt lat="52.88690" lon="-0.37700">
					<ele>28</ele>
					<time>0001-01-01T00:00:00Z</time>
				</trkpt>
				<trkpt lat="52.88582" lon="-0.37701">
					<ele>31</ele>
					<time>0001-01-01T00:00:00Z</time>
				</trkpt>
				<trkpt lat="52.88463" lon="-0.37683">
					<ele>34</ele>
					<time>0001-01-01T00:00:00Z</time>
				</trkpt>
				<trkpt lat="52.88349" lon="-0.37650">
					<ele>37</ele>
					<time>0001-01-01T00:00:00Z</time>
				</trkpt>
				<trkpt lat="52.88279" lon="-0.37672">
					<ele>39</ele>
					<time>0001-01-01T00:00:00Z</time>
				</trkpt>
				<trkpt lat="52.88183" lon="-0.37708">
					<ele>39</ele>
					<time>0001-01-01T00:00:00Z</time>
				</trkpt>
				<trkpt lat="52.88070" lon="-0.37692">
					<ele>33</ele>
					<time>0001-01-01T00:00:00Z</time>
				</trkpt>
				<trkpt lat="52.87901" lon="-0.37682">
					<ele>27</ele>
					<time>0001-01-01T00:00:00Z</time>
				</trkpt>
				<trkpt lat="52.87752" lon="-0.37699">
					<ele>24</ele>
					<time>0001-01-01T00:00:00Z</time>
				</trkpt>
				<trkpt lat="52.87585" lon="-0.37708">
					<ele>20</ele>
					<time>0001-01-01T00:00:00Z</time>
				</trkpt>
				<trkpt lat="52.87480" lon="-0.37683">
					<ele>23</ele>
					<time>0001-01-01T00:00:00Z</time>
				</trkpt>
				<trkpt lat="52.87453" lon="-0.37676">
					<ele>25</ele>
					<time>0001-01-01T00:00:00Z</time>
				</trkpt>
				<trkpt lat="52.87367" lon="-0.37652">
					<ele>28</ele>
					<time>0001-01-01T00:00:00Z</time>
				</trkpt>
				<trkpt lat="52.87302" lon="-0.37646">
					<ele>31</ele>
					<time>0001-01-01T00:00:00Z</time>
				</trkpt>
				<trkpt lat="52.87198" lon="-0.37625">
					<ele>36</ele>
					<time>0001-01-01T00:00:00Z</time>
				</trkpt>
				<trkpt lat="52.87092" lon="-0.37619">
					<ele>36</ele>
					<time>0001-01-01T00:00:00Z</time>
				</trkpt>
				<trkpt lat="52.87000" lon="-0.37637">
					<ele>37</ele>
					<time>0001-01-01T00:00:00Z</time>
				</trkpt>
				<trkpt lat="52.86894" lon="-0.37622">
					<ele>41</ele>
					<time>0001-01-01T00:00:00Z</time>
				</trkpt>
				<trkpt lat="52.86771" lon="-0.37614">
					<ele>45</ele>
					<time>0001-01-01T00:00:00Z</time>
				</trkpt>
				<trkpt lat="52.86672" lon="-0.37608">
					<ele>44</ele>
					<time>0001-01-01T00:00:00Z</time>
				</trkpt>
				<trkpt lat="52.86540" lon="-0.37590">
					<ele>43</ele>
					<time>0001-01-01T00:00:00Z</time>
				</trkpt>
				<trkpt lat="52.86390" lon="-0.37577">
					<ele>38</ele>
					<time>0001-01-01T00:00:00Z</time>
				</trkpt>
				<trkpt lat="52.86290" lon="-0.37597">
					<ele>33</ele>
					<time>0001-01-01T00:00:00Z</time>
				</trkpt>
				<trkpt lat="52.86286" lon="-0.37596">
					<ele>33</ele>
					<time>0001-01-01T00:00:00Z</time>
				</trkpt>
				<trkpt lat="52.86290" lon="-0.37602">
					<ele>33</ele>
					<time>0001-01-01T00:00:00Z</time>
				</trkpt>
				<trkpt lat="52.86309" lon="-0.37656">
					<ele>35</ele>
					<time>0001-01-01T00:00:00Z</time>
				</trkpt>
				<trkpt lat="52.86307" lon="-0.37737">
					<ele>35</ele>
					<time>0001-01-01T00:00:00Z</time>
				</trkpt>
				<trkpt lat="52.86302" lon="-0.37827">
					<ele>35</ele>
					<time>0001-01-01T00:00:00Z</time>
				</trkpt>
				<trkpt lat="52.86305" lon="-0.37891">
					<ele>35</ele>
					<time>0001-01-01T00:00:00Z</time>
				</trkpt>
				<trkpt lat="52.86307" lon="-0.37963">
					<ele>37</ele>
					<time>0001-01-01T00:00:00Z</time>
				</trkpt>
				<trkpt lat="52.86303" lon="-0.38063">
					<ele>38</ele>
					<time>0001-01-01T00:00:00Z</time>
				</trkpt>
				<trkpt lat="52.86229" lon="-0.38319">
					<ele>37</ele>
					<time>0001-01-01T00:00:00Z</time>
				</trkpt>
				<trkpt lat="52.86131" lon="-0.38491">
					<ele>36</ele>
					<time>0001-01-01T00:00:00Z</time>
				</trkpt>
				<trkpt lat="52.86110" lon="-0.38518">
					<ele>36</ele>
					<time>0001-01-01T00:00:00Z</time>
				</trkpt>
				<trkpt lat="52.86084" lon="-0.38535">
					<ele>35</ele>
					<time>0001-01-01T00:00:00Z</time>
				</trkpt>
				<trkpt lat="52.86062" lon="-0.38570">
					<ele>34</ele>
					<time>0001-01-01T00:00:00Z</time>
				</trkpt>
				<trkpt lat="52.86022" lon="-0.38707">
					<ele>30</ele>
					<time>0001-01-01T00:00:00Z</time>
				</trkpt>
				<trkpt lat="52.85987" lon="-0.38909">
					<ele>27</ele>
					<time>0001-01-01T00:00:00Z</time>
				</trkpt>
				<trkpt lat="52.85955" lon="-0.38906">
					<ele>26</ele>
					<time>0001-01-01T00:00:00Z</time>
				</trkpt>
				<trkpt lat="52.85936" lon="-0.38914">
					<ele>28</ele>
					<time>0001-01-01T00:00:00Z</time>
				</trkpt>
				<trkpt lat="52.85923" lon="-0.38937">
					<ele>28</ele>
					<time>0001-01-01T00:00:00Z</time>
				</trkpt>
				<trkpt lat="52.85850" lon="-0.39019">
					<ele>29</ele>
					<time>0001-01-01T00:00:00Z</time>
				</trkpt>
				<trkpt lat="52.85816" lon="-0.39138">
					<ele>34</ele>
					<time>0001-01-01T00:00:00Z</time>
				</trkpt>
				<trkpt lat="52.85801" lon="-0.39159">
					<ele>36</ele>
					<time>0001-01-01T00:00:00Z</time>
				</trkpt>
				<trkpt lat="52.85750" lon="-0.39114">
					<ele>37</ele>
					<time>0001-01-01T00:00:00Z</time>
				</trkpt>
				<trkpt lat="52.85749" lon="-0.39110">
					<ele>40</ele>
					<time>0001-01-01T00:00:00Z</time>
				</trkpt>
				<trkpt lat="52.85745" lon="-0.39108">
					<ele>39</ele>
					<time>0001-01-01T00:00:00Z</time>
				</trkpt>
				<trkpt lat="52.85716" lon="-0.39138">
					<ele>38</ele>
					<time>0001-01-01T00:00:00Z</time>
				</trkpt>
				<trkpt lat="52.85704" lon="-0.39171">
					<ele>39</ele>
					<time>0001-01-01T00:00:00Z</time>
				</trkpt>
				<trkpt lat="52.85679" lon="-0.39190">
					<ele>39</ele>
					<time>0001-01-01T00:00:00Z</time>
				</trkpt>
				<trkpt lat="52.85567" lon="-0.39222">
					<ele>38</ele>
					<time>0001-01-01T00:00:00Z</time>
				</trkpt>
				<trkpt lat="52.85480" lon="-0.39353">
					<ele>39</ele>
					<time>0001-01-01T00:00:00Z</time>
				</trkpt>
				<trkpt lat="52.85409" lon="-0.39530">
					<ele>44</ele>
					<time>0001-01-01T00:00:00Z</time>
				</trkpt>
				<trkpt lat="52.85331" lon="-0.39645">
					<ele>50</ele>
					<time>0001-01-01T00:00:00Z</time>
				</trkpt>
				<trkpt lat="52.85302" lon="-0.39664">
					<ele>50</ele>
					<time>0001-01-01T00:00:00Z</time>
				</trkpt>
				<trkpt lat="52.85277" lon="-0.39661">
					<ele>50</ele>
					<time>0001-01-01T00:00:00Z</time>
				</trkpt>
				<trkpt lat="52.85156" lon="-0.39596">
					<ele>49</ele>
					<time>0001-01-01T00:00:00Z</time>
				</trkpt>
				<trkpt lat="52.85094" lon="-0.39617">
					<ele>48</ele>
					<time>0001-01-01T00:00:00Z</time>
				</trkpt>
				<trkpt lat="52.84968" lon="-0.39757">
					<ele>45</ele>
					<time>0001-01-01T00:00:00Z</time>
				</trkpt>
				<trkpt lat="52.84884" lon="-0.39891">
					<ele>47</ele>
					<time>0001-01-01T00:00:00Z</time>
				</trkpt>
				<trkpt lat="52.84851" lon="-0.39906">
					<ele>48</ele>
					<time>0001-01-01T00:00:00Z</time>
				</trkpt>
				<trkpt lat="52.84734" lon="-0.39918">
					<ele>51</ele>
					<time>0001-01-01T00:00:00Z</time>
				</trkpt>
				<trkpt lat="52.84601" lon="-0.39991">
					<ele>53</ele>
					<time>0001-01-01T00:00:00Z</time>
				</trkpt>
				<trkpt lat="52.84560" lon="-0.40000">
					<ele>52</ele>
					<time>0001-01-01T00:00:00Z</time>
				</trkpt>
				<trkpt lat="52.84538" lon="-0.40029">
					<ele>52</ele>
					<time>0001-01-01T00:00:00Z</time>
				</trkpt>
				<trkpt lat="52.84524" lon="-0.40201">
					<ele>53</ele>
					<time>0001-01-01T00:00:00Z</time>
				</trkpt>
				<trkpt lat="52.84516" lon="-0.40404">
					<ele>53</ele>
					<time>0001-01-01T00:00:00Z</time>
				</trkpt>
				<trkpt lat="52.84479" lon="-0.40440">
					<ele>52</ele>
					<time>0001-01-01T00:00:00Z</time>
				</trkpt>
				<trkpt lat="52.84346" lon="-0.40384">
					<ele>47</ele>
					<time>0001-01-01T00:00:00Z</time>
				</trkpt>
				<trkpt lat="52.84230" lon="-0.40387">
					<ele>42</ele>
					<time>0001-01-01T00:00:00Z</time>
				</trkpt>
				<trkpt lat="52.84039" lon="-0.40464">
					<ele>38</ele>
					<time>0001-01-01T00:00:00Z</time>
				</trkpt>
				<trkpt lat="52.84030" lon="-0.40466">
					<ele>38</ele>
					<time>0001-01-01T00:00:00Z</time>
				</trkpt>
				<trkpt lat="52.83946" lon="-0.40434">
					<ele>39</ele>
					<time>0001-01-01T00:00:00Z</time>
				</trkpt>
				<trkpt lat="52.83916" lon="-0.40421">
					<ele>39</ele>
					<time>0001-01-01T00:00:00Z</time>
				</trkpt>
				<trkpt lat="52.83893" lon="-0.40427">
					<ele>39</ele>
					<time>0001-01-01T00:00:00Z</time>
				</trkpt>
				<trkpt lat="52.83796" lon="-0.40515">
					<ele>40</ele>
					<time>0001-01-01T00:00:00Z</time>
				</trkpt>
				<trkpt lat="52.83736" lon="-0.40579">
					<ele>40</ele>
					<time>0001-01-01T00:00:00Z</time>
				</trkpt>
				<trkpt lat="52.83709" lon="-0.40586">
					<ele>40</ele>
					<time>0001-01-01T00:00:00Z</time>
				</trkpt>
				<trkpt lat="52.83603" lon="-0.40546">
					<ele>41</ele>
					<time>0001-01-01T00:00:00Z</time>
				</trkpt>
				<trkpt lat="52.83469" lon="-0.40503">
					<ele>40</ele>
					<time>0001-01-01T00:00:00Z</time>
				</trkpt>
				<trkpt lat="52.83326" lon="-0.40543">
					<ele>42</ele>
					<time>0001-01-01T00:00:00Z</time>
				</trkpt>
				<trkpt lat="52.83314" lon="-0.40545">
					<ele>42</ele>
					<time>0001-01-01T00:00:00Z</time>
				</trkpt>
				<trkpt lat="52.83297" lon="-0.40542">
					<ele>42</ele>
					<time>0001-01-01T00:00:00Z</time>
				</trkpt>
				<trkpt lat="52.83271" lon="-0.40540">
					<ele>41</ele>
					<time>0001-01-01T00:00:00Z</time>
				</trkpt>
				<trkpt lat="52.83207" lon="-0.40717">
					<ele>40</ele>
					<time>0001-01-01T00:00:00Z</time>
				</trkpt>
				<trkpt lat="52.83203" lon="-0.40724">
					<ele>40</ele>
					<time>0001-01-01T00:00:00Z</time>
				</trkpt>
				<trkpt lat="52.83191" lon="-0.40760">
					<ele>40</ele>
					<time>0001-01-01T00:00:00Z</time>
				</trkpt>
				<trkpt lat="52.83205" lon="-0.40925">
					<ele>36</ele>
					<time>0001-01-01T00:00:00Z</time>
				</trkpt>
				<trkpt lat="52.83205" lon="-0.40975">
					<ele>36</ele>
					<time>0001-01-01T00:00:00Z</time>
				</trkpt>
				<trkpt lat="52.83148" lon="-0.41151">
					<ele>40</ele>
					<time>0001-01-01T00:00:00Z</time>
				</trkpt>
				<trkpt lat="52.83135" lon="-0.41199">
					<ele>42</ele>
					<time>0001-01-01T00:00:00Z</time>
				</trkpt>
				<trkpt lat="52.83131" lon="-0.41215">
					<ele>45</ele>
					<time>0001-01-01T00:00:00Z</time>
				</trkpt>
				<trkpt lat="52.83128" lon="-0.41233">
					<ele>45</ele>
					<time>0001-01-01T00:00:00Z</time>
				</trkpt>
				<trkpt lat="52.83114" lon="-0.41334">
					<ele>46</ele>
					<time>0001-01-01T00:00:00Z</time>
				</trkpt>
				<trkpt lat="52.83093" lon="-0.41478">
					<ele>44</ele>
					<time>0001-01-01T00:00:00Z</time>
				</trkpt>
				<trkpt lat="52.83101" lon="-0.41669">
					<ele>44</ele>
					<time>0001-01-01T00:00:00Z</time>
				</trkpt>
				<trkpt lat="52.83118" lon="-0.41926">
					<ele>43</ele>
					<time>0001-01-01T00:00:00Z</time>
				</trkpt>
				<trkpt lat="52.83137" lon="-0.42125">
					<ele>47</ele>
					<time>0001-01-01T00:00:00Z</time>
				</trkpt>
				<trkpt lat="52.83139" lon="-0.42202">
					<ele>48</ele>
					<time>0001-01-01T00:00:00Z</time>
				</trkpt>
				<trkpt lat="52.83121" lon="-0.42343">
					<ele>52</ele>
					<time>0001-01-01T00:00:00Z</time>
				</trkpt>
				<trkpt lat="52.83089" lon="-0.42487">
					<ele>52</ele>
					<time>0001-01-01T00:00:00Z</time>
				</trkpt>
				<trkpt lat="52.83078" lon="-0.42668">
					<ele>58</ele>
					<time>0001-01-01T00:00:00Z</time>
				</trkpt>
				<trkpt lat="52.83079" lon="-0.42693">
					<ele>59</ele>
					<time>0001-01-01T00:00:00Z</time>
				</trkpt>
				<trkpt lat="52.83056" lon="-0.42928">
					<ele>64</ele>
					<time>0001-01-01T00:00:00Z</time>
				</trkpt>
				<trkpt lat="52.82999" lon="-0.43161">
					<ele>66</ele>
					<time>0001-01-01T00:00:00Z</time>
				</trkpt>
				<trkpt lat="52.82936" lon="-0.43251">
					<ele>66</ele>
					<time>0001-01-01T00:00:00Z</time>
				</trkpt>
				<trkpt lat="52.82921" lon="-0.43303">
					<ele>67</ele>
					<time>0001-01-01T00:00:00Z</time>
				</trkpt>
				<trkpt lat="52.82887" lon="-0.43541">
					<ele>68</ele>
					<time>0001-01-01T00:00:00Z</time>
				</trkpt>
				<trkpt lat="52.82818" lon="-0.43749">
					<ele>69</ele>
					<time>0001-01-01T00:00:00Z</time>
				</trkpt>
				<trkpt lat="52.82778" lon="-0.43854">
					<ele>70</ele>
					<time>0001-01-01T00:00:00Z</time>
				</trkpt>
				<trkpt lat="52.82770" lon="-0.43900">
					<ele>69</ele>
					<time>0001-01-01T00:00:00Z</time>
				</trkpt>
				<trkpt lat="52.82775" lon="-0.43944">
					<ele>69</ele>
					<time>0001-01-01T00:00:00Z</time>
				</trkpt>
				<trkpt lat="52.82754" lon="-0.44003">
					<ele>67</ele>
					<time>0001-01-01T00:00:00Z</time>
				</trkpt>
				<trkpt lat="52.82724" lon="-0.44009">
					<ele>66</ele>
					<time>0001-01-01T00:00:00Z</time>
				</trkpt>
				<trkpt lat="52.82568" lon="-0.43955">
					<ele>61</ele>
					<time>0001-01-01T00:00:00Z</time>
				</trkpt>
				<trkpt lat="52.82412" lon="-0.43892">
					<ele>56</ele>
					<time>0001-01-01T00:00:00Z</time>
				</trkpt>
				<trkpt lat="52.82302" lon="-0.43875">
					<ele>51</ele>
					<time>0001-01-01T00:00:00Z</time>
				</trkpt>
				<trkpt lat="52.82297" lon="-0.43874">
					<ele>51</ele>
					<time>0001-01-01T00:00:00Z</time>
				</trkpt>
				<trkpt lat="52.82283" lon="-0.43866">
					<ele>50</ele>
					<time>0001-01-01T00:00:00Z</time>
				</trkpt>
				<trkpt lat="52.82257" lon="-0.43818">
					<ele>51</ele>
					<time>0001-01-01T00:00:00Z</time>
				</trkpt>
				<trkpt lat="52.82188" lon="-0.43782">
					<ele>56</ele>
					<time>0001-01-01T00:00:00Z</time>
				</trkpt>
				<trkpt lat="52.82146" lon="-0.43761">
					<ele>57</ele>
					<time>0001-01-01T00:00:00Z</time>
				</trkpt>
				<trkpt lat="52.82067" lon="-0.43797">
					<ele>59</ele>
					<time>0001-01-01T00:00:00Z</time>
				</trkpt>
				<trkpt lat="52.81892" lon="-0.43788">
					<ele>59</ele>
					<time>0001-01-01T00:00:00Z</time>
				</trkpt>
				<trkpt lat="52.81722" lon="-0.43731">
					<ele>54</ele>
					<time>0001-01-01T00:00:00Z</time>
				</trkpt>
				<trkpt lat="52.81618" lon="-0.43645">
					<ele>55</ele>
					<time>0001-01-01T00:00:00Z</time>
				</trkpt>
				<trkpt lat="52.81513" lon="-0.43604">
					<ele>50</ele>
					<time>0001-01-01T00:00:00Z</time>
				</trkpt>
				<trkpt lat="52.81504" lon="-0.43603">
					<ele>50</ele>
					<time>0001-01-01T00:00:00Z</time>
				</trkpt>
				<trkpt lat="52.81488" lon="-0.43602">
					<ele>50</ele>
					<time>0001-01-01T00:00:00Z</time>
				</trkpt>
				<trkpt lat="52.81396" lon="-0.43638">
					<ele>49</ele>
					<time>0001-01-01T00:00:00Z</time>
				</trkpt>
				<trkpt lat="52.81359" lon="-0.43640">
					<ele>48</ele>
					<time>0001-01-01T00:00:00Z</time>
				</trkpt>
				<trkpt lat="52.81203" lon="-0.43565">
					<ele>39</ele>
					<time>0001-01-01T00:00:00Z</time>
				</trkpt>
				<trkpt lat="52.81099" lon="-0.43439">
					<ele>38</ele>
					<time>0001-01-01T00:00:00Z</time>
				</trkpt>
				<trkpt lat="52.81067" lon="-0.43423">
					<ele>39</ele>
					<time>0001-01-01T00:00:00Z</time>
				</trkpt>
				<trkpt lat="52.80961" lon="-0.43434">
					<ele>41</ele>
					<time>0001-01-01T00:00:00Z</time>
				</trkpt>
				<trkpt lat="52.80867" lon="-0.43406">
					<ele>43</ele>
					<time>0001-01-01T00:00:00Z</time>
				</trkpt>
				<trkpt lat="52.80762" lon="-0.43329">
					<ele>39</ele>
					<time>0001-01-01T00:00:00Z</time>
				</trkpt>
				<trkpt lat="52.80718" lon="-0.43292">
					<ele>38</ele>
					<time>0001-01-01T00:00:00Z</time>
				</trkpt>
				<trkpt lat="52.80686" lon="-0.43232">
					<ele>37</ele>
					<time>0001-01-01T00:00:00Z</time>
				</trkpt>
				<trkpt lat="52.80625" lon="-0.43084">
					<ele>36</ele>
					<time>0001-01-01T00:00:00Z</time>
				</trkpt>
				<trkpt lat="52.80506" lon="-0.43007">
					<ele>35</ele>
					<time>0001-01-01T00:00:00Z</time>
				</trkpt>
				<trkpt lat="52.80471" lon="-0.42989">
					<ele>34</ele>
					<time>0001-01-01T00:00:00Z</time>
				</trkpt>
				<trkpt lat="52.80443" lon="-0.42989">
					<ele>34</ele>
					<time>0001-01-01T00:00:00Z</time>
				</trkpt>
				<trkpt lat="52.80349" lon="-0.43040">
					<ele>33</ele>
					<time>0001-01-01T00:00:00Z</time>
				</trkpt>
				<trkpt lat="52.80303" lon="-0.43027">
					<ele>36</ele>
					<time>0001-01-01T00:00:00Z</time>
				</trkpt>
				<trkpt lat="52.80271" lon="-0.43015">
					<ele>37</ele>
					<time>0001-01-01T00:00:00Z</time>
				</trkpt>
				<trkpt lat="52.80215" lon="-0.43003">
					<ele>40</ele>
					<time>0001-01-01T00:00:00Z</time>
				</trkpt>
				<trkpt lat="52.80162" lon="-0.42992">
					<ele>41</ele>
					<time>0001-01-01T00:00:00Z</time>
				</trkpt>
				<trkpt lat="52.80144" lon="-0.42991">
					<ele>41</ele>
					<time>0001-01-01T00:00:00Z</time>
				</trkpt>
				<trkpt lat="52.80120" lon="-0.43001">
					<ele>41</ele>
					<time>0001-01-01T00:00:00Z</time>
				</trkpt>
				<trkpt lat="52.80106" lon="-0.43028">
					<ele>41</ele>
					<time>0001-01-01T00:00:00Z</time>
				</trkpt>
				<trkpt lat="52.80097" lon="-0.43052">
					<ele>41</ele>
					<time>0001-01-01T00:00:00Z</time>
				</trkpt>
				<trkpt lat="52.80080" lon="-0.43054">
					<ele>41</ele>
					<time>0001-01-01T00:00:00Z</time>
				</trkpt>
				<trkpt lat="52.79984" lon="-0.42991">
					<ele>39</ele>
					<time>0001-01-01T00:00:00Z</time>
				</trkpt>
				<trkpt lat="52.79849" lon="-0.42924">
					<ele>36</ele>
					<time>0001-01-01T00:00:00Z</time>
				</trkpt>
				<trkpt lat="52.79696" lon="-0.42857">
					<ele>32</ele>
					<time>0001-01-01T00:00:00Z</time>
				</trkpt>
				<trkpt lat="52.79570" lon="-0.42787">
					<ele>29</ele>
					<time>0001-01-01T00:00:00Z</time>
				</trkpt>
				<trkpt lat="52.79505" lon="-0.42721">
					<ele>29</ele>
					<time>0001-01-01T00:00:00Z</time>
				</trkpt>
				<trkpt lat="52.79397" lon="-0.42704">
					<ele>28</ele>
					<time>0001-01-01T00:00:00Z</time>
				</trkpt>
				<trkpt lat="52.79273" lon="-0.42722">
					<ele>31</ele>
					<time>0001-01-01T00:00:00Z</time>
				</trkpt>
				<trkpt lat="52.79157" lon="-0.42729">
					<ele>31</ele>
					<time>0001-01-01T00:00:00Z</time>
				</trkpt>
				<trkpt lat="52.79018" lon="-0.42670">
					<ele>30</ele>
					<time>0001-01-01T00:00:00Z</time>
				</trkpt>
				<trkpt lat="52.78870" lon="-0.42592">
					<ele>29</ele>
					<time>0001-01-01T00:00:00Z</time>
				</trkpt>
				<trkpt lat="52.78708" lon="-0.42515">
					<ele>28</ele>
					<time>0001-01-01T00:00:00Z</time>
				</trkpt>
				<trkpt lat="52.78579" lon="-0.42507">
					<ele>28</ele>
					<time>0001-01-01T00:00:00Z</time>
				</trkpt>
				<trkpt lat="52.78553" lon="-0.42537">
					<ele>28</ele>
					<time>0001-01-01T00:00:00Z</time>
				</trkpt>
				<trkpt lat="52.78543" lon="-0.42568">
					<ele>28</ele>
					<time>0001-01-01T00:00:00Z</time>
				</trkpt>
				<trkpt lat="52.78524" lon="-0.42602">
					<ele>28</ele>
					<time>0001-01-01T00:00:00Z</time>
				</trkpt>
				<trkpt lat="52.78430" lon="-0.42755">
					<ele>28</ele>
					<time>0001-01-01T00:00:00Z</time>
				</trkpt>
				<trkpt lat="52.78382" lon="-0.42778">
					<ele>28</ele>
					<time>0001-01-01T00:00:00Z</time>
				</trkpt>
				<trkpt lat="52.78289" lon="-0.42690">
					<ele>28</ele>
					<time>0001-01-01T00:00:00Z</time>
				</trkpt>
				<trkpt lat="52.78174" lon="-0.42650">
					<ele>26</ele>
					<time>0001-01-01T00:00:00Z</time>
				</trkpt>
				<trkpt lat="52.78059" lon="-0.42626">
					<ele>27</ele>
					<time>0001-01-01T00:00:00Z</time>
				</trkpt>
				<trkpt lat="52.77912" lon="-0.42628">
					<ele>25</ele>
					<time>0001-01-01T00:00:00Z</time>
				</trkpt>
				<trkpt lat="52.77754" lon="-0.42617">
					<ele>25</ele>
					<time>0001-01-01T00:00:00Z</time>
				</trkpt>
				<trkpt lat="52.77690" lon="-0.42601">
					<ele>24</ele>
					<time>0001-01-01T00:00:00Z</time>
				</trkpt>
				<trkpt lat="52.77665" lon="-0.42543">
					<ele>24</ele>
					<time>0001-01-01T00:00:00Z</time>
				</trkpt>
				<trkpt lat="52.77663" lon="-0.42491">
					<ele>25</ele>
					<time>0001-01-01T00:00:00Z</time>
				</trkpt>
				<trkpt lat="52.77659" lon="-0.42511">
					<ele>25</ele>
					<time>0001-01-01T00:00:00Z</time>
				</trkpt>
				<trkpt lat="52.77660" lon="-0.42548">
					<ele>24</ele>
					<time>0001-01-01T00:00:00Z</time>
				</trkpt>
				<trkpt lat="52.77664" lon="-0.42587">
					<ele>25</ele>
					<time>0001-01-01T00:00:00Z</time>
				</trkpt>
				<trkpt lat="52.77619" lon="-0.42606">
					<ele>25</ele>
					<time>0001-01-01T00:00:00Z</time>
				</trkpt>
				<trkpt lat="52.77469" lon="-0.42609">
					<ele>24</ele>
					<time>0001-01-01T00:00:00Z</time>
				</trkpt>
				<trkpt lat="52.77319" lon="-0.42621">
					<ele>25</ele>
					<time>0001-01-01T00:00:00Z</time>
				</trkpt>
				<trkpt lat="52.77293" lon="-0.42615">
					<ele>24</ele>
					<time>0001-01-01T00:00:00Z</time>
				</trkpt>
				<trkpt lat="52.77275" lon="-0.42603">
					<ele>25</ele>
					<time>0001-01-01T00:00:00Z</time>
				</trkpt>
				<trkpt lat="52.77159" lon="-0.42477">
					<ele>24</ele>
					<time>0001-01-01T00:00:00Z</time>
				</trkpt>
				<trkpt lat="52.77042" lon="-0.42401">
					<ele>23</ele>
					<time>0001-01-01T00:00:00Z</time>
				</trkpt>
				<trkpt lat="52.76967" lon="-0.42339">
					<ele>27</ele>
					<time>0001-01-01T00:00:00Z</time>
				</trkpt>
				<trkpt lat="52.76866" lon="-0.42258">
					<ele>31</ele>
					<time>0001-01-01T00:00:00Z</time>
				</trkpt>
				<trkpt lat="52.76749" lon="-0.42205">
					<ele>33</ele>
					<time>0001-01-01T00:00:00Z</time>
				</trkpt>
				<trkpt lat="52.76650" lon="-0.42154">
					<ele>37</ele>
					<time>0001-01-01T00:00:00Z</time>
				</trkpt>
				<trkpt lat="52.76533" lon="-0.42097">
					<ele>34</ele>
					<time>0001-01-01T00:00:00Z</time>
				</trkpt>
				<trkpt lat="52.76355" lon="-0.41999">
					<ele>33</ele>
					<time>0001-01-01T00:00:00Z</time>
				</trkpt>
				<trkpt lat="52.76223" lon="-0.41937">
					<ele>35</ele>
					<time>0001-01-01T00:00:00Z</time>
				</trkpt>
				<trkpt lat="52.76099" lon="-0.41923">
					<ele>34</ele>
					<time>0001-01-01T00:00:00Z</time>
				</trkpt>
				<trkpt lat="52.75927" lon="-0.41919">
					<ele>35</ele>
					<time>0001-01-01T00:00:00Z</time>
				</trkpt>
				<trkpt lat="52.75870" lon="-0.41918">
					<ele>35</ele>
					<time>0001-01-01T00:00:00Z</time>
				</trkpt>
				<trkpt lat="52.75764" lon="-0.41882">
					<ele>38</ele>
					<time>0001-01-01T00:00:00Z</time>
				</trkpt>
				<trkpt lat="52.75655" lon="-0.41849">
					<ele>41</ele>
					<time>0001-01-01T00:00:00Z</time>
				</trkpt>
				<trkpt lat="52.75539" lon="-0.41780">
					<ele>36</ele>
					<time>0001-01-01T00:00:00Z</time>
				</trkpt>
				<trkpt lat="52.75473" lon="-0.41740">
					<ele>36</ele>
					<time>0001-01-01T00:00:00Z</time>
				</trkpt>
				<trkpt lat="52.75367" lon="-0.41621">
					<ele>32</ele>
					<time>0001-01-01T00:00:00Z</time>
				</trkpt>
				<trkpt lat="52.75274" lon="-0.41580">
					<ele>32</ele>
					<time>0001-01-01T00:00:00Z</time>
				</trkpt>
				<trkpt lat="52.75242" lon="-0.41581">
					<ele>32</ele>
					<time>0001-01-01T00:00:00Z</time>
				</trkpt>
				<trkpt lat="52.75110" lon="-0.41653">
					<ele>35</ele>
					<time>0001-01-01T00:00:00Z</time>
				</trkpt>
				<trkpt lat="52.75104" lon="-0.41657">
					<ele>35</ele>
					<time>0001-01-01T00:00:00Z</time>
				</trkpt>
				<trkpt lat="52.74962" lon="-0.41670">
					<ele>30</ele>
					<time>0001-01-01T00:00:00Z</time>
				</trkpt>
				<trkpt lat="52.74837" lon="-0.41718">
					<ele>28</ele>
					<time>0001-01-01T00:00:00Z</time>
				</trkpt>
				<trkpt lat="52.74690" lon="-0.41785">
					<ele>28</ele>
					<time>0001-01-01T00:00:00Z</time>
				</trkpt>
				<trkpt lat="52.74625" lon="-0.41816">
					<ele>27</ele>
					<time>0001-01-01T00:00:00Z</time>
				</trkpt>
				<trkpt lat="52.74507" lon="-0.41832">
					<ele>34</ele>
					<time>0001-01-01T00:00:00Z</time>
				</trkpt>
				<trkpt lat="52.74407" lon="-0.41869">
					<ele>30</ele>
					<time>0001-01-01T00:00:00Z</time>
				</trkpt>
				<trkpt lat="52.74285" lon="-0.41959">
					<ele>28</ele>
					<time>0001-01-01T00:00:00Z</time>
				</trkpt>
				<trkpt lat="52.74263" lon="-0.41938">
					<ele>28</ele>
					<time>0001-01-01T00:00:00Z</time>
				</trkpt>
				<trkpt lat="52.74200" lon="-0.41812">
					<ele>25</ele>
					<time>0001-01-01T00:00:00Z</time>
				</trkpt>
				<trkpt lat="52.74188" lon="-0.41796">
					<ele>24</ele>
					<time>0001-01-01T00:00:00Z</time>
				</trkpt>
				<trkpt lat="52.74181" lon="-0.41750">
					<ele>24</ele>
					<time>0001-01-01T00:00:00Z</time>
				</trkpt>
				<trkpt lat="52.74209" lon="-0.41564">
					<ele>26</ele>
					<time>0001-01-01T00:00:00Z</time>
				</trkpt>
				<trkpt lat="52.74245" lon="-0.41464">
					<ele>25</ele>
					<time>0001-01-01T00:00:00Z</time>
				</trkpt>
				<trkpt lat="52.74251" lon="-0.41419">
					<ele>25</ele>
					<time>0001-01-01T00:00:00Z</time>
				</trkpt>
				<trkpt lat="52.74255" lon="-0.41332">
					<ele>26</ele>
					<time>0001-01-01T00:00:00Z</time>
				</trkpt>
				<trkpt lat="52.74261" lon="-0.41303">
					<ele>28</ele>
					<time>0001-01-01T00:00:00Z</time>
				</trkpt>
				<trkpt lat="52.74261" lon="-0.41192">
					<ele>28</ele>
					<time>0001-01-01T00:00:00Z</time>
				</trkpt>
				<trkpt lat="52.74288" lon="-0.41099">
					<ele>32</ele>
					<time>0001-01-01T00:00:00Z</time>
				</trkpt>
				<trkpt lat="52.74323" lon="-0.40985">
					<ele>37</ele>
					<time>0001-01-01T00:00:00Z</time>
				</trkpt>
				<trkpt lat="52.74325" lon="-0.40972">
					<ele>38</ele>
					<time>0001-01-01T00:00:00Z</time>
				</trkpt>
				<trkpt lat="52.74325" lon="-0.40915">
					<ele>40</ele>
					<time>0001-01-01T00:00:00Z</time>
				</trkpt>
				<trkpt lat="52.74308" lon="-0.40815">
					<ele>49</ele>
					<time>0001-01-01T00:00:00Z</time>
				</trkpt>
				<trkpt lat="52.74299" lon="-0.40799">
					<ele>48</ele>
					<time>0001-01-01T00:00:00Z</time>
				</trkpt>
				<trkpt lat="52.74274" lon="-0.40759">
					<ele>48</ele>
					<time>0001-01-01T00:00:00Z</time>
				</trkpt>
				<trkpt lat="52.74221" lon="-0.40677">
					<ele>47</ele>
					<time>0001-01-01T00:00:00Z</time>
				</trkpt>
				<trkpt lat="52.74111" lon="-0.40514">
					<ele>48</ele>
					<time>0001-01-01T00:00:00Z</time>
				</trkpt>
				<trkpt lat="52.74005" lon="-0.40358">
					<ele>51</ele>
					<time>0001-01-01T00:00:00Z</time>
				</trkpt>
				<trkpt lat="52.73905" lon="-0.40222">
					<ele>53</ele>
					<time>0001-01-01T00:00:00Z</time>
				</trkpt>
				<trkpt lat="52.73834" lon="-0.40071">
					<ele>51</ele>
					<time>0001-01-01T00:00:00Z</time>
				</trkpt>
				<trkpt lat="52.73759" lon="-0.39935">
					<ele>47</ele>
					<time>0001-01-01T00:00:00Z</time>
				</trkpt>
				<trkpt lat="52.73722" lon="-0.39781">
					<ele>47</ele>
					<time>0001-01-01T00:00:00Z</time>
				</trkpt>
				<trkpt lat="52.73697" lon="-0.39682">
					<ele>48</ele>
					<time>0001-01-01T00:00:00Z</time>
				</trkpt>
				<trkpt lat="52.73705" lon="-0.39633">
					<ele>50</ele>
					<time>0001-01-01T00:00:00Z</time>
				</trkpt>
				<trkpt lat="52.73744" lon="-0.39504">
					<ele>52</ele>
					<time>0001-01-01T00:00:00Z</time>
				</trkpt>
				<trkpt lat="52.73713" lon="-0.39283">
					<ele>49</ele>
					<time>0001-01-01T00:00:00Z</time>
				</trkpt>
				<trkpt lat="52.73663" lon="-0.39023">
					<ele>41</ele>
					<time>0001-01-01T00:00:00Z</time>
				</trkpt>
				<trkpt lat="52.73625" lon="-0.38764">
					<ele>32</ele>
					<time>0001-01-01T00:00:00Z</time>
				</trkpt>
				<trkpt lat="52.73656" lon="-0.38490">
					<ele>26</ele>
					<time>0001-01-01T00:00:00Z</time>
				</trkpt>
				<trkpt lat="52.73716" lon="-0.38220">
					<ele>24</ele>
					<time>0001-01-01T00:00:00Z</time>
				</trkpt>
				<trkpt lat="52.73759" lon="-0.38070">
					<ele>21</ele>
					<time>0001-01-01T00:00:00Z</time>
				</trkpt>
				<trkpt lat="52.73794" lon="-0.38033">
					<ele>22</ele>
					<time>0001-01-01T00:00:00Z</time>
				</trkpt>
				<trkpt lat="52.73818" lon="-0.38022">
					<ele>22</ele>
					<time>0001-01-01T00:00:00Z</time>
				</trkpt>
				<trkpt lat="52.73845" lon="-0.37976">
					<ele>21</ele>
					<time>0001-01-01T00:00:00Z</time>
				</trkpt>
				<trkpt lat="52.73856" lon="-0.37935">
					<ele>21</ele>
					<time>0001-01-01T00:00:00Z</time>
				</trkpt>
				<trkpt lat="52.73890" lon="-0.37898">
					<ele>19</ele>
					<time>0001-01-01T00:00:00Z</time>
				</trkpt>
				<trkpt lat="52.73897" lon="-0.37901">
					<ele>19</ele>
					<time>0001-01-01T00:00:00Z</time>
				</trkpt>
				<trkpt lat="52.73952" lon="-0.37945">
					<ele>20</ele>
					<time>0001-01-01T00:00:00Z</time>
				</trkpt>
				<trkpt lat="52.73987" lon="-0.37970">
					<ele>20</ele>
					<time>0001-01-01T00:00:00Z</time>
				</trkpt>
				<trkpt lat="52.74002" lon="-0.37948">
					<ele>20</ele>
					<time>0001-01-01T00:00:00Z</time>
				</trkpt>
				<trkpt lat="52.74018" lon="-0.37889">
					<ele>19</ele>
					<time>0001-01-01T00:00:00Z</time>
				</trkpt>
				<trkpt lat="52.74036" lon="-0.37887">
					<ele>19</ele>
					<time>0001-01-01T00:00:00Z</time>
				</trkpt>
				<trkpt lat="52.74040" lon="-0.37885">
					<ele>18</ele>
					<time>0001-01-01T00:00:00Z</time>
				</trkpt>
				<trkpt lat="52.74038" lon="-0.37885">
					<ele>19</ele>
					<time>0001-01-01T00:00:00Z</time>
				</trkpt>
				<trkpt lat="52.74038" lon="-0.37887">
					<ele>20</ele>
					<time>0001-01-01T00:00:00Z</time>
				</trkpt>
				<trkpt lat="52.74031" lon="-0.37887">
					<ele>19</ele>
					<time>0001-01-01T00:00:00Z</time>
				</trkpt>
				<trkpt lat="52.74020" lon="-0.37890">
					<ele>19</ele>
					<time>0001-01-01T00:00:00Z</time>
				</trkpt>
				<trkpt lat="52.74011" lon="-0.37913">
					<ele>20</ele>
					<time>0001-01-01T00:00:00Z</time>
				</trkpt>
				<trkpt lat="52.73997" lon="-0.37962">
					<ele>20</ele>
					<time>0001-01-01T00:00:00Z</time>
				</trkpt>
				<trkpt lat="52.73947" lon="-0.37938">
					<ele>19</ele>
					<time>0001-01-01T00:00:00Z</time>
				</trkpt>
				<trkpt lat="52.73875" lon="-0.37894">
					<ele>19</ele>
					<time>0001-01-01T00:00:00Z</time>
				</trkpt>
				<trkpt lat="52.73852" lon="-0.37884">
					<ele>18</ele>
					<time>0001-01-01T00:00:00Z</time>
				</trkpt>
				<trkpt lat="52.73816" lon="-0.37809">
					<ele>18</ele>
					<time>0001-01-01T00:00:00Z</time>
				</trkpt>
				<trkpt lat="52.73819" lon="-0.37615">
					<ele>17</ele>
					<time>0001-01-01T00:00:00Z</time>
				</trkpt>
				<trkpt lat="52.73842" lon="-0.37419">
					<ele>15</ele>
					<time>0001-01-01T00:00:00Z</time>
				</trkpt>
				<trkpt lat="52.73863" lon="-0.37241">
					<ele>14</ele>
					<time>0001-01-01T00:00:00Z</time>
				</trkpt>
				<trkpt lat="52.73814" lon="-0.37072">
					<ele>13</ele>
					<time>0001-01-01T00:00:00Z</time>
				</trkpt>
				<trkpt lat="52.73780" lon="-0.36887">
					<ele>14</ele>
					<time>0001-01-01T00:00:00Z</time>
				</trkpt>
				<trkpt lat="52.73782" lon="-0.36744">
					<ele>14</ele>
					<time>0001-01-01T00:00:00Z</time>
				</trkpt>
				<trkpt lat="52.73782" lon="-0.36738">
					<ele>13</ele>
					<time>0001-01-01T00:00:00Z</time>
				</trkpt>
				<trkpt lat="52.73777" lon="-0.36725">
					<ele>13</ele>
					<time>0001-01-01T00:00:00Z</time>
				</trkpt>
				<trkpt lat="52.73707" lon="-0.36714">
					<ele>10</ele>
					<time>0001-01-01T00:00:00Z</time>
				</trkpt>
				<trkpt lat="52.73576" lon="-0.36720">
					<ele>8</ele>
					<time>0001-01-01T00:00:00Z</time>
				</trkpt>
				<trkpt lat="52.73437" lon="-0.36733">
					<ele>7</ele>
					<time>0001-01-01T00:00:00Z</time>
				</trkpt>
				<trkpt lat="52.73277" lon="-0.36750">
					<ele>7</ele>
					<time>0001-01-01T00:00:00Z</time>
				</trkpt>
				<trkpt lat="52.73102" lon="-0.36742">
					<ele>6</ele>
					<time>0001-01-01T00:00:00Z</time>
				</trkpt>
				<trkpt lat="52.72941" lon="-0.36660">
					<ele>7</ele>
					<time>0001-01-01T00:00:00Z</time>
				</trkpt>
				<trkpt lat="52.72805" lon="-0.36552">
					<ele>8</ele>
					<time>0001-01-01T00:00:00Z</time>
				</trkpt>
				<trkpt lat="52.72635" lon="-0.36406">
					<ele>9</ele>
					<time>0001-01-01T00:00:00Z</time>
				</trkpt>
				<trkpt lat="52.72483" lon="-0.36357">
					<ele>9</ele>
					<time>0001-01-01T00:00:00Z</time>
				</trkpt>
				<trkpt lat="52.72338" lon="-0.36359">
					<ele>7</ele>
					<time>0001-01-01T00:00:00Z</time>
				</trkpt>
				<trkpt lat="52.72174" lon="-0.36358">
					<ele>6</ele>
					<time>0001-01-01T00:00:00Z</time>
				</trkpt>
				<trkpt lat="52.71979" lon="-0.36316">
					<ele>7</ele>
					<time>0001-01-01T00:00:00Z</time>
				</trkpt>
				<trkpt lat="52.71882" lon="-0.36272">
					<ele>6</ele>
					<time>0001-01-01T00:00:00Z</time>
				</trkpt>
				<trkpt lat="52.71857" lon="-0.36277">
					<ele>6</ele>
					<time>0001-01-01T00:00:00Z</time>
				</trkpt>
				<trkpt lat="52.71740" lon="-0.36314">
					<ele>7</ele>
					<time>0001-01-01T00:00:00Z</time>
				</trkpt>
				<trkpt lat="52.71582" lon="-0.36348">
					<ele>7</ele>
					<time>0001-01-01T00:00:00Z</time>
				</trkpt>
				<trkpt lat="52.71428" lon="-0.36340">
					<ele>7</ele>
					<time>0001-01-01T00:00:00Z</time>
				</trkpt>
				<trkpt lat="52.71275" lon="-0.36329">
					<ele>8</ele>
					<time>0001-01-01T00:00:00Z</time>
				</trkpt>
				<trkpt lat="52.71136" lon="-0.36318">
					<ele>8</ele>
					<time>0001-01-01T00:00:00Z</time>
				</trkpt>
				<trkpt lat="52.70942" lon="-0.36303">
					<ele>7</ele>
					<time>0001-01-01T00:00:00Z</time>
				</trkpt>
				<trkpt lat="52.70746" lon="-0.36292">
					<ele>8</ele>
					<time>0001-01-01T00:00:00Z</time>
				</trkpt>
				<trkpt lat="52.70578" lon="-0.36280">
					<ele>8</ele>
					<time>0001-01-01T00:00:00Z</time>
				</trkpt>
				<trkpt lat="52.70431" lon="-0.36269">
					<ele>8</ele>
					<time>0001-01-01T00:00:00Z</time>
				</trkpt>
				<trkpt lat="52.70270" lon="-0.36258">
					<ele>8</ele>
					<time>0001-01-01T00:00:00Z</time>
				</trkpt>
				<trkpt lat="52.70086" lon="-0.36244">
					<ele>8</ele>
					<time>0001-01-01T00:00:00Z</time>
				</trkpt>
				<trkpt lat="52.69899" lon="-0.36231">
					<ele>9</ele>
					<time>0001-01-01T00:00:00Z</time>
				</trkpt>
				<trkpt lat="52.69747" lon="-0.36221">
					<ele>11</ele>
					<time>0001-01-01T00:00:00Z</time>
				</trkpt>
				<trkpt lat="52.69574" lon="-0.36209">
					<ele>10</ele>
					<time>0001-01-01T00:00:00Z</time>
				</trkpt>
				<trkpt lat="52.69407" lon="-0.36200">
					<ele>9</ele>
					<time>0001-01-01T00:00:00Z</time>
				</trkpt>
				<trkpt lat="52.69230" lon="-0.36185">
					<ele>11</ele>
					<time>0001-01-01T00:00:00Z</time>
				</trkpt>
				<trkpt lat="52.69087" lon="-0.36173">
					<ele>11</ele>
					<time>0001-01-01T00:00:00Z</time>
				</trkpt>
				<trkpt lat="52.68968" lon="-0.36163">
					<ele>9</ele>
					<time>0001-01-01T00:00:00Z</time>
				</trkpt>
				<trkpt lat="52.68826" lon="-0.36147">
					<ele>7</ele>
					<time>0001-01-01T00:00:00Z</time>
				</trkpt>
				<trkpt lat="52.68677" lon="-0.36138">
					<ele>6</ele>
					<time>0001-01-01T00:00:00Z</time>
				</trkpt>
				<trkpt lat="52.68543" lon="-0.36135">
					<ele>7</ele>
					<time>0001-01-01T00:00:00Z</time>
				</trkpt>
				<trkpt lat="52.68394" lon="-0.36125">
					<ele>8</ele>
					<time>0001-01-01T00:00:00Z</time>
				</trkpt>
				<trkpt lat="52.68193" lon="-0.36109">
					<ele>8</ele>
					<time>0001-01-01T00:00:00Z</time>
				</trkpt>
				<trkpt lat="52.68048" lon="-0.36102">
					<ele>8</ele>
					<time>0001-01-01T00:00:00Z</time>
				</trkpt>
				<trkpt lat="52.67898" lon="-0.36094">
					<ele>8</ele>
					<time>0001-01-01T00:00:00Z</time>
				</trkpt>
				<trkpt lat="52.67735" lon="-0.36077">
					<ele>10</ele>
					<time>0001-01-01T00:00:00Z</time>
				</trkpt>
				<trkpt lat="52.67563" lon="-0.36073">
					<ele>11</ele>
					<time>0001-01-01T00:00:00Z</time>
				</trkpt>
				<trkpt lat="52.67362" lon="-0.36073">
					<ele>8</ele>
					<time>0001-01-01T00:00:00Z</time>
				</trkpt>
				<trkpt lat="52.67183" lon="-0.36052">
					<ele>7</ele>
					<time>0001-01-01T00:00:00Z</time>
				</trkpt>
				<trkpt lat="52.67055" lon="-0.36040">
					<ele>6</ele>
					<time>0001-01-01T00:00:00Z</time>
				</trkpt>
				<trkpt lat="52.67041" lon="-0.36032">
					<ele>6</ele>
					<time>0001-01-01T00:00:00Z</time>
				</trkpt>
				<trkpt lat="52.67033" lon="-0.36032">
					<ele>6</ele>
					<time>0001-01-01T00:00:00Z</time>
				</trkpt>
				<trkpt lat="52.67021" lon="-0.36038">
					<ele>6</ele>
					<time>0001-01-01T00:00:00Z</time>
				</trkpt>
				<trkpt lat="52.66960" lon="-0.36035">
					<ele>7</ele>
					<time>0001-01-01T00:00:00Z</time>
				</trkpt>
				<trkpt lat="52.66888" lon="-0.36032">
					<ele>7</ele>
					<time>0001-01-01T00:00:00Z</time>
				</trkpt>
				<trkpt lat="52.66759" lon="-0.36021">
					<ele>8</ele>
					<time>0001-01-01T00:00:00Z</time>
				</trkpt>
				<trkpt lat="52.66585" lon="-0.35981">
					<ele>9</ele>
					<time>0001-01-01T00:00:00Z</time>
				</trkpt>
				<trkpt lat="52.66325" lon="-0.35928">
					<ele>9</ele>
					<time>0001-01-01T00:00:00Z</time>
				</trkpt>
				<trkpt lat="52.66248" lon="-0.35933">
					<ele>9</ele>
					<time>0001-01-01T00:00:00Z</time>
				</trkpt>
				<trkpt lat="52.66107" lon="-0.35929">
					<ele>9</ele>
					<time>0001-01-01T00:00:00Z</time>
				</trkpt>
				<trkpt lat="52.65954" lon="-0.35929">
					<ele>8</ele>
					<time>0001-01-01T00:00:00Z</time>
				</trkpt>
				<trkpt lat="52.65780" lon="-0.35929">
					<ele>11</ele>
					<time>0001-01-01T00:00:00Z</time>
				</trkpt>
				<trkpt lat="52.65604" lon="-0.35934">
					<ele>9</ele>
					<time>0001-01-01T00:00:00Z</time>
				</trkpt>
				<trkpt lat="52.65400" lon="-0.35939">
					<ele>12</ele>
					<time>0001-01-01T00:00:00Z</time>
				</trkpt>
				<trkpt lat="52.65287" lon="-0.35937">
					<ele>15</ele>
					<time>0001-01-01T00:00:00Z</time>
				</trkpt>
				<trkpt lat="52.65034" lon="-0.35899">
					<ele>12</ele>
					<time>0001-01-01T00:00:00Z</time>
				</trkpt>
				<trkpt lat="52.64928" lon="-0.35883">
					<ele>12</ele>
					<time>0001-01-01T00:00:00Z</time>
				</trkpt>
				<trkpt lat="52.64816" lon="-0.35901">
					<ele>12</ele>
					<time>0001-01-01T00:00:00Z</time>
				</trkpt>
				<trkpt lat="52.64689" lon="-0.35900">
					<ele>11</ele>
					<time>0001-01-01T00:00:00Z</time>
				</trkpt>
				<trkpt lat="52.64492" lon="-0.35889">
					<ele>11</ele>
					<time>0001-01-01T00:00:00Z</time>
				</trkpt>
				<trkpt lat="52.64344" lon="-0.35884">
					<ele>12</ele>
					<time>0001-01-01T00:00:00Z</time>
				</trkpt>
				<trkpt lat="52.64247" lon="-0.35874">
					<ele>12</ele>
					<time>0001-01-01T00:00:00Z</time>
				</trkpt>
				<trkpt lat="52.64058" lon="-0.35855">
					<ele>11</ele>
					<time>0001-01-01T00:00:00Z</time>
				</trkpt>
				<trkpt lat="52.63912" lon="-0.35826">
					<ele>11</ele>
					<time>0001-01-01T00:00:00Z</time>
				</trkpt>
				<trkpt lat="52.63743" lon="-0.35831">
					<ele>14</ele>
					<time>0001-01-01T00:00:00Z</time>
				</trkpt>
				<trkpt lat="52.63616" lon="-0.35815">
					<ele>16</ele>
					<time>0001-01-01T00:00:00Z</time>
				</trkpt>
				<trkpt lat="52.63510" lon="-0.35762">
					<ele>18</ele>
					<time>0001-01-01T00:00:00Z</time>
				</trkpt>
				<trkpt lat="52.63451" lon="-0.35778">
					<ele>18</ele>
					<time>0001-01-01T00:00:00Z</time>
				</trkpt>
				<trkpt lat="52.63291" lon="-0.35790">
					<ele>19</ele>
					<time>0001-01-01T00:00:00Z</time>
				</trkpt>
				<trkpt lat="52.63146" lon="-0.35771">
					<ele>19</ele>
					<time>0001-01-01T00:00:00Z</time>
				</trkpt>
				<trkpt lat="52.62990" lon="-0.35762">
					<ele>18</ele>
					<time>0001-01-01T00:00:00Z</time>
				</trkpt>
				<trkpt lat="52.62791" lon="-0.35754">
					<ele>16</ele>
					<time>0001-01-01T00:00:00Z</time>
				</trkpt>
				<trkpt lat="52.62609" lon="-0.35733">
					<ele>16</ele>
					<time>0001-01-01T00:00:00Z</time>
				</trkpt>
				<trkpt lat="52.62495" lon="-0.35736">
					<ele>19</ele>
					<time>0001-01-01T00:00:00Z</time>
				</trkpt>
				<trkpt lat="52.62427" lon="-0.35736">
					<ele>23</ele>
					<time>0001-01-01T00:00:00Z</time>
				</trkpt>
				<trkpt lat="52.62320" lon="-0.35734">
					<ele>30</ele>
					<time>0001-01-01T00:00:00Z</time>
				</trkpt>
				<trkpt lat="52.62192" lon="-0.35733">
					<ele>32</ele>
					<time>0001-01-01T00:00:00Z</time>
				</trkpt>
				<trkpt lat="52.62007" lon="-0.35730">
					<ele>32</ele>
					<time>0001-01-01T00:00:00Z</time>
				</trkpt>
				<trkpt lat="52.61843" lon="-0.35724">
					<ele>29</ele>
					<time>0001-01-01T00:00:00Z</time>
				</trkpt>
				<trkpt lat="52.61719" lon="-0.35716">
					<ele>34</ele>
					<time>0001-01-01T00:00:00Z</time>
				</trkpt>
				<trkpt lat="52.61623" lon="-0.35709">
					<ele>34</ele>
					<time>0001-01-01T00:00:00Z</time>
				</trkpt>
				<trkpt lat="52.61605" lon="-0.35706">
					<ele>34</ele>
					<time>0001-01-01T00:00:00Z</time>
				</trkpt>
				<trkpt lat="52.61521" lon="-0.35705">
					<ele>35</ele>
					<time>0001-01-01T00:00:00Z</time>
				</trkpt>
				<trkpt lat="52.61420" lon="-0.35697">
					<ele>38</ele>
					<time>0001-01-01T00:00:00Z</time>
				</trkpt>
				<trkpt lat="52.61311" lon="-0.35691">
					<ele>41</ele>
					<time>0001-01-01T00:00:00Z</time>
				</trkpt>
				<trkpt lat="52.61172" lon="-0.35683">
					<ele>41</ele>
					<time>0001-01-01T00:00:00Z</time>
				</trkpt>
				<trkpt lat="52.61036" lon="-0.35674">
					<ele>45</ele>
					<time>0001-01-01T00:00:00Z</time>
				</trkpt>
				<trkpt lat="52.61017" lon="-0.35678">
					<ele>46</ele>
					<time>0001-01-01T00:00:00Z</time>
				</trkpt>
				<trkpt lat="52.61006" lon="-0.35690">
					<ele>46</ele>
					<time>0001-01-01T00:00:00Z</time>
				</trkpt>
				<trkpt lat="52.60918" lon="-0.35871">
					<ele>46</ele>
					<time>0001-01-01T00:00:00Z</time>
				</trkpt>
				<trkpt lat="52.60794" lon="-0.36102">
					<ele>47</ele>
					<time>0001-01-01T00:00:00Z</time>
				</trkpt>
				<trkpt lat="52.60727" lon="-0.36282">
					<ele>48</ele>
					<time>0001-01-01T00:00:00Z</time>
				</trkpt>
				<trkpt lat="52.60693" lon="-0.36538">
					<ele>50</ele>
					<time>0001-01-01T00:00:00Z</time>
				</trkpt>
				<trkpt lat="52.60692" lon="-0.36580">
					<ele>51</ele>
					<time>0001-01-01T00:00:00Z</time>
				</trkpt>
				<trkpt lat="52.60721" lon="-0.36771">
					<ele>53</ele>
					<time>0001-01-01T00:00:00Z</time>
				</trkpt>
				<trkpt lat="52.60695" lon="-0.36850">
					<ele>53</ele>
					<time>0001-01-01T00:00:00Z</time>
				</trkpt>
				<trkpt lat="52.60688" lon="-0.36854">
					<ele>53</ele>
					<time>0001-01-01T00:00:00Z</time>
				</trkpt>
				<trkpt lat="52.60523" lon="-0.36904">
					<ele>52</ele>
					<time>0001-01-01T00:00:00Z</time>
				</trkpt>
				<trkpt lat="52.60362" lon="-0.36916">
					<ele>53</ele>
					<time>0001-01-01T00:00:00Z</time>
				</trkpt>
				<trkpt lat="52.60250" lon="-0.36943">
					<ele>51</ele>
					<time>0001-01-01T00:00:00Z</time>
				</trkpt>
				<trkpt lat="52.60135" lon="-0.36962">
					<ele>51</ele>
					<time>0001-01-01T00:00:00Z</time>
				</trkpt>
				<trkpt lat="52.60103" lon="-0.36960">
					<ele>51</ele>
					<time>0001-01-01T00:00:00Z</time>
				</trkpt>
				<trkpt lat="52.59967" lon="-0.37023">
					<ele>49</ele>
					<time>0001-01-01T00:00:00Z</time>
				</trkpt>
				<trkpt lat="52.59778" lon="-0.37115">
					<ele>46</ele>
					<time>0001-01-01T00:00:00Z</time>
				</trkpt>
				<trkpt lat="52.59735" lon="-0.37139">
					<ele>45</ele>
					<time>0001-01-01T00:00:00Z</time>
				</trkpt>
				<trkpt lat="52.59707" lon="-0.37198">
					<ele>44</ele>
					<time>0001-01-01T00:00:00Z</time>
				</trkpt>
				<trkpt lat="52.59701" lon="-0.37221">
					<ele>45</ele>
					<time>0001-01-01T00:00:00Z</time>
				</trkpt>
				<trkpt lat="52.59662" lon="-0.37269">
					<ele>46</ele>
					<time>0001-01-01T00:00:00Z</time>
				</trkpt>
				<trkpt lat="52.59648" lon="-0.37274">
					<ele>46</ele>
					<time>0001-01-01T00:00:00Z</time>
				</trkpt>
				<trkpt lat="52.59575" lon="-0.37344">
					<ele>46</ele>
					<time>0001-01-01T00:00:00Z</time>
				</trkpt>
				<trkpt lat="52.59439" lon="-0.37482">
					<ele>46</ele>
					<time>0001-01-01T00:00:00Z</time>
				</trkpt>
				<trkpt lat="52.59343" lon="-0.37661">
					<ele>47</ele>
					<time>0001-01-01T00:00:00Z</time>
				</trkpt>
				<trkpt lat="52.59224" lon="-0.37833">
					<ele>47</ele>
					<time>0001-01-01T00:00:00Z</time>
				</trkpt>
				<trkpt lat="52.59111" lon="-0.38201">
					<ele>46</ele>
					<time>0001-01-01T00:00:00Z</time>
				</trkpt>
				<trkpt lat="52.59048" lon="-0.38409">
					<ele>43</ele>
					<time>0001-01-01T00:00:00Z</time>
				</trkpt>
				<trkpt lat="52.58928" lon="-0.38601">
					<ele>39</ele>
					<time>0001-01-01T00:00:00Z</time>
				</trkpt>
				<trkpt lat="52.58815" lon="-0.38791">
					<ele>37</ele>
					<time>0001-01-01T00:00:00Z</time>
				</trkpt>
				<trkpt lat="52.58805" lon="-0.38806">
					<ele>36</ele>
					<time>0001-01-01T00:00:00Z</time>
				</trkpt>
				<trkpt lat="52.58791" lon="-0.38848">
					<ele>34</ele>
					<time>0001-01-01T00:00:00Z</time>
				</trkpt>
				<trkpt lat="52.58752" lon="-0.38997">
					<ele>28</ele>
					<time>0001-01-01T00:00:00Z</time>
				</trkpt>
				<trkpt lat="52.58700" lon="-0.39001">
					<ele>27</ele>
					<time>0001-01-01T00:00:00Z</time>
				</trkpt>
				<trkpt lat="52.58671" lon="-0.39024">
					<ele>26</ele>
					<time>0001-01-01T00:00:00Z</time>
				</trkpt>
				<trkpt lat="52.58630" lon="-0.39073">
					<ele>25</ele>
					<time>0001-01-01T00:00:00Z</time>
				</trkpt>
				<trkpt lat="52.58482" lon="-0.39244">
					<ele>22</ele>
					<time>0001-01-01T00:00:00Z</time>
				</trkpt>
				<trkpt lat="52.58437" lon="-0.39298">
					<ele>20</ele>
					<time>0001-01-01T00:00:00Z</time>
				</trkpt>
				<trkpt lat="52.58394" lon="-0.39311">
					<ele>20</ele>
					<time>0001-01-01T00:00:00Z</time>
				</trkpt>
				<trkpt lat="52.58314" lon="-0.39259">
					<ele>23</ele>
					<time>0001-01-01T00:00:00Z</time>
				</trkpt>
				<trkpt lat="52.58313" lon="-0.39258">
					<ele>23</ele>
					<time>0001-01-01T00:00:00Z</time>
				</trkpt>
				<trkpt lat="52.58309" lon="-0.39258">
					<ele>22</ele>
					<time>0001-01-01T00:00:00Z</time>
				</trkpt>
				<trkpt lat="52.58302" lon="-0.39271">
					<ele>21</ele>
					<time>0001-01-01T00:00:00Z</time>
				</trkpt>
				<trkpt lat="52.58322" lon="-0.39416">
					<ele>19</ele>
					<time>0001-01-01T00:00:00Z</time>
				</trkpt>
				<trkpt lat="52.58368" lon="-0.39658">
					<ele>16</ele>
					<time>0001-01-01T00:00:00Z</time>
				</trkpt>
				<trkpt lat="52.58395" lon="-0.39858">
					<ele>17</ele>
					<time>0001-01-01T00:00:00Z</time>
				</trkpt>
				<trkpt lat="52.58418" lon="-0.40096">
					<ele>19</ele>
					<time>0001-01-01T00:00:00Z</time>
				</trkpt>
				<trkpt lat="52.58420" lon="-0.40309">
					<ele>18</ele>
					<time>0001-01-01T00:00:00Z</time>
				</trkpt>
				<trkpt lat="52.58422" lon="-0.40448">
					<ele>19</ele>
					<time>0001-01-01T00:00:00Z</time>
				</trkpt>
				<trkpt lat="52.58429" lon="-0.40670">
					<ele>23</ele>
					<time>0001-01-01T00:00:00Z</time>
				</trkpt>
				<trkpt lat="52.58457" lon="-0.40936">
					<ele>28</ele>
					<time>0001-01-01T00:00:00Z</time>
				</trkpt>
				<trkpt lat="52.58479" lon="-0.41144">
					<ele>33</ele>
					<time>0001-01-01T00:00:00Z</time>
				</trkpt>
				<trkpt lat="52.58485" lon="-0.41207">
					<ele>34</ele>
					<time>0001-01-01T00:00:00Z</time>
				</trkpt>
				<trkpt lat="52.58477" lon="-0.41236">
					<ele>34</ele>
					<time>0001-01-01T00:00:00Z</time>
				</trkpt>
				<trkpt lat="52.58481" lon="-0.41341">
					<ele>36</ele>
					<time>0001-01-01T00:00:00Z</time>
				</trkpt>
				<trkpt lat="52.58493" lon="-0.41555">
					<ele>36</ele>
					<time>0001-01-01T00:00:00Z</time>
				</trkpt>
				<trkpt lat="52.58500" lon="-0.41616">
					<ele>36</ele>
					<time>0001-01-01T00:00:00Z</time>
				</trkpt>
				<trkpt lat="52.58479" lon="-0.41681">
					<ele>36</ele>
					<time>0001-01-01T00:00:00Z</time>
				</trkpt>
				<trkpt lat="52.58460" lon="-0.41682">
					<ele>36</ele>
					<time>0001-01-01T00:00:00Z</time>
				</trkpt>
				<trkpt lat="52.58305" lon="-0.41715">
					<ele>31</ele>
					<time>0001-01-01T00:00:00Z</time>
				</trkpt>
				<trkpt lat="52.58101" lon="-0.41683">
					<ele>26</ele>
					<time>0001-01-01T00:00:00Z</time>
				</trkpt>
				<trkpt lat="52.58092" lon="-0.41676">
					<ele>24</ele>
					<time>0001-01-01T00:00:00Z</time>
				</trkpt>
				<trkpt lat="52.58072" lon="-0.41685">
					<ele>21</ele>
					<time>0001-01-01T00:00:00Z</time>
				</trkpt>
				<trkpt lat="52.58034" lon="-0.41667">
					<ele>16</ele>
					<time>0001-01-01T00:00:00Z</time>
				</trkpt>
				<trkpt lat="52.57979" lon="-0.41588">
					<ele>16</ele>
					<time>0001-01-01T00:00:00Z</time>
				</trkpt>
				<trkpt lat="52.57936" lon="-0.41516">
					<ele>16</ele>
					<time>0001-01-01T00:00:00Z</time>
				</trkpt>
				<trkpt lat="52.57928" lon="-0.41501">
					<ele>15</ele>
					<time>0001-01-01T00:00:00Z</time>
				</trkpt>
				<trkpt lat="52.57843" lon="-0.41412">
					<ele>12</ele>
					<time>0001-01-01T00:00:00Z</time>
				</trkpt>
				<trkpt lat="52.57722" lon="-0.41309">
					<ele>12</ele>
					<time>0001-01-01T00:00:00Z</time>
				</trkpt>
				<trkpt lat="52.57518" lon="-0.41140">
					<ele>18</ele>
					<time>0001-01-01T00:00:00Z</time>
				</trkpt>
				<trkpt lat="52.57447" lon="-0.41077">
					<ele>24</ele>
					<time>0001-01-01T00:00:00Z</time>
				</trkpt>
				<trkpt lat="52.57357" lon="-0.41025">
					<ele>28</ele>
					<time>0001-01-01T00:00:00Z</time>
				</trkpt>
				<trkpt lat="52.57255" lon="-0.40971">
					<ele>27</ele>
					<time>0001-01-01T00:00:00Z</time>
				</trkpt>
				<trkpt lat="52.57150" lon="-0.40907">
					<ele>25</ele>
					<time>0001-01-01T00:00:00Z</time>
				</trkpt>
				<trkpt lat="52.57055" lon="-0.40801">
					<ele>25</ele>
					<time>0001-01-01T00:00:00Z</time>
				</trkpt>
				<trkpt lat="52.56980" lon="-0.40720">
					<ele>30</ele>
					<time>0001-01-01T00:00:00Z</time>
				</trkpt>
				<trkpt lat="52.56934" lon="-0.40660">
					<ele>34</ele>
					<time>0001-01-01T00:00:00Z</time>
				</trkpt>
				<trkpt lat="52.56841" lon="-0.40543">
					<ele>37</ele>
					<time>0001-01-01T00:00:00Z</time>
				</trkpt>
				<trkpt lat="52.56745" lon="-0.40443">
					<ele>38</ele>
					<time>0001-01-01T00:00:00Z</time>
				</trkpt>
				<trkpt lat="52.56626" lon="-0.40323">
					<ele>38</ele>
					<time>0001-01-01T00:00:00Z</time>
				</trkpt>
				<trkpt lat="52.56524" lon="-0.40245">
					<ele>37</ele>
					<time>0001-01-01T00:00:00Z</time>
				</trkpt>
				<trkpt lat="52.56399" lon="-0.40154">
					<ele>37</ele>
					<time>0001-01-01T00:00:00Z</time>
				</trkpt>
				<trkpt lat="52.56271" lon="-0.40082">
					<ele>38</ele>
					<time>0001-01-01T00:00:00Z</time>
				</trkpt>
				<trkpt lat="52.56153" lon="-0.40019">
					<ele>37</ele>
					<time>0001-01-01T00:00:00Z</time>
				</trkpt>
				<trkpt lat="52.56025" lon="-0.39955">
					<ele>35</ele>
					<time>0001-01-01T00:00:00Z</time>
				</trkpt>
				<trkpt lat="52.55894" lon="-0.39858">
					<ele>34</ele>
					<time>0001-01-01T00:00:00Z</time>
				</trkpt>
				<trkpt lat="52.55793" lon="-0.39782">
					<ele>38</ele>
					<time>0001-01-01T00:00:00Z</time>
				</trkpt>
				<trkpt lat="52.55680" lon="-0.39730">
					<ele>40</ele>
					<time>0001-01-01T00:00:00Z</time>
				</trkpt>
				<trkpt lat="52.55539" lon="-0.39672">
					<ele>42</ele>
					<time>0001-01-01T00:00:00Z</time>
				</trkpt>
				<trkpt lat="52.55369" lon="-0.39575">
					<ele>45</ele>
					<time>0001-01-01T00:00:00Z</time>
				</trkpt>
				<trkpt lat="52.55248" lon="-0.39462">
					<ele>43</ele>
					<time>0001-01-01T00:00:00Z</time>
				</trkpt>
				<trkpt lat="52.55135" lon="-0.39364">
					<ele>42</ele>
					<time>0001-01-01T00:00:00Z</time>
				</trkpt>
				<trkpt lat="52.55021" lon="-0.39252">
					<ele>39</ele>
					<time>0001-01-01T00:00:00Z</time>
				</trkpt>
				<trkpt lat="52.54970" lon="-0.39200">
					<ele>39</ele>
					<time>0001-01-01T00:00:00Z</time>
				</trkpt>
				<trkpt lat="52.54933" lon="-0.39203">
					<ele>40</ele>
					<time>0001-01-01T00:00:00Z</time>
				</trkpt>
				<trkpt lat="52.54810" lon="-0.39271">
					<ele>42</ele>
					<time>0001-01-01T00:00:00Z</time>
				</trkpt>
				<trkpt lat="52.54795" lon="-0.39284">
					<ele>42</ele>
					<time>0001-01-01T00:00:00Z</time>
				</trkpt>
				<trkpt lat="52.54785" lon="-0.39295">
					<ele>41</ele>
					<time>0001-01-01T00:00:00Z</time>
				</trkpt>
				<trkpt lat="52.54757" lon="-0.39385">
					<ele>39</ele>
					<time>0001-01-01T00:00:00Z</time>
				</trkpt>
				<trkpt lat="52.54704" lon="-0.39434">
					<ele>37</ele>
					<time>0001-01-01T00:00:00Z</time>
				</trkpt>
				<trkpt lat="52.54689" lon="-0.39427">
					<ele>37</ele>
					<time>0001-01-01T00:00:00Z</time>
				</trkpt>
				<trkpt lat="52.54542" lon="-0.39347">
					<ele>35</ele>
					<time>0001-01-01T00:00:00Z</time>
				</trkpt>
				<trkpt lat="52.54391" lon="-0.39275">
					<ele>28</ele>
					<time>0001-01-01T00:00:00Z</time>
				</trkpt>
				<trkpt lat="52.54280" lon="-0.39315">
					<ele>25</ele>
					<time>0001-01-01T00:00:00Z</time>
				</trkpt>
				<trkpt lat="52.54164" lon="-0.39376">
					<ele>28</ele>
					<time>0001-01-01T00:00:00Z</time>
				</trkpt>
				<trkpt lat="52.54087" lon="-0.39384">
					<ele>33</ele>
					<time>0001-01-01T00:00:00Z</time>
				</trkpt>
				<trkpt lat="52.53857" lon="-0.39410">
					<ele>36</ele>
					<time>0001-01-01T00:00:00Z</time>
				</trkpt>
				<trkpt lat="52.53679" lon="-0.39388">
					<ele>33</ele>
					<time>0001-01-01T00:00:00Z</time>
				</trkpt>
				<trkpt lat="52.53555" lon="-0.39438">
					<ele>26</ele>
					<time>0001-01-01T00:00:00Z</time>
				</trkpt>
				<trkpt lat="52.53396" lon="-0.39495">
					<ele>22</ele>
					<time>0001-01-01T00:00:00Z</time>
				</trkpt>
				<trkpt lat="52.53318" lon="-0.39508">
					<ele>26</ele>
					<time>0001-01-01T00:00:00Z</time>
				</trkpt>
				<trkpt lat="52.53234" lon="-0.39511">
					<ele>28</ele>
					<time>0001-01-01T00:00:00Z</time>
				</trkpt>
				<trkpt lat="52.53181" lon="-0.39513">
					<ele>29</ele>
					<time>0001-01-01T00:00:00Z</time>
				</trkpt>
				<trkpt lat="52.53145" lon="-0.39489">
					<ele>29</ele>
					<time>0001-01-01T00:00:00Z</time>
				</trkpt>
				<trkpt lat="52.53144" lon="-0.39461">
					<ele>29</ele>
					<time>0001-01-01T00:00:00Z</time>
				</trkpt>
				<trkpt lat="52.53201" lon="-0.39296">
					<ele>29</ele>
					<time>0001-01-01T00:00:00Z</time>
				</trkpt>
				<trkpt lat="52.53263" lon="-0.39104">
					<ele>29</ele>
					<time>0001-01-01T00:00:00Z</time>
				</trkpt>
				<trkpt lat="52.53292" lon="-0.38961">
					<ele>30</ele>
					<time>0001-01-01T00:00:00Z</time>
				</trkpt>
				<trkpt lat="52.53284" lon="-0.38731">
					<ele>34</ele>
					<time>0001-01-01T00:00:00Z</time>
				</trkpt>
				<trkpt lat="52.53287" lon="-0.38613">
					<ele>39</ele>
					<time>0001-01-01T00:00:00Z</time>
				</trkpt>
				<trkpt lat="52.53305" lon="-0.38496">
					<ele>44</ele>
					<time>0001-01-01T00:00:00Z</time>
				</trkpt>
				<trkpt lat="52.53317" lon="-0.38380">
					<ele>48</ele>
					<time>0001-01-01T00:00:00Z</time>
				</trkpt>
				<trkpt lat="52.53314" lon="-0.38213">
					<ele>53</ele>
					<time>0001-01-01T00:00:00Z</time>
				</trkpt>
				<trkpt lat="52.53314" lon="-0.38030">
					<ele>50</ele>
					<time>0001-01-01T00:00:00Z</time>
				</trkpt>
				<trkpt lat="52.53362" lon="-0.37785">
					<ele>43</ele>
					<time>0001-01-01T00:00:00Z</time>
				</trkpt>
				<trkpt lat="52.53431" lon="-0.37409">
					<ele>37</ele>
					<time>0001-01-01T00:00:00Z</time>
				</trkpt>
				<trkpt lat="52.53435" lon="-0.37119">
					<ele>32</ele>
					<time>0001-01-01T00:00:00Z</time>
				</trkpt>
				<trkpt lat="52.53448" lon="-0.36821">
					<ele>29</ele>
					<time>0001-01-01T00:00:00Z</time>
				</trkpt>
				<trkpt lat="52.53460" lon="-0.36736">
					<ele>28</ele>
					<time>0001-01-01T00:00:00Z</time>
				</trkpt>
				<trkpt lat="52.53445" lon="-0.36704">
					<ele>28</ele>
					<time>0001-01-01T00:00:00Z</time>
				</trkpt>
				<trkpt lat="52.53332" lon="-0.36599">
					<ele>26</ele>
					<time>0001-01-01T00:00:00Z</time>
				</trkpt>
				<trkpt lat="52.53185" lon="-0.36473">
					<ele>29</ele>
					<time>0001-01-01T00:00:00Z</time>
				</trkpt>
				<trkpt lat="52.53029" lon="-0.36347">
					<ele>25</ele>
					<time>0001-01-01T00:00:00Z</time>
				</trkpt>
				<trkpt lat="52.52899" lon="-0.36239">
					<ele>25</ele>
					<time>0001-01-01T00:00:00Z</time>
				</trkpt>
				<trkpt lat="52.52785" lon="-0.36139">
					<ele>25</ele>
					<time>0001-01-01T00:00:00Z</time>
				</trkpt>
				<trkpt lat="52.52606" lon="-0.35990">
					<ele>24</ele>
					<time>0001-01-01T00:00:00Z</time>
				</trkpt>
				<trkpt lat="52.52492" lon="-0.35895">
					<ele>28</ele>
					<time>0001-01-01T00:00:00Z</time>
				</trkpt>
				<trkpt lat="52.52397" lon="-0.35825">
					<ele>25</ele>
					<time>0001-01-01T00:00:00Z</time>
				</trkpt>
				<trkpt lat="52.52256" lon="-0.35774">
					<ele>24</ele>
					<time>0001-01-01T00:00:00Z</time>
				</trkpt>
				<trkpt lat="52.52101" lon="-0.35740">
					<ele>22</ele>
					<time>0001-01-01T00:00:00Z</time>
				</trkpt>
				<trkpt lat="52.51951" lon="-0.35709">
					<ele>22</ele>
					<time>0001-01-01T00:00:00Z</time>
				</trkpt>
				<trkpt lat="52.51779" lon="-0.35671">
					<ele>25</ele>
					<time>0001-01-01T00:00:00Z</time>
				</trkpt>
				<trkpt lat="52.51630" lon="-0.35640">
					<ele>23</ele>
					<time>0001-01-01T00:00:00Z</time>
				</trkpt>
				<trkpt lat="52.51480" lon="-0.35612">
					<ele>25</ele>
					<time>0001-01-01T00:00:00Z</time>
				</trkpt>
				<trkpt lat="52.51319" lon="-0.35579">
					<ele>26</ele>
					<time>0001-01-01T00:00:00Z</time>
				</trkpt>
				<trkpt lat="52.51182" lon="-0.35547">
					<ele>28</ele>
					<time>0001-01-01T00:00:00Z</time>
				</trkpt>
				<trkpt lat="52.51035" lon="-0.35512">
					<ele>30</ele>
					<time>0001-01-01T00:00:00Z</time>
				</trkpt>
				<trkpt lat="52.50900" lon="-0.35484">
					<ele>30</ele>
					<time>0001-01-01T00:00:00Z</time>
				</trkpt>
				<trkpt lat="52.50723" lon="-0.35449">
					<ele>24</ele>
					<time>0001-01-01T00:00:00Z</time>
				</trkpt>
				<trkpt lat="52.50585" lon="-0.35421">
					<ele>27</ele>
					<time>0001-01-01T00:00:00Z</time>
				</trkpt>
				<trkpt lat="52.50457" lon="-0.35376">
					<ele>27</ele>
					<time>0001-01-01T00:00:00Z</time>
				</trkpt>
				<trkpt lat="52.50370" lon="-0.35254">
					<ele>25</ele>
					<time>0001-01-01T00:00:00Z</time>
				</trkpt>
				<trkpt lat="52.50251" lon="-0.35118">
					<ele>27</ele>
					<time>0001-01-01T00:00:00Z</time>
				</trkpt>
				<trkpt lat="52.50156" lon="-0.35018">
					<ele>30</ele>
					<time>0001-01-01T00:00:00Z</time>
				</trkpt>
				<trkpt lat="52.50054" lon="-0.34916">
					<ele>34</ele>
					<time>0001-01-01T00:00:00Z</time>
				</trkpt>
				<trkpt lat="52.49978" lon="-0.34838">
					<ele>38</ele>
					<time>0001-01-01T00:00:00Z</time>
				</trkpt>
				<trkpt lat="52.49919" lon="-0.34781">
					<ele>39</ele>
					<time>0001-01-01T00:00:00Z</time>
				</trkpt>
				<trkpt lat="52.49858" lon="-0.34733">
					<ele>41</ele>
					<time>0001-01-01T00:00:00Z</time>
				</trkpt>
				<trkpt lat="52.49791" lon="-0.34697">
					<ele>45</ele>
					<time>0001-01-01T00:00:00Z</time>
				</trkpt>
				<trkpt lat="52.49719" lon="-0.34666">
					<ele>51</ele>
					<time>0001-01-01T00:00:00Z</time>
				</trkpt>
				<trkpt lat="52.49617" lon="-0.34658">
					<ele>56</ele>
					<time>0001-01-01T00:00:00Z</time>
				</trkpt>
				<trkpt lat="52.49513" lon="-0.34657">
					<ele>57</ele>
					<time>0001-01-01T00:00:00Z</time>
				</trkpt>
				<trkpt lat="52.49439" lon="-0.34659">
					<ele>57</ele>
					<time>0001-01-01T00:00:00Z</time>
				</trkpt>
				<trkpt lat="52.49343" lon="-0.34663">
					<ele>57</ele>
					<time>0001-01-01T00:00:00Z</time>
				</trkpt>
				<trkpt lat="52.49285" lon="-0.34667">
					<ele>58</ele>
					<time>0001-01-01T00:00:00Z</time>
				</trkpt>
				<trkpt lat="52.49171" lon="-0.34668">
					<ele>58</ele>
					<time>0001-01-01T00:00:00Z</time>
				</trkpt>
				<trkpt lat="52.49050" lon="-0.34663">
					<ele>58</ele>
					<time>0001-01-01T00:00:00Z</time>
				</trkpt>
				<trkpt lat="52.48941" lon="-0.34707">
					<ele>57</ele>
					<time>0001-01-01T00:00:00Z</time>
				</trkpt>
				<trkpt lat="52.48936" lon="-0.34713">
					<ele>57</ele>
					<time>0001-01-01T00:00:00Z</time>
				</trkpt>
				<trkpt lat="52.48860" lon="-0.34795">
					<ele>56</ele>
					<time>0001-01-01T00:00:00Z</time>
				</trkpt>
				<trkpt lat="52.48760" lon="-0.34813">
					<ele>54</ele>
					<time>0001-01-01T00:00:00Z</time>
				</trkpt>
				<trkpt lat="52.48677" lon="-0.34801">
					<ele>54</ele>
					<time>0001-01-01T00:00:00Z</time>
				</trkpt>
				<trkpt lat="52.48572" lon="-0.34741">
					<ele>54</ele>
					<time>0001-01-01T00:00:00Z</time>
				</trkpt>
				<trkpt lat="52.48460" lon="-0.34671">
					<ele>56</ele>
					<time>0001-01-01T00:00:00Z</time>
				</trkpt>
				<trkpt lat="52.48340" lon="-0.34608">
					<ele>56</ele>
					<time>0001-01-01T00:00:00Z</time>
				</trkpt>
				<trkpt lat="52.48238" lon="-0.34567">
					<ele>55</ele>
					<time>0001-01-01T00:00:00Z</time>
				</trkpt>
				<trkpt lat="52.48183" lon="-0.34536">
					<ele>55</ele>
					<time>0001-01-01T00:00:00Z</time>
				</trkpt>
				<trkpt lat="52.48085" lon="-0.34479">
					<ele>57</ele>
					<time>0001-01-01T00:00:00Z</time>
				</trkpt>
				<trkpt lat="52.47980" lon="-0.34414">
					<ele>57</ele>
					<time>0001-01-01T00:00:00Z</time>
				</trkpt>
				<trkpt lat="52.47868" lon="-0.34346">
					<ele>57</ele>
					<time>0001-01-01T00:00:00Z</time>
				</trkpt>
				<trkpt lat="52.47784" lon="-0.34307">
					<ele>58</ele>
					<time>0001-01-01T00:00:00Z</time>
				</trkpt>
				<trkpt lat="52.47686" lon="-0.34277">
					<ele>59</ele>
					<time>0001-01-01T00:00:00Z</time>
				</trkpt>
				<trkpt lat="52.47628" lon="-0.34281">
					<ele>60</ele>
					<time>0001-01-01T00:00:00Z</time>
				</trkpt>
				<trkpt lat="52.47512" lon="-0.34242">
					<ele>61</ele>
					<time>0001-01-01T00:00:00Z</time>
				</trkpt>
				<trkpt lat="52.47422" lon="-0.34216">
					<ele>60</ele>
					<time>0001-01-01T00:00:00Z</time>
				</trkpt>
				<trkpt lat="52.47316" lon="-0.34197">
					<ele>61</ele>
					<time>0001-01-01T00:00:00Z</time>
				</trkpt>
				<trkpt lat="52.47209" lon="-0.34170">
					<ele>62</ele>
					<time>0001-01-01T00:00:00Z</time>
				</trkpt>
				<trkpt lat="52.47100" lon="-0.34142">
					<ele>62</ele>
					<time>0001-01-01T00:00:00Z</time>
				</trkpt>
				<trkpt lat="52.46982" lon="-0.34136">
					<ele>62</ele>
					<time>0001-01-01T00:00:00Z</time>
				</trkpt>
				<trkpt lat="52.46924" lon="-0.34206">
					<ele>62</ele>
					<time>0001-01-01T00:00:00Z</time>
				</trkpt>
				<trkpt lat="52.46876" lon="-0.34283">
					<ele>62</ele>
					<time>0001-01-01T00:00:00Z</time>
				</trkpt>
				<trkpt lat="52.46835" lon="-0.34292">
					<ele>62</ele>
					<time>0001-01-01T00:00:00Z</time>
				</trkpt>
				<trkpt lat="52.46716" lon="-0.34175">
					<ele>63</ele>
					<time>0001-01-01T00:00:00Z</time>
				</trkpt>
				<trkpt lat="52.46705" lon="-0.34162">
					<ele>63</ele>
					<time>0001-01-01T00:00:00Z</time>
				</trkpt>
				<trkpt lat="52.46687" lon="-0.34084">
					<ele>63</ele>
					<time>0001-01-01T00:00:00Z</time>
				</trkpt>
				<trkpt lat="52.46688" lon="-0.34062">
					<ele>63</ele>
					<time>0001-01-01T00:00:00Z</time>
				</trkpt>
				<trkpt lat="52.46671" lon="-0.34003">
					<ele>63</ele>
					<time>0001-01-01T00:00:00Z</time>
				</trkpt>
				<trkpt lat="52.46576" lon="-0.33897">
					<ele>63</ele>
					<time>0001-01-01T00:00:00Z</time>
				</trkpt>
				<trkpt lat="52.46474" lon="-0.33878">
					<ele>63</ele>
					<time>0001-01-01T00:00:00Z</time>
				</trkpt>
				<trkpt lat="52.46391" lon="-0.33868">
					<ele>62</ele>
					<time>0001-01-01T00:00:00Z</time>
				</trkpt>
				<trkpt lat="52.46293" lon="-0.33854">
					<ele>62</ele>
					<time>0001-01-01T00:00:00Z</time>
				</trkpt>
				<trkpt lat="52.46181" lon="-0.33840">
					<ele>63</ele>
					<time>0001-01-01T00:00:00Z</time>
				</trkpt>
				<trkpt lat="52.46155" lon="-0.33838">
					<ele>63</ele>
					<time>0001-01-01T00:00:00Z</time>
				</trkpt>
				<trkpt lat="52.46070" lon="-0.33901">
					<ele>63</ele>
					<time>0001-01-01T00:00:00Z</time>
				</trkpt>
				<trkpt lat="52.45942" lon="-0.33988">
					<ele>64</ele>
					<time>0001-01-01T00:00:00Z</time>
				</trkpt>
				<trkpt lat="52.45805" lon="-0.34044">
					<ele>63</ele>
					<time>0001-01-01T00:00:00Z</time>
				</trkpt>
				<trkpt lat="52.45721" lon="-0.34083">
					<ele>62</ele>
					<time>0001-01-01T00:00:00Z</time>
				</trkpt>
				<trkpt lat="52.45701" lon="-0.34074">
					<ele>62</ele>
					<time>0001-01-01T00:00:00Z</time>
				</trkpt>
				<trkpt lat="52.45611" lon="-0.33972">
					<ele>61</ele>
					<time>0001-01-01T00:00:00Z</time>
				</trkpt>
				<trkpt lat="52.45568" lon="-0.33827">
					<ele>62</ele>
					<time>0001-01-01T00:00:00Z</time>
				</trkpt>
				<trkpt lat="52.45500" lon="-0.33669">
					<ele>61</ele>
					<time>0001-01-01T00:00:00Z</time>
				</trkpt>
				<trkpt lat="52.45408" lon="-0.33524">
					<ele>61</ele>
					<time>0001-01-01T00:00:00Z</time>
				</trkpt>
				<trkpt lat="52.45307" lon="-0.33383">
					<ele>61</ele>
					<time>0001-01-01T00:00:00Z</time>
				</trkpt>
				<trkpt lat="52.45298" lon="-0.33367">
					<ele>61</ele>
					<time>0001-01-01T00:00:00Z</time>
				</trkpt>
				<trkpt lat="52.45271" lon="-0.33337">
					<ele>61</ele>
					<time>0001-01-01T00:00:00Z</time>
				</trkpt>
				<trkpt lat="52.45235" lon="-0.33305">
					<ele>61</ele>
					<time>0001-01-01T00:00:00Z</time>
				</trkpt>
				<trkpt lat="52.45222" lon="-0.33290">
					<ele>61</ele>
					<time>0001-01-01T00:00:00Z</time>
				</trkpt>
				<trkpt lat="52.45219" lon="-0.33288">
					<ele>61</ele>
					<time>0001-01-01T00:00:00Z</time>
				</trkpt>
				<trkpt lat="52.45180" lon="-0.33334">
					<ele>61</ele>
					<time>0001-01-01T00:00:00Z</time>
				</trkpt>
				<trkpt lat="52.45069" lon="-0.33470">
					<ele>55</ele>
					<time>0001-01-01T00:00:00Z</time>
				</trkpt>
				<trkpt lat="52.44947" lon="-0.33677">
					<ele>48</ele>
					<time>0001-01-01T00:00:00Z</time>
				</trkpt>
				<trkpt lat="52.44808" lon="-0.33957">
					<ele>46</ele>
					<time>0001-01-01T00:00:00Z</time>
				</trkpt>
				<trkpt lat="52.44771" lon="-0.34112">
					<ele>48</ele>
					<time>0001-01-01T00:00:00Z</time>
				</trkpt>
				<trkpt lat="52.44721" lon="-0.34285">
					<ele>51</ele>
					<time>0001-01-01T00:00:00Z</time>
				</trkpt>
				<trkpt lat="52.44639" lon="-0.34452">
					<ele>55</ele>
					<time>0001-01-01T00:00:00Z</time>
				</trkpt>
				<trkpt lat="52.44572" lon="-0.34567">
					<ele>59</ele>
					<time>0001-01-01T00:00:00Z</time>
				</trkpt>
				<trkpt lat="52.44479" lon="-0.34699">
					<ele>61</ele>
					<time>0001-01-01T00:00:00Z</time>
				</trkpt>
				<trkpt lat="52.44351" lon="-0.34849">
					<ele>60</ele>
					<time>0001-01-01T00:00:00Z</time>
				</trkpt>
				<trkpt lat="52.44193" lon="-0.34966">
					<ele>57</ele>
					<time>0001-01-01T00:00:00Z</time>
				</trkpt>
				<trkpt lat="52.44066" lon="-0.35074">
					<ele>59</ele>
					<time>0001-01-01T00:00:00Z</time>
				</trkpt>
				<trkpt lat="52.43917" lon="-0.35296">
					<ele>60</ele>
					<time>0001-01-01T00:00:00Z</time>
				</trkpt>
				<trkpt lat="52.43833" lon="-0.35430">
					<ele>60</ele>
					<time>0001-01-01T00:00:00Z</time>
				</trkpt>
				<trkpt lat="52.43709" lon="-0.35608">
					<ele>60</ele>
					<time>0001-01-01T00:00:00Z</time>
				</trkpt>
				<trkpt lat="52.43526" lon="-0.35753">
					<ele>54</ele>
					<time>0001-01-01T00:00:00Z</time>
				</trkpt>
				<trkpt lat="52.43310" lon="-0.35872">
					<ele>48</ele>
					<time>0001-01-01T00:00:00Z</time>
				</trkpt>
				<trkpt lat="52.43209" lon="-0.35981">
					<ele>45</ele>
					<time>0001-01-01T00:00:00Z</time>
				</trkpt>
				<trkpt lat="52.43190" lon="-0.36007">
					<ele>45</ele>
					<time>0001-01-01T00:00:00Z</time>
				</trkpt>
				<trkpt lat="52.43142" lon="-0.36008">
					<ele>43</ele>
					<time>0001-01-01T00:00:00Z</time>
				</trkpt>
				<trkpt lat="52.43070" lon="-0.35927">
					<ele>42</ele>
					<time>0001-01-01T00:00:00Z</time>
				</trkpt>
				<trkpt lat="52.43003" lon="-0.35821">
					<ele>44</ele>
					<time>0001-01-01T00:00:00Z</time>
				</trkpt>
				<trkpt lat="52.42978" lon="-0.35782">
					<ele>43</ele>
					<time>0001-01-01T00:00:00Z</time>
				</trkpt>
				<trkpt lat="52.42978" lon="-0.35782">
					<ele>41</ele>
					<time>0001-01-01T00:00:00Z</time>
				</trkpt>
				<trkpt lat="52.42964" lon="-0.35764">
					<ele>40</ele>
					<time>0001-01-01T00:00:00Z</time>
				</trkpt>
				<trkpt lat="52.42938" lon="-0.35726">
					<ele>38</ele>
					<time>0001-01-01T00:00:00Z</time>
				</trkpt>
				<trkpt lat="52.42899" lon="-0.35733">
					<ele>37</ele>
					<time>0001-01-01T00:00:00Z</time>
				</trkpt>
				<trkpt lat="52.42807" lon="-0.35912">
					<ele>33</ele>
					<time>0001-01-01T00:00:00Z</time>
				</trkpt>
				<trkpt lat="52.42718" lon="-0.36073">
					<ele>32</ele>
					<time>0001-01-01T00:00:00Z</time>
				</trkpt>
				<trkpt lat="52.42629" lon="-0.36229">
					<ele>33</ele>
					<time>0001-01-01T00:00:00Z</time>
				</trkpt>
				<trkpt lat="52.42588" lon="-0.36353">
					<ele>34</ele>
					<time>0001-01-01T00:00:00Z</time>
				</trkpt>
				<trkpt lat="52.42551" lon="-0.36393">
					<ele>33</ele>
					<time>0001-01-01T00:00:00Z</time>
				</trkpt>
				<trkpt lat="52.42541" lon="-0.36400">
					<ele>34</ele>
					<time>0001-01-01T00:00:00Z</time>
				</trkpt>
				<trkpt lat="52.42527" lon="-0.36424">
					<ele>34</ele>
					<time>0001-01-01T00:00:00Z</time>
				</trkpt>
				<trkpt lat="52.42468" lon="-0.36567">
					<ele>35</ele>
					<time>0001-01-01T00:00:00Z</time>
				</trkpt>
				<trkpt lat="52.42403" lon="-0.36699">
					<ele>38</ele>
					<time>0001-01-01T00:00:00Z</time>
				</trkpt>
				<trkpt lat="52.42326" lon="-0.36866">
					<ele>43</ele>
					<time>0001-01-01T00:00:00Z</time>
				</trkpt>
				<trkpt lat="52.42259" lon="-0.36984">
					<ele>48</ele>
					<time>0001-01-01T00:00:00Z</time>
				</trkpt>
				<trkpt lat="52.42218" lon="-0.37052">
					<ele>51</ele>
					<time>0001-01-01T00:00:00Z</time>
				</trkpt>
				<trkpt lat="52.42163" lon="-0.37118">
					<ele>51</ele>
					<time>0001-01-01T00:00:00Z</time>
				</trkpt>
				<trkpt lat="52.42053" lon="-0.37135">
					<ele>47</ele>
					<time>0001-01-01T00:00:00Z</time>
				</trkpt>
				<trkpt lat="52.41903" lon="-0.37180">
					<ele>42</ele>
					<time>0001-01-01T00:00:00Z</time>
				</trkpt>
				<trkpt lat="52.41791" lon="-0.37249">
					<ele>46</ele>
					<time>0001-01-01T00:00:00Z</time>
				</trkpt>
				<trkpt lat="52.41699" lon="-0.37292">
					<ele>48</ele>
					<time>0001-01-01T00:00:00Z</time>
				</trkpt>
				<trkpt lat="52.41631" lon="-0.37344">
					<ele>52</ele>
					<time>0001-01-01T00:00:00Z</time>
				</trkpt>
				<trkpt lat="52.41575" lon="-0.37440">
					<ele>55</ele>
					<time>0001-01-01T00:00:00Z</time>
				</trkpt>
				<trkpt lat="52.41499" lon="-0.37582">
					<ele>58</ele>
					<time>0001-01-01T00:00:00Z</time>
				</trkpt>
				<trkpt lat="52.41433" lon="-0.37669">
					<ele>59</ele>
					<time>0001-01-01T00:00:00Z</time>
				</trkpt>
				<trkpt lat="52.41337" lon="-0.37780">
					<ele>59</ele>
					<time>0001-01-01T00:00:00Z</time>
				</trkpt>
				<trkpt lat="52.41280" lon="-0.37809">
					<ele>59</ele>
					<time>0001-01-01T00:00:00Z</time>
				</trkpt>
				<trkpt lat="52.41157" lon="-0.37808">
					<ele>58</ele>
					<time>0001-01-01T00:00:00Z</time>
				</trkpt>
				<trkpt lat="52.41052" lon="-0.37791">
					<ele>54</ele>
					<time>0001-01-01T00:00:00Z</time>
				</trkpt>
				<trkpt lat="52.40834" lon="-0.37785">
					<ele>42</ele>
					<time>0001-01-01T00:00:00Z</time>
				</trkpt>
				<trkpt lat="52.40669" lon="-0.37770">
					<ele>42</ele>
					<time>0001-01-01T00:00:00Z</time>
				</trkpt>
				<trkpt lat="52.40583" lon="-0.37719">
					<ele>45</ele>
					<time>0001-01-01T00:00:00Z</time>
				</trkpt>
				<trkpt lat="52.40538" lon="-0.37687">
					<ele>46</ele>
					<time>0001-01-01T00:00:00Z</time>
				</trkpt>
				<trkpt lat="52.40513" lon="-0.37670">
					<ele>46</ele>
					<time>0001-01-01T00:00:00Z</time>
				</trkpt>
				<trkpt lat="52.40443" lon="-0.37611">
					<ele>47</ele>
					<time>0001-01-01T00:00:00Z</time>
				</trkpt>
				<trkpt lat="52.40376" lon="-0.37525">
					<ele>51</ele>
					<time>0001-01-01T00:00:00Z</time>
				</trkpt>
				<trkpt lat="52.40308" lon="-0.37432">
					<ele>55</ele>
					<time>0001-01-01T00:00:00Z</time>
				</trkpt>
				<trkpt lat="52.40239" lon="-0.37337">
					<ele>59</ele>
					<time>0001-01-01T00:00:00Z</time>
				</trkpt>
				<trkpt lat="52.40177" lon="-0.37283">
					<ele>61</ele>
					<time>0001-01-01T00:00:00Z</time>
				</trkpt>
				<trkpt lat="52.40140" lon="-0.37363">
					<ele>60</ele>
					<time>0001-01-01T00:00:00Z</time>
				</trkpt>
				<trkpt lat="52.40074" lon="-0.37547">
					<ele>61</ele>
					<time>0001-01-01T00:00:00Z</time>
				</trkpt>
				<trkpt lat="52.40022" lon="-0.37766">
					<ele>60</ele>
					<time>0001-01-01T00:00:00Z</time>
				</trkpt>
				<trkpt lat="52.39947" lon="-0.37929">
					<ele>56</ele>
					<time>0001-01-01T00:00:00Z</time>
				</trkpt>
				<trkpt lat="52.39871" lon="-0.38046">
					<ele>59</ele>
					<time>0001-01-01T00:00:00Z</time>
				</trkpt>
				<trkpt lat="52.39768" lon="-0.38117">
					<ele>63</ele>
					<time>0001-01-01T00:00:00Z</time>
				</trkpt>
				<trkpt lat="52.39646" lon="-0.38201">
					<ele>66</ele>
					<time>0001-01-01T00:00:00Z</time>
				</trkpt>
				<trkpt lat="52.39528" lon="-0.38281">
					<ele>68</ele>
					<time>0001-01-01T00:00:00Z</time>
				</trkpt>
				<trkpt lat="52.39363" lon="-0.38394">
					<ele>69</ele>
					<time>0001-01-01T00:00:00Z</time>
				</trkpt>
				<trkpt lat="52.39231" lon="-0.38487">
					<ele>68</ele>
					<time>0001-01-01T00:00:00Z</time>
				</trkpt>
				<trkpt lat="52.39209" lon="-0.38477">
					<ele>68</ele>
					<time>0001-01-01T00:00:00Z</time>
				</trkpt>
				<trkpt lat="52.39144" lon="-0.38295">
					<ele>68</ele>
					<time>0001-01-01T00:00:00Z</time>
				</trkpt>
				<trkpt lat="52.39111" lon="-0.38206">
					<ele>69</ele>
					<time>0001-01-01T00:00:00Z</time>
				</trkpt>
				<trkpt lat="52.39091" lon="-0.38177">
					<ele>69</ele>
					<time>0001-01-01T00:00:00Z</time>
				</trkpt>
				<trkpt lat="52.39003" lon="-0.38159">
					<ele>68</ele>
					<time>0001-01-01T00:00:00Z</time>
				</trkpt>
				<trkpt lat="52.38872" lon="-0.38216">
					<ele>65</ele>
					<time>0001-01-01T00:00:00Z</time>
				</trkpt>
				<trkpt lat="52.38724" lon="-0.38283">
					<ele>63</ele>
					<time>0001-01-01T00:00:00Z</time>
				</trkpt>
				<trkpt lat="52.38560" lon="-0.38373">
					<ele>61</ele>
					<time>0001-01-01T00:00:00Z</time>
				</trkpt>
				<trkpt lat="52.38547" lon="-0.38381">
					<ele>61</ele>
					<time>0001-01-01T00:00:00Z</time>
				</trkpt>
				<trkpt lat="52.38448" lon="-0.38527">
					<ele>55</ele>
					<time>0001-01-01T00:00:00Z</time>
				</trkpt>
				<trkpt lat="52.38331" lon="-0.38669">
					<ele>51</ele>
					<time>0001-01-01T00:00:00Z</time>
				</trkpt>
				<trkpt lat="52.38214" lon="-0.38779">
					<ele>47</ele>
					<time>0001-01-01T00:00:00Z</time>
				</trkpt>
				<trkpt lat="52.38198" lon="-0.38801">
					<ele>48</ele>
					<time>0001-01-01T00:00:00Z</time>
				</trkpt>
				<trkpt lat="52.38143" lon="-0.38927">
					<ele>51</ele>
					<time>0001-01-01T00:00:00Z</time>
				</trkpt>
				<trkpt lat="52.38122" lon="-0.39075">
					<ele>54</ele>
					<time>0001-01-01T00:00:00Z</time>
				</trkpt>
				<trkpt lat="52.38099" lon="-0.39294">
					<ele>58</ele>
					<time>0001-01-01T00:00:00Z</time>
				</trkpt>
				<trkpt lat="52.38081" lon="-0.39480">
					<ele>59</ele>
					<time>0001-01-01T00:00:00Z</time>
				</trkpt>
				<trkpt lat="52.38068" lon="-0.39632">
					<ele>60</ele>
					<time>0001-01-01T00:00:00Z</time>
				</trkpt>
				<trkpt lat="52.38059" lon="-0.39812">
					<ele>65</ele>
					<time>0001-01-01T00:00:00Z</time>
				</trkpt>
				<trkpt lat="52.38038" lon="-0.39949">
					<ele>65</ele>
					<time>0001-01-01T00:00:00Z</time>
				</trkpt>
				<trkpt lat="52.38024" lon="-0.39990">
					<ele>65</ele>
					<time>0001-01-01T00:00:00Z</time>
				</trkpt>
				<trkpt lat="52.37982" lon="-0.40074">
					<ele>67</ele>
					<time>0001-01-01T00:00:00Z</time>
				</trkpt>
				<trkpt lat="52.37951" lon="-0.40070">
					<ele>66</ele>
					<time>0001-01-01T00:00:00Z</time>
				</trkpt>
				<trkpt lat="52.37838" lon="-0.39900">
					<ele>66</ele>
					<time>0001-01-01T00:00:00Z</time>
				</trkpt>
				<trkpt lat="52.37722" lon="-0.39697">
					<ele>68</ele>
					<time>0001-01-01T00:00:00Z</time>
				</trkpt>
				<trkpt lat="52.37602" lon="-0.39575">
					<ele>70</ele>
					<time>0001-01-01T00:00:00Z</time>
				</trkpt>
				<trkpt lat="52.37460" lon="-0.39528">
					<ele>69</ele>
					<time>0001-01-01T00:00:00Z</time>
				</trkpt>
				<trkpt lat="52.37308" lon="-0.39550">
					<ele>65</ele>
					<time>0001-01-01T00:00:00Z</time>
				</trkpt>
				<trkpt lat="52.37130" lon="-0.39587">
					<ele>54</ele>
					<time>0001-01-01T00:00:00Z</time>
				</trkpt>
				<trkpt lat="52.36907" lon="-0.39633">
					<ele>41</ele>
					<time>0001-01-01T00:00:00Z</time>
				</trkpt>
				<trkpt lat="52.36726" lon="-0.39718">
					<ele>37</ele>
					<time>0001-01-01T00:00:00Z</time>
				</trkpt>
				<trkpt lat="52.36563" lon="-0.39878">
					<ele>34</ele>
					<time>0001-01-01T00:00:00Z</time>
				</trkpt>
				<trkpt lat="52.36430" lon="-0.40040">
					<ele>31</ele>
					<time>0001-01-01T00:00:00Z</time>
				</trkpt>
				<trkpt lat="52.36290" lon="-0.40243">
					<ele>27</ele>
					<time>0001-01-01T00:00:00Z</time>
				</trkpt>
				<trkpt lat="52.36185" lon="-0.40399">
					<ele>31</ele>
					<time>0001-01-01T00:00:00Z</time>
				</trkpt>
				<trkpt lat="52.36127" lon="-0.40464">
					<ele>34</ele>
					<time>0001-01-01T00:00:00Z</time>
				</trkpt>
				<trkpt lat="52.36066" lon="-0.40526">
					<ele>39</ele>
					<time>0001-01-01T00:00:00Z</time>
				</trkpt>
				<trkpt lat="52.35983" lon="-0.40605">
					<ele>40</ele>
					<time>0001-01-01T00:00:00Z</time>
				</trkpt>
				<trkpt lat="52.35883" lon="-0.40696">
					<ele>38</ele>
					<time>0001-01-01T00:00:00Z</time>
				</trkpt>
				<trkpt lat="52.35754" lon="-0.40749">
					<ele>31</ele>
					<time>0001-01-01T00:00:00Z</time>
				</trkpt>
				<trkpt lat="52.35585" lon="-0.40758">
					<ele>32</ele>
					<time>0001-01-01T00:00:00Z</time>
				</trkpt>
				<trkpt lat="52.35441" lon="-0.40770">
					<ele>34</ele>
					<time>0001-01-01T00:00:00Z</time>
				</trkpt>
				<trkpt lat="52.35321" lon="-0.40783">
					<ele>36</ele>
					<time>0001-01-01T00:00:00Z</time>
				</trkpt>
				<trkpt lat="52.35190" lon="-0.40798">
					<ele>40</ele>
					<time>0001-01-01T00:00:00Z</time>
				</trkpt>
				<trkpt lat="52.35094" lon="-0.40787">
					<ele>46</ele>
					<time>0001-01-01T00:00:00Z</time>
				</trkpt>
				<trkpt lat="52.35017" lon="-0.40764">
					<ele>52</ele>
					<time>0001-01-01T00:00:00Z</time>
				</trkpt>
				<trkpt lat="52.34947" lon="-0.40767">
					<ele>55</ele>
					<time>0001-01-01T00:00:00Z</time>
				</trkpt>
				<trkpt lat="52.34870" lon="-0.40759">
					<ele>55</ele>
					<time>0001-01-01T00:00:00Z</time>
				</trkpt>
				<trkpt lat="52.34773" lon="-0.40775">
					<ele>59</ele>
					<time>0001-01-01T00:00:00Z</time>
				</trkpt>
				<trkpt lat="52.34671" lon="-0.40761">
					<ele>60</ele>
					<time>0001-01-01T00:00:00Z</time>
				</trkpt>
				<trkpt lat="52.34649" lon="-0.40731">
					<ele>61</ele>
					<time>0001-01-01T00:00:00Z</time>
				</trkpt>
				<trkpt lat="52.34602" lon="-0.40554">
					<ele>63</ele>
					<time>0001-01-01T00:00:00Z</time>
				</trkpt>
				<trkpt lat="52.34593" lon="-0.40526">
					<ele>63</ele>
					<time>0001-01-01T00:00:00Z</time>
				</trkpt>
				<trkpt lat="52.34589" lon="-0.40515">
					<ele>63</ele>
					<time>0001-01-01T00:00:00Z</time>
				</trkpt>
				<trkpt lat="52.34573" lon="-0.40506">
					<ele>65</ele>
					<time>0001-01-01T00:00:00Z</time>
				</trkpt>
				<trkpt lat="52.34433" lon="-0.40505">
					<ele>67</ele>
					<time>0001-01-01T00:00:00Z</time>
				</trkpt>
				<trkpt lat="52.34310" lon="-0.40472">
					<ele>67</ele>
					<time>0001-01-01T00:00:00Z</time>
				</trkpt>
				<trkpt lat="52.34229" lon="-0.40454">
					<ele>71</ele>
					<time>0001-01-01T00:00:00Z</time>
				</trkpt>
				<trkpt lat="52.34128" lon="-0.40502">
					<ele>70</ele>
					<time>0001-01-01T00:00:00Z</time>
				</trkpt>
				<trkpt lat="52.34012" lon="-0.40553">
					<ele>71</ele>
					<time>0001-01-01T00:00:00Z</time>
				</trkpt>
				<trkpt lat="52.33883" lon="-0.40573">
					<ele>73</ele>
					<time>0001-01-01T00:00:00Z</time>
				</trkpt>
				<trkpt lat="52.33708" lon="-0.40599">
					<ele>73</ele>
					<time>0001-01-01T00:00:00Z</time>
				</trkpt>
				<trkpt lat="52.33562" lon="-0.40616">
					<ele>71</ele>
					<time>0001-01-01T00:00:00Z</time>
				</trkpt>
				<trkpt lat="52.33449" lon="-0.40561">
					<ele>71</ele>
					<time>0001-01-01T00:00:00Z</time>
				</trkpt>
				<trkpt lat="52.33285" lon="-0.40448">
					<ele>72</ele>
					<time>0001-01-01T00:00:00Z</time>
				</trkpt>
				<trkpt lat="52.33155" lon="-0.40364">
					<ele>74</ele>
					<time>0001-01-01T00:00:00Z</time>
				</trkpt>
				<trkpt lat="52.33030" lon="-0.40387">
					<ele>75</ele>
					<time>0001-01-01T00:00:00Z</time>
				</trkpt>
				<trkpt lat="52.32850" lon="-0.40418">
					<ele>75</ele>
					<time>0001-01-01T00:00:00Z</time>
				</trkpt>
				<trkpt lat="52.32720" lon="-0.40448">
					<ele>76</ele>
					<time>0001-01-01T00:00:00Z</time>
				</trkpt>
				<trkpt lat="52.32594" lon="-0.40479">
					<ele>75</ele>
					<time>0001-01-01T00:00:00Z</time>
				</trkpt>
				<trkpt lat="52.32440" lon="-0.40540">
					<ele>75</ele>
					<time>0001-01-01T00:00:00Z</time>
				</trkpt>
				<trkpt lat="52.32302" lon="-0.40586">
					<ele>76</ele>
					<time>0001-01-01T00:00:00Z</time>
				</trkpt>
				<trkpt lat="52.32158" lon="-0.40584">
					<ele>75</ele>
					<time>0001-01-01T00:00:00Z</time>
				</trkpt>
				<trkpt lat="52.32045" lon="-0.40638">
					<ele>73</ele>
					<time>0001-01-01T00:00:00Z</time>
				</trkpt>
				<trkpt lat="52.31889" lon="-0.40759">
					<ele>69</ele>
					<time>0001-01-01T00:00:00Z</time>
				</trkpt>
				<trkpt lat="52.31734" lon="-0.40808">
					<ele>64</ele>
					<time>0001-01-01T00:00:00Z</time>
				</trkpt>
				<trkpt lat="52.31726" lon="-0.40810">
					<ele>64</ele>
					<time>0001-01-01T00:00:00Z</time>
				</trkpt>
				<trkpt lat="52.31615" lon="-0.40771">
					<ele>54</ele>
					<time>0001-01-01T00:00:00Z</time>
				</trkpt>
				<trkpt lat="52.31446" lon="-0.40696">
					<ele>46</ele>
					<time>0001-01-01T00:00:00Z</time>
				</trkpt>
				<trkpt lat="52.31317" lon="-0.40597">
					<ele>43</ele>
					<time>0001-01-01T00:00:00Z</time>
				</trkpt>
				<trkpt lat="52.31251" lon="-0.40465">
					<ele>43</ele>
					<time>0001-01-01T00:00:00Z</time>
				</trkpt>
				<trkpt lat="52.31235" lon="-0.40431">
					<ele>41</ele>
					<time>0001-01-01T00:00:00Z</time>
				</trkpt>
				<trkpt lat="52.31234" lon="-0.40427">
					<ele>41</ele>
					<time>0001-01-01T00:00:00Z</time>
				</trkpt>
				<trkpt lat="52.31217" lon="-0.40395">
					<ele>41</ele>
					<time>0001-01-01T00:00:00Z</time>
				</trkpt>
				<trkpt lat="52.31171" lon="-0.40303">
					<ele>41</ele>
					<time>0001-01-01T00:00:00Z</time>
				</trkpt>
				<trkpt lat="52.31102" lon="-0.40183">
					<ele>42</ele>
					<time>0001-01-01T00:00:00Z</time>
				</trkpt>
				<trkpt lat="52.30991" lon="-0.40046">
					<ele>40</ele>
					<time>0001-01-01T00:00:00Z</time>
				</trkpt>
				<trkpt lat="52.30860" lon="-0.39873">
					<ele>40</ele>
					<time>0001-01-01T00:00:00Z</time>
				</trkpt>
				<trkpt lat="52.30743" lon="-0.39720">
					<ele>43</ele>
					<time>0001-01-01T00:00:00Z</time>
				</trkpt>
				<trkpt lat="52.30657" lon="-0.39698">
					<ele>40</ele>
					<time>0001-01-01T00:00:00Z</time>
				</trkpt>
				<trkpt lat="52.30563" lon="-0.39657">
					<ele>41</ele>
					<time>0001-01-01T00:00:00Z</time>
				</trkpt>
				<trkpt lat="52.30423" lon="-0.39519">
					<ele>38</ele>
					<time>0001-01-01T00:00:00Z</time>
				</trkpt>
				<trkpt lat="52.30337" lon="-0.39422">
					<ele>36</ele>
					<time>0001-01-01T00:00:00Z</time>
				</trkpt>
				<trkpt lat="52.30200" lon="-0.39402">
					<ele>32</ele>
					<time>0001-01-01T00:00:00Z</time>
				</trkpt>
				<trkpt lat="52.30079" lon="-0.39382">
					<ele>30</ele>
					<time>0001-01-01T00:00:00Z</time>
				</trkpt>
				<trkpt lat="52.30018" lon="-0.39416">
					<ele>29</ele>
					<time>0001-01-01T00:00:00Z</time>
				</trkpt>
				<trkpt lat="52.29991" lon="-0.39394">
					<ele>30</ele>
					<time>0001-01-01T00:00:00Z</time>
				</trkpt>
				<trkpt lat="52.29951" lon="-0.39223">
					<ele>33</ele>
					<time>0001-01-01T00:00:00Z</time>
				</trkpt>
				<trkpt lat="52.29901" lon="-0.39089">
					<ele>32</ele>
					<time>0001-01-01T00:00:00Z</time>
				</trkpt>
				<trkpt lat="52.29891" lon="-0.39052">
					<ele>33</ele>
					<time>0001-01-01T00:00:00Z</time>
				</trkpt>
				<trkpt lat="52.29894" lon="-0.39045">
					<ele>28</ele>
					<time>0001-01-01T00:00:00Z</time>
				</trkpt>
				<trkpt lat="52.29897" lon="-0.39050">
					<ele>36</ele>
					<time>0001-01-01T00:00:00Z</time>
				</trkpt>
				<trkpt lat="52.29890" lon="-0.39054">
					<ele>35</ele>
					<time>0001-01-01T00:00:00Z</time>
				</trkpt>
				<trkpt lat="52.29896" lon="-0.39054">
					<ele>34</ele>
					<time>0001-01-01T00:00:00Z</time>
				</trkpt>
				<trkpt lat="52.29886" lon="-0.39051">
					<ele>35</ele>
					<time>0001-01-01T00:00:00Z</time>
				</trkpt>
				<trkpt lat="52.29876" lon="-0.39039">
					<ele>37</ele>
					<time>0001-01-01T00:00:00Z</time>
				</trkpt>
				<trkpt lat="52.29826" lon="-0.38984">
					<ele>36</ele>
					<time>0001-01-01T00:00:00Z</time>
				</trkpt>
				<trkpt lat="52.29813" lon="-0.38983">
					<ele>36</ele>
					<time>0001-01-01T00:00:00Z</time>
				</trkpt>
				<trkpt lat="52.29783" lon="-0.39003">
					<ele>34</ele>
					<time>0001-01-01T00:00:00Z</time>
				</trkpt>
				<trkpt lat="52.29753" lon="-0.38984">
					<ele>35</ele>
					<time>0001-01-01T00:00:00Z</time>
				</trkpt>
				<trkpt lat="52.29664" lon="-0.38849">
					<ele>34</ele>
					<time>0001-01-01T00:00:00Z</time>
				</trkpt>
				<trkpt lat="52.29638" lon="-0.38804">
					<ele>34</ele>
					<time>0001-01-01T00:00:00Z</time>
				</trkpt>
				<trkpt lat="52.29669" lon="-0.38752">
					<ele>34</ele>
					<time>0001-01-01T00:00:00Z</time>
				</trkpt>
				<trkpt lat="52.29708" lon="-0.38704">
					<ele>34</ele>
					<time>0001-01-01T00:00:00Z</time>
				</trkpt>
				<trkpt lat="52.29713" lon="-0.38652">
					<ele>35</ele>
					<time>0001-01-01T00:00:00Z</time>
				</trkpt>
				<trkpt lat="52.29643" lon="-0.38469">
					<ele>32</ele>
					<time>0001-01-01T00:00:00Z</time>
				</trkpt>
				<trkpt lat="52.29535" lon="-0.38298">
					<ele>33</ele>
					<time>0001-01-01T00:00:00Z</time>
				</trkpt>
				<trkpt lat="52.29409" lon="-0.38069">
					<ele>31</ele>
					<time>0001-01-01T00:00:00Z</time>
				</trkpt>
				<trkpt lat="52.29379" lon="-0.38014">
					<ele>33</ele>
					<time>0001-01-01T00:00:00Z</time>
				</trkpt>
				<trkpt lat="52.29370" lon="-0.38002">
					<ele>33</ele>
					<time>0001-01-01T00:00:00Z</time>
				</trkpt>
				<trkpt lat="52.29336" lon="-0.37990">
					<ele>33</ele>
					<time>0001-01-01T00:00:00Z</time>
				</trkpt>
				<trkpt lat="52.29280" lon="-0.37980">
					<ele>32</ele>
					<time>0001-01-01T00:00:00Z</time>
				</trkpt>
				<trkpt lat="52.29268" lon="-0.37971">
					<ele>32</ele>
					<time>0001-01-01T00:00:00Z</time>
				</trkpt>
				<trkpt lat="52.29253" lon="-0.37953">
					<ele>32</ele>
					<time>0001-01-01T00:00:00Z</time>
				</trkpt>
				<trkpt lat="52.29240" lon="-0.37931">
					<ele>32</ele>
					<time>0001-01-01T00:00:00Z</time>
				</trkpt>
				<trkpt lat="52.29229" lon="-0.37904">
					<ele>32</ele>
					<time>0001-01-01T00:00:00Z</time>
				</trkpt>
				<trkpt lat="52.29168" lon="-0.37727">
					<ele>33</ele>
					<time>0001-01-01T00:00:00Z</time>
				</trkpt>
				<trkpt lat="52.29162" lon="-0.37714">
					<ele>33</ele>
					<time>0001-01-01T00:00:00Z</time>
				</trkpt>
				<trkpt lat="52.29141" lon="-0.37683">
					<ele>33</ele>
					<time>0001-01-01T00:00:00Z</time>
				</trkpt>
				<trkpt lat="52.29050" lon="-0.37568">
					<ele>34</ele>
					<time>0001-01-01T00:00:00Z</time>
				</trkpt>
				<trkpt lat="52.28964" lon="-0.37418">
					<ele>33</ele>
					<time>0001-01-01T00:00:00Z</time>
				</trkpt>
				<trkpt lat="52.28910" lon="-0.37245">
					<ele>35</ele>
					<time>0001-01-01T00:00:00Z</time>
				</trkpt>
				<trkpt lat="52.28866" lon="-0.37146">
					<ele>40</ele>
					<time>0001-01-01T00:00:00Z</time>
				</trkpt>
				<trkpt lat="52.28785" lon="-0.37000">
					<ele>40</ele>
					<time>0001-01-01T00:00:00Z</time>
				</trkpt>
				<trkpt lat="52.28684" lon="-0.36816">
					<ele>37</ele>
					<time>0001-01-01T00:00:00Z</time>
				</trkpt>
				<trkpt lat="52.28587" lon="-0.36642">
					<ele>36</ele>
					<time>0001-01-01T00:00:00Z</time>
				</trkpt>
				<trkpt lat="52.28482" lon="-0.36490">
					<ele>36</ele>
					<time>0001-01-01T00:00:00Z</time>
				</trkpt>
				<trkpt lat="52.28352" lon="-0.36392">
					<ele>34</ele>
					<time>0001-01-01T00:00:00Z</time>
				</trkpt>
				<trkpt lat="52.28251" lon="-0.36322">
					<ele>34</ele>
					<time>0001-01-01T00:00:00Z</time>
				</trkpt>
				<trkpt lat="52.28139" lon="-0.36249">
					<ele>36</ele>
					<time>0001-01-01T00:00:00Z</time>
				</trkpt>
				<trkpt lat="52.28013" lon="-0.36172">
					<ele>31</ele>
					<time>0001-01-01T00:00:00Z</time>
				</trkpt>
				<trkpt lat="52.27889" lon="-0.36094">
					<ele>30</ele>
					<time>0001-01-01T00:00:00Z</time>
				</trkpt>
				<trkpt lat="52.27749" lon="-0.36009">
					<ele>28</ele>
					<time>0001-01-01T00:00:00Z</time>
				</trkpt>
				<trkpt lat="52.27624" lon="-0.35922">
					<ele>28</ele>
					<time>0001-01-01T00:00:00Z</time>
				</trkpt>
				<trkpt lat="52.27563" lon="-0.35794">
					<ele>28</ele>
					<time>0001-01-01T00:00:00Z</time>
				</trkpt>
				<trkpt lat="52.27522" lon="-0.35586">
					<ele>30</ele>
					<time>0001-01-01T00:00:00Z</time>
				</trkpt>
				<trkpt lat="52.27460" lon="-0.35407">
					<ele>28</ele>
					<time>0001-01-01T00:00:00Z</time>
				</trkpt>
				<trkpt lat="52.27386" lon="-0.35213">
					<ele>26</ele>
					<time>0001-01-01T00:00:00Z</time>
				</trkpt>
				<trkpt lat="52.27300" lon="-0.34982">
					<ele>25</ele>
					<time>0001-01-01T00:00:00Z</time>
				</trkpt>
				<trkpt lat="52.27219" lon="-0.34767">
					<ele>24</ele>
					<time>0001-01-01T00:00:00Z</time>
				</trkpt>
				<trkpt lat="52.27194" lon="-0.34713">
					<ele>23</ele>
					<time>0001-01-01T00:00:00Z</time>
				</trkpt>
				<trkpt lat="52.27181" lon="-0.34689">
					<ele>24</ele>
					<time>0001-01-01T00:00:00Z</time>
				</trkpt>
				<trkpt lat="52.27149" lon="-0.34658">
					<ele>26</ele>
					<time>0001-01-01T00:00:00Z</time>
				</trkpt>
				<trkpt lat="52.27039" lon="-0.34625">
					<ele>25</ele>
					<time>0001-01-01T00:00:00Z</time>
				</trkpt>
				<trkpt lat="52.26929" lon="-0.34576">
					<ele>26</ele>
					<time>0001-01-01T00:00:00Z</time>
				</trkpt>
				<trkpt lat="52.26844" lon="-0.34542">
					<ele>25</ele>
					<time>0001-01-01T00:00:00Z</time>
				</trkpt>
				<trkpt lat="52.26827" lon="-0.34509">
					<ele>25</ele>
					<time>0001-01-01T00:00:00Z</time>
				</trkpt>
				<trkpt lat="52.26801" lon="-0.34301">
					<ele>24</ele>
					<time>0001-01-01T00:00:00Z</time>
				</trkpt>
				<trkpt lat="52.26758" lon="-0.34037">
					<ele>21</ele>
					<time>0001-01-01T00:00:00Z</time>
				</trkpt>
				<trkpt lat="52.26713" lon="-0.33802">
					<ele>19</ele>
					<time>0001-01-01T00:00:00Z</time>
				</trkpt>
				<trkpt lat="52.26665" lon="-0.33561">
					<ele>19</ele>
					<time>0001-01-01T00:00:00Z</time>
				</trkpt>
				<trkpt lat="52.26631" lon="-0.33397">
					<ele>19</ele>
					<time>0001-01-01T00:00:00Z</time>
				</trkpt>
				<trkpt lat="52.26564" lon="-0.33265">
					<ele>20</ele>
					<time>0001-01-01T00:00:00Z</time>
				</trkpt>
				<trkpt lat="52.26439" lon="-0.33122">
					<ele>22</ele>
					<time>0001-01-01T00:00:00Z</time>
				</trkpt>
				<trkpt lat="52.26375" lon="-0.32984">
					<ele>24</ele>
					<time>0001-01-01T00:00:00Z</time>
				</trkpt>
				<trkpt lat="52.26326" lon="-0.32830">
					<ele>25</ele>
					<time>0001-01-01T00:00:00Z</time>
				</trkpt>
				<trkpt lat="52.26259" lon="-0.32614">
					<ele>25</ele>
					<time>0001-01-01T00:00:00Z</time>
				</trkpt>
				<trkpt lat="52.26165" lon="-0.32329">
					<ele>23</ele>
					<time>0001-01-01T00:00:00Z</time>
				</trkpt>
				<trkpt lat="52.26070" lon="-0.32056">
					<ele>18</ele>
					<time>0001-01-01T00:00:00Z</time>
				</trkpt>
				<trkpt lat="52.25991" lon="-0.31875">
					<ele>19</ele>
					<time>0001-01-01T00:00:00Z</time>
				</trkpt>
				<trkpt lat="52.25874" lon="-0.31602">
					<ele>18</ele>
					<time>0001-01-01T00:00:00Z</time>
				</trkpt>
				<trkpt lat="52.25776" lon="-0.31360">
					<ele>17</ele>
					<time>0001-01-01T00:00:00Z</time>
				</trkpt>
				<trkpt lat="52.25669" lon="-0.31131">
					<ele>15</ele>
					<time>0001-01-01T00:00:00Z</time>
				</trkpt>
				<trkpt lat="52.25632" lon="-0.31112">
					<ele>15</ele>
					<time>0001-01-01T00:00:00Z</time>
				</trkpt>
				<trkpt lat="52.25535" lon="-0.31085">
					<ele>17</ele>
					<time>0001-01-01T00:00:00Z</time>
				</trkpt>
				<trkpt lat="52.25439" lon="-0.30932">
					<ele>18</ele>
					<time>0001-01-01T00:00:00Z</time>
				</trkpt>
				<trkpt lat="52.25332" lon="-0.30715">
					<ele>20</ele>
					<time>0001-01-01T00:00:00Z</time>
				</trkpt>
				<trkpt lat="52.25296" lon="-0.30688">
					<ele>22</ele>
					<time>0001-01-01T00:00:00Z</time>
				</trkpt>
				<trkpt lat="52.25222" lon="-0.30703">
					<ele>28</ele>
					<time>0001-01-01T00:00:00Z</time>
				</trkpt>
				<trkpt lat="52.25131" lon="-0.30715">
					<ele>31</ele>
					<time>0001-01-01T00:00:00Z</time>
				</trkpt>
				<trkpt lat="52.25017" lon="-0.30679">
					<ele>31</ele>
					<time>0001-01-01T00:00:00Z</time>
				</trkpt>
				<trkpt lat="52.24883" lon="-0.30648">
					<ele>31</ele>
					<time>0001-01-01T00:00:00Z</time>
				</trkpt>
				<trkpt lat="52.24813" lon="-0.30548">
					<ele>32</ele>
					<time>0001-01-01T00:00:00Z</time>
				</trkpt>
				<trkpt lat="52.24743" lon="-0.30336">
					<ele>31</ele>
					<time>0001-01-01T00:00:00Z</time>
				</trkpt>
				<trkpt lat="52.24658" lon="-0.30176">
					<ele>31</ele>
					<time>0001-01-01T00:00:00Z</time>
				</trkpt>
				<trkpt lat="52.24574" lon="-0.30071">
					<ele>30</ele>
					<time>0001-01-01T00:00:00Z</time>
				</trkpt>
				<trkpt lat="52.24512" lon="-0.29984">
					<ele>29</ele>
					<time>0001-01-01T00:00:00Z</time>
				</trkpt>
				<trkpt lat="52.24421" lon="-0.29871">
					<ele>28</ele>
					<time>0001-01-01T00:00:00Z</time>
				</trkpt>
				<trkpt lat="52.24332" lon="-0.29704">
					<ele>27</ele>
					<time>0001-01-01T00:00:00Z</time>
				</trkpt>
				<trkpt lat="52.24252" lon="-0.29473">
					<ele>28</ele>
					<time>0001-01-01T00:00:00Z</time>
				</trkpt>
				<trkpt lat="52.24217" lon="-0.29371">
					<ele>28</ele>
					<time>0001-01-01T00:00:00Z</time>
				</trkpt>
				<trkpt lat="52.24121" lon="-0.29320">
					<ele>28</ele>
					<time>0001-01-01T00:00:00Z</time>
				</trkpt>
				<trkpt lat="52.24050" lon="-0.29310">
					<ele>30</ele>
					<time>0001-01-01T00:00:00Z</time>
				</trkpt>
				<trkpt lat="52.23953" lon="-0.29201">
					<ele>31</ele>
					<time>0001-01-01T00:00:00Z</time>
				</trkpt>
				<trkpt lat="52.23896" lon="-0.29028">
					<ele>30</ele>
					<time>0001-01-01T00:00:00Z</time>
				</trkpt>
				<trkpt lat="52.23808" lon="-0.28705">
					<ele>27</ele>
					<time>0001-01-01T00:00:00Z</time>
				</trkpt>
				<trkpt lat="52.23700" lon="-0.28402">
					<ele>29</ele>
					<time>0001-01-01T00:00:00Z</time>
				</trkpt>
				<trkpt lat="52.23628" lon="-0.28262">
					<ele>28</ele>
					<time>0001-01-01T00:00:00Z</time>
				</trkpt>
				<trkpt lat="52.23563" lon="-0.28119">
					<ele>27</ele>
					<time>0001-01-01T00:00:00Z</time>
				</trkpt>
				<trkpt lat="52.23480" lon="-0.27875">
					<ele>24</ele>
					<time>0001-01-01T00:00:00Z</time>
				</trkpt>
				<trkpt lat="52.23435" lon="-0.27745">
					<ele>23</ele>
					<time>0001-01-01T00:00:00Z</time>
				</trkpt>
				<trkpt lat="52.23295" lon="-0.27628">
					<ele>23</ele>
					<time>0001-01-01T00:00:00Z</time>
				</trkpt>
				<trkpt lat="52.23130" lon="-0.27612">
					<ele>18</ele>
					<time>0001-01-01T00:00:00Z</time>
				</trkpt>
				<trkpt lat="52.22998" lon="-0.27631">
					<ele>15</ele>
					<time>0001-01-01T00:00:00Z</time>
				</trkpt>
				<trkpt lat="52.22846" lon="-0.27661">
					<ele>14</ele>
					<time>0001-01-01T00:00:00Z</time>
				</trkpt>
				<trkpt lat="52.22751" lon="-0.27667">
					<ele>17</ele>
					<time>0001-01-01T00:00:00Z</time>
				</trkpt>
				<trkpt lat="52.22728" lon="-0.27645">
					<ele>16</ele>
					<time>0001-01-01T00:00:00Z</time>
				</trkpt>
				<trkpt lat="52.22712" lon="-0.27620">
					<ele>16</ele>
					<time>0001-01-01T00:00:00Z</time>
				</trkpt>
				<trkpt lat="52.22703" lon="-0.27584">
					<ele>16</ele>
					<time>0001-01-01T00:00:00Z</time>
				</trkpt>
				<trkpt lat="52.22694" lon="-0.27524">
					<ele>15</ele>
					<time>0001-01-01T00:00:00Z</time>
				</trkpt>
				<trkpt lat="52.22698" lon="-0.27483">
					<ele>15</ele>
					<time>0001-01-01T00:00:00Z</time>
				</trkpt>
				<trkpt lat="52.22760" lon="-0.27202">
					<ele>15</ele>
					<time>0001-01-01T00:00:00Z</time>
				</trkpt>
				<trkpt lat="52.22780" lon="-0.27084">
					<ele>14</ele>
					<time>0001-01-01T00:00:00Z</time>
				</trkpt>
				<trkpt lat="52.22789" lon="-0.26985">
					<ele>14</ele>
					<time>0001-01-01T00:00:00Z</time>
				</trkpt>
				<trkpt lat="52.22818" lon="-0.26821">
					<ele>13</ele>
					<time>0001-01-01T00:00:00Z</time>
				</trkpt>
				<trkpt lat="52.22831" lon="-0.26758">
					<ele>13</ele>
					<time>0001-01-01T00:00:00Z</time>
				</trkpt>
				<trkpt lat="52.22851" lon="-0.26649">
					<ele>14</ele>
					<time>0001-01-01T00:00:00Z</time>
				</trkpt>
				<trkpt lat="52.22849" lon="-0.26619">
					<ele>13</ele>
					<time>0001-01-01T00:00:00Z</time>
				</trkpt>
				<trkpt lat="52.22848" lon="-0.26609">
					<ele>14</ele>
					<time>0001-01-01T00:00:00Z</time>
				</trkpt>
				<trkpt lat="52.22839" lon="-0.26607">
					<ele>14</ele>
					<time>0001-01-01T00:00:00Z</time>
				</trkpt>
				<trkpt lat="52.22759" lon="-0.26627">
					<ele>15</ele>
					<time>0001-01-01T00:00:00Z</time>
				</trkpt>
				<trkpt lat="52.22723" lon="-0.26641">
					<ele>17</ele>
					<time>0001-01-01T00:00:00Z</time>
				</trkpt>
				<trkpt lat="52.22672" lon="-0.26643">
					<ele>16</ele>
					<time>0001-01-01T00:00:00Z</time>
				</trkpt>
				<trkpt lat="52.22651" lon="-0.26683">
					<ele>15</ele>
					<time>0001-01-01T00:00:00Z</time>
				</trkpt>
				<trkpt lat="52.22598" lon="-0.26725">
					<ele>15</ele>
					<time>0001-01-01T00:00:00Z</time>
				</trkpt>
				<trkpt lat="52.22562" lon="-0.26785">
					<ele>15</ele>
					<time>0001-01-01T00:00:00Z</time>
				</trkpt>
				<trkpt lat="52.22549" lon="-0.26792">
					<ele>15</ele>
					<time>0001-01-01T00:00:00Z</time>
				</trkpt>
				<trkpt lat="52.22530" lon="-0.26802">
					<ele>17</ele>
					<time>0001-01-01T00:00:00Z</time>
				</trkpt>
				<trkpt lat="52.22522" lon="-0.26802">
					<ele>17</ele>
					<time>0001-01-01T00:00:00Z</time>
				</trkpt>
				<trkpt lat="52.22492" lon="-0.26814">
					<ele>17</ele>
					<time>0001-01-01T00:00:00Z</time>
				</trkpt>
				<trkpt lat="52.22448" lon="-0.26824">
					<ele>17</ele>
					<time>0001-01-01T00:00:00Z</time>
				</trkpt>
				<trkpt lat="52.22420" lon="-0.26805">
					<ele>15</ele>
					<time>0001-01-01T00:00:00Z</time>
				</trkpt>
				<trkpt lat="52.22355" lon="-0.26706">
					<ele>17</ele>
					<time>0001-01-01T00:00:00Z</time>
				</trkpt>
				<trkpt lat="52.22241" lon="-0.26580">
					<ele>17</ele>
					<time>0001-01-01T00:00:00Z</time>
				</trkpt>
				<trkpt lat="52.22201" lon="-0.26551">
					<ele>17</ele>
					<time>0001-01-01T00:00:00Z</time>
				</trkpt>
				<trkpt lat="52.22040" lon="-0.26490">
					<ele>18</ele>
					<time>0001-01-01T00:00:00Z</time>
				</trkpt>
				<trkpt lat="52.21930" lon="-0.26502">
					<ele>13</ele>
					<time>0001-01-01T00:00:00Z</time>
				</trkpt>
				<trkpt lat="52.21865" lon="-0.26513">
					<ele>13</ele>
					<time>0001-01-01T00:00:00Z</time>
				</trkpt>
				<trkpt lat="52.21751" lon="-0.26618">
					<ele>12</ele>
					<time>0001-01-01T00:00:00Z</time>
				</trkpt>
				<trkpt lat="52.21724" lon="-0.26672">
					<ele>13</ele>
					<time>0001-01-01T00:00:00Z</time>
				</trkpt>
				<trkpt lat="52.21687" lon="-0.26670">
					<ele>14</ele>
					<time>0001-01-01T00:00:00Z</time>
				</trkpt>
				<trkpt lat="52.21688" lon="-0.26652">
					<ele>14</ele>
					<time>0001-01-01T00:00:00Z</time>
				</trkpt>
				<trkpt lat="52.21723" lon="-0.26438">
					<ele>14</ele>
					<time>0001-01-01T00:00:00Z</time>
				</trkpt>
				<trkpt lat="52.21731" lon="-0.26400">
					<ele>14</ele>
					<time>0001-01-01T00:00:00Z</time>
				</trkpt>
				<trkpt lat="52.21734" lon="-0.26380">
					<ele>15</ele>
					<time>0001-01-01T00:00:00Z</time>
				</trkpt>
				<trkpt lat="52.21724" lon="-0.26363">
					<ele>15</ele>
					<time>0001-01-01T00:00:00Z</time>
				</trkpt>
				<trkpt lat="52.21622" lon="-0.26276">
					<ele>17</ele>
					<time>0001-01-01T00:00:00Z</time>
				</trkpt>
				<trkpt lat="52.21530" lon="-0.26197">
					<ele>20</ele>
					<time>0001-01-01T00:00:00Z</time>
				</trkpt>
				<trkpt lat="52.21450" lon="-0.26129">
					<ele>22</ele>
					<time>0001-01-01T00:00:00Z</time>
				</trkpt>
				<trkpt lat="52.21356" lon="-0.26048">
					<ele>24</ele>
					<time>0001-01-01T00:00:00Z</time>
				</trkpt>
				<trkpt lat="52.21249" lon="-0.25951">
					<ele>26</ele>
					<time>0001-01-01T00:00:00Z</time>
				</trkpt>
				<trkpt lat="52.21144" lon="-0.25828">
					<ele>27</ele>
					<time>0001-01-01T00:00:00Z</time>
				</trkpt>
				<trkpt lat="52.21054" lon="-0.25722">
					<ele>28</ele>
					<time>0001-01-01T00:00:00Z</time>
				</trkpt>
				<trkpt lat="52.20937" lon="-0.25594">
					<ele>29</ele>
					<time>0001-01-01T00:00:00Z</time>
				</trkpt>
				<trkpt lat="52.20791" lon="-0.25445">
					<ele>31</ele>
					<time>0001-01-01T00:00:00Z</time>
				</trkpt>
				<trkpt lat="52.20674" lon="-0.25331">
					<ele>32</ele>
					<time>0001-01-01T00:00:00Z</time>
				</trkpt>
				<trkpt lat="52.20600" lon="-0.25248">
					<ele>33</ele>
					<time>0001-01-01T00:00:00Z</time>
				</trkpt>
				<trkpt lat="52.20478" lon="-0.25086">
					<ele>34</ele>
					<time>0001-01-01T00:00:00Z</time>
				</trkpt>
				<trkpt lat="52.20378" lon="-0.24935">
					<ele>35</ele>
					<time>0001-01-01T00:00:00Z</time>
				</trkpt>
				<trkpt lat="52.20306" lon="-0.24833">
					<ele>37</ele>
					<time>0001-01-01T00:00:00Z</time>
				</trkpt>
				<trkpt lat="52.20263" lon="-0.24822">
					<ele>37</ele>
					<time>0001-01-01T00:00:00Z</time>
				</trkpt>
				<trkpt lat="52.20157" lon="-0.24876">
					<ele>37</ele>
					<time>0001-01-01T00:00:00Z</time>
				</trkpt>
				<trkpt lat="52.20088" lon="-0.24915">
					<ele>37</ele>
					<time>0001-01-01T00:00:00Z</time>
				</trkpt>
				<trkpt lat="52.19992" lon="-0.24949">
					<ele>39</ele>
					<time>0001-01-01T00:00:00Z</time>
				</trkpt>
				<trkpt lat="52.19888" lon="-0.24921">
					<ele>40</ele>
					<time>0001-01-01T00:00:00Z</time>
				</trkpt>
				<trkpt lat="52.19794" lon="-0.24802">
					<ele>44</ele>
					<time>0001-01-01T00:00:00Z</time>
				</trkpt>
				<trkpt lat="52.19676" lon="-0.24714">
					<ele>44</ele>
					<time>0001-01-01T00:00:00Z</time>
				</trkpt>
				<trkpt lat="52.19560" lon="-0.24620">
					<ele>46</ele>
					<time>0001-01-01T00:00:00Z</time>
				</trkpt>
				<trkpt lat="52.19456" lon="-0.24588">
					<ele>45</ele>
					<time>0001-01-01T00:00:00Z</time>
				</trkpt>
				<trkpt lat="52.19331" lon="-0.24570">
					<ele>46</ele>
					<time>0001-01-01T00:00:00Z</time>
				</trkpt>
				<trkpt lat="52.19201" lon="-0.24546">
					<ele>46</ele>
					<time>0001-01-01T00:00:00Z</time>
				</trkpt>
				<trkpt lat="52.19169" lon="-0.24503">
					<ele>46</ele>
					<time>0001-01-01T00:00:00Z</time>
				</trkpt>
				<trkpt lat="52.19156" lon="-0.24442">
					<ele>46</ele>
					<time>0001-01-01T00:00:00Z</time>
				</trkpt>
				<trkpt lat="52.19106" lon="-0.24306">
					<ele>47</ele>
					<time>0001-01-01T00:00:00Z</time>
				</trkpt>
				<trkpt lat="52.19097" lon="-0.24288">
					<ele>47</ele>
					<time>0001-01-01T00:00:00Z</time>
				</trkpt>
				<trkpt lat="52.18989" lon="-0.24125">
					<ele>50</ele>
					<time>0001-01-01T00:00:00Z</time>
				</trkpt>
				<trkpt lat="52.18960" lon="-0.24113">
					<ele>52</ele>
					<time>0001-01-01T00:00:00Z</time>
				</trkpt>
				<trkpt lat="52.18801" lon="-0.24184">
					<ele>53</ele>
					<time>0001-01-01T00:00:00Z</time>
				</trkpt>
				<trkpt lat="52.18730" lon="-0.24217">
					<ele>53</ele>
					<time>0001-01-01T00:00:00Z</time>
				</trkpt>
				<trkpt lat="52.18697" lon="-0.24164">
					<ele>53</ele>
					<time>0001-01-01T00:00:00Z</time>
				</trkpt>
				<trkpt lat="52.18664" lon="-0.23962">
					<ele>54</ele>
					<time>0001-01-01T00:00:00Z</time>
				</trkpt>
				<trkpt lat="52.18584" lon="-0.23765">
					<ele>55</ele>
					<time>0001-01-01T00:00:00Z</time>
				</trkpt>
				<trkpt lat="52.18536" lon="-0.23601">
					<ele>54</ele>
					<time>0001-01-01T00:00:00Z</time>
				</trkpt>
				<trkpt lat="52.18502" lon="-0.23327">
					<ele>54</ele>
					<time>0001-01-01T00:00:00Z</time>
				</trkpt>
				<trkpt lat="52.18481" lon="-0.23086">
					<ele>57</ele>
					<time>0001-01-01T00:00:00Z</time>
				</trkpt>
				<trkpt lat="52.18447" lon="-0.22867">
					<ele>56</ele>
					<time>0001-01-01T00:00:00Z</time>
				</trkpt>
				<trkpt lat="52.18401" lon="-0.22551">
					<ele>57</ele>
					<time>0001-01-01T00:00:00Z</time>
				</trkpt>
				<trkpt lat="52.18390" lon="-0.22297">
					<ele>57</ele>
					<time>0001-01-01T00:00:00Z</time>
				</trkpt>
				<trkpt lat="52.18388" lon="-0.22012">
					<ele>55</ele>
					<time>0001-01-01T00:00:00Z</time>
				</trkpt>
				<trkpt lat="52.18392" lon="-0.21871">
					<ele>54</ele>
					<time>0001-01-01T00:00:00Z</time>
				</trkpt>
				<trkpt lat="52.18390" lon="-0.21849">
					<ele>55</ele>
					<time>0001-01-01T00:00:00Z</time>
				</trkpt>
				<trkpt lat="52.18329" lon="-0.21810">
					<ele>55</ele>
					<time>0001-01-01T00:00:00Z</time>
				</trkpt>
				<trkpt lat="52.18088" lon="-0.21684">
					<ele>52</ele>
					<time>0001-01-01T00:00:00Z</time>
				</trkpt>
				<trkpt lat="52.17960" lon="-0.21619">
					<ele>53</ele>
					<time>0001-01-01T00:00:00Z</time>
				</trkpt>
				<trkpt lat="52.17828" lon="-0.21550">
					<ele>53</ele>
					<time>0001-01-01T00:00:00Z</time>
				</trkpt>
				<trkpt lat="52.17729" lon="-0.21504">
					<ele>53</ele>
					<time>0001-01-01T00:00:00Z</time>
				</trkpt>
				<trkpt lat="52.17623" lon="-0.21549">
					<ele>52</ele>
					<time>0001-01-01T00:00:00Z</time>
				</trkpt>
				<trkpt lat="52.17488" lon="-0.21611">
					<ele>52</ele>
					<time>0001-01-01T00:00:00Z</time>
				</trkpt>
				<trkpt lat="52.17326" lon="-0.21686">
					<ele>51</ele>
					<time>0001-01-01T00:00:00Z</time>
				</trkpt>
				<trkpt lat="52.17178" lon="-0.21750">
					<ele>50</ele>
					<time>0001-01-01T00:00:00Z</time>
				</trkpt>
				<trkpt lat="52.17076" lon="-0.21718">
					<ele>50</ele>
					<time>0001-01-01T00:00:00Z</time>
				</trkpt>
				<trkpt lat="52.16982" lon="-0.21606">
					<ele>52</ele>
					<time>0001-01-01T00:00:00Z</time>
				</trkpt>
				<trkpt lat="52.16917" lon="-0.21503">
					<ele>53</ele>
					<time>0001-01-01T00:00:00Z</time>
				</trkpt>
				<trkpt lat="52.16825" lon="-0.21371">
					<ele>53</ele>
					<time>0001-01-01T00:00:00Z</time>
				</trkpt>
				<trkpt lat="52.16711" lon="-0.21241">
					<ele>43</ele>
					<time>0001-01-01T00:00:00Z</time>
				</trkpt>
				<trkpt lat="52.16564" lon="-0.21063">
					<ele>41</ele>
					<time>0001-01-01T00:00:00Z</time>
				</trkpt>
				<trkpt lat="52.16511" lon="-0.20992">
					<ele>48</ele>
					<time>0001-01-01T00:00:00Z</time>
				</trkpt>
				<trkpt lat="52.16424" lon="-0.20901">
					<ele>56</ele>
					<time>0001-01-01T00:00:00Z</time>
				</trkpt>
				<trkpt lat="52.16354" lon="-0.20907">
					<ele>57</ele>
					<time>0001-01-01T00:00:00Z</time>
				</trkpt>
				<trkpt lat="52.16349" lon="-0.20908">
					<ele>57</ele>
					<time>0001-01-01T00:00:00Z</time>
				</trkpt>
				<trkpt lat="52.16324" lon="-0.20906">
					<ele>57</ele>
					<time>0001-01-01T00:00:00Z</time>
				</trkpt>
				<trkpt lat="52.16191" lon="-0.20818">
					<ele>54</ele>
					<time>0001-01-01T00:00:00Z</time>
				</trkpt>
				<trkpt lat="52.16163" lon="-0.20806">
					<ele>54</ele>
					<time>0001-01-01T00:00:00Z</time>
				</trkpt>
				<trkpt lat="52.16154" lon="-0.20802">
					<ele>54</ele>
					<time>0001-01-01T00:00:00Z</time>
				</trkpt>
				<trkpt lat="52.16140" lon="-0.20786">
					<ele>55</ele>
					<time>0001-01-01T00:00:00Z</time>
				</trkpt>
				<trkpt lat="52.16075" lon="-0.20711">
					<ele>54</ele>
					<time>0001-01-01T00:00:00Z</time>
				</trkpt>
				<trkpt lat="52.16068" lon="-0.20664">
					<ele>54</ele>
					<time>0001-01-01T00:00:00Z</time>
				</trkpt>
				<trkpt lat="52.16057" lon="-0.20473">
					<ele>54</ele>
					<time>0001-01-01T00:00:00Z</time>
				</trkpt>
				<trkpt lat="52.16058" lon="-0.20344">
					<ele>54</ele>
					<time>0001-01-01T00:00:00Z</time>
				</trkpt>
				<trkpt lat="52.16050" lon="-0.20296">
					<ele>54</ele>
					<time>0001-01-01T00:00:00Z</time>
				</trkpt>
				<trkpt lat="52.15955" lon="-0.20116">
					<ele>53</ele>
					<time>0001-01-01T00:00:00Z</time>
				</trkpt>
				<trkpt lat="52.15898" lon="-0.19942">
					<ele>52</ele>
					<time>0001-01-01T00:00:00Z</time>
				</trkpt>
				<trkpt lat="52.15895" lon="-0.19931">
					<ele>52</ele>
					<time>0001-01-01T00:00:00Z</time>
				</trkpt>
				<trkpt lat="52.15820" lon="-0.19778">
					<ele>53</ele>
					<time>0001-01-01T00:00:00Z</time>
				</trkpt>
				<trkpt lat="52.15762" lon="-0.19572">
					<ele>52</ele>
					<time>0001-01-01T00:00:00Z</time>
				</trkpt>
				<trkpt lat="52.15701" lon="-0.19425">
					<ele>52</ele>
					<time>0001-01-01T00:00:00Z</time>
				</trkpt>
				<trkpt lat="52.15657" lon="-0.19314">
					<ele>52</ele>
					<time>0001-01-01T00:00:00Z</time>
				</trkpt>
				<trkpt lat="52.15594" lon="-0.19298">
					<ele>52</ele>
					<time>0001-01-01T00:00:00Z</time>
				</trkpt>
				<trkpt lat="52.15576" lon="-0.19296">
					<ele>52</ele>
					<time>0001-01-01T00:00:00Z</time>
				</trkpt>
				<trkpt lat="52.15556" lon="-0.19263">
					<ele>53</ele>
					<time>0001-01-01T00:00:00Z</time>
				</trkpt>
				<trkpt lat="52.15544" lon="-0.19054">
					<ele>54</ele>
					<time>0001-01-01T00:00:00Z</time>
				</trkpt>
				<trkpt lat="52.15542" lon="-0.19044">
					<ele>53</ele>
					<time>0001-01-01T00:00:00Z</time>
				</trkpt>
				<trkpt lat="52.15541" lon="-0.19024">
					<ele>53</ele>
					<time>0001-01-01T00:00:00Z</time>
				</trkpt>
				<trkpt lat="52.15534" lon="-0.18985">
					<ele>53</ele>
					<time>0001-01-01T00:00:00Z</time>
				</trkpt>
				<trkpt lat="52.15517" lon="-0.18962">
					<ele>52</ele>
					<time>0001-01-01T00:00:00Z</time>
				</trkpt>
				<trkpt lat="52.15408" lon="-0.18957">
					<ele>51</ele>
					<time>0001-01-01T00:00:00Z</time>
				</trkpt>
				<trkpt lat="52.15289" lon="-0.19010">
					<ele>49</ele>
					<time>0001-01-01T00:00:00Z</time>
				</trkpt>
				<trkpt lat="52.15221" lon="-0.19059">
					<ele>48</ele>
					<time>0001-01-01T00:00:00Z</time>
				</trkpt>
				<trkpt lat="52.15209" lon="-0.18999">
					<ele>47</ele>
					<time>0001-01-01T00:00:00Z</time>
				</trkpt>
				<trkpt lat="52.15198" lon="-0.18997">
					<ele>47</ele>
					<time>0001-01-01T00:00:00Z</time>
				</trkpt>
				<trkpt lat="52.15185" lon="-0.18997">
					<ele>43</ele>
					<time>0001-01-01T00:00:00Z</time>
				</trkpt>
				<trkpt lat="52.15187" lon="-0.18997">
					<ele>46</ele>
					<time>0001-01-01T00:00:00Z</time>
				</trkpt>
				<trkpt lat="52.15190" lon="-0.19007">
					<ele>46</ele>
					<time>0001-01-01T00:00:00Z</time>
				</trkpt>
				<trkpt lat="52.15209" lon="-0.19065">
					<ele>46</ele>
					<time>0001-01-01T00:00:00Z</time>
				</trkpt>
				<trkpt lat="52.15167" lon="-0.19115">
					<ele>45</ele>
					<time>0001-01-01T00:00:00Z</time>
				</trkpt>
				<trkpt lat="52.15083" lon="-0.19232">
					<ele>44</ele>
					<time>0001-01-01T00:00:00Z</time>
				</trkpt>
				<trkpt lat="52.15076" lon="-0.19245">
					<ele>44</ele>
					<time>0001-01-01T00:00:00Z</time>
				</trkpt>
				<trkpt lat="52.15067" lon="-0.19256">
					<ele>43</ele>
					<time>0001-01-01T00:00:00Z</time>
				</trkpt>
				<trkpt lat="52.14969" lon="-0.19290">
					<ele>41</ele>
					<time>0001-01-01T00:00:00Z</time>
				</trkpt>
				<trkpt lat="52.14824" lon="-0.19295">
					<ele>36</ele>
					<time>0001-01-01T00:00:00Z</time>
				</trkpt>
				<trkpt lat="52.14705" lon="-0.19310">
					<ele>40</ele>
					<time>0001-01-01T00:00:00Z</time>
				</trkpt>
				<trkpt lat="52.14672" lon="-0.19325">
					<ele>41</ele>
					<time>0001-01-01T00:00:00Z</time>
				</trkpt>
				<trkpt lat="52.14637" lon="-0.19349">
					<ele>42</ele>
					<time>0001-01-01T00:00:00Z</time>
				</trkpt>
				<trkpt lat="52.14549" lon="-0.19446">
					<ele>45</ele>
					<time>0001-01-01T00:00:00Z</time>
				</trkpt>
				<trkpt lat="52.14450" lon="-0.19562">
					<ele>46</ele>
					<time>0001-01-01T00:00:00Z</time>
				</trkpt>
				<trkpt lat="52.14326" lon="-0.19685">
					<ele>45</ele>
					<time>0001-01-01T00:00:00Z</time>
				</trkpt>
				<trkpt lat="52.14223" lon="-0.19776">
					<ele>41</ele>
					<time>0001-01-01T00:00:00Z</time>
				</trkpt>
				<trkpt lat="52.14054" lon="-0.19925">
					<ele>43</ele>
					<time>0001-01-01T00:00:00Z</time>
				</trkpt>
				<trkpt lat="52.13885" lon="-0.20060">
					<ele>39</ele>
					<time>0001-01-01T00:00:00Z</time>
				</trkpt>
				<trkpt lat="52.13748" lon="-0.20160">
					<ele>41</ele>
					<time>0001-01-01T00:00:00Z</time>
				</trkpt>
				<trkpt lat="52.13625" lon="-0.20249">
					<ele>45</ele>
					<time>0001-01-01T00:00:00Z</time>
				</trkpt>
				<trkpt lat="52.13512" lon="-0.20345">
					<ele>46</ele>
					<time>0001-01-01T00:00:00Z</time>
				</trkpt>
				<trkpt lat="52.13394" lon="-0.20491">
					<ele>41</ele>
					<time>0001-01-01T00:00:00Z</time>
				</trkpt>
				<trkpt lat="52.13086" lon="-0.20695">
					<ele>33</ele>
					<time>0001-01-01T00:00:00Z</time>
				</trkpt>
				<trkpt lat="52.13037" lon="-0.20749">
					<ele>34</ele>
					<time>0001-01-01T00:00:00Z</time>
				</trkpt>
				<trkpt lat="52.13033" lon="-0.20789">
					<ele>33</ele>
					<time>0001-01-01T00:00:00Z</time>
				</trkpt>
				<trkpt lat="52.13039" lon="-0.20883">
					<ele>32</ele>
					<time>0001-01-01T00:00:00Z</time>
				</trkpt>
				<trkpt lat="52.13044" lon="-0.20891">
					<ele>32</ele>
					<time>0001-01-01T00:00:00Z</time>
				</trkpt>
				<trkpt lat="52.13059" lon="-0.20914">
					<ele>31</ele>
					<time>0001-01-01T00:00:00Z</time>
				</trkpt>
				<trkpt lat="52.13058" lon="-0.20903">
					<ele>32</ele>
					<time>0001-01-01T00:00:00Z</time>
				</trkpt>
				<trkpt lat="52.13029" lon="-0.20818">
					<ele>33</ele>
					<time>0001-01-01T00:00:00Z</time>
				</trkpt>
				<trkpt lat="52.13015" lon="-0.20762">
					<ele>34</ele>
					<time>0001-01-01T00:00:00Z</time>
				</trkpt>
				<trkpt lat="52.12995" lon="-0.20739">
					<ele>34</ele>
					<time>0001-01-01T00:00:00Z</time>
				</trkpt>
				<trkpt lat="52.12954" lon="-0.20700">
					<ele>31</ele>
					<time>0001-01-01T00:00:00Z</time>
				</trkpt>
				<trkpt lat="52.12937" lon="-0.20671">
					<ele>32</ele>
					<time>0001-01-01T00:00:00Z</time>
				</trkpt>
				<trkpt lat="52.12933" lon="-0.20655">
					<ele>32</ele>
					<time>0001-01-01T00:00:00Z</time>
				</trkpt>
				<trkpt lat="52.12941" lon="-0.20480">
					<ele>35</ele>
					<time>0001-01-01T00:00:00Z</time>
				</trkpt>
				<trkpt lat="52.12943" lon="-0.20464">
					<ele>35</ele>
					<time>0001-01-01T00:00:00Z</time>
				</trkpt>
				<trkpt lat="52.12921" lon="-0.20443">
					<ele>36</ele>
					<time>0001-01-01T00:00:00Z</time>
				</trkpt>
				<trkpt lat="52.12790" lon="-0.20435">
					<ele>39</ele>
					<time>0001-01-01T00:00:00Z</time>
				</trkpt>
				<trkpt lat="52.12639" lon="-0.20431">
					<ele>42</ele>
					<time>0001-01-01T00:00:00Z</time>
				</trkpt>
				<trkpt lat="52.12574" lon="-0.20426">
					<ele>42</ele>
					<time>0001-01-01T00:00:00Z</time>
				</trkpt>
				<trkpt lat="52.12572" lon="-0.20421">
					<ele>42</ele>
					<time>0001-01-01T00:00:00Z</time>
				</trkpt>
				<trkpt lat="52.12526" lon="-0.20301">
					<ele>41</ele>
					<time>0001-01-01T00:00:00Z</time>
				</trkpt>
				<trkpt lat="52.12393" lon="-0.20146">
					<ele>39</ele>
					<time>0001-01-01T00:00:00Z</time>
				</trkpt>
				<trkpt lat="52.12199" lon="-0.19828">
					<ele>38</ele>
					<time>0001-01-01T00:00:00Z</time>
				</trkpt>
				<trkpt lat="52.12126" lon="-0.19679">
					<ele>40</ele>
					<time>0001-01-01T00:00:00Z</time>
				</trkpt>
				<trkpt lat="52.12117" lon="-0.19458">
					<ele>39</ele>
					<time>0001-01-01T00:00:00Z</time>
				</trkpt>
				<trkpt lat="52.12092" lon="-0.19156">
					<ele>40</ele>
					<time>0001-01-01T00:00:00Z</time>
				</trkpt>
				<trkpt lat="52.12073" lon="-0.18937">
					<ele>48</ele>
					<time>0001-01-01T00:00:00Z</time>
				</trkpt>
				<trkpt lat="52.12067" lon="-0.18822">
					<ele>52</ele>
					<time>0001-01-01T00:00:00Z</time>
				</trkpt>
				<trkpt lat="52.12066" lon="-0.18715">
					<ele>58</ele>
					<time>0001-01-01T00:00:00Z</time>
				</trkpt>
				<trkpt lat="52.12069" lon="-0.18578">
					<ele>63</ele>
					<time>0001-01-01T00:00:00Z</time>
				</trkpt>
				<trkpt lat="52.12073" lon="-0.18427">
					<ele>65</ele>
					<time>0001-01-01T00:00:00Z</time>
				</trkpt>
				<trkpt lat="52.12060" lon="-0.18215">
					<ele>65</ele>
					<time>0001-01-01T00:00:00Z</time>
				</trkpt>
				<trkpt lat="52.12034" lon="-0.17943">
					<ele>61</ele>
					<time>0001-01-01T00:00:00Z</time>
				</trkpt>
				<trkpt lat="52.11976" lon="-0.17747">
					<ele>63</ele>
					<time>0001-01-01T00:00:00Z</time>
				</trkpt>
				<trkpt lat="52.11857" lon="-0.17618">
					<ele>57</ele>
					<time>0001-01-01T00:00:00Z</time>
				</trkpt>
				<trkpt lat="52.11619" lon="-0.17394">
					<ele>49</ele>
					<time>0001-01-01T00:00:00Z</time>
				</trkpt>
				<trkpt lat="52.11418" lon="-0.17198">
					<ele>42</ele>
					<time>0001-01-01T00:00:00Z</time>
				</trkpt>
				<trkpt lat="52.11230" lon="-0.16982">
					<ele>37</ele>
					<time>0001-01-01T00:00:00Z</time>
				</trkpt>
				<trkpt lat="52.11214" lon="-0.16911">
					<ele>36</ele>
					<time>0001-01-01T00:00:00Z</time>
				</trkpt>
				<trkpt lat="52.11195" lon="-0.16643">
					<ele>33</ele>
					<time>0001-01-01T00:00:00Z</time>
				</trkpt>
				<trkpt lat="52.11150" lon="-0.16462">
					<ele>32</ele>
					<time>0001-01-01T00:00:00Z</time>
				</trkpt>
				<trkpt lat="52.11094" lon="-0.16467">
					<ele>31</ele>
					<time>0001-01-01T00:00:00Z</time>
				</trkpt>
				<trkpt lat="52.11020" lon="-0.16505">
					<ele>34</ele>
					<time>0001-01-01T00:00:00Z</time>
				</trkpt>
				<trkpt lat="52.10966" lon="-0.16497">
					<ele>34</ele>
					<time>0001-01-01T00:00:00Z</time>
				</trkpt>
				<trkpt lat="52.10803" lon="-0.16428">
					<ele>29</ele>
					<time>0001-01-01T00:00:00Z</time>
				</trkpt>
				<trkpt lat="52.10738" lon="-0.16386">
					<ele>29</ele>
					<time>0001-01-01T00:00:00Z</time>
				</trkpt>
				<trkpt lat="52.10631" lon="-0.16230">
					<ele>28</ele>
					<time>0001-01-01T00:00:00Z</time>
				</trkpt>
				<trkpt lat="52.10564" lon="-0.16126">
					<ele>30</ele>
					<time>0001-01-01T00:00:00Z</time>
				</trkpt>
				<trkpt lat="52.10562" lon="-0.16123">
					<ele>30</ele>
					<time>0001-01-01T00:00:00Z</time>
				</trkpt>
				<trkpt lat="52.10475" lon="-0.16006">
					<ele>33</ele>
					<time>0001-01-01T00:00:00Z</time>
				</trkpt>
				<trkpt lat="52.10354" lon="-0.15845">
					<ele>37</ele>
					<time>0001-01-01T00:00:00Z</time>
				</trkpt>
				<trkpt lat="52.10236" lon="-0.15694">
					<ele>40</ele>
					<time>0001-01-01T00:00:00Z</time>
				</trkpt>
				<trkpt lat="52.10121" lon="-0.15607">
					<ele>37</ele>
					<time>0001-01-01T00:00:00Z</time>
				</trkpt>
				<trkpt lat="52.09929" lon="-0.15498">
					<ele>27</ele>
					<time>0001-01-01T00:00:00Z</time>
				</trkpt>
				<trkpt lat="52.09756" lon="-0.15390">
					<ele>22</ele>
					<time>0001-01-01T00:00:00Z</time>
				</trkpt>
				<trkpt lat="52.09594" lon="-0.15258">
					<ele>23</ele>
					<time>0001-01-01T00:00:00Z</time>
				</trkpt>
				<trkpt lat="52.09418" lon="-0.15075">
					<ele>19</ele>
					<time>0001-01-01T00:00:00Z</time>
				</trkpt>
				<trkpt lat="52.09357" lon="-0.15004">
					<ele>18</ele>
					<time>0001-01-01T00:00:00Z</time>
				</trkpt>
				<trkpt lat="52.09350" lon="-0.14922">
					<ele>17</ele>
					<time>0001-01-01T00:00:00Z</time>
				</trkpt>
				<trkpt lat="52.09387" lon="-0.14767">
					<ele>17</ele>
					<time>0001-01-01T00:00:00Z</time>
				</trkpt>
				<trkpt lat="52.09383" lon="-0.14665">
					<ele>18</ele>
					<time>0001-01-01T00:00:00Z</time>
				</trkpt>
				<trkpt lat="52.09366" lon="-0.14624">
					<ele>18</ele>
					<time>0001-01-01T00:00:00Z</time>
				</trkpt>
				<trkpt lat="52.09277" lon="-0.14519">
					<ele>16</ele>
					<time>0001-01-01T00:00:00Z</time>
				</trkpt>
				<trkpt lat="52.09120" lon="-0.14442">
					<ele>19</ele>
					<time>0001-01-01T00:00:00Z</time>
				</trkpt>
				<trkpt lat="52.09034" lon="-0.14386">
					<ele>24</ele>
					<time>0001-01-01T00:00:00Z</time>
				</trkpt>
				<trkpt lat="52.08959" lon="-0.14334">
					<ele>29</ele>
					<time>0001-01-01T00:00:00Z</time>
				</trkpt>
				<trkpt lat="52.08874" lon="-0.14270">
					<ele>33</ele>
					<time>0001-01-01T00:00:00Z</time>
				</trkpt>
				<trkpt lat="52.08831" lon="-0.14238">
					<ele>33</ele>
					<time>0001-01-01T00:00:00Z</time>
				</trkpt>
				<trkpt lat="52.08807" lon="-0.14183">
					<ele>33</ele>
					<time>0001-01-01T00:00:00Z</time>
				</trkpt>
				<trkpt lat="52.08757" lon="-0.13878">
					<ele>30</ele>
					<time>0001-01-01T00:00:00Z</time>
				</trkpt>
				<trkpt lat="52.08699" lon="-0.13540">
					<ele>25</ele>
					<time>0001-01-01T00:00:00Z</time>
				</trkpt>
				<trkpt lat="52.08692" lon="-0.13511">
					<ele>24</ele>
					<time>0001-01-01T00:00:00Z</time>
				</trkpt>
				<trkpt lat="52.08643" lon="-0.13468">
					<ele>24</ele>
					<time>0001-01-01T00:00:00Z</time>
				</trkpt>
				<trkpt lat="52.08620" lon="-0.13483">
					<ele>23</ele>
					<time>0001-01-01T00:00:00Z</time>
				</trkpt>
				<trkpt lat="52.08502" lon="-0.13493">
					<ele>22</ele>
					<time>0001-01-01T00:00:00Z</time>
				</trkpt>
				<trkpt lat="52.08387" lon="-0.13546">
					<ele>24</ele>
					<time>0001-01-01T00:00:00Z</time>
				</trkpt>
				<trkpt lat="52.08265" lon="-0.13640">
					<ele>27</ele>
					<time>0001-01-01T00:00:00Z</time>
				</trkpt>
				<trkpt lat="52.08159" lon="-0.13743">
					<ele>27</ele>
					<time>0001-01-01T00:00:00Z</time>
				</trkpt>
				<trkpt lat="52.08153" lon="-0.13748">
					<ele>27</ele>
					<time>0001-01-01T00:00:00Z</time>
				</trkpt>
				<trkpt lat="52.08018" lon="-0.13777">
					<ele>28</ele>
					<time>0001-01-01T00:00:00Z</time>
				</trkpt>
				<trkpt lat="52.07890" lon="-0.13782">
					<ele>28</ele>
					<time>0001-01-01T00:00:00Z</time>
				</trkpt>
				<trkpt lat="52.07816" lon="-0.13724">
					<ele>26</ele>
					<time>0001-01-01T00:00:00Z</time>
				</trkpt>
				<trkpt lat="52.07806" lon="-0.13711">
					<ele>26</ele>
					<time>0001-01-01T00:00:00Z</time>
				</trkpt>
				<trkpt lat="52.07698" lon="-0.13616">
					<ele>30</ele>
					<time>0001-01-01T00:00:00Z</time>
				</trkpt>
				<trkpt lat="52.07583" lon="-0.13609">
					<ele>32</ele>
					<time>0001-01-01T00:00:00Z</time>
				</trkpt>
				<trkpt lat="52.07452" lon="-0.13654">
					<ele>35</ele>
					<time>0001-01-01T00:00:00Z</time>
				</trkpt>
				<trkpt lat="52.07319" lon="-0.13718">
					<ele>39</ele>
					<time>0001-01-01T00:00:00Z</time>
				</trkpt>
				<trkpt lat="52.07214" lon="-0.13778">
					<ele>40</ele>
					<time>0001-01-01T00:00:00Z</time>
				</trkpt>
				<trkpt lat="52.07171" lon="-0.13790">
					<ele>39</ele>
					<time>0001-01-01T00:00:00Z</time>
				</trkpt>
				<trkpt lat="52.07146" lon="-0.13811">
					<ele>39</ele>
					<time>0001-01-01T00:00:00Z</time>
				</trkpt>
				<trkpt lat="52.07062" lon="-0.13848">
					<ele>40</ele>
					<time>0001-01-01T00:00:00Z</time>
				</trkpt>
				<trkpt lat="52.06913" lon="-0.13875">
					<ele>41</ele>
					<time>0001-01-01T00:00:00Z</time>
				</trkpt>
				<trkpt lat="52.06764" lon="-0.13958">
					<ele>41</ele>
					<time>0001-01-01T00:00:00Z</time>
				</trkpt>
				<trkpt lat="52.06629" lon="-0.13986">
					<ele>42</ele>
					<time>0001-01-01T00:00:00Z</time>
				</trkpt>
				<trkpt lat="52.06473" lon="-0.13997">
					<ele>44</ele>
					<time>0001-01-01T00:00:00Z</time>
				</trkpt>
				<trkpt lat="52.06354" lon="-0.13983">
					<ele>45</ele>
					<time>0001-01-01T00:00:00Z</time>
				</trkpt>
				<trkpt lat="52.06191" lon="-0.13991">
					<ele>45</ele>
					<time>0001-01-01T00:00:00Z</time>
				</trkpt>
				<trkpt lat="52.06010" lon="-0.14008">
					<ele>45</ele>
					<time>0001-01-01T00:00:00Z</time>
				</trkpt>
				<trkpt lat="52.05817" lon="-0.14027">
					<ele>43</ele>
					<time>0001-01-01T00:00:00Z</time>
				</trkpt>
				<trkpt lat="52.05653" lon="-0.14041">
					<ele>44</ele>
					<time>0001-01-01T00:00:00Z</time>
				</trkpt>
				<trkpt lat="52.05507" lon="-0.14055">
					<ele>47</ele>
					<time>0001-01-01T00:00:00Z</time>
				</trkpt>
				<trkpt lat="52.05381" lon="-0.14070">
					<ele>47</ele>
					<time>0001-01-01T00:00:00Z</time>
				</trkpt>
				<trkpt lat="52.05255" lon="-0.14167">
					<ele>48</ele>
					<time>0001-01-01T00:00:00Z</time>
				</trkpt>
				<trkpt lat="52.05087" lon="-0.14287">
					<ele>48</ele>
					<time>0001-01-01T00:00:00Z</time>
				</trkpt>
				<trkpt lat="52.05008" lon="-0.14397">
					<ele>41</ele>
					<time>0001-01-01T00:00:00Z</time>
				</trkpt>
				<trkpt lat="52.04872" lon="-0.14571">
					<ele>33</ele>
					<time>0001-01-01T00:00:00Z</time>
				</trkpt>
				<trkpt lat="52.04698" lon="-0.14734">
					<ele>31</ele>
					<time>0001-01-01T00:00:00Z</time>
				</trkpt>
				<trkpt lat="52.04586" lon="-0.14834">
					<ele>36</ele>
					<time>0001-01-01T00:00:00Z</time>
				</trkpt>
				<trkpt lat="52.04530" lon="-0.14890">
					<ele>33</ele>
					<time>0001-01-01T00:00:00Z</time>
				</trkpt>
				<trkpt lat="52.04487" lon="-0.14878">
					<ele>34</ele>
					<time>0001-01-01T00:00:00Z</time>
				</trkpt>
				<trkpt lat="52.04406" lon="-0.14732">
					<ele>37</ele>
					<time>0001-01-01T00:00:00Z</time>
				</trkpt>
				<trkpt lat="52.04342" lon="-0.14588">
					<ele>39</ele>
					<time>0001-01-01T00:00:00Z</time>
				</trkpt>
				<trkpt lat="52.04320" lon="-0.14571">
					<ele>40</ele>
					<time>0001-01-01T00:00:00Z</time>
				</trkpt>
				<trkpt lat="52.04306" lon="-0.14586">
					<ele>40</ele>
					<time>0001-01-01T00:00:00Z</time>
				</trkpt>
				<trkpt lat="52.04223" lon="-0.14767">
					<ele>45</ele>
					<time>0001-01-01T00:00:00Z</time>
				</trkpt>
				<trkpt lat="52.04184" lon="-0.14908">
					<ele>43</ele>
					<time>0001-01-01T00:00:00Z</time>
				</trkpt>
				<trkpt lat="52.04133" lon="-0.15069">
					<ele>46</ele>
					<time>0001-01-01T00:00:00Z</time>
				</trkpt>
				<trkpt lat="52.04113" lon="-0.15081">
					<ele>46</ele>
					<time>0001-01-01T00:00:00Z</time>
				</trkpt>
				<trkpt lat="52.04019" lon="-0.15010">
					<ele>51</ele>
					<time>0001-01-01T00:00:00Z</time>
				</trkpt>
				<trkpt lat="52.03951" lon="-0.14954">
					<ele>57</ele>
					<time>0001-01-01T00:00:00Z</time>
				</trkpt>
				<trkpt lat="52.03907" lon="-0.14913">
					<ele>60</ele>
					<time>0001-01-01T00:00:00Z</time>
				</trkpt>
				<trkpt lat="52.03850" lon="-0.14865">
					<ele>61</ele>
					<time>0001-01-01T00:00:00Z</time>
				</trkpt>
				<trkpt lat="52.03781" lon="-0.14798">
					<ele>66</ele>
					<time>0001-01-01T00:00:00Z</time>
				</trkpt>
				<trkpt lat="52.03703" lon="-0.14749">
					<ele>69</ele>
					<time>0001-01-01T00:00:00Z</time>
				</trkpt>
				<trkpt lat="52.03629" lon="-0.14712">
					<ele>71</ele>
					<time>0001-01-01T00:00:00Z</time>
				</trkpt>
				<trkpt lat="52.03507" lon="-0.14643">
					<ele>73</ele>
					<time>0001-01-01T00:00:00Z</time>
				</trkpt>
				<trkpt lat="52.03386" lon="-0.14623">
					<ele>76</ele>
					<time>0001-01-01T00:00:00Z</time>
				</trkpt>
				<trkpt lat="52.03247" lon="-0.14608">
					<ele>78</ele>
					<time>0001-01-01T00:00:00Z</time>
				</trkpt>
				<trkpt lat="52.03141" lon="-0.14569">
					<ele>81</ele>
					<time>0001-01-01T00:00:00Z</time>
				</trkpt>
				<trkpt lat="52.03050" lon="-0.14528">
					<ele>84</ele>
					<time>0001-01-01T00:00:00Z</time>
				</trkpt>
				<trkpt lat="52.02919" lon="-0.14496">
					<ele>83</ele>
					<time>0001-01-01T00:00:00Z</time>
				</trkpt>
				<trkpt lat="52.02781" lon="-0.14461">
					<ele>82</ele>
					<time>0001-01-01T00:00:00Z</time>
				</trkpt>
				<trkpt lat="52.02647" lon="-0.14414">
					<ele>77</ele>
					<time>0001-01-01T00:00:00Z</time>
				</trkpt>
				<trkpt lat="52.02525" lon="-0.14384">
					<ele>78</ele>
					<time>0001-01-01T00:00:00Z</time>
				</trkpt>
				<trkpt lat="52.02432" lon="-0.14333">
					<ele>80</ele>
					<time>0001-01-01T00:00:00Z</time>
				</trkpt>
				<trkpt lat="52.02351" lon="-0.14239">
					<ele>82</ele>
					<time>0001-01-01T00:00:00Z</time>
				</trkpt>
				<trkpt lat="52.02321" lon="-0.14204">
					<ele>82</ele>
					<time>0001-01-01T00:00:00Z</time>
				</trkpt>
				<trkpt lat="52.02258" lon="-0.14073">
					<ele>75</ele>
					<time>0001-01-01T00:00:00Z</time>
				</trkpt>
				<trkpt lat="52.02239" lon="-0.14039">
					<ele>74</ele>
					<time>0001-01-01T00:00:00Z</time>
				</trkpt>
				<trkpt lat="52.02128" lon="-0.13882">
					<ele>69</ele>
					<time>0001-01-01T00:00:00Z</time>
				</trkpt>
				<trkpt lat="52.01995" lon="-0.13745">
					<ele>65</ele>
					<time>0001-01-01T00:00:00Z</time>
				</trkpt>
				<trkpt lat="52.01864" lon="-0.13603">
					<ele>61</ele>
					<time>0001-01-01T00:00:00Z</time>
				</trkpt>
				<trkpt lat="52.01801" lon="-0.13436">
					<ele>61</ele>
					<time>0001-01-01T00:00:00Z</time>
				</trkpt>
				<trkpt lat="52.01743" lon="-0.13229">
					<ele>62</ele>
					<time>0001-01-01T00:00:00Z</time>
				</trkpt>
				<trkpt lat="52.01687" lon="-0.12971">
					<ele>64</ele>
					<time>0001-01-01T00:00:00Z</time>
				</trkpt>
				<trkpt lat="52.01662" lon="-0.12871">
					<ele>65</ele>
					<time>0001-01-01T00:00:00Z</time>
				</trkpt>
				<trkpt lat="52.01657" lon="-0.12772">
					<ele>65</ele>
					<time>0001-01-01T00:00:00Z</time>
				</trkpt>
				<trkpt lat="52.01635" lon="-0.12742">
					<ele>64</ele>
					<time>0001-01-01T00:00:00Z</time>
				</trkpt>
				<trkpt lat="52.01625" lon="-0.12744">
					<ele>65</ele>
					<time>0001-01-01T00:00:00Z</time>
				</trkpt>
				<trkpt lat="52.01591" lon="-0.12722">
					<ele>65</ele>
					<time>0001-01-01T00:00:00Z</time>
				</trkpt>
				<trkpt lat="52.01575" lon="-0.12674">
					<ele>66</ele>
					<time>0001-01-01T00:00:00Z</time>
				</trkpt>
				<trkpt lat="52.01532" lon="-0.12519">
					<ele>67</ele>
					<time>0001-01-01T00:00:00Z</time>
				</trkpt>
				<trkpt lat="52.01459" lon="-0.12400">
					<ele>71</ele>
					<time>0001-01-01T00:00:00Z</time>
				</trkpt>
				<trkpt lat="52.01356" lon="-0.12276">
					<ele>73</ele>
					<time>0001-01-01T00:00:00Z</time>
				</trkpt>
				<trkpt lat="52.01251" lon="-0.12147">
					<ele>73</ele>
					<time>0001-01-01T00:00:00Z</time>
				</trkpt>
				<trkpt lat="52.01141" lon="-0.12001">
					<ele>74</ele>
					<time>0001-01-01T00:00:00Z</time>
				</trkpt>
				<trkpt lat="52.01004" lon="-0.11889">
					<ele>76</ele>
					<time>0001-01-01T00:00:00Z</time>
				</trkpt>
				<trkpt lat="52.00859" lon="-0.11809">
					<ele>78</ele>
					<time>0001-01-01T00:00:00Z</time>
				</trkpt>
				<trkpt lat="52.00743" lon="-0.11778">
					<ele>80</ele>
					<time>0001-01-01T00:00:00Z</time>
				</trkpt>
				<trkpt lat="52.00599" lon="-0.11751">
					<ele>78</ele>
					<time>0001-01-01T00:00:00Z</time>
				</trkpt>
				<trkpt lat="52.00476" lon="-0.11762">
					<ele>78</ele>
					<time>0001-01-01T00:00:00Z</time>
				</trkpt>
				<trkpt lat="52.00360" lon="-0.11732">
					<ele>79</ele>
					<time>0001-01-01T00:00:00Z</time>
				</trkpt>
				<trkpt lat="52.00228" lon="-0.11704">
					<ele>80</ele>
					<time>0001-01-01T00:00:00Z</time>
				</trkpt>
				<trkpt lat="52.00102" lon="-0.11650">
					<ele>78</ele>
					<time>0001-01-01T00:00:00Z</time>
				</trkpt>
				<trkpt lat="51.99969" lon="-0.11563">
					<ele>80</ele>
					<time>0001-01-01T00:00:00Z</time>
				</trkpt>
				<trkpt lat="51.99833" lon="-0.11459">
					<ele>85</ele>
					<time>0001-01-01T00:00:00Z</time>
				</trkpt>
				<trkpt lat="51.99712" lon="-0.11395">
					<ele>86</ele>
					<time>0001-01-01T00:00:00Z</time>
				</trkpt>
				<trkpt lat="51.99565" lon="-0.11330">
					<ele>86</ele>
					<time>0001-01-01T00:00:00Z</time>
				</trkpt>
				<trkpt lat="51.99431" lon="-0.11258">
					<ele>90</ele>
					<time>0001-01-01T00:00:00Z</time>
				</trkpt>
				<trkpt lat="51.99319" lon="-0.11177">
					<ele>93</ele>
					<time>0001-01-01T00:00:00Z</time>
				</trkpt>
				<trkpt lat="51.99207" lon="-0.11063">
					<ele>92</ele>
					<time>0001-01-01T00:00:00Z</time>
				</trkpt>
				<trkpt lat="51.99093" lon="-0.10913">
					<ele>94</ele>
					<time>0001-01-01T00:00:00Z</time>
				</trkpt>
				<trkpt lat="51.99039" lon="-0.10862">
					<ele>96</ele>
					<time>0001-01-01T00:00:00Z</time>
				</trkpt>
				<trkpt lat="51.98923" lon="-0.10828">
					<ele>98</ele>
					<time>0001-01-01T00:00:00Z</time>
				</trkpt>
				<trkpt lat="51.98801" lon="-0.10734">
					<ele>97</ele>
					<time>0001-01-01T00:00:00Z</time>
				</trkpt>
				<trkpt lat="51.98677" lon="-0.10678">
					<ele>99</ele>
					<time>0001-01-01T00:00:00Z</time>
				</trkpt>
				<trkpt lat="51.98621" lon="-0.10680">
					<ele>100</ele>
					<time>0001-01-01T00:00:00Z</time>
				</trkpt>
				<trkpt lat="51.98503" lon="-0.10724">
					<ele>102</ele>
					<time>0001-01-01T00:00:00Z</time>
				</trkpt>
				<trkpt lat="51.98407" lon="-0.10738">
					<ele>104</ele>
					<time>0001-01-01T00:00:00Z</time>
				</trkpt>
				<trkpt lat="51.98376" lon="-0.10743">
					<ele>107</ele>
					<time>0001-01-01T00:00:00Z</time>
				</trkpt>
				<trkpt lat="51.98282" lon="-0.10760">
					<ele>109</ele>
					<time>0001-01-01T00:00:00Z</time>
				</trkpt>
				<trkpt lat="51.98224" lon="-0.10786">
					<ele>112</ele>
					<time>0001-01-01T00:00:00Z</time>
				</trkpt>
				<trkpt lat="51.98143" lon="-0.10848">
					<ele>117</ele>
					<time>0001-01-01T00:00:00Z</time>
				</trkpt>
				<trkpt lat="51.98076" lon="-0.10903">
					<ele>119</ele>
					<time>0001-01-01T00:00:00Z</time>
				</trkpt>
				<trkpt lat="51.97997" lon="-0.10900">
					<ele>121</ele>
					<time>0001-01-01T00:00:00Z</time>
				</trkpt>
				<trkpt lat="51.97982" lon="-0.10902">
					<ele>122</ele>
					<time>0001-01-01T00:00:00Z</time>
				</trkpt>
				<trkpt lat="51.97911" lon="-0.10937">
					<ele>122</ele>
					<time>0001-01-01T00:00:00Z</time>
				</trkpt>
				<trkpt lat="51.97892" lon="-0.10939">
					<ele>122</ele>
					<time>0001-01-01T00:00:00Z</time>
				</trkpt>
				<trkpt lat="51.97800" lon="-0.10857">
					<ele>119</ele>
					<time>0001-01-01T00:00:00Z</time>
				</trkpt>
				<trkpt lat="51.97587" lon="-0.10629">
					<ele>112</ele>
					<time>0001-01-01T00:00:00Z</time>
				</trkpt>
				<trkpt lat="51.97561" lon="-0.10604">
					<ele>111</ele>
					<time>0001-01-01T00:00:00Z</time>
				</trkpt>
				<trkpt lat="51.97441" lon="-0.10563">
					<ele>111</ele>
					<time>0001-01-01T00:00:00Z</time>
				</trkpt>
				<trkpt lat="51.97290" lon="-0.10494">
					<ele>111</ele>
					<time>0001-01-01T00:00:00Z</time>
				</trkpt>
				<trkpt lat="51.97056" lon="-0.10506">
					<ele>113</ele>
					<time>0001-01-01T00:00:00Z</time>
				</trkpt>
				<trkpt lat="51.96888" lon="-0.10497">
					<ele>107</ele>
					<time>0001-01-01T00:00:00Z</time>
				</trkpt>
				<trkpt lat="51.96765" lon="-0.10494">
					<ele>104</ele>
					<time>0001-01-01T00:00:00Z</time>
				</trkpt>
				<trkpt lat="51.96613" lon="-0.10539">
					<ele>102</ele>
					<time>0001-01-01T00:00:00Z</time>
				</trkpt>
				<trkpt lat="51.96466" lon="-0.10535">
					<ele>100</ele>
					<time>0001-01-01T00:00:00Z</time>
				</trkpt>
				<trkpt lat="51.96407" lon="-0.10511">
					<ele>100</ele>
					<time>0001-01-01T00:00:00Z</time>
				</trkpt>
				<trkpt lat="51.96321" lon="-0.10542">
					<ele>103</ele>
					<time>0001-01-01T00:00:00Z</time>
				</trkpt>
				<trkpt lat="51.96242" lon="-0.10612">
					<ele>109</ele>
					<time>0001-01-01T00:00:00Z</time>
				</trkpt>
				<trkpt lat="51.96189" lon="-0.10656">
					<ele>113</ele>
					<time>0001-01-01T00:00:00Z</time>
				</trkpt>
				<trkpt lat="51.96125" lon="-0.10708">
					<ele>116</ele>
					<time>0001-01-01T00:00:00Z</time>
				</trkpt>
				<trkpt lat="51.96056" lon="-0.10740">
					<ele>119</ele>
					<time>0001-01-01T00:00:00Z</time>
				</trkpt>
				<trkpt lat="51.95963" lon="-0.10770">
					<ele>121</ele>
					<time>0001-01-01T00:00:00Z</time>
				</trkpt>
				<trkpt lat="51.95928" lon="-0.10785">
					<ele>121</ele>
					<time>0001-01-01T00:00:00Z</time>
				</trkpt>
				<trkpt lat="51.95907" lon="-0.10803">
					<ele>121</ele>
					<time>0001-01-01T00:00:00Z</time>
				</trkpt>
				<trkpt lat="51.95877" lon="-0.10809">
					<ele>121</ele>
					<time>0001-01-01T00:00:00Z</time>
				</trkpt>
				<trkpt lat="51.95707" lon="-0.10738">
					<ele>117</ele>
					<time>0001-01-01T00:00:00Z</time>
				</trkpt>
				<trkpt lat="51.95607" lon="-0.10715">
					<ele>117</ele>
					<time>0001-01-01T00:00:00Z</time>
				</trkpt>
				<trkpt lat="51.95595" lon="-0.10711">
					<ele>117</ele>
					<time>0001-01-01T00:00:00Z</time>
				</trkpt>
				<trkpt lat="51.95506" lon="-0.10729">
					<ele>112</ele>
					<time>0001-01-01T00:00:00Z</time>
				</trkpt>
				<trkpt lat="51.95371" lon="-0.10708">
					<ele>103</ele>
					<time>0001-01-01T00:00:00Z</time>
				</trkpt>
				<trkpt lat="51.95241" lon="-0.10706">
					<ele>96</ele>
					<time>0001-01-01T00:00:00Z</time>
				</trkpt>
				<trkpt lat="51.95043" lon="-0.10663">
					<ele>89</ele>
					<time>0001-01-01T00:00:00Z</time>
				</trkpt>
				<trkpt lat="51.94908" lon="-0.10633">
					<ele>88</ele>
					<time>0001-01-01T00:00:00Z</time>
				</trkpt>
				<trkpt lat="51.94782" lon="-0.10682">
					<ele>89</ele>
					<time>0001-01-01T00:00:00Z</time>
				</trkpt>
				<trkpt lat="51.94699" lon="-0.10725">
					<ele>90</ele>
					<time>0001-01-01T00:00:00Z</time>
				</trkpt>
				<trkpt lat="51.94615" lon="-0.10739">
					<ele>96</ele>
					<time>0001-01-01T00:00:00Z</time>
				</trkpt>
				<trkpt lat="51.94528" lon="-0.10744">
					<ele>89</ele>
					<time>0001-01-01T00:00:00Z</time>
				</trkpt>
				<trkpt lat="51.94427" lon="-0.10744">
					<ele>87</ele>
					<time>0001-01-01T00:00:00Z</time>
				</trkpt>
				<trkpt lat="51.94339" lon="-0.10833">
					<ele>90</ele>
					<time>0001-01-01T00:00:00Z</time>
				</trkpt>
				<trkpt lat="51.94267" lon="-0.10947">
					<ele>95</ele>
					<time>0001-01-01T00:00:00Z</time>
				</trkpt>
				<trkpt lat="51.94191" lon="-0.11025">
					<ele>97</ele>
					<time>0001-01-01T00:00:00Z</time>
				</trkpt>
				<trkpt lat="51.94088" lon="-0.11173">
					<ele>95</ele>
					<time>0001-01-01T00:00:00Z</time>
				</trkpt>
				<trkpt lat="51.94036" lon="-0.11256">
					<ele>92</ele>
					<time>0001-01-01T00:00:00Z</time>
				</trkpt>
				<trkpt lat="51.93907" lon="-0.11362">
					<ele>90</ele>
					<time>0001-01-01T00:00:00Z</time>
				</trkpt>
				<trkpt lat="51.93752" lon="-0.11523">
					<ele>84</ele>
					<time>0001-01-01T00:00:00Z</time>
				</trkpt>
				<trkpt lat="51.93627" lon="-0.11657">
					<ele>81</ele>
					<time>0001-01-01T00:00:00Z</time>
				</trkpt>
				<trkpt lat="51.93603" lon="-0.11684">
					<ele>81</ele>
					<time>0001-01-01T00:00:00Z</time>
				</trkpt>
				<trkpt lat="51.93494" lon="-0.11739">
					<ele>84</ele>
					<time>0001-01-01T00:00:00Z</time>
				</trkpt>
				<trkpt lat="51.93374" lon="-0.11806">
					<ele>82</ele>
					<time>0001-01-01T00:00:00Z</time>
				</trkpt>
				<trkpt lat="51.93258" lon="-0.11927">
					<ele>81</ele>
					<time>0001-01-01T00:00:00Z</time>
				</trkpt>
				<trkpt lat="51.93117" lon="-0.12039">
					<ele>82</ele>
					<time>0001-01-01T00:00:00Z</time>
				</trkpt>
				<trkpt lat="51.93032" lon="-0.12161">
					<ele>86</ele>
					<time>0001-01-01T00:00:00Z</time>
				</trkpt>
				<trkpt lat="51.92943" lon="-0.12282">
					<ele>90</ele>
					<time>0001-01-01T00:00:00Z</time>
				</trkpt>
				<trkpt lat="51.92933" lon="-0.12294">
					<ele>90</ele>
					<time>0001-01-01T00:00:00Z</time>
				</trkpt>
				<trkpt lat="51.92920" lon="-0.12302">
					<ele>90</ele>
					<time>0001-01-01T00:00:00Z</time>
				</trkpt>
				<trkpt lat="51.92907" lon="-0.12321">
					<ele>89</ele>
					<time>0001-01-01T00:00:00Z</time>
				</trkpt>
				<trkpt lat="51.92826" lon="-0.12365">
					<ele>91</ele>
					<time>0001-01-01T00:00:00Z</time>
				</trkpt>
				<trkpt lat="51.92722" lon="-0.12437">
					<ele>91</ele>
					<time>0001-01-01T00:00:00Z</time>
				</trkpt>
				<trkpt lat="51.92639" lon="-0.12464">
					<ele>84</ele>
					<time>0001-01-01T00:00:00Z</time>
				</trkpt>
				<trkpt lat="51.92495" lon="-0.12418">
					<ele>83</ele>
					<time>0001-01-01T00:00:00Z</time>
				</trkpt>
				<trkpt lat="51.92464" lon="-0.12414">
					<ele>83</ele>
					<time>0001-01-01T00:00:00Z</time>
				</trkpt>
				<trkpt lat="51.92363" lon="-0.12451">
					<ele>83</ele>
					<time>0001-01-01T00:00:00Z</time>
				</trkpt>
				<trkpt lat="51.92324" lon="-0.12472">
					<ele>82</ele>
					<time>0001-01-01T00:00:00Z</time>
				</trkpt>
				<trkpt lat="51.92299" lon="-0.12509">
					<ele>83</ele>
					<time>0001-01-01T00:00:00Z</time>
				</trkpt>
				<trkpt lat="51.92285" lon="-0.12539">
					<ele>83</ele>
					<time>0001-01-01T00:00:00Z</time>
				</trkpt>
				<trkpt lat="51.92249" lon="-0.12572">
					<ele>81</ele>
					<time>0001-01-01T00:00:00Z</time>
				</trkpt>
				<trkpt lat="51.92162" lon="-0.12628">
					<ele>82</ele>
					<time>0001-01-01T00:00:00Z</time>
				</trkpt>
				<trkpt lat="51.92056" lon="-0.12697">
					<ele>83</ele>
					<time>0001-01-01T00:00:00Z</time>
				</trkpt>
				<trkpt lat="51.91898" lon="-0.12754">
					<ele>79</ele>
					<time>0001-01-01T00:00:00Z</time>
				</trkpt>
				<trkpt lat="51.91767" lon="-0.12812">
					<ele>76</ele>
					<time>0001-01-01T00:00:00Z</time>
				</trkpt>
				<trkpt lat="51.91698" lon="-0.12854">
					<ele>74</ele>
					<time>0001-01-01T00:00:00Z</time>
				</trkpt>
				<trkpt lat="51.91609" lon="-0.12884">
					<ele>76</ele>
					<time>0001-01-01T00:00:00Z</time>
				</trkpt>
				<trkpt lat="51.91497" lon="-0.12957">
					<ele>74</ele>
					<time>0001-01-01T00:00:00Z</time>
				</trkpt>
				<trkpt lat="51.91374" lon="-0.13039">
					<ele>71</ele>
					<time>0001-01-01T00:00:00Z</time>
				</trkpt>
				<trkpt lat="51.91290" lon="-0.13191">
					<ele>72</ele>
					<time>0001-01-01T00:00:00Z</time>
				</trkpt>
				<trkpt lat="51.91236" lon="-0.13216">
					<ele>73</ele>
					<time>0001-01-01T00:00:00Z</time>
				</trkpt>
				<trkpt lat="51.91185" lon="-0.13237">
					<ele>74</ele>
					<time>0001-01-01T00:00:00Z</time>
				</trkpt>
				<trkpt lat="51.91092" lon="-0.13373">
					<ele>78</ele>
					<time>0001-01-01T00:00:00Z</time>
				</trkpt>
				<trkpt lat="51.90989" lon="-0.13450">
					<ele>78</ele>
					<time>0001-01-01T00:00:00Z</time>
				</trkpt>
				<trkpt lat="51.90852" lon="-0.13471">
					<ele>81</ele>
					<time>0001-01-01T00:00:00Z</time>
				</trkpt>
				<trkpt lat="51.90846" lon="-0.13471">
					<ele>81</ele>
					<time>0001-01-01T00:00:00Z</time>
				</trkpt>
				<trkpt lat="51.90745" lon="-0.13399">
					<ele>79</ele>
					<time>0001-01-01T00:00:00Z</time>
				</trkpt>
				<trkpt lat="51.90687" lon="-0.13379">
					<ele>81</ele>
					<time>0001-01-01T00:00:00Z</time>
				</trkpt>
				<trkpt lat="51.90593" lon="-0.13364">
					<ele>78</ele>
					<time>0001-01-01T00:00:00Z</time>
				</trkpt>
				<trkpt lat="51.90489" lon="-0.13352">
					<ele>78</ele>
					<time>0001-01-01T00:00:00Z</time>
				</trkpt>
				<trkpt lat="51.90482" lon="-0.13352">
					<ele>78</ele>
					<time>0001-01-01T00:00:00Z</time>
				</trkpt>
				<trkpt lat="51.90400" lon="-0.13297">
					<ele>79</ele>
					<time>0001-01-01T00:00:00Z</time>
				</trkpt>
				<trkpt lat="51.90396" lon="-0.13293">
					<ele>79</ele>
					<time>0001-01-01T00:00:00Z</time>
				</trkpt>
				<trkpt lat="51.90370" lon="-0.13249">
					<ele>79</ele>
					<time>0001-01-01T00:00:00Z</time>
				</trkpt>
				<trkpt lat="51.90304" lon="-0.13161">
					<ele>84</ele>
					<time>0001-01-01T00:00:00Z</time>
				</trkpt>
				<trkpt lat="51.90245" lon="-0.13048">
					<ele>90</ele>
					<time>0001-01-01T00:00:00Z</time>
				</trkpt>
				<trkpt lat="51.90167" lon="-0.12837">
					<ele>102</ele>
					<time>0001-01-01T00:00:00Z</time>
				</trkpt>
				<trkpt lat="51.90127" lon="-0.12765">
					<ele>103</ele>
					<time>0001-01-01T00:00:00Z</time>
				</trkpt>
				<trkpt lat="51.90097" lon="-0.12697">
					<ele>105</ele>
					<time>0001-01-01T00:00:00Z</time>
				</trkpt>
				<trkpt lat="51.90053" lon="-0.12529">
					<ele>108</ele>
					<time>0001-01-01T00:00:00Z</time>
				</trkpt>
				<trkpt lat="51.90034" lon="-0.12462">
					<ele>109</ele>
					<time>0001-01-01T00:00:00Z</time>
				</trkpt>
				<trkpt lat="51.90022" lon="-0.12318">
					<ele>111</ele>
					<time>0001-01-01T00:00:00Z</time>
				</trkpt>
				<trkpt lat="51.90016" lon="-0.12272">
					<ele>111</ele>
					<time>0001-01-01T00:00:00Z</time>
				</trkpt>
				<trkpt lat="51.90044" lon="-0.12140">
					<ele>111</ele>
					<time>0001-01-01T00:00:00Z</time>
				</trkpt>
				<trkpt lat="51.90062" lon="-0.12088">
					<ele>111</ele>
					<time>0001-01-01T00:00:00Z</time>
				</trkpt>
				<trkpt lat="51.90073" lon="-0.12044">
					<ele>112</ele>
					<time>0001-01-01T00:00:00Z</time>
				</trkpt>
				<trkpt lat="51.90094" lon="-0.11998">
					<ele>113</ele>
					<time>0001-01-01T00:00:00Z</time>
				</trkpt>
				<trkpt lat="51.90104" lon="-0.11967">
					<ele>113</ele>
					<time>0001-01-01T00:00:00Z</time>
				</trkpt>
				<trkpt lat="51.90112" lon="-0.11829">
					<ele>113</ele>
					<time>0001-01-01T00:00:00Z</time>
				</trkpt>
				<trkpt lat="51.90124" lon="-0.11787">
					<ele>113</ele>
					<time>0001-01-01T00:00:00Z</time>
				</trkpt>
				<trkpt lat="51.90152" lon="-0.11725">
					<ele>114</ele>
					<time>0001-01-01T00:00:00Z</time>
				</trkpt>
				<trkpt lat="51.90178" lon="-0.11563">
					<ele>116</ele>
					<time>0001-01-01T00:00:00Z</time>
				</trkpt>
				<trkpt lat="51.90173" lon="-0.11503">
					<ele>116</ele>
					<time>0001-01-01T00:00:00Z</time>
				</trkpt>
				<trkpt lat="51.90168" lon="-0.11483">
					<ele>116</ele>
					<time>0001-01-01T00:00:00Z</time>
				</trkpt>
				<trkpt lat="51.90149" lon="-0.11452">
					<ele>117</ele>
					<time>0001-01-01T00:00:00Z</time>
				</trkpt>
				<trkpt lat="51.90042" lon="-0.11378">
					<ele>116</ele>
					<time>0001-01-01T00:00:00Z</time>
				</trkpt>
				<trkpt lat="51.89936" lon="-0.11318">
					<ele>117</ele>
					<time>0001-01-01T00:00:00Z</time>
				</trkpt>
				<trkpt lat="51.89910" lon="-0.11323">
					<ele>118</ele>
					<time>0001-01-01T00:00:00Z</time>
				</trkpt>
				<trkpt lat="51.89788" lon="-0.11372">
					<ele>114</ele>
					<time>0001-01-01T00:00:00Z</time>
				</trkpt>
				<trkpt lat="51.89698" lon="-0.11386">
					<ele>113</ele>
					<time>0001-01-01T00:00:00Z</time>
				</trkpt>
				<trkpt lat="51.89663" lon="-0.11412">
					<ele>112</ele>
					<time>0001-01-01T00:00:00Z</time>
				</trkpt>
				<trkpt lat="51.89601" lon="-0.11383">
					<ele>111</ele>
					<time>0001-01-01T00:00:00Z</time>
				</trkpt>
				<trkpt lat="51.89515" lon="-0.11222">
					<ele>110</ele>
					<time>0001-01-01T00:00:00Z</time>
				</trkpt>
				<trkpt lat="51.89501" lon="-0.11079">
					<ele>107</ele>
					<time>0001-01-01T00:00:00Z</time>
				</trkpt>
				<trkpt lat="51.89497" lon="-0.10816">
					<ele>101</ele>
					<time>0001-01-01T00:00:00Z</time>
				</trkpt>
				<trkpt lat="51.89500" lon="-0.10749">
					<ele>101</ele>
					<time>0001-01-01T00:00:00Z</time>
				</trkpt>
				<trkpt lat="51.89496" lon="-0.10622">
					<ele>105</ele>
					<time>0001-01-01T00:00:00Z</time>
				</trkpt>
				<trkpt lat="51.89491" lon="-0.10591">
					<ele>107</ele>
					<time>0001-01-01T00:00:00Z</time>
				</trkpt>
				<trkpt lat="51.89451" lon="-0.10486">
					<ele>107</ele>
					<time>0001-01-01T00:00:00Z</time>
				</trkpt>
				<trkpt lat="51.89367" lon="-0.10402">
					<ele>113</ele>
					<time>0001-01-01T00:00:00Z</time>
				</trkpt>
				<trkpt lat="51.89225" lon="-0.10318">
					<ele>112</ele>
					<time>0001-01-01T00:00:00Z</time>
				</trkpt>
				<trkpt lat="51.89114" lon="-0.10196">
					<ele>114</ele>
					<time>0001-01-01T00:00:00Z</time>
				</trkpt>
				<trkpt lat="51.88999" lon="-0.10082">
					<ele>111</ele>
					<time>0001-01-01T00:00:00Z</time>
				</trkpt>
				<trkpt lat="51.88880" lon="-0.10050">
					<ele>111</ele>
					<time>0001-01-01T00:00:00Z</time>
				</trkpt>
				<trkpt lat="51.88785" lon="-0.10024">
					<ele>115</ele>
					<time>0001-01-01T00:00:00Z</time>
				</trkpt>
				<trkpt lat="51.88766" lon="-0.10018">
					<ele>116</ele>
					<time>0001-01-01T00:00:00Z</time>
				</trkpt>
				<trkpt lat="51.88741" lon="-0.10007">
					<ele>116</ele>
					<time>0001-01-01T00:00:00Z</time>
				</trkpt>
				<trkpt lat="51.88553" lon="-0.10008">
					<ele>125</ele>
					<time>0001-01-01T00:00:00Z</time>
				</trkpt>
				<trkpt lat="51.88455" lon="-0.10023">
					<ele>127</ele>
					<time>0001-01-01T00:00:00Z</time>
				</trkpt>
				<trkpt lat="51.88417" lon="-0.10023">
					<ele>126</ele>
					<time>0001-01-01T00:00:00Z</time>
				</trkpt>
				<trkpt lat="51.88390" lon="-0.10012">
					<ele>125</ele>
					<time>0001-01-01T00:00:00Z</time>
				</trkpt>
				<trkpt lat="51.88253" lon="-0.09910">
					<ele>124</ele>
					<time>0001-01-01T00:00:00Z</time>
				</trkpt>
				<trkpt lat="51.88160" lon="-0.09821">
					<ele>122</ele>
					<time>0001-01-01T00:00:00Z</time>
				</trkpt>
				<trkpt lat="51.88159" lon="-0.09771">
					<ele>123</ele>
					<time>0001-01-01T00:00:00Z</time>
				</trkpt>
				<trkpt lat="51.88212" lon="-0.09644">
					<ele>118</ele>
					<time>0001-01-01T00:00:00Z</time>
				</trkpt>
				<trkpt lat="51.88224" lon="-0.09599">
					<ele>117</ele>
					<time>0001-01-01T00:00:00Z</time>
				</trkpt>
				<trkpt lat="51.88224" lon="-0.09537">
					<ele>118</ele>
					<time>0001-01-01T00:00:00Z</time>
				</trkpt>
				<trkpt lat="51.88185" lon="-0.09429">
					<ele>118</ele>
					<time>0001-01-01T00:00:00Z</time>
				</trkpt>
				<trkpt lat="51.88050" lon="-0.09204">
					<ele>116</ele>
					<time>0001-01-01T00:00:00Z</time>
				</trkpt>
				<trkpt lat="51.88020" lon="-0.09165">
					<ele>115</ele>
					<time>0001-01-01T00:00:00Z</time>
				</trkpt>
				<trkpt lat="51.87998" lon="-0.09143">
					<ele>115</ele>
					<time>0001-01-01T00:00:00Z</time>
				</trkpt>
				<trkpt lat="51.87912" lon="-0.09104">
					<ele>115</ele>
					<time>0001-01-01T00:00:00Z</time>
				</trkpt>
				<trkpt lat="51.87834" lon="-0.09046">
					<ele>114</ele>
					<time>0001-01-01T00:00:00Z</time>
				</trkpt>
				<trkpt lat="51.87814" lon="-0.09021">
					<ele>114</ele>
					<time>0001-01-01T00:00:00Z</time>
				</trkpt>
				<trkpt lat="51.87757" lon="-0.08950">
					<ele>112</ele>
					<time>0001-01-01T00:00:00Z</time>
				</trkpt>
				<trkpt lat="51.87660" lon="-0.08888">
					<ele>111</ele>
					<time>0001-01-01T00:00:00Z</time>
				</trkpt>
				<trkpt lat="51.87543" lon="-0.08783">
					<ele>108</ele>
					<time>0001-01-01T00:00:00Z</time>
				</trkpt>
				<trkpt lat="51.87402" lon="-0.08757">
					<ele>107</ele>
					<time>0001-01-01T00:00:00Z</time>
				</trkpt>
				<trkpt lat="51.87261" lon="-0.08644">
					<ele>105</ele>
					<time>0001-01-01T00:00:00Z</time>
				</trkpt>
				<trkpt lat="51.87166" lon="-0.08533">
					<ele>103</ele>
					<time>0001-01-01T00:00:00Z</time>
				</trkpt>
				<trkpt lat="51.87054" lon="-0.08460">
					<ele>100</ele>
					<time>0001-01-01T00:00:00Z</time>
				</trkpt>
				<trkpt lat="51.86886" lon="-0.08468">
					<ele>93</ele>
					<time>0001-01-01T00:00:00Z</time>
				</trkpt>
				<trkpt lat="51.86743" lon="-0.08479">
					<ele>92</ele>
					<time>0001-01-01T00:00:00Z</time>
				</trkpt>
				<trkpt lat="51.86579" lon="-0.08510">
					<ele>89</ele>
					<time>0001-01-01T00:00:00Z</time>
				</trkpt>
				<trkpt lat="51.86498" lon="-0.08517">
					<ele>93</ele>
					<time>0001-01-01T00:00:00Z</time>
				</trkpt>
				<trkpt lat="51.86364" lon="-0.08561">
					<ele>102</ele>
					<time>0001-01-01T00:00:00Z</time>
				</trkpt>
				<trkpt lat="51.86222" lon="-0.08582">
					<ele>103</ele>
					<time>0001-01-01T00:00:00Z</time>
				</trkpt>
				<trkpt lat="51.86118" lon="-0.08607">
					<ele>107</ele>
					<time>0001-01-01T00:00:00Z</time>
				</trkpt>
				<trkpt lat="51.85992" lon="-0.08637">
					<ele>102</ele>
					<time>0001-01-01T00:00:00Z</time>
				</trkpt>
				<trkpt lat="51.85867" lon="-0.08652">
					<ele>100</ele>
					<time>0001-01-01T00:00:00Z</time>
				</trkpt>
				<trkpt lat="51.85707" lon="-0.08603">
					<ele>99</ele>
					<time>0001-01-01T00:00:00Z</time>
				</trkpt>
				<trkpt lat="51.85611" lon="-0.08568">
					<ele>99</ele>
					<time>0001-01-01T00:00:00Z</time>
				</trkpt>
				<trkpt lat="51.85571" lon="-0.08405">
					<ele>99</ele>
					<time>0001-01-01T00:00:00Z</time>
				</trkpt>
				<trkpt lat="51.85512" lon="-0.08183">
					<ele>95</ele>
					<time>0001-01-01T00:00:00Z</time>
				</trkpt>
				<trkpt lat="51.85482" lon="-0.08097">
					<ele>91</ele>
					<time>0001-01-01T00:00:00Z</time>
				</trkpt>
				<trkpt lat="51.85462" lon="-0.08063">
					<ele>91</ele>
					<time>0001-01-01T00:00:00Z</time>
				</trkpt>
				<trkpt lat="51.85293" lon="-0.07844">
					<ele>87</ele>
					<time>0001-01-01T00:00:00Z</time>
				</trkpt>
				<trkpt lat="51.85063" lon="-0.07542">
					<ele>79</ele>
					<time>0001-01-01T00:00:00Z</time>
				</trkpt>
				<trkpt lat="51.84888" lon="-0.07337">
					<ele>77</ele>
					<time>0001-01-01T00:00:00Z</time>
				</trkpt>
				<trkpt lat="51.84779" lon="-0.07249">
					<ele>73</ele>
					<time>0001-01-01T00:00:00Z</time>
				</trkpt>
				<trkpt lat="51.84685" lon="-0.07183">
					<ele>74</ele>
					<time>0001-01-01T00:00:00Z</time>
				</trkpt>
				<trkpt lat="51.84634" lon="-0.07149">
					<ele>77</ele>
					<time>0001-01-01T00:00:00Z</time>
				</trkpt>
				<trkpt lat="51.84574" lon="-0.07132">
					<ele>81</ele>
					<time>0001-01-01T00:00:00Z</time>
				</trkpt>
				<trkpt lat="51.84518" lon="-0.07157">
					<ele>84</ele>
					<time>0001-01-01T00:00:00Z</time>
				</trkpt>
				<trkpt lat="51.84447" lon="-0.07242">
					<ele>87</ele>
					<time>0001-01-01T00:00:00Z</time>
				</trkpt>
				<trkpt lat="51.84414" lon="-0.07286">
					<ele>88</ele>
					<time>0001-01-01T00:00:00Z</time>
				</trkpt>
				<trkpt lat="51.84361" lon="-0.07466">
					<ele>90</ele>
					<time>0001-01-01T00:00:00Z</time>
				</trkpt>
				<trkpt lat="51.84285" lon="-0.07616">
					<ele>87</ele>
					<time>0001-01-01T00:00:00Z</time>
				</trkpt>
				<trkpt lat="51.84197" lon="-0.07798">
					<ele>84</ele>
					<time>0001-01-01T00:00:00Z</time>
				</trkpt>
				<trkpt lat="51.84097" lon="-0.08059">
					<ele>78</ele>
					<time>0001-01-01T00:00:00Z</time>
				</trkpt>
				<trkpt lat="51.84037" lon="-0.08210">
					<ele>74</ele>
					<time>0001-01-01T00:00:00Z</time>
				</trkpt>
				<trkpt lat="51.83993" lon="-0.08237">
					<ele>73</ele>
					<time>0001-01-01T00:00:00Z</time>
				</trkpt>
				<trkpt lat="51.83833" lon="-0.08252">
					<ele>69</ele>
					<time>0001-01-01T00:00:00Z</time>
				</trkpt>
				<trkpt lat="51.83720" lon="-0.08294">
					<ele>67</ele>
					<time>0001-01-01T00:00:00Z</time>
				</trkpt>
				<trkpt lat="51.83641" lon="-0.08301">
					<ele>66</ele>
					<time>0001-01-01T00:00:00Z</time>
				</trkpt>
				<trkpt lat="51.83606" lon="-0.08323">
					<ele>66</ele>
					<time>0001-01-01T00:00:00Z</time>
				</trkpt>
				<trkpt lat="51.83510" lon="-0.08380">
					<ele>67</ele>
					<time>0001-01-01T00:00:00Z</time>
				</trkpt>
				<trkpt lat="51.83425" lon="-0.08400">
					<ele>72</ele>
					<time>0001-01-01T00:00:00Z</time>
				</trkpt>
				<trkpt lat="51.83361" lon="-0.08468">
					<ele>70</ele>
					<time>0001-01-01T00:00:00Z</time>
				</trkpt>
				<trkpt lat="51.83256" lon="-0.08587">
					<ele>74</ele>
					<time>0001-01-01T00:00:00Z</time>
				</trkpt>
				<trkpt lat="51.83164" lon="-0.08627">
					<ele>76</ele>
					<time>0001-01-01T00:00:00Z</time>
				</trkpt>
				<trkpt lat="51.83030" lon="-0.08670">
					<ele>73</ele>
					<time>0001-01-01T00:00:00Z</time>
				</trkpt>
				<trkpt lat="51.82938" lon="-0.08759">
					<ele>68</ele>
					<time>0001-01-01T00:00:00Z</time>
				</trkpt>
				<trkpt lat="51.82831" lon="-0.08802">
					<ele>69</ele>
					<time>0001-01-01T00:00:00Z</time>
				</trkpt>
				<trkpt lat="51.82717" lon="-0.08840">
					<ele>73</ele>
					<time>0001-01-01T00:00:00Z</time>
				</trkpt>
				<trkpt lat="51.82584" lon="-0.08868">
					<ele>71</ele>
					<time>0001-01-01T00:00:00Z</time>
				</trkpt>
				<trkpt lat="51.82510" lon="-0.08869">
					<ele>69</ele>
					<time>0001-01-01T00:00:00Z</time>
				</trkpt>
				<trkpt lat="51.82477" lon="-0.08855">
					<ele>71</ele>
					<time>0001-01-01T00:00:00Z</time>
				</trkpt>
				<trkpt lat="51.82440" lon="-0.08860">
					<ele>72</ele>
					<time>0001-01-01T00:00:00Z</time>
				</trkpt>
				<trkpt lat="51.82203" lon="-0.08976">
					<ele>76</ele>
					<time>0001-01-01T00:00:00Z</time>
				</trkpt>
				<trkpt lat="51.81938" lon="-0.08913">
					<ele>74</ele>
					<time>0001-01-01T00:00:00Z</time>
				</trkpt>
				<trkpt lat="51.81799" lon="-0.08771">
					<ele>73</ele>
					<time>0001-01-01T00:00:00Z</time>
				</trkpt>
				<trkpt lat="51.81670" lon="-0.08613">
					<ele>73</ele>
					<time>0001-01-01T00:00:00Z</time>
				</trkpt>
				<trkpt lat="51.81560" lon="-0.08526">
					<ele>73</ele>
					<time>0001-01-01T00:00:00Z</time>
				</trkpt>
				<trkpt lat="51.81552" lon="-0.08522">
					<ele>73</ele>
					<time>0001-01-01T00:00:00Z</time>
				</trkpt>
				<trkpt lat="51.81517" lon="-0.08516">
					<ele>73</ele>
					<time>0001-01-01T00:00:00Z</time>
				</trkpt>
				<trkpt lat="51.81396" lon="-0.08565">
					<ele>75</ele>
					<time>0001-01-01T00:00:00Z</time>
				</trkpt>
				<trkpt lat="51.81390" lon="-0.08567">
					<ele>75</ele>
					<time>0001-01-01T00:00:00Z</time>
				</trkpt>
				<trkpt lat="51.81283" lon="-0.08482">
					<ele>72</ele>
					<time>0001-01-01T00:00:00Z</time>
				</trkpt>
				<trkpt lat="51.81144" lon="-0.08326">
					<ele>71</ele>
					<time>0001-01-01T00:00:00Z</time>
				</trkpt>
				<trkpt lat="51.81022" lon="-0.08217">
					<ele>69</ele>
					<time>0001-01-01T00:00:00Z</time>
				</trkpt>
				<trkpt lat="51.80980" lon="-0.08178">
					<ele>69</ele>
					<time>0001-01-01T00:00:00Z</time>
				</trkpt>
				<trkpt lat="51.80940" lon="-0.08153">
					<ele>69</ele>
					<time>0001-01-01T00:00:00Z</time>
				</trkpt>
				<trkpt lat="51.80928" lon="-0.08154">
					<ele>68</ele>
					<time>0001-01-01T00:00:00Z</time>
				</trkpt>
				<trkpt lat="51.80792" lon="-0.08101">
					<ele>65</ele>
					<time>0001-01-01T00:00:00Z</time>
				</trkpt>
				<trkpt lat="51.80702" lon="-0.08068">
					<ele>66</ele>
					<time>0001-01-01T00:00:00Z</time>
				</trkpt>
				<trkpt lat="51.80597" lon="-0.08110">
					<ele>68</ele>
					<time>0001-01-01T00:00:00Z</time>
				</trkpt>
				<trkpt lat="51.80476" lon="-0.08144">
					<ele>69</ele>
					<time>0001-01-01T00:00:00Z</time>
				</trkpt>
				<trkpt lat="51.80338" lon="-0.08195">
					<ele>70</ele>
					<time>0001-01-01T00:00:00Z</time>
				</trkpt>
				<trkpt lat="51.80171" lon="-0.08242">
					<ele>71</ele>
					<time>0001-01-01T00:00:00Z</time>
				</trkpt>
				<trkpt lat="51.80125" lon="-0.08215">
					<ele>70</ele>
					<time>0001-01-01T00:00:00Z</time>
				</trkpt>
				<trkpt lat="51.80101" lon="-0.08201">
					<ele>69</ele>
					<time>0001-01-01T00:00:00Z</time>
				</trkpt>
				<trkpt lat="51.80034" lon="-0.08208">
					<ele>65</ele>
					<time>0001-01-01T00:00:00Z</time>
				</trkpt>
				<trkpt lat="51.79917" lon="-0.08275">
					<ele>56</ele>
					<time>0001-01-01T00:00:00Z</time>
				</trkpt>
				<trkpt lat="51.79877" lon="-0.08299">
					<ele>53</ele>
					<time>0001-01-01T00:00:00Z</time>
				</trkpt>
				<trkpt lat="51.79840" lon="-0.08279">
					<ele>51</ele>
					<time>0001-01-01T00:00:00Z</time>
				</trkpt>
				<trkpt lat="51.79793" lon="-0.08156">
					<ele>50</ele>
					<time>0001-01-01T00:00:00Z</time>
				</trkpt>
				<trkpt lat="51.79766" lon="-0.08086">
					<ele>52</ele>
					<time>0001-01-01T00:00:00Z</time>
				</trkpt>
				<trkpt lat="51.79746" lon="-0.08071">
					<ele>52</ele>
					<time>0001-01-01T00:00:00Z</time>
				</trkpt>
				<trkpt lat="51.79711" lon="-0.08064">
					<ele>51</ele>
					<time>0001-01-01T00:00:00Z</time>
				</trkpt>
				<trkpt lat="51.79697" lon="-0.08047">
					<ele>50</ele>
					<time>0001-01-01T00:00:00Z</time>
				</trkpt>
				<trkpt lat="51.79660" lon="-0.07960">
					<ele>46</ele>
					<time>0001-01-01T00:00:00Z</time>
				</trkpt>
				<trkpt lat="51.79645" lon="-0.07941">
					<ele>46</ele>
					<time>0001-01-01T00:00:00Z</time>
				</trkpt>
				<trkpt lat="51.79594" lon="-0.07893">
					<ele>46</ele>
					<time>0001-01-01T00:00:00Z</time>
				</trkpt>
				<trkpt lat="51.79520" lon="-0.07843">
					<ele>48</ele>
					<time>0001-01-01T00:00:00Z</time>
				</trkpt>
				<trkpt lat="51.79506" lon="-0.07849">
					<ele>49</ele>
					<time>0001-01-01T00:00:00Z</time>
				</trkpt>
				<trkpt lat="51.79478" lon="-0.07833">
					<ele>48</ele>
					<time>0001-01-01T00:00:00Z</time>
				</trkpt>
				<trkpt lat="51.79471" lon="-0.07815">
					<ele>48</ele>
					<time>0001-01-01T00:00:00Z</time>
				</trkpt>
				<trkpt lat="51.79445" lon="-0.07796">
					<ele>48</ele>
					<time>0001-01-01T00:00:00Z</time>
				</trkpt>
				<trkpt lat="51.79383" lon="-0.07793">
					<ele>51</ele>
					<time>0001-01-01T00:00:00Z</time>
				</trkpt>
				<trkpt lat="51.79367" lon="-0.07805">
					<ele>51</ele>
					<time>0001-01-01T00:00:00Z</time>
				</trkpt>
				<trkpt lat="51.79347" lon="-0.07852">
					<ele>52</ele>
					<time>0001-01-01T00:00:00Z</time>
				</trkpt>
				<trkpt lat="51.79332" lon="-0.07935">
					<ele>52</ele>
					<time>0001-01-01T00:00:00Z</time>
				</trkpt>
				<trkpt lat="51.79290" lon="-0.07967">
					<ele>54</ele>
					<time>0001-01-01T00:00:00Z</time>
				</trkpt>
				<trkpt lat="51.79225" lon="-0.07965">
					<ele>61</ele>
					<time>0001-01-01T00:00:00Z</time>
				</trkpt>
				<trkpt lat="51.79156" lon="-0.07971">
					<ele>68</ele>
					<time>0001-01-01T00:00:00Z</time>
				</trkpt>
				<trkpt lat="51.79078" lon="-0.07979">
					<ele>68</ele>
					<time>0001-01-01T00:00:00Z</time>
				</trkpt>
				<trkpt lat="51.79054" lon="-0.07990">
					<ele>70</ele>
					<time>0001-01-01T00:00:00Z</time>
				</trkpt>
				<trkpt lat="51.79043" lon="-0.08003">
					<ele>70</ele>
					<time>0001-01-01T00:00:00Z</time>
				</trkpt>
				<trkpt lat="51.79033" lon="-0.08020">
					<ele>71</ele>
					<time>0001-01-01T00:00:00Z</time>
				</trkpt>
				<trkpt lat="51.78996" lon="-0.08176">
					<ele>67</ele>
					<time>0001-01-01T00:00:00Z</time>
				</trkpt>
				<trkpt lat="51.78940" lon="-0.08349">
					<ele>61</ele>
					<time>0001-01-01T00:00:00Z</time>
				</trkpt>
				<trkpt lat="51.78864" lon="-0.08531">
					<ele>50</ele>
					<time>0001-01-01T00:00:00Z</time>
				</trkpt>
				<trkpt lat="51.78860" lon="-0.08537">
					<ele>49</ele>
					<time>0001-01-01T00:00:00Z</time>
				</trkpt>
				<trkpt lat="51.78816" lon="-0.08562">
					<ele>48</ele>
					<time>0001-01-01T00:00:00Z</time>
				</trkpt>
				<trkpt lat="51.78724" lon="-0.08616">
					<ele>48</ele>
					<time>0001-01-01T00:00:00Z</time>
				</trkpt>
				<trkpt lat="51.78657" lon="-0.08648">
					<ele>47</ele>
					<time>0001-01-01T00:00:00Z</time>
				</trkpt>
				<trkpt lat="51.78637" lon="-0.08629">
					<ele>47</ele>
					<time>0001-01-01T00:00:00Z</time>
				</trkpt>
				<trkpt lat="51.78629" lon="-0.08620">
					<ele>47</ele>
					<time>0001-01-01T00:00:00Z</time>
				</trkpt>
				<trkpt lat="51.78554" lon="-0.08525">
					<ele>48</ele>
					<time>0001-01-01T00:00:00Z</time>
				</trkpt>
				<trkpt lat="51.78492" lon="-0.08447">
					<ele>50</ele>
					<time>0001-01-01T00:00:00Z</time>
				</trkpt>
				<trkpt lat="51.78381" lon="-0.08320">
					<ele>53</ele>
					<time>0001-01-01T00:00:00Z</time>
				</trkpt>
				<trkpt lat="51.78296" lon="-0.08206">
					<ele>48</ele>
					<time>0001-01-01T00:00:00Z</time>
				</trkpt>
				<trkpt lat="51.78010" lon="-0.08003">
					<ele>52</ele>
					<time>0001-01-01T00:00:00Z</time>
				</trkpt>
				<trkpt lat="51.77864" lon="-0.07939">
					<ele>59</ele>
					<time>0001-01-01T00:00:00Z</time>
				</trkpt>
				<trkpt lat="51.77734" lon="-0.07889">
					<ele>60</ele>
					<time>0001-01-01T00:00:00Z</time>
				</trkpt>
				<trkpt lat="51.77576" lon="-0.07800">
					<ele>65</ele>
					<time>0001-01-01T00:00:00Z</time>
				</trkpt>
				<trkpt lat="51.77509" lon="-0.07774">
					<ele>67</ele>
					<time>0001-01-01T00:00:00Z</time>
				</trkpt>
				<trkpt lat="51.77393" lon="-0.07801">
					<ele>71</ele>
					<time>0001-01-01T00:00:00Z</time>
				</trkpt>
				<trkpt lat="51.77297" lon="-0.07846">
					<ele>78</ele>
					<time>0001-01-01T00:00:00Z</time>
				</trkpt>
				<trkpt lat="51.77092" lon="-0.07928">
					<ele>85</ele>
					<time>0001-01-01T00:00:00Z</time>
				</trkpt>
				<trkpt lat="51.76957" lon="-0.07998">
					<ele>84</ele>
					<time>0001-01-01T00:00:00Z</time>
				</trkpt>
				<trkpt lat="51.76555" lon="-0.07981">
					<ele>83</ele>
					<time>0001-01-01T00:00:00Z</time>
				</trkpt>
				<trkpt lat="51.76472" lon="-0.07818">
					<ele>86</ele>
					<time>0001-01-01T00:00:00Z</time>
				</trkpt>
				<trkpt lat="51.76301" lon="-0.07776">
					<ele>93</ele>
					<time>0001-01-01T00:00:00Z</time>
				</trkpt>
				<trkpt lat="51.76181" lon="-0.07829">
					<ele>95</ele>
					<time>0001-01-01T00:00:00Z</time>
				</trkpt>
				<trkpt lat="51.76126" lon="-0.07885">
					<ele>97</ele>
					<time>0001-01-01T00:00:00Z</time>
				</trkpt>
				<trkpt lat="51.76029" lon="-0.07903">
					<ele>101</ele>
					<time>0001-01-01T00:00:00Z</time>
				</trkpt>
				<trkpt lat="51.75904" lon="-0.07935">
					<ele>102</ele>
					<time>0001-01-01T00:00:00Z</time>
				</trkpt>
				<trkpt lat="51.75804" lon="-0.07982">
					<ele>102</ele>
					<time>0001-01-01T00:00:00Z</time>
				</trkpt>
				<trkpt lat="51.75685" lon="-0.08039">
					<ele>108</ele>
					<time>0001-01-01T00:00:00Z</time>
				</trkpt>
				<trkpt lat="51.75666" lon="-0.08055">
					<ele>108</ele>
					<time>0001-01-01T00:00:00Z</time>
				</trkpt>
				<trkpt lat="51.75602" lon="-0.08134">
					<ele>110</ele>
					<time>0001-01-01T00:00:00Z</time>
				</trkpt>
				<trkpt lat="51.75592" lon="-0.08168">
					<ele>110</ele>
					<time>0001-01-01T00:00:00Z</time>
				</trkpt>
				<trkpt lat="51.75539" lon="-0.08349">
					<ele>111</ele>
					<time>0001-01-01T00:00:00Z</time>
				</trkpt>
				<trkpt lat="51.75494" lon="-0.08553">
					<ele>110</ele>
					<time>0001-01-01T00:00:00Z</time>
				</trkpt>
				<trkpt lat="51.75472" lon="-0.08633">
					<ele>109</ele>
					<time>0001-01-01T00:00:00Z</time>
				</trkpt>
				<trkpt lat="51.75451" lon="-0.08670">
					<ele>109</ele>
					<time>0001-01-01T00:00:00Z</time>
				</trkpt>
				<trkpt lat="51.75454" lon="-0.08670">
					<ele>109</ele>
					<time>0001-01-01T00:00:00Z</time>
				</trkpt>
				<trkpt lat="51.75465" lon="-0.08655">
					<ele>111</ele>
					<time>0001-01-01T00:00:00Z</time>
				</trkpt>
				<trkpt lat="51.75475" lon="-0.08633">
					<ele>110</ele>
					<time>0001-01-01T00:00:00Z</time>
				</trkpt>
				<trkpt lat="51.75480" lon="-0.08619">
					<ele>110</ele>
					<time>0001-01-01T00:00:00Z</time>
				</trkpt>
				<trkpt lat="51.75492" lon="-0.08572">
					<ele>109</ele>
					<time>0001-01-01T00:00:00Z</time>
				</trkpt>
				<trkpt lat="51.75469" lon="-0.08551">
					<ele>109</ele>
					<time>0001-01-01T00:00:00Z</time>
				</trkpt>
				<trkpt lat="51.75323" lon="-0.08620">
					<ele>114</ele>
					<time>0001-01-01T00:00:00Z</time>
				</trkpt>
				<trkpt lat="51.75196" lon="-0.08643">
					<ele>113</ele>
					<time>0001-01-01T00:00:00Z</time>
				</trkpt>
				<trkpt lat="51.75053" lon="-0.08633">
					<ele>112</ele>
					<time>0001-01-01T00:00:00Z</time>
				</trkpt>
				<trkpt lat="51.74974" lon="-0.08616">
					<ele>110</ele>
					<time>0001-01-01T00:00:00Z</time>
				</trkpt>
				<trkpt lat="51.74934" lon="-0.08588">
					<ele>109</ele>
					<time>0001-01-01T00:00:00Z</time>
				</trkpt>
				<trkpt lat="51.74902" lon="-0.08582">
					<ele>107</ele>
					<time>0001-01-01T00:00:00Z</time>
				</trkpt>
				<trkpt lat="51.74843" lon="-0.08577">
					<ele>106</ele>
					<time>0001-01-01T00:00:00Z</time>
				</trkpt>
				<trkpt lat="51.74814" lon="-0.08551">
					<ele>107</ele>
					<time>0001-01-01T00:00:00Z</time>
				</trkpt>
				<trkpt lat="51.74773" lon="-0.08465">
					<ele>107</ele>
					<time>0001-01-01T00:00:00Z</time>
				</trkpt>
				<trkpt lat="51.74545" lon="-0.08209">
					<ele>108</ele>
					<time>0001-01-01T00:00:00Z</time>
				</trkpt>
				<trkpt lat="51.74545" lon="-0.08156">
					<ele>108</ele>
					<time>0001-01-01T00:00:00Z</time>
				</trkpt>
				<trkpt lat="51.74551" lon="-0.08074">
					<ele>107</ele>
					<time>0001-01-01T00:00:00Z</time>
				</trkpt>
				<trkpt lat="51.74538" lon="-0.08028">
					<ele>109</ele>
					<time>0001-01-01T00:00:00Z</time>
				</trkpt>
				<trkpt lat="51.74497" lon="-0.07954">
					<ele>110</ele>
					<time>0001-01-01T00:00:00Z</time>
				</trkpt>
				<trkpt lat="51.74490" lon="-0.07913">
					<ele>110</ele>
					<time>0001-01-01T00:00:00Z</time>
				</trkpt>
				<trkpt lat="51.74499" lon="-0.07808">
					<ele>108</ele>
					<time>0001-01-01T00:00:00Z</time>
				</trkpt>
				<trkpt lat="51.74477" lon="-0.07784">
					<ele>108</ele>
					<time>0001-01-01T00:00:00Z</time>
				</trkpt>
				<trkpt lat="51.74408" lon="-0.07806">
					<ele>110</ele>
					<time>0001-01-01T00:00:00Z</time>
				</trkpt>
				<trkpt lat="51.74345" lon="-0.07796">
					<ele>110</ele>
					<time>0001-01-01T00:00:00Z</time>
				</trkpt>
				<trkpt lat="51.74324" lon="-0.07777">
					<ele>109</ele>
					<time>0001-01-01T00:00:00Z</time>
				</trkpt>
				<trkpt lat="51.74314" lon="-0.07762">
					<ele>109</ele>
					<time>0001-01-01T00:00:00Z</time>
				</trkpt>
				<trkpt lat="51.74290" lon="-0.07744">
					<ele>108</ele>
					<time>0001-01-01T00:00:00Z</time>
				</trkpt>
				<trkpt lat="51.74137" lon="-0.07713">
					<ele>106</ele>
					<time>0001-01-01T00:00:00Z</time>
				</trkpt>
				<trkpt lat="51.74132" lon="-0.07712">
					<ele>106</ele>
					<time>0001-01-01T00:00:00Z</time>
				</trkpt>
				<trkpt lat="51.74126" lon="-0.07633">
					<ele>104</ele>
					<time>0001-01-01T00:00:00Z</time>
				</trkpt>
				<trkpt lat="51.74128" lon="-0.07596">
					<ele>104</ele>
					<time>0001-01-01T00:00:00Z</time>
				</trkpt>
				<trkpt lat="51.74141" lon="-0.07151">
					<ele>106</ele>
					<time>0001-01-01T00:00:00Z</time>
				</trkpt>
				<trkpt lat="51.74175" lon="-0.06839">
					<ele>108</ele>
					<time>0001-01-01T00:00:00Z</time>
				</trkpt>
				<trkpt lat="51.73846" lon="-0.06765">
					<ele>96</ele>
					<time>0001-01-01T00:00:00Z</time>
				</trkpt>
				<trkpt lat="51.73742" lon="-0.06726">
					<ele>87</ele>
					<time>0001-01-01T00:00:00Z</time>
				</trkpt>
				<trkpt lat="51.73709" lon="-0.06725">
					<ele>82</ele>
					<time>0001-01-01T00:00:00Z</time>
				</trkpt>
				<trkpt lat="51.73691" lon="-0.06701">
					<ele>80</ele>
					<time>0001-01-01T00:00:00Z</time>
				</trkpt>
				<trkpt lat="51.73688" lon="-0.06530">
					<ele>74</ele>
					<time>0001-01-01T00:00:00Z</time>
				</trkpt>
				<trkpt lat="51.73689" lon="-0.06518">
					<ele>74</ele>
					<time>0001-01-01T00:00:00Z</time>
				</trkpt>
				<trkpt lat="51.73663" lon="-0.06227">
					<ele>67</ele>
					<time>0001-01-01T00:00:00Z</time>
				</trkpt>
				<trkpt lat="51.73646" lon="-0.06143">
					<ele>65</ele>
					<time>0001-01-01T00:00:00Z</time>
				</trkpt>
				<trkpt lat="51.73652" lon="-0.05893">
					<ele>60</ele>
					<time>0001-01-01T00:00:00Z</time>
				</trkpt>
				<trkpt lat="51.73658" lon="-0.05634">
					<ele>54</ele>
					<time>0001-01-01T00:00:00Z</time>
				</trkpt>
				<trkpt lat="51.73662" lon="-0.05466">
					<ele>53</ele>
					<time>0001-01-01T00:00:00Z</time>
				</trkpt>
				<trkpt lat="51.73644" lon="-0.05458">
					<ele>52</ele>
					<time>0001-01-01T00:00:00Z</time>
				</trkpt>
				<trkpt lat="51.73530" lon="-0.05586">
					<ele>50</ele>
					<time>0001-01-01T00:00:00Z</time>
				</trkpt>
				<trkpt lat="51.73415" lon="-0.05706">
					<ele>56</ele>
					<time>0001-01-01T00:00:00Z</time>
				</trkpt>
				<trkpt lat="51.73355" lon="-0.05742">
					<ele>60</ele>
					<time>0001-01-01T00:00:00Z</time>
				</trkpt>
				<trkpt lat="51.73297" lon="-0.05782">
					<ele>66</ele>
					<time>0001-01-01T00:00:00Z</time>
				</trkpt>
				<trkpt lat="51.73246" lon="-0.05831">
					<ele>68</ele>
					<time>0001-01-01T00:00:00Z</time>
				</trkpt>
				<trkpt lat="51.73214" lon="-0.05874">
					<ele>70</ele>
					<time>0001-01-01T00:00:00Z</time>
				</trkpt>
				<trkpt lat="51.73151" lon="-0.05906">
					<ele>82</ele>
					<time>0001-01-01T00:00:00Z</time>
				</trkpt>
				<trkpt lat="51.73048" lon="-0.05897">
					<ele>83</ele>
					<time>0001-01-01T00:00:00Z</time>
				</trkpt>
				<trkpt lat="51.72750" lon="-0.05862">
					<ele>81</ele>
					<time>0001-01-01T00:00:00Z</time>
				</trkpt>
				<trkpt lat="51.72604" lon="-0.05862">
					<ele>76</ele>
					<time>0001-01-01T00:00:00Z</time>
				</trkpt>
				<trkpt lat="51.72495" lon="-0.05861">
					<ele>74</ele>
					<time>0001-01-01T00:00:00Z</time>
				</trkpt>
				<trkpt lat="51.72443" lon="-0.05854">
					<ele>78</ele>
					<time>0001-01-01T00:00:00Z</time>
				</trkpt>
				<trkpt lat="51.72388" lon="-0.05856">
					<ele>84</ele>
					<time>0001-01-01T00:00:00Z</time>
				</trkpt>
				<trkpt lat="51.72312" lon="-0.05873">
					<ele>88</ele>
					<time>0001-01-01T00:00:00Z</time>
				</trkpt>
				<trkpt lat="51.72229" lon="-0.05899">
					<ele>88</ele>
					<time>0001-01-01T00:00:00Z</time>
				</trkpt>
				<trkpt lat="51.72121" lon="-0.05948">
					<ele>83</ele>
					<time>0001-01-01T00:00:00Z</time>
				</trkpt>
				<trkpt lat="51.72109" lon="-0.05952">
					<ele>82</ele>
					<time>0001-01-01T00:00:00Z</time>
				</trkpt>
				<trkpt lat="51.72097" lon="-0.05938">
					<ele>82</ele>
					<time>0001-01-01T00:00:00Z</time>
				</trkpt>
				<trkpt lat="51.72086" lon="-0.05929">
					<ele>82</ele>
					<time>0001-01-01T00:00:00Z</time>
				</trkpt>
				<trkpt lat="51.71928" lon="-0.05712">
					<ele>82</ele>
					<time>0001-01-01T00:00:00Z</time>
				</trkpt>
				<trkpt lat="51.71643" lon="-0.05374">
					<ele>75</ele>
					<time>0001-01-01T00:00:00Z</time>
				</trkpt>
				<trkpt lat="51.71519" lon="-0.05155">
					<ele>69</ele>
					<time>0001-01-01T00:00:00Z</time>
				</trkpt>
				<trkpt lat="51.71510" lon="-0.05128">
					<ele>68</ele>
					<time>0001-01-01T00:00:00Z</time>
				</trkpt>
				<trkpt lat="51.71487" lon="-0.05097">
					<ele>65</ele>
					<time>0001-01-01T00:00:00Z</time>
				</trkpt>
				<trkpt lat="51.71452" lon="-0.05074">
					<ele>62</ele>
					<time>0001-01-01T00:00:00Z</time>
				</trkpt>
				<trkpt lat="51.71343" lon="-0.05101">
					<ele>53</ele>
					<time>0001-01-01T00:00:00Z</time>
				</trkpt>
				<trkpt lat="51.71329" lon="-0.05096">
					<ele>53</ele>
					<time>0001-01-01T00:00:00Z</time>
				</trkpt>
				<trkpt lat="51.71298" lon="-0.05066">
					<ele>53</ele>
					<time>0001-01-01T00:00:00Z</time>
				</trkpt>
				<trkpt lat="51.71270" lon="-0.05039">
					<ele>51</ele>
					<time>0001-01-01T00:00:00Z</time>
				</trkpt>
				<trkpt lat="51.71170" lon="-0.05017">
					<ele>50</ele>
					<time>0001-01-01T00:00:00Z</time>
				</trkpt>
				<trkpt lat="51.71070" lon="-0.04961">
					<ele>45</ele>
					<time>0001-01-01T00:00:00Z</time>
				</trkpt>
				<trkpt lat="51.71012" lon="-0.04931">
					<ele>45</ele>
					<time>0001-01-01T00:00:00Z</time>
				</trkpt>
				<trkpt lat="51.70950" lon="-0.04936">
					<ele>44</ele>
					<time>0001-01-01T00:00:00Z</time>
				</trkpt>
				<trkpt lat="51.70923" lon="-0.04953">
					<ele>44</ele>
					<time>0001-01-01T00:00:00Z</time>
				</trkpt>
				<trkpt lat="51.70860" lon="-0.04974">
					<ele>43</ele>
					<time>0001-01-01T00:00:00Z</time>
				</trkpt>
				<trkpt lat="51.70847" lon="-0.04974">
					<ele>43</ele>
					<time>0001-01-01T00:00:00Z</time>
				</trkpt>
				<trkpt lat="51.70846" lon="-0.04976">
					<ele>44</ele>
					<time>0001-01-01T00:00:00Z</time>
				</trkpt>
				<trkpt lat="51.70838" lon="-0.04976">
					<ele>44</ele>
					<time>0001-01-01T00:00:00Z</time>
				</trkpt>
				<trkpt lat="51.70818" lon="-0.04975">
					<ele>44</ele>
					<time>0001-01-01T00:00:00Z</time>
				</trkpt>
				<trkpt lat="51.70814" lon="-0.04951">
					<ele>43</ele>
					<time>0001-01-01T00:00:00Z</time>
				</trkpt>
				<trkpt lat="51.70813" lon="-0.04961">
					<ele>43</ele>
					<time>0001-01-01T00:00:00Z</time>
				</trkpt>
				<trkpt lat="51.70815" lon="-0.04979">
					<ele>43</ele>
					<time>0001-01-01T00:00:00Z</time>
				</trkpt>
				<trkpt lat="51.70842" lon="-0.04987">
					<ele>42</ele>
					<time>0001-01-01T00:00:00Z</time>
				</trkpt>
				<trkpt lat="51.70939" lon="-0.04953">
					<ele>42</ele>
					<time>0001-01-01T00:00:00Z</time>
				</trkpt>
				<trkpt lat="51.70946" lon="-0.04920">
					<ele>42</ele>
					<time>0001-01-01T00:00:00Z</time>
				</trkpt>
				<trkpt lat="51.70924" lon="-0.04714">
					<ele>41</ele>
					<time>0001-01-01T00:00:00Z</time>
				</trkpt>
				<trkpt lat="51.70890" lon="-0.04530">
					<ele>41</ele>
					<time>0001-01-01T00:00:00Z</time>
				</trkpt>
				<trkpt lat="51.70857" lon="-0.04306">
					<ele>40</ele>
					<time>0001-01-01T00:00:00Z</time>
				</trkpt>
				<trkpt lat="51.70852" lon="-0.04236">
					<ele>39</ele>
					<time>0001-01-01T00:00:00Z</time>
				</trkpt>
				<trkpt lat="51.70845" lon="-0.04225">
					<ele>38</ele>
					<time>0001-01-01T00:00:00Z</time>
				</trkpt>
				<trkpt lat="51.70839" lon="-0.04185">
					<ele>38</ele>
					<time>0001-01-01T00:00:00Z</time>
				</trkpt>
				<trkpt lat="51.70834" lon="-0.04120">
					<ele>38</ele>
					<time>0001-01-01T00:00:00Z</time>
				</trkpt>
				<trkpt lat="51.70800" lon="-0.03834">
					<ele>37</ele>
					<time>0001-01-01T00:00:00Z</time>
				</trkpt>
				<trkpt lat="51.70790" lon="-0.03766">
					<ele>35</ele>
					<time>0001-01-01T00:00:00Z</time>
				</trkpt>
				<trkpt lat="51.70765" lon="-0.03739">
					<ele>34</ele>
					<time>0001-01-01T00:00:00Z</time>
				</trkpt>
				<trkpt lat="51.70673" lon="-0.03657">
					<ele>36</ele>
					<time>0001-01-01T00:00:00Z</time>
				</trkpt>
				<trkpt lat="51.70660" lon="-0.03641">
					<ele>36</ele>
					<time>0001-01-01T00:00:00Z</time>
				</trkpt>
				<trkpt lat="51.70670" lon="-0.03593">
					<ele>34</ele>
					<time>0001-01-01T00:00:00Z</time>
				</trkpt>
				<trkpt lat="51.70674" lon="-0.03574">
					<ele>34</ele>
					<time>0001-01-01T00:00:00Z</time>
				</trkpt>
				<trkpt lat="51.70670" lon="-0.03333">
					<ele>29</ele>
					<time>0001-01-01T00:00:00Z</time>
				</trkpt>
				<trkpt lat="51.70645" lon="-0.03206">
					<ele>28</ele>
					<time>0001-01-01T00:00:00Z</time>
				</trkpt>
				<trkpt lat="51.70636" lon="-0.02993">
					<ele>26</ele>
					<time>0001-01-01T00:00:00Z</time>
				</trkpt>
				<trkpt lat="51.70633" lon="-0.02941">
					<ele>26</ele>
					<time>0001-01-01T00:00:00Z</time>
				</trkpt>
				<trkpt lat="51.70624" lon="-0.02907">
					<ele>26</ele>
					<time>0001-01-01T00:00:00Z</time>
				</trkpt>
				<trkpt lat="51.70606" lon="-0.02882">
					<ele>27</ele>
					<time>0001-01-01T00:00:00Z</time>
				</trkpt>
				<trkpt lat="51.70595" lon="-0.02872">
					<ele>27</ele>
					<time>0001-01-01T00:00:00Z</time>
				</trkpt>
				<trkpt lat="51.70504" lon="-0.02864">
					<ele>26</ele>
					<time>0001-01-01T00:00:00Z</time>
				</trkpt>
				<trkpt lat="51.70452" lon="-0.02867">
					<ele>26</ele>
					<time>0001-01-01T00:00:00Z</time>
				</trkpt>
				<trkpt lat="51.70430" lon="-0.02883">
					<ele>25</ele>
					<time>0001-01-01T00:00:00Z</time>
				</trkpt>
				<trkpt lat="51.70408" lon="-0.02912">
					<ele>25</ele>
					<time>0001-01-01T00:00:00Z</time>
				</trkpt>
				<trkpt lat="51.70327" lon="-0.02938">
					<ele>24</ele>
					<time>0001-01-01T00:00:00Z</time>
				</trkpt>
				<trkpt lat="51.70286" lon="-0.02948">
					<ele>23</ele>
					<time>0001-01-01T00:00:00Z</time>
				</trkpt>
				<trkpt lat="51.70280" lon="-0.02922">
					<ele>25</ele>
					<time>0001-01-01T00:00:00Z</time>
				</trkpt>
				<trkpt lat="51.70277" lon="-0.02752">
					<ele>25</ele>
					<time>0001-01-01T00:00:00Z</time>
				</trkpt>
				<trkpt lat="51.70281" lon="-0.02707">
					<ele>25</ele>
					<time>0001-01-01T00:00:00Z</time>
				</trkpt>
				<trkpt lat="51.70310" lon="-0.02491">
					<ele>23</ele>
					<time>0001-01-01T00:00:00Z</time>
				</trkpt>
				<trkpt lat="51.70317" lon="-0.02411">
					<ele>22</ele>
					<time>0001-01-01T00:00:00Z</time>
				</trkpt>
				<trkpt lat="51.70317" lon="-0.02405">
					<ele>29</ele>
					<time>0001-01-01T00:00:00Z</time>
				</trkpt>
				<trkpt lat="51.70316" lon="-0.02403">
					<ele>32</ele>
					<time>0001-01-01T00:00:00Z</time>
				</trkpt>
				<trkpt lat="51.70316" lon="-0.02394">
					<ele>40</ele>
					<time>0001-01-01T00:00:00Z</time>
				</trkpt>
				<trkpt lat="51.70319" lon="-0.02394">
					<ele>32</ele>
					<time>0001-01-01T00:00:00Z</time>
				</trkpt>
				<trkpt lat="51.70326" lon="-0.02389">
					<ele>38</ele>
					<time>0001-01-01T00:00:00Z</time>
				</trkpt>
				<trkpt lat="51.70330" lon="-0.02386">
					<ele>39</ele>
					<time>0001-01-01T00:00:00Z</time>
				</trkpt>
				<trkpt lat="51.70329" lon="-0.02375">
					<ele>39</ele>
					<time>0001-01-01T00:00:00Z</time>
				</trkpt>
				<trkpt lat="51.70334" lon="-0.02365">
					<ele>32</ele>
					<time>0001-01-01T00:00:00Z</time>
				</trkpt>
				<trkpt lat="51.70326" lon="-0.02368">
					<ele>31</ele>
					<time>0001-01-01T00:00:00Z</time>
				</trkpt>
				<trkpt lat="51.70321" lon="-0.02364">
					<ele>30</ele>
					<time>0001-01-01T00:00:00Z</time>
				</trkpt>
				<trkpt lat="51.70316" lon="-0.02261">
					<ele>28</ele>
					<time>0001-01-01T00:00:00Z</time>
				</trkpt>
				<trkpt lat="51.70312" lon="-0.02227">
					<ele>28</ele>
					<time>0001-01-01T00:00:00Z</time>
				</trkpt>
				<trkpt lat="51.70312" lon="-0.02228">
					<ele>28</ele>
					<time>0001-01-01T00:00:00Z</time>
				</trkpt>
				<trkpt lat="51.70363" lon="-0.02213">
					<ele>28</ele>
					<time>0001-01-01T00:00:00Z</time>
				</trkpt>
				<trkpt lat="51.70375" lon="-0.02234">
					<ele>26</ele>
					<time>0001-01-01T00:00:00Z</time>
				</trkpt>
				<trkpt lat="51.70395" lon="-0.02253">
					<ele>28</ele>
					<time>0001-01-01T00:00:00Z</time>
				</trkpt>
				<trkpt lat="51.70392" lon="-0.02250">
					<ele>29</ele>
					<time>0001-01-01T00:00:00Z</time>
				</trkpt>
				<trkpt lat="51.70394" lon="-0.02243">
					<ele>31</ele>
					<time>0001-01-01T00:00:00Z</time>
				</trkpt>
		</trkseg>
	</trk>
</gpx>
